<?xml version="1.0" encoding="UTF-8" standalone="yes"?>
<gpx
 xmlns="http://www.topografix.com/GPX/1/1"
 creator="OziExplorer Version 3956f - http://www.oziexplorer.com"
 version="1.1"
 xmlns:xsi="http://www.w3.org/2001/XMLSchema-instance"
 xsi:schemaLocation="http://www.topografix.com/GPX/1/1 http://www.topografix.com/GPX/1/1/gpx.xsd">
<metadata>
 <time>2026-09-01T04:59:00Z</time>
 <bounds minlat="59.097447" minlon="30.349001" maxlat="60.136734" maxlon="31.418032"/>
</metadata>
<trk>
 <name>Текущий трек: 31 AUG 2026 19:40</name>
 <desc>Текущий трек: 31 AUG 2026 19:40</desc>
<trkseg>
<trkpt lat="59.4816318" lon="31.0143288">
<ele>55.520000</ele>
<time>2026-08-31T16:40:36.000Z</time>
</trkpt>
<trkpt lat="59.4816311" lon="31.0143191">
<ele>55.520000</ele>
<time>2026-08-31T16:40:39.000Z</time>
</trkpt>
<trkpt lat="59.4816277" lon="31.0143142">
<ele>57.570004</ele>
<time>2026-08-31T16:40:41.000Z</time>
</trkpt>
<trkpt lat="59.4816263" lon="31.0143187">
<ele>57.930000</ele>
<time>2026-08-31T16:41:19.000Z</time>
</trkpt>
<trkpt lat="59.4816264" lon="31.0143076">
<ele>57.779999</ele>
<time>2026-08-31T16:41:48.000Z</time>
</trkpt>
<trkpt lat="59.4816347" lon="31.0143211">
<ele>57.469997</ele>
<time>2026-08-31T16:42:02.000Z</time>
</trkpt>
<trkpt lat="59.4816877" lon="31.0143249">
<ele>57.559998</ele>
<time>2026-08-31T16:42:07.000Z</time>
</trkpt>
<trkpt lat="59.4817158" lon="31.0144806">
<ele>58.139999</ele>
<time>2026-08-31T16:42:19.000Z</time>
</trkpt>
<trkpt lat="59.4817222" lon="31.0145806">
<ele>58.399998</ele>
<time>2026-08-31T16:42:26.000Z</time>
</trkpt>
<trkpt lat="59.4817118" lon="31.0148397">
<ele>58.340000</ele>
<time>2026-08-31T16:42:39.000Z</time>
</trkpt>
<trkpt lat="59.4817058" lon="31.0150917">
<ele>58.919998</ele>
<time>2026-08-31T16:42:57.000Z</time>
</trkpt>
<trkpt lat="59.4816910" lon="31.0151489">
<ele>58.450001</ele>
<time>2026-08-31T16:43:19.000Z</time>
</trkpt>
<trkpt lat="59.4816879" lon="31.0151748">
<ele>58.580002</ele>
<time>2026-08-31T16:43:57.000Z</time>
</trkpt>
<trkpt lat="59.4816931" lon="31.0151665">
<ele>58.580002</ele>
<time>2026-08-31T16:44:32.000Z</time>
</trkpt>
<trkpt lat="59.4816921" lon="31.0151716">
<ele>58.730000</ele>
<time>2026-08-31T16:44:33.000Z</time>
</trkpt>
<trkpt lat="59.4816805" lon="31.0153761">
<ele>58.730000</ele>
<time>2026-08-31T16:44:52.000Z</time>
</trkpt>
<trkpt lat="59.4816905" lon="31.0154039">
<ele>58.350002</ele>
<time>2026-08-31T16:45:20.000Z</time>
</trkpt>
<trkpt lat="59.4817953" lon="31.0153452">
<ele>58.130001</ele>
<time>2026-08-31T16:45:35.000Z</time>
</trkpt>
<trkpt lat="59.4819093" lon="31.0154054">
<ele>58.350002</ele>
<time>2026-08-31T16:45:49.000Z</time>
</trkpt>
<trkpt lat="59.4819488" lon="31.0153683">
<ele>58.529999</ele>
<time>2026-08-31T16:45:54.000Z</time>
</trkpt>
<trkpt lat="59.4820282" lon="31.0153395">
<ele>58.079998</ele>
<time>2026-08-31T16:46:07.000Z</time>
</trkpt>
<trkpt lat="59.4820921" lon="31.0153763">
<ele>58.019997</ele>
<time>2026-08-31T16:46:23.000Z</time>
</trkpt>
<trkpt lat="59.4820995" lon="31.0154203">
<ele>57.510002</ele>
<time>2026-08-31T16:46:49.000Z</time>
</trkpt>
<trkpt lat="59.4820820" lon="31.0154077">
<ele>58.139999</ele>
<time>2026-08-31T16:46:56.000Z</time>
</trkpt>
<trkpt lat="59.4821090" lon="31.0154835">
<ele>57.259998</ele>
<time>2026-08-31T16:48:00.000Z</time>
</trkpt>
<trkpt lat="59.4821261" lon="31.0154463">
<ele>57.529999</ele>
<time>2026-08-31T16:48:22.000Z</time>
</trkpt>
<trkpt lat="59.4821800" lon="31.0155020">
<ele>57.540001</ele>
<time>2026-08-31T16:48:46.000Z</time>
</trkpt>
<trkpt lat="59.4822193" lon="31.0156090">
<ele>57.759998</ele>
<time>2026-08-31T16:48:59.000Z</time>
</trkpt>
<trkpt lat="59.4822408" lon="31.0159444">
<ele>57.990002</ele>
<time>2026-08-31T16:49:14.000Z</time>
</trkpt>
<trkpt lat="59.4822070" lon="31.0161031">
<ele>58.430000</ele>
<time>2026-08-31T16:49:27.000Z</time>
</trkpt>
<trkpt lat="59.4822183" lon="31.0164191">
<ele>58.270000</ele>
<time>2026-08-31T16:49:42.000Z</time>
</trkpt>
<trkpt lat="59.4822841" lon="31.0166149">
<ele>58.200001</ele>
<time>2026-08-31T16:49:57.000Z</time>
</trkpt>
<trkpt lat="59.4823038" lon="31.0167516">
<ele>57.540001</ele>
<time>2026-08-31T16:50:17.000Z</time>
</trkpt>
<trkpt lat="59.4823428" lon="31.0167796">
<ele>57.339996</ele>
<time>2026-08-31T16:50:34.000Z</time>
</trkpt>
<trkpt lat="59.4823701" lon="31.0169234">
<ele>57.670002</ele>
<time>2026-08-31T16:50:50.000Z</time>
</trkpt>
<trkpt lat="59.4824286" lon="31.0169775">
<ele>57.350002</ele>
<time>2026-08-31T16:51:21.000Z</time>
</trkpt>
<trkpt lat="59.4825383" lon="31.0171744">
<ele>57.529999</ele>
<time>2026-08-31T16:51:36.000Z</time>
</trkpt>
<trkpt lat="59.4826051" lon="31.0173826">
<ele>57.430000</ele>
<time>2026-08-31T16:51:50.000Z</time>
</trkpt>
<trkpt lat="59.4826709" lon="31.0174821">
<ele>57.459999</ele>
<time>2026-08-31T16:52:10.000Z</time>
</trkpt>
<trkpt lat="59.4827659" lon="31.0175976">
<ele>57.700001</ele>
<time>2026-08-31T16:52:38.000Z</time>
</trkpt>
<trkpt lat="59.4827643" lon="31.0175279">
<ele>57.629997</ele>
<time>2026-08-31T16:52:53.000Z</time>
</trkpt>
<trkpt lat="59.4828229" lon="31.0176193">
<ele>56.960003</ele>
<time>2026-08-31T16:53:16.000Z</time>
</trkpt>
<trkpt lat="59.4828359" lon="31.0176279">
<ele>57.500000</ele>
<time>2026-08-31T16:53:38.000Z</time>
</trkpt>
<trkpt lat="59.4828865" lon="31.0175502">
<ele>57.619999</ele>
<time>2026-08-31T16:53:50.000Z</time>
</trkpt>
<trkpt lat="59.4829486" lon="31.0174681">
<ele>57.740002</ele>
<time>2026-08-31T16:54:01.000Z</time>
</trkpt>
<trkpt lat="59.4829333" lon="31.0175204">
<ele>57.520000</ele>
<time>2026-08-31T16:54:14.000Z</time>
</trkpt>
<trkpt lat="59.4829622" lon="31.0175275">
<ele>57.430000</ele>
<time>2026-08-31T16:54:40.000Z</time>
</trkpt>
<trkpt lat="59.4829839" lon="31.0175421">
<ele>57.430000</ele>
<time>2026-08-31T16:55:04.000Z</time>
</trkpt>
<trkpt lat="59.4830503" lon="31.0175021">
<ele>57.500000</ele>
<time>2026-08-31T16:55:18.000Z</time>
</trkpt>
<trkpt lat="59.4831554" lon="31.0172879">
<ele>57.660000</ele>
<time>2026-08-31T16:55:32.000Z</time>
</trkpt>
<trkpt lat="59.4832596" lon="31.0171613">
<ele>57.670002</ele>
<time>2026-08-31T16:55:45.000Z</time>
</trkpt>
<trkpt lat="59.4833365" lon="31.0170147">
<ele>57.540001</ele>
<time>2026-08-31T16:55:58.000Z</time>
</trkpt>
<trkpt lat="59.4833940" lon="31.0169118">
<ele>57.619999</ele>
<time>2026-08-31T16:56:11.000Z</time>
</trkpt>
<trkpt lat="59.4834037" lon="31.0168677">
<ele>57.160000</ele>
<time>2026-08-31T16:56:30.000Z</time>
</trkpt>
<trkpt lat="59.4833964" lon="31.0167976">
<ele>57.689999</ele>
<time>2026-08-31T16:56:43.000Z</time>
</trkpt>
<trkpt lat="59.4834764" lon="31.0167575">
<ele>57.680000</ele>
<time>2026-08-31T16:56:53.000Z</time>
</trkpt>
<trkpt lat="59.4834690" lon="31.0165950">
<ele>57.179996</ele>
<time>2026-08-31T16:57:05.000Z</time>
</trkpt>
<trkpt lat="59.4834749" lon="31.0165751">
<ele>57.310001</ele>
<time>2026-08-31T16:57:11.000Z</time>
</trkpt>
<trkpt lat="59.4835465" lon="31.0165614">
<ele>56.990002</ele>
<time>2026-08-31T16:57:23.000Z</time>
</trkpt>
<trkpt lat="59.4835575" lon="31.0166465">
<ele>57.150002</ele>
<time>2026-08-31T16:58:06.000Z</time>
</trkpt>
<trkpt lat="59.4836356" lon="31.0168801">
<ele>57.529999</ele>
<time>2026-08-31T16:58:28.000Z</time>
</trkpt>
<trkpt lat="59.4836936" lon="31.0169466">
<ele>57.430000</ele>
<time>2026-08-31T16:58:41.000Z</time>
</trkpt>
<trkpt lat="59.4836422" lon="31.0168680">
<ele>56.480000</ele>
<time>2026-08-31T16:58:55.000Z</time>
</trkpt>
<trkpt lat="59.4836432" lon="31.0168791">
<ele>57.020000</ele>
<time>2026-08-31T16:59:28.000Z</time>
</trkpt>
<trkpt lat="59.4836252" lon="31.0168517">
<ele>57.169998</ele>
<time>2026-08-31T16:59:52.000Z</time>
</trkpt>
<trkpt lat="59.4836146" lon="31.0168454">
<ele>56.949997</ele>
<time>2026-08-31T17:00:20.000Z</time>
</trkpt>
<trkpt lat="59.4836209" lon="31.0168879">
<ele>56.709999</ele>
<time>2026-08-31T17:01:13.000Z</time>
</trkpt>
<trkpt lat="59.4836186" lon="31.0168641">
<ele>56.570000</ele>
<time>2026-08-31T17:02:11.000Z</time>
</trkpt>
<trkpt lat="59.4836342" lon="31.0169054">
<ele>56.430000</ele>
<time>2026-08-31T17:02:28.000Z</time>
</trkpt>
<trkpt lat="59.4836349" lon="31.0169148">
<ele>56.360001</ele>
<time>2026-08-31T17:03:04.000Z</time>
</trkpt>
<trkpt lat="59.4836227" lon="31.0169175">
<ele>56.310001</ele>
<time>2026-08-31T17:03:35.000Z</time>
</trkpt>
<trkpt lat="59.4836155" lon="31.0168747">
<ele>56.329998</ele>
<time>2026-08-31T17:04:15.000Z</time>
</trkpt>
<trkpt lat="59.4835945" lon="31.0168915">
<ele>56.070000</ele>
<time>2026-08-31T17:04:58.000Z</time>
</trkpt>
<trkpt lat="59.4835672" lon="31.0169817">
<ele>56.139999</ele>
<time>2026-08-31T17:05:22.000Z</time>
</trkpt>
<trkpt lat="59.4835207" lon="31.0171174">
<ele>56.340000</ele>
<time>2026-08-31T17:05:39.000Z</time>
</trkpt>
<trkpt lat="59.4834564" lon="31.0172071">
<ele>56.370003</ele>
<time>2026-08-31T17:05:48.000Z</time>
</trkpt>
<trkpt lat="59.4834083" lon="31.0174166">
<ele>56.230000</ele>
<time>2026-08-31T17:06:00.000Z</time>
</trkpt>
<trkpt lat="59.4833506" lon="31.0175752">
<ele>56.080002</ele>
<time>2026-08-31T17:06:15.000Z</time>
</trkpt>
<trkpt lat="59.4832870" lon="31.0177082">
<ele>56.280003</ele>
<time>2026-08-31T17:06:29.000Z</time>
</trkpt>
<trkpt lat="59.4832542" lon="31.0178720">
<ele>56.000000</ele>
<time>2026-08-31T17:06:44.000Z</time>
</trkpt>
<trkpt lat="59.4832337" lon="31.0180095">
<ele>56.070000</ele>
<time>2026-08-31T17:06:56.000Z</time>
</trkpt>
<trkpt lat="59.4832534" lon="31.0182096">
<ele>56.119999</ele>
<time>2026-08-31T17:07:10.000Z</time>
</trkpt>
<trkpt lat="59.4832086" lon="31.0183570">
<ele>56.360001</ele>
<time>2026-08-31T17:07:26.000Z</time>
</trkpt>
<trkpt lat="59.4832129" lon="31.0183662">
<ele>55.600002</ele>
<time>2026-08-31T17:08:07.000Z</time>
</trkpt>
<trkpt lat="59.4832150" lon="31.0183567">
<ele>54.250000</ele>
<time>2026-08-31T17:08:11.000Z</time>
</trkpt>
<trkpt lat="59.4832104" lon="31.0183362">
<ele>56.450001</ele>
<time>2026-08-31T17:08:19.000Z</time>
</trkpt>
<trkpt lat="59.4831267" lon="31.0182466">
<ele>56.310001</ele>
<time>2026-08-31T17:08:41.000Z</time>
</trkpt>
<trkpt lat="59.4830198" lon="31.0181599">
<ele>55.889999</ele>
<time>2026-08-31T17:08:54.000Z</time>
</trkpt>
<trkpt lat="59.4829696" lon="31.0182144">
<ele>55.530003</ele>
<time>2026-08-31T17:09:15.000Z</time>
</trkpt>
<trkpt lat="59.4829471" lon="31.0181778">
<ele>55.619999</ele>
<time>2026-08-31T17:09:49.000Z</time>
</trkpt>
<trkpt lat="59.4829745" lon="31.0182139">
<ele>55.489998</ele>
<time>2026-08-31T17:10:16.000Z</time>
</trkpt>
<trkpt lat="59.4829641" lon="31.0181983">
<ele>55.259998</ele>
<time>2026-08-31T17:10:42.000Z</time>
</trkpt>
<trkpt lat="59.4829617" lon="31.0182355">
<ele>55.000000</ele>
<time>2026-08-31T17:11:21.000Z</time>
</trkpt>
<trkpt lat="59.4829113" lon="31.0181830">
<ele>54.990002</ele>
<time>2026-08-31T17:11:48.000Z</time>
</trkpt>
<trkpt lat="59.4827425" lon="31.0181260">
<ele>55.240002</ele>
<time>2026-08-31T17:12:04.000Z</time>
</trkpt>
<trkpt lat="59.4826829" lon="31.0181254">
<ele>55.250000</ele>
<time>2026-08-31T17:12:23.000Z</time>
</trkpt>
<trkpt lat="59.4826323" lon="31.0182467">
<ele>55.020000</ele>
<time>2026-08-31T17:12:47.000Z</time>
</trkpt>
<trkpt lat="59.4825886" lon="31.0183835">
<ele>55.269997</ele>
<time>2026-08-31T17:13:19.000Z</time>
</trkpt>
<trkpt lat="59.4825085" lon="31.0184303">
<ele>55.300003</ele>
<time>2026-08-31T17:13:35.000Z</time>
</trkpt>
<trkpt lat="59.4824763" lon="31.0184470">
<ele>55.180000</ele>
<time>2026-08-31T17:13:58.000Z</time>
</trkpt>
<trkpt lat="59.4824764" lon="31.0183913">
<ele>55.140003</ele>
<time>2026-08-31T17:14:15.000Z</time>
</trkpt>
<trkpt lat="59.4824478" lon="31.0182580">
<ele>55.070000</ele>
<time>2026-08-31T17:14:35.000Z</time>
</trkpt>
<trkpt lat="59.4823944" lon="31.0182037">
<ele>55.419998</ele>
<time>2026-08-31T17:14:48.000Z</time>
</trkpt>
<trkpt lat="59.4823847" lon="31.0180752">
<ele>55.060001</ele>
<time>2026-08-31T17:15:07.000Z</time>
</trkpt>
<trkpt lat="59.4823563" lon="31.0180424">
<ele>54.589996</ele>
<time>2026-08-31T17:16:04.000Z</time>
</trkpt>
<trkpt lat="59.4822325" lon="31.0180602">
<ele>54.920002</ele>
<time>2026-08-31T17:16:21.000Z</time>
</trkpt>
<trkpt lat="59.4821675" lon="31.0180625">
<ele>55.080002</ele>
<time>2026-08-31T17:16:43.000Z</time>
</trkpt>
<trkpt lat="59.4821126" lon="31.0180863">
<ele>55.060001</ele>
<time>2026-08-31T17:17:37.000Z</time>
</trkpt>
<trkpt lat="59.4821132" lon="31.0180710">
<ele>57.000000</ele>
<time>2026-08-31T17:18:32.000Z</time>
</trkpt>
<trkpt lat="59.4821278" lon="31.0180620">
<ele>55.240002</ele>
<time>2026-08-31T17:18:53.000Z</time>
</trkpt>
<trkpt lat="59.4821296" lon="31.0180332">
<ele>55.360001</ele>
<time>2026-08-31T17:19:23.000Z</time>
</trkpt>
<trkpt lat="59.4820951" lon="31.0179891">
<ele>55.760002</ele>
<time>2026-08-31T17:19:41.000Z</time>
</trkpt>
<trkpt lat="59.4819779" lon="31.0179203">
<ele>55.610001</ele>
<time>2026-08-31T17:20:07.000Z</time>
</trkpt>
<trkpt lat="59.4820042" lon="31.0180331">
<ele>55.419998</ele>
<time>2026-08-31T17:20:34.000Z</time>
</trkpt>
<trkpt lat="59.4821364" lon="31.0180798">
<ele>55.440002</ele>
<time>2026-08-31T17:20:57.000Z</time>
</trkpt>
<trkpt lat="59.4823193" lon="31.0179571">
<ele>55.060001</ele>
<time>2026-08-31T17:21:20.000Z</time>
</trkpt>
<trkpt lat="59.4823825" lon="31.0180713">
<ele>55.570000</ele>
<time>2026-08-31T17:21:45.000Z</time>
</trkpt>
<trkpt lat="59.4824239" lon="31.0182944">
<ele>55.240002</ele>
<time>2026-08-31T17:22:16.000Z</time>
</trkpt>
<trkpt lat="59.4824053" lon="31.0183536">
<ele>55.410000</ele>
<time>2026-08-31T17:22:31.000Z</time>
</trkpt>
<trkpt lat="59.4824524" lon="31.0184138">
<ele>55.389999</ele>
<time>2026-08-31T17:23:06.000Z</time>
</trkpt>
<trkpt lat="59.4824649" lon="31.0183930">
<ele>55.380001</ele>
<time>2026-08-31T17:23:36.000Z</time>
</trkpt>
<trkpt lat="59.4825110" lon="31.0184080">
<ele>55.230000</ele>
<time>2026-08-31T17:24:03.000Z</time>
</trkpt>
<trkpt lat="59.4825070" lon="31.0184396">
<ele>55.160000</ele>
<time>2026-08-31T17:24:25.000Z</time>
</trkpt>
<trkpt lat="59.4825374" lon="31.0183724">
<ele>55.320000</ele>
<time>2026-08-31T17:24:51.000Z</time>
</trkpt>
<trkpt lat="59.4825670" lon="31.0183928">
<ele>55.110001</ele>
<time>2026-08-31T17:25:15.000Z</time>
</trkpt>
<trkpt lat="59.4826049" lon="31.0183538">
<ele>55.150002</ele>
<time>2026-08-31T17:25:39.000Z</time>
</trkpt>
<trkpt lat="59.4827193" lon="31.0184052">
<ele>55.419998</ele>
<time>2026-08-31T17:26:00.000Z</time>
</trkpt>
<trkpt lat="59.4828532" lon="31.0183130">
<ele>55.549999</ele>
<time>2026-08-31T17:26:16.000Z</time>
</trkpt>
<trkpt lat="59.4829207" lon="31.0182652">
<ele>55.189999</ele>
<time>2026-08-31T17:26:35.000Z</time>
</trkpt>
<trkpt lat="59.4829268" lon="31.0181330">
<ele>55.240002</ele>
<time>2026-08-31T17:26:58.000Z</time>
</trkpt>
<trkpt lat="59.4829282" lon="31.0181373">
<ele>55.230000</ele>
<time>2026-08-31T17:27:17.000Z</time>
</trkpt>
<trkpt lat="59.4829124" lon="31.0181508">
<ele>55.300003</ele>
<time>2026-08-31T17:27:56.000Z</time>
</trkpt>
<trkpt lat="59.4829341" lon="31.0181855">
<ele>55.380001</ele>
<time>2026-08-31T17:28:28.000Z</time>
</trkpt>
<trkpt lat="59.4829480" lon="31.0182148">
<ele>55.099998</ele>
<time>2026-08-31T17:29:33.000Z</time>
</trkpt>
<trkpt lat="59.4829268" lon="31.0182159">
<ele>54.860001</ele>
<time>2026-08-31T17:30:09.000Z</time>
</trkpt>
<trkpt lat="59.4829369" lon="31.0182148">
<ele>54.830002</ele>
<time>2026-08-31T17:31:14.000Z</time>
</trkpt>
<trkpt lat="59.4829131" lon="31.0182000">
<ele>55.010002</ele>
<time>2026-08-31T17:32:06.000Z</time>
</trkpt>
<trkpt lat="59.4828939" lon="31.0182985">
<ele>54.860001</ele>
<time>2026-08-31T17:32:24.000Z</time>
</trkpt>
<trkpt lat="59.4828452" lon="31.0184554">
<ele>55.029999</ele>
<time>2026-08-31T17:32:51.000Z</time>
</trkpt>
<trkpt lat="59.4828071" lon="31.0185580">
<ele>54.959999</ele>
<time>2026-08-31T17:33:07.000Z</time>
</trkpt>
<trkpt lat="59.4827499" lon="31.0187807">
<ele>54.879997</ele>
<time>2026-08-31T17:33:30.000Z</time>
</trkpt>
<trkpt lat="59.4827504" lon="31.0189992">
<ele>55.220001</ele>
<time>2026-08-31T17:33:56.000Z</time>
</trkpt>
<trkpt lat="59.4827965" lon="31.0191073">
<ele>55.329998</ele>
<time>2026-08-31T17:34:21.000Z</time>
</trkpt>
<trkpt lat="59.4827653" lon="31.0191300">
<ele>55.060001</ele>
<time>2026-08-31T17:34:39.000Z</time>
</trkpt>
<trkpt lat="59.4827020" lon="31.0192623">
<ele>55.470001</ele>
<time>2026-08-31T17:34:53.000Z</time>
</trkpt>
<trkpt lat="59.4826172" lon="31.0193967">
<ele>55.690002</ele>
<time>2026-08-31T17:35:14.000Z</time>
</trkpt>
<trkpt lat="59.4825479" lon="31.0194965">
<ele>55.570000</ele>
<time>2026-08-31T17:35:34.000Z</time>
</trkpt>
<trkpt lat="59.4823777" lon="31.0197057">
<ele>55.790001</ele>
<time>2026-08-31T17:35:50.000Z</time>
</trkpt>
<trkpt lat="59.4823415" lon="31.0195955">
<ele>55.649998</ele>
<time>2026-08-31T17:36:07.000Z</time>
</trkpt>
<trkpt lat="59.4822820" lon="31.0195754">
<ele>55.559998</ele>
<time>2026-08-31T17:36:26.000Z</time>
</trkpt>
<trkpt lat="59.4822829" lon="31.0195649">
<ele>55.230000</ele>
<time>2026-08-31T17:37:08.000Z</time>
</trkpt>
<trkpt lat="59.4822354" lon="31.0195966">
<ele>55.760002</ele>
<time>2026-08-31T17:37:25.000Z</time>
</trkpt>
<trkpt lat="59.4822251" lon="31.0196230">
<ele>55.949997</ele>
<time>2026-08-31T17:37:54.000Z</time>
</trkpt>
<trkpt lat="59.4822498" lon="31.0196002">
<ele>56.060001</ele>
<time>2026-08-31T17:38:19.000Z</time>
</trkpt>
<trkpt lat="59.4822167" lon="31.0195960">
<ele>56.009998</ele>
<time>2026-08-31T17:39:16.000Z</time>
</trkpt>
<trkpt lat="59.4822355" lon="31.0196100">
<ele>56.419998</ele>
<time>2026-08-31T17:39:51.000Z</time>
</trkpt>
<trkpt lat="59.4822101" lon="31.0195967">
<ele>56.389999</ele>
<time>2026-08-31T17:40:20.000Z</time>
</trkpt>
<trkpt lat="59.4820859" lon="31.0196572">
<ele>56.130001</ele>
<time>2026-08-31T17:40:31.000Z</time>
</trkpt>
<trkpt lat="59.4820132" lon="31.0196758">
<ele>56.529999</ele>
<time>2026-08-31T17:40:44.000Z</time>
</trkpt>
<trkpt lat="59.4819636" lon="31.0197404">
<ele>56.000000</ele>
<time>2026-08-31T17:40:57.000Z</time>
</trkpt>
<trkpt lat="59.4819252" lon="31.0197924">
<ele>56.380001</ele>
<time>2026-08-31T17:41:18.000Z</time>
</trkpt>
<trkpt lat="59.4818931" lon="31.0199906">
<ele>56.529999</ele>
<time>2026-08-31T17:41:40.000Z</time>
</trkpt>
<trkpt lat="59.4818734" lon="31.0202135">
<ele>56.580002</ele>
<time>2026-08-31T17:41:59.000Z</time>
</trkpt>
<trkpt lat="59.4818630" lon="31.0202799">
<ele>56.549999</ele>
<time>2026-08-31T17:42:17.000Z</time>
</trkpt>
<trkpt lat="59.4818261" lon="31.0202924">
<ele>55.920002</ele>
<time>2026-08-31T17:42:38.000Z</time>
</trkpt>
<trkpt lat="59.4817900" lon="31.0204191">
<ele>57.000000</ele>
<time>2026-08-31T17:42:58.000Z</time>
</trkpt>
<trkpt lat="59.4816704" lon="31.0205707">
<ele>56.559998</ele>
<time>2026-08-31T17:43:16.000Z</time>
</trkpt>
<trkpt lat="59.4816164" lon="31.0207083">
<ele>56.600002</ele>
<time>2026-08-31T17:43:35.000Z</time>
</trkpt>
<trkpt lat="59.4815689" lon="31.0207964">
<ele>56.610001</ele>
<time>2026-08-31T17:44:06.000Z</time>
</trkpt>
<trkpt lat="59.4815527" lon="31.0207388">
<ele>57.220001</ele>
<time>2026-08-31T17:44:31.000Z</time>
</trkpt>
<trkpt lat="59.4815636" lon="31.0207434">
<ele>56.220001</ele>
<time>2026-08-31T17:44:45.000Z</time>
</trkpt>
<trkpt lat="59.4815693" lon="31.0207781">
<ele>56.580002</ele>
<time>2026-08-31T17:45:28.000Z</time>
</trkpt>
<trkpt lat="59.4815853" lon="31.0207341">
<ele>56.470001</ele>
<time>2026-08-31T17:45:48.000Z</time>
</trkpt>
<trkpt lat="59.4815956" lon="31.0207930">
<ele>56.329998</ele>
<time>2026-08-31T17:46:13.000Z</time>
</trkpt>
<trkpt lat="59.4815267" lon="31.0208191">
<ele>56.879997</ele>
<time>2026-08-31T17:46:30.000Z</time>
</trkpt>
<trkpt lat="59.4814853" lon="31.0209107">
<ele>56.440002</ele>
<time>2026-08-31T17:46:50.000Z</time>
</trkpt>
<trkpt lat="59.4814724" lon="31.0209412">
<ele>56.730000</ele>
<time>2026-08-31T17:47:06.000Z</time>
</trkpt>
<trkpt lat="59.4814674" lon="31.0209863">
<ele>56.770000</ele>
<time>2026-08-31T17:47:24.000Z</time>
</trkpt>
<trkpt lat="59.4814272" lon="31.0211545">
<ele>56.830002</ele>
<time>2026-08-31T17:47:42.000Z</time>
</trkpt>
<trkpt lat="59.4813951" lon="31.0212060">
<ele>56.639999</ele>
<time>2026-08-31T17:48:04.000Z</time>
</trkpt>
<trkpt lat="59.4813704" lon="31.0211877">
<ele>57.000000</ele>
<time>2026-08-31T17:48:30.000Z</time>
</trkpt>
<trkpt lat="59.4813905" lon="31.0212032">
<ele>56.499996</ele>
<time>2026-08-31T17:49:02.000Z</time>
</trkpt>
<trkpt lat="59.4814176" lon="31.0211877">
<ele>56.499996</ele>
<time>2026-08-31T17:49:31.000Z</time>
</trkpt>
<trkpt lat="59.4814268" lon="31.0212065">
<ele>56.600002</ele>
<time>2026-08-31T17:49:46.000Z</time>
</trkpt>
<trkpt lat="59.4814451" lon="31.0211875">
<ele>56.750000</ele>
<time>2026-08-31T17:50:13.000Z</time>
</trkpt>
<trkpt lat="59.4814363" lon="31.0211811">
<ele>56.130001</ele>
<time>2026-08-31T17:50:46.000Z</time>
</trkpt>
<trkpt lat="59.4814471" lon="31.0211564">
<ele>56.430000</ele>
<time>2026-08-31T17:51:31.000Z</time>
</trkpt>
<trkpt lat="59.4814568" lon="31.0211925">
<ele>56.570000</ele>
<time>2026-08-31T17:52:02.000Z</time>
</trkpt>
<trkpt lat="59.4814642" lon="31.0213485">
<ele>56.779999</ele>
<time>2026-08-31T17:52:21.000Z</time>
</trkpt>
<trkpt lat="59.4814569" lon="31.0215292">
<ele>57.009998</ele>
<time>2026-08-31T17:52:38.000Z</time>
</trkpt>
<trkpt lat="59.4814077" lon="31.0216630">
<ele>57.040001</ele>
<time>2026-08-31T17:52:49.000Z</time>
</trkpt>
<trkpt lat="59.4814479" lon="31.0217966">
<ele>57.290001</ele>
<time>2026-08-31T17:53:08.000Z</time>
</trkpt>
<trkpt lat="59.4815128" lon="31.0218634">
<ele>57.259998</ele>
<time>2026-08-31T17:53:15.000Z</time>
</trkpt>
<trkpt lat="59.4815904" lon="31.0219349">
<ele>57.339996</ele>
<time>2026-08-31T17:53:24.000Z</time>
</trkpt>
<trkpt lat="59.4816796" lon="31.0220814">
<ele>57.369999</ele>
<time>2026-08-31T17:53:37.000Z</time>
</trkpt>
<trkpt lat="59.4817298" lon="31.0222061">
<ele>57.299999</ele>
<time>2026-08-31T17:53:46.000Z</time>
</trkpt>
<trkpt lat="59.4817732" lon="31.0222901">
<ele>57.120003</ele>
<time>2026-08-31T17:53:53.000Z</time>
</trkpt>
<trkpt lat="59.4818682" lon="31.0225003">
<ele>56.920002</ele>
<time>2026-08-31T17:54:08.000Z</time>
</trkpt>
<trkpt lat="59.4819011" lon="31.0225754">
<ele>57.090000</ele>
<time>2026-08-31T17:54:23.000Z</time>
</trkpt>
<trkpt lat="59.4818988" lon="31.0225995">
<ele>56.980000</ele>
<time>2026-08-31T17:54:38.000Z</time>
</trkpt>
<trkpt lat="59.4818931" lon="31.0225511">
<ele>56.910000</ele>
<time>2026-08-31T17:54:53.000Z</time>
</trkpt>
<trkpt lat="59.4818905" lon="31.0225376">
<ele>57.440002</ele>
<time>2026-08-31T17:55:19.000Z</time>
</trkpt>
<trkpt lat="59.4818721" lon="31.0225820">
<ele>56.760002</ele>
<time>2026-08-31T17:55:34.000Z</time>
</trkpt>
<trkpt lat="59.4818935" lon="31.0226460">
<ele>57.420002</ele>
<time>2026-08-31T17:56:22.000Z</time>
</trkpt>
<trkpt lat="59.4819208" lon="31.0227062">
<ele>57.380001</ele>
<time>2026-08-31T17:56:25.000Z</time>
</trkpt>
<trkpt lat="59.4820938" lon="31.0230206">
<ele>57.500000</ele>
<time>2026-08-31T17:56:43.000Z</time>
</trkpt>
<trkpt lat="59.4821431" lon="31.0232604">
<ele>57.150002</ele>
<time>2026-08-31T17:56:58.000Z</time>
</trkpt>
<trkpt lat="59.4821698" lon="31.0232810">
<ele>57.549999</ele>
<time>2026-08-31T17:57:26.000Z</time>
</trkpt>
<trkpt lat="59.4821708" lon="31.0232584">
<ele>57.139999</ele>
<time>2026-08-31T17:57:50.000Z</time>
</trkpt>
<trkpt lat="59.4821483" lon="31.0232895">
<ele>57.239998</ele>
<time>2026-08-31T17:58:21.000Z</time>
</trkpt>
<trkpt lat="59.4821525" lon="31.0232765">
<ele>57.610001</ele>
<time>2026-08-31T17:58:44.000Z</time>
</trkpt>
<trkpt lat="59.4821631" lon="31.0232949">
<ele>57.280003</ele>
<time>2026-08-31T17:59:31.000Z</time>
</trkpt>
<trkpt lat="59.4821759" lon="31.0232590">
<ele>57.520000</ele>
<time>2026-08-31T18:00:24.000Z</time>
</trkpt>
<trkpt lat="59.4822104" lon="31.0232243">
<ele>57.380001</ele>
<time>2026-08-31T18:00:46.000Z</time>
</trkpt>
<trkpt lat="59.4822291" lon="31.0231633">
<ele>57.339996</ele>
<time>2026-08-31T18:01:03.000Z</time>
</trkpt>
<trkpt lat="59.4822235" lon="31.0230630">
<ele>57.600002</ele>
<time>2026-08-31T18:01:16.000Z</time>
</trkpt>
<trkpt lat="59.4822432" lon="31.0229754">
<ele>57.740002</ele>
<time>2026-08-31T18:01:43.000Z</time>
</trkpt>
<trkpt lat="59.4823187" lon="31.0228775">
<ele>57.420002</ele>
<time>2026-08-31T18:01:59.000Z</time>
</trkpt>
<trkpt lat="59.4823750" lon="31.0227657">
<ele>57.360001</ele>
<time>2026-08-31T18:02:19.000Z</time>
</trkpt>
<trkpt lat="59.4824111" lon="31.0225807">
<ele>57.580002</ele>
<time>2026-08-31T18:02:44.000Z</time>
</trkpt>
<trkpt lat="59.4824934" lon="31.0223638">
<ele>57.510002</ele>
<time>2026-08-31T18:02:59.000Z</time>
</trkpt>
<trkpt lat="59.4825012" lon="31.0223506">
<ele>57.529999</ele>
<time>2026-08-31T18:03:00.000Z</time>
</trkpt>
<trkpt lat="59.4825508" lon="31.0222771">
<ele>57.250000</ele>
<time>2026-08-31T18:03:13.000Z</time>
</trkpt>
<trkpt lat="59.4826010" lon="31.0221926">
<ele>57.430000</ele>
<time>2026-08-31T18:03:26.000Z</time>
</trkpt>
<trkpt lat="59.4826467" lon="31.0220743">
<ele>57.480000</ele>
<time>2026-08-31T18:03:49.000Z</time>
</trkpt>
<trkpt lat="59.4827259" lon="31.0219473">
<ele>57.980000</ele>
<time>2026-08-31T18:04:14.000Z</time>
</trkpt>
<trkpt lat="59.4827965" lon="31.0218780">
<ele>57.930000</ele>
<time>2026-08-31T18:04:30.000Z</time>
</trkpt>
<trkpt lat="59.4828436" lon="31.0218328">
<ele>57.890003</ele>
<time>2026-08-31T18:04:59.000Z</time>
</trkpt>
<trkpt lat="59.4828680" lon="31.0217955">
<ele>58.040001</ele>
<time>2026-08-31T18:05:26.000Z</time>
</trkpt>
<trkpt lat="59.4828590" lon="31.0218153">
<ele>57.820000</ele>
<time>2026-08-31T18:05:53.000Z</time>
</trkpt>
<trkpt lat="59.4828421" lon="31.0217991">
<ele>58.430000</ele>
<time>2026-08-31T18:06:49.000Z</time>
</trkpt>
<trkpt lat="59.4828654" lon="31.0216726">
<ele>58.360001</ele>
<time>2026-08-31T18:07:11.000Z</time>
</trkpt>
<trkpt lat="59.4829213" lon="31.0215884">
<ele>58.399998</ele>
<time>2026-08-31T18:07:24.000Z</time>
</trkpt>
<trkpt lat="59.4829881" lon="31.0215328">
<ele>58.570004</ele>
<time>2026-08-31T18:07:36.000Z</time>
</trkpt>
<trkpt lat="59.4830156" lon="31.0214883">
<ele>58.660000</ele>
<time>2026-08-31T18:07:50.000Z</time>
</trkpt>
<trkpt lat="59.4830553" lon="31.0213879">
<ele>58.859997</ele>
<time>2026-08-31T18:08:04.000Z</time>
</trkpt>
<trkpt lat="59.4831209" lon="31.0212281">
<ele>58.340000</ele>
<time>2026-08-31T18:08:19.000Z</time>
</trkpt>
<trkpt lat="59.4831803" lon="31.0212315">
<ele>59.079998</ele>
<time>2026-08-31T18:08:31.000Z</time>
</trkpt>
<trkpt lat="59.4832472" lon="31.0210004">
<ele>59.070000</ele>
<time>2026-08-31T18:08:53.000Z</time>
</trkpt>
<trkpt lat="59.4833303" lon="31.0209303">
<ele>59.200001</ele>
<time>2026-08-31T18:09:06.000Z</time>
</trkpt>
<trkpt lat="59.4833883" lon="31.0208423">
<ele>59.170002</ele>
<time>2026-08-31T18:09:20.000Z</time>
</trkpt>
<trkpt lat="59.4834237" lon="31.0207002">
<ele>59.509998</ele>
<time>2026-08-31T18:09:32.000Z</time>
</trkpt>
<trkpt lat="59.4834682" lon="31.0206080">
<ele>59.340000</ele>
<time>2026-08-31T18:09:53.000Z</time>
</trkpt>
<trkpt lat="59.4834751" lon="31.0205918">
<ele>59.340000</ele>
<time>2026-08-31T18:09:55.000Z</time>
</trkpt>
<trkpt lat="59.4835308" lon="31.0205593">
<ele>59.319996</ele>
<time>2026-08-31T18:10:10.000Z</time>
</trkpt>
<trkpt lat="59.4835710" lon="31.0205270">
<ele>59.230000</ele>
<time>2026-08-31T18:10:36.000Z</time>
</trkpt>
<trkpt lat="59.4835642" lon="31.0205448">
<ele>59.439999</ele>
<time>2026-08-31T18:11:22.000Z</time>
</trkpt>
<trkpt lat="59.4835635" lon="31.0205906">
<ele>59.350002</ele>
<time>2026-08-31T18:11:38.000Z</time>
</trkpt>
<trkpt lat="59.4835455" lon="31.0205559">
<ele>59.180000</ele>
<time>2026-08-31T18:12:17.000Z</time>
</trkpt>
<trkpt lat="59.4835516" lon="31.0205108">
<ele>59.079998</ele>
<time>2026-08-31T18:12:48.000Z</time>
</trkpt>
<trkpt lat="59.4835801" lon="31.0204461">
<ele>59.030003</ele>
<time>2026-08-31T18:13:02.000Z</time>
</trkpt>
<trkpt lat="59.4836371" lon="31.0203130">
<ele>58.970001</ele>
<time>2026-08-31T18:13:16.000Z</time>
</trkpt>
<trkpt lat="59.4836499" lon="31.0203000">
<ele>59.250004</ele>
<time>2026-08-31T18:13:18.000Z</time>
</trkpt>
<trkpt lat="59.4836805" lon="31.0201084">
<ele>58.939999</ele>
<time>2026-08-31T18:13:31.000Z</time>
</trkpt>
<trkpt lat="59.4837226" lon="31.0200985">
<ele>59.190002</ele>
<time>2026-08-31T18:13:39.000Z</time>
</trkpt>
<trkpt lat="59.4837829" lon="31.0200105">
<ele>59.190002</ele>
<time>2026-08-31T18:13:52.000Z</time>
</trkpt>
<trkpt lat="59.4838318" lon="31.0199032">
<ele>58.420002</ele>
<time>2026-08-31T18:14:08.000Z</time>
</trkpt>
<trkpt lat="59.4838698" lon="31.0197287">
<ele>58.910000</ele>
<time>2026-08-31T18:14:22.000Z</time>
</trkpt>
<trkpt lat="59.4839418" lon="31.0196036">
<ele>58.950001</ele>
<time>2026-08-31T18:14:37.000Z</time>
</trkpt>
<trkpt lat="59.4840236" lon="31.0194858">
<ele>58.910000</ele>
<time>2026-08-31T18:14:51.000Z</time>
</trkpt>
<trkpt lat="59.4840805" lon="31.0194066">
<ele>59.219997</ele>
<time>2026-08-31T18:15:04.000Z</time>
</trkpt>
<trkpt lat="59.4841615" lon="31.0193660">
<ele>59.439999</ele>
<time>2026-08-31T18:15:22.000Z</time>
</trkpt>
<trkpt lat="59.4842152" lon="31.0193260">
<ele>58.880001</ele>
<time>2026-08-31T18:15:48.000Z</time>
</trkpt>
<trkpt lat="59.4842071" lon="31.0192926">
<ele>58.950001</ele>
<time>2026-08-31T18:16:15.000Z</time>
</trkpt>
<trkpt lat="59.4842032" lon="31.0193060">
<ele>59.239998</ele>
<time>2026-08-31T18:16:53.000Z</time>
</trkpt>
<trkpt lat="59.4842007" lon="31.0193377">
<ele>59.549999</ele>
<time>2026-08-31T18:17:22.000Z</time>
</trkpt>
<trkpt lat="59.4842491" lon="31.0193329">
<ele>59.529999</ele>
<time>2026-08-31T18:18:24.000Z</time>
</trkpt>
<trkpt lat="59.4842767" lon="31.0193330">
<ele>59.560001</ele>
<time>2026-08-31T18:18:41.000Z</time>
</trkpt>
<trkpt lat="59.4842868" lon="31.0193195">
<ele>59.720001</ele>
<time>2026-08-31T18:19:21.000Z</time>
</trkpt>
<trkpt lat="59.4842889" lon="31.0193342">
<ele>58.200001</ele>
<time>2026-08-31T18:19:40.000Z</time>
</trkpt>
<trkpt lat="59.4842845" lon="31.0193293">
<ele>59.699997</ele>
<time>2026-08-31T18:19:50.000Z</time>
</trkpt>
<trkpt lat="59.4843081" lon="31.0193157">
<ele>60.870003</ele>
<time>2026-08-31T18:20:46.000Z</time>
</trkpt>
<trkpt lat="59.4843132" lon="31.0193743">
<ele>59.180000</ele>
<time>2026-08-31T18:21:33.000Z</time>
</trkpt>
<trkpt lat="59.4843215" lon="31.0195934">
<ele>59.430000</ele>
<time>2026-08-31T18:21:49.000Z</time>
</trkpt>
<trkpt lat="59.4843629" lon="31.0197380">
<ele>59.790001</ele>
<time>2026-08-31T18:22:03.000Z</time>
</trkpt>
<trkpt lat="59.4843344" lon="31.0198938">
<ele>60.230000</ele>
<time>2026-08-31T18:22:17.000Z</time>
</trkpt>
<trkpt lat="59.4843396" lon="31.0201501">
<ele>59.750000</ele>
<time>2026-08-31T18:22:35.000Z</time>
</trkpt>
<trkpt lat="59.4843547" lon="31.0202456">
<ele>60.240002</ele>
<time>2026-08-31T18:22:39.000Z</time>
</trkpt>
<trkpt lat="59.4844454" lon="31.0203400">
<ele>59.089996</ele>
<time>2026-08-31T18:22:52.000Z</time>
</trkpt>
<trkpt lat="59.4844687" lon="31.0203114">
<ele>60.910000</ele>
<time>2026-08-31T18:22:58.000Z</time>
</trkpt>
<trkpt lat="59.4844913" lon="31.0203829">
<ele>59.299999</ele>
<time>2026-08-31T18:23:14.000Z</time>
</trkpt>
<trkpt lat="59.4845065" lon="31.0204854">
<ele>60.020000</ele>
<time>2026-08-31T18:23:22.000Z</time>
</trkpt>
<trkpt lat="59.4845276" lon="31.0205218">
<ele>59.669998</ele>
<time>2026-08-31T18:23:39.000Z</time>
</trkpt>
<trkpt lat="59.4845132" lon="31.0205628">
<ele>59.840000</ele>
<time>2026-08-31T18:24:12.000Z</time>
</trkpt>
<trkpt lat="59.4844878" lon="31.0205153">
<ele>59.389999</ele>
<time>2026-08-31T18:24:42.000Z</time>
</trkpt>
<trkpt lat="59.4844889" lon="31.0205300">
<ele>60.090000</ele>
<time>2026-08-31T18:25:37.000Z</time>
</trkpt>
<trkpt lat="59.4844782" lon="31.0205953">
<ele>60.139999</ele>
<time>2026-08-31T18:25:58.000Z</time>
</trkpt>
<trkpt lat="59.4845195" lon="31.0207521">
<ele>60.180000</ele>
<time>2026-08-31T18:26:13.000Z</time>
</trkpt>
<trkpt lat="59.4845391" lon="31.0208561">
<ele>60.180000</ele>
<time>2026-08-31T18:26:29.000Z</time>
</trkpt>
<trkpt lat="59.4845770" lon="31.0209292">
<ele>60.100002</ele>
<time>2026-08-31T18:26:49.000Z</time>
</trkpt>
<trkpt lat="59.4846075" lon="31.0211635">
<ele>60.620003</ele>
<time>2026-08-31T18:27:09.000Z</time>
</trkpt>
<trkpt lat="59.4846275" lon="31.0213512">
<ele>60.219997</ele>
<time>2026-08-31T18:27:29.000Z</time>
</trkpt>
<trkpt lat="59.4846451" lon="31.0215686">
<ele>60.119999</ele>
<time>2026-08-31T18:27:49.000Z</time>
</trkpt>
<trkpt lat="59.4846748" lon="31.0215717">
<ele>60.119999</ele>
<time>2026-08-31T18:28:14.000Z</time>
</trkpt>
<trkpt lat="59.4846705" lon="31.0215637">
<ele>58.389999</ele>
<time>2026-08-31T18:28:33.000Z</time>
</trkpt>
<trkpt lat="59.4846467" lon="31.0216163">
<ele>60.320004</ele>
<time>2026-08-31T18:28:51.000Z</time>
</trkpt>
<trkpt lat="59.4846684" lon="31.0216156">
<ele>60.270000</ele>
<time>2026-08-31T18:29:17.000Z</time>
</trkpt>
<trkpt lat="59.4846624" lon="31.0215886">
<ele>60.000000</ele>
<time>2026-08-31T18:29:49.000Z</time>
</trkpt>
<trkpt lat="59.4846487" lon="31.0216158">
<ele>59.980000</ele>
<time>2026-08-31T18:30:21.000Z</time>
</trkpt>
<trkpt lat="59.4846096" lon="31.0216473">
<ele>59.439999</ele>
<time>2026-08-31T18:31:02.000Z</time>
</trkpt>
<trkpt lat="59.4845726" lon="31.0217703">
<ele>59.899998</ele>
<time>2026-08-31T18:31:14.000Z</time>
</trkpt>
<trkpt lat="59.4844790" lon="31.0219456">
<ele>59.970001</ele>
<time>2026-08-31T18:31:29.000Z</time>
</trkpt>
<trkpt lat="59.4844178" lon="31.0220740">
<ele>59.820000</ele>
<time>2026-08-31T18:31:43.000Z</time>
</trkpt>
<trkpt lat="59.4843422" lon="31.0222203">
<ele>59.870003</ele>
<time>2026-08-31T18:32:00.000Z</time>
</trkpt>
<trkpt lat="59.4842552" lon="31.0223053">
<ele>59.340000</ele>
<time>2026-08-31T18:32:17.000Z</time>
</trkpt>
<trkpt lat="59.4841705" lon="31.0224468">
<ele>59.590000</ele>
<time>2026-08-31T18:32:29.000Z</time>
</trkpt>
<trkpt lat="59.4841137" lon="31.0225702">
<ele>59.570000</ele>
<time>2026-08-31T18:32:41.000Z</time>
</trkpt>
<trkpt lat="59.4840519" lon="31.0227500">
<ele>59.480003</ele>
<time>2026-08-31T18:32:56.000Z</time>
</trkpt>
<trkpt lat="59.4840307" lon="31.0227365">
<ele>59.669998</ele>
<time>2026-08-31T18:33:17.000Z</time>
</trkpt>
<trkpt lat="59.4840137" lon="31.0227429">
<ele>59.529999</ele>
<time>2026-08-31T18:33:48.000Z</time>
</trkpt>
<trkpt lat="59.4839934" lon="31.0226937">
<ele>59.730000</ele>
<time>2026-08-31T18:34:28.000Z</time>
</trkpt>
<trkpt lat="59.4840112" lon="31.0227648">
<ele>59.640003</ele>
<time>2026-08-31T18:35:10.000Z</time>
</trkpt>
<trkpt lat="59.4840305" lon="31.0227895">
<ele>59.379997</ele>
<time>2026-08-31T18:36:00.000Z</time>
</trkpt>
<trkpt lat="59.4839644" lon="31.0229822">
<ele>59.599998</ele>
<time>2026-08-31T18:36:16.000Z</time>
</trkpt>
<trkpt lat="59.4838936" lon="31.0230879">
<ele>59.680000</ele>
<time>2026-08-31T18:36:34.000Z</time>
</trkpt>
<trkpt lat="59.4838556" lon="31.0233314">
<ele>59.500000</ele>
<time>2026-08-31T18:37:01.000Z</time>
</trkpt>
<trkpt lat="59.4837766" lon="31.0233853">
<ele>59.549999</ele>
<time>2026-08-31T18:37:27.000Z</time>
</trkpt>
<trkpt lat="59.4837222" lon="31.0234745">
<ele>59.529999</ele>
<time>2026-08-31T18:37:40.000Z</time>
</trkpt>
<trkpt lat="59.4836667" lon="31.0235724">
<ele>58.910000</ele>
<time>2026-08-31T18:37:53.000Z</time>
</trkpt>
<trkpt lat="59.4836230" lon="31.0236628">
<ele>59.309998</ele>
<time>2026-08-31T18:38:14.000Z</time>
</trkpt>
<trkpt lat="59.4836009" lon="31.0237308">
<ele>59.350002</ele>
<time>2026-08-31T18:38:43.000Z</time>
</trkpt>
<trkpt lat="59.4835739" lon="31.0237629">
<ele>59.490002</ele>
<time>2026-08-31T18:39:34.000Z</time>
</trkpt>
<trkpt lat="59.4835662" lon="31.0237577">
<ele>59.480003</ele>
<time>2026-08-31T18:40:31.000Z</time>
</trkpt>
<trkpt lat="59.4834633" lon="31.0238454">
<ele>59.260002</ele>
<time>2026-08-31T18:40:45.000Z</time>
</trkpt>
<trkpt lat="59.4833764" lon="31.0239663">
<ele>59.660000</ele>
<time>2026-08-31T18:41:01.000Z</time>
</trkpt>
<trkpt lat="59.4833123" lon="31.0240613">
<ele>59.509998</ele>
<time>2026-08-31T18:41:17.000Z</time>
</trkpt>
<trkpt lat="59.4832979" lon="31.0240818">
<ele>56.450001</ele>
<time>2026-08-31T18:41:39.000Z</time>
</trkpt>
<trkpt lat="59.4832962" lon="31.0240840">
<ele>60.560001</ele>
<time>2026-08-31T18:41:40.000Z</time>
</trkpt>
<trkpt lat="59.4831937" lon="31.0243042">
<ele>59.919998</ele>
<time>2026-08-31T18:41:58.000Z</time>
</trkpt>
<trkpt lat="59.4831340" lon="31.0243617">
<ele>59.699997</ele>
<time>2026-08-31T18:42:09.000Z</time>
</trkpt>
<trkpt lat="59.4831047" lon="31.0244239">
<ele>59.450001</ele>
<time>2026-08-31T18:42:25.000Z</time>
</trkpt>
<trkpt lat="59.4831122" lon="31.0244493">
<ele>58.110001</ele>
<time>2026-08-31T18:42:33.000Z</time>
</trkpt>
<trkpt lat="59.4830912" lon="31.0244663">
<ele>59.630001</ele>
<time>2026-08-31T18:42:42.000Z</time>
</trkpt>
<trkpt lat="59.4830667" lon="31.0245306">
<ele>59.149998</ele>
<time>2026-08-31T18:43:12.000Z</time>
</trkpt>
<trkpt lat="59.4830859" lon="31.0245248">
<ele>60.449997</ele>
<time>2026-08-31T18:43:29.000Z</time>
</trkpt>
<trkpt lat="59.4830897" lon="31.0245245">
<ele>59.699997</ele>
<time>2026-08-31T18:43:31.000Z</time>
</trkpt>
<trkpt lat="59.4830975" lon="31.0244746">
<ele>58.599998</ele>
<time>2026-08-31T18:44:01.000Z</time>
</trkpt>
<trkpt lat="59.4831436" lon="31.0244380">
<ele>58.750000</ele>
<time>2026-08-31T18:44:50.000Z</time>
</trkpt>
<trkpt lat="59.4831659" lon="31.0245408">
<ele>58.019997</ele>
<time>2026-08-31T18:45:30.000Z</time>
</trkpt>
<trkpt lat="59.4832227" lon="31.0246353">
<ele>57.949997</ele>
<time>2026-08-31T18:45:47.000Z</time>
</trkpt>
<trkpt lat="59.4832428" lon="31.0246936">
<ele>58.309998</ele>
<time>2026-08-31T18:46:02.000Z</time>
</trkpt>
<trkpt lat="59.4832590" lon="31.0245368">
<ele>58.030003</ele>
<time>2026-08-31T18:46:26.000Z</time>
</trkpt>
<trkpt lat="59.4833036" lon="31.0244662">
<ele>57.849998</ele>
<time>2026-08-31T18:46:53.000Z</time>
</trkpt>
<trkpt lat="59.4833449" lon="31.0245071">
<ele>57.570004</ele>
<time>2026-08-31T18:47:17.000Z</time>
</trkpt>
<trkpt lat="59.4833488" lon="31.0245383">
<ele>57.280003</ele>
<time>2026-08-31T18:47:43.000Z</time>
</trkpt>
<trkpt lat="59.4833513" lon="31.0245148">
<ele>57.220001</ele>
<time>2026-08-31T18:48:09.000Z</time>
</trkpt>
<trkpt lat="59.4833574" lon="31.0245547">
<ele>56.949997</ele>
<time>2026-08-31T18:48:37.000Z</time>
</trkpt>
<trkpt lat="59.4833772" lon="31.0245228">
<ele>57.250000</ele>
<time>2026-08-31T18:49:04.000Z</time>
</trkpt>
<trkpt lat="59.4833889" lon="31.0245209">
<ele>56.910000</ele>
<time>2026-08-31T18:49:27.000Z</time>
</trkpt>
<trkpt lat="59.4834351" lon="31.0245759">
<ele>57.139999</ele>
<time>2026-08-31T18:49:41.000Z</time>
</trkpt>
<trkpt lat="59.4835308" lon="31.0246576">
<ele>57.399998</ele>
<time>2026-08-31T18:49:59.000Z</time>
</trkpt>
<trkpt lat="59.4836194" lon="31.0247234">
<ele>57.520000</ele>
<time>2026-08-31T18:50:13.000Z</time>
</trkpt>
<trkpt lat="59.4837636" lon="31.0247626">
<ele>57.320000</ele>
<time>2026-08-31T18:50:27.000Z</time>
</trkpt>
<trkpt lat="59.4838921" lon="31.0247694">
<ele>57.510002</ele>
<time>2026-08-31T18:50:47.000Z</time>
</trkpt>
<trkpt lat="59.4839877" lon="31.0248046">
<ele>57.339996</ele>
<time>2026-08-31T18:51:01.000Z</time>
</trkpt>
<trkpt lat="59.4840551" lon="31.0248109">
<ele>57.469997</ele>
<time>2026-08-31T18:51:22.000Z</time>
</trkpt>
<trkpt lat="59.4840985" lon="31.0247848">
<ele>56.660004</ele>
<time>2026-08-31T18:51:44.000Z</time>
</trkpt>
<trkpt lat="59.4840985" lon="31.0247886">
<ele>58.009998</ele>
<time>2026-08-31T18:51:55.000Z</time>
</trkpt>
<trkpt lat="59.4840978" lon="31.0247658">
<ele>58.290001</ele>
<time>2026-08-31T18:52:46.000Z</time>
</trkpt>
<trkpt lat="59.4840975" lon="31.0247709">
<ele>58.160000</ele>
<time>2026-08-31T18:53:33.000Z</time>
</trkpt>
<trkpt lat="59.4841526" lon="31.0248679">
<ele>58.239998</ele>
<time>2026-08-31T18:53:59.000Z</time>
</trkpt>
<trkpt lat="59.4842355" lon="31.0249358">
<ele>57.980000</ele>
<time>2026-08-31T18:54:15.000Z</time>
</trkpt>
<trkpt lat="59.4843650" lon="31.0250149">
<ele>58.090000</ele>
<time>2026-08-31T18:54:33.000Z</time>
</trkpt>
<trkpt lat="59.4844625" lon="31.0249586">
<ele>58.490002</ele>
<time>2026-08-31T18:54:50.000Z</time>
</trkpt>
<trkpt lat="59.4844681" lon="31.0249517">
<ele>58.770000</ele>
<time>2026-08-31T18:54:51.000Z</time>
</trkpt>
<trkpt lat="59.4845566" lon="31.0247927">
<ele>58.329998</ele>
<time>2026-08-31T18:55:06.000Z</time>
</trkpt>
<trkpt lat="59.4846266" lon="31.0245679">
<ele>58.090000</ele>
<time>2026-08-31T18:55:23.000Z</time>
</trkpt>
<trkpt lat="59.4846773" lon="31.0244006">
<ele>57.789997</ele>
<time>2026-08-31T18:55:38.000Z</time>
</trkpt>
<trkpt lat="59.4847561" lon="31.0243796">
<ele>57.990002</ele>
<time>2026-08-31T18:55:54.000Z</time>
</trkpt>
<trkpt lat="59.4848135" lon="31.0243663">
<ele>58.410004</ele>
<time>2026-08-31T18:56:08.000Z</time>
</trkpt>
<trkpt lat="59.4848271" lon="31.0243742">
<ele>57.930000</ele>
<time>2026-08-31T18:56:10.000Z</time>
</trkpt>
<trkpt lat="59.4848970" lon="31.0244654">
<ele>58.650002</ele>
<time>2026-08-31T18:56:25.000Z</time>
</trkpt>
<trkpt lat="59.4849436" lon="31.0245195">
<ele>57.880001</ele>
<time>2026-08-31T18:56:44.000Z</time>
</trkpt>
<trkpt lat="59.4849447" lon="31.0247229">
<ele>58.329998</ele>
<time>2026-08-31T18:57:04.000Z</time>
</trkpt>
<trkpt lat="59.4849470" lon="31.0248589">
<ele>57.830002</ele>
<time>2026-08-31T18:57:31.000Z</time>
</trkpt>
<trkpt lat="59.4849626" lon="31.0248554">
<ele>58.450001</ele>
<time>2026-08-31T18:58:13.000Z</time>
</trkpt>
<trkpt lat="59.4849642" lon="31.0248103">
<ele>58.270000</ele>
<time>2026-08-31T18:58:40.000Z</time>
</trkpt>
<trkpt lat="59.4849561" lon="31.0248144">
<ele>58.469997</ele>
<time>2026-08-31T18:59:14.000Z</time>
</trkpt>
<trkpt lat="59.4849504" lon="31.0248071">
<ele>58.169998</ele>
<time>2026-08-31T18:59:42.000Z</time>
</trkpt>
<trkpt lat="59.4849536" lon="31.0247948">
<ele>58.040001</ele>
<time>2026-08-31T19:00:36.000Z</time>
</trkpt>
<trkpt lat="59.4850358" lon="31.0248015">
<ele>58.090000</ele>
<time>2026-08-31T19:00:56.000Z</time>
</trkpt>
<trkpt lat="59.4851099" lon="31.0247005">
<ele>58.060001</ele>
<time>2026-08-31T19:01:11.000Z</time>
</trkpt>
<trkpt lat="59.4851794" lon="31.0246701">
<ele>58.520000</ele>
<time>2026-08-31T19:01:26.000Z</time>
</trkpt>
<trkpt lat="59.4852463" lon="31.0246420">
<ele>58.410004</ele>
<time>2026-08-31T19:01:41.000Z</time>
</trkpt>
<trkpt lat="59.4852915" lon="31.0245654">
<ele>58.380001</ele>
<time>2026-08-31T19:01:55.000Z</time>
</trkpt>
<trkpt lat="59.4853756" lon="31.0244923">
<ele>58.040001</ele>
<time>2026-08-31T19:02:16.000Z</time>
</trkpt>
<trkpt lat="59.4854742" lon="31.0245123">
<ele>58.670002</ele>
<time>2026-08-31T19:02:29.000Z</time>
</trkpt>
<trkpt lat="59.4855997" lon="31.0244032">
<ele>58.320000</ele>
<time>2026-08-31T19:02:43.000Z</time>
</trkpt>
<trkpt lat="59.4856564" lon="31.0244315">
<ele>57.910000</ele>
<time>2026-08-31T19:03:08.000Z</time>
</trkpt>
<trkpt lat="59.4856683" lon="31.0244581">
<ele>58.520000</ele>
<time>2026-08-31T19:03:34.000Z</time>
</trkpt>
<trkpt lat="59.4856726" lon="31.0244689">
<ele>58.450001</ele>
<time>2026-08-31T19:04:03.000Z</time>
</trkpt>
<trkpt lat="59.4856745" lon="31.0244746">
<ele>58.800003</ele>
<time>2026-08-31T19:04:22.000Z</time>
</trkpt>
<trkpt lat="59.4856792" lon="31.0245341">
<ele>57.910000</ele>
<time>2026-08-31T19:04:45.000Z</time>
</trkpt>
<trkpt lat="59.4856746" lon="31.0245082">
<ele>57.789997</ele>
<time>2026-08-31T19:05:11.000Z</time>
</trkpt>
<trkpt lat="59.4856962" lon="31.0245193">
<ele>58.309998</ele>
<time>2026-08-31T19:05:35.000Z</time>
</trkpt>
<trkpt lat="59.4856766" lon="31.0244465">
<ele>58.420002</ele>
<time>2026-08-31T19:05:55.000Z</time>
</trkpt>
<trkpt lat="59.4856574" lon="31.0243517">
<ele>58.299999</ele>
<time>2026-08-31T19:06:18.000Z</time>
</trkpt>
<trkpt lat="59.4856590" lon="31.0242223">
<ele>58.389999</ele>
<time>2026-08-31T19:06:41.000Z</time>
</trkpt>
<trkpt lat="59.4857176" lon="31.0243066">
<ele>58.450001</ele>
<time>2026-08-31T19:07:04.000Z</time>
</trkpt>
<trkpt lat="59.4857247" lon="31.0243078">
<ele>58.629997</ele>
<time>2026-08-31T19:07:05.000Z</time>
</trkpt>
<trkpt lat="59.4857772" lon="31.0242649">
<ele>58.469997</ele>
<time>2026-08-31T19:07:19.000Z</time>
</trkpt>
<trkpt lat="59.4857817" lon="31.0240837">
<ele>58.380001</ele>
<time>2026-08-31T19:07:33.000Z</time>
</trkpt>
<trkpt lat="59.4858284" lon="31.0240141">
<ele>58.299999</ele>
<time>2026-08-31T19:08:28.000Z</time>
</trkpt>
<trkpt lat="59.4858324" lon="31.0240892">
<ele>58.239998</ele>
<time>2026-08-31T19:08:56.000Z</time>
</trkpt>
<trkpt lat="59.4858206" lon="31.0241048">
<ele>58.369999</ele>
<time>2026-08-31T19:09:44.000Z</time>
</trkpt>
<trkpt lat="59.4858303" lon="31.0240787">
<ele>57.859997</ele>
<time>2026-08-31T19:10:50.000Z</time>
</trkpt>
<trkpt lat="59.4858859" lon="31.0240639">
<ele>57.880001</ele>
<time>2026-08-31T19:11:23.000Z</time>
</trkpt>
<trkpt lat="59.4860155" lon="31.0240448">
<ele>57.919998</ele>
<time>2026-08-31T19:11:39.000Z</time>
</trkpt>
<trkpt lat="59.4861347" lon="31.0240759">
<ele>58.380001</ele>
<time>2026-08-31T19:12:05.000Z</time>
</trkpt>
<trkpt lat="59.4862351" lon="31.0240245">
<ele>57.859997</ele>
<time>2026-08-31T19:12:25.000Z</time>
</trkpt>
<trkpt lat="59.4863645" lon="31.0239557">
<ele>57.660000</ele>
<time>2026-08-31T19:12:45.000Z</time>
</trkpt>
<trkpt lat="59.4864303" lon="31.0238173">
<ele>58.420002</ele>
<time>2026-08-31T19:13:01.000Z</time>
</trkpt>
<trkpt lat="59.4864700" lon="31.0236792">
<ele>57.020000</ele>
<time>2026-08-31T19:13:11.000Z</time>
</trkpt>
<trkpt lat="59.4864941" lon="31.0236145">
<ele>58.090000</ele>
<time>2026-08-31T19:13:29.000Z</time>
</trkpt>
<trkpt lat="59.4865770" lon="31.0235557">
<ele>57.939999</ele>
<time>2026-08-31T19:13:42.000Z</time>
</trkpt>
<trkpt lat="59.4866304" lon="31.0234023">
<ele>58.139999</ele>
<time>2026-08-31T19:13:53.000Z</time>
</trkpt>
<trkpt lat="59.4866820" lon="31.0233728">
<ele>58.490002</ele>
<time>2026-08-31T19:14:06.000Z</time>
</trkpt>
<trkpt lat="59.4867769" lon="31.0233789">
<ele>57.900002</ele>
<time>2026-08-31T19:14:23.000Z</time>
</trkpt>
<trkpt lat="59.4867852" lon="31.0233158">
<ele>58.290001</ele>
<time>2026-08-31T19:14:48.000Z</time>
</trkpt>
<trkpt lat="59.4868147" lon="31.0233582">
<ele>58.169998</ele>
<time>2026-08-31T19:15:36.000Z</time>
</trkpt>
<trkpt lat="59.4868017" lon="31.0233241">
<ele>58.070000</ele>
<time>2026-08-31T19:16:05.000Z</time>
</trkpt>
<trkpt lat="59.4868428" lon="31.0232698">
<ele>58.099998</ele>
<time>2026-08-31T19:16:32.000Z</time>
</trkpt>
<trkpt lat="59.4868510" lon="31.0232847">
<ele>58.160000</ele>
<time>2026-08-31T19:16:39.000Z</time>
</trkpt>
<trkpt lat="59.4868213" lon="31.0233460">
<ele>58.030003</ele>
<time>2026-08-31T19:16:53.000Z</time>
</trkpt>
<trkpt lat="59.4868060" lon="31.0233283">
<ele>58.019997</ele>
<time>2026-08-31T19:17:21.000Z</time>
</trkpt>
<trkpt lat="59.4868025" lon="31.0233241">
<ele>57.890003</ele>
<time>2026-08-31T19:18:21.000Z</time>
</trkpt>
<trkpt lat="59.4868202" lon="31.0233268">
<ele>57.570004</ele>
<time>2026-08-31T19:18:47.000Z</time>
</trkpt>
<trkpt lat="59.4869140" lon="31.0232370">
<ele>56.910000</ele>
<time>2026-08-31T19:19:05.000Z</time>
</trkpt>
<trkpt lat="59.4869381" lon="31.0232133">
<ele>57.810001</ele>
<time>2026-08-31T19:19:11.000Z</time>
</trkpt>
<trkpt lat="59.4869680" lon="31.0231923">
<ele>58.239998</ele>
<time>2026-08-31T19:19:17.000Z</time>
</trkpt>
<trkpt lat="59.4870996" lon="31.0231387">
<ele>57.339996</ele>
<time>2026-08-31T19:19:38.000Z</time>
</trkpt>
<trkpt lat="59.4872168" lon="31.0230585">
<ele>57.220001</ele>
<time>2026-08-31T19:19:52.000Z</time>
</trkpt>
<trkpt lat="59.4872911" lon="31.0228901">
<ele>57.220001</ele>
<time>2026-08-31T19:20:16.000Z</time>
</trkpt>
<trkpt lat="59.4873884" lon="31.0227901">
<ele>57.090000</ele>
<time>2026-08-31T19:20:30.000Z</time>
</trkpt>
<trkpt lat="59.4874475" lon="31.0226668">
<ele>57.230000</ele>
<time>2026-08-31T19:20:43.000Z</time>
</trkpt>
<trkpt lat="59.4874729" lon="31.0226216">
<ele>56.900002</ele>
<time>2026-08-31T19:21:28.000Z</time>
</trkpt>
<trkpt lat="59.4875192" lon="31.0228091">
<ele>57.169998</ele>
<time>2026-08-31T19:21:56.000Z</time>
</trkpt>
<trkpt lat="59.4876031" lon="31.0226994">
<ele>56.939999</ele>
<time>2026-08-31T19:22:42.000Z</time>
</trkpt>
<trkpt lat="59.4875787" lon="31.0227367">
<ele>56.900002</ele>
<time>2026-08-31T19:23:22.000Z</time>
</trkpt>
<trkpt lat="59.4875771" lon="31.0227196">
<ele>57.220001</ele>
<time>2026-08-31T19:24:36.000Z</time>
</trkpt>
<trkpt lat="59.4875982" lon="31.0227234">
<ele>57.329998</ele>
<time>2026-08-31T19:25:00.000Z</time>
</trkpt>
<trkpt lat="59.4876456" lon="31.0227239">
<ele>57.389999</ele>
<time>2026-08-31T19:25:42.000Z</time>
</trkpt>
<trkpt lat="59.4876856" lon="31.0227458">
<ele>57.280003</ele>
<time>2026-08-31T19:26:36.000Z</time>
</trkpt>
<trkpt lat="59.4876405" lon="31.0228068">
<ele>57.399998</ele>
<time>2026-08-31T19:27:26.000Z</time>
</trkpt>
<trkpt lat="59.4876283" lon="31.0228092">
<ele>57.389999</ele>
<time>2026-08-31T19:27:31.000Z</time>
</trkpt>
<trkpt lat="59.4876220" lon="31.0227710">
<ele>57.060001</ele>
<time>2026-08-31T19:27:43.000Z</time>
</trkpt>
<trkpt lat="59.4876444" lon="31.0227870">
<ele>57.740002</ele>
<time>2026-08-31T19:28:07.000Z</time>
</trkpt>
<trkpt lat="59.4876291" lon="31.0227229">
<ele>56.890003</ele>
<time>2026-08-31T19:28:48.000Z</time>
</trkpt>
<trkpt lat="59.4875939" lon="31.0227522">
<ele>56.990002</ele>
<time>2026-08-31T19:29:32.000Z</time>
</trkpt>
<trkpt lat="59.4875949" lon="31.0227920">
<ele>56.930000</ele>
<time>2026-08-31T19:30:03.000Z</time>
</trkpt>
<trkpt lat="59.4875751" lon="31.0227657">
<ele>57.020000</ele>
<time>2026-08-31T19:31:02.000Z</time>
</trkpt>
<trkpt lat="59.4875938" lon="31.0225767">
<ele>56.930000</ele>
<time>2026-08-31T19:31:18.000Z</time>
</trkpt>
<trkpt lat="59.4875720" lon="31.0223259">
<ele>56.670002</ele>
<time>2026-08-31T19:31:33.000Z</time>
</trkpt>
<trkpt lat="59.4875490" lon="31.0221121">
<ele>56.770000</ele>
<time>2026-08-31T19:31:51.000Z</time>
</trkpt>
<trkpt lat="59.4875288" lon="31.0220032">
<ele>56.799999</ele>
<time>2026-08-31T19:32:02.000Z</time>
</trkpt>
<trkpt lat="59.4875016" lon="31.0219365">
<ele>56.799999</ele>
<time>2026-08-31T19:32:21.000Z</time>
</trkpt>
<trkpt lat="59.4875130" lon="31.0218588">
<ele>56.760002</ele>
<time>2026-08-31T19:32:47.000Z</time>
</trkpt>
<trkpt lat="59.4874643" lon="31.0216685">
<ele>56.730000</ele>
<time>2026-08-31T19:33:02.000Z</time>
</trkpt>
<trkpt lat="59.4874486" lon="31.0215474">
<ele>56.740002</ele>
<time>2026-08-31T19:33:15.000Z</time>
</trkpt>
<trkpt lat="59.4873995" lon="31.0214374">
<ele>56.709999</ele>
<time>2026-08-31T19:33:28.000Z</time>
</trkpt>
<trkpt lat="59.4873646" lon="31.0212879">
<ele>56.740002</ele>
<time>2026-08-31T19:33:49.000Z</time>
</trkpt>
<trkpt lat="59.4873463" lon="31.0213230">
<ele>56.189999</ele>
<time>2026-08-31T19:34:07.000Z</time>
</trkpt>
<trkpt lat="59.4873271" lon="31.0212610">
<ele>56.360001</ele>
<time>2026-08-31T19:34:44.000Z</time>
</trkpt>
<trkpt lat="59.4873363" lon="31.0211002">
<ele>56.410000</ele>
<time>2026-08-31T19:35:09.000Z</time>
</trkpt>
<trkpt lat="59.4873190" lon="31.0210682">
<ele>56.970001</ele>
<time>2026-08-31T19:35:31.000Z</time>
</trkpt>
<trkpt lat="59.4873382" lon="31.0210677">
<ele>56.480000</ele>
<time>2026-08-31T19:36:36.000Z</time>
</trkpt>
<trkpt lat="59.4873405" lon="31.0210469">
<ele>56.410000</ele>
<time>2026-08-31T19:37:03.000Z</time>
</trkpt>
<trkpt lat="59.4873575" lon="31.0210294">
<ele>56.119999</ele>
<time>2026-08-31T19:37:42.000Z</time>
</trkpt>
<trkpt lat="59.4873586" lon="31.0210304">
<ele>56.230000</ele>
<time>2026-08-31T19:38:19.000Z</time>
</trkpt>
<trkpt lat="59.4873688" lon="31.0210460">
<ele>56.029999</ele>
<time>2026-08-31T19:39:02.000Z</time>
</trkpt>
<trkpt lat="59.4873599" lon="31.0210391">
<ele>56.150002</ele>
<time>2026-08-31T19:39:26.000Z</time>
</trkpt>
<trkpt lat="59.4873440" lon="31.0210630">
<ele>55.739998</ele>
<time>2026-08-31T19:40:00.000Z</time>
</trkpt>
<trkpt lat="59.4873591" lon="31.0210267">
<ele>55.849998</ele>
<time>2026-08-31T19:40:34.000Z</time>
</trkpt>
<trkpt lat="59.4873765" lon="31.0210191">
<ele>56.380001</ele>
<time>2026-08-31T19:41:09.000Z</time>
</trkpt>
<trkpt lat="59.4873677" lon="31.0210533">
<ele>55.709999</ele>
<time>2026-08-31T19:41:38.000Z</time>
</trkpt>
<trkpt lat="59.4873508" lon="31.0210541">
<ele>55.230000</ele>
<time>2026-08-31T19:42:16.000Z</time>
</trkpt>
<trkpt lat="59.4873331" lon="31.0210877">
<ele>55.990002</ele>
<time>2026-08-31T19:42:56.000Z</time>
</trkpt>
<trkpt lat="59.4873456" lon="31.0210718">
<ele>55.520000</ele>
<time>2026-08-31T19:43:31.000Z</time>
</trkpt>
<trkpt lat="59.4873499" lon="31.0210740">
<ele>55.400002</ele>
<time>2026-08-31T19:44:50.000Z</time>
</trkpt>
<trkpt lat="59.4873517" lon="31.0210984">
<ele>55.400002</ele>
<time>2026-08-31T19:45:40.000Z</time>
</trkpt>
<trkpt lat="59.4873379" lon="31.0210864">
<ele>55.690002</ele>
<time>2026-08-31T19:46:27.000Z</time>
</trkpt>
<trkpt lat="59.4873480" lon="31.0210676">
<ele>55.690002</ele>
<time>2026-08-31T19:47:24.000Z</time>
</trkpt>
<trkpt lat="59.4873420" lon="31.0210838">
<ele>55.869999</ele>
<time>2026-08-31T19:48:23.000Z</time>
</trkpt>
<trkpt lat="59.4873362" lon="31.0210981">
<ele>55.879997</ele>
<time>2026-08-31T19:49:06.000Z</time>
</trkpt>
<trkpt lat="59.4873286" lon="31.0210926">
<ele>55.860001</ele>
<time>2026-08-31T19:49:59.000Z</time>
</trkpt>
<trkpt lat="59.4873228" lon="31.0210764">
<ele>55.440002</ele>
<time>2026-08-31T19:50:34.000Z</time>
</trkpt>
<trkpt lat="59.4873312" lon="31.0210749">
<ele>55.509998</ele>
<time>2026-08-31T19:51:01.000Z</time>
</trkpt>
<trkpt lat="59.4873260" lon="31.0210483">
<ele>55.820004</ele>
<time>2026-08-31T19:51:24.000Z</time>
</trkpt>
<trkpt lat="59.4873390" lon="31.0210792">
<ele>55.920002</ele>
<time>2026-08-31T19:51:56.000Z</time>
</trkpt>
<trkpt lat="59.4873036" lon="31.0210794">
<ele>55.889999</ele>
<time>2026-08-31T19:52:26.000Z</time>
</trkpt>
<trkpt lat="59.4872229" lon="31.0211124">
<ele>55.119999</ele>
<time>2026-08-31T19:52:38.000Z</time>
</trkpt>
<trkpt lat="59.4871867" lon="31.0211655">
<ele>55.860001</ele>
<time>2026-08-31T19:52:51.000Z</time>
</trkpt>
<trkpt lat="59.4871384" lon="31.0212034">
<ele>55.250000</ele>
<time>2026-08-31T19:53:04.000Z</time>
</trkpt>
<trkpt lat="59.4871135" lon="31.0212313">
<ele>55.459999</ele>
<time>2026-08-31T19:53:13.000Z</time>
</trkpt>
<trkpt lat="59.4870248" lon="31.0212693">
<ele>55.730000</ele>
<time>2026-08-31T19:53:28.000Z</time>
</trkpt>
<trkpt lat="59.4869364" lon="31.0212639">
<ele>55.610001</ele>
<time>2026-08-31T19:53:40.000Z</time>
</trkpt>
<trkpt lat="59.4868533" lon="31.0213132">
<ele>55.619999</ele>
<time>2026-08-31T19:53:58.000Z</time>
</trkpt>
<trkpt lat="59.4868399" lon="31.0213125">
<ele>57.009998</ele>
<time>2026-08-31T19:54:00.000Z</time>
</trkpt>
<trkpt lat="59.4867525" lon="31.0213255">
<ele>55.860001</ele>
<time>2026-08-31T19:54:12.000Z</time>
</trkpt>
<trkpt lat="59.4866948" lon="31.0213619">
<ele>55.820004</ele>
<time>2026-08-31T19:54:23.000Z</time>
</trkpt>
<trkpt lat="59.4866028" lon="31.0213395">
<ele>55.949997</ele>
<time>2026-08-31T19:54:36.000Z</time>
</trkpt>
<trkpt lat="59.4865670" lon="31.0213516">
<ele>55.670002</ele>
<time>2026-08-31T19:54:53.000Z</time>
</trkpt>
<trkpt lat="59.4865956" lon="31.0213372">
<ele>55.869999</ele>
<time>2026-08-31T19:55:22.000Z</time>
</trkpt>
<trkpt lat="59.4865892" lon="31.0213380">
<ele>55.830002</ele>
<time>2026-08-31T19:56:04.000Z</time>
</trkpt>
<trkpt lat="59.4865731" lon="31.0213396">
<ele>55.820004</ele>
<time>2026-08-31T19:56:55.000Z</time>
</trkpt>
<trkpt lat="59.4865664" lon="31.0213711">
<ele>55.590004</ele>
<time>2026-08-31T19:57:31.000Z</time>
</trkpt>
<trkpt lat="59.4865555" lon="31.0213360">
<ele>55.459999</ele>
<time>2026-08-31T19:58:26.000Z</time>
</trkpt>
<trkpt lat="59.4865401" lon="31.0213776">
<ele>55.809998</ele>
<time>2026-08-31T19:58:43.000Z</time>
</trkpt>
<trkpt lat="59.4864262" lon="31.0213935">
<ele>55.939999</ele>
<time>2026-08-31T19:58:57.000Z</time>
</trkpt>
<trkpt lat="59.4862900" lon="31.0214054">
<ele>55.670002</ele>
<time>2026-08-31T19:59:13.000Z</time>
</trkpt>
<trkpt lat="59.4862246" lon="31.0213962">
<ele>55.709999</ele>
<time>2026-08-31T19:59:33.000Z</time>
</trkpt>
<trkpt lat="59.4860688" lon="31.0213738">
<ele>56.529999</ele>
<time>2026-08-31T19:59:49.000Z</time>
</trkpt>
<trkpt lat="59.4859658" lon="31.0214765">
<ele>55.349998</ele>
<time>2026-08-31T20:00:07.000Z</time>
</trkpt>
<trkpt lat="59.4859362" lon="31.0215187">
<ele>55.700001</ele>
<time>2026-08-31T20:00:23.000Z</time>
</trkpt>
<trkpt lat="59.4859315" lon="31.0215262">
<ele>55.910000</ele>
<time>2026-08-31T20:00:58.000Z</time>
</trkpt>
<trkpt lat="59.4859335" lon="31.0215177">
<ele>55.959999</ele>
<time>2026-08-31T20:01:26.000Z</time>
</trkpt>
<trkpt lat="59.4859279" lon="31.0215435">
<ele>55.910000</ele>
<time>2026-08-31T20:01:55.000Z</time>
</trkpt>
<trkpt lat="59.4859304" lon="31.0215426">
<ele>55.559998</ele>
<time>2026-08-31T20:02:29.000Z</time>
</trkpt>
<trkpt lat="59.4859325" lon="31.0215283">
<ele>56.580002</ele>
<time>2026-08-31T20:02:56.000Z</time>
</trkpt>
<trkpt lat="59.4858812" lon="31.0215000">
<ele>56.060001</ele>
<time>2026-08-31T20:03:37.000Z</time>
</trkpt>
<trkpt lat="59.4859050" lon="31.0216159">
<ele>55.830002</ele>
<time>2026-08-31T20:04:14.000Z</time>
</trkpt>
<trkpt lat="59.4858901" lon="31.0216133">
<ele>56.050003</ele>
<time>2026-08-31T20:04:22.000Z</time>
</trkpt>
<trkpt lat="59.4858567" lon="31.0217168">
<ele>56.000000</ele>
<time>2026-08-31T20:04:34.000Z</time>
</trkpt>
<trkpt lat="59.4858610" lon="31.0217836">
<ele>56.130001</ele>
<time>2026-08-31T20:04:51.000Z</time>
</trkpt>
<trkpt lat="59.4858521" lon="31.0218085">
<ele>56.099998</ele>
<time>2026-08-31T20:05:15.000Z</time>
</trkpt>
<trkpt lat="59.4858518" lon="31.0218116">
<ele>56.329998</ele>
<time>2026-08-31T20:05:48.000Z</time>
</trkpt>
<trkpt lat="59.4858548" lon="31.0217715">
<ele>56.050003</ele>
<time>2026-08-31T20:06:27.000Z</time>
</trkpt>
<trkpt lat="59.4858330" lon="31.0217319">
<ele>56.329998</ele>
<time>2026-08-31T20:07:35.000Z</time>
</trkpt>
<trkpt lat="59.4857796" lon="31.0217478">
<ele>55.809998</ele>
<time>2026-08-31T20:08:00.000Z</time>
</trkpt>
<trkpt lat="59.4857593" lon="31.0217872">
<ele>56.329998</ele>
<time>2026-08-31T20:08:23.000Z</time>
</trkpt>
<trkpt lat="59.4856801" lon="31.0218168">
<ele>55.959999</ele>
<time>2026-08-31T20:08:42.000Z</time>
</trkpt>
<trkpt lat="59.4856475" lon="31.0219182">
<ele>56.639999</ele>
<time>2026-08-31T20:08:56.000Z</time>
</trkpt>
<trkpt lat="59.4855801" lon="31.0219372">
<ele>56.440002</ele>
<time>2026-08-31T20:09:10.000Z</time>
</trkpt>
<trkpt lat="59.4854977" lon="31.0219555">
<ele>56.459999</ele>
<time>2026-08-31T20:09:24.000Z</time>
</trkpt>
<trkpt lat="59.4854447" lon="31.0219627">
<ele>55.939999</ele>
<time>2026-08-31T20:09:37.000Z</time>
</trkpt>
<trkpt lat="59.4854231" lon="31.0220674">
<ele>56.480000</ele>
<time>2026-08-31T20:09:49.000Z</time>
</trkpt>
<trkpt lat="59.4853212" lon="31.0219935">
<ele>56.269997</ele>
<time>2026-08-31T20:10:03.000Z</time>
</trkpt>
<trkpt lat="59.4852415" lon="31.0219637">
<ele>54.850002</ele>
<time>2026-08-31T20:10:23.000Z</time>
</trkpt>
<trkpt lat="59.4852140" lon="31.0219412">
<ele>56.970001</ele>
<time>2026-08-31T20:10:31.000Z</time>
</trkpt>
<trkpt lat="59.4851716" lon="31.0219550">
<ele>56.590000</ele>
<time>2026-08-31T20:10:56.000Z</time>
</trkpt>
<trkpt lat="59.4851637" lon="31.0220275">
<ele>56.250000</ele>
<time>2026-08-31T20:11:10.000Z</time>
</trkpt>
<trkpt lat="59.4851696" lon="31.0220244">
<ele>56.200001</ele>
<time>2026-08-31T20:11:36.000Z</time>
</trkpt>
<trkpt lat="59.4851596" lon="31.0220465">
<ele>56.280003</ele>
<time>2026-08-31T20:12:10.000Z</time>
</trkpt>
<trkpt lat="59.4851693" lon="31.0220497">
<ele>56.440002</ele>
<time>2026-08-31T20:12:33.000Z</time>
</trkpt>
<trkpt lat="59.4851591" lon="31.0220429">
<ele>56.869999</ele>
<time>2026-08-31T20:13:21.000Z</time>
</trkpt>
<trkpt lat="59.4851607" lon="31.0220374">
<ele>57.239998</ele>
<time>2026-08-31T20:14:05.000Z</time>
</trkpt>
<trkpt lat="59.4851524" lon="31.0220000">
<ele>56.559998</ele>
<time>2026-08-31T20:14:38.000Z</time>
</trkpt>
<trkpt lat="59.4851423" lon="31.0219312">
<ele>56.799999</ele>
<time>2026-08-31T20:15:13.000Z</time>
</trkpt>
<trkpt lat="59.4851297" lon="31.0218146">
<ele>56.760002</ele>
<time>2026-08-31T20:15:31.000Z</time>
</trkpt>
<trkpt lat="59.4851248" lon="31.0217483">
<ele>56.649998</ele>
<time>2026-08-31T20:15:36.000Z</time>
</trkpt>
<trkpt lat="59.4851287" lon="31.0217156">
<ele>56.810001</ele>
<time>2026-08-31T20:15:39.000Z</time>
</trkpt>
<trkpt lat="59.4851419" lon="31.0215646">
<ele>57.090000</ele>
<time>2026-08-31T20:15:51.000Z</time>
</trkpt>
<trkpt lat="59.4851425" lon="31.0213863">
<ele>56.949997</ele>
<time>2026-08-31T20:16:05.000Z</time>
</trkpt>
<trkpt lat="59.4850839" lon="31.0212640">
<ele>57.079998</ele>
<time>2026-08-31T20:16:20.000Z</time>
</trkpt>
<trkpt lat="59.4850244" lon="31.0211374">
<ele>56.949997</ele>
<time>2026-08-31T20:16:38.000Z</time>
</trkpt>
<trkpt lat="59.4850498" lon="31.0210363">
<ele>56.869999</ele>
<time>2026-08-31T20:16:52.000Z</time>
</trkpt>
<trkpt lat="59.4850675" lon="31.0208543">
<ele>57.029999</ele>
<time>2026-08-31T20:17:09.000Z</time>
</trkpt>
<trkpt lat="59.4850674" lon="31.0207341">
<ele>56.970001</ele>
<time>2026-08-31T20:17:23.000Z</time>
</trkpt>
<trkpt lat="59.4850285" lon="31.0206057">
<ele>56.970001</ele>
<time>2026-08-31T20:17:38.000Z</time>
</trkpt>
<trkpt lat="59.4850255" lon="31.0205958">
<ele>56.480000</ele>
<time>2026-08-31T20:18:06.000Z</time>
</trkpt>
<trkpt lat="59.4850192" lon="31.0205745">
<ele>56.789997</ele>
<time>2026-08-31T20:18:36.000Z</time>
</trkpt>
<trkpt lat="59.4850194" lon="31.0206108">
<ele>57.759998</ele>
<time>2026-08-31T20:19:10.000Z</time>
</trkpt>
<trkpt lat="59.4850247" lon="31.0206096">
<ele>56.840000</ele>
<time>2026-08-31T20:19:54.000Z</time>
</trkpt>
<trkpt lat="59.4850377" lon="31.0206284">
<ele>56.700001</ele>
<time>2026-08-31T20:20:38.000Z</time>
</trkpt>
<trkpt lat="59.4850259" lon="31.0205189">
<ele>56.779999</ele>
<time>2026-08-31T20:20:53.000Z</time>
</trkpt>
<trkpt lat="59.4849593" lon="31.0203122">
<ele>56.719997</ele>
<time>2026-08-31T20:21:07.000Z</time>
</trkpt>
<trkpt lat="59.4849054" lon="31.0202040">
<ele>56.750000</ele>
<time>2026-08-31T20:21:19.000Z</time>
</trkpt>
<trkpt lat="59.4848425" lon="31.0200788">
<ele>56.399998</ele>
<time>2026-08-31T20:21:35.000Z</time>
</trkpt>
<trkpt lat="59.4848177" lon="31.0200110">
<ele>56.489998</ele>
<time>2026-08-31T20:21:52.000Z</time>
</trkpt>
<trkpt lat="59.4847666" lon="31.0198820">
<ele>56.269997</ele>
<time>2026-08-31T20:22:11.000Z</time>
</trkpt>
<trkpt lat="59.4847398" lon="31.0197248">
<ele>56.700001</ele>
<time>2026-08-31T20:22:32.000Z</time>
</trkpt>
<trkpt lat="59.4847191" lon="31.0196736">
<ele>56.039997</ele>
<time>2026-08-31T20:22:56.000Z</time>
</trkpt>
<trkpt lat="59.4847034" lon="31.0196930">
<ele>56.259998</ele>
<time>2026-08-31T20:23:11.000Z</time>
</trkpt>
<trkpt lat="59.4846502" lon="31.0196214">
<ele>56.590000</ele>
<time>2026-08-31T20:23:25.000Z</time>
</trkpt>
<trkpt lat="59.4846466" lon="31.0196322">
<ele>56.080002</ele>
<time>2026-08-31T20:24:26.000Z</time>
</trkpt>
<trkpt lat="59.4847103" lon="31.0195935">
<ele>56.119999</ele>
<time>2026-08-31T20:25:02.000Z</time>
</trkpt>
<trkpt lat="59.4847477" lon="31.0196143">
<ele>56.099998</ele>
<time>2026-08-31T20:25:37.000Z</time>
</trkpt>
<trkpt lat="59.4846907" lon="31.0195929">
<ele>57.160000</ele>
<time>2026-08-31T20:26:18.000Z</time>
</trkpt>
<trkpt lat="59.4847176" lon="31.0196152">
<ele>56.130001</ele>
<time>2026-08-31T20:27:08.000Z</time>
</trkpt>
<trkpt lat="59.4847878" lon="31.0195473">
<ele>56.470001</ele>
<time>2026-08-31T20:27:20.000Z</time>
</trkpt>
<trkpt lat="59.4848688" lon="31.0194874">
<ele>56.340000</ele>
<time>2026-08-31T20:27:32.000Z</time>
</trkpt>
<trkpt lat="59.4849794" lon="31.0193731">
<ele>56.310001</ele>
<time>2026-08-31T20:27:52.000Z</time>
</trkpt>
<trkpt lat="59.4850762" lon="31.0193594">
<ele>56.370003</ele>
<time>2026-08-31T20:28:08.000Z</time>
</trkpt>
<trkpt lat="59.4851864" lon="31.0193303">
<ele>56.470001</ele>
<time>2026-08-31T20:28:28.000Z</time>
</trkpt>
<trkpt lat="59.4853025" lon="31.0192733">
<ele>56.370003</ele>
<time>2026-08-31T20:28:47.000Z</time>
</trkpt>
<trkpt lat="59.4854454" lon="31.0191722">
<ele>56.779999</ele>
<time>2026-08-31T20:29:04.000Z</time>
</trkpt>
<trkpt lat="59.4854716" lon="31.0191550">
<ele>56.750000</ele>
<time>2026-08-31T20:29:11.000Z</time>
</trkpt>
<trkpt lat="59.4855283" lon="31.0190636">
<ele>56.799999</ele>
<time>2026-08-31T20:29:22.000Z</time>
</trkpt>
<trkpt lat="59.4855935" lon="31.0190635">
<ele>56.639999</ele>
<time>2026-08-31T20:29:42.000Z</time>
</trkpt>
<trkpt lat="59.4856207" lon="31.0191296">
<ele>56.750000</ele>
<time>2026-08-31T20:29:57.000Z</time>
</trkpt>
<trkpt lat="59.4856269" lon="31.0190438">
<ele>56.649998</ele>
<time>2026-08-31T20:30:23.000Z</time>
</trkpt>
<trkpt lat="59.4856163" lon="31.0190120">
<ele>56.639999</ele>
<time>2026-08-31T20:30:50.000Z</time>
</trkpt>
<trkpt lat="59.4855746" lon="31.0189651">
<ele>55.140003</ele>
<time>2026-08-31T20:31:07.000Z</time>
</trkpt>
<trkpt lat="59.4855840" lon="31.0189677">
<ele>56.820000</ele>
<time>2026-08-31T20:31:40.000Z</time>
</trkpt>
<trkpt lat="59.4856298" lon="31.0190887">
<ele>56.689999</ele>
<time>2026-08-31T20:32:17.000Z</time>
</trkpt>
<trkpt lat="59.4856606" lon="31.0190903">
<ele>57.160000</ele>
<time>2026-08-31T20:32:26.000Z</time>
</trkpt>
<trkpt lat="59.4856544" lon="31.0190940">
<ele>55.010002</ele>
<time>2026-08-31T20:32:33.000Z</time>
</trkpt>
<trkpt lat="59.4856572" lon="31.0190883">
<ele>57.650002</ele>
<time>2026-08-31T20:32:39.000Z</time>
</trkpt>
<trkpt lat="59.4856438" lon="31.0190765">
<ele>56.730000</ele>
<time>2026-08-31T20:33:24.000Z</time>
</trkpt>
<trkpt lat="59.4857160" lon="31.0190464">
<ele>57.020000</ele>
<time>2026-08-31T20:33:40.000Z</time>
</trkpt>
<trkpt lat="59.4858466" lon="31.0188994">
<ele>57.160000</ele>
<time>2026-08-31T20:34:03.000Z</time>
</trkpt>
<trkpt lat="59.4859574" lon="31.0189427">
<ele>57.070000</ele>
<time>2026-08-31T20:34:20.000Z</time>
</trkpt>
<trkpt lat="59.4860488" lon="31.0188448">
<ele>57.050003</ele>
<time>2026-08-31T20:34:38.000Z</time>
</trkpt>
<trkpt lat="59.4861398" lon="31.0187646">
<ele>57.060001</ele>
<time>2026-08-31T20:34:55.000Z</time>
</trkpt>
<trkpt lat="59.4862443" lon="31.0187304">
<ele>56.910000</ele>
<time>2026-08-31T20:35:13.000Z</time>
</trkpt>
<trkpt lat="59.4863361" lon="31.0186801">
<ele>57.209999</ele>
<time>2026-08-31T20:35:28.000Z</time>
</trkpt>
<trkpt lat="59.4864446" lon="31.0186931">
<ele>57.629997</ele>
<time>2026-08-31T20:35:47.000Z</time>
</trkpt>
<trkpt lat="59.4864588" lon="31.0186249">
<ele>57.310001</ele>
<time>2026-08-31T20:36:25.000Z</time>
</trkpt>
<trkpt lat="59.4864588" lon="31.0185502">
<ele>57.440002</ele>
<time>2026-08-31T20:36:55.000Z</time>
</trkpt>
<trkpt lat="59.4864267" lon="31.0185309">
<ele>57.469997</ele>
<time>2026-08-31T20:37:17.000Z</time>
</trkpt>
<trkpt lat="59.4863971" lon="31.0185796">
<ele>57.600002</ele>
<time>2026-08-31T20:37:52.000Z</time>
</trkpt>
<trkpt lat="59.4864037" lon="31.0185549">
<ele>57.430000</ele>
<time>2026-08-31T20:38:47.000Z</time>
</trkpt>
<trkpt lat="59.4864280" lon="31.0183155">
<ele>57.670002</ele>
<time>2026-08-31T20:39:24.000Z</time>
</trkpt>
<trkpt lat="59.4863923" lon="31.0181450">
<ele>57.719997</ele>
<time>2026-08-31T20:39:46.000Z</time>
</trkpt>
<trkpt lat="59.4863268" lon="31.0179089">
<ele>58.209999</ele>
<time>2026-08-31T20:40:07.000Z</time>
</trkpt>
<trkpt lat="59.4863084" lon="31.0176974">
<ele>58.079998</ele>
<time>2026-08-31T20:40:27.000Z</time>
</trkpt>
<trkpt lat="59.4862941" lon="31.0175013">
<ele>57.610001</ele>
<time>2026-08-31T20:40:45.000Z</time>
</trkpt>
<trkpt lat="59.4862723" lon="31.0174179">
<ele>57.670002</ele>
<time>2026-08-31T20:40:59.000Z</time>
</trkpt>
<trkpt lat="59.4861392" lon="31.0171742">
<ele>57.329998</ele>
<time>2026-08-31T20:41:27.000Z</time>
</trkpt>
<trkpt lat="59.4860859" lon="31.0170630">
<ele>56.060001</ele>
<time>2026-08-31T20:41:49.000Z</time>
</trkpt>
<trkpt lat="59.4860759" lon="31.0170754">
<ele>57.689999</ele>
<time>2026-08-31T20:41:54.000Z</time>
</trkpt>
<trkpt lat="59.4860155" lon="31.0168356">
<ele>57.480000</ele>
<time>2026-08-31T20:42:10.000Z</time>
</trkpt>
<trkpt lat="59.4858693" lon="31.0167294">
<ele>57.200001</ele>
<time>2026-08-31T20:42:39.000Z</time>
</trkpt>
<trkpt lat="59.4859179" lon="31.0167491">
<ele>57.179996</ele>
<time>2026-08-31T20:43:00.000Z</time>
</trkpt>
<trkpt lat="59.4858618" lon="31.0167118">
<ele>57.990002</ele>
<time>2026-08-31T20:43:33.000Z</time>
</trkpt>
<trkpt lat="59.4859077" lon="31.0167506">
<ele>57.910000</ele>
<time>2026-08-31T20:44:05.000Z</time>
</trkpt>
<trkpt lat="59.4859654" lon="31.0167662">
<ele>57.730003</ele>
<time>2026-08-31T20:44:50.000Z</time>
</trkpt>
<trkpt lat="59.4860027" lon="31.0166966">
<ele>57.700001</ele>
<time>2026-08-31T20:45:17.000Z</time>
</trkpt>
<trkpt lat="59.4860388" lon="31.0164921">
<ele>57.639999</ele>
<time>2026-08-31T20:45:33.000Z</time>
</trkpt>
<trkpt lat="59.4860644" lon="31.0163068">
<ele>57.520000</ele>
<time>2026-08-31T20:45:53.000Z</time>
</trkpt>
<trkpt lat="59.4860718" lon="31.0163372">
<ele>57.540001</ele>
<time>2026-08-31T20:46:16.000Z</time>
</trkpt>
<trkpt lat="59.4860889" lon="31.0163624">
<ele>57.580002</ele>
<time>2026-08-31T20:46:40.000Z</time>
</trkpt>
<trkpt lat="59.4860781" lon="31.0163829">
<ele>57.489998</ele>
<time>2026-08-31T20:46:59.000Z</time>
</trkpt>
<trkpt lat="59.4860492" lon="31.0164065">
<ele>57.380001</ele>
<time>2026-08-31T20:47:13.000Z</time>
</trkpt>
<trkpt lat="59.4860374" lon="31.0164340">
<ele>57.650002</ele>
<time>2026-08-31T20:47:41.000Z</time>
</trkpt>
<trkpt lat="59.4860548" lon="31.0164098">
<ele>57.380001</ele>
<time>2026-08-31T20:48:20.000Z</time>
</trkpt>
<trkpt lat="59.4860211" lon="31.0163088">
<ele>57.730003</ele>
<time>2026-08-31T20:48:31.000Z</time>
</trkpt>
<trkpt lat="59.4859820" lon="31.0162273">
<ele>57.930000</ele>
<time>2026-08-31T20:48:37.000Z</time>
</trkpt>
<trkpt lat="59.4859347" lon="31.0163121">
<ele>56.119999</ele>
<time>2026-08-31T20:48:41.000Z</time>
</trkpt>
<trkpt lat="59.4858568" lon="31.0162720">
<ele>57.350002</ele>
<time>2026-08-31T20:48:45.000Z</time>
</trkpt>
<trkpt lat="59.4859537" lon="31.0158524">
<ele>57.619999</ele>
<time>2026-08-31T20:49:21.000Z</time>
</trkpt>
<trkpt lat="59.4860145" lon="31.0157461">
<ele>57.190002</ele>
<time>2026-08-31T20:49:31.000Z</time>
</trkpt>
<trkpt lat="59.4860175" lon="31.0158480">
<ele>57.880001</ele>
<time>2026-08-31T20:49:51.000Z</time>
</trkpt>
<trkpt lat="59.4860199" lon="31.0159092">
<ele>57.810001</ele>
<time>2026-08-31T20:50:04.000Z</time>
</trkpt>
<trkpt lat="59.4860108" lon="31.0161881">
<ele>57.540001</ele>
<time>2026-08-31T20:50:36.000Z</time>
</trkpt>
<trkpt lat="59.4860247" lon="31.0162869">
<ele>57.230000</ele>
<time>2026-08-31T20:51:04.000Z</time>
</trkpt>
<trkpt lat="59.4860696" lon="31.0162814">
<ele>57.410000</ele>
<time>2026-08-31T20:51:19.000Z</time>
</trkpt>
<trkpt lat="59.4861082" lon="31.0161229">
<ele>57.290001</ele>
<time>2026-08-31T20:51:52.000Z</time>
</trkpt>
<trkpt lat="59.4861116" lon="31.0159784">
<ele>56.549999</ele>
<time>2026-08-31T20:52:20.000Z</time>
</trkpt>
<trkpt lat="59.4861065" lon="31.0159589">
<ele>55.549999</ele>
<time>2026-08-31T20:52:32.000Z</time>
</trkpt>
<trkpt lat="59.4860982" lon="31.0159781">
<ele>57.200001</ele>
<time>2026-08-31T20:52:37.000Z</time>
</trkpt>
<trkpt lat="59.4860584" lon="31.0159590">
<ele>56.559998</ele>
<time>2026-08-31T20:53:11.000Z</time>
</trkpt>
<trkpt lat="59.4860634" lon="31.0160039">
<ele>56.750000</ele>
<time>2026-08-31T20:53:42.000Z</time>
</trkpt>
<trkpt lat="59.4860740" lon="31.0159929">
<ele>56.680000</ele>
<time>2026-08-31T20:54:17.000Z</time>
</trkpt>
<trkpt lat="59.4860862" lon="31.0159700">
<ele>56.670002</ele>
<time>2026-08-31T20:55:10.000Z</time>
</trkpt>
<trkpt lat="59.4860361" lon="31.0159456">
<ele>56.649998</ele>
<time>2026-08-31T20:55:44.000Z</time>
</trkpt>
<trkpt lat="59.4860573" lon="31.0159643">
<ele>57.060001</ele>
<time>2026-08-31T20:56:32.000Z</time>
</trkpt>
<trkpt lat="59.4860014" lon="31.0160118">
<ele>57.139999</ele>
<time>2026-08-31T20:56:47.000Z</time>
</trkpt>
<trkpt lat="59.4859144" lon="31.0161109">
<ele>57.070000</ele>
<time>2026-08-31T20:57:05.000Z</time>
</trkpt>
<trkpt lat="59.4858178" lon="31.0161508">
<ele>56.740002</ele>
<time>2026-08-31T20:57:36.000Z</time>
</trkpt>
<trkpt lat="59.4856668" lon="31.0161912">
<ele>56.980000</ele>
<time>2026-08-31T20:58:00.000Z</time>
</trkpt>
<trkpt lat="59.4855026" lon="31.0163051">
<ele>57.130001</ele>
<time>2026-08-31T20:58:23.000Z</time>
</trkpt>
<trkpt lat="59.4854021" lon="31.0163610">
<ele>57.190002</ele>
<time>2026-08-31T20:58:44.000Z</time>
</trkpt>
<trkpt lat="59.4853211" lon="31.0163978">
<ele>57.160000</ele>
<time>2026-08-31T20:59:03.000Z</time>
</trkpt>
<trkpt lat="59.4852126" lon="31.0164997">
<ele>57.750000</ele>
<time>2026-08-31T20:59:16.000Z</time>
</trkpt>
<trkpt lat="59.4851594" lon="31.0164950">
<ele>57.190002</ele>
<time>2026-08-31T20:59:33.000Z</time>
</trkpt>
<trkpt lat="59.4850881" lon="31.0164921">
<ele>57.020000</ele>
<time>2026-08-31T20:59:49.000Z</time>
</trkpt>
<trkpt lat="59.4850855" lon="31.0164920">
<ele>57.029999</ele>
<time>2026-08-31T20:59:53.000Z</time>
</trkpt>
<trkpt lat="59.4850818" lon="31.0164631">
<ele>57.099998</ele>
<time>2026-08-31T21:00:03.000Z</time>
</trkpt>
<trkpt lat="59.4850817" lon="31.0165591">
<ele>57.450001</ele>
<time>2026-08-31T21:00:56.000Z</time>
</trkpt>
<trkpt lat="59.4850605" lon="31.0165217">
<ele>57.700001</ele>
<time>2026-08-31T21:01:32.000Z</time>
</trkpt>
<trkpt lat="59.4850392" lon="31.0165813">
<ele>57.859997</ele>
<time>2026-08-31T21:02:03.000Z</time>
</trkpt>
<trkpt lat="59.4850454" lon="31.0165344">
<ele>57.759998</ele>
<time>2026-08-31T21:02:50.000Z</time>
</trkpt>
<trkpt lat="59.4849990" lon="31.0164714">
<ele>57.689999</ele>
<time>2026-08-31T21:03:06.000Z</time>
</trkpt>
<trkpt lat="59.4849766" lon="31.0164481">
<ele>57.849998</ele>
<time>2026-08-31T21:03:24.000Z</time>
</trkpt>
<trkpt lat="59.4848898" lon="31.0165046">
<ele>57.859997</ele>
<time>2026-08-31T21:03:40.000Z</time>
</trkpt>
<trkpt lat="59.4848114" lon="31.0165854">
<ele>57.919998</ele>
<time>2026-08-31T21:04:00.000Z</time>
</trkpt>
<trkpt lat="59.4847462" lon="31.0166629">
<ele>58.160000</ele>
<time>2026-08-31T21:04:20.000Z</time>
</trkpt>
<trkpt lat="59.4846961" lon="31.0166615">
<ele>57.980000</ele>
<time>2026-08-31T21:04:36.000Z</time>
</trkpt>
<trkpt lat="59.4845681" lon="31.0167303">
<ele>57.660000</ele>
<time>2026-08-31T21:05:00.000Z</time>
</trkpt>
<trkpt lat="59.4844634" lon="31.0167857">
<ele>59.309998</ele>
<time>2026-08-31T21:05:17.000Z</time>
</trkpt>
<trkpt lat="59.4843521" lon="31.0169469">
<ele>57.900002</ele>
<time>2026-08-31T21:05:37.000Z</time>
</trkpt>
<trkpt lat="59.4842595" lon="31.0170295">
<ele>57.719997</ele>
<time>2026-08-31T21:05:52.000Z</time>
</trkpt>
<trkpt lat="59.4841296" lon="31.0171229">
<ele>58.299999</ele>
<time>2026-08-31T21:06:13.000Z</time>
</trkpt>
<trkpt lat="59.4840755" lon="31.0171022">
<ele>57.730003</ele>
<time>2026-08-31T21:06:31.000Z</time>
</trkpt>
<trkpt lat="59.4840701" lon="31.0170434">
<ele>57.740002</ele>
<time>2026-08-31T21:06:55.000Z</time>
</trkpt>
<trkpt lat="59.4840651" lon="31.0170369">
<ele>57.840000</ele>
<time>2026-08-31T21:07:16.000Z</time>
</trkpt>
<trkpt lat="59.4840458" lon="31.0170864">
<ele>57.750000</ele>
<time>2026-08-31T21:07:51.000Z</time>
</trkpt>
<trkpt lat="59.4840353" lon="31.0169744">
<ele>58.270000</ele>
<time>2026-08-31T21:08:20.000Z</time>
</trkpt>
<trkpt lat="59.4840341" lon="31.0169412">
<ele>57.810001</ele>
<time>2026-08-31T21:08:35.000Z</time>
</trkpt>
<trkpt lat="59.4841070" lon="31.0170346">
<ele>58.110001</ele>
<time>2026-08-31T21:09:09.000Z</time>
</trkpt>
<trkpt lat="59.4840845" lon="31.0170343">
<ele>58.070000</ele>
<time>2026-08-31T21:09:51.000Z</time>
</trkpt>
<trkpt lat="59.4840695" lon="31.0170444">
<ele>58.190002</ele>
<time>2026-08-31T21:10:20.000Z</time>
</trkpt>
<trkpt lat="59.4840686" lon="31.0169877">
<ele>57.700001</ele>
<time>2026-08-31T21:10:34.000Z</time>
</trkpt>
<trkpt lat="59.4840442" lon="31.0166790">
<ele>57.510002</ele>
<time>2026-08-31T21:10:55.000Z</time>
</trkpt>
<trkpt lat="59.4839651" lon="31.0164633">
<ele>57.900002</ele>
<time>2026-08-31T21:11:18.000Z</time>
</trkpt>
<trkpt lat="59.4839584" lon="31.0163521">
<ele>57.360001</ele>
<time>2026-08-31T21:11:33.000Z</time>
</trkpt>
<trkpt lat="59.4839592" lon="31.0162070">
<ele>57.099998</ele>
<time>2026-08-31T21:11:56.000Z</time>
</trkpt>
<trkpt lat="59.4839137" lon="31.0160928">
<ele>57.310001</ele>
<time>2026-08-31T21:12:16.000Z</time>
</trkpt>
<trkpt lat="59.4839262" lon="31.0160915">
<ele>57.469997</ele>
<time>2026-08-31T21:12:55.000Z</time>
</trkpt>
<trkpt lat="59.4838917" lon="31.0160623">
<ele>57.070000</ele>
<time>2026-08-31T21:13:26.000Z</time>
</trkpt>
<trkpt lat="59.4838998" lon="31.0160439">
<ele>56.949997</ele>
<time>2026-08-31T21:13:48.000Z</time>
</trkpt>
<trkpt lat="59.4839193" lon="31.0160408">
<ele>57.190002</ele>
<time>2026-08-31T21:14:30.000Z</time>
</trkpt>
<trkpt lat="59.4839240" lon="31.0160809">
<ele>57.310001</ele>
<time>2026-08-31T21:14:53.000Z</time>
</trkpt>
<trkpt lat="59.4839111" lon="31.0160290">
<ele>56.920002</ele>
<time>2026-08-31T21:16:12.000Z</time>
</trkpt>
<trkpt lat="59.4839639" lon="31.0160599">
<ele>56.990002</ele>
<time>2026-08-31T21:16:43.000Z</time>
</trkpt>
<trkpt lat="59.4840227" lon="31.0160181">
<ele>57.000000</ele>
<time>2026-08-31T21:17:04.000Z</time>
</trkpt>
<trkpt lat="59.4840485" lon="31.0159428">
<ele>56.570000</ele>
<time>2026-08-31T21:17:21.000Z</time>
</trkpt>
<trkpt lat="59.4840960" lon="31.0157877">
<ele>56.900002</ele>
<time>2026-08-31T21:17:44.000Z</time>
</trkpt>
<trkpt lat="59.4841433" lon="31.0157425">
<ele>56.760002</ele>
<time>2026-08-31T21:17:55.000Z</time>
</trkpt>
<trkpt lat="59.4841619" lon="31.0156187">
<ele>56.849998</ele>
<time>2026-08-31T21:18:12.000Z</time>
</trkpt>
<trkpt lat="59.4842131" lon="31.0155856">
<ele>56.329998</ele>
<time>2026-08-31T21:18:25.000Z</time>
</trkpt>
<trkpt lat="59.4842754" lon="31.0154728">
<ele>56.849998</ele>
<time>2026-08-31T21:18:39.000Z</time>
</trkpt>
<trkpt lat="59.4843288" lon="31.0153938">
<ele>56.419998</ele>
<time>2026-08-31T21:19:09.000Z</time>
</trkpt>
<trkpt lat="59.4843628" lon="31.0153595">
<ele>56.830002</ele>
<time>2026-08-31T21:19:29.000Z</time>
</trkpt>
<trkpt lat="59.4844562" lon="31.0151780">
<ele>56.730000</ele>
<time>2026-08-31T21:20:01.000Z</time>
</trkpt>
<trkpt lat="59.4845213" lon="31.0151594">
<ele>56.590000</ele>
<time>2026-08-31T21:20:19.000Z</time>
</trkpt>
<trkpt lat="59.4845680" lon="31.0151094">
<ele>56.499996</ele>
<time>2026-08-31T21:20:39.000Z</time>
</trkpt>
<trkpt lat="59.4846629" lon="31.0149032">
<ele>56.109997</ele>
<time>2026-08-31T21:21:03.000Z</time>
</trkpt>
<trkpt lat="59.4847002" lon="31.0148075">
<ele>56.070000</ele>
<time>2026-08-31T21:21:23.000Z</time>
</trkpt>
<trkpt lat="59.4847017" lon="31.0148578">
<ele>56.189999</ele>
<time>2026-08-31T21:21:59.000Z</time>
</trkpt>
<trkpt lat="59.4847239" lon="31.0148503">
<ele>54.370003</ele>
<time>2026-08-31T21:22:18.000Z</time>
</trkpt>
<trkpt lat="59.4847281" lon="31.0148288">
<ele>54.990002</ele>
<time>2026-08-31T21:22:57.000Z</time>
</trkpt>
<trkpt lat="59.4846797" lon="31.0148737">
<ele>55.549999</ele>
<time>2026-08-31T21:23:56.000Z</time>
</trkpt>
<trkpt lat="59.4847398" lon="31.0148086">
<ele>55.450001</ele>
<time>2026-08-31T21:24:17.000Z</time>
</trkpt>
<trkpt lat="59.4847414" lon="31.0147152">
<ele>55.020000</ele>
<time>2026-08-31T21:24:35.000Z</time>
</trkpt>
<trkpt lat="59.4847730" lon="31.0145862">
<ele>54.540001</ele>
<time>2026-08-31T21:24:50.000Z</time>
</trkpt>
<trkpt lat="59.4848549" lon="31.0146548">
<ele>54.600002</ele>
<time>2026-08-31T21:25:14.000Z</time>
</trkpt>
<trkpt lat="59.4849230" lon="31.0144807">
<ele>54.230003</ele>
<time>2026-08-31T21:25:39.000Z</time>
</trkpt>
<trkpt lat="59.4849672" lon="31.0144228">
<ele>54.240002</ele>
<time>2026-08-31T21:25:56.000Z</time>
</trkpt>
<trkpt lat="59.4849670" lon="31.0143341">
<ele>51.480003</ele>
<time>2026-08-31T21:26:28.000Z</time>
</trkpt>
<trkpt lat="59.4849655" lon="31.0143144">
<ele>54.820000</ele>
<time>2026-08-31T21:26:31.000Z</time>
</trkpt>
<trkpt lat="59.4849641" lon="31.0143132">
<ele>54.430000</ele>
<time>2026-08-31T21:26:32.000Z</time>
</trkpt>
<trkpt lat="59.4849333" lon="31.0142955">
<ele>53.899998</ele>
<time>2026-08-31T21:26:59.000Z</time>
</trkpt>
<trkpt lat="59.4849916" lon="31.0142342">
<ele>54.180000</ele>
<time>2026-08-31T21:27:17.000Z</time>
</trkpt>
<trkpt lat="59.4850465" lon="31.0141584">
<ele>53.850002</ele>
<time>2026-08-31T21:27:31.000Z</time>
</trkpt>
<trkpt lat="59.4849947" lon="31.0142481">
<ele>54.199997</ele>
<time>2026-08-31T21:27:44.000Z</time>
</trkpt>
<trkpt lat="59.4849348" lon="31.0141978">
<ele>54.010002</ele>
<time>2026-08-31T21:27:57.000Z</time>
</trkpt>
<trkpt lat="59.4849193" lon="31.0141243">
<ele>53.590000</ele>
<time>2026-08-31T21:28:16.000Z</time>
</trkpt>
<trkpt lat="59.4849006" lon="31.0141119">
<ele>53.700001</ele>
<time>2026-08-31T21:28:34.000Z</time>
</trkpt>
<trkpt lat="59.4849038" lon="31.0140870">
<ele>53.439999</ele>
<time>2026-08-31T21:28:56.000Z</time>
</trkpt>
<trkpt lat="59.4849141" lon="31.0139885">
<ele>53.850002</ele>
<time>2026-08-31T21:29:11.000Z</time>
</trkpt>
<trkpt lat="59.4849066" lon="31.0139345">
<ele>53.029999</ele>
<time>2026-08-31T21:29:33.000Z</time>
</trkpt>
<trkpt lat="59.4849068" lon="31.0139336">
<ele>53.430000</ele>
<time>2026-08-31T21:29:38.000Z</time>
</trkpt>
<trkpt lat="59.4849274" lon="31.0139663">
<ele>53.690002</ele>
<time>2026-08-31T21:29:58.000Z</time>
</trkpt>
<trkpt lat="59.4849830" lon="31.0137915">
<ele>54.709999</ele>
<time>2026-08-31T21:30:22.000Z</time>
</trkpt>
<trkpt lat="59.4850282" lon="31.0137907">
<ele>54.340000</ele>
<time>2026-08-31T21:30:33.000Z</time>
</trkpt>
<trkpt lat="59.4850778" lon="31.0137824">
<ele>53.200001</ele>
<time>2026-08-31T21:30:51.000Z</time>
</trkpt>
<trkpt lat="59.4851431" lon="31.0137261">
<ele>53.349998</ele>
<time>2026-08-31T21:31:10.000Z</time>
</trkpt>
<trkpt lat="59.4852011" lon="31.0136444">
<ele>53.230003</ele>
<time>2026-08-31T21:31:33.000Z</time>
</trkpt>
<trkpt lat="59.4853025" lon="31.0136108">
<ele>53.250000</ele>
<time>2026-08-31T21:31:50.000Z</time>
</trkpt>
<trkpt lat="59.4853508" lon="31.0136222">
<ele>53.509998</ele>
<time>2026-08-31T21:32:15.000Z</time>
</trkpt>
<trkpt lat="59.4853445" lon="31.0136161">
<ele>53.320000</ele>
<time>2026-08-31T21:33:03.000Z</time>
</trkpt>
<trkpt lat="59.4853539" lon="31.0136187">
<ele>52.790001</ele>
<time>2026-08-31T21:33:52.000Z</time>
</trkpt>
<trkpt lat="59.4853606" lon="31.0136237">
<ele>52.620003</ele>
<time>2026-08-31T21:34:26.000Z</time>
</trkpt>
<trkpt lat="59.4853739" lon="31.0136046">
<ele>52.950001</ele>
<time>2026-08-31T21:34:49.000Z</time>
</trkpt>
<trkpt lat="59.4853783" lon="31.0136001">
<ele>53.230003</ele>
<time>2026-08-31T21:35:45.000Z</time>
</trkpt>
<trkpt lat="59.4853606" lon="31.0135856">
<ele>53.070000</ele>
<time>2026-08-31T21:36:22.000Z</time>
</trkpt>
<trkpt lat="59.4854197" lon="31.0136648">
<ele>53.119999</ele>
<time>2026-08-31T21:36:41.000Z</time>
</trkpt>
<trkpt lat="59.4854200" lon="31.0136814">
<ele>52.989998</ele>
<time>2026-08-31T21:37:21.000Z</time>
</trkpt>
<trkpt lat="59.4854925" lon="31.0136788">
<ele>52.899998</ele>
<time>2026-08-31T21:37:37.000Z</time>
</trkpt>
<trkpt lat="59.4855326" lon="31.0137190">
<ele>53.279999</ele>
<time>2026-08-31T21:37:44.000Z</time>
</trkpt>
<trkpt lat="59.4855683" lon="31.0137235">
<ele>53.410000</ele>
<time>2026-08-31T21:37:53.000Z</time>
</trkpt>
<trkpt lat="59.4855828" lon="31.0137054">
<ele>53.250000</ele>
<time>2026-08-31T21:38:13.000Z</time>
</trkpt>
<trkpt lat="59.4856327" lon="31.0138352">
<ele>52.700001</ele>
<time>2026-08-31T21:38:33.000Z</time>
</trkpt>
<trkpt lat="59.4857123" lon="31.0139065">
<ele>53.509998</ele>
<time>2026-08-31T21:38:53.000Z</time>
</trkpt>
<trkpt lat="59.4857673" lon="31.0139663">
<ele>53.410000</ele>
<time>2026-08-31T21:39:12.000Z</time>
</trkpt>
<trkpt lat="59.4858313" lon="31.0140584">
<ele>54.110001</ele>
<time>2026-08-31T21:39:26.000Z</time>
</trkpt>
<trkpt lat="59.4859216" lon="31.0140503">
<ele>53.439999</ele>
<time>2026-08-31T21:39:41.000Z</time>
</trkpt>
<trkpt lat="59.4859411" lon="31.0140807">
<ele>53.250000</ele>
<time>2026-08-31T21:39:56.000Z</time>
</trkpt>
<trkpt lat="59.4859689" lon="31.0140963">
<ele>53.260002</ele>
<time>2026-08-31T21:40:17.000Z</time>
</trkpt>
<trkpt lat="59.4859728" lon="31.0141046">
<ele>53.480000</ele>
<time>2026-08-31T21:41:03.000Z</time>
</trkpt>
<trkpt lat="59.4859696" lon="31.0140735">
<ele>53.000004</ele>
<time>2026-08-31T21:41:20.000Z</time>
</trkpt>
<trkpt lat="59.4859838" lon="31.0140544">
<ele>51.149998</ele>
<time>2026-08-31T21:41:52.000Z</time>
</trkpt>
<trkpt lat="59.4859854" lon="31.0140538">
<ele>53.020000</ele>
<time>2026-08-31T21:42:06.000Z</time>
</trkpt>
<trkpt lat="59.4859829" lon="31.0140921">
<ele>52.770000</ele>
<time>2026-08-31T21:42:25.000Z</time>
</trkpt>
<trkpt lat="59.4859836" lon="31.0140760">
<ele>52.360001</ele>
<time>2026-08-31T21:42:45.000Z</time>
</trkpt>
<trkpt lat="59.4860273" lon="31.0140585">
<ele>52.449997</ele>
<time>2026-08-31T21:43:05.000Z</time>
</trkpt>
<trkpt lat="59.4860651" lon="31.0141085">
<ele>52.650002</ele>
<time>2026-08-31T21:43:28.000Z</time>
</trkpt>
<trkpt lat="59.4860651" lon="31.0141078">
<ele>52.550003</ele>
<time>2026-08-31T21:44:07.000Z</time>
</trkpt>
<trkpt lat="59.4860613" lon="31.0141106">
<ele>52.299999</ele>
<time>2026-08-31T21:44:32.000Z</time>
</trkpt>
<trkpt lat="59.4860687" lon="31.0141088">
<ele>51.640003</ele>
<time>2026-08-31T21:45:02.000Z</time>
</trkpt>
<trkpt lat="59.4860553" lon="31.0141142">
<ele>52.309998</ele>
<time>2026-08-31T21:45:30.000Z</time>
</trkpt>
<trkpt lat="59.4861008" lon="31.0140850">
<ele>52.189999</ele>
<time>2026-08-31T21:45:56.000Z</time>
</trkpt>
<trkpt lat="59.4861413" lon="31.0140677">
<ele>52.090000</ele>
<time>2026-08-31T21:46:08.000Z</time>
</trkpt>
<trkpt lat="59.4861590" lon="31.0140931">
<ele>51.849998</ele>
<time>2026-08-31T21:46:48.000Z</time>
</trkpt>
<trkpt lat="59.4861859" lon="31.0141424">
<ele>52.090000</ele>
<time>2026-08-31T21:47:04.000Z</time>
</trkpt>
<trkpt lat="59.4861997" lon="31.0141982">
<ele>52.119999</ele>
<time>2026-08-31T21:47:19.000Z</time>
</trkpt>
<trkpt lat="59.4862216" lon="31.0142269">
<ele>52.070000</ele>
<time>2026-08-31T21:47:38.000Z</time>
</trkpt>
<trkpt lat="59.4862784" lon="31.0142432">
<ele>52.219997</ele>
<time>2026-08-31T21:47:50.000Z</time>
</trkpt>
<trkpt lat="59.4863516" lon="31.0142453">
<ele>51.940002</ele>
<time>2026-08-31T21:48:03.000Z</time>
</trkpt>
<trkpt lat="59.4864232" lon="31.0142102">
<ele>52.570000</ele>
<time>2026-08-31T21:48:17.000Z</time>
</trkpt>
<trkpt lat="59.4865002" lon="31.0142185">
<ele>52.230000</ele>
<time>2026-08-31T21:48:32.000Z</time>
</trkpt>
<trkpt lat="59.4865145" lon="31.0142092">
<ele>52.660000</ele>
<time>2026-08-31T21:48:48.000Z</time>
</trkpt>
<trkpt lat="59.4865110" lon="31.0141690">
<ele>52.079998</ele>
<time>2026-08-31T21:49:13.000Z</time>
</trkpt>
<trkpt lat="59.4865147" lon="31.0141896">
<ele>52.100002</ele>
<time>2026-08-31T21:49:40.000Z</time>
</trkpt>
<trkpt lat="59.4865014" lon="31.0141904">
<ele>52.200001</ele>
<time>2026-08-31T21:50:15.000Z</time>
</trkpt>
<trkpt lat="59.4865019" lon="31.0141999">
<ele>52.340000</ele>
<time>2026-08-31T21:50:48.000Z</time>
</trkpt>
<trkpt lat="59.4864993" lon="31.0141828">
<ele>51.959999</ele>
<time>2026-08-31T21:51:41.000Z</time>
</trkpt>
<trkpt lat="59.4864933" lon="31.0142481">
<ele>51.570000</ele>
<time>2026-08-31T21:52:29.000Z</time>
</trkpt>
<trkpt lat="59.4864943" lon="31.0143264">
<ele>51.769997</ele>
<time>2026-08-31T21:52:43.000Z</time>
</trkpt>
<trkpt lat="59.4864914" lon="31.0143378">
<ele>51.780003</ele>
<time>2026-08-31T21:53:05.000Z</time>
</trkpt>
<trkpt lat="59.4864909" lon="31.0142393">
<ele>51.450001</ele>
<time>2026-08-31T21:53:25.000Z</time>
</trkpt>
<trkpt lat="59.4865407" lon="31.0142030">
<ele>51.079998</ele>
<time>2026-08-31T21:53:45.000Z</time>
</trkpt>
<trkpt lat="59.4865697" lon="31.0142051">
<ele>51.030003</ele>
<time>2026-08-31T21:54:00.000Z</time>
</trkpt>
<trkpt lat="59.4865691" lon="31.0141997">
<ele>52.470001</ele>
<time>2026-08-31T21:54:04.000Z</time>
</trkpt>
<trkpt lat="59.4865655" lon="31.0142070">
<ele>51.369999</ele>
<time>2026-08-31T21:54:12.000Z</time>
</trkpt>
<trkpt lat="59.4864903" lon="31.0142160">
<ele>51.170002</ele>
<time>2026-08-31T21:54:22.000Z</time>
</trkpt>
<trkpt lat="59.4864540" lon="31.0142293">
<ele>51.219997</ele>
<time>2026-08-31T21:54:27.000Z</time>
</trkpt>
<trkpt lat="59.4864178" lon="31.0141946">
<ele>51.230000</ele>
<time>2026-08-31T21:54:31.000Z</time>
</trkpt>
<trkpt lat="59.4863671" lon="31.0142577">
<ele>51.389999</ele>
<time>2026-08-31T21:54:45.000Z</time>
</trkpt>
<trkpt lat="59.4863870" lon="31.0143586">
<ele>51.480003</ele>
<time>2026-08-31T21:54:58.000Z</time>
</trkpt>
<trkpt lat="59.4864007" lon="31.0143916">
<ele>51.340000</ele>
<time>2026-08-31T21:55:04.000Z</time>
</trkpt>
<trkpt lat="59.4863752" lon="31.0144526">
<ele>51.459999</ele>
<time>2026-08-31T21:55:17.000Z</time>
</trkpt>
<trkpt lat="59.4863355" lon="31.0145346">
<ele>51.829998</ele>
<time>2026-08-31T21:55:31.000Z</time>
</trkpt>
<trkpt lat="59.4863125" lon="31.0146196">
<ele>51.780003</ele>
<time>2026-08-31T21:55:52.000Z</time>
</trkpt>
<trkpt lat="59.4863308" lon="31.0145579">
<ele>51.550003</ele>
<time>2026-08-31T21:56:39.000Z</time>
</trkpt>
<trkpt lat="59.4863139" lon="31.0146154">
<ele>51.309998</ele>
<time>2026-08-31T21:57:11.000Z</time>
</trkpt>
<trkpt lat="59.4862613" lon="31.0148169">
<ele>51.480003</ele>
<time>2026-08-31T21:57:49.000Z</time>
</trkpt>
<trkpt lat="59.4862773" lon="31.0149407">
<ele>51.919998</ele>
<time>2026-08-31T21:58:05.000Z</time>
</trkpt>
<trkpt lat="59.4863156" lon="31.0150817">
<ele>52.609997</ele>
<time>2026-08-31T21:58:38.000Z</time>
</trkpt>
<trkpt lat="59.4863868" lon="31.0152105">
<ele>52.110001</ele>
<time>2026-08-31T21:58:54.000Z</time>
</trkpt>
<trkpt lat="59.4864035" lon="31.0152981">
<ele>52.240002</ele>
<time>2026-08-31T21:59:09.000Z</time>
</trkpt>
<trkpt lat="59.4863738" lon="31.0154359">
<ele>51.899998</ele>
<time>2026-08-31T21:59:31.000Z</time>
</trkpt>
<trkpt lat="59.4863747" lon="31.0154446">
<ele>52.860001</ele>
<time>2026-08-31T21:59:33.000Z</time>
</trkpt>
<trkpt lat="59.4863555" lon="31.0155530">
<ele>52.160004</ele>
<time>2026-08-31T21:59:47.000Z</time>
</trkpt>
<trkpt lat="59.4863800" lon="31.0156992">
<ele>52.420002</ele>
<time>2026-08-31T22:00:08.000Z</time>
</trkpt>
<trkpt lat="59.4864128" lon="31.0159103">
<ele>52.660000</ele>
<time>2026-08-31T22:00:47.000Z</time>
</trkpt>
<trkpt lat="59.4864080" lon="31.0159259">
<ele>52.500000</ele>
<time>2026-08-31T22:01:22.000Z</time>
</trkpt>
<trkpt lat="59.4864083" lon="31.0159290">
<ele>51.379997</ele>
<time>2026-08-31T22:01:27.000Z</time>
</trkpt>
<trkpt lat="59.4864022" lon="31.0159560">
<ele>52.880001</ele>
<time>2026-08-31T22:01:41.000Z</time>
</trkpt>
<trkpt lat="59.4863952" lon="31.0159207">
<ele>52.770000</ele>
<time>2026-08-31T22:02:11.000Z</time>
</trkpt>
<trkpt lat="59.4863946" lon="31.0159433">
<ele>52.599998</ele>
<time>2026-08-31T22:03:12.000Z</time>
</trkpt>
<trkpt lat="59.4863960" lon="31.0158963">
<ele>52.529999</ele>
<time>2026-08-31T22:04:01.000Z</time>
</trkpt>
<trkpt lat="59.4864043" lon="31.0158772">
<ele>52.770000</ele>
<time>2026-08-31T22:04:50.000Z</time>
</trkpt>
<trkpt lat="59.4863995" lon="31.0159445">
<ele>52.759998</ele>
<time>2026-08-31T22:05:47.000Z</time>
</trkpt>
<trkpt lat="59.4863990" lon="31.0159312">
<ele>52.759998</ele>
<time>2026-08-31T22:06:28.000Z</time>
</trkpt>
<trkpt lat="59.4864151" lon="31.0158687">
<ele>52.620003</ele>
<time>2026-08-31T22:07:05.000Z</time>
</trkpt>
<trkpt lat="59.4864056" lon="31.0158908">
<ele>52.630001</ele>
<time>2026-08-31T22:08:08.000Z</time>
</trkpt>
<trkpt lat="59.4863936" lon="31.0159130">
<ele>52.730000</ele>
<time>2026-08-31T22:09:10.000Z</time>
</trkpt>
<trkpt lat="59.4864324" lon="31.0158647">
<ele>52.680000</ele>
<time>2026-08-31T22:09:37.000Z</time>
</trkpt>
<trkpt lat="59.4864140" lon="31.0158913">
<ele>52.780003</ele>
<time>2026-08-31T22:09:57.000Z</time>
</trkpt>
<trkpt lat="59.4864001" lon="31.0159226">
<ele>53.509998</ele>
<time>2026-08-31T22:10:55.000Z</time>
</trkpt>
<trkpt lat="59.4864070" lon="31.0159669">
<ele>50.320000</ele>
<time>2026-08-31T22:11:24.000Z</time>
</trkpt>
<trkpt lat="59.4864064" lon="31.0159678">
<ele>50.329998</ele>
<time>2026-08-31T22:11:25.000Z</time>
</trkpt>
<trkpt lat="59.4864111" lon="31.0159672">
<ele>53.070000</ele>
<time>2026-08-31T22:11:31.000Z</time>
</trkpt>
<trkpt lat="59.4863740" lon="31.0159648">
<ele>52.309998</ele>
<time>2026-08-31T22:12:11.000Z</time>
</trkpt>
<trkpt lat="59.4863951" lon="31.0159068">
<ele>52.980000</ele>
<time>2026-08-31T22:12:45.000Z</time>
</trkpt>
<trkpt lat="59.4863942" lon="31.0159170">
<ele>52.980000</ele>
<time>2026-08-31T22:13:13.000Z</time>
</trkpt>
<trkpt lat="59.4864246" lon="31.0159533">
<ele>53.170002</ele>
<time>2026-08-31T22:13:43.000Z</time>
</trkpt>
<trkpt lat="59.4863973" lon="31.0159398">
<ele>53.419998</ele>
<time>2026-08-31T22:14:36.000Z</time>
</trkpt>
<trkpt lat="59.4863858" lon="31.0159083">
<ele>53.509998</ele>
<time>2026-08-31T22:15:01.000Z</time>
</trkpt>
<trkpt lat="59.4863933" lon="31.0158067">
<ele>52.930000</ele>
<time>2026-08-31T22:15:21.000Z</time>
</trkpt>
<trkpt lat="59.4864090" lon="31.0159006">
<ele>53.669998</ele>
<time>2026-08-31T22:15:50.000Z</time>
</trkpt>
<trkpt lat="59.4864086" lon="31.0159359">
<ele>53.790001</ele>
<time>2026-08-31T22:16:17.000Z</time>
</trkpt>
<trkpt lat="59.4864028" lon="31.0159347">
<ele>53.799999</ele>
<time>2026-08-31T22:16:46.000Z</time>
</trkpt>
<trkpt lat="59.4863657" lon="31.0160099">
<ele>53.669998</ele>
<time>2026-08-31T22:17:13.000Z</time>
</trkpt>
<trkpt lat="59.4864230" lon="31.0162073">
<ele>54.359997</ele>
<time>2026-08-31T22:17:44.000Z</time>
</trkpt>
<trkpt lat="59.4864234" lon="31.0163812">
<ele>54.310001</ele>
<time>2026-08-31T22:17:59.000Z</time>
</trkpt>
<trkpt lat="59.4863924" lon="31.0164466">
<ele>54.310001</ele>
<time>2026-08-31T22:18:16.000Z</time>
</trkpt>
<trkpt lat="59.4864173" lon="31.0166045">
<ele>54.750004</ele>
<time>2026-08-31T22:18:33.000Z</time>
</trkpt>
<trkpt lat="59.4864750" lon="31.0168481">
<ele>54.889999</ele>
<time>2026-08-31T22:18:49.000Z</time>
</trkpt>
<trkpt lat="59.4865185" lon="31.0170446">
<ele>55.210003</ele>
<time>2026-08-31T22:19:12.000Z</time>
</trkpt>
<trkpt lat="59.4865306" lon="31.0172031">
<ele>55.259998</ele>
<time>2026-08-31T22:19:33.000Z</time>
</trkpt>
<trkpt lat="59.4865629" lon="31.0174841">
<ele>55.520000</ele>
<time>2026-08-31T22:19:51.000Z</time>
</trkpt>
<trkpt lat="59.4866227" lon="31.0175337">
<ele>55.240002</ele>
<time>2026-08-31T22:20:12.000Z</time>
</trkpt>
<trkpt lat="59.4866012" lon="31.0175929">
<ele>55.189999</ele>
<time>2026-08-31T22:20:36.000Z</time>
</trkpt>
<trkpt lat="59.4866161" lon="31.0176236">
<ele>54.990002</ele>
<time>2026-08-31T22:20:56.000Z</time>
</trkpt>
<trkpt lat="59.4866167" lon="31.0176043">
<ele>55.110001</ele>
<time>2026-08-31T22:21:17.000Z</time>
</trkpt>
<trkpt lat="59.4866392" lon="31.0175504">
<ele>55.570000</ele>
<time>2026-08-31T22:21:50.000Z</time>
</trkpt>
<trkpt lat="59.4866893" lon="31.0174597">
<ele>55.489998</ele>
<time>2026-08-31T22:22:25.000Z</time>
</trkpt>
<trkpt lat="59.4866510" lon="31.0175224">
<ele>56.250000</ele>
<time>2026-08-31T22:23:05.000Z</time>
</trkpt>
<trkpt lat="59.4865965" lon="31.0174171">
<ele>55.630001</ele>
<time>2026-08-31T22:23:39.000Z</time>
</trkpt>
<trkpt lat="59.4866391" lon="31.0173800">
<ele>55.520000</ele>
<time>2026-08-31T22:24:28.000Z</time>
</trkpt>
<trkpt lat="59.4867283" lon="31.0171631">
<ele>55.269997</ele>
<time>2026-08-31T22:24:44.000Z</time>
</trkpt>
<trkpt lat="59.4867442" lon="31.0170365">
<ele>55.210003</ele>
<time>2026-08-31T22:25:02.000Z</time>
</trkpt>
<trkpt lat="59.4867328" lon="31.0168055">
<ele>55.389999</ele>
<time>2026-08-31T22:25:17.000Z</time>
</trkpt>
<trkpt lat="59.4867423" lon="31.0166092">
<ele>56.029999</ele>
<time>2026-08-31T22:25:36.000Z</time>
</trkpt>
<trkpt lat="59.4867675" lon="31.0163668">
<ele>55.470001</ele>
<time>2026-08-31T22:25:53.000Z</time>
</trkpt>
<trkpt lat="59.4868035" lon="31.0162169">
<ele>54.869999</ele>
<time>2026-08-31T22:26:05.000Z</time>
</trkpt>
<trkpt lat="59.4868279" lon="31.0162075">
<ele>55.070000</ele>
<time>2026-08-31T22:26:23.000Z</time>
</trkpt>
<trkpt lat="59.4868245" lon="31.0161866">
<ele>55.250000</ele>
<time>2026-08-31T22:26:51.000Z</time>
</trkpt>
<trkpt lat="59.4868246" lon="31.0161843">
<ele>56.949997</ele>
<time>2026-08-31T22:27:02.000Z</time>
</trkpt>
<trkpt lat="59.4868349" lon="31.0161764">
<ele>54.809998</ele>
<time>2026-08-31T22:27:15.000Z</time>
</trkpt>
<trkpt lat="59.4868323" lon="31.0161710">
<ele>54.799999</ele>
<time>2026-08-31T22:27:43.000Z</time>
</trkpt>
<trkpt lat="59.4868547" lon="31.0161663">
<ele>54.809998</ele>
<time>2026-08-31T22:28:16.000Z</time>
</trkpt>
<trkpt lat="59.4868679" lon="31.0161400">
<ele>54.690002</ele>
<time>2026-08-31T22:29:05.000Z</time>
</trkpt>
<trkpt lat="59.4868744" lon="31.0160925">
<ele>54.669998</ele>
<time>2026-08-31T22:29:17.000Z</time>
</trkpt>
<trkpt lat="59.4869543" lon="31.0159633">
<ele>54.519997</ele>
<time>2026-08-31T22:29:29.000Z</time>
</trkpt>
<trkpt lat="59.4870084" lon="31.0158714">
<ele>54.600002</ele>
<time>2026-08-31T22:29:44.000Z</time>
</trkpt>
<trkpt lat="59.4870871" lon="31.0156374">
<ele>54.439999</ele>
<time>2026-08-31T22:30:05.000Z</time>
</trkpt>
<trkpt lat="59.4871089" lon="31.0154731">
<ele>54.530003</ele>
<time>2026-08-31T22:30:19.000Z</time>
</trkpt>
<trkpt lat="59.4871978" lon="31.0152767">
<ele>54.690002</ele>
<time>2026-08-31T22:30:35.000Z</time>
</trkpt>
<trkpt lat="59.4872344" lon="31.0151810">
<ele>54.779999</ele>
<time>2026-08-31T22:30:53.000Z</time>
</trkpt>
<trkpt lat="59.4871876" lon="31.0151005">
<ele>54.129997</ele>
<time>2026-08-31T22:31:18.000Z</time>
</trkpt>
<trkpt lat="59.4871753" lon="31.0149918">
<ele>54.029999</ele>
<time>2026-08-31T22:31:49.000Z</time>
</trkpt>
<trkpt lat="59.4871799" lon="31.0149895">
<ele>54.400002</ele>
<time>2026-08-31T22:32:14.000Z</time>
</trkpt>
<trkpt lat="59.4871887" lon="31.0150225">
<ele>54.680000</ele>
<time>2026-08-31T22:32:38.000Z</time>
</trkpt>
<trkpt lat="59.4871714" lon="31.0150484">
<ele>54.889999</ele>
<time>2026-08-31T22:33:17.000Z</time>
</trkpt>
<trkpt lat="59.4872120" lon="31.0149961">
<ele>54.799999</ele>
<time>2026-08-31T22:34:08.000Z</time>
</trkpt>
<trkpt lat="59.4872076" lon="31.0150292">
<ele>54.540001</ele>
<time>2026-08-31T22:34:38.000Z</time>
</trkpt>
<trkpt lat="59.4872796" lon="31.0151246">
<ele>54.840000</ele>
<time>2026-08-31T22:34:59.000Z</time>
</trkpt>
<trkpt lat="59.4873848" lon="31.0151777">
<ele>54.770000</ele>
<time>2026-08-31T22:35:23.000Z</time>
</trkpt>
<trkpt lat="59.4874694" lon="31.0152283">
<ele>54.509998</ele>
<time>2026-08-31T22:35:48.000Z</time>
</trkpt>
<trkpt lat="59.4875661" lon="31.0152163">
<ele>52.940002</ele>
<time>2026-08-31T22:36:10.000Z</time>
</trkpt>
<trkpt lat="59.4875766" lon="31.0152153">
<ele>54.610001</ele>
<time>2026-08-31T22:36:15.000Z</time>
</trkpt>
<trkpt lat="59.4876958" lon="31.0152948">
<ele>54.029999</ele>
<time>2026-08-31T22:36:38.000Z</time>
</trkpt>
<trkpt lat="59.4877604" lon="31.0153391">
<ele>54.359997</ele>
<time>2026-08-31T22:37:03.000Z</time>
</trkpt>
<trkpt lat="59.4879227" lon="31.0152896">
<ele>53.400002</ele>
<time>2026-08-31T22:37:23.000Z</time>
</trkpt>
<trkpt lat="59.4879604" lon="31.0152069">
<ele>52.180000</ele>
<time>2026-08-31T22:37:39.000Z</time>
</trkpt>
<trkpt lat="59.4879744" lon="31.0150645">
<ele>53.390003</ele>
<time>2026-08-31T22:37:53.000Z</time>
</trkpt>
<trkpt lat="59.4879376" lon="31.0150044">
<ele>53.330002</ele>
<time>2026-08-31T22:38:11.000Z</time>
</trkpt>
<trkpt lat="59.4879869" lon="31.0149429">
<ele>53.369999</ele>
<time>2026-08-31T22:38:44.000Z</time>
</trkpt>
<trkpt lat="59.4880657" lon="31.0149112">
<ele>53.150002</ele>
<time>2026-08-31T22:39:14.000Z</time>
</trkpt>
<trkpt lat="59.4881412" lon="31.0148831">
<ele>52.609997</ele>
<time>2026-08-31T22:39:31.000Z</time>
</trkpt>
<trkpt lat="59.4881820" lon="31.0148417">
<ele>53.940002</ele>
<time>2026-08-31T22:39:36.000Z</time>
</trkpt>
<trkpt lat="59.4882297" lon="31.0148737">
<ele>53.150002</ele>
<time>2026-08-31T22:39:52.000Z</time>
</trkpt>
<trkpt lat="59.4882449" lon="31.0149258">
<ele>53.660000</ele>
<time>2026-08-31T22:40:46.000Z</time>
</trkpt>
<trkpt lat="59.4881967" lon="31.0149615">
<ele>53.529999</ele>
<time>2026-08-31T22:41:18.000Z</time>
</trkpt>
<trkpt lat="59.4881884" lon="31.0149491">
<ele>54.320000</ele>
<time>2026-08-31T22:41:55.000Z</time>
</trkpt>
<trkpt lat="59.4881784" lon="31.0149762">
<ele>54.220001</ele>
<time>2026-08-31T22:42:40.000Z</time>
</trkpt>
<trkpt lat="59.4881333" lon="31.0151278">
<ele>54.460003</ele>
<time>2026-08-31T22:43:05.000Z</time>
</trkpt>
<trkpt lat="59.4881330" lon="31.0153837">
<ele>55.210003</ele>
<time>2026-08-31T22:43:24.000Z</time>
</trkpt>
<trkpt lat="59.4881041" lon="31.0156085">
<ele>54.579998</ele>
<time>2026-08-31T22:43:45.000Z</time>
</trkpt>
<trkpt lat="59.4880412" lon="31.0157549">
<ele>54.930000</ele>
<time>2026-08-31T22:44:03.000Z</time>
</trkpt>
<trkpt lat="59.4879919" lon="31.0159232">
<ele>55.259998</ele>
<time>2026-08-31T22:44:17.000Z</time>
</trkpt>
<trkpt lat="59.4879013" lon="31.0160363">
<ele>55.049999</ele>
<time>2026-08-31T22:44:30.000Z</time>
</trkpt>
<trkpt lat="59.4878746" lon="31.0161465">
<ele>55.119999</ele>
<time>2026-08-31T22:44:42.000Z</time>
</trkpt>
<trkpt lat="59.4878234" lon="31.0162664">
<ele>56.009998</ele>
<time>2026-08-31T22:44:52.000Z</time>
</trkpt>
<trkpt lat="59.4878092" lon="31.0164020">
<ele>55.770000</ele>
<time>2026-08-31T22:45:14.000Z</time>
</trkpt>
<trkpt lat="59.4877698" lon="31.0164755">
<ele>55.869999</ele>
<time>2026-08-31T22:45:29.000Z</time>
</trkpt>
<trkpt lat="59.4877569" lon="31.0165041">
<ele>55.389999</ele>
<time>2026-08-31T22:46:04.000Z</time>
</trkpt>
<trkpt lat="59.4877668" lon="31.0165487">
<ele>55.579998</ele>
<time>2026-08-31T22:46:53.000Z</time>
</trkpt>
<trkpt lat="59.4877647" lon="31.0165641">
<ele>56.399998</ele>
<time>2026-08-31T22:47:18.000Z</time>
</trkpt>
<trkpt lat="59.4877664" lon="31.0165732">
<ele>56.180000</ele>
<time>2026-08-31T22:47:57.000Z</time>
</trkpt>
<trkpt lat="59.4877587" lon="31.0167646">
<ele>56.020000</ele>
<time>2026-08-31T22:48:11.000Z</time>
</trkpt>
<trkpt lat="59.4876937" lon="31.0168893">
<ele>56.329998</ele>
<time>2026-08-31T22:48:23.000Z</time>
</trkpt>
<trkpt lat="59.4876664" lon="31.0169793">
<ele>56.220001</ele>
<time>2026-08-31T22:48:35.000Z</time>
</trkpt>
<trkpt lat="59.4877085" lon="31.0170583">
<ele>55.700001</ele>
<time>2026-08-31T22:48:59.000Z</time>
</trkpt>
<trkpt lat="59.4876798" lon="31.0171329">
<ele>56.320000</ele>
<time>2026-08-31T22:49:08.000Z</time>
</trkpt>
<trkpt lat="59.4876425" lon="31.0173614">
<ele>56.329998</ele>
<time>2026-08-31T22:49:19.000Z</time>
</trkpt>
<trkpt lat="59.4876171" lon="31.0175048">
<ele>55.310001</ele>
<time>2026-08-31T22:49:34.000Z</time>
</trkpt>
<trkpt lat="59.4876343" lon="31.0177996">
<ele>56.590000</ele>
<time>2026-08-31T22:49:52.000Z</time>
</trkpt>
<trkpt lat="59.4876294" lon="31.0179577">
<ele>57.139999</ele>
<time>2026-08-31T22:50:07.000Z</time>
</trkpt>
<trkpt lat="59.4876220" lon="31.0181255">
<ele>56.670002</ele>
<time>2026-08-31T22:50:21.000Z</time>
</trkpt>
<trkpt lat="59.4876212" lon="31.0183218">
<ele>56.450001</ele>
<time>2026-08-31T22:50:35.000Z</time>
</trkpt>
<trkpt lat="59.4875913" lon="31.0184353">
<ele>56.499996</ele>
<time>2026-08-31T22:50:54.000Z</time>
</trkpt>
<trkpt lat="59.4875628" lon="31.0184384">
<ele>56.350002</ele>
<time>2026-08-31T22:51:12.000Z</time>
</trkpt>
<trkpt lat="59.4875730" lon="31.0183980">
<ele>56.299999</ele>
<time>2026-08-31T22:52:00.000Z</time>
</trkpt>
<trkpt lat="59.4875617" lon="31.0183891">
<ele>56.150002</ele>
<time>2026-08-31T22:52:49.000Z</time>
</trkpt>
<trkpt lat="59.4875455" lon="31.0184036">
<ele>56.109997</ele>
<time>2026-08-31T22:53:20.000Z</time>
</trkpt>
<trkpt lat="59.4875342" lon="31.0184849">
<ele>55.680000</ele>
<time>2026-08-31T22:53:52.000Z</time>
</trkpt>
<trkpt lat="59.4875139" lon="31.0185785">
<ele>56.160000</ele>
<time>2026-08-31T22:54:10.000Z</time>
</trkpt>
<trkpt lat="59.4874527" lon="31.0186977">
<ele>55.990002</ele>
<time>2026-08-31T22:54:26.000Z</time>
</trkpt>
<trkpt lat="59.4874077" lon="31.0188314">
<ele>56.119999</ele>
<time>2026-08-31T22:54:39.000Z</time>
</trkpt>
<trkpt lat="59.4873332" lon="31.0190080">
<ele>56.570000</ele>
<time>2026-08-31T22:54:54.000Z</time>
</trkpt>
<trkpt lat="59.4872607" lon="31.0191148">
<ele>56.250000</ele>
<time>2026-08-31T22:55:08.000Z</time>
</trkpt>
<trkpt lat="59.4871875" lon="31.0192272">
<ele>56.250000</ele>
<time>2026-08-31T22:55:25.000Z</time>
</trkpt>
<trkpt lat="59.4871686" lon="31.0192500">
<ele>56.779999</ele>
<time>2026-08-31T22:55:39.000Z</time>
</trkpt>
<trkpt lat="59.4871701" lon="31.0193035">
<ele>56.340000</ele>
<time>2026-08-31T22:56:21.000Z</time>
</trkpt>
<trkpt lat="59.4871722" lon="31.0193629">
<ele>55.410000</ele>
<time>2026-08-31T22:56:41.000Z</time>
</trkpt>
<trkpt lat="59.4871452" lon="31.0193405">
<ele>56.130001</ele>
<time>2026-08-31T22:57:20.000Z</time>
</trkpt>
<trkpt lat="59.4871577" lon="31.0192923">
<ele>56.440002</ele>
<time>2026-08-31T22:58:21.000Z</time>
</trkpt>
<trkpt lat="59.4871596" lon="31.0192748">
<ele>56.360001</ele>
<time>2026-08-31T22:58:47.000Z</time>
</trkpt>
<trkpt lat="59.4871448" lon="31.0193104">
<ele>56.670002</ele>
<time>2026-08-31T22:59:14.000Z</time>
</trkpt>
<trkpt lat="59.4871586" lon="31.0193030">
<ele>56.610001</ele>
<time>2026-08-31T22:59:40.000Z</time>
</trkpt>
<trkpt lat="59.4871536" lon="31.0193008">
<ele>56.689999</ele>
<time>2026-08-31T23:00:17.000Z</time>
</trkpt>
<trkpt lat="59.4871664" lon="31.0192489">
<ele>56.600002</ele>
<time>2026-08-31T23:00:46.000Z</time>
</trkpt>
<trkpt lat="59.4871693" lon="31.0192654">
<ele>56.370003</ele>
<time>2026-08-31T23:01:06.000Z</time>
</trkpt>
<trkpt lat="59.4871823" lon="31.0192759">
<ele>56.450001</ele>
<time>2026-08-31T23:01:30.000Z</time>
</trkpt>
<trkpt lat="59.4872100" lon="31.0193163">
<ele>56.430000</ele>
<time>2026-08-31T23:01:55.000Z</time>
</trkpt>
<trkpt lat="59.4872498" lon="31.0193716">
<ele>56.280003</ele>
<time>2026-08-31T23:02:18.000Z</time>
</trkpt>
<trkpt lat="59.4873581" lon="31.0195602">
<ele>56.700001</ele>
<time>2026-08-31T23:02:36.000Z</time>
</trkpt>
<trkpt lat="59.4874135" lon="31.0197203">
<ele>56.250000</ele>
<time>2026-08-31T23:02:56.000Z</time>
</trkpt>
<trkpt lat="59.4874623" lon="31.0198756">
<ele>56.360001</ele>
<time>2026-08-31T23:03:11.000Z</time>
</trkpt>
<trkpt lat="59.4875139" lon="31.0200980">
<ele>56.389999</ele>
<time>2026-08-31T23:03:25.000Z</time>
</trkpt>
<trkpt lat="59.4875176" lon="31.0202509">
<ele>56.639999</ele>
<time>2026-08-31T23:03:43.000Z</time>
</trkpt>
<trkpt lat="59.4875310" lon="31.0204217">
<ele>56.549999</ele>
<time>2026-08-31T23:03:54.000Z</time>
</trkpt>
<trkpt lat="59.4875817" lon="31.0204223">
<ele>56.580002</ele>
<time>2026-08-31T23:04:10.000Z</time>
</trkpt>
<trkpt lat="59.4876391" lon="31.0205576">
<ele>56.410000</ele>
<time>2026-08-31T23:04:20.000Z</time>
</trkpt>
<trkpt lat="59.4876943" lon="31.0206581">
<ele>56.250000</ele>
<time>2026-08-31T23:04:34.000Z</time>
</trkpt>
<trkpt lat="59.4876901" lon="31.0207875">
<ele>56.529999</ele>
<time>2026-08-31T23:04:56.000Z</time>
</trkpt>
<trkpt lat="59.4877761" lon="31.0206562">
<ele>55.820004</ele>
<time>2026-08-31T23:05:18.000Z</time>
</trkpt>
<trkpt lat="59.4877994" lon="31.0206612">
<ele>56.259998</ele>
<time>2026-08-31T23:05:29.000Z</time>
</trkpt>
<trkpt lat="59.4879137" lon="31.0206291">
<ele>55.949997</ele>
<time>2026-08-31T23:05:43.000Z</time>
</trkpt>
<trkpt lat="59.4879165" lon="31.0206080">
<ele>56.489998</ele>
<time>2026-08-31T23:06:30.000Z</time>
</trkpt>
<trkpt lat="59.4879331" lon="31.0205977">
<ele>56.389999</ele>
<time>2026-08-31T23:07:12.000Z</time>
</trkpt>
<trkpt lat="59.4879266" lon="31.0206334">
<ele>56.160000</ele>
<time>2026-08-31T23:07:37.000Z</time>
</trkpt>
<trkpt lat="59.4879113" lon="31.0206146">
<ele>56.459999</ele>
<time>2026-08-31T23:07:59.000Z</time>
</trkpt>
<trkpt lat="59.4879221" lon="31.0205459">
<ele>55.630001</ele>
<time>2026-08-31T23:08:26.000Z</time>
</trkpt>
<trkpt lat="59.4879628" lon="31.0203784">
<ele>55.400002</ele>
<time>2026-08-31T23:08:41.000Z</time>
</trkpt>
<trkpt lat="59.4880425" lon="31.0202815">
<ele>55.619999</ele>
<time>2026-08-31T23:08:53.000Z</time>
</trkpt>
<trkpt lat="59.4880708" lon="31.0201716">
<ele>55.459999</ele>
<time>2026-08-31T23:09:06.000Z</time>
</trkpt>
<trkpt lat="59.4880709" lon="31.0201675">
<ele>55.930000</ele>
<time>2026-08-31T23:09:07.000Z</time>
</trkpt>
<trkpt lat="59.4880802" lon="31.0200102">
<ele>55.570000</ele>
<time>2026-08-31T23:09:22.000Z</time>
</trkpt>
<trkpt lat="59.4881028" lon="31.0199469">
<ele>54.340000</ele>
<time>2026-08-31T23:09:29.000Z</time>
</trkpt>
<trkpt lat="59.4881173" lon="31.0198955">
<ele>55.659996</ele>
<time>2026-08-31T23:09:35.000Z</time>
</trkpt>
<trkpt lat="59.4881718" lon="31.0197549">
<ele>56.130001</ele>
<time>2026-08-31T23:09:51.000Z</time>
</trkpt>
<trkpt lat="59.4881766" lon="31.0196060">
<ele>56.000000</ele>
<time>2026-08-31T23:10:04.000Z</time>
</trkpt>
<trkpt lat="59.4881882" lon="31.0193894">
<ele>55.980003</ele>
<time>2026-08-31T23:10:18.000Z</time>
</trkpt>
<trkpt lat="59.4881765" lon="31.0192395">
<ele>55.860001</ele>
<time>2026-08-31T23:10:29.000Z</time>
</trkpt>
<trkpt lat="59.4881812" lon="31.0192101">
<ele>55.730000</ele>
<time>2026-08-31T23:10:32.000Z</time>
</trkpt>
<trkpt lat="59.4881765" lon="31.0190284">
<ele>55.709999</ele>
<time>2026-08-31T23:10:43.000Z</time>
</trkpt>
<trkpt lat="59.4882179" lon="31.0189045">
<ele>55.750000</ele>
<time>2026-08-31T23:11:01.000Z</time>
</trkpt>
<trkpt lat="59.4882022" lon="31.0188547">
<ele>55.790001</ele>
<time>2026-08-31T23:11:21.000Z</time>
</trkpt>
<trkpt lat="59.4882133" lon="31.0188458">
<ele>57.009998</ele>
<time>2026-08-31T23:12:04.000Z</time>
</trkpt>
<trkpt lat="59.4882160" lon="31.0188242">
<ele>56.000000</ele>
<time>2026-08-31T23:12:35.000Z</time>
</trkpt>
<trkpt lat="59.4882497" lon="31.0188190">
<ele>56.230000</ele>
<time>2026-08-31T23:13:28.000Z</time>
</trkpt>
<trkpt lat="59.4882926" lon="31.0187501">
<ele>56.259998</ele>
<time>2026-08-31T23:14:05.000Z</time>
</trkpt>
<trkpt lat="59.4883745" lon="31.0185429">
<ele>56.910000</ele>
<time>2026-08-31T23:14:26.000Z</time>
</trkpt>
<trkpt lat="59.4884599" lon="31.0183617">
<ele>56.520000</ele>
<time>2026-08-31T23:14:41.000Z</time>
</trkpt>
<trkpt lat="59.4884885" lon="31.0182606">
<ele>56.540001</ele>
<time>2026-08-31T23:15:00.000Z</time>
</trkpt>
<trkpt lat="59.4884892" lon="31.0181390">
<ele>56.499996</ele>
<time>2026-08-31T23:15:16.000Z</time>
</trkpt>
<trkpt lat="59.4885168" lon="31.0179648">
<ele>56.779999</ele>
<time>2026-08-31T23:15:29.000Z</time>
</trkpt>
<trkpt lat="59.4885073" lon="31.0178550">
<ele>56.810001</ele>
<time>2026-08-31T23:15:44.000Z</time>
</trkpt>
<trkpt lat="59.4885034" lon="31.0176541">
<ele>56.670002</ele>
<time>2026-08-31T23:16:03.000Z</time>
</trkpt>
<trkpt lat="59.4884862" lon="31.0174701">
<ele>56.799999</ele>
<time>2026-08-31T23:16:19.000Z</time>
</trkpt>
<trkpt lat="59.4884900" lon="31.0174000">
<ele>56.730000</ele>
<time>2026-08-31T23:16:37.000Z</time>
</trkpt>
<trkpt lat="59.4885428" lon="31.0172381">
<ele>56.559998</ele>
<time>2026-08-31T23:16:51.000Z</time>
</trkpt>
<trkpt lat="59.4885203" lon="31.0171944">
<ele>56.419998</ele>
<time>2026-08-31T23:17:07.000Z</time>
</trkpt>
<trkpt lat="59.4885460" lon="31.0171987">
<ele>56.510002</ele>
<time>2026-08-31T23:17:38.000Z</time>
</trkpt>
<trkpt lat="59.4885288" lon="31.0171289">
<ele>56.949997</ele>
<time>2026-08-31T23:18:19.000Z</time>
</trkpt>
<trkpt lat="59.4885416" lon="31.0171493">
<ele>56.660004</ele>
<time>2026-08-31T23:18:36.000Z</time>
</trkpt>
<trkpt lat="59.4885261" lon="31.0171617">
<ele>56.310001</ele>
<time>2026-08-31T23:19:08.000Z</time>
</trkpt>
<trkpt lat="59.4885293" lon="31.0171696">
<ele>55.920002</ele>
<time>2026-08-31T23:19:44.000Z</time>
</trkpt>
<trkpt lat="59.4885390" lon="31.0170650">
<ele>56.189999</ele>
<time>2026-08-31T23:20:11.000Z</time>
</trkpt>
<trkpt lat="59.4885697" lon="31.0168949">
<ele>56.489998</ele>
<time>2026-08-31T23:20:26.000Z</time>
</trkpt>
<trkpt lat="59.4885825" lon="31.0167594">
<ele>56.849998</ele>
<time>2026-08-31T23:20:39.000Z</time>
</trkpt>
<trkpt lat="59.4885916" lon="31.0167511">
<ele>56.760002</ele>
<time>2026-08-31T23:20:40.000Z</time>
</trkpt>
<trkpt lat="59.4886557" lon="31.0166216">
<ele>56.520000</ele>
<time>2026-08-31T23:20:51.000Z</time>
</trkpt>
<trkpt lat="59.4886843" lon="31.0165116">
<ele>56.480000</ele>
<time>2026-08-31T23:21:06.000Z</time>
</trkpt>
<trkpt lat="59.4887640" lon="31.0163518">
<ele>56.660004</ele>
<time>2026-08-31T23:21:20.000Z</time>
</trkpt>
<trkpt lat="59.4888054" lon="31.0162441">
<ele>56.399998</ele>
<time>2026-08-31T23:21:32.000Z</time>
</trkpt>
<trkpt lat="59.4888829" lon="31.0161264">
<ele>56.360001</ele>
<time>2026-08-31T23:21:46.000Z</time>
</trkpt>
<trkpt lat="59.4889400" lon="31.0160161">
<ele>56.680000</ele>
<time>2026-08-31T23:22:02.000Z</time>
</trkpt>
<trkpt lat="59.4889949" lon="31.0158541">
<ele>56.290001</ele>
<time>2026-08-31T23:22:17.000Z</time>
</trkpt>
<trkpt lat="59.4890147" lon="31.0157406">
<ele>56.410000</ele>
<time>2026-08-31T23:22:29.000Z</time>
</trkpt>
<trkpt lat="59.4890189" lon="31.0156779">
<ele>56.070000</ele>
<time>2026-08-31T23:22:34.000Z</time>
</trkpt>
<trkpt lat="59.4890266" lon="31.0155530">
<ele>56.039997</ele>
<time>2026-08-31T23:22:52.000Z</time>
</trkpt>
<trkpt lat="59.4890345" lon="31.0153945">
<ele>56.080002</ele>
<time>2026-08-31T23:23:04.000Z</time>
</trkpt>
<trkpt lat="59.4890650" lon="31.0154461">
<ele>55.959999</ele>
<time>2026-08-31T23:23:51.000Z</time>
</trkpt>
<trkpt lat="59.4890711" lon="31.0154530">
<ele>56.200001</ele>
<time>2026-08-31T23:24:28.000Z</time>
</trkpt>
<trkpt lat="59.4890536" lon="31.0154743">
<ele>54.419998</ele>
<time>2026-08-31T23:24:41.000Z</time>
</trkpt>
<trkpt lat="59.4890374" lon="31.0154644">
<ele>56.700001</ele>
<time>2026-08-31T23:24:53.000Z</time>
</trkpt>
<trkpt lat="59.4890243" lon="31.0154680">
<ele>56.419998</ele>
<time>2026-08-31T23:25:11.000Z</time>
</trkpt>
<trkpt lat="59.4890665" lon="31.0154592">
<ele>56.290001</ele>
<time>2026-08-31T23:25:50.000Z</time>
</trkpt>
<trkpt lat="59.4890732" lon="31.0154808">
<ele>56.180000</ele>
<time>2026-08-31T23:26:44.000Z</time>
</trkpt>
<trkpt lat="59.4890344" lon="31.0154716">
<ele>56.489998</ele>
<time>2026-08-31T23:27:26.000Z</time>
</trkpt>
<trkpt lat="59.4890602" lon="31.0154613">
<ele>56.680000</ele>
<time>2026-08-31T23:27:47.000Z</time>
</trkpt>
<trkpt lat="59.4890996" lon="31.0155403">
<ele>56.789997</ele>
<time>2026-08-31T23:28:03.000Z</time>
</trkpt>
<trkpt lat="59.4891877" lon="31.0156451">
<ele>56.480000</ele>
<time>2026-08-31T23:28:19.000Z</time>
</trkpt>
<trkpt lat="59.4892839" lon="31.0157389">
<ele>57.200001</ele>
<time>2026-08-31T23:28:35.000Z</time>
</trkpt>
<trkpt lat="59.4893301" lon="31.0158870">
<ele>57.380001</ele>
<time>2026-08-31T23:28:48.000Z</time>
</trkpt>
<trkpt lat="59.4893757" lon="31.0160699">
<ele>57.399998</ele>
<time>2026-08-31T23:29:05.000Z</time>
</trkpt>
<trkpt lat="59.4894846" lon="31.0162278">
<ele>57.169998</ele>
<time>2026-08-31T23:29:23.000Z</time>
</trkpt>
<trkpt lat="59.4896045" lon="31.0162000">
<ele>57.369999</ele>
<time>2026-08-31T23:29:37.000Z</time>
</trkpt>
<trkpt lat="59.4896632" lon="31.0161279">
<ele>57.459999</ele>
<time>2026-08-31T23:29:55.000Z</time>
</trkpt>
<trkpt lat="59.4897128" lon="31.0160580">
<ele>57.670002</ele>
<time>2026-08-31T23:30:16.000Z</time>
</trkpt>
<trkpt lat="59.4897801" lon="31.0160580">
<ele>56.949997</ele>
<time>2026-08-31T23:30:36.000Z</time>
</trkpt>
<trkpt lat="59.4898510" lon="31.0161782">
<ele>57.230000</ele>
<time>2026-08-31T23:30:57.000Z</time>
</trkpt>
<trkpt lat="59.4898783" lon="31.0162208">
<ele>57.389999</ele>
<time>2026-08-31T23:31:36.000Z</time>
</trkpt>
<trkpt lat="59.4899636" lon="31.0162244">
<ele>56.559998</ele>
<time>2026-08-31T23:32:02.000Z</time>
</trkpt>
<trkpt lat="59.4900213" lon="31.0162683">
<ele>57.050003</ele>
<time>2026-08-31T23:32:15.000Z</time>
</trkpt>
<trkpt lat="59.4899968" lon="31.0162491">
<ele>56.869999</ele>
<time>2026-08-31T23:32:36.000Z</time>
</trkpt>
<trkpt lat="59.4900724" lon="31.0163429">
<ele>57.259998</ele>
<time>2026-08-31T23:32:52.000Z</time>
</trkpt>
<trkpt lat="59.4901009" lon="31.0164306">
<ele>57.350002</ele>
<time>2026-08-31T23:33:07.000Z</time>
</trkpt>
<trkpt lat="59.4900957" lon="31.0164324">
<ele>57.510002</ele>
<time>2026-08-31T23:33:51.000Z</time>
</trkpt>
<trkpt lat="59.4900921" lon="31.0164070">
<ele>57.570004</ele>
<time>2026-08-31T23:34:50.000Z</time>
</trkpt>
<trkpt lat="59.4901046" lon="31.0164513">
<ele>57.060001</ele>
<time>2026-08-31T23:35:36.000Z</time>
</trkpt>
<trkpt lat="59.4900743" lon="31.0164261">
<ele>57.880001</ele>
<time>2026-08-31T23:36:10.000Z</time>
</trkpt>
<trkpt lat="59.4900782" lon="31.0164300">
<ele>57.890003</ele>
<time>2026-08-31T23:36:17.000Z</time>
</trkpt>
<trkpt lat="59.4900627" lon="31.0165999">
<ele>57.570004</ele>
<time>2026-08-31T23:37:30.000Z</time>
</trkpt>
<trkpt lat="59.4900797" lon="31.0164769">
<ele>57.559998</ele>
<time>2026-08-31T23:37:45.000Z</time>
</trkpt>
<trkpt lat="59.4900844" lon="31.0164257">
<ele>58.160000</ele>
<time>2026-08-31T23:38:07.000Z</time>
</trkpt>
<trkpt lat="59.4900111" lon="31.0165639">
<ele>57.700001</ele>
<time>2026-08-31T23:38:20.000Z</time>
</trkpt>
<trkpt lat="59.4899966" lon="31.0167988">
<ele>57.500000</ele>
<time>2026-08-31T23:38:33.000Z</time>
</trkpt>
<trkpt lat="59.4899664" lon="31.0169220">
<ele>57.619999</ele>
<time>2026-08-31T23:38:45.000Z</time>
</trkpt>
<trkpt lat="59.4899283" lon="31.0170516">
<ele>57.410000</ele>
<time>2026-08-31T23:38:58.000Z</time>
</trkpt>
<trkpt lat="59.4899119" lon="31.0172246">
<ele>57.580002</ele>
<time>2026-08-31T23:39:12.000Z</time>
</trkpt>
<trkpt lat="59.4898673" lon="31.0174682">
<ele>57.680000</ele>
<time>2026-08-31T23:39:27.000Z</time>
</trkpt>
<trkpt lat="59.4898299" lon="31.0176434">
<ele>57.540001</ele>
<time>2026-08-31T23:39:43.000Z</time>
</trkpt>
<trkpt lat="59.4897845" lon="31.0178771">
<ele>57.629997</ele>
<time>2026-08-31T23:40:00.000Z</time>
</trkpt>
<trkpt lat="59.4897481" lon="31.0180197">
<ele>57.730003</ele>
<time>2026-08-31T23:40:16.000Z</time>
</trkpt>
<trkpt lat="59.4897303" lon="31.0182850">
<ele>57.619999</ele>
<time>2026-08-31T23:40:41.000Z</time>
</trkpt>
<trkpt lat="59.4896903" lon="31.0183479">
<ele>57.549999</ele>
<time>2026-08-31T23:41:12.000Z</time>
</trkpt>
<trkpt lat="59.4896789" lon="31.0183640">
<ele>57.529999</ele>
<time>2026-08-31T23:41:38.000Z</time>
</trkpt>
<trkpt lat="59.4896849" lon="31.0183564">
<ele>57.459999</ele>
<time>2026-08-31T23:42:04.000Z</time>
</trkpt>
<trkpt lat="59.4896592" lon="31.0183393">
<ele>57.389999</ele>
<time>2026-08-31T23:42:30.000Z</time>
</trkpt>
<trkpt lat="59.4896705" lon="31.0183636">
<ele>56.970001</ele>
<time>2026-08-31T23:42:57.000Z</time>
</trkpt>
<trkpt lat="59.4896744" lon="31.0183720">
<ele>56.760002</ele>
<time>2026-08-31T23:43:22.000Z</time>
</trkpt>
<trkpt lat="59.4896666" lon="31.0182925">
<ele>55.730000</ele>
<time>2026-08-31T23:43:56.000Z</time>
</trkpt>
<trkpt lat="59.4896473" lon="31.0182984">
<ele>56.649998</ele>
<time>2026-08-31T23:44:31.000Z</time>
</trkpt>
<trkpt lat="59.4896415" lon="31.0185040">
<ele>56.660004</ele>
<time>2026-08-31T23:44:50.000Z</time>
</trkpt>
<trkpt lat="59.4896414" lon="31.0186591">
<ele>56.630001</ele>
<time>2026-08-31T23:45:09.000Z</time>
</trkpt>
<trkpt lat="59.4896227" lon="31.0188526">
<ele>56.459999</ele>
<time>2026-08-31T23:45:26.000Z</time>
</trkpt>
<trkpt lat="59.4895751" lon="31.0189909">
<ele>56.399998</ele>
<time>2026-08-31T23:46:06.000Z</time>
</trkpt>
<trkpt lat="59.4895169" lon="31.0192437">
<ele>56.230000</ele>
<time>2026-08-31T23:46:26.000Z</time>
</trkpt>
<trkpt lat="59.4894831" lon="31.0194976">
<ele>56.689999</ele>
<time>2026-08-31T23:46:50.000Z</time>
</trkpt>
<trkpt lat="59.4894763" lon="31.0196782">
<ele>56.090000</ele>
<time>2026-08-31T23:47:12.000Z</time>
</trkpt>
<trkpt lat="59.4894118" lon="31.0199700">
<ele>56.590000</ele>
<time>2026-08-31T23:47:27.000Z</time>
</trkpt>
<trkpt lat="59.4893990" lon="31.0202379">
<ele>56.709999</ele>
<time>2026-08-31T23:47:47.000Z</time>
</trkpt>
<trkpt lat="59.4893823" lon="31.0203300">
<ele>57.020000</ele>
<time>2026-08-31T23:48:02.000Z</time>
</trkpt>
<trkpt lat="59.4892911" lon="31.0203989">
<ele>56.590000</ele>
<time>2026-08-31T23:48:33.000Z</time>
</trkpt>
<trkpt lat="59.4892446" lon="31.0204843">
<ele>56.559998</ele>
<time>2026-08-31T23:49:14.000Z</time>
</trkpt>
<trkpt lat="59.4892592" lon="31.0204517">
<ele>56.160000</ele>
<time>2026-08-31T23:50:06.000Z</time>
</trkpt>
<trkpt lat="59.4892843" lon="31.0204974">
<ele>55.820004</ele>
<time>2026-08-31T23:50:49.000Z</time>
</trkpt>
<trkpt lat="59.4892399" lon="31.0206771">
<ele>55.889999</ele>
<time>2026-08-31T23:51:05.000Z</time>
</trkpt>
<trkpt lat="59.4891924" lon="31.0208999">
<ele>55.559998</ele>
<time>2026-08-31T23:51:36.000Z</time>
</trkpt>
<trkpt lat="59.4891546" lon="31.0211490">
<ele>55.320000</ele>
<time>2026-08-31T23:51:54.000Z</time>
</trkpt>
<trkpt lat="59.4890937" lon="31.0213770">
<ele>55.320000</ele>
<time>2026-08-31T23:52:10.000Z</time>
</trkpt>
<trkpt lat="59.4890296" lon="31.0216078">
<ele>55.210003</ele>
<time>2026-08-31T23:52:32.000Z</time>
</trkpt>
<trkpt lat="59.4890043" lon="31.0218401">
<ele>54.879997</ele>
<time>2026-08-31T23:53:00.000Z</time>
</trkpt>
<trkpt lat="59.4889706" lon="31.0220582">
<ele>55.049999</ele>
<time>2026-08-31T23:53:18.000Z</time>
</trkpt>
<trkpt lat="59.4889420" lon="31.0222679">
<ele>54.720001</ele>
<time>2026-08-31T23:53:34.000Z</time>
</trkpt>
<trkpt lat="59.4888789" lon="31.0223694">
<ele>54.709999</ele>
<time>2026-08-31T23:54:01.000Z</time>
</trkpt>
<trkpt lat="59.4889023" lon="31.0224874">
<ele>54.589996</ele>
<time>2026-08-31T23:54:25.000Z</time>
</trkpt>
<trkpt lat="59.4889020" lon="31.0224540">
<ele>54.700001</ele>
<time>2026-08-31T23:54:59.000Z</time>
</trkpt>
<trkpt lat="59.4888881" lon="31.0224117">
<ele>54.620003</ele>
<time>2026-08-31T23:55:40.000Z</time>
</trkpt>
<trkpt lat="59.4888997" lon="31.0224050">
<ele>54.770000</ele>
<time>2026-08-31T23:56:17.000Z</time>
</trkpt>
<trkpt lat="59.4888897" lon="31.0226388">
<ele>54.770000</ele>
<time>2026-08-31T23:57:04.000Z</time>
</trkpt>
<trkpt lat="59.4888555" lon="31.0227637">
<ele>54.750004</ele>
<time>2026-08-31T23:57:10.000Z</time>
</trkpt>
<trkpt lat="59.4887975" lon="31.0229071">
<ele>54.939999</ele>
<time>2026-08-31T23:57:23.000Z</time>
</trkpt>
<trkpt lat="59.4887668" lon="31.0230329">
<ele>54.950001</ele>
<time>2026-08-31T23:57:37.000Z</time>
</trkpt>
<trkpt lat="59.4887634" lon="31.0231848">
<ele>54.750004</ele>
<time>2026-08-31T23:57:50.000Z</time>
</trkpt>
<trkpt lat="59.4887433" lon="31.0233707">
<ele>54.939999</ele>
<time>2026-08-31T23:58:04.000Z</time>
</trkpt>
<trkpt lat="59.4886904" lon="31.0235441">
<ele>54.939999</ele>
<time>2026-08-31T23:58:29.000Z</time>
</trkpt>
<trkpt lat="59.4886136" lon="31.0237372">
<ele>54.830002</ele>
<time>2026-08-31T23:58:46.000Z</time>
</trkpt>
<trkpt lat="59.4885904" lon="31.0239790">
<ele>54.860001</ele>
<time>2026-08-31T23:58:58.000Z</time>
</trkpt>
<trkpt lat="59.4885739" lon="31.0240333">
<ele>54.530003</ele>
<time>2026-08-31T23:59:15.000Z</time>
</trkpt>
<trkpt lat="59.4885820" lon="31.0240857">
<ele>54.259998</ele>
<time>2026-08-31T23:59:46.000Z</time>
</trkpt>
<trkpt lat="59.4885846" lon="31.0240929">
<ele>53.480000</ele>
<time>2026-09-01T00:00:24.000Z</time>
</trkpt>
<trkpt lat="59.4885939" lon="31.0241115">
<ele>53.980000</ele>
<time>2026-09-01T00:01:26.000Z</time>
</trkpt>
<trkpt lat="59.4885614" lon="31.0242352">
<ele>53.969997</ele>
<time>2026-09-01T00:01:47.000Z</time>
</trkpt>
<trkpt lat="59.4885607" lon="31.0243358">
<ele>53.980000</ele>
<time>2026-09-01T00:02:04.000Z</time>
</trkpt>
<trkpt lat="59.4885314" lon="31.0245284">
<ele>54.320000</ele>
<time>2026-09-01T00:02:19.000Z</time>
</trkpt>
<trkpt lat="59.4884169" lon="31.0248285">
<ele>54.209999</ele>
<time>2026-09-01T00:02:40.000Z</time>
</trkpt>
<trkpt lat="59.4883681" lon="31.0249664">
<ele>53.579998</ele>
<time>2026-09-01T00:02:53.000Z</time>
</trkpt>
<trkpt lat="59.4883535" lon="31.0251470">
<ele>54.119999</ele>
<time>2026-09-01T00:03:13.000Z</time>
</trkpt>
<trkpt lat="59.4883138" lon="31.0253620">
<ele>53.809998</ele>
<time>2026-09-01T00:03:33.000Z</time>
</trkpt>
<trkpt lat="59.4882707" lon="31.0255613">
<ele>54.040001</ele>
<time>2026-09-01T00:03:54.000Z</time>
</trkpt>
<trkpt lat="59.4882698" lon="31.0256562">
<ele>53.969997</ele>
<time>2026-09-01T00:04:09.000Z</time>
</trkpt>
<trkpt lat="59.4882283" lon="31.0257835">
<ele>54.470001</ele>
<time>2026-09-01T00:04:22.000Z</time>
</trkpt>
<trkpt lat="59.4882060" lon="31.0258934">
<ele>54.349998</ele>
<time>2026-09-01T00:04:36.000Z</time>
</trkpt>
<trkpt lat="59.4881997" lon="31.0259316">
<ele>54.439999</ele>
<time>2026-09-01T00:05:22.000Z</time>
</trkpt>
<trkpt lat="59.4882525" lon="31.0258632">
<ele>53.579998</ele>
<time>2026-09-01T00:05:59.000Z</time>
</trkpt>
<trkpt lat="59.4882279" lon="31.0259474">
<ele>54.010002</ele>
<time>2026-09-01T00:07:03.000Z</time>
</trkpt>
<trkpt lat="59.4882111" lon="31.0259914">
<ele>53.980000</ele>
<time>2026-09-01T00:07:05.000Z</time>
</trkpt>
<trkpt lat="59.4882081" lon="31.0261564">
<ele>54.070004</ele>
<time>2026-09-01T00:07:19.000Z</time>
</trkpt>
<trkpt lat="59.4881347" lon="31.0263100">
<ele>54.189999</ele>
<time>2026-09-01T00:07:37.000Z</time>
</trkpt>
<trkpt lat="59.4881003" lon="31.0265001">
<ele>54.160000</ele>
<time>2026-09-01T00:08:02.000Z</time>
</trkpt>
<trkpt lat="59.4880642" lon="31.0266581">
<ele>53.980000</ele>
<time>2026-09-01T00:08:15.000Z</time>
</trkpt>
<trkpt lat="59.4880439" lon="31.0268113">
<ele>53.959999</ele>
<time>2026-09-01T00:08:34.000Z</time>
</trkpt>
<trkpt lat="59.4880284" lon="31.0269203">
<ele>53.980000</ele>
<time>2026-09-01T00:08:56.000Z</time>
</trkpt>
<trkpt lat="59.4880261" lon="31.0270533">
<ele>54.020000</ele>
<time>2026-09-01T00:09:09.000Z</time>
</trkpt>
<trkpt lat="59.4880097" lon="31.0271077">
<ele>53.690002</ele>
<time>2026-09-01T00:09:23.000Z</time>
</trkpt>
<trkpt lat="59.4879429" lon="31.0272693">
<ele>54.170002</ele>
<time>2026-09-01T00:09:41.000Z</time>
</trkpt>
<trkpt lat="59.4878989" lon="31.0274238">
<ele>54.439999</ele>
<time>2026-09-01T00:09:58.000Z</time>
</trkpt>
<trkpt lat="59.4879065" lon="31.0274264">
<ele>54.199997</ele>
<time>2026-09-01T00:10:29.000Z</time>
</trkpt>
<trkpt lat="59.4878880" lon="31.0274454">
<ele>53.829998</ele>
<time>2026-09-01T00:11:22.000Z</time>
</trkpt>
<trkpt lat="59.4878687" lon="31.0273900">
<ele>53.500000</ele>
<time>2026-09-01T00:12:16.000Z</time>
</trkpt>
<trkpt lat="59.4878956" lon="31.0275327">
<ele>53.150002</ele>
<time>2026-09-01T00:12:44.000Z</time>
</trkpt>
<trkpt lat="59.4878776" lon="31.0276612">
<ele>53.460003</ele>
<time>2026-09-01T00:12:58.000Z</time>
</trkpt>
<trkpt lat="59.4878262" lon="31.0278992">
<ele>52.860001</ele>
<time>2026-09-01T00:13:16.000Z</time>
</trkpt>
<trkpt lat="59.4878127" lon="31.0280297">
<ele>53.230003</ele>
<time>2026-09-01T00:13:30.000Z</time>
</trkpt>
<trkpt lat="59.4878050" lon="31.0281624">
<ele>52.820000</ele>
<time>2026-09-01T00:13:43.000Z</time>
</trkpt>
<trkpt lat="59.4877906" lon="31.0282829">
<ele>53.320000</ele>
<time>2026-09-01T00:13:56.000Z</time>
</trkpt>
<trkpt lat="59.4877436" lon="31.0284903">
<ele>51.870003</ele>
<time>2026-09-01T00:14:14.000Z</time>
</trkpt>
<trkpt lat="59.4877175" lon="31.0285732">
<ele>53.289997</ele>
<time>2026-09-01T00:14:19.000Z</time>
</trkpt>
<trkpt lat="59.4876621" lon="31.0287575">
<ele>53.150002</ele>
<time>2026-09-01T00:14:35.000Z</time>
</trkpt>
<trkpt lat="59.4876247" lon="31.0288626">
<ele>52.989998</ele>
<time>2026-09-01T00:14:50.000Z</time>
</trkpt>
<trkpt lat="59.4875970" lon="31.0290373">
<ele>53.509998</ele>
<time>2026-09-01T00:15:04.000Z</time>
</trkpt>
<trkpt lat="59.4875767" lon="31.0290478">
<ele>53.090000</ele>
<time>2026-09-01T00:15:26.000Z</time>
</trkpt>
<trkpt lat="59.4876068" lon="31.0290601">
<ele>53.219997</ele>
<time>2026-09-01T00:15:52.000Z</time>
</trkpt>
<trkpt lat="59.4875946" lon="31.0290304">
<ele>53.690002</ele>
<time>2026-09-01T00:16:32.000Z</time>
</trkpt>
<trkpt lat="59.4876190" lon="31.0290264">
<ele>53.230003</ele>
<time>2026-09-01T00:17:22.000Z</time>
</trkpt>
<trkpt lat="59.4876212" lon="31.0290284">
<ele>53.160000</ele>
<time>2026-09-01T00:17:36.000Z</time>
</trkpt>
<trkpt lat="59.4876014" lon="31.0290558">
<ele>52.889999</ele>
<time>2026-09-01T00:17:53.000Z</time>
</trkpt>
<trkpt lat="59.4875767" lon="31.0292858">
<ele>52.730000</ele>
<time>2026-09-01T00:18:19.000Z</time>
</trkpt>
<trkpt lat="59.4875263" lon="31.0294266">
<ele>52.680000</ele>
<time>2026-09-01T00:18:32.000Z</time>
</trkpt>
<trkpt lat="59.4874978" lon="31.0295994">
<ele>52.820000</ele>
<time>2026-09-01T00:18:46.000Z</time>
</trkpt>
<trkpt lat="59.4874784" lon="31.0297595">
<ele>52.869999</ele>
<time>2026-09-01T00:18:59.000Z</time>
</trkpt>
<trkpt lat="59.4874585" lon="31.0298530">
<ele>51.360001</ele>
<time>2026-09-01T00:19:06.000Z</time>
</trkpt>
<trkpt lat="59.4874539" lon="31.0298721">
<ele>51.360001</ele>
<time>2026-09-01T00:19:07.000Z</time>
</trkpt>
<trkpt lat="59.4874684" lon="31.0299035">
<ele>52.860001</ele>
<time>2026-09-01T00:19:11.000Z</time>
</trkpt>
<trkpt lat="59.4874485" lon="31.0299842">
<ele>52.689999</ele>
<time>2026-09-01T00:19:19.000Z</time>
</trkpt>
<trkpt lat="59.4873736" lon="31.0301413">
<ele>51.689999</ele>
<time>2026-09-01T00:19:31.000Z</time>
</trkpt>
<trkpt lat="59.4873573" lon="31.0303178">
<ele>52.650002</ele>
<time>2026-09-01T00:19:46.000Z</time>
</trkpt>
<trkpt lat="59.4873567" lon="31.0304613">
<ele>52.820000</ele>
<time>2026-09-01T00:20:05.000Z</time>
</trkpt>
<trkpt lat="59.4873161" lon="31.0306483">
<ele>53.029999</ele>
<time>2026-09-01T00:20:22.000Z</time>
</trkpt>
<trkpt lat="59.4873006" lon="31.0307307">
<ele>53.090000</ele>
<time>2026-09-01T00:20:34.000Z</time>
</trkpt>
<trkpt lat="59.4872493" lon="31.0308473">
<ele>52.420002</ele>
<time>2026-09-01T00:20:46.000Z</time>
</trkpt>
<trkpt lat="59.4872406" lon="31.0309399">
<ele>53.000004</ele>
<time>2026-09-01T00:20:58.000Z</time>
</trkpt>
<trkpt lat="59.4872157" lon="31.0310202">
<ele>51.040001</ele>
<time>2026-09-01T00:21:03.000Z</time>
</trkpt>
<trkpt lat="59.4871988" lon="31.0310855">
<ele>53.340000</ele>
<time>2026-09-01T00:21:12.000Z</time>
</trkpt>
<trkpt lat="59.4872196" lon="31.0311005">
<ele>52.860001</ele>
<time>2026-09-01T00:21:51.000Z</time>
</trkpt>
<trkpt lat="59.4871766" lon="31.0310454">
<ele>52.869999</ele>
<time>2026-09-01T00:22:19.000Z</time>
</trkpt>
<trkpt lat="59.4871698" lon="31.0310486">
<ele>53.660000</ele>
<time>2026-09-01T00:22:32.000Z</time>
</trkpt>
<trkpt lat="59.4871498" lon="31.0310602">
<ele>52.899998</ele>
<time>2026-09-01T00:23:15.000Z</time>
</trkpt>
<trkpt lat="59.4871509" lon="31.0310507">
<ele>52.869999</ele>
<time>2026-09-01T00:23:49.000Z</time>
</trkpt>
<trkpt lat="59.4871541" lon="31.0310580">
<ele>52.689999</ele>
<time>2026-09-01T00:24:25.000Z</time>
</trkpt>
<trkpt lat="59.4872042" lon="31.0308907">
<ele>52.959999</ele>
<time>2026-09-01T00:24:38.000Z</time>
</trkpt>
<trkpt lat="59.4871879" lon="31.0308512">
<ele>52.880001</ele>
<time>2026-09-01T00:25:10.000Z</time>
</trkpt>
<trkpt lat="59.4871836" lon="31.0308424">
<ele>52.400002</ele>
<time>2026-09-01T00:25:40.000Z</time>
</trkpt>
<trkpt lat="59.4871797" lon="31.0308596">
<ele>52.330002</ele>
<time>2026-09-01T00:26:02.000Z</time>
</trkpt>
<trkpt lat="59.4871509" lon="31.0309820">
<ele>52.639999</ele>
<time>2026-09-01T00:26:26.000Z</time>
</trkpt>
<trkpt lat="59.4871457" lon="31.0309793">
<ele>52.379997</ele>
<time>2026-09-01T00:26:35.000Z</time>
</trkpt>
<trkpt lat="59.4871106" lon="31.0309548">
<ele>52.379997</ele>
<time>2026-09-01T00:26:48.000Z</time>
</trkpt>
<trkpt lat="59.4870945" lon="31.0309108">
<ele>52.730000</ele>
<time>2026-09-01T00:27:06.000Z</time>
</trkpt>
<trkpt lat="59.4869971" lon="31.0306712">
<ele>52.390003</ele>
<time>2026-09-01T00:27:35.000Z</time>
</trkpt>
<trkpt lat="59.4869964" lon="31.0306132">
<ele>52.540001</ele>
<time>2026-09-01T00:28:01.000Z</time>
</trkpt>
<trkpt lat="59.4869820" lon="31.0306061">
<ele>52.219997</ele>
<time>2026-09-01T00:28:06.000Z</time>
</trkpt>
<trkpt lat="59.4868953" lon="31.0305758">
<ele>53.360001</ele>
<time>2026-09-01T00:28:19.000Z</time>
</trkpt>
<trkpt lat="59.4868089" lon="31.0304786">
<ele>52.250000</ele>
<time>2026-09-01T00:28:35.000Z</time>
</trkpt>
<trkpt lat="59.4867369" lon="31.0303728">
<ele>52.459999</ele>
<time>2026-09-01T00:29:02.000Z</time>
</trkpt>
<trkpt lat="59.4866639" lon="31.0303561">
<ele>52.540001</ele>
<time>2026-09-01T00:29:40.000Z</time>
</trkpt>
<trkpt lat="59.4866552" lon="31.0303735">
<ele>52.529999</ele>
<time>2026-09-01T00:30:03.000Z</time>
</trkpt>
<trkpt lat="59.4866416" lon="31.0303644">
<ele>52.400002</ele>
<time>2026-09-01T00:30:53.000Z</time>
</trkpt>
<trkpt lat="59.4866783" lon="31.0303282">
<ele>52.889999</ele>
<time>2026-09-01T00:31:47.000Z</time>
</trkpt>
<trkpt lat="59.4866734" lon="31.0303483">
<ele>49.410000</ele>
<time>2026-09-01T00:32:04.000Z</time>
</trkpt>
<trkpt lat="59.4866747" lon="31.0303515">
<ele>53.820000</ele>
<time>2026-09-01T00:32:05.000Z</time>
</trkpt>
<trkpt lat="59.4866808" lon="31.0303592">
<ele>48.680000</ele>
<time>2026-09-01T00:32:07.000Z</time>
</trkpt>
<trkpt lat="59.4866831" lon="31.0303639">
<ele>52.550003</ele>
<time>2026-09-01T00:32:08.000Z</time>
</trkpt>
<trkpt lat="59.4866712" lon="31.0303624">
<ele>52.829998</ele>
<time>2026-09-01T00:32:13.000Z</time>
</trkpt>
<trkpt lat="59.4866734" lon="31.0303943">
<ele>52.459999</ele>
<time>2026-09-01T00:32:39.000Z</time>
</trkpt>
<trkpt lat="59.4866813" lon="31.0303717">
<ele>52.899998</ele>
<time>2026-09-01T00:33:07.000Z</time>
</trkpt>
<trkpt lat="59.4866625" lon="31.0302827">
<ele>52.899998</ele>
<time>2026-09-01T00:33:37.000Z</time>
</trkpt>
<trkpt lat="59.4866530" lon="31.0300130">
<ele>53.529999</ele>
<time>2026-09-01T00:33:52.000Z</time>
</trkpt>
<trkpt lat="59.4866467" lon="31.0299790">
<ele>53.470001</ele>
<time>2026-09-01T00:34:12.000Z</time>
</trkpt>
<trkpt lat="59.4866496" lon="31.0298189">
<ele>53.470001</ele>
<time>2026-09-01T00:34:25.000Z</time>
</trkpt>
<trkpt lat="59.4866404" lon="31.0297550">
<ele>53.369999</ele>
<time>2026-09-01T00:34:37.000Z</time>
</trkpt>
<trkpt lat="59.4866012" lon="31.0296939">
<ele>53.500000</ele>
<time>2026-09-01T00:34:51.000Z</time>
</trkpt>
<trkpt lat="59.4865496" lon="31.0297345">
<ele>53.310001</ele>
<time>2026-09-01T00:35:06.000Z</time>
</trkpt>
<trkpt lat="59.4864500" lon="31.0296320">
<ele>53.419998</ele>
<time>2026-09-01T00:35:34.000Z</time>
</trkpt>
<trkpt lat="59.4863452" lon="31.0295527">
<ele>53.610001</ele>
<time>2026-09-01T00:35:46.000Z</time>
</trkpt>
<trkpt lat="59.4862783" lon="31.0294978">
<ele>53.990002</ele>
<time>2026-09-01T00:36:08.000Z</time>
</trkpt>
<trkpt lat="59.4862250" lon="31.0295283">
<ele>54.220001</ele>
<time>2026-09-01T00:36:22.000Z</time>
</trkpt>
<trkpt lat="59.4862034" lon="31.0294226">
<ele>53.969997</ele>
<time>2026-09-01T00:36:34.000Z</time>
</trkpt>
<trkpt lat="59.4861439" lon="31.0294803">
<ele>53.780003</ele>
<time>2026-09-01T00:37:26.000Z</time>
</trkpt>
<trkpt lat="59.4861649" lon="31.0294454">
<ele>54.000000</ele>
<time>2026-09-01T00:38:02.000Z</time>
</trkpt>
<trkpt lat="59.4861685" lon="31.0294696">
<ele>53.590000</ele>
<time>2026-09-01T00:38:47.000Z</time>
</trkpt>
<trkpt lat="59.4861603" lon="31.0294947">
<ele>54.799999</ele>
<time>2026-09-01T00:39:04.000Z</time>
</trkpt>
<trkpt lat="59.4861450" lon="31.0294160">
<ele>54.199997</ele>
<time>2026-09-01T00:40:09.000Z</time>
</trkpt>
<trkpt lat="59.4861863" lon="31.0293347">
<ele>54.189999</ele>
<time>2026-09-01T00:40:27.000Z</time>
</trkpt>
<trkpt lat="59.4862147" lon="31.0291927">
<ele>54.059998</ele>
<time>2026-09-01T00:40:38.000Z</time>
</trkpt>
<trkpt lat="59.4862312" lon="31.0290588">
<ele>54.330002</ele>
<time>2026-09-01T00:40:48.000Z</time>
</trkpt>
<trkpt lat="59.4862662" lon="31.0289332">
<ele>54.230003</ele>
<time>2026-09-01T00:41:00.000Z</time>
</trkpt>
<trkpt lat="59.4862954" lon="31.0287511">
<ele>54.389999</ele>
<time>2026-09-01T00:41:16.000Z</time>
</trkpt>
<trkpt lat="59.4863107" lon="31.0287213">
<ele>54.059998</ele>
<time>2026-09-01T00:41:35.000Z</time>
</trkpt>
<trkpt lat="59.4863522" lon="31.0287150">
<ele>53.860001</ele>
<time>2026-09-01T00:42:00.000Z</time>
</trkpt>
<trkpt lat="59.4863806" lon="31.0286331">
<ele>54.189999</ele>
<time>2026-09-01T00:42:22.000Z</time>
</trkpt>
<trkpt lat="59.4863287" lon="31.0286783">
<ele>54.439999</ele>
<time>2026-09-01T00:42:54.000Z</time>
</trkpt>
<trkpt lat="59.4863622" lon="31.0286292">
<ele>54.359997</ele>
<time>2026-09-01T00:43:32.000Z</time>
</trkpt>
<trkpt lat="59.4863230" lon="31.0285545">
<ele>55.070000</ele>
<time>2026-09-01T00:43:52.000Z</time>
</trkpt>
<trkpt lat="59.4863117" lon="31.0285120">
<ele>54.840000</ele>
<time>2026-09-01T00:44:02.000Z</time>
</trkpt>
<trkpt lat="59.4863199" lon="31.0284414">
<ele>54.279999</ele>
<time>2026-09-01T00:44:17.000Z</time>
</trkpt>
<trkpt lat="59.4863067" lon="31.0281934">
<ele>54.250000</ele>
<time>2026-09-01T00:44:35.000Z</time>
</trkpt>
<trkpt lat="59.4863236" lon="31.0280200">
<ele>54.080002</ele>
<time>2026-09-01T00:44:57.000Z</time>
</trkpt>
<trkpt lat="59.4863186" lon="31.0278961">
<ele>54.310001</ele>
<time>2026-09-01T00:45:14.000Z</time>
</trkpt>
<trkpt lat="59.4863122" lon="31.0278073">
<ele>54.110001</ele>
<time>2026-09-01T00:45:29.000Z</time>
</trkpt>
<trkpt lat="59.4862936" lon="31.0277552">
<ele>54.310001</ele>
<time>2026-09-01T00:45:54.000Z</time>
</trkpt>
<trkpt lat="59.4863600" lon="31.0278201">
<ele>54.199997</ele>
<time>2026-09-01T00:46:14.000Z</time>
</trkpt>
<trkpt lat="59.4864003" lon="31.0277276">
<ele>54.000000</ele>
<time>2026-09-01T00:46:29.000Z</time>
</trkpt>
<trkpt lat="59.4864440" lon="31.0276672">
<ele>54.230003</ele>
<time>2026-09-01T00:47:01.000Z</time>
</trkpt>
<trkpt lat="59.4864873" lon="31.0277151">
<ele>53.690002</ele>
<time>2026-09-01T00:47:19.000Z</time>
</trkpt>
<trkpt lat="59.4864897" lon="31.0277138">
<ele>55.509998</ele>
<time>2026-09-01T00:47:21.000Z</time>
</trkpt>
<trkpt lat="59.4864940" lon="31.0277115">
<ele>54.579998</ele>
<time>2026-09-01T00:47:23.000Z</time>
</trkpt>
<trkpt lat="59.4865653" lon="31.0277087">
<ele>54.450001</ele>
<time>2026-09-01T00:47:46.000Z</time>
</trkpt>
<trkpt lat="59.4865571" lon="31.0276243">
<ele>54.340000</ele>
<time>2026-09-01T00:48:12.000Z</time>
</trkpt>
<trkpt lat="59.4865347" lon="31.0276111">
<ele>54.189999</ele>
<time>2026-09-01T00:48:45.000Z</time>
</trkpt>
<trkpt lat="59.4865717" lon="31.0276198">
<ele>54.180000</ele>
<time>2026-09-01T00:49:17.000Z</time>
</trkpt>
<trkpt lat="59.4865977" lon="31.0276749">
<ele>54.160000</ele>
<time>2026-09-01T00:49:39.000Z</time>
</trkpt>
<trkpt lat="59.4865855" lon="31.0276108">
<ele>54.270000</ele>
<time>2026-09-01T00:50:28.000Z</time>
</trkpt>
<trkpt lat="59.4865770" lon="31.0276159">
<ele>54.150002</ele>
<time>2026-09-01T00:51:35.000Z</time>
</trkpt>
<trkpt lat="59.4865608" lon="31.0276598">
<ele>53.400002</ele>
<time>2026-09-01T00:51:59.000Z</time>
</trkpt>
<trkpt lat="59.4865511" lon="31.0276407">
<ele>54.110001</ele>
<time>2026-09-01T00:52:22.000Z</time>
</trkpt>
<trkpt lat="59.4865577" lon="31.0275662">
<ele>54.099998</ele>
<time>2026-09-01T00:52:33.000Z</time>
</trkpt>
<trkpt lat="59.4865503" lon="31.0274087">
<ele>53.709999</ele>
<time>2026-09-01T00:52:49.000Z</time>
</trkpt>
<trkpt lat="59.4865821" lon="31.0272545">
<ele>54.279999</ele>
<time>2026-09-01T00:53:03.000Z</time>
</trkpt>
<trkpt lat="59.4866509" lon="31.0271029">
<ele>52.400002</ele>
<time>2026-09-01T00:53:17.000Z</time>
</trkpt>
<trkpt lat="59.4866758" lon="31.0270233">
<ele>53.760002</ele>
<time>2026-09-01T00:53:23.000Z</time>
</trkpt>
<trkpt lat="59.4866907" lon="31.0268985">
<ele>53.809998</ele>
<time>2026-09-01T00:53:42.000Z</time>
</trkpt>
<trkpt lat="59.4867307" lon="31.0268093">
<ele>53.790001</ele>
<time>2026-09-01T00:53:58.000Z</time>
</trkpt>
<trkpt lat="59.4867354" lon="31.0266611">
<ele>52.669998</ele>
<time>2026-09-01T00:54:15.000Z</time>
</trkpt>
<trkpt lat="59.4867426" lon="31.0265828">
<ele>53.909996</ele>
<time>2026-09-01T00:54:29.000Z</time>
</trkpt>
<trkpt lat="59.4867804" lon="31.0265404">
<ele>53.750000</ele>
<time>2026-09-01T00:54:42.000Z</time>
</trkpt>
<trkpt lat="59.4868059" lon="31.0266120">
<ele>53.419998</ele>
<time>2026-09-01T00:55:01.000Z</time>
</trkpt>
<trkpt lat="59.4867928" lon="31.0265195">
<ele>53.480000</ele>
<time>2026-09-01T00:55:23.000Z</time>
</trkpt>
<trkpt lat="59.4867965" lon="31.0264928">
<ele>53.230003</ele>
<time>2026-09-01T00:55:50.000Z</time>
</trkpt>
<trkpt lat="59.4868187" lon="31.0264741">
<ele>53.160000</ele>
<time>2026-09-01T00:56:06.000Z</time>
</trkpt>
<trkpt lat="59.4868341" lon="31.0263824">
<ele>53.189999</ele>
<time>2026-09-01T00:56:29.000Z</time>
</trkpt>
<trkpt lat="59.4868581" lon="31.0262897">
<ele>52.270000</ele>
<time>2026-09-01T00:56:36.000Z</time>
</trkpt>
<trkpt lat="59.4868804" lon="31.0262033">
<ele>53.790001</ele>
<time>2026-09-01T00:56:46.000Z</time>
</trkpt>
<trkpt lat="59.4869197" lon="31.0260680">
<ele>52.850002</ele>
<time>2026-09-01T00:57:09.000Z</time>
</trkpt>
<trkpt lat="59.4869495" lon="31.0260530">
<ele>53.090000</ele>
<time>2026-09-01T00:57:37.000Z</time>
</trkpt>
<trkpt lat="59.4869381" lon="31.0260417">
<ele>53.299999</ele>
<time>2026-09-01T00:58:05.000Z</time>
</trkpt>
<trkpt lat="59.4869063" lon="31.0260546">
<ele>53.340000</ele>
<time>2026-09-01T00:58:49.000Z</time>
</trkpt>
<trkpt lat="59.4869219" lon="31.0260321">
<ele>54.059998</ele>
<time>2026-09-01T00:59:15.000Z</time>
</trkpt>
<trkpt lat="59.4869399" lon="31.0260107">
<ele>53.599998</ele>
<time>2026-09-01T00:59:39.000Z</time>
</trkpt>
<trkpt lat="59.4869407" lon="31.0260587">
<ele>53.369999</ele>
<time>2026-09-01T01:00:06.000Z</time>
</trkpt>
<trkpt lat="59.4869011" lon="31.0261256">
<ele>53.720001</ele>
<time>2026-09-01T01:00:35.000Z</time>
</trkpt>
<trkpt lat="59.4868468" lon="31.0260975">
<ele>53.739998</ele>
<time>2026-09-01T01:00:49.000Z</time>
</trkpt>
<trkpt lat="59.4868395" lon="31.0261136">
<ele>53.660000</ele>
<time>2026-09-01T01:00:51.000Z</time>
</trkpt>
<trkpt lat="59.4867515" lon="31.0262175">
<ele>53.330002</ele>
<time>2026-09-01T01:01:06.000Z</time>
</trkpt>
<trkpt lat="59.4867411" lon="31.0261485">
<ele>53.380001</ele>
<time>2026-09-01T01:01:25.000Z</time>
</trkpt>
<trkpt lat="59.4867570" lon="31.0262458">
<ele>54.439999</ele>
<time>2026-09-01T01:01:38.000Z</time>
</trkpt>
<trkpt lat="59.4868245" lon="31.0263762">
<ele>53.750000</ele>
<time>2026-09-01T01:01:55.000Z</time>
</trkpt>
<trkpt lat="59.4868626" lon="31.0264498">
<ele>53.570000</ele>
<time>2026-09-01T01:02:12.000Z</time>
</trkpt>
<trkpt lat="59.4868529" lon="31.0265135">
<ele>53.690002</ele>
<time>2026-09-01T01:02:31.000Z</time>
</trkpt>
<trkpt lat="59.4868347" lon="31.0264857">
<ele>53.540001</ele>
<time>2026-09-01T01:02:50.000Z</time>
</trkpt>
<trkpt lat="59.4868360" lon="31.0264348">
<ele>53.470001</ele>
<time>2026-09-01T01:03:08.000Z</time>
</trkpt>
<trkpt lat="59.4866968" lon="31.0263009">
<ele>53.419998</ele>
<time>2026-09-01T01:03:25.000Z</time>
</trkpt>
<trkpt lat="59.4866862" lon="31.0264674">
<ele>53.669998</ele>
<time>2026-09-01T01:03:38.000Z</time>
</trkpt>
<trkpt lat="59.4866146" lon="31.0264518">
<ele>53.449997</ele>
<time>2026-09-01T01:03:51.000Z</time>
</trkpt>
<trkpt lat="59.4865489" lon="31.0264356">
<ele>53.410000</ele>
<time>2026-09-01T01:04:06.000Z</time>
</trkpt>
<trkpt lat="59.4864749" lon="31.0264524">
<ele>53.809998</ele>
<time>2026-09-01T01:04:22.000Z</time>
</trkpt>
<trkpt lat="59.4864620" lon="31.0264627">
<ele>52.950001</ele>
<time>2026-09-01T01:04:35.000Z</time>
</trkpt>
<trkpt lat="59.4863719" lon="31.0264705">
<ele>53.160000</ele>
<time>2026-09-01T01:04:52.000Z</time>
</trkpt>
<trkpt lat="59.4862868" lon="31.0265555">
<ele>53.320000</ele>
<time>2026-09-01T01:05:08.000Z</time>
</trkpt>
<trkpt lat="59.4861941" lon="31.0266192">
<ele>53.480000</ele>
<time>2026-09-01T01:05:23.000Z</time>
</trkpt>
<trkpt lat="59.4861421" lon="31.0267067">
<ele>53.540001</ele>
<time>2026-09-01T01:05:40.000Z</time>
</trkpt>
<trkpt lat="59.4861190" lon="31.0267545">
<ele>53.709999</ele>
<time>2026-09-01T01:05:56.000Z</time>
</trkpt>
<trkpt lat="59.4860165" lon="31.0267529">
<ele>53.480000</ele>
<time>2026-09-01T01:06:08.000Z</time>
</trkpt>
<trkpt lat="59.4859416" lon="31.0268394">
<ele>53.780003</ele>
<time>2026-09-01T01:06:29.000Z</time>
</trkpt>
<trkpt lat="59.4859064" lon="31.0267687">
<ele>53.560001</ele>
<time>2026-09-01T01:07:07.000Z</time>
</trkpt>
<trkpt lat="59.4859397" lon="31.0268093">
<ele>53.780003</ele>
<time>2026-09-01T01:07:50.000Z</time>
</trkpt>
<trkpt lat="59.4859292" lon="31.0268162">
<ele>53.860001</ele>
<time>2026-09-01T01:08:52.000Z</time>
</trkpt>
<trkpt lat="59.4859294" lon="31.0268194">
<ele>53.590000</ele>
<time>2026-09-01T01:09:17.000Z</time>
</trkpt>
<trkpt lat="59.4859589" lon="31.0270027">
<ele>53.419998</ele>
<time>2026-09-01T01:09:35.000Z</time>
</trkpt>
<trkpt lat="59.4859017" lon="31.0270067">
<ele>53.630001</ele>
<time>2026-09-01T01:09:51.000Z</time>
</trkpt>
<trkpt lat="59.4859053" lon="31.0269815">
<ele>53.829998</ele>
<time>2026-09-01T01:10:13.000Z</time>
</trkpt>
<trkpt lat="59.4858334" lon="31.0269368">
<ele>53.860001</ele>
<time>2026-09-01T01:10:27.000Z</time>
</trkpt>
<trkpt lat="59.4857113" lon="31.0269720">
<ele>54.049999</ele>
<time>2026-09-01T01:10:52.000Z</time>
</trkpt>
<trkpt lat="59.4856543" lon="31.0270149">
<ele>53.899998</ele>
<time>2026-09-01T01:11:38.000Z</time>
</trkpt>
<trkpt lat="59.4856529" lon="31.0270169">
<ele>53.930000</ele>
<time>2026-09-01T01:11:39.000Z</time>
</trkpt>
<trkpt lat="59.4856059" lon="31.0271093">
<ele>53.790001</ele>
<time>2026-09-01T01:11:54.000Z</time>
</trkpt>
<trkpt lat="59.4855475" lon="31.0272299">
<ele>53.760002</ele>
<time>2026-09-01T01:12:06.000Z</time>
</trkpt>
<trkpt lat="59.4854804" lon="31.0271655">
<ele>54.500000</ele>
<time>2026-09-01T01:12:17.000Z</time>
</trkpt>
<trkpt lat="59.4854688" lon="31.0271781">
<ele>53.620003</ele>
<time>2026-09-01T01:12:33.000Z</time>
</trkpt>
<trkpt lat="59.4854098" lon="31.0272880">
<ele>53.549999</ele>
<time>2026-09-01T01:12:59.000Z</time>
</trkpt>
<trkpt lat="59.4853379" lon="31.0272770">
<ele>53.470001</ele>
<time>2026-09-01T01:13:14.000Z</time>
</trkpt>
<trkpt lat="59.4853131" lon="31.0273311">
<ele>53.750000</ele>
<time>2026-09-01T01:13:29.000Z</time>
</trkpt>
<trkpt lat="59.4852346" lon="31.0273657">
<ele>53.790001</ele>
<time>2026-09-01T01:13:43.000Z</time>
</trkpt>
<trkpt lat="59.4851782" lon="31.0274449">
<ele>54.180000</ele>
<time>2026-09-01T01:14:01.000Z</time>
</trkpt>
<trkpt lat="59.4852503" lon="31.0276020">
<ele>54.300003</ele>
<time>2026-09-01T01:14:28.000Z</time>
</trkpt>
<trkpt lat="59.4853374" lon="31.0277557">
<ele>54.049999</ele>
<time>2026-09-01T01:14:57.000Z</time>
</trkpt>
<trkpt lat="59.4854222" lon="31.0278744">
<ele>54.180000</ele>
<time>2026-09-01T01:15:14.000Z</time>
</trkpt>
<trkpt lat="59.4854032" lon="31.0279518">
<ele>54.090000</ele>
<time>2026-09-01T01:15:36.000Z</time>
</trkpt>
<trkpt lat="59.4853382" lon="31.0278983">
<ele>54.489998</ele>
<time>2026-09-01T01:16:07.000Z</time>
</trkpt>
<trkpt lat="59.4852760" lon="31.0277474">
<ele>54.430000</ele>
<time>2026-09-01T01:16:18.000Z</time>
</trkpt>
<trkpt lat="59.4851827" lon="31.0276398">
<ele>54.630001</ele>
<time>2026-09-01T01:16:34.000Z</time>
</trkpt>
<trkpt lat="59.4850706" lon="31.0274325">
<ele>54.540001</ele>
<time>2026-09-01T01:16:59.000Z</time>
</trkpt>
<trkpt lat="59.4850519" lon="31.0274562">
<ele>54.709999</ele>
<time>2026-09-01T01:17:18.000Z</time>
</trkpt>
<trkpt lat="59.4850405" lon="31.0275138">
<ele>54.739998</ele>
<time>2026-09-01T01:18:03.000Z</time>
</trkpt>
<trkpt lat="59.4850520" lon="31.0274623">
<ele>54.879997</ele>
<time>2026-09-01T01:18:46.000Z</time>
</trkpt>
<trkpt lat="59.4850297" lon="31.0274779">
<ele>54.760002</ele>
<time>2026-09-01T01:19:10.000Z</time>
</trkpt>
<trkpt lat="59.4849833" lon="31.0276204">
<ele>54.860001</ele>
<time>2026-09-01T01:19:25.000Z</time>
</trkpt>
<trkpt lat="59.4849354" lon="31.0277004">
<ele>55.060001</ele>
<time>2026-09-01T01:19:42.000Z</time>
</trkpt>
<trkpt lat="59.4848754" lon="31.0277120">
<ele>55.140003</ele>
<time>2026-09-01T01:19:58.000Z</time>
</trkpt>
<trkpt lat="59.4848191" lon="31.0277058">
<ele>54.959999</ele>
<time>2026-09-01T01:20:25.000Z</time>
</trkpt>
<trkpt lat="59.4847039" lon="31.0277475">
<ele>55.419998</ele>
<time>2026-09-01T01:20:47.000Z</time>
</trkpt>
<trkpt lat="59.4846202" lon="31.0278333">
<ele>55.470001</ele>
<time>2026-09-01T01:21:06.000Z</time>
</trkpt>
<trkpt lat="59.4845971" lon="31.0279628">
<ele>55.189999</ele>
<time>2026-09-01T01:21:28.000Z</time>
</trkpt>
<trkpt lat="59.4845427" lon="31.0279371">
<ele>55.199997</ele>
<time>2026-09-01T01:21:48.000Z</time>
</trkpt>
<trkpt lat="59.4844672" lon="31.0279950">
<ele>55.489998</ele>
<time>2026-09-01T01:22:04.000Z</time>
</trkpt>
<trkpt lat="59.4844456" lon="31.0279806">
<ele>54.899998</ele>
<time>2026-09-01T01:22:20.000Z</time>
</trkpt>
<trkpt lat="59.4844725" lon="31.0280241">
<ele>55.160000</ele>
<time>2026-09-01T01:22:56.000Z</time>
</trkpt>
<trkpt lat="59.4844603" lon="31.0280193">
<ele>55.250000</ele>
<time>2026-09-01T01:23:40.000Z</time>
</trkpt>
<trkpt lat="59.4844613" lon="31.0280081">
<ele>55.080002</ele>
<time>2026-09-01T01:24:34.000Z</time>
</trkpt>
<trkpt lat="59.4844415" lon="31.0279747">
<ele>55.320000</ele>
<time>2026-09-01T01:25:18.000Z</time>
</trkpt>
<trkpt lat="59.4844354" lon="31.0279467">
<ele>55.579998</ele>
<time>2026-09-01T01:25:43.000Z</time>
</trkpt>
<trkpt lat="59.4844868" lon="31.0281029">
<ele>55.029999</ele>
<time>2026-09-01T01:26:10.000Z</time>
</trkpt>
<trkpt lat="59.4845282" lon="31.0283295">
<ele>55.559998</ele>
<time>2026-09-01T01:26:35.000Z</time>
</trkpt>
<trkpt lat="59.4846171" lon="31.0283100">
<ele>54.700001</ele>
<time>2026-09-01T01:27:02.000Z</time>
</trkpt>
<trkpt lat="59.4845919" lon="31.0282955">
<ele>55.509998</ele>
<time>2026-09-01T01:27:22.000Z</time>
</trkpt>
<trkpt lat="59.4846015" lon="31.0282966">
<ele>55.340000</ele>
<time>2026-09-01T01:27:46.000Z</time>
</trkpt>
<trkpt lat="59.4846870" lon="31.0285579">
<ele>55.279999</ele>
<time>2026-09-01T01:28:16.000Z</time>
</trkpt>
<trkpt lat="59.4846764" lon="31.0285457">
<ele>55.360001</ele>
<time>2026-09-01T01:28:33.000Z</time>
</trkpt>
<trkpt lat="59.4846818" lon="31.0282353">
<ele>55.169998</ele>
<time>2026-09-01T01:28:53.000Z</time>
</trkpt>
<trkpt lat="59.4846564" lon="31.0281178">
<ele>55.070000</ele>
<time>2026-09-01T01:29:07.000Z</time>
</trkpt>
<trkpt lat="59.4845784" lon="31.0280268">
<ele>55.189999</ele>
<time>2026-09-01T01:29:20.000Z</time>
</trkpt>
<trkpt lat="59.4845359" lon="31.0279944">
<ele>55.140003</ele>
<time>2026-09-01T01:29:37.000Z</time>
</trkpt>
<trkpt lat="59.4845840" lon="31.0278003">
<ele>55.450001</ele>
<time>2026-09-01T01:30:11.000Z</time>
</trkpt>
<trkpt lat="59.4845936" lon="31.0277599">
<ele>55.509998</ele>
<time>2026-09-01T01:30:38.000Z</time>
</trkpt>
<trkpt lat="59.4845737" lon="31.0277702">
<ele>55.459999</ele>
<time>2026-09-01T01:31:10.000Z</time>
</trkpt>
<trkpt lat="59.4844981" lon="31.0277454">
<ele>55.530003</ele>
<time>2026-09-01T01:31:33.000Z</time>
</trkpt>
<trkpt lat="59.4844287" lon="31.0277283">
<ele>55.639999</ele>
<time>2026-09-01T01:31:47.000Z</time>
</trkpt>
<trkpt lat="59.4843231" lon="31.0276444">
<ele>55.630001</ele>
<time>2026-09-01T01:32:05.000Z</time>
</trkpt>
<trkpt lat="59.4842629" lon="31.0275637">
<ele>55.269997</ele>
<time>2026-09-01T01:32:20.000Z</time>
</trkpt>
<trkpt lat="59.4842614" lon="31.0275582">
<ele>55.169998</ele>
<time>2026-09-01T01:32:21.000Z</time>
</trkpt>
<trkpt lat="59.4842135" lon="31.0274663">
<ele>55.459999</ele>
<time>2026-09-01T01:32:34.000Z</time>
</trkpt>
<trkpt lat="59.4841840" lon="31.0273164">
<ele>55.470001</ele>
<time>2026-09-01T01:32:52.000Z</time>
</trkpt>
<trkpt lat="59.4841089" lon="31.0272330">
<ele>56.459999</ele>
<time>2026-09-01T01:33:10.000Z</time>
</trkpt>
<trkpt lat="59.4840898" lon="31.0272041">
<ele>55.790001</ele>
<time>2026-09-01T01:33:13.000Z</time>
</trkpt>
<trkpt lat="59.4840501" lon="31.0270536">
<ele>55.579998</ele>
<time>2026-09-01T01:33:29.000Z</time>
</trkpt>
<trkpt lat="59.4839645" lon="31.0268317">
<ele>55.279999</ele>
<time>2026-09-01T01:33:56.000Z</time>
</trkpt>
<trkpt lat="59.4838927" lon="31.0266436">
<ele>55.570000</ele>
<time>2026-09-01T01:34:16.000Z</time>
</trkpt>
<trkpt lat="59.4837931" lon="31.0266352">
<ele>55.530003</ele>
<time>2026-09-01T01:34:31.000Z</time>
</trkpt>
<trkpt lat="59.4837676" lon="31.0266508">
<ele>55.770000</ele>
<time>2026-09-01T01:34:47.000Z</time>
</trkpt>
<trkpt lat="59.4837577" lon="31.0266832">
<ele>55.500000</ele>
<time>2026-09-01T01:35:04.000Z</time>
</trkpt>
<trkpt lat="59.4837463" lon="31.0266843">
<ele>55.129997</ele>
<time>2026-09-01T01:35:27.000Z</time>
</trkpt>
<trkpt lat="59.4837354" lon="31.0266392">
<ele>55.670002</ele>
<time>2026-09-01T01:35:59.000Z</time>
</trkpt>
<trkpt lat="59.4836622" lon="31.0264891">
<ele>55.930000</ele>
<time>2026-09-01T01:36:15.000Z</time>
</trkpt>
<trkpt lat="59.4836392" lon="31.0264079">
<ele>55.840000</ele>
<time>2026-09-01T01:36:27.000Z</time>
</trkpt>
<trkpt lat="59.4835997" lon="31.0263136">
<ele>55.790001</ele>
<time>2026-09-01T01:36:33.000Z</time>
</trkpt>
<trkpt lat="59.4835019" lon="31.0260914">
<ele>55.809998</ele>
<time>2026-09-01T01:36:47.000Z</time>
</trkpt>
<trkpt lat="59.4834075" lon="31.0259158">
<ele>55.659996</ele>
<time>2026-09-01T01:36:58.000Z</time>
</trkpt>
<trkpt lat="59.4833062" lon="31.0256770">
<ele>55.750000</ele>
<time>2026-09-01T01:37:11.000Z</time>
</trkpt>
<trkpt lat="59.4832996" lon="31.0256687">
<ele>55.820004</ele>
<time>2026-09-01T01:37:12.000Z</time>
</trkpt>
<trkpt lat="59.4832685" lon="31.0256086">
<ele>55.889999</ele>
<time>2026-09-01T01:37:16.000Z</time>
</trkpt>
<trkpt lat="59.4832557" lon="31.0255769">
<ele>55.750000</ele>
<time>2026-09-01T01:37:18.000Z</time>
</trkpt>
<trkpt lat="59.4832071" lon="31.0254602">
<ele>55.869999</ele>
<time>2026-09-01T01:37:25.000Z</time>
</trkpt>
<trkpt lat="59.4831757" lon="31.0254061">
<ele>55.939999</ele>
<time>2026-09-01T01:37:30.000Z</time>
</trkpt>
<trkpt lat="59.4830395" lon="31.0251211">
<ele>56.200001</ele>
<time>2026-09-01T01:37:47.000Z</time>
</trkpt>
<trkpt lat="59.4829616" lon="31.0249306">
<ele>55.739998</ele>
<time>2026-09-01T01:37:59.000Z</time>
</trkpt>
<trkpt lat="59.4829254" lon="31.0248428">
<ele>55.760002</ele>
<time>2026-09-01T01:38:05.000Z</time>
</trkpt>
<trkpt lat="59.4829102" lon="31.0248155">
<ele>55.840000</ele>
<time>2026-09-01T01:38:07.000Z</time>
</trkpt>
<trkpt lat="59.4828291" lon="31.0246223">
<ele>56.020000</ele>
<time>2026-09-01T01:38:18.000Z</time>
</trkpt>
<trkpt lat="59.4827269" lon="31.0244214">
<ele>55.840000</ele>
<time>2026-09-01T01:38:31.000Z</time>
</trkpt>
<trkpt lat="59.4826819" lon="31.0242992">
<ele>55.990002</ele>
<time>2026-09-01T01:38:40.000Z</time>
</trkpt>
<trkpt lat="59.4825509" lon="31.0240292">
<ele>55.900002</ele>
<time>2026-09-01T01:38:56.000Z</time>
</trkpt>
<trkpt lat="59.4825371" lon="31.0239932">
<ele>55.670002</ele>
<time>2026-09-01T01:38:58.000Z</time>
</trkpt>
<trkpt lat="59.4824482" lon="31.0237834">
<ele>55.630001</ele>
<time>2026-09-01T01:39:11.000Z</time>
</trkpt>
<trkpt lat="59.4823311" lon="31.0235801">
<ele>55.450001</ele>
<time>2026-09-01T01:39:29.000Z</time>
</trkpt>
<trkpt lat="59.4822287" lon="31.0233395">
<ele>55.340000</ele>
<time>2026-09-01T01:39:43.000Z</time>
</trkpt>
<trkpt lat="59.4822184" lon="31.0233294">
<ele>55.259998</ele>
<time>2026-09-01T01:39:44.000Z</time>
</trkpt>
<trkpt lat="59.4821960" lon="31.0233203">
<ele>55.250000</ele>
<time>2026-09-01T01:39:46.000Z</time>
</trkpt>
<trkpt lat="59.4821153" lon="31.0230920">
<ele>55.400002</ele>
<time>2026-09-01T01:40:00.000Z</time>
</trkpt>
<trkpt lat="59.4820187" lon="31.0228686">
<ele>55.199997</ele>
<time>2026-09-01T01:40:12.000Z</time>
</trkpt>
<trkpt lat="59.4819352" lon="31.0226398">
<ele>55.389999</ele>
<time>2026-09-01T01:40:24.000Z</time>
</trkpt>
<trkpt lat="59.4818978" lon="31.0225794">
<ele>55.410000</ele>
<time>2026-09-01T01:40:28.000Z</time>
</trkpt>
<trkpt lat="59.4818361" lon="31.0225041">
<ele>55.370003</ele>
<time>2026-09-01T01:40:34.000Z</time>
</trkpt>
<trkpt lat="59.4817310" lon="31.0222771">
<ele>55.400002</ele>
<time>2026-09-01T01:40:48.000Z</time>
</trkpt>
<trkpt lat="59.4816502" lon="31.0221087">
<ele>55.540001</ele>
<time>2026-09-01T01:40:59.000Z</time>
</trkpt>
<trkpt lat="59.4816325" lon="31.0220564">
<ele>55.549999</ele>
<time>2026-09-01T01:41:02.000Z</time>
</trkpt>
<trkpt lat="59.4815957" lon="31.0219695">
<ele>55.570000</ele>
<time>2026-09-01T01:41:06.000Z</time>
</trkpt>
<trkpt lat="59.4815641" lon="31.0219047">
<ele>55.680000</ele>
<time>2026-09-01T01:41:10.000Z</time>
</trkpt>
<trkpt lat="59.4815459" lon="31.0218585">
<ele>55.639999</ele>
<time>2026-09-01T01:41:13.000Z</time>
</trkpt>
<trkpt lat="59.4815315" lon="31.0218308">
<ele>55.700001</ele>
<time>2026-09-01T01:41:15.000Z</time>
</trkpt>
<trkpt lat="59.4815123" lon="31.0218105">
<ele>55.700001</ele>
<time>2026-09-01T01:41:17.000Z</time>
</trkpt>
<trkpt lat="59.4814878" lon="31.0217752">
<ele>55.779999</ele>
<time>2026-09-01T01:41:20.000Z</time>
</trkpt>
<trkpt lat="59.4814015" lon="31.0215961">
<ele>55.659996</ele>
<time>2026-09-01T01:41:34.000Z</time>
</trkpt>
<trkpt lat="59.4813824" lon="31.0215246">
<ele>55.509998</ele>
<time>2026-09-01T01:41:41.000Z</time>
</trkpt>
<trkpt lat="59.4813289" lon="31.0213918">
<ele>55.160000</ele>
<time>2026-09-01T01:41:53.000Z</time>
</trkpt>
<trkpt lat="59.4812707" lon="31.0212599">
<ele>55.709999</ele>
<time>2026-09-01T01:42:06.000Z</time>
</trkpt>
<trkpt lat="59.4811912" lon="31.0211314">
<ele>55.370003</ele>
<time>2026-09-01T01:42:19.000Z</time>
</trkpt>
<trkpt lat="59.4811765" lon="31.0211123">
<ele>55.440002</ele>
<time>2026-09-01T01:42:41.000Z</time>
</trkpt>
<trkpt lat="59.4811746" lon="31.0211064">
<ele>55.400002</ele>
<time>2026-09-01T01:42:46.000Z</time>
</trkpt>
<trkpt lat="59.4811605" lon="31.0210672">
<ele>55.610001</ele>
<time>2026-09-01T01:43:07.000Z</time>
</trkpt>
<trkpt lat="59.4811521" lon="31.0210566">
<ele>55.570000</ele>
<time>2026-09-01T01:43:09.000Z</time>
</trkpt>
<trkpt lat="59.4810832" lon="31.0210071">
<ele>55.450001</ele>
<time>2026-09-01T01:43:22.000Z</time>
</trkpt>
<trkpt lat="59.4810980" lon="31.0209768">
<ele>55.590004</ele>
<time>2026-09-01T01:43:43.000Z</time>
</trkpt>
<trkpt lat="59.4811150" lon="31.0209833">
<ele>56.020000</ele>
<time>2026-09-01T01:44:10.000Z</time>
</trkpt>
<trkpt lat="59.4811145" lon="31.0209869">
<ele>55.129997</ele>
<time>2026-09-01T01:45:07.000Z</time>
</trkpt>
<trkpt lat="59.4811190" lon="31.0209771">
<ele>55.600002</ele>
<time>2026-09-01T01:45:13.000Z</time>
</trkpt>
<trkpt lat="59.4811207" lon="31.0209750">
<ele>55.739998</ele>
<time>2026-09-01T01:45:20.000Z</time>
</trkpt>
<trkpt lat="59.4811311" lon="31.0209917">
<ele>54.160000</ele>
<time>2026-09-01T01:46:09.000Z</time>
</trkpt>
<trkpt lat="59.4811263" lon="31.0209766">
<ele>54.879997</ele>
<time>2026-09-01T01:47:39.000Z</time>
</trkpt>
<trkpt lat="59.4810725" lon="31.0209278">
<ele>50.480000</ele>
<time>2026-09-01T01:49:57.000Z</time>
</trkpt>
<trkpt lat="59.4810870" lon="31.0209820">
<ele>54.049999</ele>
<time>2026-09-01T01:50:03.000Z</time>
</trkpt>
<trkpt lat="59.4810868" lon="31.0209774">
<ele>54.129997</ele>
<time>2026-09-01T01:50:04.000Z</time>
</trkpt>
<trkpt lat="59.4810895" lon="31.0209904">
<ele>53.669998</ele>
<time>2026-09-01T01:50:07.000Z</time>
</trkpt>
<trkpt lat="59.4810922" lon="31.0210028">
<ele>52.700001</ele>
<time>2026-09-01T01:50:09.000Z</time>
</trkpt>
</trkseg>
<trkseg>
<trkpt lat="59.1097692" lon="31.2305385">
<ele>22.639999</ele>
<time>2026-08-27T21:44:27.000Z</time>
</trkpt>
<trkpt lat="59.1097854" lon="31.2305310">
<ele>23.990002</ele>
<time>2026-08-27T21:44:49.000Z</time>
</trkpt>
<trkpt lat="59.1097927" lon="31.2305428">
<ele>24.000000</ele>
<time>2026-08-27T21:44:53.000Z</time>
</trkpt>
<trkpt lat="59.1097832" lon="31.2305607">
<ele>24.859999</ele>
<time>2026-08-27T21:45:17.000Z</time>
</trkpt>
<trkpt lat="59.1097867" lon="31.2305483">
<ele>24.549999</ele>
<time>2026-08-27T21:45:40.000Z</time>
</trkpt>
<trkpt lat="59.1097555" lon="31.2304489">
<ele>24.439999</ele>
<time>2026-08-27T21:45:59.000Z</time>
</trkpt>
<trkpt lat="59.1097244" lon="31.2304042">
<ele>25.659998</ele>
<time>2026-08-27T21:46:23.000Z</time>
</trkpt>
<trkpt lat="59.1096994" lon="31.2304381">
<ele>28.879999</ele>
<time>2026-08-27T21:46:45.000Z</time>
</trkpt>
<trkpt lat="59.1097219" lon="31.2304190">
<ele>30.219999</ele>
<time>2026-08-27T21:47:08.000Z</time>
</trkpt>
<trkpt lat="59.1097085" lon="31.2304043">
<ele>30.410000</ele>
<time>2026-08-27T21:47:35.000Z</time>
</trkpt>
<trkpt lat="59.1097101" lon="31.2305556">
<ele>32.919998</ele>
<time>2026-08-27T21:47:59.000Z</time>
</trkpt>
<trkpt lat="59.1097404" lon="31.2305941">
<ele>38.649998</ele>
<time>2026-08-27T21:48:24.000Z</time>
</trkpt>
<trkpt lat="59.1097595" lon="31.2303948">
<ele>41.200001</ele>
<time>2026-08-27T21:48:52.000Z</time>
</trkpt>
<trkpt lat="59.1096558" lon="31.2304038">
<ele>41.480000</ele>
<time>2026-08-27T21:49:18.000Z</time>
</trkpt>
<trkpt lat="59.1096724" lon="31.2303955">
<ele>41.960003</ele>
<time>2026-08-27T21:49:42.000Z</time>
</trkpt>
<trkpt lat="59.1097047" lon="31.2304958">
<ele>42.350002</ele>
<time>2026-08-27T21:50:02.000Z</time>
</trkpt>
<trkpt lat="59.1097263" lon="31.2304871">
<ele>41.110001</ele>
<time>2026-08-27T21:50:24.000Z</time>
</trkpt>
<trkpt lat="59.1097111" lon="31.2305076">
<ele>40.000000</ele>
<time>2026-08-27T21:50:47.000Z</time>
</trkpt>
<trkpt lat="59.1097079" lon="31.2304776">
<ele>38.410000</ele>
<time>2026-08-27T21:51:10.000Z</time>
</trkpt>
<trkpt lat="59.1096590" lon="31.2304922">
<ele>35.970001</ele>
<time>2026-08-27T21:51:33.000Z</time>
</trkpt>
<trkpt lat="59.1096092" lon="31.2304090">
<ele>36.070000</ele>
<time>2026-08-27T21:51:53.000Z</time>
</trkpt>
<trkpt lat="59.1095824" lon="31.2304147">
<ele>36.250000</ele>
<time>2026-08-27T21:52:15.000Z</time>
</trkpt>
<trkpt lat="59.1095658" lon="31.2304493">
<ele>36.200001</ele>
<time>2026-08-27T21:52:22.000Z</time>
</trkpt>
<trkpt lat="59.1095357" lon="31.2304635">
<ele>35.209999</ele>
<time>2026-08-27T21:52:42.000Z</time>
</trkpt>
<trkpt lat="59.1094596" lon="31.2304146">
<ele>34.240002</ele>
<time>2026-08-27T21:53:01.000Z</time>
</trkpt>
<trkpt lat="59.1094016" lon="31.2304120">
<ele>33.900002</ele>
<time>2026-08-27T21:53:17.000Z</time>
</trkpt>
<trkpt lat="59.1093592" lon="31.2303684">
<ele>33.309998</ele>
<time>2026-08-27T21:53:35.000Z</time>
</trkpt>
<trkpt lat="59.1092976" lon="31.2303225">
<ele>33.139999</ele>
<time>2026-08-27T21:53:55.000Z</time>
</trkpt>
<trkpt lat="59.1092051" lon="31.2302791">
<ele>32.950001</ele>
<time>2026-08-27T21:54:13.000Z</time>
</trkpt>
<trkpt lat="59.1091196" lon="31.2302048">
<ele>32.160000</ele>
<time>2026-08-27T21:54:31.000Z</time>
</trkpt>
<trkpt lat="59.1090680" lon="31.2301357">
<ele>31.289999</ele>
<time>2026-08-27T21:54:47.000Z</time>
</trkpt>
<trkpt lat="59.1089996" lon="31.2301592">
<ele>31.029999</ele>
<time>2026-08-27T21:55:09.000Z</time>
</trkpt>
<trkpt lat="59.1089072" lon="31.2301527">
<ele>30.830000</ele>
<time>2026-08-27T21:55:29.000Z</time>
</trkpt>
<trkpt lat="59.1087985" lon="31.2301171">
<ele>30.269999</ele>
<time>2026-08-27T21:55:43.000Z</time>
</trkpt>
<trkpt lat="59.1087617" lon="31.2301168">
<ele>30.100000</ele>
<time>2026-08-27T21:55:57.000Z</time>
</trkpt>
<trkpt lat="59.1087241" lon="31.2301351">
<ele>30.590000</ele>
<time>2026-08-27T21:56:22.000Z</time>
</trkpt>
<trkpt lat="59.1086974" lon="31.2300692">
<ele>32.239998</ele>
<time>2026-08-27T21:56:48.000Z</time>
</trkpt>
<trkpt lat="59.1086813" lon="31.2300505">
<ele>34.560001</ele>
<time>2026-08-27T21:57:10.000Z</time>
</trkpt>
<trkpt lat="59.1086649" lon="31.2300502">
<ele>35.450001</ele>
<time>2026-08-27T21:57:30.000Z</time>
</trkpt>
<trkpt lat="59.1086525" lon="31.2301861">
<ele>36.990002</ele>
<time>2026-08-27T21:57:48.000Z</time>
</trkpt>
<trkpt lat="59.1085959" lon="31.2303134">
<ele>37.040001</ele>
<time>2026-08-27T21:58:04.000Z</time>
</trkpt>
<trkpt lat="59.1085619" lon="31.2302935">
<ele>36.110001</ele>
<time>2026-08-27T21:58:25.000Z</time>
</trkpt>
<trkpt lat="59.1084886" lon="31.2302857">
<ele>35.740002</ele>
<time>2026-08-27T21:58:42.000Z</time>
</trkpt>
<trkpt lat="59.1084558" lon="31.2301978">
<ele>34.959999</ele>
<time>2026-08-27T21:58:59.000Z</time>
</trkpt>
<trkpt lat="59.1083652" lon="31.2300978">
<ele>35.480000</ele>
<time>2026-08-27T21:59:18.000Z</time>
</trkpt>
<trkpt lat="59.1082853" lon="31.2300828">
<ele>35.310001</ele>
<time>2026-08-27T21:59:36.000Z</time>
</trkpt>
<trkpt lat="59.1082276" lon="31.2300437">
<ele>35.959999</ele>
<time>2026-08-27T21:59:53.000Z</time>
</trkpt>
<trkpt lat="59.1081514" lon="31.2300656">
<ele>36.509998</ele>
<time>2026-08-27T22:00:14.000Z</time>
</trkpt>
<trkpt lat="59.1080820" lon="31.2301079">
<ele>36.830002</ele>
<time>2026-08-27T22:00:32.000Z</time>
</trkpt>
<trkpt lat="59.1080157" lon="31.2301681">
<ele>37.060001</ele>
<time>2026-08-27T22:00:50.000Z</time>
</trkpt>
<trkpt lat="59.1079448" lon="31.2301965">
<ele>36.860001</ele>
<time>2026-08-27T22:01:07.000Z</time>
</trkpt>
<trkpt lat="59.1079110" lon="31.2302271">
<ele>37.160000</ele>
<time>2026-08-27T22:01:22.000Z</time>
</trkpt>
<trkpt lat="59.1078913" lon="31.2302800">
<ele>37.680000</ele>
<time>2026-08-27T22:01:37.000Z</time>
</trkpt>
<trkpt lat="59.1078428" lon="31.2303199">
<ele>37.009998</ele>
<time>2026-08-27T22:01:53.000Z</time>
</trkpt>
<trkpt lat="59.1078198" lon="31.2303361">
<ele>36.260002</ele>
<time>2026-08-27T22:02:06.000Z</time>
</trkpt>
<trkpt lat="59.1077867" lon="31.2303755">
<ele>36.760002</ele>
<time>2026-08-27T22:02:23.000Z</time>
</trkpt>
<trkpt lat="59.1077519" lon="31.2304533">
<ele>37.279999</ele>
<time>2026-08-27T22:02:40.000Z</time>
</trkpt>
<trkpt lat="59.1077171" lon="31.2305566">
<ele>37.540001</ele>
<time>2026-08-27T22:02:59.000Z</time>
</trkpt>
<trkpt lat="59.1076673" lon="31.2305266">
<ele>36.980000</ele>
<time>2026-08-27T22:03:19.000Z</time>
</trkpt>
<trkpt lat="59.1076073" lon="31.2304909">
<ele>36.160000</ele>
<time>2026-08-27T22:03:41.000Z</time>
</trkpt>
<trkpt lat="59.1075915" lon="31.2304893">
<ele>35.770000</ele>
<time>2026-08-27T22:04:03.000Z</time>
</trkpt>
<trkpt lat="59.1075854" lon="31.2304748">
<ele>35.990002</ele>
<time>2026-08-27T22:04:28.000Z</time>
</trkpt>
<trkpt lat="59.1075728" lon="31.2304785">
<ele>36.279999</ele>
<time>2026-08-27T22:04:48.000Z</time>
</trkpt>
<trkpt lat="59.1075521" lon="31.2304213">
<ele>36.030003</ele>
<time>2026-08-27T22:05:08.000Z</time>
</trkpt>
<trkpt lat="59.1075370" lon="31.2303232">
<ele>36.840000</ele>
<time>2026-08-27T22:05:29.000Z</time>
</trkpt>
<trkpt lat="59.1074649" lon="31.2302219">
<ele>36.710003</ele>
<time>2026-08-27T22:05:48.000Z</time>
</trkpt>
<trkpt lat="59.1074139" lon="31.2302216">
<ele>36.500000</ele>
<time>2026-08-27T22:06:06.000Z</time>
</trkpt>
<trkpt lat="59.1073752" lon="31.2302091">
<ele>37.009998</ele>
<time>2026-08-27T22:06:25.000Z</time>
</trkpt>
<trkpt lat="59.1073364" lon="31.2301007">
<ele>37.029999</ele>
<time>2026-08-27T22:06:46.000Z</time>
</trkpt>
<trkpt lat="59.1073018" lon="31.2299847">
<ele>37.040001</ele>
<time>2026-08-27T22:07:06.000Z</time>
</trkpt>
<trkpt lat="59.1072930" lon="31.2298730">
<ele>36.840000</ele>
<time>2026-08-27T22:07:25.000Z</time>
</trkpt>
<trkpt lat="59.1072933" lon="31.2298650">
<ele>36.760002</ele>
<time>2026-08-27T22:07:27.000Z</time>
</trkpt>
<trkpt lat="59.1072382" lon="31.2298168">
<ele>36.260002</ele>
<time>2026-08-27T22:07:37.000Z</time>
</trkpt>
<trkpt lat="59.1071568" lon="31.2297554">
<ele>35.860001</ele>
<time>2026-08-27T22:08:00.000Z</time>
</trkpt>
<trkpt lat="59.1070923" lon="31.2296978">
<ele>35.930000</ele>
<time>2026-08-27T22:08:18.000Z</time>
</trkpt>
<trkpt lat="59.1070360" lon="31.2297141">
<ele>35.920002</ele>
<time>2026-08-27T22:08:36.000Z</time>
</trkpt>
<trkpt lat="59.1069955" lon="31.2297314">
<ele>35.650002</ele>
<time>2026-08-27T22:08:50.000Z</time>
</trkpt>
<trkpt lat="59.1069499" lon="31.2297848">
<ele>35.619999</ele>
<time>2026-08-27T22:09:08.000Z</time>
</trkpt>
<trkpt lat="59.1068827" lon="31.2298383">
<ele>35.860001</ele>
<time>2026-08-27T22:09:24.000Z</time>
</trkpt>
<trkpt lat="59.1068184" lon="31.2299456">
<ele>35.369999</ele>
<time>2026-08-27T22:09:43.000Z</time>
</trkpt>
<trkpt lat="59.1067365" lon="31.2300573">
<ele>35.219997</ele>
<time>2026-08-27T22:10:02.000Z</time>
</trkpt>
<trkpt lat="59.1066450" lon="31.2300770">
<ele>35.690002</ele>
<time>2026-08-27T22:10:23.000Z</time>
</trkpt>
<trkpt lat="59.1066045" lon="31.2300506">
<ele>36.139999</ele>
<time>2026-08-27T22:10:40.000Z</time>
</trkpt>
<trkpt lat="59.1065835" lon="31.2300075">
<ele>36.889999</ele>
<time>2026-08-27T22:11:01.000Z</time>
</trkpt>
<trkpt lat="59.1065638" lon="31.2299910">
<ele>36.590000</ele>
<time>2026-08-27T22:11:06.000Z</time>
</trkpt>
<trkpt lat="59.1065090" lon="31.2299640">
<ele>35.950001</ele>
<time>2026-08-27T22:11:31.000Z</time>
</trkpt>
<trkpt lat="59.1065206" lon="31.2299544">
<ele>36.650002</ele>
<time>2026-08-27T22:11:53.000Z</time>
</trkpt>
<trkpt lat="59.1065619" lon="31.2299812">
<ele>38.209999</ele>
<time>2026-08-27T22:12:18.000Z</time>
</trkpt>
<trkpt lat="59.1065896" lon="31.2300148">
<ele>39.419998</ele>
<time>2026-08-27T22:12:46.000Z</time>
</trkpt>
<trkpt lat="59.1065790" lon="31.2300159">
<ele>39.039997</ele>
<time>2026-08-27T22:13:12.000Z</time>
</trkpt>
<trkpt lat="59.1065276" lon="31.2300319">
<ele>38.560001</ele>
<time>2026-08-27T22:13:30.000Z</time>
</trkpt>
<trkpt lat="59.1064547" lon="31.2300646">
<ele>39.590004</ele>
<time>2026-08-27T22:13:47.000Z</time>
</trkpt>
<trkpt lat="59.1064276" lon="31.2300309">
<ele>39.189999</ele>
<time>2026-08-27T22:14:13.000Z</time>
</trkpt>
<trkpt lat="59.1063748" lon="31.2301329">
<ele>38.580002</ele>
<time>2026-08-27T22:14:35.000Z</time>
</trkpt>
<trkpt lat="59.1063389" lon="31.2301091">
<ele>38.279999</ele>
<time>2026-08-27T22:14:53.000Z</time>
</trkpt>
<trkpt lat="59.1062888" lon="31.2300891">
<ele>39.049999</ele>
<time>2026-08-27T22:15:10.000Z</time>
</trkpt>
<trkpt lat="59.1062507" lon="31.2300572">
<ele>39.360001</ele>
<time>2026-08-27T22:15:30.000Z</time>
</trkpt>
<trkpt lat="59.1062003" lon="31.2300080">
<ele>39.450001</ele>
<time>2026-08-27T22:15:47.000Z</time>
</trkpt>
<trkpt lat="59.1061461" lon="31.2299905">
<ele>40.150002</ele>
<time>2026-08-27T22:16:05.000Z</time>
</trkpt>
<trkpt lat="59.1060996" lon="31.2300641">
<ele>39.290001</ele>
<time>2026-08-27T22:16:22.000Z</time>
</trkpt>
<trkpt lat="59.1060162" lon="31.2301081">
<ele>38.900002</ele>
<time>2026-08-27T22:16:42.000Z</time>
</trkpt>
<trkpt lat="59.1059702" lon="31.2300454">
<ele>38.230000</ele>
<time>2026-08-27T22:17:03.000Z</time>
</trkpt>
<trkpt lat="59.1058934" lon="31.2301553">
<ele>37.660000</ele>
<time>2026-08-27T22:17:20.000Z</time>
</trkpt>
<trkpt lat="59.1058629" lon="31.2301471">
<ele>37.259998</ele>
<time>2026-08-27T22:17:38.000Z</time>
</trkpt>
<trkpt lat="59.1058087" lon="31.2301206">
<ele>37.799999</ele>
<time>2026-08-27T22:17:55.000Z</time>
</trkpt>
<trkpt lat="59.1057442" lon="31.2301166">
<ele>38.670002</ele>
<time>2026-08-27T22:18:15.000Z</time>
</trkpt>
<trkpt lat="59.1056394" lon="31.2300839">
<ele>38.160000</ele>
<time>2026-08-27T22:18:35.000Z</time>
</trkpt>
<trkpt lat="59.1055769" lon="31.2300464">
<ele>38.250000</ele>
<time>2026-08-27T22:18:52.000Z</time>
</trkpt>
<trkpt lat="59.1055705" lon="31.2300328">
<ele>39.279999</ele>
<time>2026-08-27T22:19:17.000Z</time>
</trkpt>
<trkpt lat="59.1055691" lon="31.2300463">
<ele>39.419998</ele>
<time>2026-08-27T22:19:40.000Z</time>
</trkpt>
<trkpt lat="59.1055536" lon="31.2300142">
<ele>37.430000</ele>
<time>2026-08-27T22:20:04.000Z</time>
</trkpt>
<trkpt lat="59.1055692" lon="31.2300183">
<ele>36.869999</ele>
<time>2026-08-27T22:20:23.000Z</time>
</trkpt>
<trkpt lat="59.1055614" lon="31.2300003">
<ele>38.540001</ele>
<time>2026-08-27T22:20:56.000Z</time>
</trkpt>
<trkpt lat="59.1055189" lon="31.2299475">
<ele>37.930000</ele>
<time>2026-08-27T22:21:11.000Z</time>
</trkpt>
<trkpt lat="59.1054749" lon="31.2299209">
<ele>36.549999</ele>
<time>2026-08-27T22:21:24.000Z</time>
</trkpt>
<trkpt lat="59.1054397" lon="31.2298977">
<ele>36.750000</ele>
<time>2026-08-27T22:21:35.000Z</time>
</trkpt>
<trkpt lat="59.1053555" lon="31.2299470">
<ele>35.779999</ele>
<time>2026-08-27T22:21:55.000Z</time>
</trkpt>
<trkpt lat="59.1053101" lon="31.2299705">
<ele>35.190002</ele>
<time>2026-08-27T22:22:10.000Z</time>
</trkpt>
<trkpt lat="59.1052273" lon="31.2299201">
<ele>34.680000</ele>
<time>2026-08-27T22:22:31.000Z</time>
</trkpt>
<trkpt lat="59.1051724" lon="31.2298939">
<ele>34.520000</ele>
<time>2026-08-27T22:22:48.000Z</time>
</trkpt>
<trkpt lat="59.1051259" lon="31.2298886">
<ele>35.329998</ele>
<time>2026-08-27T22:23:06.000Z</time>
</trkpt>
<trkpt lat="59.1051095" lon="31.2298598">
<ele>35.820000</ele>
<time>2026-08-27T22:23:23.000Z</time>
</trkpt>
<trkpt lat="59.1051014" lon="31.2297849">
<ele>36.540001</ele>
<time>2026-08-27T22:23:43.000Z</time>
</trkpt>
<trkpt lat="59.1050583" lon="31.2297835">
<ele>37.349998</ele>
<time>2026-08-27T22:24:02.000Z</time>
</trkpt>
<trkpt lat="59.1050238" lon="31.2298066">
<ele>36.200001</ele>
<time>2026-08-27T22:24:22.000Z</time>
</trkpt>
<trkpt lat="59.1049504" lon="31.2297336">
<ele>36.889999</ele>
<time>2026-08-27T22:24:43.000Z</time>
</trkpt>
<trkpt lat="59.1048859" lon="31.2296751">
<ele>37.340000</ele>
<time>2026-08-27T22:25:04.000Z</time>
</trkpt>
<trkpt lat="59.1048233" lon="31.2295961">
<ele>37.340000</ele>
<time>2026-08-27T22:25:22.000Z</time>
</trkpt>
<trkpt lat="59.1048310" lon="31.2295702">
<ele>38.149998</ele>
<time>2026-08-27T22:25:41.000Z</time>
</trkpt>
<trkpt lat="59.1048416" lon="31.2295444">
<ele>39.930000</ele>
<time>2026-08-27T22:26:06.000Z</time>
</trkpt>
<trkpt lat="59.1048700" lon="31.2295916">
<ele>41.309998</ele>
<time>2026-08-27T22:26:26.000Z</time>
</trkpt>
<trkpt lat="59.1048128" lon="31.2295760">
<ele>42.410004</ele>
<time>2026-08-27T22:26:49.000Z</time>
</trkpt>
<trkpt lat="59.1047243" lon="31.2295465">
<ele>42.810001</ele>
<time>2026-08-27T22:27:08.000Z</time>
</trkpt>
<trkpt lat="59.1046841" lon="31.2296170">
<ele>41.950001</ele>
<time>2026-08-27T22:27:21.000Z</time>
</trkpt>
<trkpt lat="59.1046628" lon="31.2297395">
<ele>39.649998</ele>
<time>2026-08-27T22:27:42.000Z</time>
</trkpt>
<trkpt lat="59.1046285" lon="31.2298315">
<ele>39.920002</ele>
<time>2026-08-27T22:28:02.000Z</time>
</trkpt>
<trkpt lat="59.1046517" lon="31.2298641">
<ele>40.529999</ele>
<time>2026-08-27T22:28:21.000Z</time>
</trkpt>
<trkpt lat="59.1045864" lon="31.2298840">
<ele>40.559998</ele>
<time>2026-08-27T22:28:40.000Z</time>
</trkpt>
<trkpt lat="59.1045760" lon="31.2298309">
<ele>41.540001</ele>
<time>2026-08-27T22:29:04.000Z</time>
</trkpt>
<trkpt lat="59.1045492" lon="31.2298158">
<ele>41.820000</ele>
<time>2026-08-27T22:29:28.000Z</time>
</trkpt>
<trkpt lat="59.1045590" lon="31.2298743">
<ele>42.670002</ele>
<time>2026-08-27T22:29:52.000Z</time>
</trkpt>
<trkpt lat="59.1045363" lon="31.2298786">
<ele>42.570000</ele>
<time>2026-08-27T22:30:13.000Z</time>
</trkpt>
<trkpt lat="59.1044824" lon="31.2298277">
<ele>41.709999</ele>
<time>2026-08-27T22:30:36.000Z</time>
</trkpt>
<trkpt lat="59.1044558" lon="31.2299061">
<ele>41.430000</ele>
<time>2026-08-27T22:30:53.000Z</time>
</trkpt>
<trkpt lat="59.1044044" lon="31.2298464">
<ele>42.810001</ele>
<time>2026-08-27T22:31:11.000Z</time>
</trkpt>
<trkpt lat="59.1043352" lon="31.2298403">
<ele>41.340004</ele>
<time>2026-08-27T22:31:26.000Z</time>
</trkpt>
<trkpt lat="59.1042621" lon="31.2298489">
<ele>40.719997</ele>
<time>2026-08-27T22:31:42.000Z</time>
</trkpt>
<trkpt lat="59.1042496" lon="31.2297867">
<ele>43.940002</ele>
<time>2026-08-27T22:32:00.000Z</time>
</trkpt>
<trkpt lat="59.1042795" lon="31.2297814">
<ele>45.240002</ele>
<time>2026-08-27T22:32:23.000Z</time>
</trkpt>
<trkpt lat="59.1042696" lon="31.2297649">
<ele>45.460003</ele>
<time>2026-08-27T22:32:48.000Z</time>
</trkpt>
<trkpt lat="59.1042572" lon="31.2298010">
<ele>44.910000</ele>
<time>2026-08-27T22:33:20.000Z</time>
</trkpt>
<trkpt lat="59.1042517" lon="31.2298024">
<ele>45.850002</ele>
<time>2026-08-27T22:33:47.000Z</time>
</trkpt>
<trkpt lat="59.1041588" lon="31.2297859">
<ele>43.239998</ele>
<time>2026-08-27T22:34:09.000Z</time>
</trkpt>
<trkpt lat="59.1041181" lon="31.2297954">
<ele>41.770000</ele>
<time>2026-08-27T22:34:33.000Z</time>
</trkpt>
<trkpt lat="59.1041571" lon="31.2298133">
<ele>40.549999</ele>
<time>2026-08-27T22:34:58.000Z</time>
</trkpt>
<trkpt lat="59.1041703" lon="31.2297869">
<ele>41.299999</ele>
<time>2026-08-27T22:35:24.000Z</time>
</trkpt>
<trkpt lat="59.1041461" lon="31.2297921">
<ele>41.179996</ele>
<time>2026-08-27T22:35:47.000Z</time>
</trkpt>
<trkpt lat="59.1041641" lon="31.2298288">
<ele>41.099998</ele>
<time>2026-08-27T22:36:10.000Z</time>
</trkpt>
<trkpt lat="59.1041856" lon="31.2298220">
<ele>42.910000</ele>
<time>2026-08-27T22:36:27.000Z</time>
</trkpt>
<trkpt lat="59.1041773" lon="31.2298392">
<ele>44.079998</ele>
<time>2026-08-27T22:36:48.000Z</time>
</trkpt>
<trkpt lat="59.1042526" lon="31.2298279">
<ele>44.189999</ele>
<time>2026-08-27T22:37:06.000Z</time>
</trkpt>
<trkpt lat="59.1042712" lon="31.2298401">
<ele>46.779999</ele>
<time>2026-08-27T22:37:33.000Z</time>
</trkpt>
<trkpt lat="59.1042906" lon="31.2298541">
<ele>48.070000</ele>
<time>2026-08-27T22:38:05.000Z</time>
</trkpt>
<trkpt lat="59.1042798" lon="31.2297744">
<ele>49.099998</ele>
<time>2026-08-27T22:38:31.000Z</time>
</trkpt>
<trkpt lat="59.1042804" lon="31.2297338">
<ele>50.079998</ele>
<time>2026-08-27T22:38:55.000Z</time>
</trkpt>
<trkpt lat="59.1042788" lon="31.2297485">
<ele>49.800003</ele>
<time>2026-08-27T22:39:00.000Z</time>
</trkpt>
<trkpt lat="59.1042248" lon="31.2298769">
<ele>48.389999</ele>
<time>2026-08-27T22:39:25.000Z</time>
</trkpt>
<trkpt lat="59.1042539" lon="31.2298963">
<ele>47.910000</ele>
<time>2026-08-27T22:39:48.000Z</time>
</trkpt>
<trkpt lat="59.1042036" lon="31.2298395">
<ele>47.730000</ele>
<time>2026-08-27T22:40:20.000Z</time>
</trkpt>
<trkpt lat="59.1041935" lon="31.2298029">
<ele>47.199997</ele>
<time>2026-08-27T22:40:48.000Z</time>
</trkpt>
<trkpt lat="59.1042280" lon="31.2297757">
<ele>47.910000</ele>
<time>2026-08-27T22:41:13.000Z</time>
</trkpt>
<trkpt lat="59.1042498" lon="31.2298605">
<ele>50.009998</ele>
<time>2026-08-27T22:41:41.000Z</time>
</trkpt>
<trkpt lat="59.1042762" lon="31.2298750">
<ele>50.420002</ele>
<time>2026-08-27T22:42:13.000Z</time>
</trkpt>
<trkpt lat="59.1042609" lon="31.2298955">
<ele>50.380001</ele>
<time>2026-08-27T22:42:48.000Z</time>
</trkpt>
<trkpt lat="59.1042587" lon="31.2299562">
<ele>49.559998</ele>
<time>2026-08-27T22:43:19.000Z</time>
</trkpt>
<trkpt lat="59.1042794" lon="31.2299711">
<ele>52.030003</ele>
<time>2026-08-27T22:43:47.000Z</time>
</trkpt>
<trkpt lat="59.1043396" lon="31.2300223">
<ele>54.289997</ele>
<time>2026-08-27T22:44:15.000Z</time>
</trkpt>
<trkpt lat="59.1043105" lon="31.2300798">
<ele>53.809998</ele>
<time>2026-08-27T22:44:28.000Z</time>
</trkpt>
<trkpt lat="59.1042286" lon="31.2301505">
<ele>53.700001</ele>
<time>2026-08-27T22:44:59.000Z</time>
</trkpt>
<trkpt lat="59.1042743" lon="31.2301464">
<ele>53.000004</ele>
<time>2026-08-27T22:45:27.000Z</time>
</trkpt>
<trkpt lat="59.1042298" lon="31.2300583">
<ele>54.090000</ele>
<time>2026-08-27T22:45:46.000Z</time>
</trkpt>
<trkpt lat="59.1042020" lon="31.2299732">
<ele>54.720001</ele>
<time>2026-08-27T22:46:06.000Z</time>
</trkpt>
<trkpt lat="59.1041876" lon="31.2299954">
<ele>54.419998</ele>
<time>2026-08-27T22:46:18.000Z</time>
</trkpt>
<trkpt lat="59.1041591" lon="31.2299324">
<ele>53.950001</ele>
<time>2026-08-27T22:46:39.000Z</time>
</trkpt>
<trkpt lat="59.1041047" lon="31.2298836">
<ele>53.010002</ele>
<time>2026-08-27T22:46:55.000Z</time>
</trkpt>
<trkpt lat="59.1040127" lon="31.2298417">
<ele>51.609997</ele>
<time>2026-08-27T22:47:12.000Z</time>
</trkpt>
<trkpt lat="59.1039208" lon="31.2296965">
<ele>48.559998</ele>
<time>2026-08-27T22:47:28.000Z</time>
</trkpt>
<trkpt lat="59.1038825" lon="31.2296623">
<ele>49.980000</ele>
<time>2026-08-27T22:47:40.000Z</time>
</trkpt>
<trkpt lat="59.1038517" lon="31.2296178">
<ele>52.369999</ele>
<time>2026-08-27T22:47:52.000Z</time>
</trkpt>
<trkpt lat="59.1038261" lon="31.2295892">
<ele>52.500000</ele>
<time>2026-08-27T22:48:06.000Z</time>
</trkpt>
<trkpt lat="59.1037925" lon="31.2295813">
<ele>52.390003</ele>
<time>2026-08-27T22:48:26.000Z</time>
</trkpt>
<trkpt lat="59.1037706" lon="31.2296556">
<ele>52.299999</ele>
<time>2026-08-27T22:48:46.000Z</time>
</trkpt>
<trkpt lat="59.1037520" lon="31.2297903">
<ele>52.780003</ele>
<time>2026-08-27T22:49:06.000Z</time>
</trkpt>
<trkpt lat="59.1036712" lon="31.2298424">
<ele>52.379997</ele>
<time>2026-08-27T22:49:22.000Z</time>
</trkpt>
<trkpt lat="59.1036074" lon="31.2298249">
<ele>51.750000</ele>
<time>2026-08-27T22:49:43.000Z</time>
</trkpt>
<trkpt lat="59.1036183" lon="31.2298531">
<ele>50.309998</ele>
<time>2026-08-27T22:50:04.000Z</time>
</trkpt>
<trkpt lat="59.1036276" lon="31.2299055">
<ele>46.340000</ele>
<time>2026-08-27T22:50:31.000Z</time>
</trkpt>
<trkpt lat="59.1036377" lon="31.2298892">
<ele>44.130001</ele>
<time>2026-08-27T22:50:54.000Z</time>
</trkpt>
<trkpt lat="59.1035760" lon="31.2298825">
<ele>44.219997</ele>
<time>2026-08-27T22:51:09.000Z</time>
</trkpt>
<trkpt lat="59.1035106" lon="31.2298988">
<ele>45.040001</ele>
<time>2026-08-27T22:51:25.000Z</time>
</trkpt>
<trkpt lat="59.1034548" lon="31.2298786">
<ele>44.410000</ele>
<time>2026-08-27T22:51:41.000Z</time>
</trkpt>
<trkpt lat="59.1033820" lon="31.2298570">
<ele>44.070000</ele>
<time>2026-08-27T22:51:55.000Z</time>
</trkpt>
<trkpt lat="59.1033671" lon="31.2298861">
<ele>43.180000</ele>
<time>2026-08-27T22:52:08.000Z</time>
</trkpt>
<trkpt lat="59.1033320" lon="31.2299206">
<ele>44.059998</ele>
<time>2026-08-27T22:52:24.000Z</time>
</trkpt>
<trkpt lat="59.1033058" lon="31.2299753">
<ele>43.379997</ele>
<time>2026-08-27T22:52:36.000Z</time>
</trkpt>
<trkpt lat="59.1032737" lon="31.2300263">
<ele>43.290001</ele>
<time>2026-08-27T22:52:50.000Z</time>
</trkpt>
<trkpt lat="59.1032294" lon="31.2300387">
<ele>43.340000</ele>
<time>2026-08-27T22:53:07.000Z</time>
</trkpt>
<trkpt lat="59.1032155" lon="31.2300634">
<ele>44.270000</ele>
<time>2026-08-27T22:53:27.000Z</time>
</trkpt>
<trkpt lat="59.1031713" lon="31.2301364">
<ele>44.810001</ele>
<time>2026-08-27T22:53:48.000Z</time>
</trkpt>
<trkpt lat="59.1031512" lon="31.2301787">
<ele>45.720001</ele>
<time>2026-08-27T22:54:04.000Z</time>
</trkpt>
<trkpt lat="59.1031345" lon="31.2302022">
<ele>45.620003</ele>
<time>2026-08-27T22:54:17.000Z</time>
</trkpt>
<trkpt lat="59.1031351" lon="31.2302470">
<ele>45.739998</ele>
<time>2026-08-27T22:54:33.000Z</time>
</trkpt>
<trkpt lat="59.1031338" lon="31.2302908">
<ele>46.419998</ele>
<time>2026-08-27T22:54:59.000Z</time>
</trkpt>
<trkpt lat="59.1031741" lon="31.2303334">
<ele>47.900002</ele>
<time>2026-08-27T22:55:17.000Z</time>
</trkpt>
<trkpt lat="59.1032023" lon="31.2303985">
<ele>48.080002</ele>
<time>2026-08-27T22:55:32.000Z</time>
</trkpt>
<trkpt lat="59.1032484" lon="31.2304266">
<ele>48.860001</ele>
<time>2026-08-27T22:55:48.000Z</time>
</trkpt>
<trkpt lat="59.1032648" lon="31.2304379">
<ele>48.619999</ele>
<time>2026-08-27T22:56:05.000Z</time>
</trkpt>
<trkpt lat="59.1032910" lon="31.2304998">
<ele>49.779999</ele>
<time>2026-08-27T22:56:28.000Z</time>
</trkpt>
<trkpt lat="59.1033145" lon="31.2305918">
<ele>49.910000</ele>
<time>2026-08-27T22:56:48.000Z</time>
</trkpt>
<trkpt lat="59.1032765" lon="31.2307086">
<ele>48.949997</ele>
<time>2026-08-27T22:57:04.000Z</time>
</trkpt>
<trkpt lat="59.1032801" lon="31.2307761">
<ele>48.570000</ele>
<time>2026-08-27T22:57:18.000Z</time>
</trkpt>
<trkpt lat="59.1033270" lon="31.2308788">
<ele>49.060001</ele>
<time>2026-08-27T22:57:38.000Z</time>
</trkpt>
<trkpt lat="59.1033435" lon="31.2309755">
<ele>48.060001</ele>
<time>2026-08-27T22:57:56.000Z</time>
</trkpt>
<trkpt lat="59.1033544" lon="31.2310564">
<ele>48.160000</ele>
<time>2026-08-27T22:58:15.000Z</time>
</trkpt>
<trkpt lat="59.1033088" lon="31.2311337">
<ele>47.559998</ele>
<time>2026-08-27T22:58:33.000Z</time>
</trkpt>
<trkpt lat="59.1032797" lon="31.2311632">
<ele>46.920002</ele>
<time>2026-08-27T22:58:51.000Z</time>
</trkpt>
<trkpt lat="59.1032612" lon="31.2311510">
<ele>47.000000</ele>
<time>2026-08-27T22:59:12.000Z</time>
</trkpt>
<trkpt lat="59.1032516" lon="31.2311759">
<ele>46.000000</ele>
<time>2026-08-27T22:59:26.000Z</time>
</trkpt>
<trkpt lat="59.1032247" lon="31.2312287">
<ele>45.990002</ele>
<time>2026-08-27T22:59:43.000Z</time>
</trkpt>
<trkpt lat="59.1031461" lon="31.2312730">
<ele>44.040001</ele>
<time>2026-08-27T23:00:02.000Z</time>
</trkpt>
<trkpt lat="59.1030685" lon="31.2312768">
<ele>43.520000</ele>
<time>2026-08-27T23:00:22.000Z</time>
</trkpt>
<trkpt lat="59.1030360" lon="31.2313038">
<ele>43.100002</ele>
<time>2026-08-27T23:00:46.000Z</time>
</trkpt>
<trkpt lat="59.1029905" lon="31.2313572">
<ele>42.849998</ele>
<time>2026-08-27T23:01:11.000Z</time>
</trkpt>
<trkpt lat="59.1029898" lon="31.2313470">
<ele>43.149998</ele>
<time>2026-08-27T23:01:40.000Z</time>
</trkpt>
<trkpt lat="59.1029954" lon="31.2313549">
<ele>42.900002</ele>
<time>2026-08-27T23:02:03.000Z</time>
</trkpt>
<trkpt lat="59.1030058" lon="31.2313932">
<ele>43.070000</ele>
<time>2026-08-27T23:02:25.000Z</time>
</trkpt>
<trkpt lat="59.1029870" lon="31.2315072">
<ele>44.180000</ele>
<time>2026-08-27T23:02:43.000Z</time>
</trkpt>
<trkpt lat="59.1029918" lon="31.2316077">
<ele>44.020000</ele>
<time>2026-08-27T23:03:02.000Z</time>
</trkpt>
<trkpt lat="59.1030058" lon="31.2317197">
<ele>45.240002</ele>
<time>2026-08-27T23:03:25.000Z</time>
</trkpt>
<trkpt lat="59.1030137" lon="31.2317941">
<ele>46.570000</ele>
<time>2026-08-27T23:03:46.000Z</time>
</trkpt>
<trkpt lat="59.1029978" lon="31.2318778">
<ele>46.620003</ele>
<time>2026-08-27T23:04:06.000Z</time>
</trkpt>
<trkpt lat="59.1029953" lon="31.2319268">
<ele>46.400002</ele>
<time>2026-08-27T23:04:25.000Z</time>
</trkpt>
<trkpt lat="59.1030023" lon="31.2319599">
<ele>45.570000</ele>
<time>2026-08-27T23:04:45.000Z</time>
</trkpt>
<trkpt lat="59.1029741" lon="31.2320071">
<ele>45.490002</ele>
<time>2026-08-27T23:05:02.000Z</time>
</trkpt>
<trkpt lat="59.1029630" lon="31.2320767">
<ele>45.959999</ele>
<time>2026-08-27T23:05:24.000Z</time>
</trkpt>
<trkpt lat="59.1029771" lon="31.2321500">
<ele>45.360001</ele>
<time>2026-08-27T23:05:45.000Z</time>
</trkpt>
<trkpt lat="59.1030180" lon="31.2322241">
<ele>44.639999</ele>
<time>2026-08-27T23:06:05.000Z</time>
</trkpt>
<trkpt lat="59.1030365" lon="31.2323257">
<ele>44.160004</ele>
<time>2026-08-27T23:06:21.000Z</time>
</trkpt>
<trkpt lat="59.1030317" lon="31.2325003">
<ele>42.950001</ele>
<time>2026-08-27T23:06:41.000Z</time>
</trkpt>
<trkpt lat="59.1030067" lon="31.2326715">
<ele>42.450001</ele>
<time>2026-08-27T23:06:59.000Z</time>
</trkpt>
<trkpt lat="59.1029903" lon="31.2327283">
<ele>44.529999</ele>
<time>2026-08-27T23:07:21.000Z</time>
</trkpt>
<trkpt lat="59.1029719" lon="31.2327629">
<ele>45.869999</ele>
<time>2026-08-27T23:07:42.000Z</time>
</trkpt>
<trkpt lat="59.1029792" lon="31.2327529">
<ele>48.750000</ele>
<time>2026-08-27T23:08:07.000Z</time>
</trkpt>
<trkpt lat="59.1029660" lon="31.2327685">
<ele>51.330002</ele>
<time>2026-08-27T23:08:31.000Z</time>
</trkpt>
<trkpt lat="59.1029788" lon="31.2328051">
<ele>52.119999</ele>
<time>2026-08-27T23:08:52.000Z</time>
</trkpt>
<trkpt lat="59.1030026" lon="31.2328379">
<ele>51.389999</ele>
<time>2026-08-27T23:09:18.000Z</time>
</trkpt>
<trkpt lat="59.1030807" lon="31.2328670">
<ele>51.740002</ele>
<time>2026-08-27T23:09:38.000Z</time>
</trkpt>
<trkpt lat="59.1031390" lon="31.2329086">
<ele>52.390003</ele>
<time>2026-08-27T23:09:55.000Z</time>
</trkpt>
<trkpt lat="59.1031835" lon="31.2329881">
<ele>53.059998</ele>
<time>2026-08-27T23:10:14.000Z</time>
</trkpt>
<trkpt lat="59.1032153" lon="31.2330874">
<ele>52.439999</ele>
<time>2026-08-27T23:10:37.000Z</time>
</trkpt>
<trkpt lat="59.1032315" lon="31.2331524">
<ele>52.270000</ele>
<time>2026-08-27T23:10:57.000Z</time>
</trkpt>
<trkpt lat="59.1032815" lon="31.2331944">
<ele>52.599998</ele>
<time>2026-08-27T23:11:19.000Z</time>
</trkpt>
<trkpt lat="59.1033318" lon="31.2331202">
<ele>51.829998</ele>
<time>2026-08-27T23:11:41.000Z</time>
</trkpt>
<trkpt lat="59.1033878" lon="31.2329814">
<ele>50.209999</ele>
<time>2026-08-27T23:12:01.000Z</time>
</trkpt>
<trkpt lat="59.1034021" lon="31.2329426">
<ele>49.700001</ele>
<time>2026-08-27T23:12:07.000Z</time>
</trkpt>
<trkpt lat="59.1035355" lon="31.2328833">
<ele>48.939999</ele>
<time>2026-08-27T23:12:28.000Z</time>
</trkpt>
<trkpt lat="59.1036297" lon="31.2330055">
<ele>47.130001</ele>
<time>2026-08-27T23:12:46.000Z</time>
</trkpt>
<trkpt lat="59.1037236" lon="31.2330631">
<ele>47.189999</ele>
<time>2026-08-27T23:13:09.000Z</time>
</trkpt>
<trkpt lat="59.1037922" lon="31.2330575">
<ele>47.419998</ele>
<time>2026-08-27T23:13:28.000Z</time>
</trkpt>
<trkpt lat="59.1038339" lon="31.2329238">
<ele>46.439999</ele>
<time>2026-08-27T23:13:45.000Z</time>
</trkpt>
<trkpt lat="59.1038839" lon="31.2328340">
<ele>47.320000</ele>
<time>2026-08-27T23:14:04.000Z</time>
</trkpt>
<trkpt lat="59.1039065" lon="31.2328693">
<ele>48.709999</ele>
<time>2026-08-27T23:14:23.000Z</time>
</trkpt>
<trkpt lat="59.1038965" lon="31.2329370">
<ele>50.570004</ele>
<time>2026-08-27T23:14:50.000Z</time>
</trkpt>
<trkpt lat="59.1038897" lon="31.2329638">
<ele>52.110001</ele>
<time>2026-08-27T23:15:17.000Z</time>
</trkpt>
<trkpt lat="59.1038874" lon="31.2329654">
<ele>52.379997</ele>
<time>2026-08-27T23:15:45.000Z</time>
</trkpt>
<trkpt lat="59.1039714" lon="31.2330499">
<ele>52.710003</ele>
<time>2026-08-27T23:16:07.000Z</time>
</trkpt>
<trkpt lat="59.1040547" lon="31.2330988">
<ele>51.989998</ele>
<time>2026-08-27T23:16:29.000Z</time>
</trkpt>
<trkpt lat="59.1040678" lon="31.2330598">
<ele>51.400002</ele>
<time>2026-08-27T23:16:44.000Z</time>
</trkpt>
<trkpt lat="59.1041875" lon="31.2330812">
<ele>50.459999</ele>
<time>2026-08-27T23:17:05.000Z</time>
</trkpt>
<trkpt lat="59.1042672" lon="31.2329969">
<ele>50.829998</ele>
<time>2026-08-27T23:17:26.000Z</time>
</trkpt>
<trkpt lat="59.1043751" lon="31.2330248">
<ele>49.689999</ele>
<time>2026-08-27T23:17:45.000Z</time>
</trkpt>
<trkpt lat="59.1044211" lon="31.2330099">
<ele>50.009998</ele>
<time>2026-08-27T23:18:09.000Z</time>
</trkpt>
<trkpt lat="59.1044778" lon="31.2330385">
<ele>51.669998</ele>
<time>2026-08-27T23:18:33.000Z</time>
</trkpt>
<trkpt lat="59.1045006" lon="31.2330368">
<ele>52.839996</ele>
<time>2026-08-27T23:18:53.000Z</time>
</trkpt>
<trkpt lat="59.1044517" lon="31.2329281">
<ele>51.889999</ele>
<time>2026-08-27T23:19:13.000Z</time>
</trkpt>
<trkpt lat="59.1044668" lon="31.2329124">
<ele>51.350002</ele>
<time>2026-08-27T23:19:36.000Z</time>
</trkpt>
<trkpt lat="59.1045392" lon="31.2329266">
<ele>50.820000</ele>
<time>2026-08-27T23:19:56.000Z</time>
</trkpt>
<trkpt lat="59.1045179" lon="31.2328422">
<ele>51.290001</ele>
<time>2026-08-27T23:20:17.000Z</time>
</trkpt>
<trkpt lat="59.1045180" lon="31.2327955">
<ele>51.219997</ele>
<time>2026-08-27T23:20:40.000Z</time>
</trkpt>
<trkpt lat="59.1045782" lon="31.2326954">
<ele>51.750000</ele>
<time>2026-08-27T23:21:02.000Z</time>
</trkpt>
<trkpt lat="59.1046443" lon="31.2327370">
<ele>52.100002</ele>
<time>2026-08-27T23:21:21.000Z</time>
</trkpt>
<trkpt lat="59.1047341" lon="31.2328162">
<ele>51.769997</ele>
<time>2026-08-27T23:21:39.000Z</time>
</trkpt>
<trkpt lat="59.1047791" lon="31.2328718">
<ele>51.190002</ele>
<time>2026-08-27T23:22:00.000Z</time>
</trkpt>
<trkpt lat="59.1047622" lon="31.2329125">
<ele>51.389999</ele>
<time>2026-08-27T23:22:24.000Z</time>
</trkpt>
<trkpt lat="59.1047542" lon="31.2328882">
<ele>50.940002</ele>
<time>2026-08-27T23:22:49.000Z</time>
</trkpt>
<trkpt lat="59.1047810" lon="31.2328695">
<ele>50.689999</ele>
<time>2026-08-27T23:23:14.000Z</time>
</trkpt>
<trkpt lat="59.1047770" lon="31.2328623">
<ele>48.949997</ele>
<time>2026-08-27T23:23:39.000Z</time>
</trkpt>
<trkpt lat="59.1047923" lon="31.2328144">
<ele>50.009998</ele>
<time>2026-08-27T23:24:01.000Z</time>
</trkpt>
<trkpt lat="59.1048579" lon="31.2328016">
<ele>49.789997</ele>
<time>2026-08-27T23:24:21.000Z</time>
</trkpt>
<trkpt lat="59.1049487" lon="31.2327831">
<ele>50.309998</ele>
<time>2026-08-27T23:24:41.000Z</time>
</trkpt>
<trkpt lat="59.1049961" lon="31.2327556">
<ele>49.779999</ele>
<time>2026-08-27T23:25:02.000Z</time>
</trkpt>
<trkpt lat="59.1050695" lon="31.2327342">
<ele>49.619999</ele>
<time>2026-08-27T23:25:20.000Z</time>
</trkpt>
<trkpt lat="59.1051204" lon="31.2327520">
<ele>50.800003</ele>
<time>2026-08-27T23:25:40.000Z</time>
</trkpt>
<trkpt lat="59.1051052" lon="31.2327817">
<ele>50.680000</ele>
<time>2026-08-27T23:25:59.000Z</time>
</trkpt>
<trkpt lat="59.1051300" lon="31.2327478">
<ele>50.900002</ele>
<time>2026-08-27T23:26:23.000Z</time>
</trkpt>
<trkpt lat="59.1052193" lon="31.2328109">
<ele>51.319996</ele>
<time>2026-08-27T23:26:46.000Z</time>
</trkpt>
<trkpt lat="59.1052985" lon="31.2328333">
<ele>50.720001</ele>
<time>2026-08-27T23:27:08.000Z</time>
</trkpt>
<trkpt lat="59.1053747" lon="31.2328868">
<ele>51.089996</ele>
<time>2026-08-27T23:27:27.000Z</time>
</trkpt>
<trkpt lat="59.1054596" lon="31.2329254">
<ele>51.060001</ele>
<time>2026-08-27T23:27:47.000Z</time>
</trkpt>
<trkpt lat="59.1055318" lon="31.2329806">
<ele>49.139999</ele>
<time>2026-08-27T23:28:06.000Z</time>
</trkpt>
<trkpt lat="59.1056350" lon="31.2330379">
<ele>48.440002</ele>
<time>2026-08-27T23:28:27.000Z</time>
</trkpt>
<trkpt lat="59.1057206" lon="31.2331134">
<ele>49.750000</ele>
<time>2026-08-27T23:28:48.000Z</time>
</trkpt>
<trkpt lat="59.1057526" lon="31.2329824">
<ele>49.559998</ele>
<time>2026-08-27T23:29:09.000Z</time>
</trkpt>
<trkpt lat="59.1057743" lon="31.2329112">
<ele>49.190002</ele>
<time>2026-08-27T23:29:24.000Z</time>
</trkpt>
<trkpt lat="59.1057711" lon="31.2329134">
<ele>48.290001</ele>
<time>2026-08-27T23:29:51.000Z</time>
</trkpt>
<trkpt lat="59.1057665" lon="31.2329367">
<ele>49.459999</ele>
<time>2026-08-27T23:30:18.000Z</time>
</trkpt>
<trkpt lat="59.1057931" lon="31.2329685">
<ele>50.230000</ele>
<time>2026-08-27T23:30:42.000Z</time>
</trkpt>
<trkpt lat="59.1058159" lon="31.2329574">
<ele>50.380001</ele>
<time>2026-08-27T23:31:10.000Z</time>
</trkpt>
<trkpt lat="59.1058444" lon="31.2329671">
<ele>50.239998</ele>
<time>2026-08-27T23:31:28.000Z</time>
</trkpt>
<trkpt lat="59.1058622" lon="31.2329878">
<ele>50.480000</ele>
<time>2026-08-27T23:31:50.000Z</time>
</trkpt>
<trkpt lat="59.1059121" lon="31.2329646">
<ele>50.220001</ele>
<time>2026-08-27T23:32:12.000Z</time>
</trkpt>
<trkpt lat="59.1059737" lon="31.2329799">
<ele>50.829998</ele>
<time>2026-08-27T23:32:32.000Z</time>
</trkpt>
<trkpt lat="59.1060052" lon="31.2330151">
<ele>50.929996</ele>
<time>2026-08-27T23:32:51.000Z</time>
</trkpt>
<trkpt lat="59.1060660" lon="31.2329661">
<ele>50.919998</ele>
<time>2026-08-27T23:33:10.000Z</time>
</trkpt>
<trkpt lat="59.1061047" lon="31.2329084">
<ele>51.560001</ele>
<time>2026-08-27T23:33:33.000Z</time>
</trkpt>
<trkpt lat="59.1061765" lon="31.2328223">
<ele>50.929996</ele>
<time>2026-08-27T23:33:53.000Z</time>
</trkpt>
<trkpt lat="59.1062307" lon="31.2327898">
<ele>50.420002</ele>
<time>2026-08-27T23:34:12.000Z</time>
</trkpt>
<trkpt lat="59.1063028" lon="31.2327783">
<ele>49.919998</ele>
<time>2026-08-27T23:34:31.000Z</time>
</trkpt>
<trkpt lat="59.1063384" lon="31.2327947">
<ele>50.169998</ele>
<time>2026-08-27T23:34:40.000Z</time>
</trkpt>
<trkpt lat="59.1064318" lon="31.2329131">
<ele>50.480000</ele>
<time>2026-08-27T23:35:02.000Z</time>
</trkpt>
<trkpt lat="59.1064800" lon="31.2330308">
<ele>50.130001</ele>
<time>2026-08-27T23:35:21.000Z</time>
</trkpt>
<trkpt lat="59.1065677" lon="31.2330332">
<ele>49.220001</ele>
<time>2026-08-27T23:35:40.000Z</time>
</trkpt>
<trkpt lat="59.1066148" lon="31.2330385">
<ele>48.210003</ele>
<time>2026-08-27T23:36:00.000Z</time>
</trkpt>
<trkpt lat="59.1066763" lon="31.2330987">
<ele>48.810001</ele>
<time>2026-08-27T23:36:26.000Z</time>
</trkpt>
<trkpt lat="59.1067274" lon="31.2331602">
<ele>50.369999</ele>
<time>2026-08-27T23:36:53.000Z</time>
</trkpt>
<trkpt lat="59.1066969" lon="31.2331388">
<ele>52.139999</ele>
<time>2026-08-27T23:37:17.000Z</time>
</trkpt>
<trkpt lat="59.1066768" lon="31.2331069">
<ele>52.130001</ele>
<time>2026-08-27T23:37:39.000Z</time>
</trkpt>
<trkpt lat="59.1066241" lon="31.2330979">
<ele>51.070000</ele>
<time>2026-08-27T23:38:04.000Z</time>
</trkpt>
<trkpt lat="59.1066543" lon="31.2331425">
<ele>51.480003</ele>
<time>2026-08-27T23:38:27.000Z</time>
</trkpt>
<trkpt lat="59.1066507" lon="31.2331329">
<ele>52.010002</ele>
<time>2026-08-27T23:38:50.000Z</time>
</trkpt>
<trkpt lat="59.1066702" lon="31.2330452">
<ele>50.709999</ele>
<time>2026-08-27T23:39:13.000Z</time>
</trkpt>
<trkpt lat="59.1066960" lon="31.2329719">
<ele>49.619999</ele>
<time>2026-08-27T23:39:30.000Z</time>
</trkpt>
<trkpt lat="59.1067593" lon="31.2329644">
<ele>48.810001</ele>
<time>2026-08-27T23:39:48.000Z</time>
</trkpt>
<trkpt lat="59.1068274" lon="31.2329405">
<ele>49.520000</ele>
<time>2026-08-27T23:40:07.000Z</time>
</trkpt>
<trkpt lat="59.1068978" lon="31.2328926">
<ele>48.360001</ele>
<time>2026-08-27T23:40:29.000Z</time>
</trkpt>
<trkpt lat="59.1069550" lon="31.2329057">
<ele>49.070000</ele>
<time>2026-08-27T23:40:45.000Z</time>
</trkpt>
<trkpt lat="59.1070416" lon="31.2328939">
<ele>48.719997</ele>
<time>2026-08-27T23:41:07.000Z</time>
</trkpt>
<trkpt lat="59.1070917" lon="31.2329093">
<ele>48.750000</ele>
<time>2026-08-27T23:41:26.000Z</time>
</trkpt>
<trkpt lat="59.1071683" lon="31.2329703">
<ele>47.570000</ele>
<time>2026-08-27T23:41:45.000Z</time>
</trkpt>
<trkpt lat="59.1071869" lon="31.2329917">
<ele>47.360001</ele>
<time>2026-08-27T23:41:50.000Z</time>
</trkpt>
<trkpt lat="59.1072099" lon="31.2331870">
<ele>47.140003</ele>
<time>2026-08-27T23:42:13.000Z</time>
</trkpt>
<trkpt lat="59.1072389" lon="31.2332525">
<ele>47.220001</ele>
<time>2026-08-27T23:42:32.000Z</time>
</trkpt>
<trkpt lat="59.1073204" lon="31.2332578">
<ele>46.680000</ele>
<time>2026-08-27T23:42:54.000Z</time>
</trkpt>
<trkpt lat="59.1073796" lon="31.2332491">
<ele>46.150002</ele>
<time>2026-08-27T23:43:14.000Z</time>
</trkpt>
<trkpt lat="59.1074399" lon="31.2331780">
<ele>44.379997</ele>
<time>2026-08-27T23:43:33.000Z</time>
</trkpt>
<trkpt lat="59.1075232" lon="31.2331820">
<ele>44.449997</ele>
<time>2026-08-27T23:43:52.000Z</time>
</trkpt>
<trkpt lat="59.1075493" lon="31.2332756">
<ele>44.860001</ele>
<time>2026-08-27T23:44:13.000Z</time>
</trkpt>
<trkpt lat="59.1075620" lon="31.2333372">
<ele>46.600002</ele>
<time>2026-08-27T23:44:32.000Z</time>
</trkpt>
<trkpt lat="59.1075897" lon="31.2333871">
<ele>47.949997</ele>
<time>2026-08-27T23:44:51.000Z</time>
</trkpt>
<trkpt lat="59.1075803" lon="31.2332550">
<ele>50.230000</ele>
<time>2026-08-27T23:45:16.000Z</time>
</trkpt>
<trkpt lat="59.1076257" lon="31.2330863">
<ele>48.269997</ele>
<time>2026-08-27T23:45:37.000Z</time>
</trkpt>
<trkpt lat="59.1076602" lon="31.2330822">
<ele>48.939999</ele>
<time>2026-08-27T23:45:56.000Z</time>
</trkpt>
<trkpt lat="59.1076806" lon="31.2331006">
<ele>50.450001</ele>
<time>2026-08-27T23:46:22.000Z</time>
</trkpt>
<trkpt lat="59.1076938" lon="31.2331295">
<ele>51.239998</ele>
<time>2026-08-27T23:46:47.000Z</time>
</trkpt>
<trkpt lat="59.1076839" lon="31.2331220">
<ele>50.599998</ele>
<time>2026-08-27T23:47:15.000Z</time>
</trkpt>
<trkpt lat="59.1076672" lon="31.2331507">
<ele>51.710003</ele>
<time>2026-08-27T23:47:37.000Z</time>
</trkpt>
<trkpt lat="59.1076676" lon="31.2331145">
<ele>53.240002</ele>
<time>2026-08-27T23:48:00.000Z</time>
</trkpt>
<trkpt lat="59.1076469" lon="31.2331463">
<ele>52.620003</ele>
<time>2026-08-27T23:48:28.000Z</time>
</trkpt>
<trkpt lat="59.1076450" lon="31.2331474">
<ele>51.810001</ele>
<time>2026-08-27T23:48:53.000Z</time>
</trkpt>
<trkpt lat="59.1076867" lon="31.2331263">
<ele>52.599998</ele>
<time>2026-08-27T23:49:18.000Z</time>
</trkpt>
<trkpt lat="59.1077171" lon="31.2331159">
<ele>52.529999</ele>
<time>2026-08-27T23:49:39.000Z</time>
</trkpt>
<trkpt lat="59.1077535" lon="31.2331115">
<ele>51.439999</ele>
<time>2026-08-27T23:49:59.000Z</time>
</trkpt>
<trkpt lat="59.1078177" lon="31.2331548">
<ele>50.520000</ele>
<time>2026-08-27T23:50:21.000Z</time>
</trkpt>
<trkpt lat="59.1079045" lon="31.2332326">
<ele>49.000000</ele>
<time>2026-08-27T23:50:41.000Z</time>
</trkpt>
<trkpt lat="59.1079764" lon="31.2332741">
<ele>47.380001</ele>
<time>2026-08-27T23:51:00.000Z</time>
</trkpt>
<trkpt lat="59.1080185" lon="31.2331912">
<ele>46.110001</ele>
<time>2026-08-27T23:51:19.000Z</time>
</trkpt>
<trkpt lat="59.1080657" lon="31.2332382">
<ele>45.939999</ele>
<time>2026-08-27T23:51:39.000Z</time>
</trkpt>
<trkpt lat="59.1080557" lon="31.2333154">
<ele>45.809998</ele>
<time>2026-08-27T23:51:57.000Z</time>
</trkpt>
<trkpt lat="59.1080733" lon="31.2333960">
<ele>47.300003</ele>
<time>2026-08-27T23:52:17.000Z</time>
</trkpt>
<trkpt lat="59.1080774" lon="31.2334001">
<ele>47.189999</ele>
<time>2026-08-27T23:52:38.000Z</time>
</trkpt>
<trkpt lat="59.1080523" lon="31.2334485">
<ele>46.950001</ele>
<time>2026-08-27T23:53:03.000Z</time>
</trkpt>
<trkpt lat="59.1080613" lon="31.2334470">
<ele>47.110001</ele>
<time>2026-08-27T23:53:30.000Z</time>
</trkpt>
<trkpt lat="59.1080732" lon="31.2334413">
<ele>46.809998</ele>
<time>2026-08-27T23:53:55.000Z</time>
</trkpt>
<trkpt lat="59.1081068" lon="31.2334011">
<ele>46.199997</ele>
<time>2026-08-27T23:54:16.000Z</time>
</trkpt>
<trkpt lat="59.1081651" lon="31.2333523">
<ele>44.799999</ele>
<time>2026-08-27T23:54:35.000Z</time>
</trkpt>
<trkpt lat="59.1082488" lon="31.2333694">
<ele>43.580002</ele>
<time>2026-08-27T23:54:53.000Z</time>
</trkpt>
<trkpt lat="59.1083117" lon="31.2333241">
<ele>41.350002</ele>
<time>2026-08-27T23:55:10.000Z</time>
</trkpt>
<trkpt lat="59.1083473" lon="31.2332331">
<ele>39.750000</ele>
<time>2026-08-27T23:55:30.000Z</time>
</trkpt>
<trkpt lat="59.1083995" lon="31.2332219">
<ele>39.039997</ele>
<time>2026-08-27T23:55:45.000Z</time>
</trkpt>
<trkpt lat="59.1084451" lon="31.2332783">
<ele>39.630001</ele>
<time>2026-08-27T23:56:06.000Z</time>
</trkpt>
<trkpt lat="59.1084522" lon="31.2331644">
<ele>39.510002</ele>
<time>2026-08-27T23:56:23.000Z</time>
</trkpt>
<trkpt lat="59.1084965" lon="31.2331150">
<ele>40.419998</ele>
<time>2026-08-27T23:56:41.000Z</time>
</trkpt>
<trkpt lat="59.1085688" lon="31.2331145">
<ele>41.420002</ele>
<time>2026-08-27T23:57:02.000Z</time>
</trkpt>
<trkpt lat="59.1085912" lon="31.2330836">
<ele>42.480000</ele>
<time>2026-08-27T23:57:22.000Z</time>
</trkpt>
<trkpt lat="59.1086332" lon="31.2330789">
<ele>44.270000</ele>
<time>2026-08-27T23:57:45.000Z</time>
</trkpt>
<trkpt lat="59.1086479" lon="31.2330563">
<ele>43.619999</ele>
<time>2026-08-27T23:58:10.000Z</time>
</trkpt>
<trkpt lat="59.1086394" lon="31.2330774">
<ele>44.639999</ele>
<time>2026-08-27T23:58:35.000Z</time>
</trkpt>
<trkpt lat="59.1086933" lon="31.2331088">
<ele>44.079998</ele>
<time>2026-08-27T23:58:57.000Z</time>
</trkpt>
<trkpt lat="59.1087580" lon="31.2330824">
<ele>42.580002</ele>
<time>2026-08-27T23:59:13.000Z</time>
</trkpt>
<trkpt lat="59.1087923" lon="31.2331268">
<ele>42.590000</ele>
<time>2026-08-27T23:59:33.000Z</time>
</trkpt>
<trkpt lat="59.1088477" lon="31.2331463">
<ele>40.900002</ele>
<time>2026-08-27T23:59:51.000Z</time>
</trkpt>
<trkpt lat="59.1089305" lon="31.2332216">
<ele>39.010002</ele>
<time>2026-08-28T00:00:13.000Z</time>
</trkpt>
<trkpt lat="59.1089874" lon="31.2332984">
<ele>38.810001</ele>
<time>2026-08-28T00:00:33.000Z</time>
</trkpt>
<trkpt lat="59.1089863" lon="31.2333428">
<ele>39.670002</ele>
<time>2026-08-28T00:00:42.000Z</time>
</trkpt>
<trkpt lat="59.1090398" lon="31.2332993">
<ele>42.309998</ele>
<time>2026-08-28T00:01:04.000Z</time>
</trkpt>
<trkpt lat="59.1091112" lon="31.2333072">
<ele>42.680000</ele>
<time>2026-08-28T00:01:21.000Z</time>
</trkpt>
<trkpt lat="59.1091452" lon="31.2334601">
<ele>44.540001</ele>
<time>2026-08-28T00:01:45.000Z</time>
</trkpt>
<trkpt lat="59.1091302" lon="31.2334782">
<ele>45.470001</ele>
<time>2026-08-28T00:02:12.000Z</time>
</trkpt>
<trkpt lat="59.1091365" lon="31.2334846">
<ele>46.330002</ele>
<time>2026-08-28T00:02:35.000Z</time>
</trkpt>
<trkpt lat="59.1091512" lon="31.2335041">
<ele>47.010002</ele>
<time>2026-08-28T00:03:01.000Z</time>
</trkpt>
<trkpt lat="59.1091377" lon="31.2336301">
<ele>47.930000</ele>
<time>2026-08-28T00:03:21.000Z</time>
</trkpt>
<trkpt lat="59.1091223" lon="31.2337502">
<ele>48.939999</ele>
<time>2026-08-28T00:03:43.000Z</time>
</trkpt>
<trkpt lat="59.1090922" lon="31.2339310">
<ele>49.430000</ele>
<time>2026-08-28T00:04:00.000Z</time>
</trkpt>
<trkpt lat="59.1090645" lon="31.2340356">
<ele>49.350002</ele>
<time>2026-08-28T00:04:18.000Z</time>
</trkpt>
<trkpt lat="59.1090052" lon="31.2340854">
<ele>48.990002</ele>
<time>2026-08-28T00:04:39.000Z</time>
</trkpt>
<trkpt lat="59.1089470" lon="31.2341007">
<ele>50.260002</ele>
<time>2026-08-28T00:04:58.000Z</time>
</trkpt>
<trkpt lat="59.1089494" lon="31.2342511">
<ele>50.110001</ele>
<time>2026-08-28T00:05:16.000Z</time>
</trkpt>
<trkpt lat="59.1089133" lon="31.2343301">
<ele>49.709999</ele>
<time>2026-08-28T00:05:36.000Z</time>
</trkpt>
<trkpt lat="59.1088381" lon="31.2344055">
<ele>48.649998</ele>
<time>2026-08-28T00:05:59.000Z</time>
</trkpt>
<trkpt lat="59.1087961" lon="31.2343877">
<ele>47.740002</ele>
<time>2026-08-28T00:06:17.000Z</time>
</trkpt>
<trkpt lat="59.1087930" lon="31.2344791">
<ele>48.459999</ele>
<time>2026-08-28T00:06:39.000Z</time>
</trkpt>
<trkpt lat="59.1087773" lon="31.2345970">
<ele>48.730003</ele>
<time>2026-08-28T00:07:00.000Z</time>
</trkpt>
<trkpt lat="59.1088407" lon="31.2347497">
<ele>47.010002</ele>
<time>2026-08-28T00:07:20.000Z</time>
</trkpt>
<trkpt lat="59.1089269" lon="31.2347973">
<ele>46.070004</ele>
<time>2026-08-28T00:07:39.000Z</time>
</trkpt>
<trkpt lat="59.1089828" lon="31.2349162">
<ele>44.780003</ele>
<time>2026-08-28T00:07:58.000Z</time>
</trkpt>
<trkpt lat="59.1090613" lon="31.2350270">
<ele>44.279999</ele>
<time>2026-08-28T00:08:17.000Z</time>
</trkpt>
<trkpt lat="59.1090167" lon="31.2351186">
<ele>43.250004</ele>
<time>2026-08-28T00:08:35.000Z</time>
</trkpt>
<trkpt lat="59.1090459" lon="31.2352596">
<ele>43.840000</ele>
<time>2026-08-28T00:08:54.000Z</time>
</trkpt>
<trkpt lat="59.1090754" lon="31.2355105">
<ele>40.660004</ele>
<time>2026-08-28T00:09:15.000Z</time>
</trkpt>
<trkpt lat="59.1090390" lon="31.2355713">
<ele>41.590000</ele>
<time>2026-08-28T00:09:38.000Z</time>
</trkpt>
<trkpt lat="59.1089984" lon="31.2356425">
<ele>43.250004</ele>
<time>2026-08-28T00:09:58.000Z</time>
</trkpt>
<trkpt lat="59.1089844" lon="31.2357124">
<ele>44.090000</ele>
<time>2026-08-28T00:10:19.000Z</time>
</trkpt>
<trkpt lat="59.1089341" lon="31.2358578">
<ele>44.899998</ele>
<time>2026-08-28T00:10:40.000Z</time>
</trkpt>
<trkpt lat="59.1088798" lon="31.2360196">
<ele>45.679996</ele>
<time>2026-08-28T00:11:00.000Z</time>
</trkpt>
<trkpt lat="59.1089316" lon="31.2361057">
<ele>46.090000</ele>
<time>2026-08-28T00:11:18.000Z</time>
</trkpt>
<trkpt lat="59.1089989" lon="31.2362899">
<ele>44.040001</ele>
<time>2026-08-28T00:11:37.000Z</time>
</trkpt>
<trkpt lat="59.1090240" lon="31.2362644">
<ele>43.599998</ele>
<time>2026-08-28T00:11:52.000Z</time>
</trkpt>
<trkpt lat="59.1089928" lon="31.2363339">
<ele>45.029999</ele>
<time>2026-08-28T00:12:14.000Z</time>
</trkpt>
<trkpt lat="59.1090013" lon="31.2363268">
<ele>45.500000</ele>
<time>2026-08-28T00:12:38.000Z</time>
</trkpt>
<trkpt lat="59.1090439" lon="31.2363444">
<ele>45.180000</ele>
<time>2026-08-28T00:13:00.000Z</time>
</trkpt>
<trkpt lat="59.1091618" lon="31.2363958">
<ele>45.090000</ele>
<time>2026-08-28T00:13:21.000Z</time>
</trkpt>
<trkpt lat="59.1092855" lon="31.2363262">
<ele>45.540001</ele>
<time>2026-08-28T00:13:43.000Z</time>
</trkpt>
<trkpt lat="59.1093073" lon="31.2362500">
<ele>45.010002</ele>
<time>2026-08-28T00:14:02.000Z</time>
</trkpt>
<trkpt lat="59.1093910" lon="31.2361046">
<ele>43.849998</ele>
<time>2026-08-28T00:14:19.000Z</time>
</trkpt>
<trkpt lat="59.1094765" lon="31.2361004">
<ele>42.230000</ele>
<time>2026-08-28T00:14:34.000Z</time>
</trkpt>
<trkpt lat="59.1095184" lon="31.2361026">
<ele>44.839996</ele>
<time>2026-08-28T00:14:53.000Z</time>
</trkpt>
<trkpt lat="59.1094926" lon="31.2360647">
<ele>45.780003</ele>
<time>2026-08-28T00:15:13.000Z</time>
</trkpt>
<trkpt lat="59.1095028" lon="31.2360688">
<ele>45.110001</ele>
<time>2026-08-28T00:15:27.000Z</time>
</trkpt>
<trkpt lat="59.1094753" lon="31.2360336">
<ele>41.340004</ele>
<time>2026-08-28T00:15:48.000Z</time>
</trkpt>
<trkpt lat="59.1094808" lon="31.2360371">
<ele>40.419998</ele>
<time>2026-08-28T00:16:08.000Z</time>
</trkpt>
<trkpt lat="59.1094668" lon="31.2359735">
<ele>40.830002</ele>
<time>2026-08-28T00:16:29.000Z</time>
</trkpt>
<trkpt lat="59.1094492" lon="31.2359360">
<ele>41.389999</ele>
<time>2026-08-28T00:16:54.000Z</time>
</trkpt>
</trkseg>
<trkseg>
<trkpt lat="59.1094475" lon="31.2359228">
<ele>40.960003</ele>
<time>2026-08-28T00:17:11.000Z</time>
</trkpt>
<trkpt lat="59.1094554" lon="31.2359118">
<ele>41.350002</ele>
<time>2026-08-28T00:17:32.000Z</time>
</trkpt>
<trkpt lat="59.1094590" lon="31.2359445">
<ele>43.020000</ele>
<time>2026-08-28T00:17:51.000Z</time>
</trkpt>
<trkpt lat="59.1094748" lon="31.2360216">
<ele>43.219997</ele>
<time>2026-08-28T00:18:13.000Z</time>
</trkpt>
<trkpt lat="59.1094680" lon="31.2360049">
<ele>42.260002</ele>
<time>2026-08-28T00:18:30.000Z</time>
</trkpt>
<trkpt lat="59.1094785" lon="31.2359928">
<ele>43.279999</ele>
<time>2026-08-28T00:18:56.000Z</time>
</trkpt>
<trkpt lat="59.1095119" lon="31.2359874">
<ele>44.770000</ele>
<time>2026-08-28T00:19:23.000Z</time>
</trkpt>
<trkpt lat="59.1095366" lon="31.2359279">
<ele>44.650002</ele>
<time>2026-08-28T00:19:47.000Z</time>
</trkpt>
<trkpt lat="59.1095717" lon="31.2356062">
<ele>43.309998</ele>
<time>2026-08-28T00:20:07.000Z</time>
</trkpt>
<trkpt lat="59.1095863" lon="31.2352443">
<ele>38.580002</ele>
<time>2026-08-28T00:20:27.000Z</time>
</trkpt>
<trkpt lat="59.1095890" lon="31.2350018">
<ele>36.139999</ele>
<time>2026-08-28T00:20:46.000Z</time>
</trkpt>
<trkpt lat="59.1095757" lon="31.2347256">
<ele>33.009998</ele>
<time>2026-08-28T00:21:01.000Z</time>
</trkpt>
<trkpt lat="59.1095573" lon="31.2345913">
<ele>31.670000</ele>
<time>2026-08-28T00:21:07.000Z</time>
</trkpt>
<trkpt lat="59.1096188" lon="31.2343532">
<ele>30.740000</ele>
<time>2026-08-28T00:21:27.000Z</time>
</trkpt>
<trkpt lat="59.1096216" lon="31.2339264">
<ele>28.929998</ele>
<time>2026-08-28T00:21:48.000Z</time>
</trkpt>
<trkpt lat="59.1096418" lon="31.2336325">
<ele>29.400002</ele>
<time>2026-08-28T00:22:08.000Z</time>
</trkpt>
<trkpt lat="59.1096882" lon="31.2333166">
<ele>31.620001</ele>
<time>2026-08-28T00:22:29.000Z</time>
</trkpt>
<trkpt lat="59.1097031" lon="31.2329445">
<ele>29.100000</ele>
<time>2026-08-28T00:22:48.000Z</time>
</trkpt>
<trkpt lat="59.1097101" lon="31.2326242">
<ele>26.780001</ele>
<time>2026-08-28T00:23:06.000Z</time>
</trkpt>
<trkpt lat="59.1096967" lon="31.2321881">
<ele>25.450001</ele>
<time>2026-08-28T00:23:26.000Z</time>
</trkpt>
<trkpt lat="59.1097040" lon="31.2317850">
<ele>24.900002</ele>
<time>2026-08-28T00:23:45.000Z</time>
</trkpt>
<trkpt lat="59.1097352" lon="31.2314347">
<ele>23.000000</ele>
<time>2026-08-28T00:24:05.000Z</time>
</trkpt>
<trkpt lat="59.1097734" lon="31.2310840">
<ele>23.779999</ele>
<time>2026-08-28T00:24:23.000Z</time>
</trkpt>
<trkpt lat="59.1097725" lon="31.2308897">
<ele>22.820000</ele>
<time>2026-08-28T00:24:33.000Z</time>
</trkpt>
<trkpt lat="59.1097785" lon="31.2308584">
<ele>22.770000</ele>
<time>2026-08-28T00:24:35.000Z</time>
</trkpt>
<trkpt lat="59.1098014" lon="31.2304980">
<ele>25.530001</ele>
<time>2026-08-28T00:24:56.000Z</time>
</trkpt>
<trkpt lat="59.1098054" lon="31.2304779">
<ele>25.520000</ele>
<time>2026-08-28T00:24:57.000Z</time>
</trkpt>
<trkpt lat="59.1098249" lon="31.2301179">
<ele>25.750000</ele>
<time>2026-08-28T00:25:17.000Z</time>
</trkpt>
<trkpt lat="59.1098557" lon="31.2297542">
<ele>25.389999</ele>
<time>2026-08-28T00:25:37.000Z</time>
</trkpt>
<trkpt lat="59.1098736" lon="31.2292947">
<ele>24.030001</ele>
<time>2026-08-28T00:25:57.000Z</time>
</trkpt>
<trkpt lat="59.1098689" lon="31.2289089">
<ele>23.920000</ele>
<time>2026-08-28T00:26:15.000Z</time>
</trkpt>
<trkpt lat="59.1099112" lon="31.2286640">
<ele>23.490002</ele>
<time>2026-08-28T00:26:33.000Z</time>
</trkpt>
<trkpt lat="59.1099785" lon="31.2284671">
<ele>25.490000</ele>
<time>2026-08-28T00:26:54.000Z</time>
</trkpt>
<trkpt lat="59.1099707" lon="31.2282155">
<ele>26.289999</ele>
<time>2026-08-28T00:27:13.000Z</time>
</trkpt>
<trkpt lat="59.1100220" lon="31.2278080">
<ele>27.080000</ele>
<time>2026-08-28T00:27:33.000Z</time>
</trkpt>
<trkpt lat="59.1100658" lon="31.2275058">
<ele>26.639999</ele>
<time>2026-08-28T00:27:49.000Z</time>
</trkpt>
<trkpt lat="59.1100767" lon="31.2270858">
<ele>26.010000</ele>
<time>2026-08-28T00:28:10.000Z</time>
</trkpt>
<trkpt lat="59.1101024" lon="31.2266829">
<ele>23.360001</ele>
<time>2026-08-28T00:28:29.000Z</time>
</trkpt>
<trkpt lat="59.1101475" lon="31.2262380">
<ele>22.150000</ele>
<time>2026-08-28T00:28:47.000Z</time>
</trkpt>
<trkpt lat="59.1101512" lon="31.2257440">
<ele>22.230000</ele>
<time>2026-08-28T00:29:06.000Z</time>
</trkpt>
<trkpt lat="59.1101819" lon="31.2252316">
<ele>21.630001</ele>
<time>2026-08-28T00:29:30.000Z</time>
</trkpt>
<trkpt lat="59.1101626" lon="31.2248886">
<ele>21.360001</ele>
<time>2026-08-28T00:29:48.000Z</time>
</trkpt>
<trkpt lat="59.1101439" lon="31.2248166">
<ele>22.210001</ele>
<time>2026-08-28T00:30:09.000Z</time>
</trkpt>
<trkpt lat="59.1101922" lon="31.2248140">
<ele>23.259998</ele>
<time>2026-08-28T00:30:26.000Z</time>
</trkpt>
<trkpt lat="59.1102287" lon="31.2245151">
<ele>25.199999</ele>
<time>2026-08-28T00:30:46.000Z</time>
</trkpt>
<trkpt lat="59.1102613" lon="31.2241921">
<ele>26.189999</ele>
<time>2026-08-28T00:31:03.000Z</time>
</trkpt>
<trkpt lat="59.1102665" lon="31.2239984">
<ele>26.620001</ele>
<time>2026-08-28T00:31:19.000Z</time>
</trkpt>
<trkpt lat="59.1102943" lon="31.2236874">
<ele>26.320000</ele>
<time>2026-08-28T00:31:37.000Z</time>
</trkpt>
<trkpt lat="59.1102950" lon="31.2233787">
<ele>26.590000</ele>
<time>2026-08-28T00:31:55.000Z</time>
</trkpt>
<trkpt lat="59.1102990" lon="31.2231594">
<ele>26.379999</ele>
<time>2026-08-28T00:32:09.000Z</time>
</trkpt>
<trkpt lat="59.1103636" lon="31.2228546">
<ele>27.770000</ele>
<time>2026-08-28T00:32:30.000Z</time>
</trkpt>
<trkpt lat="59.1103955" lon="31.2224540">
<ele>27.629999</ele>
<time>2026-08-28T00:32:50.000Z</time>
</trkpt>
<trkpt lat="59.1103846" lon="31.2223741">
<ele>27.160000</ele>
<time>2026-08-28T00:32:54.000Z</time>
</trkpt>
<trkpt lat="59.1103189" lon="31.2220147">
<ele>27.650002</ele>
<time>2026-08-28T00:33:12.000Z</time>
</trkpt>
<trkpt lat="59.1103235" lon="31.2215937">
<ele>26.600000</ele>
<time>2026-08-28T00:33:29.000Z</time>
</trkpt>
<trkpt lat="59.1103924" lon="31.2211522">
<ele>28.119999</ele>
<time>2026-08-28T00:33:49.000Z</time>
</trkpt>
<trkpt lat="59.1104063" lon="31.2207696">
<ele>26.400000</ele>
<time>2026-08-28T00:34:10.000Z</time>
</trkpt>
<trkpt lat="59.1104696" lon="31.2202663">
<ele>24.820000</ele>
<time>2026-08-28T00:34:29.000Z</time>
</trkpt>
<trkpt lat="59.1104483" lon="31.2195621">
<ele>18.070000</ele>
<time>2026-08-28T00:34:51.000Z</time>
</trkpt>
<trkpt lat="59.1104569" lon="31.2190640">
<ele>13.770000</ele>
<time>2026-08-28T00:35:10.000Z</time>
</trkpt>
<trkpt lat="59.1104790" lon="31.2186270">
<ele>8.420000</ele>
<time>2026-08-28T00:35:29.000Z</time>
</trkpt>
<trkpt lat="59.1105083" lon="31.2180633">
<ele>2.820000</ele>
<time>2026-08-28T00:35:51.000Z</time>
</trkpt>
<trkpt lat="59.1105094" lon="31.2179084">
<ele>1.770000</ele>
<time>2026-08-28T00:35:59.000Z</time>
</trkpt>
<trkpt lat="59.1105304" lon="31.2175201">
<ele>-2.280000</ele>
<time>2026-08-28T00:36:19.000Z</time>
</trkpt>
<trkpt lat="59.1105543" lon="31.2170785">
<ele>-3.960000</ele>
<time>2026-08-28T00:36:39.000Z</time>
</trkpt>
<trkpt lat="59.1105806" lon="31.2166088">
<ele>-7.360000</ele>
<time>2026-08-28T00:36:58.000Z</time>
</trkpt>
<trkpt lat="59.1105854" lon="31.2162144">
<ele>-8.320000</ele>
<time>2026-08-28T00:37:14.000Z</time>
</trkpt>
<trkpt lat="59.1105981" lon="31.2156781">
<ele>-12.099999</ele>
<time>2026-08-28T00:37:37.000Z</time>
</trkpt>
<trkpt lat="59.1106198" lon="31.2152368">
<ele>-20.359999</ele>
<time>2026-08-28T00:37:57.000Z</time>
</trkpt>
<trkpt lat="59.1106604" lon="31.2148371">
<ele>-22.810001</ele>
<time>2026-08-28T00:38:14.000Z</time>
</trkpt>
<trkpt lat="59.1106666" lon="31.2145907">
<ele>-17.430000</ele>
<time>2026-08-28T00:38:30.000Z</time>
</trkpt>
<trkpt lat="59.1107283" lon="31.2144370">
<ele>-15.270000</ele>
<time>2026-08-28T00:38:46.000Z</time>
</trkpt>
<trkpt lat="59.1107386" lon="31.2140094">
<ele>-15.540000</ele>
<time>2026-08-28T00:39:06.000Z</time>
</trkpt>
<trkpt lat="59.1107418" lon="31.2135846">
<ele>-18.119999</ele>
<time>2026-08-28T00:39:26.000Z</time>
</trkpt>
<trkpt lat="59.1107203" lon="31.2132471">
<ele>-17.309999</ele>
<time>2026-08-28T00:39:47.000Z</time>
</trkpt>
<trkpt lat="59.1107562" lon="31.2129422">
<ele>-15.799999</ele>
<time>2026-08-28T00:40:01.000Z</time>
</trkpt>
<trkpt lat="59.1107866" lon="31.2124227">
<ele>-15.000000</ele>
<time>2026-08-28T00:40:24.000Z</time>
</trkpt>
<trkpt lat="59.1107961" lon="31.2119089">
<ele>-11.180000</ele>
<time>2026-08-28T00:40:47.000Z</time>
</trkpt>
<trkpt lat="59.1108174" lon="31.2115829">
<ele>-8.150001</ele>
<time>2026-08-28T00:41:03.000Z</time>
</trkpt>
<trkpt lat="59.1108520" lon="31.2111841">
<ele>-6.910000</ele>
<time>2026-08-28T00:41:21.000Z</time>
</trkpt>
<trkpt lat="59.1108321" lon="31.2109772">
<ele>-6.350000</ele>
<time>2026-08-28T00:41:34.000Z</time>
</trkpt>
<trkpt lat="59.1108851" lon="31.2106273">
<ele>-2.260000</ele>
<time>2026-08-28T00:41:54.000Z</time>
</trkpt>
<trkpt lat="59.1108763" lon="31.2103901">
<ele>2.800000</ele>
<time>2026-08-28T00:42:14.000Z</time>
</trkpt>
<trkpt lat="59.1109461" lon="31.2099305">
<ele>4.380000</ele>
<time>2026-08-28T00:42:37.000Z</time>
</trkpt>
<trkpt lat="59.1109735" lon="31.2096905">
<ele>5.440000</ele>
<time>2026-08-28T00:42:50.000Z</time>
</trkpt>
<trkpt lat="59.1109696" lon="31.2094159">
<ele>5.740000</ele>
<time>2026-08-28T00:43:03.000Z</time>
</trkpt>
<trkpt lat="59.1110143" lon="31.2090532">
<ele>7.010000</ele>
<time>2026-08-28T00:43:21.000Z</time>
</trkpt>
<trkpt lat="59.1110789" lon="31.2085951">
<ele>10.210000</ele>
<time>2026-08-28T00:43:41.000Z</time>
</trkpt>
<trkpt lat="59.1110782" lon="31.2085514">
<ele>10.730000</ele>
<time>2026-08-28T00:43:44.000Z</time>
</trkpt>
<trkpt lat="59.1111570" lon="31.2081547">
<ele>12.850000</ele>
<time>2026-08-28T00:44:02.000Z</time>
</trkpt>
<trkpt lat="59.1111699" lon="31.2080916">
<ele>13.560000</ele>
<time>2026-08-28T00:44:05.000Z</time>
</trkpt>
<trkpt lat="59.1112054" lon="31.2076309">
<ele>16.600000</ele>
<time>2026-08-28T00:44:26.000Z</time>
</trkpt>
<trkpt lat="59.1111950" lon="31.2073868">
<ele>17.209999</ele>
<time>2026-08-28T00:44:41.000Z</time>
</trkpt>
<trkpt lat="59.1112126" lon="31.2069449">
<ele>17.790001</ele>
<time>2026-08-28T00:44:59.000Z</time>
</trkpt>
<trkpt lat="59.1112631" lon="31.2066166">
<ele>24.340000</ele>
<time>2026-08-28T00:45:13.000Z</time>
</trkpt>
<trkpt lat="59.1113083" lon="31.2062604">
<ele>30.470001</ele>
<time>2026-08-28T00:45:31.000Z</time>
</trkpt>
<trkpt lat="59.1113724" lon="31.2060454">
<ele>33.340000</ele>
<time>2026-08-28T00:45:45.000Z</time>
</trkpt>
<trkpt lat="59.1113825" lon="31.2059715">
<ele>33.869999</ele>
<time>2026-08-28T00:45:48.000Z</time>
</trkpt>
<trkpt lat="59.1115128" lon="31.2054875">
<ele>33.250000</ele>
<time>2026-08-28T00:46:10.000Z</time>
</trkpt>
<trkpt lat="59.1116328" lon="31.2051063">
<ele>34.320000</ele>
<time>2026-08-28T00:46:33.000Z</time>
</trkpt>
<trkpt lat="59.1116599" lon="31.2050199">
<ele>35.060001</ele>
<time>2026-08-28T00:46:37.000Z</time>
</trkpt>
<trkpt lat="59.1118258" lon="31.2046808">
<ele>37.950001</ele>
<time>2026-08-28T00:46:58.000Z</time>
</trkpt>
<trkpt lat="59.1120832" lon="31.2043388">
<ele>42.209999</ele>
<time>2026-08-28T00:47:23.000Z</time>
</trkpt>
<trkpt lat="59.1122784" lon="31.2040551">
<ele>42.650002</ele>
<time>2026-08-28T00:47:42.000Z</time>
</trkpt>
<trkpt lat="59.1124217" lon="31.2037650">
<ele>39.099998</ele>
<time>2026-08-28T00:47:59.000Z</time>
</trkpt>
<trkpt lat="59.1125077" lon="31.2034711">
<ele>37.110001</ele>
<time>2026-08-28T00:48:18.000Z</time>
</trkpt>
<trkpt lat="59.1125495" lon="31.2031989">
<ele>37.989998</ele>
<time>2026-08-28T00:48:35.000Z</time>
</trkpt>
<trkpt lat="59.1126133" lon="31.2031660">
<ele>39.210003</ele>
<time>2026-08-28T00:48:56.000Z</time>
</trkpt>
<trkpt lat="59.1126393" lon="31.2031975">
<ele>42.149998</ele>
<time>2026-08-28T00:49:23.000Z</time>
</trkpt>
<trkpt lat="59.1126333" lon="31.2031369">
<ele>42.970001</ele>
<time>2026-08-28T00:49:49.000Z</time>
</trkpt>
<trkpt lat="59.1127239" lon="31.2029889">
<ele>44.100002</ele>
<time>2026-08-28T00:50:04.000Z</time>
</trkpt>
<trkpt lat="59.1128311" lon="31.2027282">
<ele>41.880001</ele>
<time>2026-08-28T00:50:20.000Z</time>
</trkpt>
<trkpt lat="59.1129245" lon="31.2025851">
<ele>41.930000</ele>
<time>2026-08-28T00:50:31.000Z</time>
</trkpt>
<trkpt lat="59.1130412" lon="31.2023726">
<ele>42.800003</ele>
<time>2026-08-28T00:50:54.000Z</time>
</trkpt>
<trkpt lat="59.1131082" lon="31.2022154">
<ele>41.529999</ele>
<time>2026-08-28T00:51:03.000Z</time>
</trkpt>
<trkpt lat="59.1132570" lon="31.2018578">
<ele>40.450001</ele>
<time>2026-08-28T00:51:22.000Z</time>
</trkpt>
<trkpt lat="59.1134553" lon="31.2014829">
<ele>42.520000</ele>
<time>2026-08-28T00:51:42.000Z</time>
</trkpt>
<trkpt lat="59.1135962" lon="31.2010369">
<ele>40.130001</ele>
<time>2026-08-28T00:52:02.000Z</time>
</trkpt>
<trkpt lat="59.1136711" lon="31.2005991">
<ele>40.430000</ele>
<time>2026-08-28T00:52:22.000Z</time>
</trkpt>
<trkpt lat="59.1136774" lon="31.2000894">
<ele>37.520000</ele>
<time>2026-08-28T00:52:43.000Z</time>
</trkpt>
<trkpt lat="59.1137411" lon="31.1996174">
<ele>35.209999</ele>
<time>2026-08-28T00:53:04.000Z</time>
</trkpt>
<trkpt lat="59.1137678" lon="31.1991078">
<ele>33.020000</ele>
<time>2026-08-28T00:53:25.000Z</time>
</trkpt>
<trkpt lat="59.1137823" lon="31.1986033">
<ele>31.730000</ele>
<time>2026-08-28T00:53:45.000Z</time>
</trkpt>
<trkpt lat="59.1137881" lon="31.1982605">
<ele>34.570000</ele>
<time>2026-08-28T00:54:06.000Z</time>
</trkpt>
<trkpt lat="59.1137800" lon="31.1978630">
<ele>39.090000</ele>
<time>2026-08-28T00:54:27.000Z</time>
</trkpt>
<trkpt lat="59.1138010" lon="31.1973978">
<ele>38.910000</ele>
<time>2026-08-28T00:54:48.000Z</time>
</trkpt>
<trkpt lat="59.1138217" lon="31.1970327">
<ele>39.419998</ele>
<time>2026-08-28T00:55:06.000Z</time>
</trkpt>
<trkpt lat="59.1138035" lon="31.1966980">
<ele>38.250000</ele>
<time>2026-08-28T00:55:26.000Z</time>
</trkpt>
<trkpt lat="59.1138531" lon="31.1963353">
<ele>39.349998</ele>
<time>2026-08-28T00:55:45.000Z</time>
</trkpt>
<trkpt lat="59.1138586" lon="31.1959119">
<ele>42.529999</ele>
<time>2026-08-28T00:56:06.000Z</time>
</trkpt>
<trkpt lat="59.1138759" lon="31.1955919">
<ele>42.810001</ele>
<time>2026-08-28T00:56:25.000Z</time>
</trkpt>
<trkpt lat="59.1139305" lon="31.1953340">
<ele>44.240002</ele>
<time>2026-08-28T00:56:45.000Z</time>
</trkpt>
<trkpt lat="59.1139393" lon="31.1949046">
<ele>42.660000</ele>
<time>2026-08-28T00:57:05.000Z</time>
</trkpt>
<trkpt lat="59.1139273" lon="31.1947054">
<ele>43.580002</ele>
<time>2026-08-28T00:57:23.000Z</time>
</trkpt>
<trkpt lat="59.1139521" lon="31.1943790">
<ele>42.829998</ele>
<time>2026-08-28T00:57:40.000Z</time>
</trkpt>
<trkpt lat="59.1139656" lon="31.1940022">
<ele>45.380001</ele>
<time>2026-08-28T00:57:59.000Z</time>
</trkpt>
<trkpt lat="59.1139910" lon="31.1935620">
<ele>44.110001</ele>
<time>2026-08-28T00:58:22.000Z</time>
</trkpt>
<trkpt lat="59.1139687" lon="31.1931890">
<ele>41.130001</ele>
<time>2026-08-28T00:58:44.000Z</time>
</trkpt>
<trkpt lat="59.1139920" lon="31.1928253">
<ele>43.599998</ele>
<time>2026-08-28T00:59:04.000Z</time>
</trkpt>
<trkpt lat="59.1140143" lon="31.1924636">
<ele>44.639999</ele>
<time>2026-08-28T00:59:24.000Z</time>
</trkpt>
<trkpt lat="59.1140308" lon="31.1920289">
<ele>42.759998</ele>
<time>2026-08-28T00:59:43.000Z</time>
</trkpt>
<trkpt lat="59.1140579" lon="31.1915961">
<ele>42.070000</ele>
<time>2026-08-28T01:00:04.000Z</time>
</trkpt>
<trkpt lat="59.1140910" lon="31.1912514">
<ele>41.299999</ele>
<time>2026-08-28T01:00:25.000Z</time>
</trkpt>
<trkpt lat="59.1140915" lon="31.1909233">
<ele>43.000000</ele>
<time>2026-08-28T01:00:44.000Z</time>
</trkpt>
<trkpt lat="59.1140963" lon="31.1905234">
<ele>40.549999</ele>
<time>2026-08-28T01:01:04.000Z</time>
</trkpt>
<trkpt lat="59.1140857" lon="31.1901280">
<ele>36.779999</ele>
<time>2026-08-28T01:01:24.000Z</time>
</trkpt>
<trkpt lat="59.1140978" lon="31.1897645">
<ele>34.750000</ele>
<time>2026-08-28T01:01:42.000Z</time>
</trkpt>
<trkpt lat="59.1141224" lon="31.1894833">
<ele>33.309998</ele>
<time>2026-08-28T01:01:56.000Z</time>
</trkpt>
<trkpt lat="59.1141282" lon="31.1889710">
<ele>31.650002</ele>
<time>2026-08-28T01:02:17.000Z</time>
</trkpt>
<trkpt lat="59.1141566" lon="31.1888557">
<ele>34.320000</ele>
<time>2026-08-28T01:02:36.000Z</time>
</trkpt>
<trkpt lat="59.1141752" lon="31.1884733">
<ele>35.290001</ele>
<time>2026-08-28T01:02:56.000Z</time>
</trkpt>
<trkpt lat="59.1141889" lon="31.1881226">
<ele>38.189999</ele>
<time>2026-08-28T01:03:15.000Z</time>
</trkpt>
<trkpt lat="59.1142248" lon="31.1877241">
<ele>37.100002</ele>
<time>2026-08-28T01:03:35.000Z</time>
</trkpt>
<trkpt lat="59.1142367" lon="31.1872812">
<ele>35.290001</ele>
<time>2026-08-28T01:03:53.000Z</time>
</trkpt>
<trkpt lat="59.1142526" lon="31.1871390">
<ele>34.549999</ele>
<time>2026-08-28T01:04:01.000Z</time>
</trkpt>
<trkpt lat="59.1142660" lon="31.1867005">
<ele>34.149998</ele>
<time>2026-08-28T01:04:22.000Z</time>
</trkpt>
<trkpt lat="59.1142917" lon="31.1863641">
<ele>32.790001</ele>
<time>2026-08-28T01:04:37.000Z</time>
</trkpt>
<trkpt lat="59.1142847" lon="31.1859311">
<ele>31.170000</ele>
<time>2026-08-28T01:04:57.000Z</time>
</trkpt>
<trkpt lat="59.1142980" lon="31.1857157">
<ele>36.020000</ele>
<time>2026-08-28T01:05:17.000Z</time>
</trkpt>
<trkpt lat="59.1143050" lon="31.1854103">
<ele>38.090000</ele>
<time>2026-08-28T01:05:35.000Z</time>
</trkpt>
<trkpt lat="59.1143399" lon="31.1851757">
<ele>40.939999</ele>
<time>2026-08-28T01:05:54.000Z</time>
</trkpt>
<trkpt lat="59.1143507" lon="31.1849132">
<ele>45.650002</ele>
<time>2026-08-28T01:06:15.000Z</time>
</trkpt>
<trkpt lat="59.1143502" lon="31.1848373">
<ele>45.570000</ele>
<time>2026-08-28T01:06:20.000Z</time>
</trkpt>
<trkpt lat="59.1143348" lon="31.1845693">
<ele>46.470001</ele>
<time>2026-08-28T01:06:45.000Z</time>
</trkpt>
<trkpt lat="59.1143551" lon="31.1844399">
<ele>51.710003</ele>
<time>2026-08-28T01:07:08.000Z</time>
</trkpt>
<trkpt lat="59.1143692" lon="31.1842753">
<ele>55.230000</ele>
<time>2026-08-28T01:07:27.000Z</time>
</trkpt>
<trkpt lat="59.1143780" lon="31.1839585">
<ele>54.430000</ele>
<time>2026-08-28T01:07:47.000Z</time>
</trkpt>
<trkpt lat="59.1143938" lon="31.1835307">
<ele>49.549999</ele>
<time>2026-08-28T01:08:07.000Z</time>
</trkpt>
<trkpt lat="59.1144165" lon="31.1830249">
<ele>44.639999</ele>
<time>2026-08-28T01:08:29.000Z</time>
</trkpt>
<trkpt lat="59.1144349" lon="31.1826718">
<ele>44.480000</ele>
<time>2026-08-28T01:08:48.000Z</time>
</trkpt>
<trkpt lat="59.1144457" lon="31.1823097">
<ele>43.160000</ele>
<time>2026-08-28T01:09:09.000Z</time>
</trkpt>
<trkpt lat="59.1144714" lon="31.1821498">
<ele>42.560001</ele>
<time>2026-08-28T01:09:18.000Z</time>
</trkpt>
<trkpt lat="59.1144608" lon="31.1820578">
<ele>42.450001</ele>
<time>2026-08-28T01:09:22.000Z</time>
</trkpt>
<trkpt lat="59.1144445" lon="31.1820179">
<ele>42.450001</ele>
<time>2026-08-28T01:09:24.000Z</time>
</trkpt>
<trkpt lat="59.1142163" lon="31.1818611">
<ele>42.430000</ele>
<time>2026-08-28T01:09:41.000Z</time>
</trkpt>
<trkpt lat="59.1140332" lon="31.1818280">
<ele>43.040001</ele>
<time>2026-08-28T01:09:55.000Z</time>
</trkpt>
<trkpt lat="59.1138894" lon="31.1817772">
<ele>42.880001</ele>
<time>2026-08-28T01:10:08.000Z</time>
</trkpt>
<trkpt lat="59.1137530" lon="31.1818109">
<ele>39.389999</ele>
<time>2026-08-28T01:10:21.000Z</time>
</trkpt>
<trkpt lat="59.1135724" lon="31.1818403">
<ele>33.770000</ele>
<time>2026-08-28T01:10:36.000Z</time>
</trkpt>
<trkpt lat="59.1133597" lon="31.1818818">
<ele>31.040001</ele>
<time>2026-08-28T01:10:52.000Z</time>
</trkpt>
<trkpt lat="59.1133221" lon="31.1819103">
<ele>31.040001</ele>
<time>2026-08-28T01:10:55.000Z</time>
</trkpt>
<trkpt lat="59.1131097" lon="31.1819378">
<ele>25.840000</ele>
<time>2026-08-28T01:11:12.000Z</time>
</trkpt>
<trkpt lat="59.1129253" lon="31.1820044">
<ele>22.360001</ele>
<time>2026-08-28T01:11:26.000Z</time>
</trkpt>
<trkpt lat="59.1127588" lon="31.1820559">
<ele>19.800001</ele>
<time>2026-08-28T01:11:40.000Z</time>
</trkpt>
<trkpt lat="59.1125747" lon="31.1821126">
<ele>18.600000</ele>
<time>2026-08-28T01:11:53.000Z</time>
</trkpt>
<trkpt lat="59.1123665" lon="31.1822009">
<ele>19.080000</ele>
<time>2026-08-28T01:12:09.000Z</time>
</trkpt>
<trkpt lat="59.1122807" lon="31.1820844">
<ele>30.690001</ele>
<time>2026-08-28T01:12:30.000Z</time>
</trkpt>
<trkpt lat="59.1122605" lon="31.1819651">
<ele>40.930000</ele>
<time>2026-08-28T01:12:56.000Z</time>
</trkpt>
<trkpt lat="59.1120896" lon="31.1820877">
<ele>40.290001</ele>
<time>2026-08-28T01:13:11.000Z</time>
</trkpt>
<trkpt lat="59.1120567" lon="31.1821213">
<ele>39.670002</ele>
<time>2026-08-28T01:13:14.000Z</time>
</trkpt>
<trkpt lat="59.1120038" lon="31.1821893">
<ele>37.889999</ele>
<time>2026-08-28T01:13:22.000Z</time>
</trkpt>
<trkpt lat="59.1119770" lon="31.1821621">
<ele>43.959999</ele>
<time>2026-08-28T01:13:48.000Z</time>
</trkpt>
<trkpt lat="59.1119595" lon="31.1821387">
<ele>44.299999</ele>
<time>2026-08-28T01:13:50.000Z</time>
</trkpt>
<trkpt lat="59.1119250" lon="31.1821435">
<ele>44.480000</ele>
<time>2026-08-28T01:13:53.000Z</time>
</trkpt>
<trkpt lat="59.1119052" lon="31.1821652">
<ele>44.340000</ele>
<time>2026-08-28T01:13:55.000Z</time>
</trkpt>
<trkpt lat="59.1118074" lon="31.1822103">
<ele>42.759998</ele>
<time>2026-08-28T01:14:03.000Z</time>
</trkpt>
<trkpt lat="59.1116589" lon="31.1823268">
<ele>40.510002</ele>
<time>2026-08-28T01:14:18.000Z</time>
</trkpt>
<trkpt lat="59.1116276" lon="31.1822348">
<ele>42.330002</ele>
<time>2026-08-28T01:14:40.000Z</time>
</trkpt>
<trkpt lat="59.1114968" lon="31.1822786">
<ele>42.469997</ele>
<time>2026-08-28T01:14:50.000Z</time>
</trkpt>
<trkpt lat="59.1112375" lon="31.1823921">
<ele>42.950001</ele>
<time>2026-08-28T01:15:09.000Z</time>
</trkpt>
<trkpt lat="59.1109234" lon="31.1824759">
<ele>42.950001</ele>
<time>2026-08-28T01:15:31.000Z</time>
</trkpt>
<trkpt lat="59.1106812" lon="31.1825876">
<ele>41.209999</ele>
<time>2026-08-28T01:15:51.000Z</time>
</trkpt>
<trkpt lat="59.1104713" lon="31.1826226">
<ele>40.339996</ele>
<time>2026-08-28T01:16:06.000Z</time>
</trkpt>
<trkpt lat="59.1102473" lon="31.1826816">
<ele>38.810001</ele>
<time>2026-08-28T01:16:23.000Z</time>
</trkpt>
<trkpt lat="59.1100249" lon="31.1827315">
<ele>37.939999</ele>
<time>2026-08-28T01:16:38.000Z</time>
</trkpt>
<trkpt lat="59.1097921" lon="31.1827909">
<ele>37.139999</ele>
<time>2026-08-28T01:16:55.000Z</time>
</trkpt>
<trkpt lat="59.1097283" lon="31.1828022">
<ele>37.290001</ele>
<time>2026-08-28T01:16:59.000Z</time>
</trkpt>
<trkpt lat="59.1095858" lon="31.1828475">
<ele>36.370003</ele>
<time>2026-08-28T01:17:10.000Z</time>
</trkpt>
<trkpt lat="59.1093957" lon="31.1828686">
<ele>33.520000</ele>
<time>2026-08-28T01:17:24.000Z</time>
</trkpt>
<trkpt lat="59.1091657" lon="31.1829271">
<ele>30.369999</ele>
<time>2026-08-28T01:17:41.000Z</time>
</trkpt>
<trkpt lat="59.1089793" lon="31.1829734">
<ele>30.960001</ele>
<time>2026-08-28T01:17:55.000Z</time>
</trkpt>
<trkpt lat="59.1087964" lon="31.1829827">
<ele>30.680000</ele>
<time>2026-08-28T01:18:09.000Z</time>
</trkpt>
<trkpt lat="59.1085918" lon="31.1830647">
<ele>31.400000</ele>
<time>2026-08-28T01:18:24.000Z</time>
</trkpt>
<trkpt lat="59.1083994" lon="31.1831441">
<ele>32.320000</ele>
<time>2026-08-28T01:18:38.000Z</time>
</trkpt>
<trkpt lat="59.1081985" lon="31.1832085">
<ele>33.180000</ele>
<time>2026-08-28T01:18:53.000Z</time>
</trkpt>
<trkpt lat="59.1079802" lon="31.1832178">
<ele>34.879997</ele>
<time>2026-08-28T01:19:08.000Z</time>
</trkpt>
<trkpt lat="59.1077704" lon="31.1832772">
<ele>33.840000</ele>
<time>2026-08-28T01:19:24.000Z</time>
</trkpt>
<trkpt lat="59.1075006" lon="31.1833540">
<ele>32.310001</ele>
<time>2026-08-28T01:19:44.000Z</time>
</trkpt>
<trkpt lat="59.1073102" lon="31.1833659">
<ele>31.029999</ele>
<time>2026-08-28T01:19:58.000Z</time>
</trkpt>
<trkpt lat="59.1071341" lon="31.1833785">
<ele>28.800001</ele>
<time>2026-08-28T01:20:12.000Z</time>
</trkpt>
<trkpt lat="59.1071012" lon="31.1833868">
<ele>28.660000</ele>
<time>2026-08-28T01:20:14.000Z</time>
</trkpt>
<trkpt lat="59.1069844" lon="31.1834017">
<ele>30.180000</ele>
<time>2026-08-28T01:20:28.000Z</time>
</trkpt>
<trkpt lat="59.1067928" lon="31.1833846">
<ele>31.179998</ele>
<time>2026-08-28T01:20:43.000Z</time>
</trkpt>
<trkpt lat="59.1067725" lon="31.1834783">
<ele>39.070000</ele>
<time>2026-08-28T01:21:00.000Z</time>
</trkpt>
<trkpt lat="59.1067530" lon="31.1834748">
<ele>41.079998</ele>
<time>2026-08-28T01:21:12.000Z</time>
</trkpt>
<trkpt lat="59.1067006" lon="31.1834552">
<ele>42.220001</ele>
<time>2026-08-28T01:21:17.000Z</time>
</trkpt>
<trkpt lat="59.1066485" lon="31.1834710">
<ele>43.480003</ele>
<time>2026-08-28T01:21:21.000Z</time>
</trkpt>
<trkpt lat="59.1065435" lon="31.1834611">
<ele>44.920002</ele>
<time>2026-08-28T01:21:29.000Z</time>
</trkpt>
<trkpt lat="59.1063676" lon="31.1833677">
<ele>45.480000</ele>
<time>2026-08-28T01:21:44.000Z</time>
</trkpt>
<trkpt lat="59.1061636" lon="31.1832438">
<ele>42.740002</ele>
<time>2026-08-28T01:22:00.000Z</time>
</trkpt>
<trkpt lat="59.1061286" lon="31.1831803">
<ele>43.340000</ele>
<time>2026-08-28T01:22:04.000Z</time>
</trkpt>
<trkpt lat="59.1060530" lon="31.1831702">
<ele>43.750000</ele>
<time>2026-08-28T01:22:09.000Z</time>
</trkpt>
<trkpt lat="59.1060228" lon="31.1831534">
<ele>43.500000</ele>
<time>2026-08-28T01:22:11.000Z</time>
</trkpt>
<trkpt lat="59.1058920" lon="31.1829484">
<ele>45.209999</ele>
<time>2026-08-28T01:22:25.000Z</time>
</trkpt>
<trkpt lat="59.1057574" lon="31.1826865">
<ele>47.020000</ele>
<time>2026-08-28T01:22:40.000Z</time>
</trkpt>
<trkpt lat="59.1055857" lon="31.1823993">
<ele>46.090000</ele>
<time>2026-08-28T01:22:57.000Z</time>
</trkpt>
<trkpt lat="59.1055682" lon="31.1823678">
<ele>45.799999</ele>
<time>2026-08-28T01:22:59.000Z</time>
</trkpt>
<trkpt lat="59.1055478" lon="31.1823413">
<ele>45.340000</ele>
<time>2026-08-28T01:23:01.000Z</time>
</trkpt>
<trkpt lat="59.1053905" lon="31.1820788">
<ele>43.630001</ele>
<time>2026-08-28T01:23:18.000Z</time>
</trkpt>
<trkpt lat="59.1052180" lon="31.1817356">
<ele>40.389999</ele>
<time>2026-08-28T01:23:34.000Z</time>
</trkpt>
<trkpt lat="59.1051144" lon="31.1815223">
<ele>39.579998</ele>
<time>2026-08-28T01:23:43.000Z</time>
</trkpt>
<trkpt lat="59.1049590" lon="31.1812597">
<ele>37.970001</ele>
<time>2026-08-28T01:23:59.000Z</time>
</trkpt>
<trkpt lat="59.1047710" lon="31.1809230">
<ele>38.450001</ele>
<time>2026-08-28T01:24:18.000Z</time>
</trkpt>
<trkpt lat="59.1045896" lon="31.1806182">
<ele>41.689999</ele>
<time>2026-08-28T01:24:34.000Z</time>
</trkpt>
<trkpt lat="59.1044460" lon="31.1805637">
<ele>41.000000</ele>
<time>2026-08-28T01:24:47.000Z</time>
</trkpt>
<trkpt lat="59.1042867" lon="31.1806038">
<ele>38.980000</ele>
<time>2026-08-28T01:25:05.000Z</time>
</trkpt>
<trkpt lat="59.1042102" lon="31.1806467">
<ele>38.170002</ele>
<time>2026-08-28T01:25:18.000Z</time>
</trkpt>
<trkpt lat="59.1041830" lon="31.1806232">
<ele>40.709999</ele>
<time>2026-08-28T01:25:49.000Z</time>
</trkpt>
<trkpt lat="59.1042174" lon="31.1805320">
<ele>44.989998</ele>
<time>2026-08-28T01:26:09.000Z</time>
</trkpt>
<trkpt lat="59.1041905" lon="31.1805312">
<ele>45.500000</ele>
<time>2026-08-28T01:26:31.000Z</time>
</trkpt>
<trkpt lat="59.1042021" lon="31.1806548">
<ele>45.660000</ele>
<time>2026-08-28T01:26:45.000Z</time>
</trkpt>
<trkpt lat="59.1042033" lon="31.1806594">
<ele>45.690002</ele>
<time>2026-08-28T01:26:47.000Z</time>
</trkpt>
<trkpt lat="59.1041528" lon="31.1807313">
<ele>43.950001</ele>
<time>2026-08-28T01:27:16.000Z</time>
</trkpt>
<trkpt lat="59.1041405" lon="31.1807161">
<ele>42.230000</ele>
<time>2026-08-28T01:27:29.000Z</time>
</trkpt>
<trkpt lat="59.1041526" lon="31.1806505">
<ele>41.480000</ele>
<time>2026-08-28T01:27:42.000Z</time>
</trkpt>
<trkpt lat="59.1041505" lon="31.1806128">
<ele>43.330002</ele>
<time>2026-08-28T01:28:02.000Z</time>
</trkpt>
<trkpt lat="59.1041560" lon="31.1805370">
<ele>46.189999</ele>
<time>2026-08-28T01:28:28.000Z</time>
</trkpt>
<trkpt lat="59.1041557" lon="31.1805098">
<ele>48.900002</ele>
<time>2026-08-28T01:28:48.000Z</time>
</trkpt>
</trkseg>
<trkseg>
<trkpt lat="59.4809458" lon="31.0211713">
<ele>36.860001</ele>
<time>2026-08-31T18:13:04.000Z</time>
</trkpt>
<trkpt lat="59.4811875" lon="31.0209773">
<ele>50.840000</ele>
<time>2026-08-31T18:13:24.000Z</time>
</trkpt>
<trkpt lat="59.4810344" lon="31.0210037">
<ele>46.920002</ele>
<time>2026-08-31T18:13:41.000Z</time>
</trkpt>
<trkpt lat="59.4810985" lon="31.0209591">
<ele>40.700001</ele>
<time>2026-08-31T18:14:10.000Z</time>
</trkpt>
<trkpt lat="59.4810843" lon="31.0209597">
<ele>43.000000</ele>
<time>2026-08-31T18:14:38.000Z</time>
</trkpt>
<trkpt lat="59.4811096" lon="31.0209746">
<ele>46.700001</ele>
<time>2026-08-31T18:15:00.000Z</time>
</trkpt>
<trkpt lat="59.4810920" lon="31.0210392">
<ele>48.709999</ele>
<time>2026-08-31T18:15:22.000Z</time>
</trkpt>
<trkpt lat="59.4811036" lon="31.0210757">
<ele>50.650002</ele>
<time>2026-08-31T18:15:53.000Z</time>
</trkpt>
<trkpt lat="59.4810976" lon="31.0210641">
<ele>52.730000</ele>
<time>2026-08-31T18:16:14.000Z</time>
</trkpt>
<trkpt lat="59.4810893" lon="31.0211211">
<ele>56.610001</ele>
<time>2026-08-31T18:16:44.000Z</time>
</trkpt>
<trkpt lat="59.4810901" lon="31.0211263">
<ele>57.709999</ele>
<time>2026-08-31T18:17:00.000Z</time>
</trkpt>
<trkpt lat="59.4811166" lon="31.0210887">
<ele>56.960003</ele>
<time>2026-08-31T18:17:16.000Z</time>
</trkpt>
<trkpt lat="59.4810760" lon="31.0210180">
<ele>56.470001</ele>
<time>2026-08-31T18:18:13.000Z</time>
</trkpt>
<trkpt lat="59.4810300" lon="31.0211366">
<ele>56.410000</ele>
<time>2026-08-31T18:18:22.000Z</time>
</trkpt>
<trkpt lat="59.4809244" lon="31.0214345">
<ele>56.250000</ele>
<time>2026-08-31T18:18:31.000Z</time>
</trkpt>
<trkpt lat="59.4806935" lon="31.0217901">
<ele>55.849998</ele>
<time>2026-08-31T18:18:48.000Z</time>
</trkpt>
<trkpt lat="59.4802203" lon="31.0227067">
<ele>56.389999</ele>
<time>2026-08-31T18:18:57.000Z</time>
</trkpt>
<trkpt lat="59.4794704" lon="31.0240987">
<ele>54.899998</ele>
<time>2026-08-31T18:19:07.000Z</time>
</trkpt>
<trkpt lat="59.4792858" lon="31.0244399">
<ele>55.360001</ele>
<time>2026-08-31T18:19:11.000Z</time>
</trkpt>
<trkpt lat="59.4791397" lon="31.0247745">
<ele>55.860001</ele>
<time>2026-08-31T18:19:15.000Z</time>
</trkpt>
<trkpt lat="59.4785646" lon="31.0258289">
<ele>56.020000</ele>
<time>2026-08-31T18:19:29.000Z</time>
</trkpt>
<trkpt lat="59.4778704" lon="31.0271800">
<ele>54.250000</ele>
<time>2026-08-31T18:19:41.000Z</time>
</trkpt>
<trkpt lat="59.4774179" lon="31.0280325">
<ele>54.869999</ele>
<time>2026-08-31T18:19:50.000Z</time>
</trkpt>
<trkpt lat="59.4766406" lon="31.0295334">
<ele>56.009998</ele>
<time>2026-08-31T18:20:05.000Z</time>
</trkpt>
<trkpt lat="59.4762126" lon="31.0303422">
<ele>55.799999</ele>
<time>2026-08-31T18:20:12.000Z</time>
</trkpt>
<trkpt lat="59.4755228" lon="31.0316378">
<ele>55.480000</ele>
<time>2026-08-31T18:20:25.000Z</time>
</trkpt>
<trkpt lat="59.4747993" lon="31.0330084">
<ele>53.299999</ele>
<time>2026-08-31T18:20:38.000Z</time>
</trkpt>
<trkpt lat="59.4745457" lon="31.0335253">
<ele>52.260002</ele>
<time>2026-08-31T18:20:43.000Z</time>
</trkpt>
<trkpt lat="59.4740364" lon="31.0344998">
<ele>52.989998</ele>
<time>2026-08-31T18:20:55.000Z</time>
</trkpt>
<trkpt lat="59.4739852" lon="31.0346006">
<ele>52.500000</ele>
<time>2026-08-31T18:20:56.000Z</time>
</trkpt>
<trkpt lat="59.4732986" lon="31.0360067">
<ele>53.980000</ele>
<time>2026-08-31T18:21:09.000Z</time>
</trkpt>
<trkpt lat="59.4729451" lon="31.0366708">
<ele>52.240002</ele>
<time>2026-08-31T18:21:15.000Z</time>
</trkpt>
<trkpt lat="59.4721857" lon="31.0379949">
<ele>45.349998</ele>
<time>2026-08-31T18:21:27.000Z</time>
</trkpt>
<trkpt lat="59.4720749" lon="31.0382685">
<ele>44.360001</ele>
<time>2026-08-31T18:21:31.000Z</time>
</trkpt>
<trkpt lat="59.4715635" lon="31.0393309">
<ele>54.279999</ele>
<time>2026-08-31T18:21:43.000Z</time>
</trkpt>
<trkpt lat="59.4709330" lon="31.0405488">
<ele>56.649998</ele>
<time>2026-08-31T18:21:58.000Z</time>
</trkpt>
<trkpt lat="59.4708885" lon="31.0406284">
<ele>57.009998</ele>
<time>2026-08-31T18:21:59.000Z</time>
</trkpt>
<trkpt lat="59.4708392" lon="31.0413838">
<ele>58.209999</ele>
<time>2026-08-31T18:22:06.000Z</time>
</trkpt>
<trkpt lat="59.4710889" lon="31.0422726">
<ele>60.910000</ele>
<time>2026-08-31T18:22:14.000Z</time>
</trkpt>
<trkpt lat="59.4713772" lon="31.0431289">
<ele>61.360001</ele>
<time>2026-08-31T18:22:25.000Z</time>
</trkpt>
<trkpt lat="59.4716992" lon="31.0440998">
<ele>65.489998</ele>
<time>2026-08-31T18:22:39.000Z</time>
</trkpt>
<trkpt lat="59.4718069" lon="31.0444157">
<ele>66.459999</ele>
<time>2026-08-31T18:22:42.000Z</time>
</trkpt>
<trkpt lat="59.4720203" lon="31.0451613">
<ele>66.889999</ele>
<time>2026-08-31T18:22:52.000Z</time>
</trkpt>
<trkpt lat="59.4722738" lon="31.0461822">
<ele>61.730000</ele>
<time>2026-08-31T18:23:06.000Z</time>
</trkpt>
<trkpt lat="59.4723656" lon="31.0465274">
<ele>61.739998</ele>
<time>2026-08-31T18:23:10.000Z</time>
</trkpt>
<trkpt lat="59.4725546" lon="31.0469466">
<ele>61.540001</ele>
<time>2026-08-31T18:23:16.000Z</time>
</trkpt>
<trkpt lat="59.4729659" lon="31.0483541">
<ele>61.000004</ele>
<time>2026-08-31T18:23:33.000Z</time>
</trkpt>
<trkpt lat="59.4733423" lon="31.0495852">
<ele>60.390003</ele>
<time>2026-08-31T18:23:47.000Z</time>
</trkpt>
<trkpt lat="59.4736728" lon="31.0506453">
<ele>59.669998</ele>
<time>2026-08-31T18:24:00.000Z</time>
</trkpt>
<trkpt lat="59.4738417" lon="31.0511956">
<ele>59.780003</ele>
<time>2026-08-31T18:24:08.000Z</time>
</trkpt>
<trkpt lat="59.4741313" lon="31.0522105">
<ele>61.509998</ele>
<time>2026-08-31T18:24:23.000Z</time>
</trkpt>
<trkpt lat="59.4743791" lon="31.0529845">
<ele>61.570000</ele>
<time>2026-08-31T18:24:35.000Z</time>
</trkpt>
<trkpt lat="59.4746771" lon="31.0539748">
<ele>62.129997</ele>
<time>2026-08-31T18:24:48.000Z</time>
</trkpt>
<trkpt lat="59.4747000" lon="31.0540665">
<ele>62.170002</ele>
<time>2026-08-31T18:24:49.000Z</time>
</trkpt>
<trkpt lat="59.4747528" lon="31.0542380">
<ele>62.330002</ele>
<time>2026-08-31T18:24:51.000Z</time>
</trkpt>
<trkpt lat="59.4748407" lon="31.0544956">
<ele>62.139999</ele>
<time>2026-08-31T18:24:54.000Z</time>
</trkpt>
<trkpt lat="59.4750570" lon="31.0551020">
<ele>63.370003</ele>
<time>2026-08-31T18:25:01.000Z</time>
</trkpt>
<trkpt lat="59.4754149" lon="31.0561948">
<ele>66.239998</ele>
<time>2026-08-31T18:25:13.000Z</time>
</trkpt>
<trkpt lat="59.4756918" lon="31.0570596">
<ele>69.759995</ele>
<time>2026-08-31T18:25:23.000Z</time>
</trkpt>
<trkpt lat="59.4757485" lon="31.0572621">
<ele>71.739998</ele>
<time>2026-08-31T18:25:25.000Z</time>
</trkpt>
<trkpt lat="59.4760803" lon="31.0583354">
<ele>76.029999</ele>
<time>2026-08-31T18:25:36.000Z</time>
</trkpt>
<trkpt lat="59.4761477" lon="31.0586198">
<ele>76.650002</ele>
<time>2026-08-31T18:25:39.000Z</time>
</trkpt>
<trkpt lat="59.4765138" lon="31.0597905">
<ele>74.159996</ele>
<time>2026-08-31T18:25:53.000Z</time>
</trkpt>
<trkpt lat="59.4767565" lon="31.0606421">
<ele>71.849998</ele>
<time>2026-08-31T18:26:06.000Z</time>
</trkpt>
<trkpt lat="59.4768880" lon="31.0610856">
<ele>71.090004</ele>
<time>2026-08-31T18:26:14.000Z</time>
</trkpt>
<trkpt lat="59.4770915" lon="31.0619309">
<ele>68.610001</ele>
<time>2026-08-31T18:26:27.000Z</time>
</trkpt>
<trkpt lat="59.4773727" lon="31.0630571">
<ele>66.470001</ele>
<time>2026-08-31T18:26:41.000Z</time>
</trkpt>
<trkpt lat="59.4776865" lon="31.0641679">
<ele>65.520004</ele>
<time>2026-08-31T18:26:55.000Z</time>
</trkpt>
<trkpt lat="59.4777478" lon="31.0643457">
<ele>65.190002</ele>
<time>2026-08-31T18:26:58.000Z</time>
</trkpt>
<trkpt lat="59.4781118" lon="31.0653483">
<ele>64.779999</ele>
<time>2026-08-31T18:27:11.000Z</time>
</trkpt>
<trkpt lat="59.4783307" lon="31.0660194">
<ele>63.959999</ele>
<time>2026-08-31T18:27:21.000Z</time>
</trkpt>
<trkpt lat="59.4785661" lon="31.0666078">
<ele>63.429996</ele>
<time>2026-08-31T18:27:34.000Z</time>
</trkpt>
<trkpt lat="59.4788112" lon="31.0672255">
<ele>61.270000</ele>
<time>2026-08-31T18:27:45.000Z</time>
</trkpt>
<trkpt lat="59.4790541" lon="31.0679393">
<ele>60.790001</ele>
<time>2026-08-31T18:27:55.000Z</time>
</trkpt>
<trkpt lat="59.4793552" lon="31.0688073">
<ele>62.250000</ele>
<time>2026-08-31T18:28:05.000Z</time>
</trkpt>
<trkpt lat="59.4795546" lon="31.0694110">
<ele>62.770000</ele>
<time>2026-08-31T18:28:17.000Z</time>
</trkpt>
<trkpt lat="59.4798894" lon="31.0700553">
<ele>63.489998</ele>
<time>2026-08-31T18:28:26.000Z</time>
</trkpt>
<trkpt lat="59.4800009" lon="31.0701828">
<ele>63.930000</ele>
<time>2026-08-31T18:28:28.000Z</time>
</trkpt>
<trkpt lat="59.4802341" lon="31.0702644">
<ele>63.570000</ele>
<time>2026-08-31T18:28:32.000Z</time>
</trkpt>
<trkpt lat="59.4809066" lon="31.0700704">
<ele>59.640003</ele>
<time>2026-08-31T18:28:45.000Z</time>
</trkpt>
<trkpt lat="59.4814512" lon="31.0700540">
<ele>55.760002</ele>
<time>2026-08-31T18:28:59.000Z</time>
</trkpt>
<trkpt lat="59.4819741" lon="31.0703843">
<ele>61.119999</ele>
<time>2026-08-31T18:29:12.000Z</time>
</trkpt>
<trkpt lat="59.4825285" lon="31.0708961">
<ele>53.090000</ele>
<time>2026-08-31T18:29:24.000Z</time>
</trkpt>
<trkpt lat="59.4830197" lon="31.0713476">
<ele>50.810001</ele>
<time>2026-08-31T18:29:36.000Z</time>
</trkpt>
<trkpt lat="59.4832670" lon="31.0716638">
<ele>52.070000</ele>
<time>2026-08-31T18:29:47.000Z</time>
</trkpt>
<trkpt lat="59.4832942" lon="31.0717282">
<ele>52.160004</ele>
<time>2026-08-31T18:29:51.000Z</time>
</trkpt>
<trkpt lat="59.4833396" lon="31.0718132">
<ele>52.299999</ele>
<time>2026-08-31T18:29:54.000Z</time>
</trkpt>
<trkpt lat="59.4833751" lon="31.0718767">
<ele>52.070000</ele>
<time>2026-08-31T18:30:03.000Z</time>
</trkpt>
<trkpt lat="59.4833808" lon="31.0718591">
<ele>51.759998</ele>
<time>2026-08-31T18:30:06.000Z</time>
</trkpt>
<trkpt lat="59.4832834" lon="31.0715948">
<ele>50.889999</ele>
<time>2026-08-31T18:30:13.000Z</time>
</trkpt>
<trkpt lat="59.4831647" lon="31.0713417">
<ele>49.500000</ele>
<time>2026-08-31T18:30:21.000Z</time>
</trkpt>
<trkpt lat="59.4831205" lon="31.0714310">
<ele>48.380001</ele>
<time>2026-08-31T18:30:36.000Z</time>
</trkpt>
<trkpt lat="59.4831672" lon="31.0715666">
<ele>50.740002</ele>
<time>2026-08-31T18:30:46.000Z</time>
</trkpt>
<trkpt lat="59.4831814" lon="31.0716843">
<ele>52.770000</ele>
<time>2026-08-31T18:31:03.000Z</time>
</trkpt>
<trkpt lat="59.4832289" lon="31.0716954">
<ele>53.780003</ele>
<time>2026-08-31T18:31:45.000Z</time>
</trkpt>
<trkpt lat="59.4832421" lon="31.0716636">
<ele>54.000000</ele>
<time>2026-08-31T18:32:14.000Z</time>
</trkpt>
<trkpt lat="59.4832899" lon="31.0716631">
<ele>56.200001</ele>
<time>2026-08-31T18:32:36.000Z</time>
</trkpt>
<trkpt lat="59.4832618" lon="31.0717112">
<ele>59.439999</ele>
<time>2026-08-31T18:32:57.000Z</time>
</trkpt>
<trkpt lat="59.4832728" lon="31.0717446">
<ele>61.880001</ele>
<time>2026-08-31T18:33:18.000Z</time>
</trkpt>
<trkpt lat="59.4832802" lon="31.0716825">
<ele>62.850002</ele>
<time>2026-08-31T18:33:48.000Z</time>
</trkpt>
<trkpt lat="59.4832580" lon="31.0718313">
<ele>72.330002</ele>
<time>2026-08-31T18:34:26.000Z</time>
</trkpt>
<trkpt lat="59.4832157" lon="31.0717625">
<ele>71.480003</ele>
<time>2026-08-31T18:34:47.000Z</time>
</trkpt>
<trkpt lat="59.4832140" lon="31.0717390">
<ele>71.440002</ele>
<time>2026-08-31T18:34:49.000Z</time>
</trkpt>
<trkpt lat="59.4832176" lon="31.0716120">
<ele>71.989998</ele>
<time>2026-08-31T18:35:15.000Z</time>
</trkpt>
<trkpt lat="59.4831804" lon="31.0714379">
<ele>71.389999</ele>
<time>2026-08-31T18:35:28.000Z</time>
</trkpt>
<trkpt lat="59.4830606" lon="31.0712754">
<ele>69.449997</ele>
<time>2026-08-31T18:35:49.000Z</time>
</trkpt>
<trkpt lat="59.4831031" lon="31.0712442">
<ele>69.620003</ele>
<time>2026-08-31T18:36:15.000Z</time>
</trkpt>
<trkpt lat="59.4831661" lon="31.0711456">
<ele>69.110001</ele>
<time>2026-08-31T18:36:39.000Z</time>
</trkpt>
<trkpt lat="59.4831710" lon="31.0711329">
<ele>69.169998</ele>
<time>2026-08-31T18:37:00.000Z</time>
</trkpt>
<trkpt lat="59.4832052" lon="31.0710011">
<ele>68.879997</ele>
<time>2026-08-31T18:37:20.000Z</time>
</trkpt>
<trkpt lat="59.4832306" lon="31.0707484">
<ele>69.180000</ele>
<time>2026-08-31T18:37:36.000Z</time>
</trkpt>
<trkpt lat="59.4832756" lon="31.0703923">
<ele>68.559998</ele>
<time>2026-08-31T18:38:03.000Z</time>
</trkpt>
<trkpt lat="59.4832222" lon="31.0699430">
<ele>67.610001</ele>
<time>2026-08-31T18:38:44.000Z</time>
</trkpt>
<trkpt lat="59.4832399" lon="31.0697797">
<ele>66.900002</ele>
<time>2026-08-31T18:39:26.000Z</time>
</trkpt>
<trkpt lat="59.4832231" lon="31.0698522">
<ele>66.720001</ele>
<time>2026-08-31T18:39:53.000Z</time>
</trkpt>
<trkpt lat="59.4833115" lon="31.0698761">
<ele>63.429996</ele>
<time>2026-08-31T18:40:24.000Z</time>
</trkpt>
<trkpt lat="59.4832826" lon="31.0698399">
<ele>64.250000</ele>
<time>2026-08-31T18:40:55.000Z</time>
</trkpt>
<trkpt lat="59.4832230" lon="31.0698491">
<ele>64.320000</ele>
<time>2026-08-31T18:41:25.000Z</time>
</trkpt>
<trkpt lat="59.4832818" lon="31.0698138">
<ele>65.259995</ele>
<time>2026-08-31T18:41:55.000Z</time>
</trkpt>
<trkpt lat="59.4832604" lon="31.0697824">
<ele>67.619995</ele>
<time>2026-08-31T18:42:21.000Z</time>
</trkpt>
<trkpt lat="59.4832601" lon="31.0697777">
<ele>67.050003</ele>
<time>2026-08-31T18:42:51.000Z</time>
</trkpt>
<trkpt lat="59.4832701" lon="31.0698601">
<ele>69.260002</ele>
<time>2026-08-31T18:43:17.000Z</time>
</trkpt>
<trkpt lat="59.4832829" lon="31.0698322">
<ele>72.430000</ele>
<time>2026-08-31T18:43:44.000Z</time>
</trkpt>
<trkpt lat="59.4833064" lon="31.0698049">
<ele>72.419998</ele>
<time>2026-08-31T18:44:05.000Z</time>
</trkpt>
<trkpt lat="59.4833357" lon="31.0697093">
<ele>71.849998</ele>
<time>2026-08-31T18:44:14.000Z</time>
</trkpt>
<trkpt lat="59.4834025" lon="31.0694990">
<ele>70.489998</ele>
<time>2026-08-31T18:44:39.000Z</time>
</trkpt>
<trkpt lat="59.4834357" lon="31.0693042">
<ele>70.220001</ele>
<time>2026-08-31T18:45:01.000Z</time>
</trkpt>
<trkpt lat="59.4835116" lon="31.0689420">
<ele>69.809998</ele>
<time>2026-08-31T18:45:25.000Z</time>
</trkpt>
<trkpt lat="59.4835408" lon="31.0687509">
<ele>69.900002</ele>
<time>2026-08-31T18:45:47.000Z</time>
</trkpt>
<trkpt lat="59.4835945" lon="31.0686191">
<ele>69.750000</ele>
<time>2026-08-31T18:46:01.000Z</time>
</trkpt>
<trkpt lat="59.4836754" lon="31.0684572">
<ele>69.379997</ele>
<time>2026-08-31T18:46:23.000Z</time>
</trkpt>
<trkpt lat="59.4837304" lon="31.0684397">
<ele>67.709999</ele>
<time>2026-08-31T18:46:48.000Z</time>
</trkpt>
<trkpt lat="59.4837005" lon="31.0684580">
<ele>69.290001</ele>
<time>2026-08-31T18:47:29.000Z</time>
</trkpt>
<trkpt lat="59.4836794" lon="31.0683775">
<ele>73.330002</ele>
<time>2026-08-31T18:47:57.000Z</time>
</trkpt>
<trkpt lat="59.4837128" lon="31.0683697">
<ele>73.349998</ele>
<time>2026-08-31T18:48:27.000Z</time>
</trkpt>
<trkpt lat="59.4836453" lon="31.0683423">
<ele>73.520004</ele>
<time>2026-08-31T18:48:51.000Z</time>
</trkpt>
<trkpt lat="59.4836310" lon="31.0681992">
<ele>72.360001</ele>
<time>2026-08-31T18:49:25.000Z</time>
</trkpt>
<trkpt lat="59.4836450" lon="31.0682970">
<ele>73.440002</ele>
<time>2026-08-31T18:49:59.000Z</time>
</trkpt>
<trkpt lat="59.4836846" lon="31.0681646">
<ele>73.290001</ele>
<time>2026-08-31T18:50:14.000Z</time>
</trkpt>
<trkpt lat="59.4836413" lon="31.0679818">
<ele>73.099998</ele>
<time>2026-08-31T18:50:36.000Z</time>
</trkpt>
<trkpt lat="59.4836645" lon="31.0678269">
<ele>74.270004</ele>
<time>2026-08-31T18:51:13.000Z</time>
</trkpt>
<trkpt lat="59.4836469" lon="31.0677283">
<ele>75.449997</ele>
<time>2026-08-31T18:51:51.000Z</time>
</trkpt>
<trkpt lat="59.4835935" lon="31.0677280">
<ele>76.029999</ele>
<time>2026-08-31T18:52:34.000Z</time>
</trkpt>
<trkpt lat="59.4836776" lon="31.0677385">
<ele>76.500000</ele>
<time>2026-08-31T18:52:58.000Z</time>
</trkpt>
<trkpt lat="59.4837247" lon="31.0676779">
<ele>76.720001</ele>
<time>2026-08-31T18:53:24.000Z</time>
</trkpt>
<trkpt lat="59.4837346" lon="31.0676064">
<ele>75.330002</ele>
<time>2026-08-31T18:53:48.000Z</time>
</trkpt>
<trkpt lat="59.4837530" lon="31.0676103">
<ele>75.730003</ele>
<time>2026-08-31T18:54:18.000Z</time>
</trkpt>
<trkpt lat="59.4837990" lon="31.0676101">
<ele>75.699997</ele>
<time>2026-08-31T18:54:50.000Z</time>
</trkpt>
<trkpt lat="59.4837552" lon="31.0676078">
<ele>75.159996</ele>
<time>2026-08-31T18:55:18.000Z</time>
</trkpt>
<trkpt lat="59.4837908" lon="31.0676295">
<ele>74.400002</ele>
<time>2026-08-31T18:55:49.000Z</time>
</trkpt>
<trkpt lat="59.4837634" lon="31.0676217">
<ele>75.029999</ele>
<time>2026-08-31T18:56:23.000Z</time>
</trkpt>
<trkpt lat="59.4837021" lon="31.0675951">
<ele>75.430000</ele>
<time>2026-08-31T18:56:50.000Z</time>
</trkpt>
<trkpt lat="59.4837580" lon="31.0675399">
<ele>75.340004</ele>
<time>2026-08-31T18:57:16.000Z</time>
</trkpt>
<trkpt lat="59.4838195" lon="31.0674400">
<ele>74.860001</ele>
<time>2026-08-31T18:57:36.000Z</time>
</trkpt>
<trkpt lat="59.4838458" lon="31.0672939">
<ele>74.880005</ele>
<time>2026-08-31T18:57:52.000Z</time>
</trkpt>
<trkpt lat="59.4839125" lon="31.0672387">
<ele>74.860001</ele>
<time>2026-08-31T18:58:10.000Z</time>
</trkpt>
<trkpt lat="59.4839795" lon="31.0671815">
<ele>74.970001</ele>
<time>2026-08-31T18:58:20.000Z</time>
</trkpt>
<trkpt lat="59.4841027" lon="31.0670291">
<ele>74.720001</ele>
<time>2026-08-31T18:58:38.000Z</time>
</trkpt>
<trkpt lat="59.4841475" lon="31.0668860">
<ele>73.639999</ele>
<time>2026-08-31T18:58:55.000Z</time>
</trkpt>
<trkpt lat="59.4842054" lon="31.0668075">
<ele>72.680000</ele>
<time>2026-08-31T18:59:09.000Z</time>
</trkpt>
<trkpt lat="59.4843301" lon="31.0666826">
<ele>73.050003</ele>
<time>2026-08-31T18:59:34.000Z</time>
</trkpt>
<trkpt lat="59.4843519" lon="31.0666313">
<ele>73.159996</ele>
<time>2026-08-31T18:59:41.000Z</time>
</trkpt>
<trkpt lat="59.4844187" lon="31.0664372">
<ele>73.000000</ele>
<time>2026-08-31T19:00:01.000Z</time>
</trkpt>
<trkpt lat="59.4844389" lon="31.0662600">
<ele>71.820000</ele>
<time>2026-08-31T19:00:21.000Z</time>
</trkpt>
<trkpt lat="59.4845448" lon="31.0662455">
<ele>70.570000</ele>
<time>2026-08-31T19:00:41.000Z</time>
</trkpt>
<trkpt lat="59.4845660" lon="31.0662065">
<ele>70.330002</ele>
<time>2026-08-31T19:00:48.000Z</time>
</trkpt>
<trkpt lat="59.4845909" lon="31.0659872">
<ele>69.830002</ele>
<time>2026-08-31T19:01:05.000Z</time>
</trkpt>
<trkpt lat="59.4845583" lon="31.0657901">
<ele>69.709999</ele>
<time>2026-08-31T19:01:32.000Z</time>
</trkpt>
<trkpt lat="59.4845198" lon="31.0656943">
<ele>69.269997</ele>
<time>2026-08-31T19:02:01.000Z</time>
</trkpt>
<trkpt lat="59.4844972" lon="31.0655092">
<ele>70.160004</ele>
<time>2026-08-31T19:02:17.000Z</time>
</trkpt>
<trkpt lat="59.4844852" lon="31.0654149">
<ele>70.809998</ele>
<time>2026-08-31T19:02:42.000Z</time>
</trkpt>
<trkpt lat="59.4844717" lon="31.0653195">
<ele>71.940002</ele>
<time>2026-08-31T19:03:17.000Z</time>
</trkpt>
<trkpt lat="59.4845066" lon="31.0653338">
<ele>72.279999</ele>
<time>2026-08-31T19:03:48.000Z</time>
</trkpt>
<trkpt lat="59.4845460" lon="31.0651870">
<ele>73.830002</ele>
<time>2026-08-31T19:04:20.000Z</time>
</trkpt>
<trkpt lat="59.4846059" lon="31.0653321">
<ele>74.000000</ele>
<time>2026-08-31T19:05:34.000Z</time>
</trkpt>
<trkpt lat="59.4845555" lon="31.0652790">
<ele>74.889999</ele>
<time>2026-08-31T19:06:15.000Z</time>
</trkpt>
<trkpt lat="59.4845435" lon="31.0651629">
<ele>73.959999</ele>
<time>2026-08-31T19:06:49.000Z</time>
</trkpt>
<trkpt lat="59.4846006" lon="31.0649359">
<ele>73.980003</ele>
<time>2026-08-31T19:07:10.000Z</time>
</trkpt>
<trkpt lat="59.4846320" lon="31.0648306">
<ele>73.790001</ele>
<time>2026-08-31T19:07:17.000Z</time>
</trkpt>
<trkpt lat="59.4846970" lon="31.0647859">
<ele>72.050003</ele>
<time>2026-08-31T19:07:46.000Z</time>
</trkpt>
<trkpt lat="59.4847624" lon="31.0647292">
<ele>72.989998</ele>
<time>2026-08-31T19:08:16.000Z</time>
</trkpt>
<trkpt lat="59.4847350" lon="31.0645546">
<ele>72.579994</ele>
<time>2026-08-31T19:08:31.000Z</time>
</trkpt>
<trkpt lat="59.4847377" lon="31.0643420">
<ele>71.970001</ele>
<time>2026-08-31T19:08:49.000Z</time>
</trkpt>
<trkpt lat="59.4847818" lon="31.0642398">
<ele>72.040001</ele>
<time>2026-08-31T19:09:01.000Z</time>
</trkpt>
<trkpt lat="59.4848330" lon="31.0640755">
<ele>71.409996</ele>
<time>2026-08-31T19:09:24.000Z</time>
</trkpt>
<trkpt lat="59.4849026" lon="31.0638780">
<ele>71.389999</ele>
<time>2026-08-31T19:09:41.000Z</time>
</trkpt>
<trkpt lat="59.4849690" lon="31.0637332">
<ele>70.279999</ele>
<time>2026-08-31T19:10:03.000Z</time>
</trkpt>
<trkpt lat="59.4850739" lon="31.0634795">
<ele>70.129997</ele>
<time>2026-08-31T19:10:27.000Z</time>
</trkpt>
<trkpt lat="59.4851192" lon="31.0633602">
<ele>71.160004</ele>
<time>2026-08-31T19:10:49.000Z</time>
</trkpt>
<trkpt lat="59.4850818" lon="31.0632268">
<ele>71.279999</ele>
<time>2026-08-31T19:11:18.000Z</time>
</trkpt>
<trkpt lat="59.4851279" lon="31.0632956">
<ele>71.110001</ele>
<time>2026-08-31T19:11:51.000Z</time>
</trkpt>
<trkpt lat="59.4852043" lon="31.0634616">
<ele>70.349998</ele>
<time>2026-08-31T19:12:23.000Z</time>
</trkpt>
<trkpt lat="59.4852136" lon="31.0634206">
<ele>71.049995</ele>
<time>2026-08-31T19:13:25.000Z</time>
</trkpt>
<trkpt lat="59.4851812" lon="31.0634058">
<ele>71.949997</ele>
<time>2026-08-31T19:13:52.000Z</time>
</trkpt>
<trkpt lat="59.4851623" lon="31.0633817">
<ele>72.820000</ele>
<time>2026-08-31T19:14:24.000Z</time>
</trkpt>
<trkpt lat="59.4851559" lon="31.0633014">
<ele>74.860001</ele>
<time>2026-08-31T19:14:46.000Z</time>
</trkpt>
<trkpt lat="59.4851369" lon="31.0632128">
<ele>74.519997</ele>
<time>2026-08-31T19:15:18.000Z</time>
</trkpt>
<trkpt lat="59.4850971" lon="31.0631499">
<ele>76.800003</ele>
<time>2026-08-31T19:15:47.000Z</time>
</trkpt>
<trkpt lat="59.4851304" lon="31.0629737">
<ele>76.730003</ele>
<time>2026-08-31T19:16:08.000Z</time>
</trkpt>
<trkpt lat="59.4851581" lon="31.0627725">
<ele>74.989998</ele>
<time>2026-08-31T19:16:29.000Z</time>
</trkpt>
<trkpt lat="59.4851064" lon="31.0625371">
<ele>72.200005</ele>
<time>2026-08-31T19:16:50.000Z</time>
</trkpt>
<trkpt lat="59.4851002" lon="31.0624129">
<ele>72.180000</ele>
<time>2026-08-31T19:17:11.000Z</time>
</trkpt>
<trkpt lat="59.4851159" lon="31.0623829">
<ele>73.180000</ele>
<time>2026-08-31T19:17:35.000Z</time>
</trkpt>
<trkpt lat="59.4851072" lon="31.0625145">
<ele>73.349998</ele>
<time>2026-08-31T19:17:57.000Z</time>
</trkpt>
<trkpt lat="59.4851118" lon="31.0624862">
<ele>73.989998</ele>
<time>2026-08-31T19:18:18.000Z</time>
</trkpt>
<trkpt lat="59.4850922" lon="31.0624826">
<ele>74.159996</ele>
<time>2026-08-31T19:18:49.000Z</time>
</trkpt>
<trkpt lat="59.4850970" lon="31.0625935">
<ele>71.870003</ele>
<time>2026-08-31T19:19:18.000Z</time>
</trkpt>
<trkpt lat="59.4850948" lon="31.0625678">
<ele>72.579994</ele>
<time>2026-08-31T19:19:50.000Z</time>
</trkpt>
<trkpt lat="59.4851113" lon="31.0626459">
<ele>72.610001</ele>
<time>2026-08-31T19:20:18.000Z</time>
</trkpt>
<trkpt lat="59.4850931" lon="31.0625103">
<ele>73.669998</ele>
<time>2026-08-31T19:20:46.000Z</time>
</trkpt>
<trkpt lat="59.4850907" lon="31.0623482">
<ele>72.440002</ele>
<time>2026-08-31T19:21:17.000Z</time>
</trkpt>
<trkpt lat="59.4850881" lon="31.0622948">
<ele>74.490005</ele>
<time>2026-08-31T19:21:44.000Z</time>
</trkpt>
<trkpt lat="59.4850808" lon="31.0622944">
<ele>74.599998</ele>
<time>2026-08-31T19:21:47.000Z</time>
</trkpt>
<trkpt lat="59.4850935" lon="31.0623573">
<ele>72.729996</ele>
<time>2026-08-31T19:22:21.000Z</time>
</trkpt>
<trkpt lat="59.4850762" lon="31.0624191">
<ele>72.479996</ele>
<time>2026-08-31T19:22:50.000Z</time>
</trkpt>
<trkpt lat="59.4850748" lon="31.0625116">
<ele>71.610001</ele>
<time>2026-08-31T19:23:20.000Z</time>
</trkpt>
<trkpt lat="59.4850304" lon="31.0625381">
<ele>74.989998</ele>
<time>2026-08-31T19:23:54.000Z</time>
</trkpt>
<trkpt lat="59.4851359" lon="31.0625398">
<ele>74.690002</ele>
<time>2026-08-31T19:24:22.000Z</time>
</trkpt>
<trkpt lat="59.4851627" lon="31.0624726">
<ele>74.559998</ele>
<time>2026-08-31T19:24:49.000Z</time>
</trkpt>
<trkpt lat="59.4852030" lon="31.0625674">
<ele>74.040001</ele>
<time>2026-08-31T19:25:13.000Z</time>
</trkpt>
<trkpt lat="59.4852205" lon="31.0626705">
<ele>73.540001</ele>
<time>2026-08-31T19:25:30.000Z</time>
</trkpt>
<trkpt lat="59.4852477" lon="31.0627779">
<ele>72.840004</ele>
<time>2026-08-31T19:25:44.000Z</time>
</trkpt>
<trkpt lat="59.4853126" lon="31.0629257">
<ele>71.840004</ele>
<time>2026-08-31T19:26:03.000Z</time>
</trkpt>
<trkpt lat="59.4853400" lon="31.0630207">
<ele>71.220001</ele>
<time>2026-08-31T19:26:19.000Z</time>
</trkpt>
<trkpt lat="59.4854229" lon="31.0631468">
<ele>69.909996</ele>
<time>2026-08-31T19:26:43.000Z</time>
</trkpt>
<trkpt lat="59.4854848" lon="31.0633165">
<ele>69.550003</ele>
<time>2026-08-31T19:27:02.000Z</time>
</trkpt>
<trkpt lat="59.4855247" lon="31.0633848">
<ele>68.360001</ele>
<time>2026-08-31T19:27:26.000Z</time>
</trkpt>
<trkpt lat="59.4855774" lon="31.0635005">
<ele>67.220001</ele>
<time>2026-08-31T19:27:53.000Z</time>
</trkpt>
<trkpt lat="59.4856631" lon="31.0636276">
<ele>67.080002</ele>
<time>2026-08-31T19:28:09.000Z</time>
</trkpt>
<trkpt lat="59.4857112" lon="31.0637458">
<ele>66.519997</ele>
<time>2026-08-31T19:28:29.000Z</time>
</trkpt>
<trkpt lat="59.4857147" lon="31.0638598">
<ele>68.029999</ele>
<time>2026-08-31T19:28:53.000Z</time>
</trkpt>
<trkpt lat="59.4857147" lon="31.0638937">
<ele>69.150002</ele>
<time>2026-08-31T19:29:17.000Z</time>
</trkpt>
<trkpt lat="59.4857100" lon="31.0639201">
<ele>68.970001</ele>
<time>2026-08-31T19:29:39.000Z</time>
</trkpt>
<trkpt lat="59.4857236" lon="31.0638971">
<ele>67.979996</ele>
<time>2026-08-31T19:30:12.000Z</time>
</trkpt>
<trkpt lat="59.4857039" lon="31.0638138">
<ele>68.010002</ele>
<time>2026-08-31T19:30:40.000Z</time>
</trkpt>
<trkpt lat="59.4857162" lon="31.0638410">
<ele>67.480003</ele>
<time>2026-08-31T19:31:12.000Z</time>
</trkpt>
<trkpt lat="59.4857178" lon="31.0638569">
<ele>67.669998</ele>
<time>2026-08-31T19:31:39.000Z</time>
</trkpt>
<trkpt lat="59.4857106" lon="31.0638625">
<ele>69.070000</ele>
<time>2026-08-31T19:32:06.000Z</time>
</trkpt>
<trkpt lat="59.4856973" lon="31.0639289">
<ele>65.239998</ele>
<time>2026-08-31T19:32:36.000Z</time>
</trkpt>
<trkpt lat="59.4857016" lon="31.0639211">
<ele>64.680000</ele>
<time>2026-08-31T19:32:59.000Z</time>
</trkpt>
<trkpt lat="59.4857571" lon="31.0639130">
<ele>64.300003</ele>
<time>2026-08-31T19:33:27.000Z</time>
</trkpt>
<trkpt lat="59.4858161" lon="31.0640374">
<ele>64.209999</ele>
<time>2026-08-31T19:33:46.000Z</time>
</trkpt>
<trkpt lat="59.4858414" lon="31.0641444">
<ele>63.509998</ele>
<time>2026-08-31T19:34:06.000Z</time>
</trkpt>
<trkpt lat="59.4859241" lon="31.0642339">
<ele>63.509998</ele>
<time>2026-08-31T19:34:28.000Z</time>
</trkpt>
<trkpt lat="59.4860256" lon="31.0643602">
<ele>63.020000</ele>
<time>2026-08-31T19:34:49.000Z</time>
</trkpt>
<trkpt lat="59.4860931" lon="31.0645755">
<ele>62.220001</ele>
<time>2026-08-31T19:35:09.000Z</time>
</trkpt>
<trkpt lat="59.4861495" lon="31.0646969">
<ele>61.270000</ele>
<time>2026-08-31T19:35:29.000Z</time>
</trkpt>
<trkpt lat="59.4862650" lon="31.0648386">
<ele>60.230000</ele>
<time>2026-08-31T19:35:48.000Z</time>
</trkpt>
<trkpt lat="59.4863273" lon="31.0650437">
<ele>62.259998</ele>
<time>2026-08-31T19:36:04.000Z</time>
</trkpt>
<trkpt lat="59.4863204" lon="31.0651186">
<ele>63.509998</ele>
<time>2026-08-31T19:36:22.000Z</time>
</trkpt>
<trkpt lat="59.4863956" lon="31.0652728">
<ele>62.809998</ele>
<time>2026-08-31T19:36:44.000Z</time>
</trkpt>
<trkpt lat="59.4864149" lon="31.0653669">
<ele>61.850002</ele>
<time>2026-08-31T19:37:10.000Z</time>
</trkpt>
<trkpt lat="59.4864598" lon="31.0653488">
<ele>60.260002</ele>
<time>2026-08-31T19:37:39.000Z</time>
</trkpt>
<trkpt lat="59.4864282" lon="31.0653141">
<ele>59.570000</ele>
<time>2026-08-31T19:38:06.000Z</time>
</trkpt>
<trkpt lat="59.4864355" lon="31.0653283">
<ele>59.899998</ele>
<time>2026-08-31T19:38:35.000Z</time>
</trkpt>
<trkpt lat="59.4864550" lon="31.0653726">
<ele>59.389999</ele>
<time>2026-08-31T19:39:06.000Z</time>
</trkpt>
<trkpt lat="59.4864474" lon="31.0653522">
<ele>58.820000</ele>
<time>2026-08-31T19:39:34.000Z</time>
</trkpt>
<trkpt lat="59.4864470" lon="31.0653529">
<ele>57.800003</ele>
<time>2026-08-31T19:40:04.000Z</time>
</trkpt>
<trkpt lat="59.4864380" lon="31.0653737">
<ele>57.050003</ele>
<time>2026-08-31T19:40:30.000Z</time>
</trkpt>
<trkpt lat="59.4864384" lon="31.0654444">
<ele>56.520000</ele>
<time>2026-08-31T19:40:44.000Z</time>
</trkpt>
<trkpt lat="59.4863329" lon="31.0656924">
<ele>55.980003</ele>
<time>2026-08-31T19:41:02.000Z</time>
</trkpt>
<trkpt lat="59.4862303" lon="31.0658590">
<ele>55.840000</ele>
<time>2026-08-31T19:41:22.000Z</time>
</trkpt>
<trkpt lat="59.4861833" lon="31.0660792">
<ele>55.559998</ele>
<time>2026-08-31T19:41:41.000Z</time>
</trkpt>
<trkpt lat="59.4860527" lon="31.0661890">
<ele>55.279999</ele>
<time>2026-08-31T19:42:05.000Z</time>
</trkpt>
<trkpt lat="59.4859891" lon="31.0663124">
<ele>55.680000</ele>
<time>2026-08-31T19:42:22.000Z</time>
</trkpt>
<trkpt lat="59.4858996" lon="31.0665270">
<ele>55.879997</ele>
<time>2026-08-31T19:42:45.000Z</time>
</trkpt>
<trkpt lat="59.4858056" lon="31.0667045">
<ele>55.600002</ele>
<time>2026-08-31T19:43:06.000Z</time>
</trkpt>
<trkpt lat="59.4857041" lon="31.0668623">
<ele>55.790001</ele>
<time>2026-08-31T19:43:25.000Z</time>
</trkpt>
<trkpt lat="59.4855910" lon="31.0670825">
<ele>55.210003</ele>
<time>2026-08-31T19:43:45.000Z</time>
</trkpt>
<trkpt lat="59.4854778" lon="31.0672603">
<ele>55.340000</ele>
<time>2026-08-31T19:44:06.000Z</time>
</trkpt>
<trkpt lat="59.4854779" lon="31.0675246">
<ele>55.220001</ele>
<time>2026-08-31T19:44:25.000Z</time>
</trkpt>
<trkpt lat="59.4854360" lon="31.0676523">
<ele>56.980000</ele>
<time>2026-08-31T19:44:44.000Z</time>
</trkpt>
<trkpt lat="59.4853340" lon="31.0675459">
<ele>59.880001</ele>
<time>2026-08-31T19:45:03.000Z</time>
</trkpt>
<trkpt lat="59.4853265" lon="31.0674951">
<ele>60.459999</ele>
<time>2026-08-31T19:45:25.000Z</time>
</trkpt>
<trkpt lat="59.4852964" lon="31.0675790">
<ele>60.560001</ele>
<time>2026-08-31T19:45:46.000Z</time>
</trkpt>
<trkpt lat="59.4853033" lon="31.0676545">
<ele>60.910000</ele>
<time>2026-08-31T19:46:05.000Z</time>
</trkpt>
<trkpt lat="59.4852960" lon="31.0676549">
<ele>60.839996</ele>
<time>2026-08-31T19:46:10.000Z</time>
</trkpt>
<trkpt lat="59.4852236" lon="31.0676268">
<ele>59.439999</ele>
<time>2026-08-31T19:46:43.000Z</time>
</trkpt>
<trkpt lat="59.4852586" lon="31.0676240">
<ele>59.580002</ele>
<time>2026-08-31T19:47:09.000Z</time>
</trkpt>
<trkpt lat="59.4852415" lon="31.0676848">
<ele>63.649998</ele>
<time>2026-08-31T19:47:40.000Z</time>
</trkpt>
<trkpt lat="59.4852013" lon="31.0677381">
<ele>63.920002</ele>
<time>2026-08-31T19:48:06.000Z</time>
</trkpt>
<trkpt lat="59.4851708" lon="31.0677094">
<ele>65.470001</ele>
<time>2026-08-31T19:48:34.000Z</time>
</trkpt>
<trkpt lat="59.4851696" lon="31.0676760">
<ele>68.529999</ele>
<time>2026-08-31T19:49:05.000Z</time>
</trkpt>
<trkpt lat="59.4851690" lon="31.0676681">
<ele>69.870003</ele>
<time>2026-08-31T19:49:35.000Z</time>
</trkpt>
<trkpt lat="59.4852104" lon="31.0676520">
<ele>68.909996</ele>
<time>2026-08-31T19:50:05.000Z</time>
</trkpt>
<trkpt lat="59.4851981" lon="31.0676852">
<ele>68.279999</ele>
<time>2026-08-31T19:50:34.000Z</time>
</trkpt>
<trkpt lat="59.4851954" lon="31.0677105">
<ele>69.080002</ele>
<time>2026-08-31T19:51:01.000Z</time>
</trkpt>
<trkpt lat="59.4851808" lon="31.0677649">
<ele>67.940002</ele>
<time>2026-08-31T19:51:23.000Z</time>
</trkpt>
<trkpt lat="59.4850812" lon="31.0679474">
<ele>66.660004</ele>
<time>2026-08-31T19:51:43.000Z</time>
</trkpt>
<trkpt lat="59.4849775" lon="31.0681425">
<ele>65.250000</ele>
<time>2026-08-31T19:52:01.000Z</time>
</trkpt>
<trkpt lat="59.4848612" lon="31.0683040">
<ele>63.039997</ele>
<time>2026-08-31T19:52:20.000Z</time>
</trkpt>
<trkpt lat="59.4847819" lon="31.0684392">
<ele>62.010002</ele>
<time>2026-08-31T19:52:35.000Z</time>
</trkpt>
<trkpt lat="59.4846894" lon="31.0686208">
<ele>61.330002</ele>
<time>2026-08-31T19:52:56.000Z</time>
</trkpt>
<trkpt lat="59.4846853" lon="31.0686244">
<ele>61.289997</ele>
<time>2026-08-31T19:52:57.000Z</time>
</trkpt>
<trkpt lat="59.4846226" lon="31.0687519">
<ele>60.919998</ele>
<time>2026-08-31T19:53:11.000Z</time>
</trkpt>
<trkpt lat="59.4845847" lon="31.0688608">
<ele>60.829998</ele>
<time>2026-08-31T19:53:26.000Z</time>
</trkpt>
<trkpt lat="59.4845144" lon="31.0690002">
<ele>60.799999</ele>
<time>2026-08-31T19:53:41.000Z</time>
</trkpt>
<trkpt lat="59.4844586" lon="31.0690583">
<ele>60.459999</ele>
<time>2026-08-31T19:53:59.000Z</time>
</trkpt>
<trkpt lat="59.4844026" lon="31.0691401">
<ele>60.810001</ele>
<time>2026-08-31T19:54:18.000Z</time>
</trkpt>
<trkpt lat="59.4843980" lon="31.0692646">
<ele>61.400002</ele>
<time>2026-08-31T19:54:48.000Z</time>
</trkpt>
<trkpt lat="59.4843261" lon="31.0692234">
<ele>62.959999</ele>
<time>2026-08-31T19:55:37.000Z</time>
</trkpt>
<trkpt lat="59.4843837" lon="31.0692486">
<ele>63.610001</ele>
<time>2026-08-31T19:56:08.000Z</time>
</trkpt>
<trkpt lat="59.4843786" lon="31.0692483">
<ele>63.670002</ele>
<time>2026-08-31T19:56:49.000Z</time>
</trkpt>
<trkpt lat="59.4843785" lon="31.0692244">
<ele>64.180000</ele>
<time>2026-08-31T19:57:23.000Z</time>
</trkpt>
<trkpt lat="59.4844349" lon="31.0692711">
<ele>61.550003</ele>
<time>2026-08-31T19:57:52.000Z</time>
</trkpt>
<trkpt lat="59.4843735" lon="31.0693230">
<ele>61.400002</ele>
<time>2026-08-31T19:58:15.000Z</time>
</trkpt>
<trkpt lat="59.4843342" lon="31.0693146">
<ele>61.709999</ele>
<time>2026-08-31T19:58:47.000Z</time>
</trkpt>
<trkpt lat="59.4843164" lon="31.0692845">
<ele>62.889999</ele>
<time>2026-08-31T19:59:19.000Z</time>
</trkpt>
<trkpt lat="59.4843200" lon="31.0692747">
<ele>62.760002</ele>
<time>2026-08-31T19:59:51.000Z</time>
</trkpt>
<trkpt lat="59.4843526" lon="31.0693089">
<ele>62.869999</ele>
<time>2026-08-31T20:00:22.000Z</time>
</trkpt>
<trkpt lat="59.4843228" lon="31.0693043">
<ele>63.470001</ele>
<time>2026-08-31T20:00:57.000Z</time>
</trkpt>
<trkpt lat="59.4842565" lon="31.0693783">
<ele>64.400002</ele>
<time>2026-08-31T20:01:21.000Z</time>
</trkpt>
<trkpt lat="59.4842101" lon="31.0694227">
<ele>64.110001</ele>
<time>2026-08-31T20:01:34.000Z</time>
</trkpt>
<trkpt lat="59.4841745" lon="31.0694828">
<ele>63.770000</ele>
<time>2026-08-31T20:01:52.000Z</time>
</trkpt>
<trkpt lat="59.4841733" lon="31.0695721">
<ele>62.760002</ele>
<time>2026-08-31T20:02:16.000Z</time>
</trkpt>
<trkpt lat="59.4840966" lon="31.0697079">
<ele>61.920002</ele>
<time>2026-08-31T20:02:37.000Z</time>
</trkpt>
<trkpt lat="59.4840865" lon="31.0697146">
<ele>61.889999</ele>
<time>2026-08-31T20:02:39.000Z</time>
</trkpt>
<trkpt lat="59.4840361" lon="31.0698454">
<ele>61.470001</ele>
<time>2026-08-31T20:02:51.000Z</time>
</trkpt>
<trkpt lat="59.4839623" lon="31.0699848">
<ele>61.340000</ele>
<time>2026-08-31T20:03:14.000Z</time>
</trkpt>
<trkpt lat="59.4839060" lon="31.0701413">
<ele>61.209999</ele>
<time>2026-08-31T20:03:26.000Z</time>
</trkpt>
<trkpt lat="59.4838303" lon="31.0701802">
<ele>61.139999</ele>
<time>2026-08-31T20:03:47.000Z</time>
</trkpt>
<trkpt lat="59.4837527" lon="31.0702949">
<ele>62.209999</ele>
<time>2026-08-31T20:04:05.000Z</time>
</trkpt>
<trkpt lat="59.4837418" lon="31.0702836">
<ele>62.739998</ele>
<time>2026-08-31T20:04:37.000Z</time>
</trkpt>
<trkpt lat="59.4837690" lon="31.0702675">
<ele>61.899998</ele>
<time>2026-08-31T20:05:24.000Z</time>
</trkpt>
<trkpt lat="59.4838503" lon="31.0703758">
<ele>60.940002</ele>
<time>2026-08-31T20:06:05.000Z</time>
</trkpt>
<trkpt lat="59.4838211" lon="31.0703512">
<ele>60.810001</ele>
<time>2026-08-31T20:06:17.000Z</time>
</trkpt>
<trkpt lat="59.4837115" lon="31.0702793">
<ele>60.609997</ele>
<time>2026-08-31T20:06:58.000Z</time>
</trkpt>
<trkpt lat="59.4837520" lon="31.0703446">
<ele>64.650002</ele>
<time>2026-08-31T20:07:38.000Z</time>
</trkpt>
<trkpt lat="59.4837637" lon="31.0703588">
<ele>68.199997</ele>
<time>2026-08-31T20:08:08.000Z</time>
</trkpt>
<trkpt lat="59.4838014" lon="31.0704055">
<ele>68.190002</ele>
<time>2026-08-31T20:08:29.000Z</time>
</trkpt>
<trkpt lat="59.4839459" lon="31.0705046">
<ele>67.500000</ele>
<time>2026-08-31T20:08:53.000Z</time>
</trkpt>
<trkpt lat="59.4840734" lon="31.0703872">
<ele>67.510002</ele>
<time>2026-08-31T20:09:36.000Z</time>
</trkpt>
<trkpt lat="59.4840879" lon="31.0703699">
<ele>67.309998</ele>
<time>2026-08-31T20:09:38.000Z</time>
</trkpt>
<trkpt lat="59.4841389" lon="31.0703074">
<ele>66.570000</ele>
<time>2026-08-31T20:09:57.000Z</time>
</trkpt>
<trkpt lat="59.4842441" lon="31.0704410">
<ele>66.019997</ele>
<time>2026-08-31T20:10:21.000Z</time>
</trkpt>
<trkpt lat="59.4843940" lon="31.0706111">
<ele>65.720001</ele>
<time>2026-08-31T20:10:44.000Z</time>
</trkpt>
<trkpt lat="59.4844985" lon="31.0706964">
<ele>65.900002</ele>
<time>2026-08-31T20:11:24.000Z</time>
</trkpt>
<trkpt lat="59.4845753" lon="31.0707568">
<ele>65.479996</ele>
<time>2026-08-31T20:11:55.000Z</time>
</trkpt>
<trkpt lat="59.4846051" lon="31.0707449">
<ele>65.470001</ele>
<time>2026-08-31T20:12:01.000Z</time>
</trkpt>
<trkpt lat="59.4847314" lon="31.0706921">
<ele>65.510002</ele>
<time>2026-08-31T20:12:16.000Z</time>
</trkpt>
<trkpt lat="59.4848488" lon="31.0707521">
<ele>65.660004</ele>
<time>2026-08-31T20:12:35.000Z</time>
</trkpt>
<trkpt lat="59.4848489" lon="31.0708356">
<ele>63.860001</ele>
<time>2026-08-31T20:13:02.000Z</time>
</trkpt>
<trkpt lat="59.4849108" lon="31.0709832">
<ele>63.670002</ele>
<time>2026-08-31T20:13:17.000Z</time>
</trkpt>
<trkpt lat="59.4849115" lon="31.0710649">
<ele>63.770000</ele>
<time>2026-08-31T20:13:36.000Z</time>
</trkpt>
<trkpt lat="59.4849476" lon="31.0712417">
<ele>63.389999</ele>
<time>2026-08-31T20:13:57.000Z</time>
</trkpt>
<trkpt lat="59.4848736" lon="31.0713782">
<ele>64.370003</ele>
<time>2026-08-31T20:14:28.000Z</time>
</trkpt>
<trkpt lat="59.4849783" lon="31.0716238">
<ele>63.189999</ele>
<time>2026-08-31T20:15:36.000Z</time>
</trkpt>
<trkpt lat="59.4850310" lon="31.0718129">
<ele>63.099998</ele>
<time>2026-08-31T20:15:56.000Z</time>
</trkpt>
<trkpt lat="59.4850452" lon="31.0718311">
<ele>64.599998</ele>
<time>2026-08-31T20:16:19.000Z</time>
</trkpt>
<trkpt lat="59.4850529" lon="31.0718158">
<ele>63.760002</ele>
<time>2026-08-31T20:16:46.000Z</time>
</trkpt>
<trkpt lat="59.4851064" lon="31.0717962">
<ele>63.600002</ele>
<time>2026-08-31T20:17:14.000Z</time>
</trkpt>
<trkpt lat="59.4850428" lon="31.0717803">
<ele>61.820000</ele>
<time>2026-08-31T20:18:16.000Z</time>
</trkpt>
<trkpt lat="59.4851206" lon="31.0717792">
<ele>61.400002</ele>
<time>2026-08-31T20:20:01.000Z</time>
</trkpt>
<trkpt lat="59.4850411" lon="31.0717644">
<ele>59.309998</ele>
<time>2026-08-31T20:20:28.000Z</time>
</trkpt>
<trkpt lat="59.4851432" lon="31.0715834">
<ele>59.580002</ele>
<time>2026-08-31T20:20:51.000Z</time>
</trkpt>
<trkpt lat="59.4852104" lon="31.0714773">
<ele>59.919998</ele>
<time>2026-08-31T20:21:04.000Z</time>
</trkpt>
<trkpt lat="59.4852931" lon="31.0714642">
<ele>60.020000</ele>
<time>2026-08-31T20:21:24.000Z</time>
</trkpt>
<trkpt lat="59.4853381" lon="31.0714293">
<ele>61.250000</ele>
<time>2026-08-31T20:21:45.000Z</time>
</trkpt>
<trkpt lat="59.4853879" lon="31.0712687">
<ele>61.480000</ele>
<time>2026-08-31T20:21:56.000Z</time>
</trkpt>
<trkpt lat="59.4854037" lon="31.0711569">
<ele>61.260002</ele>
<time>2026-08-31T20:22:06.000Z</time>
</trkpt>
<trkpt lat="59.4854336" lon="31.0710742">
<ele>61.470001</ele>
<time>2026-08-31T20:22:12.000Z</time>
</trkpt>
<trkpt lat="59.4854981" lon="31.0709039">
<ele>61.850002</ele>
<time>2026-08-31T20:22:30.000Z</time>
</trkpt>
<trkpt lat="59.4855527" lon="31.0707713">
<ele>61.560001</ele>
<time>2026-08-31T20:22:40.000Z</time>
</trkpt>
<trkpt lat="59.4856266" lon="31.0705838">
<ele>61.439999</ele>
<time>2026-08-31T20:22:51.000Z</time>
</trkpt>
<trkpt lat="59.4856893" lon="31.0703837">
<ele>60.980000</ele>
<time>2026-08-31T20:23:07.000Z</time>
</trkpt>
<trkpt lat="59.4857265" lon="31.0703236">
<ele>60.639999</ele>
<time>2026-08-31T20:23:17.000Z</time>
</trkpt>
<trkpt lat="59.4857740" lon="31.0702117">
<ele>60.550003</ele>
<time>2026-08-31T20:23:34.000Z</time>
</trkpt>
<trkpt lat="59.4858378" lon="31.0702102">
<ele>60.349998</ele>
<time>2026-08-31T20:24:00.000Z</time>
</trkpt>
<trkpt lat="59.4857557" lon="31.0700963">
<ele>60.700001</ele>
<time>2026-08-31T20:24:27.000Z</time>
</trkpt>
<trkpt lat="59.4858752" lon="31.0702274">
<ele>59.780003</ele>
<time>2026-08-31T20:24:58.000Z</time>
</trkpt>
<trkpt lat="59.4858743" lon="31.0702196">
<ele>61.400002</ele>
<time>2026-08-31T20:25:21.000Z</time>
</trkpt>
<trkpt lat="59.4858989" lon="31.0701783">
<ele>64.479996</ele>
<time>2026-08-31T20:25:52.000Z</time>
</trkpt>
<trkpt lat="59.4858935" lon="31.0702082">
<ele>64.339996</ele>
<time>2026-08-31T20:26:07.000Z</time>
</trkpt>
<trkpt lat="59.4858852" lon="31.0701328">
<ele>66.050003</ele>
<time>2026-08-31T20:26:41.000Z</time>
</trkpt>
<trkpt lat="59.4858602" lon="31.0700854">
<ele>67.199997</ele>
<time>2026-08-31T20:27:09.000Z</time>
</trkpt>
<trkpt lat="59.4858170" lon="31.0701308">
<ele>64.279999</ele>
<time>2026-08-31T20:27:38.000Z</time>
</trkpt>
<trkpt lat="59.4858921" lon="31.0701300">
<ele>62.099998</ele>
<time>2026-08-31T20:28:02.000Z</time>
</trkpt>
<trkpt lat="59.4859053" lon="31.0700462">
<ele>62.430000</ele>
<time>2026-08-31T20:28:26.000Z</time>
</trkpt>
<trkpt lat="59.4859295" lon="31.0700697">
<ele>62.450001</ele>
<time>2026-08-31T20:28:52.000Z</time>
</trkpt>
<trkpt lat="59.4859062" lon="31.0700955">
<ele>61.809998</ele>
<time>2026-08-31T20:29:21.000Z</time>
</trkpt>
<trkpt lat="59.4859183" lon="31.0700662">
<ele>62.170002</ele>
<time>2026-08-31T20:29:30.000Z</time>
</trkpt>
<trkpt lat="59.4859914" lon="31.0699634">
<ele>62.660000</ele>
<time>2026-08-31T20:29:44.000Z</time>
</trkpt>
<trkpt lat="59.4861094" lon="31.0697604">
<ele>63.440002</ele>
<time>2026-08-31T20:30:01.000Z</time>
</trkpt>
<trkpt lat="59.4861546" lon="31.0696464">
<ele>64.060005</ele>
<time>2026-08-31T20:30:11.000Z</time>
</trkpt>
<trkpt lat="59.4862223" lon="31.0694567">
<ele>64.550003</ele>
<time>2026-08-31T20:30:23.000Z</time>
</trkpt>
<trkpt lat="59.4863188" lon="31.0692869">
<ele>64.799995</ele>
<time>2026-08-31T20:30:36.000Z</time>
</trkpt>
<trkpt lat="59.4863574" lon="31.0691846">
<ele>65.349998</ele>
<time>2026-08-31T20:30:50.000Z</time>
</trkpt>
<trkpt lat="59.4864136" lon="31.0690953">
<ele>65.279999</ele>
<time>2026-08-31T20:31:01.000Z</time>
</trkpt>
<trkpt lat="59.4864840" lon="31.0689082">
<ele>65.239998</ele>
<time>2026-08-31T20:31:14.000Z</time>
</trkpt>
<trkpt lat="59.4865104" lon="31.0687402">
<ele>64.590004</ele>
<time>2026-08-31T20:31:25.000Z</time>
</trkpt>
<trkpt lat="59.4866282" lon="31.0685223">
<ele>63.920002</ele>
<time>2026-08-31T20:31:41.000Z</time>
</trkpt>
<trkpt lat="59.4866821" lon="31.0683826">
<ele>63.489998</ele>
<time>2026-08-31T20:31:58.000Z</time>
</trkpt>
<trkpt lat="59.4868164" lon="31.0682230">
<ele>63.610001</ele>
<time>2026-08-31T20:32:17.000Z</time>
</trkpt>
<trkpt lat="59.4868630" lon="31.0681407">
<ele>64.040001</ele>
<time>2026-08-31T20:32:40.000Z</time>
</trkpt>
<trkpt lat="59.4869632" lon="31.0681644">
<ele>61.650002</ele>
<time>2026-08-31T20:33:07.000Z</time>
</trkpt>
<trkpt lat="59.4869568" lon="31.0680919">
<ele>60.340000</ele>
<time>2026-08-31T20:33:36.000Z</time>
</trkpt>
<trkpt lat="59.4869545" lon="31.0681439">
<ele>61.700001</ele>
<time>2026-08-31T20:34:04.000Z</time>
</trkpt>
<trkpt lat="59.4869687" lon="31.0680833">
<ele>62.029999</ele>
<time>2026-08-31T20:34:34.000Z</time>
</trkpt>
<trkpt lat="59.4869078" lon="31.0681100">
<ele>61.209999</ele>
<time>2026-08-31T20:35:15.000Z</time>
</trkpt>
<trkpt lat="59.4869078" lon="31.0680924">
<ele>62.119999</ele>
<time>2026-08-31T20:35:39.000Z</time>
</trkpt>
<trkpt lat="59.4868910" lon="31.0680674">
<ele>62.920002</ele>
<time>2026-08-31T20:36:09.000Z</time>
</trkpt>
<trkpt lat="59.4869288" lon="31.0679937">
<ele>63.570000</ele>
<time>2026-08-31T20:36:30.000Z</time>
</trkpt>
<trkpt lat="59.4870321" lon="31.0678663">
<ele>63.279999</ele>
<time>2026-08-31T20:36:50.000Z</time>
</trkpt>
<trkpt lat="59.4871365" lon="31.0676610">
<ele>62.220001</ele>
<time>2026-08-31T20:37:09.000Z</time>
</trkpt>
<trkpt lat="59.4873115" lon="31.0674000">
<ele>59.590000</ele>
<time>2026-08-31T20:37:34.000Z</time>
</trkpt>
<trkpt lat="59.4873869" lon="31.0671921">
<ele>58.149998</ele>
<time>2026-08-31T20:37:55.000Z</time>
</trkpt>
<trkpt lat="59.4873683" lon="31.0671878">
<ele>57.660000</ele>
<time>2026-08-31T20:38:17.000Z</time>
</trkpt>
<trkpt lat="59.4873649" lon="31.0673874">
<ele>56.910000</ele>
<time>2026-08-31T20:38:39.000Z</time>
</trkpt>
<trkpt lat="59.4874013" lon="31.0674099">
<ele>58.670002</ele>
<time>2026-08-31T20:39:09.000Z</time>
</trkpt>
<trkpt lat="59.4873816" lon="31.0674376">
<ele>57.570004</ele>
<time>2026-08-31T20:39:44.000Z</time>
</trkpt>
<trkpt lat="59.4873790" lon="31.0674301">
<ele>57.610001</ele>
<time>2026-08-31T20:39:46.000Z</time>
</trkpt>
<trkpt lat="59.4873574" lon="31.0673270">
<ele>58.490002</ele>
<time>2026-08-31T20:41:18.000Z</time>
</trkpt>
<trkpt lat="59.4873794" lon="31.0672683">
<ele>58.960003</ele>
<time>2026-08-31T20:41:45.000Z</time>
</trkpt>
<trkpt lat="59.4873789" lon="31.0673467">
<ele>58.590000</ele>
<time>2026-08-31T20:42:25.000Z</time>
</trkpt>
<trkpt lat="59.4873852" lon="31.0673612">
<ele>58.549999</ele>
<time>2026-08-31T20:42:26.000Z</time>
</trkpt>
<trkpt lat="59.4874461" lon="31.0674798">
<ele>58.180004</ele>
<time>2026-08-31T20:42:38.000Z</time>
</trkpt>
<trkpt lat="59.4876208" lon="31.0676375">
<ele>57.949997</ele>
<time>2026-08-31T20:43:10.000Z</time>
</trkpt>
<trkpt lat="59.4876217" lon="31.0676428">
<ele>56.680000</ele>
<time>2026-08-31T20:43:33.000Z</time>
</trkpt>
<trkpt lat="59.4875776" lon="31.0676378">
<ele>56.799999</ele>
<time>2026-08-31T20:44:19.000Z</time>
</trkpt>
<trkpt lat="59.4876326" lon="31.0676635">
<ele>56.810001</ele>
<time>2026-08-31T20:44:43.000Z</time>
</trkpt>
<trkpt lat="59.4876268" lon="31.0676991">
<ele>56.849998</ele>
<time>2026-08-31T20:44:50.000Z</time>
</trkpt>
<trkpt lat="59.4876740" lon="31.0679875">
<ele>56.440002</ele>
<time>2026-08-31T20:45:29.000Z</time>
</trkpt>
<trkpt lat="59.4877523" lon="31.0681001">
<ele>58.750000</ele>
<time>2026-08-31T20:45:49.000Z</time>
</trkpt>
<trkpt lat="59.4878507" lon="31.0681880">
<ele>59.020000</ele>
<time>2026-08-31T20:46:12.000Z</time>
</trkpt>
<trkpt lat="59.4878545" lon="31.0683488">
<ele>60.390003</ele>
<time>2026-08-31T20:46:32.000Z</time>
</trkpt>
<trkpt lat="59.4879676" lon="31.0683344">
<ele>60.320004</ele>
<time>2026-08-31T20:46:53.000Z</time>
</trkpt>
<trkpt lat="59.4880064" lon="31.0683853">
<ele>60.270000</ele>
<time>2026-08-31T20:47:09.000Z</time>
</trkpt>
<trkpt lat="59.4879990" lon="31.0683115">
<ele>60.189999</ele>
<time>2026-08-31T20:47:28.000Z</time>
</trkpt>
<trkpt lat="59.4880271" lon="31.0683671">
<ele>60.119999</ele>
<time>2026-08-31T20:47:49.000Z</time>
</trkpt>
<trkpt lat="59.4880083" lon="31.0684264">
<ele>60.170002</ele>
<time>2026-08-31T20:47:56.000Z</time>
</trkpt>
<trkpt lat="59.4879438" lon="31.0685656">
<ele>60.000000</ele>
<time>2026-08-31T20:48:11.000Z</time>
</trkpt>
<trkpt lat="59.4879341" lon="31.0686866">
<ele>59.950001</ele>
<time>2026-08-31T20:48:23.000Z</time>
</trkpt>
<trkpt lat="59.4879858" lon="31.0687513">
<ele>60.980000</ele>
<time>2026-08-31T20:48:44.000Z</time>
</trkpt>
<trkpt lat="59.4880001" lon="31.0688925">
<ele>61.430000</ele>
<time>2026-08-31T20:49:04.000Z</time>
</trkpt>
<trkpt lat="59.4880961" lon="31.0690185">
<ele>61.139999</ele>
<time>2026-08-31T20:49:29.000Z</time>
</trkpt>
<trkpt lat="59.4880007" lon="31.0691597">
<ele>61.209999</ele>
<time>2026-08-31T20:49:59.000Z</time>
</trkpt>
<trkpt lat="59.4880574" lon="31.0692363">
<ele>61.930000</ele>
<time>2026-08-31T20:50:27.000Z</time>
</trkpt>
<trkpt lat="59.4882028" lon="31.0691157">
<ele>62.560001</ele>
<time>2026-08-31T20:51:07.000Z</time>
</trkpt>
<trkpt lat="59.4880898" lon="31.0689853">
<ele>63.520000</ele>
<time>2026-08-31T20:51:38.000Z</time>
</trkpt>
<trkpt lat="59.4881289" lon="31.0690350">
<ele>61.059998</ele>
<time>2026-08-31T20:52:17.000Z</time>
</trkpt>
<trkpt lat="59.4881492" lon="31.0691328">
<ele>60.940002</ele>
<time>2026-08-31T20:52:53.000Z</time>
</trkpt>
<trkpt lat="59.4881707" lon="31.0691523">
<ele>60.710003</ele>
<time>2026-08-31T20:53:25.000Z</time>
</trkpt>
<trkpt lat="59.4881833" lon="31.0691338">
<ele>61.610001</ele>
<time>2026-08-31T20:53:56.000Z</time>
</trkpt>
<trkpt lat="59.4881269" lon="31.0691519">
<ele>60.550003</ele>
<time>2026-08-31T20:54:24.000Z</time>
</trkpt>
<trkpt lat="59.4880789" lon="31.0692110">
<ele>60.529999</ele>
<time>2026-08-31T20:54:30.000Z</time>
</trkpt>
<trkpt lat="59.4880132" lon="31.0692972">
<ele>60.899998</ele>
<time>2026-08-31T20:54:42.000Z</time>
</trkpt>
<trkpt lat="59.4879208" lon="31.0693893">
<ele>60.989998</ele>
<time>2026-08-31T20:54:57.000Z</time>
</trkpt>
<trkpt lat="59.4878403" lon="31.0696098">
<ele>61.610001</ele>
<time>2026-08-31T20:55:19.000Z</time>
</trkpt>
<trkpt lat="59.4878064" lon="31.0698128">
<ele>61.380001</ele>
<time>2026-08-31T20:55:36.000Z</time>
</trkpt>
<trkpt lat="59.4877621" lon="31.0700538">
<ele>60.059998</ele>
<time>2026-08-31T20:55:56.000Z</time>
</trkpt>
<trkpt lat="59.4877325" lon="31.0701545">
<ele>59.950001</ele>
<time>2026-08-31T20:56:07.000Z</time>
</trkpt>
<trkpt lat="59.4876335" lon="31.0703385">
<ele>59.689999</ele>
<time>2026-08-31T20:56:27.000Z</time>
</trkpt>
<trkpt lat="59.4876072" lon="31.0705278">
<ele>58.880001</ele>
<time>2026-08-31T20:56:50.000Z</time>
</trkpt>
<trkpt lat="59.4875493" lon="31.0705639">
<ele>57.160000</ele>
<time>2026-08-31T20:57:11.000Z</time>
</trkpt>
<trkpt lat="59.4874718" lon="31.0706102">
<ele>57.459999</ele>
<time>2026-08-31T20:57:29.000Z</time>
</trkpt>
<trkpt lat="59.4874134" lon="31.0707283">
<ele>57.090000</ele>
<time>2026-08-31T20:57:44.000Z</time>
</trkpt>
<trkpt lat="59.4873990" lon="31.0707975">
<ele>57.469997</ele>
<time>2026-08-31T20:58:06.000Z</time>
</trkpt>
<trkpt lat="59.4873664" lon="31.0708231">
<ele>58.750000</ele>
<time>2026-08-31T20:58:29.000Z</time>
</trkpt>
<trkpt lat="59.4873796" lon="31.0709022">
<ele>58.009998</ele>
<time>2026-08-31T20:58:55.000Z</time>
</trkpt>
<trkpt lat="59.4873985" lon="31.0710601">
<ele>58.190002</ele>
<time>2026-08-31T20:59:09.000Z</time>
</trkpt>
<trkpt lat="59.4873544" lon="31.0712851">
<ele>58.929996</ele>
<time>2026-08-31T20:59:28.000Z</time>
</trkpt>
<trkpt lat="59.4873407" lon="31.0713064">
<ele>58.870003</ele>
<time>2026-08-31T20:59:30.000Z</time>
</trkpt>
<trkpt lat="59.4872180" lon="31.0713853">
<ele>53.820000</ele>
<time>2026-08-31T21:00:02.000Z</time>
</trkpt>
<trkpt lat="59.4872192" lon="31.0713846">
<ele>53.529999</ele>
<time>2026-08-31T21:00:29.000Z</time>
</trkpt>
<trkpt lat="59.4872216" lon="31.0714313">
<ele>54.129997</ele>
<time>2026-08-31T21:00:49.000Z</time>
</trkpt>
<trkpt lat="59.4873077" lon="31.0713554">
<ele>53.700001</ele>
<time>2026-08-31T21:01:40.000Z</time>
</trkpt>
<trkpt lat="59.4872713" lon="31.0713675">
<ele>52.880001</ele>
<time>2026-08-31T21:03:05.000Z</time>
</trkpt>
<trkpt lat="59.4872760" lon="31.0715247">
<ele>52.739998</ele>
<time>2026-08-31T21:03:55.000Z</time>
</trkpt>
<trkpt lat="59.4872933" lon="31.0715942">
<ele>51.490002</ele>
<time>2026-08-31T21:04:09.000Z</time>
</trkpt>
<trkpt lat="59.4872344" lon="31.0717471">
<ele>50.870003</ele>
<time>2026-08-31T21:04:23.000Z</time>
</trkpt>
<trkpt lat="59.4872090" lon="31.0718410">
<ele>51.119999</ele>
<time>2026-08-31T21:04:37.000Z</time>
</trkpt>
<trkpt lat="59.4871924" lon="31.0719266">
<ele>51.139999</ele>
<time>2026-08-31T21:04:50.000Z</time>
</trkpt>
<trkpt lat="59.4872042" lon="31.0719600">
<ele>51.369999</ele>
<time>2026-08-31T21:05:07.000Z</time>
</trkpt>
<trkpt lat="59.4871862" lon="31.0720359">
<ele>52.750000</ele>
<time>2026-08-31T21:05:31.000Z</time>
</trkpt>
<trkpt lat="59.4871681" lon="31.0721734">
<ele>52.480000</ele>
<time>2026-08-31T21:05:48.000Z</time>
</trkpt>
<trkpt lat="59.4870985" lon="31.0723530">
<ele>52.529999</ele>
<time>2026-08-31T21:06:01.000Z</time>
</trkpt>
<trkpt lat="59.4870415" lon="31.0724985">
<ele>52.289997</ele>
<time>2026-08-31T21:06:14.000Z</time>
</trkpt>
<trkpt lat="59.4869771" lon="31.0725695">
<ele>52.799999</ele>
<time>2026-08-31T21:06:28.000Z</time>
</trkpt>
<trkpt lat="59.4868903" lon="31.0727243">
<ele>52.200001</ele>
<time>2026-08-31T21:07:06.000Z</time>
</trkpt>
<trkpt lat="59.4867512" lon="31.0729336">
<ele>51.529999</ele>
<time>2026-08-31T21:07:27.000Z</time>
</trkpt>
<trkpt lat="59.4866490" lon="31.0731338">
<ele>50.149998</ele>
<time>2026-08-31T21:07:48.000Z</time>
</trkpt>
<trkpt lat="59.4865802" lon="31.0733546">
<ele>49.660000</ele>
<time>2026-08-31T21:08:06.000Z</time>
</trkpt>
<trkpt lat="59.4864972" lon="31.0735449">
<ele>49.450001</ele>
<time>2026-08-31T21:08:25.000Z</time>
</trkpt>
<trkpt lat="59.4864920" lon="31.0736142">
<ele>49.320000</ele>
<time>2026-08-31T21:08:46.000Z</time>
</trkpt>
<trkpt lat="59.4865098" lon="31.0736032">
<ele>49.029999</ele>
<time>2026-08-31T21:09:18.000Z</time>
</trkpt>
<trkpt lat="59.4865094" lon="31.0736031">
<ele>49.009998</ele>
<time>2026-08-31T21:09:19.000Z</time>
</trkpt>
<trkpt lat="59.4864464" lon="31.0735337">
<ele>48.250000</ele>
<time>2026-08-31T21:09:52.000Z</time>
</trkpt>
<trkpt lat="59.4864787" lon="31.0735758">
<ele>48.590000</ele>
<time>2026-08-31T21:10:14.000Z</time>
</trkpt>
<trkpt lat="59.4865005" lon="31.0736023">
<ele>47.559998</ele>
<time>2026-08-31T21:10:47.000Z</time>
</trkpt>
<trkpt lat="59.4864618" lon="31.0736519">
<ele>48.619999</ele>
<time>2026-08-31T21:11:16.000Z</time>
</trkpt>
<trkpt lat="59.4864054" lon="31.0736567">
<ele>47.830002</ele>
<time>2026-08-31T21:11:40.000Z</time>
</trkpt>
<trkpt lat="59.4863400" lon="31.0737378">
<ele>47.830002</ele>
<time>2026-08-31T21:11:55.000Z</time>
</trkpt>
<trkpt lat="59.4862667" lon="31.0738172">
<ele>48.310001</ele>
<time>2026-08-31T21:12:10.000Z</time>
</trkpt>
<trkpt lat="59.4862449" lon="31.0739383">
<ele>48.430000</ele>
<time>2026-08-31T21:12:25.000Z</time>
</trkpt>
<trkpt lat="59.4862324" lon="31.0739847">
<ele>48.410000</ele>
<time>2026-08-31T21:12:28.000Z</time>
</trkpt>
<trkpt lat="59.4861659" lon="31.0741762">
<ele>48.150002</ele>
<time>2026-08-31T21:12:43.000Z</time>
</trkpt>
<trkpt lat="59.4860995" lon="31.0743192">
<ele>47.949997</ele>
<time>2026-08-31T21:12:56.000Z</time>
</trkpt>
<trkpt lat="59.4860892" lon="31.0744396">
<ele>47.670002</ele>
<time>2026-08-31T21:13:09.000Z</time>
</trkpt>
<trkpt lat="59.4860232" lon="31.0745768">
<ele>47.799999</ele>
<time>2026-08-31T21:13:37.000Z</time>
</trkpt>
<trkpt lat="59.4859693" lon="31.0747257">
<ele>49.029999</ele>
<time>2026-08-31T21:13:54.000Z</time>
</trkpt>
<trkpt lat="59.4859103" lon="31.0748570">
<ele>49.160000</ele>
<time>2026-08-31T21:14:06.000Z</time>
</trkpt>
<trkpt lat="59.4858345" lon="31.0750231">
<ele>49.270000</ele>
<time>2026-08-31T21:14:23.000Z</time>
</trkpt>
<trkpt lat="59.4858092" lon="31.0751821">
<ele>49.070000</ele>
<time>2026-08-31T21:14:36.000Z</time>
</trkpt>
<trkpt lat="59.4857638" lon="31.0752655">
<ele>48.619999</ele>
<time>2026-08-31T21:15:07.000Z</time>
</trkpt>
<trkpt lat="59.4857662" lon="31.0752916">
<ele>48.750000</ele>
<time>2026-08-31T21:15:11.000Z</time>
</trkpt>
<trkpt lat="59.4857167" lon="31.0753145">
<ele>47.740002</ele>
<time>2026-08-31T21:15:35.000Z</time>
</trkpt>
<trkpt lat="59.4857203" lon="31.0753136">
<ele>47.489998</ele>
<time>2026-08-31T21:16:01.000Z</time>
</trkpt>
<trkpt lat="59.4857367" lon="31.0753443">
<ele>46.730000</ele>
<time>2026-08-31T21:16:25.000Z</time>
</trkpt>
<trkpt lat="59.4857355" lon="31.0753304">
<ele>46.240002</ele>
<time>2026-08-31T21:16:47.000Z</time>
</trkpt>
<trkpt lat="59.4857262" lon="31.0753683">
<ele>46.500000</ele>
<time>2026-08-31T21:17:13.000Z</time>
</trkpt>
<trkpt lat="59.4856659" lon="31.0754667">
<ele>45.909996</ele>
<time>2026-08-31T21:17:34.000Z</time>
</trkpt>
<trkpt lat="59.4856280" lon="31.0755570">
<ele>45.110001</ele>
<time>2026-08-31T21:17:51.000Z</time>
</trkpt>
<trkpt lat="59.4856942" lon="31.0754642">
<ele>44.750000</ele>
<time>2026-08-31T21:18:11.000Z</time>
</trkpt>
<trkpt lat="59.4856456" lon="31.0754101">
<ele>43.650002</ele>
<time>2026-08-31T21:18:32.000Z</time>
</trkpt>
<trkpt lat="59.4856270" lon="31.0754562">
<ele>42.870003</ele>
<time>2026-08-31T21:19:02.000Z</time>
</trkpt>
<trkpt lat="59.4856647" lon="31.0753878">
<ele>42.120003</ele>
<time>2026-08-31T21:19:33.000Z</time>
</trkpt>
<trkpt lat="59.4856377" lon="31.0754529">
<ele>41.820000</ele>
<time>2026-08-31T21:19:59.000Z</time>
</trkpt>
<trkpt lat="59.4855580" lon="31.0754943">
<ele>39.740002</ele>
<time>2026-08-31T21:20:30.000Z</time>
</trkpt>
<trkpt lat="59.4854387" lon="31.0754502">
<ele>39.489998</ele>
<time>2026-08-31T21:20:49.000Z</time>
</trkpt>
<trkpt lat="59.4854691" lon="31.0753242">
<ele>38.220001</ele>
<time>2026-08-31T21:21:16.000Z</time>
</trkpt>
<trkpt lat="59.4854292" lon="31.0752495">
<ele>38.389999</ele>
<time>2026-08-31T21:21:23.000Z</time>
</trkpt>
<trkpt lat="59.4852525" lon="31.0750320">
<ele>39.090000</ele>
<time>2026-08-31T21:21:47.000Z</time>
</trkpt>
<trkpt lat="59.4851647" lon="31.0748750">
<ele>38.520000</ele>
<time>2026-08-31T21:22:03.000Z</time>
</trkpt>
<trkpt lat="59.4851212" lon="31.0748030">
<ele>38.079998</ele>
<time>2026-08-31T21:22:26.000Z</time>
</trkpt>
<trkpt lat="59.4851303" lon="31.0747284">
<ele>38.200001</ele>
<time>2026-08-31T21:22:46.000Z</time>
</trkpt>
<trkpt lat="59.4850018" lon="31.0745946">
<ele>39.169998</ele>
<time>2026-08-31T21:23:02.000Z</time>
</trkpt>
<trkpt lat="59.4848462" lon="31.0744677">
<ele>40.370003</ele>
<time>2026-08-31T21:23:22.000Z</time>
</trkpt>
<trkpt lat="59.4846920" lon="31.0742693">
<ele>41.730003</ele>
<time>2026-08-31T21:23:39.000Z</time>
</trkpt>
<trkpt lat="59.4846086" lon="31.0741768">
<ele>42.610001</ele>
<time>2026-08-31T21:23:49.000Z</time>
</trkpt>
<trkpt lat="59.4845601" lon="31.0740920">
<ele>43.299999</ele>
<time>2026-08-31T21:24:01.000Z</time>
</trkpt>
<trkpt lat="59.4845053" lon="31.0739843">
<ele>43.689999</ele>
<time>2026-08-31T21:24:07.000Z</time>
</trkpt>
<trkpt lat="59.4844355" lon="31.0739490">
<ele>43.710003</ele>
<time>2026-08-31T21:24:21.000Z</time>
</trkpt>
<trkpt lat="59.4844329" lon="31.0738763">
<ele>43.940002</ele>
<time>2026-08-31T21:24:32.000Z</time>
</trkpt>
<trkpt lat="59.4843484" lon="31.0738023">
<ele>43.870003</ele>
<time>2026-08-31T21:24:49.000Z</time>
</trkpt>
<trkpt lat="59.4843472" lon="31.0737745">
<ele>44.020000</ele>
<time>2026-08-31T21:25:23.000Z</time>
</trkpt>
<trkpt lat="59.4843586" lon="31.0738944">
<ele>44.110001</ele>
<time>2026-08-31T21:25:42.000Z</time>
</trkpt>
<trkpt lat="59.4843399" lon="31.0740681">
<ele>44.689999</ele>
<time>2026-08-31T21:26:07.000Z</time>
</trkpt>
<trkpt lat="59.4844610" lon="31.0741588">
<ele>45.349998</ele>
<time>2026-08-31T21:26:24.000Z</time>
</trkpt>
<trkpt lat="59.4845493" lon="31.0742106">
<ele>45.620003</ele>
<time>2026-08-31T21:26:34.000Z</time>
</trkpt>
<trkpt lat="59.4845655" lon="31.0742594">
<ele>45.950001</ele>
<time>2026-08-31T21:26:45.000Z</time>
</trkpt>
<trkpt lat="59.4846535" lon="31.0743507">
<ele>46.349998</ele>
<time>2026-08-31T21:27:00.000Z</time>
</trkpt>
<trkpt lat="59.4847781" lon="31.0744304">
<ele>46.279999</ele>
<time>2026-08-31T21:27:14.000Z</time>
</trkpt>
<trkpt lat="59.4848540" lon="31.0744284">
<ele>46.110001</ele>
<time>2026-08-31T21:27:30.000Z</time>
</trkpt>
<trkpt lat="59.4849278" lon="31.0746137">
<ele>46.349998</ele>
<time>2026-08-31T21:27:48.000Z</time>
</trkpt>
<trkpt lat="59.4849735" lon="31.0748438">
<ele>46.889999</ele>
<time>2026-08-31T21:28:04.000Z</time>
</trkpt>
<trkpt lat="59.4850203" lon="31.0749972">
<ele>46.570000</ele>
<time>2026-08-31T21:28:22.000Z</time>
</trkpt>
<trkpt lat="59.4849990" lon="31.0750550">
<ele>46.480000</ele>
<time>2026-08-31T21:28:25.000Z</time>
</trkpt>
<trkpt lat="59.4849322" lon="31.0752541">
<ele>46.160000</ele>
<time>2026-08-31T21:28:38.000Z</time>
</trkpt>
<trkpt lat="59.4850454" lon="31.0752018">
<ele>46.349998</ele>
<time>2026-08-31T21:28:56.000Z</time>
</trkpt>
<trkpt lat="59.4851544" lon="31.0751705">
<ele>46.059998</ele>
<time>2026-08-31T21:29:11.000Z</time>
</trkpt>
<trkpt lat="59.4851642" lon="31.0751775">
<ele>46.059998</ele>
<time>2026-08-31T21:29:13.000Z</time>
</trkpt>
<trkpt lat="59.4852152" lon="31.0752391">
<ele>46.119999</ele>
<time>2026-08-31T21:29:24.000Z</time>
</trkpt>
<trkpt lat="59.4852474" lon="31.0752773">
<ele>46.160000</ele>
<time>2026-08-31T21:29:40.000Z</time>
</trkpt>
<trkpt lat="59.4852989" lon="31.0753207">
<ele>45.679996</ele>
<time>2026-08-31T21:29:59.000Z</time>
</trkpt>
<trkpt lat="59.4852814" lon="31.0753404">
<ele>44.040001</ele>
<time>2026-08-31T21:30:36.000Z</time>
</trkpt>
<trkpt lat="59.4852086" lon="31.0753232">
<ele>45.230003</ele>
<time>2026-08-31T21:31:00.000Z</time>
</trkpt>
<trkpt lat="59.4851743" lon="31.0753715">
<ele>44.299999</ele>
<time>2026-08-31T21:31:23.000Z</time>
</trkpt>
<trkpt lat="59.4852525" lon="31.0754294">
<ele>41.060001</ele>
<time>2026-08-31T21:31:55.000Z</time>
</trkpt>
<trkpt lat="59.4852528" lon="31.0754247">
<ele>40.020000</ele>
<time>2026-08-31T21:32:27.000Z</time>
</trkpt>
<trkpt lat="59.4852675" lon="31.0754121">
<ele>40.499996</ele>
<time>2026-08-31T21:32:37.000Z</time>
</trkpt>
<trkpt lat="59.4852264" lon="31.0752753">
<ele>40.900002</ele>
<time>2026-08-31T21:33:04.000Z</time>
</trkpt>
<trkpt lat="59.4852332" lon="31.0752980">
<ele>40.719997</ele>
<time>2026-08-31T21:33:53.000Z</time>
</trkpt>
<trkpt lat="59.4852275" lon="31.0752855">
<ele>38.560001</ele>
<time>2026-08-31T21:34:31.000Z</time>
</trkpt>
<trkpt lat="59.4851648" lon="31.0752414">
<ele>39.840000</ele>
<time>2026-08-31T21:34:57.000Z</time>
</trkpt>
<trkpt lat="59.4851690" lon="31.0753443">
<ele>39.630001</ele>
<time>2026-08-31T21:35:23.000Z</time>
</trkpt>
<trkpt lat="59.4852173" lon="31.0753782">
<ele>39.160000</ele>
<time>2026-08-31T21:35:49.000Z</time>
</trkpt>
<trkpt lat="59.4851941" lon="31.0754131">
<ele>38.750000</ele>
<time>2026-08-31T21:36:16.000Z</time>
</trkpt>
<trkpt lat="59.4852028" lon="31.0755710">
<ele>39.189999</ele>
<time>2026-08-31T21:36:37.000Z</time>
</trkpt>
<trkpt lat="59.4851903" lon="31.0756301">
<ele>39.470001</ele>
<time>2026-08-31T21:36:44.000Z</time>
</trkpt>
<trkpt lat="59.4851150" lon="31.0758017">
<ele>39.180000</ele>
<time>2026-08-31T21:36:57.000Z</time>
</trkpt>
<trkpt lat="59.4850634" lon="31.0758450">
<ele>39.230000</ele>
<time>2026-08-31T21:37:04.000Z</time>
</trkpt>
<trkpt lat="59.4849568" lon="31.0760773">
<ele>38.840000</ele>
<time>2026-08-31T21:37:19.000Z</time>
</trkpt>
<trkpt lat="59.4848449" lon="31.0762866">
<ele>38.240002</ele>
<time>2026-08-31T21:37:37.000Z</time>
</trkpt>
<trkpt lat="59.4848263" lon="31.0763579">
<ele>37.989998</ele>
<time>2026-08-31T21:37:41.000Z</time>
</trkpt>
<trkpt lat="59.4847483" lon="31.0764706">
<ele>37.579998</ele>
<time>2026-08-31T21:37:52.000Z</time>
</trkpt>
<trkpt lat="59.4846585" lon="31.0766025">
<ele>37.630001</ele>
<time>2026-08-31T21:38:04.000Z</time>
</trkpt>
<trkpt lat="59.4846452" lon="31.0766366">
<ele>37.610001</ele>
<time>2026-08-31T21:38:07.000Z</time>
</trkpt>
<trkpt lat="59.4845777" lon="31.0767899">
<ele>37.549999</ele>
<time>2026-08-31T21:38:18.000Z</time>
</trkpt>
<trkpt lat="59.4845042" lon="31.0768747">
<ele>37.270000</ele>
<time>2026-08-31T21:38:29.000Z</time>
</trkpt>
<trkpt lat="59.4844254" lon="31.0768923">
<ele>36.160000</ele>
<time>2026-08-31T21:38:51.000Z</time>
</trkpt>
<trkpt lat="59.4844384" lon="31.0768237">
<ele>35.549999</ele>
<time>2026-08-31T21:39:24.000Z</time>
</trkpt>
<trkpt lat="59.4844390" lon="31.0768860">
<ele>35.190002</ele>
<time>2026-08-31T21:39:48.000Z</time>
</trkpt>
<trkpt lat="59.4843857" lon="31.0768639">
<ele>34.770000</ele>
<time>2026-08-31T21:40:19.000Z</time>
</trkpt>
<trkpt lat="59.4844299" lon="31.0767909">
<ele>34.369999</ele>
<time>2026-08-31T21:40:52.000Z</time>
</trkpt>
<trkpt lat="59.4844414" lon="31.0768323">
<ele>34.360001</ele>
<time>2026-08-31T21:41:19.000Z</time>
</trkpt>
<trkpt lat="59.4844653" lon="31.0768454">
<ele>32.279999</ele>
<time>2026-08-31T21:41:54.000Z</time>
</trkpt>
<trkpt lat="59.4844015" lon="31.0768650">
<ele>30.860001</ele>
<time>2026-08-31T21:42:17.000Z</time>
</trkpt>
<trkpt lat="59.4843282" lon="31.0768388">
<ele>32.849998</ele>
<time>2026-08-31T21:42:44.000Z</time>
</trkpt>
<trkpt lat="59.4843488" lon="31.0768122">
<ele>38.540001</ele>
<time>2026-08-31T21:43:15.000Z</time>
</trkpt>
<trkpt lat="59.4843748" lon="31.0769481">
<ele>41.130001</ele>
<time>2026-08-31T21:43:42.000Z</time>
</trkpt>
<trkpt lat="59.4843101" lon="31.0771734">
<ele>42.139999</ele>
<time>2026-08-31T21:44:04.000Z</time>
</trkpt>
<trkpt lat="59.4842304" lon="31.0773099">
<ele>42.560001</ele>
<time>2026-08-31T21:44:16.000Z</time>
</trkpt>
<trkpt lat="59.4841550" lon="31.0774387">
<ele>42.880001</ele>
<time>2026-08-31T21:44:29.000Z</time>
</trkpt>
<trkpt lat="59.4840820" lon="31.0776400">
<ele>43.439999</ele>
<time>2026-08-31T21:44:46.000Z</time>
</trkpt>
<trkpt lat="59.4839581" lon="31.0778742">
<ele>44.720001</ele>
<time>2026-08-31T21:45:06.000Z</time>
</trkpt>
<trkpt lat="59.4838159" lon="31.0781385">
<ele>44.889999</ele>
<time>2026-08-31T21:45:27.000Z</time>
</trkpt>
<trkpt lat="59.4837178" lon="31.0783086">
<ele>45.080002</ele>
<time>2026-08-31T21:45:42.000Z</time>
</trkpt>
<trkpt lat="59.4836786" lon="31.0784257">
<ele>45.289997</ele>
<time>2026-08-31T21:45:54.000Z</time>
</trkpt>
<trkpt lat="59.4836635" lon="31.0784828">
<ele>45.150002</ele>
<time>2026-08-31T21:46:19.000Z</time>
</trkpt>
<trkpt lat="59.4836413" lon="31.0785367">
<ele>44.630001</ele>
<time>2026-08-31T21:46:41.000Z</time>
</trkpt>
<trkpt lat="59.4836417" lon="31.0785425">
<ele>44.599998</ele>
<time>2026-08-31T21:46:42.000Z</time>
</trkpt>
<trkpt lat="59.4836552" lon="31.0786438">
<ele>43.840000</ele>
<time>2026-08-31T21:46:59.000Z</time>
</trkpt>
<trkpt lat="59.4836389" lon="31.0786559">
<ele>43.590000</ele>
<time>2026-08-31T21:47:10.000Z</time>
</trkpt>
<trkpt lat="59.4836680" lon="31.0786493">
<ele>43.350002</ele>
<time>2026-08-31T21:47:41.000Z</time>
</trkpt>
<trkpt lat="59.4836325" lon="31.0784833">
<ele>42.759998</ele>
<time>2026-08-31T21:47:58.000Z</time>
</trkpt>
<trkpt lat="59.4836472" lon="31.0784259">
<ele>43.000000</ele>
<time>2026-08-31T21:48:16.000Z</time>
</trkpt>
<trkpt lat="59.4836529" lon="31.0785472">
<ele>44.030003</ele>
<time>2026-08-31T21:48:41.000Z</time>
</trkpt>
<trkpt lat="59.4835907" lon="31.0786880">
<ele>44.270000</ele>
<time>2026-08-31T21:48:58.000Z</time>
</trkpt>
<trkpt lat="59.4835878" lon="31.0787741">
<ele>44.369999</ele>
<time>2026-08-31T21:49:13.000Z</time>
</trkpt>
<trkpt lat="59.4835478" lon="31.0787988">
<ele>44.410000</ele>
<time>2026-08-31T21:49:24.000Z</time>
</trkpt>
<trkpt lat="59.4834455" lon="31.0788802">
<ele>44.379997</ele>
<time>2026-08-31T21:49:38.000Z</time>
</trkpt>
<trkpt lat="59.4833965" lon="31.0788508">
<ele>43.849998</ele>
<time>2026-08-31T21:50:08.000Z</time>
</trkpt>
<trkpt lat="59.4833436" lon="31.0788515">
<ele>44.780003</ele>
<time>2026-08-31T21:50:37.000Z</time>
</trkpt>
<trkpt lat="59.4832362" lon="31.0788340">
<ele>44.689999</ele>
<time>2026-08-31T21:51:13.000Z</time>
</trkpt>
<trkpt lat="59.4832756" lon="31.0787803">
<ele>44.330002</ele>
<time>2026-08-31T21:51:44.000Z</time>
</trkpt>
<trkpt lat="59.4833786" lon="31.0789362">
<ele>45.639999</ele>
<time>2026-08-31T21:52:12.000Z</time>
</trkpt>
<trkpt lat="59.4833968" lon="31.0788632">
<ele>46.649998</ele>
<time>2026-08-31T21:52:39.000Z</time>
</trkpt>
<trkpt lat="59.4833917" lon="31.0788139">
<ele>47.259998</ele>
<time>2026-08-31T21:53:05.000Z</time>
</trkpt>
<trkpt lat="59.4833315" lon="31.0786789">
<ele>46.279999</ele>
<time>2026-08-31T21:53:34.000Z</time>
</trkpt>
<trkpt lat="59.4833288" lon="31.0787427">
<ele>45.790001</ele>
<time>2026-08-31T21:53:39.000Z</time>
</trkpt>
<trkpt lat="59.4833034" lon="31.0789611">
<ele>45.620003</ele>
<time>2026-08-31T21:53:54.000Z</time>
</trkpt>
<trkpt lat="59.4832610" lon="31.0792035">
<ele>45.090000</ele>
<time>2026-08-31T21:54:15.000Z</time>
</trkpt>
<trkpt lat="59.4832355" lon="31.0793606">
<ele>45.410000</ele>
<time>2026-08-31T21:54:29.000Z</time>
</trkpt>
<trkpt lat="59.4831808" lon="31.0793981">
<ele>45.310001</ele>
<time>2026-08-31T21:54:38.000Z</time>
</trkpt>
<trkpt lat="59.4831284" lon="31.0795308">
<ele>45.289997</ele>
<time>2026-08-31T21:54:52.000Z</time>
</trkpt>
<trkpt lat="59.4830707" lon="31.0796334">
<ele>45.080002</ele>
<time>2026-08-31T21:55:04.000Z</time>
</trkpt>
<trkpt lat="59.4830169" lon="31.0797098">
<ele>44.579998</ele>
<time>2026-08-31T21:55:14.000Z</time>
</trkpt>
<trkpt lat="59.4829892" lon="31.0798277">
<ele>44.509998</ele>
<time>2026-08-31T21:55:31.000Z</time>
</trkpt>
<trkpt lat="59.4829778" lon="31.0798616">
<ele>44.739998</ele>
<time>2026-08-31T21:55:40.000Z</time>
</trkpt>
<trkpt lat="59.4829521" lon="31.0799699">
<ele>46.439999</ele>
<time>2026-08-31T21:56:08.000Z</time>
</trkpt>
<trkpt lat="59.4828669" lon="31.0799963">
<ele>46.430000</ele>
<time>2026-08-31T21:56:22.000Z</time>
</trkpt>
<trkpt lat="59.4827795" lon="31.0799971">
<ele>46.860001</ele>
<time>2026-08-31T21:56:42.000Z</time>
</trkpt>
<trkpt lat="59.4827356" lon="31.0799137">
<ele>45.240002</ele>
<time>2026-08-31T21:57:09.000Z</time>
</trkpt>
<trkpt lat="59.4826670" lon="31.0798980">
<ele>44.200001</ele>
<time>2026-08-31T21:57:40.000Z</time>
</trkpt>
<trkpt lat="59.4826523" lon="31.0799960">
<ele>45.090000</ele>
<time>2026-08-31T21:57:57.000Z</time>
</trkpt>
<trkpt lat="59.4826087" lon="31.0801166">
<ele>46.049999</ele>
<time>2026-08-31T21:58:17.000Z</time>
</trkpt>
<trkpt lat="59.4826062" lon="31.0801267">
<ele>46.349998</ele>
<time>2026-08-31T21:58:36.000Z</time>
</trkpt>
<trkpt lat="59.4824921" lon="31.0801223">
<ele>48.930000</ele>
<time>2026-08-31T21:59:00.000Z</time>
</trkpt>
<trkpt lat="59.4825154" lon="31.0801612">
<ele>50.619999</ele>
<time>2026-08-31T21:59:27.000Z</time>
</trkpt>
<trkpt lat="59.4825846" lon="31.0801937">
<ele>51.740002</ele>
<time>2026-08-31T21:59:57.000Z</time>
</trkpt>
<trkpt lat="59.4826065" lon="31.0801674">
<ele>50.929996</ele>
<time>2026-08-31T22:00:32.000Z</time>
</trkpt>
<trkpt lat="59.4825892" lon="31.0801607">
<ele>50.859997</ele>
<time>2026-08-31T22:00:39.000Z</time>
</trkpt>
<trkpt lat="59.4826538" lon="31.0801926">
<ele>51.450001</ele>
<time>2026-08-31T22:01:32.000Z</time>
</trkpt>
<trkpt lat="59.4826310" lon="31.0801061">
<ele>51.630001</ele>
<time>2026-08-31T22:02:11.000Z</time>
</trkpt>
<trkpt lat="59.4825909" lon="31.0801992">
<ele>50.560001</ele>
<time>2026-08-31T22:02:41.000Z</time>
</trkpt>
<trkpt lat="59.4825347" lon="31.0801709">
<ele>49.680000</ele>
<time>2026-08-31T22:02:59.000Z</time>
</trkpt>
<trkpt lat="59.4824392" lon="31.0801455">
<ele>51.439999</ele>
<time>2026-08-31T22:03:42.000Z</time>
</trkpt>
<trkpt lat="59.4824024" lon="31.0800929">
<ele>51.650002</ele>
<time>2026-08-31T22:04:10.000Z</time>
</trkpt>
<trkpt lat="59.4823857" lon="31.0801079">
<ele>51.110001</ele>
<time>2026-08-31T22:04:21.000Z</time>
</trkpt>
<trkpt lat="59.4824138" lon="31.0800877">
<ele>51.299999</ele>
<time>2026-08-31T22:04:48.000Z</time>
</trkpt>
<trkpt lat="59.4824384" lon="31.0801436">
<ele>51.190002</ele>
<time>2026-08-31T22:05:11.000Z</time>
</trkpt>
<trkpt lat="59.4824240" lon="31.0801903">
<ele>50.049999</ele>
<time>2026-08-31T22:05:43.000Z</time>
</trkpt>
<trkpt lat="59.4824067" lon="31.0801903">
<ele>49.469997</ele>
<time>2026-08-31T22:06:04.000Z</time>
</trkpt>
<trkpt lat="59.4823903" lon="31.0801793">
<ele>48.430000</ele>
<time>2026-08-31T22:06:24.000Z</time>
</trkpt>
<trkpt lat="59.4823471" lon="31.0804451">
<ele>47.639999</ele>
<time>2026-08-31T22:06:40.000Z</time>
</trkpt>
<trkpt lat="59.4823240" lon="31.0805172">
<ele>47.750000</ele>
<time>2026-08-31T22:07:01.000Z</time>
</trkpt>
<trkpt lat="59.4823554" lon="31.0805557">
<ele>47.210003</ele>
<time>2026-08-31T22:07:28.000Z</time>
</trkpt>
<trkpt lat="59.4823412" lon="31.0807112">
<ele>47.140003</ele>
<time>2026-08-31T22:07:40.000Z</time>
</trkpt>
<trkpt lat="59.4823514" lon="31.0808592">
<ele>47.230000</ele>
<time>2026-08-31T22:07:50.000Z</time>
</trkpt>
<trkpt lat="59.4822945" lon="31.0810496">
<ele>47.740002</ele>
<time>2026-08-31T22:08:11.000Z</time>
</trkpt>
<trkpt lat="59.4822862" lon="31.0811229">
<ele>47.889999</ele>
<time>2026-08-31T22:08:19.000Z</time>
</trkpt>
<trkpt lat="59.4823116" lon="31.0813376">
<ele>47.920002</ele>
<time>2026-08-31T22:08:31.000Z</time>
</trkpt>
<trkpt lat="59.4822396" lon="31.0814936">
<ele>48.600002</ele>
<time>2026-08-31T22:08:46.000Z</time>
</trkpt>
<trkpt lat="59.4822287" lon="31.0815107">
<ele>48.689999</ele>
<time>2026-08-31T22:08:49.000Z</time>
</trkpt>
<trkpt lat="59.4822363" lon="31.0816695">
<ele>49.169998</ele>
<time>2026-08-31T22:09:04.000Z</time>
</trkpt>
<trkpt lat="59.4822230" lon="31.0817998">
<ele>49.559998</ele>
<time>2026-08-31T22:09:20.000Z</time>
</trkpt>
<trkpt lat="59.4822004" lon="31.0818642">
<ele>49.610001</ele>
<time>2026-08-31T22:09:27.000Z</time>
</trkpt>
<trkpt lat="59.4822011" lon="31.0820733">
<ele>49.469997</ele>
<time>2026-08-31T22:09:42.000Z</time>
</trkpt>
<trkpt lat="59.4821933" lon="31.0821815">
<ele>49.399998</ele>
<time>2026-08-31T22:09:50.000Z</time>
</trkpt>
<trkpt lat="59.4821557" lon="31.0822365">
<ele>49.079998</ele>
<time>2026-08-31T22:10:10.000Z</time>
</trkpt>
<trkpt lat="59.4821280" lon="31.0823157">
<ele>49.800003</ele>
<time>2026-08-31T22:10:35.000Z</time>
</trkpt>
<trkpt lat="59.4821269" lon="31.0823440">
<ele>50.009998</ele>
<time>2026-08-31T22:10:56.000Z</time>
</trkpt>
<trkpt lat="59.4821955" lon="31.0823576">
<ele>49.869999</ele>
<time>2026-08-31T22:11:41.000Z</time>
</trkpt>
<trkpt lat="59.4821811" lon="31.0824273">
<ele>48.610001</ele>
<time>2026-08-31T22:12:12.000Z</time>
</trkpt>
<trkpt lat="59.4821653" lon="31.0824223">
<ele>46.840000</ele>
<time>2026-08-31T22:12:40.000Z</time>
</trkpt>
<trkpt lat="59.4821224" lon="31.0823374">
<ele>46.790001</ele>
<time>2026-08-31T22:13:09.000Z</time>
</trkpt>
<trkpt lat="59.4821281" lon="31.0825032">
<ele>46.840000</ele>
<time>2026-08-31T22:13:25.000Z</time>
</trkpt>
<trkpt lat="59.4820889" lon="31.0826182">
<ele>46.610001</ele>
<time>2026-08-31T22:13:45.000Z</time>
</trkpt>
<trkpt lat="59.4821033" lon="31.0828202">
<ele>46.310001</ele>
<time>2026-08-31T22:14:02.000Z</time>
</trkpt>
<trkpt lat="59.4821080" lon="31.0830359">
<ele>46.349998</ele>
<time>2026-08-31T22:14:20.000Z</time>
</trkpt>
<trkpt lat="59.4820605" lon="31.0832222">
<ele>45.240002</ele>
<time>2026-08-31T22:14:40.000Z</time>
</trkpt>
<trkpt lat="59.4820284" lon="31.0832336">
<ele>45.709999</ele>
<time>2026-08-31T22:15:06.000Z</time>
</trkpt>
<trkpt lat="59.4820635" lon="31.0831912">
<ele>44.989998</ele>
<time>2026-08-31T22:15:44.000Z</time>
</trkpt>
<trkpt lat="59.4820967" lon="31.0832099">
<ele>46.860001</ele>
<time>2026-08-31T22:16:11.000Z</time>
</trkpt>
<trkpt lat="59.4820387" lon="31.0831757">
<ele>46.980003</ele>
<time>2026-08-31T22:16:40.000Z</time>
</trkpt>
<trkpt lat="59.4820989" lon="31.0831732">
<ele>47.639999</ele>
<time>2026-08-31T22:17:13.000Z</time>
</trkpt>
<trkpt lat="59.4820866" lon="31.0831148">
<ele>50.940002</ele>
<time>2026-08-31T22:17:42.000Z</time>
</trkpt>
<trkpt lat="59.4820917" lon="31.0831901">
<ele>50.950001</ele>
<time>2026-08-31T22:18:06.000Z</time>
</trkpt>
<trkpt lat="59.4820888" lon="31.0831805">
<ele>51.209999</ele>
<time>2026-08-31T22:18:38.000Z</time>
</trkpt>
<trkpt lat="59.4820640" lon="31.0834266">
<ele>52.270000</ele>
<time>2026-08-31T22:19:09.000Z</time>
</trkpt>
<trkpt lat="59.4820508" lon="31.0834071">
<ele>52.989998</ele>
<time>2026-08-31T22:19:40.000Z</time>
</trkpt>
<trkpt lat="59.4821011" lon="31.0833499">
<ele>53.439999</ele>
<time>2026-08-31T22:20:11.000Z</time>
</trkpt>
<trkpt lat="59.4820852" lon="31.0833143">
<ele>51.829998</ele>
<time>2026-08-31T22:20:41.000Z</time>
</trkpt>
<trkpt lat="59.4820812" lon="31.0834214">
<ele>52.379997</ele>
<time>2026-08-31T22:21:01.000Z</time>
</trkpt>
<trkpt lat="59.4820568" lon="31.0835429">
<ele>52.020000</ele>
<time>2026-08-31T22:21:13.000Z</time>
</trkpt>
<trkpt lat="59.4819801" lon="31.0836480">
<ele>51.650002</ele>
<time>2026-08-31T22:21:26.000Z</time>
</trkpt>
<trkpt lat="59.4819448" lon="31.0837741">
<ele>52.369999</ele>
<time>2026-08-31T22:21:44.000Z</time>
</trkpt>
<trkpt lat="59.4819178" lon="31.0838860">
<ele>52.720001</ele>
<time>2026-08-31T22:22:00.000Z</time>
</trkpt>
<trkpt lat="59.4819002" lon="31.0839629">
<ele>52.349998</ele>
<time>2026-08-31T22:22:26.000Z</time>
</trkpt>
<trkpt lat="59.4819397" lon="31.0840134">
<ele>52.170002</ele>
<time>2026-08-31T22:22:38.000Z</time>
</trkpt>
<trkpt lat="59.4819377" lon="31.0841995">
<ele>52.299999</ele>
<time>2026-08-31T22:22:53.000Z</time>
</trkpt>
<trkpt lat="59.4819547" lon="31.0843273">
<ele>52.599998</ele>
<time>2026-08-31T22:23:14.000Z</time>
</trkpt>
<trkpt lat="59.4820516" lon="31.0844213">
<ele>51.840000</ele>
<time>2026-08-31T22:23:30.000Z</time>
</trkpt>
<trkpt lat="59.4820183" lon="31.0845025">
<ele>51.560001</ele>
<time>2026-08-31T22:23:57.000Z</time>
</trkpt>
<trkpt lat="59.4820658" lon="31.0846679">
<ele>51.089996</ele>
<time>2026-08-31T22:24:10.000Z</time>
</trkpt>
<trkpt lat="59.4821005" lon="31.0849296">
<ele>50.410004</ele>
<time>2026-08-31T22:24:31.000Z</time>
</trkpt>
<trkpt lat="59.4821099" lon="31.0850274">
<ele>52.899998</ele>
<time>2026-08-31T22:24:58.000Z</time>
</trkpt>
<trkpt lat="59.4821782" lon="31.0853124">
<ele>52.620003</ele>
<time>2026-08-31T22:25:19.000Z</time>
</trkpt>
<trkpt lat="59.4822194" lon="31.0854869">
<ele>53.369999</ele>
<time>2026-08-31T22:25:39.000Z</time>
</trkpt>
<trkpt lat="59.4822389" lon="31.0855944">
<ele>53.880001</ele>
<time>2026-08-31T22:25:57.000Z</time>
</trkpt>
<trkpt lat="59.4822325" lon="31.0858521">
<ele>54.930000</ele>
<time>2026-08-31T22:26:19.000Z</time>
</trkpt>
<trkpt lat="59.4822972" lon="31.0860671">
<ele>55.160000</ele>
<time>2026-08-31T22:26:39.000Z</time>
</trkpt>
<trkpt lat="59.4822988" lon="31.0862988">
<ele>55.739998</ele>
<time>2026-08-31T22:27:00.000Z</time>
</trkpt>
<trkpt lat="59.4822796" lon="31.0865311">
<ele>56.200001</ele>
<time>2026-08-31T22:27:19.000Z</time>
</trkpt>
<trkpt lat="59.4822670" lon="31.0866877">
<ele>56.239998</ele>
<time>2026-08-31T22:27:38.000Z</time>
</trkpt>
<trkpt lat="59.4822153" lon="31.0868873">
<ele>55.549999</ele>
<time>2026-08-31T22:27:55.000Z</time>
</trkpt>
<trkpt lat="59.4822462" lon="31.0869762">
<ele>57.900002</ele>
<time>2026-08-31T22:28:22.000Z</time>
</trkpt>
<trkpt lat="59.4822349" lon="31.0869907">
<ele>55.680000</ele>
<time>2026-08-31T22:28:48.000Z</time>
</trkpt>
<trkpt lat="59.4822057" lon="31.0869163">
<ele>54.620003</ele>
<time>2026-08-31T22:29:18.000Z</time>
</trkpt>
<trkpt lat="59.4821992" lon="31.0868746">
<ele>51.720001</ele>
<time>2026-08-31T22:29:52.000Z</time>
</trkpt>
<trkpt lat="59.4821404" lon="31.0868618">
<ele>50.180000</ele>
<time>2026-08-31T22:30:22.000Z</time>
</trkpt>
<trkpt lat="59.4821973" lon="31.0869018">
<ele>50.779999</ele>
<time>2026-08-31T22:30:47.000Z</time>
</trkpt>
<trkpt lat="59.4822153" lon="31.0869297">
<ele>50.970001</ele>
<time>2026-08-31T22:31:02.000Z</time>
</trkpt>
<trkpt lat="59.4822144" lon="31.0869461">
<ele>51.190002</ele>
<time>2026-08-31T22:31:23.000Z</time>
</trkpt>
<trkpt lat="59.4822394" lon="31.0870115">
<ele>50.030003</ele>
<time>2026-08-31T22:31:45.000Z</time>
</trkpt>
<trkpt lat="59.4822733" lon="31.0871181">
<ele>50.779999</ele>
<time>2026-08-31T22:32:04.000Z</time>
</trkpt>
<trkpt lat="59.4822798" lon="31.0873694">
<ele>49.789997</ele>
<time>2026-08-31T22:32:24.000Z</time>
</trkpt>
<trkpt lat="59.4822966" lon="31.0875710">
<ele>50.270000</ele>
<time>2026-08-31T22:32:42.000Z</time>
</trkpt>
<trkpt lat="59.4822766" lon="31.0877392">
<ele>50.299999</ele>
<time>2026-08-31T22:32:59.000Z</time>
</trkpt>
<trkpt lat="59.4822361" lon="31.0878060">
<ele>51.030003</ele>
<time>2026-08-31T22:33:17.000Z</time>
</trkpt>
<trkpt lat="59.4822308" lon="31.0879057">
<ele>50.929996</ele>
<time>2026-08-31T22:33:36.000Z</time>
</trkpt>
<trkpt lat="59.4821467" lon="31.0880013">
<ele>51.680000</ele>
<time>2026-08-31T22:33:55.000Z</time>
</trkpt>
<trkpt lat="59.4820659" lon="31.0880991">
<ele>51.480003</ele>
<time>2026-08-31T22:34:16.000Z</time>
</trkpt>
<trkpt lat="59.4819415" lon="31.0882697">
<ele>51.079998</ele>
<time>2026-08-31T22:34:34.000Z</time>
</trkpt>
<trkpt lat="59.4818763" lon="31.0883197">
<ele>50.880001</ele>
<time>2026-08-31T22:34:53.000Z</time>
</trkpt>
<trkpt lat="59.4818386" lon="31.0882208">
<ele>50.549999</ele>
<time>2026-08-31T22:35:21.000Z</time>
</trkpt>
<trkpt lat="59.4818429" lon="31.0882281">
<ele>52.320004</ele>
<time>2026-08-31T22:35:41.000Z</time>
</trkpt>
<trkpt lat="59.4818137" lon="31.0882127">
<ele>53.129997</ele>
<time>2026-08-31T22:35:58.000Z</time>
</trkpt>
<trkpt lat="59.4818020" lon="31.0881401">
<ele>54.090000</ele>
<time>2026-08-31T22:36:16.000Z</time>
</trkpt>
<trkpt lat="59.4817701" lon="31.0880328">
<ele>55.039997</ele>
<time>2026-08-31T22:36:37.000Z</time>
</trkpt>
<trkpt lat="59.4817604" lon="31.0881061">
<ele>54.090000</ele>
<time>2026-08-31T22:37:04.000Z</time>
</trkpt>
<trkpt lat="59.4817809" lon="31.0880325">
<ele>54.010002</ele>
<time>2026-08-31T22:37:25.000Z</time>
</trkpt>
<trkpt lat="59.4817435" lon="31.0879568">
<ele>57.440002</ele>
<time>2026-08-31T22:37:57.000Z</time>
</trkpt>
<trkpt lat="59.4817613" lon="31.0879668">
<ele>61.310001</ele>
<time>2026-08-31T22:38:53.000Z</time>
</trkpt>
<trkpt lat="59.4817656" lon="31.0879898">
<ele>61.110001</ele>
<time>2026-08-31T22:39:14.000Z</time>
</trkpt>
<trkpt lat="59.4817682" lon="31.0879635">
<ele>61.850002</ele>
<time>2026-08-31T22:39:37.000Z</time>
</trkpt>
<trkpt lat="59.4818003" lon="31.0880075">
<ele>62.700001</ele>
<time>2026-08-31T22:40:11.000Z</time>
</trkpt>
<trkpt lat="59.4818483" lon="31.0880754">
<ele>61.709999</ele>
<time>2026-08-31T22:40:40.000Z</time>
</trkpt>
<trkpt lat="59.4818401" lon="31.0880916">
<ele>61.780003</ele>
<time>2026-08-31T22:41:09.000Z</time>
</trkpt>
<trkpt lat="59.4818111" lon="31.0880915">
<ele>61.739998</ele>
<time>2026-08-31T22:41:48.000Z</time>
</trkpt>
<trkpt lat="59.4817685" lon="31.0881552">
<ele>60.609997</ele>
<time>2026-08-31T22:42:38.000Z</time>
</trkpt>
<trkpt lat="59.4817304" lon="31.0881579">
<ele>58.960003</ele>
<time>2026-08-31T22:43:12.000Z</time>
</trkpt>
<trkpt lat="59.4816784" lon="31.0881215">
<ele>59.170002</ele>
<time>2026-08-31T22:43:37.000Z</time>
</trkpt>
<trkpt lat="59.4816631" lon="31.0880083">
<ele>58.580002</ele>
<time>2026-08-31T22:43:57.000Z</time>
</trkpt>
<trkpt lat="59.4816770" lon="31.0879256">
<ele>57.150002</ele>
<time>2026-08-31T22:44:20.000Z</time>
</trkpt>
<trkpt lat="59.4816385" lon="31.0879200">
<ele>57.120003</ele>
<time>2026-08-31T22:44:47.000Z</time>
</trkpt>
<trkpt lat="59.4816615" lon="31.0879010">
<ele>57.849998</ele>
<time>2026-08-31T22:45:15.000Z</time>
</trkpt>
<trkpt lat="59.4815911" lon="31.0878908">
<ele>57.050003</ele>
<time>2026-08-31T22:45:38.000Z</time>
</trkpt>
<trkpt lat="59.4815403" lon="31.0877187">
<ele>56.370003</ele>
<time>2026-08-31T22:45:57.000Z</time>
</trkpt>
<trkpt lat="59.4814923" lon="31.0875231">
<ele>55.489998</ele>
<time>2026-08-31T22:46:14.000Z</time>
</trkpt>
<trkpt lat="59.4814456" lon="31.0874797">
<ele>55.739998</ele>
<time>2026-08-31T22:46:37.000Z</time>
</trkpt>
<trkpt lat="59.4814150" lon="31.0874539">
<ele>60.609997</ele>
<time>2026-08-31T22:46:56.000Z</time>
</trkpt>
<trkpt lat="59.4813910" lon="31.0874492">
<ele>59.450001</ele>
<time>2026-08-31T22:47:18.000Z</time>
</trkpt>
<trkpt lat="59.4814061" lon="31.0874664">
<ele>60.330002</ele>
<time>2026-08-31T22:47:48.000Z</time>
</trkpt>
<trkpt lat="59.4813996" lon="31.0874881">
<ele>59.970001</ele>
<time>2026-08-31T22:48:15.000Z</time>
</trkpt>
<trkpt lat="59.4813195" lon="31.0873915">
<ele>59.899998</ele>
<time>2026-08-31T22:48:31.000Z</time>
</trkpt>
<trkpt lat="59.4813383" lon="31.0872127">
<ele>59.609997</ele>
<time>2026-08-31T22:48:50.000Z</time>
</trkpt>
<trkpt lat="59.4813152" lon="31.0871973">
<ele>59.829998</ele>
<time>2026-08-31T22:49:19.000Z</time>
</trkpt>
<trkpt lat="59.4812924" lon="31.0871110">
<ele>60.810001</ele>
<time>2026-08-31T22:49:52.000Z</time>
</trkpt>
<trkpt lat="59.4812751" lon="31.0871399">
<ele>61.969997</ele>
<time>2026-08-31T22:50:19.000Z</time>
</trkpt>
<trkpt lat="59.4812473" lon="31.0870542">
<ele>62.119999</ele>
<time>2026-08-31T22:50:47.000Z</time>
</trkpt>
<trkpt lat="59.4812324" lon="31.0869612">
<ele>61.829998</ele>
<time>2026-08-31T22:51:01.000Z</time>
</trkpt>
<trkpt lat="59.4812661" lon="31.0868714">
<ele>61.590000</ele>
<time>2026-08-31T22:51:18.000Z</time>
</trkpt>
<trkpt lat="59.4813223" lon="31.0867085">
<ele>61.400002</ele>
<time>2026-08-31T22:51:32.000Z</time>
</trkpt>
<trkpt lat="59.4813279" lon="31.0865333">
<ele>60.780003</ele>
<time>2026-08-31T22:51:46.000Z</time>
</trkpt>
<trkpt lat="59.4812648" lon="31.0864209">
<ele>60.360001</ele>
<time>2026-08-31T22:51:58.000Z</time>
</trkpt>
<trkpt lat="59.4812753" lon="31.0863513">
<ele>60.000000</ele>
<time>2026-08-31T22:52:06.000Z</time>
</trkpt>
<trkpt lat="59.4812715" lon="31.0862148">
<ele>59.570000</ele>
<time>2026-08-31T22:52:20.000Z</time>
</trkpt>
<trkpt lat="59.4812694" lon="31.0862236">
<ele>59.190002</ele>
<time>2026-08-31T22:52:24.000Z</time>
</trkpt>
<trkpt lat="59.4812849" lon="31.0862249">
<ele>58.360001</ele>
<time>2026-08-31T22:52:55.000Z</time>
</trkpt>
<trkpt lat="59.4812492" lon="31.0862759">
<ele>59.160000</ele>
<time>2026-08-31T22:53:24.000Z</time>
</trkpt>
<trkpt lat="59.4811798" lon="31.0863263">
<ele>59.740002</ele>
<time>2026-08-31T22:53:48.000Z</time>
</trkpt>
<trkpt lat="59.4811440" lon="31.0862946">
<ele>59.060001</ele>
<time>2026-08-31T22:54:02.000Z</time>
</trkpt>
<trkpt lat="59.4810325" lon="31.0862228">
<ele>58.660000</ele>
<time>2026-08-31T22:54:20.000Z</time>
</trkpt>
<trkpt lat="59.4809819" lon="31.0862168">
<ele>59.799999</ele>
<time>2026-08-31T22:54:45.000Z</time>
</trkpt>
<trkpt lat="59.4809780" lon="31.0862304">
<ele>60.219997</ele>
<time>2026-08-31T22:55:07.000Z</time>
</trkpt>
<trkpt lat="59.4809097" lon="31.0861183">
<ele>59.640003</ele>
<time>2026-08-31T22:55:26.000Z</time>
</trkpt>
<trkpt lat="59.4808140" lon="31.0860208">
<ele>59.020000</ele>
<time>2026-08-31T22:55:44.000Z</time>
</trkpt>
<trkpt lat="59.4807902" lon="31.0859816">
<ele>57.510002</ele>
<time>2026-08-31T22:56:02.000Z</time>
</trkpt>
<trkpt lat="59.4807728" lon="31.0860211">
<ele>55.709999</ele>
<time>2026-08-31T22:56:24.000Z</time>
</trkpt>
<trkpt lat="59.4807070" lon="31.0860350">
<ele>55.630001</ele>
<time>2026-08-31T22:56:47.000Z</time>
</trkpt>
<trkpt lat="59.4806849" lon="31.0860302">
<ele>55.380001</ele>
<time>2026-08-31T22:57:12.000Z</time>
</trkpt>
<trkpt lat="59.4806974" lon="31.0860153">
<ele>55.659996</ele>
<time>2026-08-31T22:57:53.000Z</time>
</trkpt>
<trkpt lat="59.4806965" lon="31.0859973">
<ele>58.019997</ele>
<time>2026-08-31T22:58:37.000Z</time>
</trkpt>
<trkpt lat="59.4807161" lon="31.0859814">
<ele>58.570004</ele>
<time>2026-08-31T22:59:18.000Z</time>
</trkpt>
<trkpt lat="59.4806908" lon="31.0859115">
<ele>57.389999</ele>
<time>2026-08-31T22:59:51.000Z</time>
</trkpt>
<trkpt lat="59.4806793" lon="31.0859251">
<ele>57.440002</ele>
<time>2026-08-31T22:59:56.000Z</time>
</trkpt>
<trkpt lat="59.4806781" lon="31.0859640">
<ele>57.310001</ele>
<time>2026-08-31T23:00:24.000Z</time>
</trkpt>
<trkpt lat="59.4806682" lon="31.0858505">
<ele>57.960003</ele>
<time>2026-08-31T23:01:07.000Z</time>
</trkpt>
<trkpt lat="59.4806832" lon="31.0859037">
<ele>59.790001</ele>
<time>2026-08-31T23:01:35.000Z</time>
</trkpt>
<trkpt lat="59.4806763" lon="31.0859544">
<ele>60.720001</ele>
<time>2026-08-31T23:02:12.000Z</time>
</trkpt>
<trkpt lat="59.4806852" lon="31.0859618">
<ele>61.349998</ele>
<time>2026-08-31T23:02:36.000Z</time>
</trkpt>
<trkpt lat="59.4806466" lon="31.0859390">
<ele>64.779999</ele>
<time>2026-08-31T23:03:05.000Z</time>
</trkpt>
<trkpt lat="59.4806603" lon="31.0859940">
<ele>65.220001</ele>
<time>2026-08-31T23:03:25.000Z</time>
</trkpt>
<trkpt lat="59.4806763" lon="31.0860495">
<ele>63.250000</ele>
<time>2026-08-31T23:03:52.000Z</time>
</trkpt>
<trkpt lat="59.4807078" lon="31.0860657">
<ele>62.240002</ele>
<time>2026-08-31T23:04:20.000Z</time>
</trkpt>
<trkpt lat="59.4806980" lon="31.0859795">
<ele>58.599998</ele>
<time>2026-08-31T23:04:42.000Z</time>
</trkpt>
<trkpt lat="59.4806756" lon="31.0858927">
<ele>57.919998</ele>
<time>2026-08-31T23:05:10.000Z</time>
</trkpt>
<trkpt lat="59.4806954" lon="31.0857216">
<ele>57.360001</ele>
<time>2026-08-31T23:05:32.000Z</time>
</trkpt>
<trkpt lat="59.4807247" lon="31.0857014">
<ele>56.280003</ele>
<time>2026-08-31T23:05:49.000Z</time>
</trkpt>
<trkpt lat="59.4807177" lon="31.0856748">
<ele>56.099998</ele>
<time>2026-08-31T23:06:09.000Z</time>
</trkpt>
<trkpt lat="59.4807601" lon="31.0856760">
<ele>56.009998</ele>
<time>2026-08-31T23:06:15.000Z</time>
</trkpt>
<trkpt lat="59.4807730" lon="31.0857412">
<ele>54.600002</ele>
<time>2026-08-31T23:06:39.000Z</time>
</trkpt>
<trkpt lat="59.4807806" lon="31.0857271">
<ele>54.300003</ele>
<time>2026-08-31T23:07:09.000Z</time>
</trkpt>
<trkpt lat="59.4807922" lon="31.0857488">
<ele>55.429996</ele>
<time>2026-08-31T23:07:31.000Z</time>
</trkpt>
<trkpt lat="59.4807650" lon="31.0857298">
<ele>56.470001</ele>
<time>2026-08-31T23:07:50.000Z</time>
</trkpt>
<trkpt lat="59.4807774" lon="31.0856947">
<ele>58.239998</ele>
<time>2026-08-31T23:08:15.000Z</time>
</trkpt>
<trkpt lat="59.4807514" lon="31.0856993">
<ele>59.680000</ele>
<time>2026-08-31T23:08:43.000Z</time>
</trkpt>
<trkpt lat="59.4807450" lon="31.0857168">
<ele>60.149998</ele>
<time>2026-08-31T23:09:07.000Z</time>
</trkpt>
<trkpt lat="59.4807465" lon="31.0857272">
<ele>59.689999</ele>
<time>2026-08-31T23:09:32.000Z</time>
</trkpt>
<trkpt lat="59.4807428" lon="31.0857121">
<ele>59.689999</ele>
<time>2026-08-31T23:10:03.000Z</time>
</trkpt>
<trkpt lat="59.4807529" lon="31.0857386">
<ele>58.399998</ele>
<time>2026-08-31T23:10:33.000Z</time>
</trkpt>
<trkpt lat="59.4808026" lon="31.0856193">
<ele>58.480000</ele>
<time>2026-08-31T23:10:58.000Z</time>
</trkpt>
<trkpt lat="59.4807896" lon="31.0854409">
<ele>58.520000</ele>
<time>2026-08-31T23:11:17.000Z</time>
</trkpt>
<trkpt lat="59.4807763" lon="31.0853988">
<ele>58.610001</ele>
<time>2026-08-31T23:11:23.000Z</time>
</trkpt>
<trkpt lat="59.4807508" lon="31.0853290">
<ele>58.130001</ele>
<time>2026-08-31T23:11:36.000Z</time>
</trkpt>
<trkpt lat="59.4807017" lon="31.0853516">
<ele>57.139999</ele>
<time>2026-08-31T23:12:01.000Z</time>
</trkpt>
<trkpt lat="59.4807318" lon="31.0851542">
<ele>57.050003</ele>
<time>2026-08-31T23:12:14.000Z</time>
</trkpt>
<trkpt lat="59.4807164" lon="31.0850224">
<ele>57.139999</ele>
<time>2026-08-31T23:12:35.000Z</time>
</trkpt>
<trkpt lat="59.4806856" lon="31.0851243">
<ele>57.239998</ele>
<time>2026-08-31T23:12:51.000Z</time>
</trkpt>
<trkpt lat="59.4806957" lon="31.0849159">
<ele>56.949997</ele>
<time>2026-08-31T23:13:14.000Z</time>
</trkpt>
<trkpt lat="59.4806812" lon="31.0847009">
<ele>56.399998</ele>
<time>2026-08-31T23:13:36.000Z</time>
</trkpt>
<trkpt lat="59.4807090" lon="31.0844820">
<ele>56.150002</ele>
<time>2026-08-31T23:13:53.000Z</time>
</trkpt>
<trkpt lat="59.4807080" lon="31.0843146">
<ele>55.579998</ele>
<time>2026-08-31T23:14:07.000Z</time>
</trkpt>
<trkpt lat="59.4807129" lon="31.0841655">
<ele>55.489998</ele>
<time>2026-08-31T23:14:26.000Z</time>
</trkpt>
<trkpt lat="59.4806996" lon="31.0840152">
<ele>55.779999</ele>
<time>2026-08-31T23:14:44.000Z</time>
</trkpt>
<trkpt lat="59.4807360" lon="31.0838200">
<ele>54.950001</ele>
<time>2026-08-31T23:15:03.000Z</time>
</trkpt>
<trkpt lat="59.4807773" lon="31.0836537">
<ele>55.070000</ele>
<time>2026-08-31T23:15:17.000Z</time>
</trkpt>
<trkpt lat="59.4807787" lon="31.0836414">
<ele>55.070000</ele>
<time>2026-08-31T23:15:19.000Z</time>
</trkpt>
<trkpt lat="59.4807329" lon="31.0835811">
<ele>57.079998</ele>
<time>2026-08-31T23:15:48.000Z</time>
</trkpt>
<trkpt lat="59.4807872" lon="31.0835263">
<ele>57.700001</ele>
<time>2026-08-31T23:16:11.000Z</time>
</trkpt>
<trkpt lat="59.4807707" lon="31.0835074">
<ele>57.000000</ele>
<time>2026-08-31T23:16:36.000Z</time>
</trkpt>
<trkpt lat="59.4807264" lon="31.0834702">
<ele>56.920002</ele>
<time>2026-08-31T23:17:03.000Z</time>
</trkpt>
<trkpt lat="59.4807156" lon="31.0834884">
<ele>56.570000</ele>
<time>2026-08-31T23:17:32.000Z</time>
</trkpt>
<trkpt lat="59.4807379" lon="31.0835079">
<ele>54.709999</ele>
<time>2026-08-31T23:18:02.000Z</time>
</trkpt>
<trkpt lat="59.4807421" lon="31.0834975">
<ele>52.160004</ele>
<time>2026-08-31T23:18:34.000Z</time>
</trkpt>
<trkpt lat="59.4807683" lon="31.0835421">
<ele>51.509998</ele>
<time>2026-08-31T23:19:06.000Z</time>
</trkpt>
<trkpt lat="59.4807943" lon="31.0834164">
<ele>52.010002</ele>
<time>2026-08-31T23:19:28.000Z</time>
</trkpt>
<trkpt lat="59.4808445" lon="31.0832784">
<ele>51.480003</ele>
<time>2026-08-31T23:19:43.000Z</time>
</trkpt>
<trkpt lat="59.4809102" lon="31.0831594">
<ele>52.049999</ele>
<time>2026-08-31T23:20:00.000Z</time>
</trkpt>
<trkpt lat="59.4809358" lon="31.0830363">
<ele>52.579998</ele>
<time>2026-08-31T23:20:13.000Z</time>
</trkpt>
<trkpt lat="59.4809681" lon="31.0829441">
<ele>53.139999</ele>
<time>2026-08-31T23:20:26.000Z</time>
</trkpt>
<trkpt lat="59.4810354" lon="31.0828730">
<ele>53.490002</ele>
<time>2026-08-31T23:20:37.000Z</time>
</trkpt>
<trkpt lat="59.4810415" lon="31.0827437">
<ele>52.970001</ele>
<time>2026-08-31T23:20:57.000Z</time>
</trkpt>
<trkpt lat="59.4810292" lon="31.0827001">
<ele>51.330002</ele>
<time>2026-08-31T23:21:29.000Z</time>
</trkpt>
<trkpt lat="59.4809919" lon="31.0826099">
<ele>50.790001</ele>
<time>2026-08-31T23:21:41.000Z</time>
</trkpt>
<trkpt lat="59.4810274" lon="31.0823263">
<ele>51.279999</ele>
<time>2026-08-31T23:21:59.000Z</time>
</trkpt>
<trkpt lat="59.4810521" lon="31.0820085">
<ele>51.660000</ele>
<time>2026-08-31T23:22:23.000Z</time>
</trkpt>
<trkpt lat="59.4810229" lon="31.0817915">
<ele>51.619999</ele>
<time>2026-08-31T23:22:42.000Z</time>
</trkpt>
<trkpt lat="59.4810224" lon="31.0817018">
<ele>55.010002</ele>
<time>2026-08-31T23:22:59.000Z</time>
</trkpt>
<trkpt lat="59.4810592" lon="31.0815549">
<ele>55.840000</ele>
<time>2026-08-31T23:23:17.000Z</time>
</trkpt>
<trkpt lat="59.4809959" lon="31.0814299">
<ele>56.419998</ele>
<time>2026-08-31T23:23:39.000Z</time>
</trkpt>
<trkpt lat="59.4809435" lon="31.0813250">
<ele>56.700001</ele>
<time>2026-08-31T23:23:55.000Z</time>
</trkpt>
<trkpt lat="59.4808801" lon="31.0812004">
<ele>56.869999</ele>
<time>2026-08-31T23:24:08.000Z</time>
</trkpt>
<trkpt lat="59.4808234" lon="31.0810291">
<ele>57.459999</ele>
<time>2026-08-31T23:24:25.000Z</time>
</trkpt>
<trkpt lat="59.4807902" lon="31.0809023">
<ele>57.840000</ele>
<time>2026-08-31T23:24:42.000Z</time>
</trkpt>
<trkpt lat="59.4807472" lon="31.0808214">
<ele>57.970001</ele>
<time>2026-08-31T23:24:53.000Z</time>
</trkpt>
<trkpt lat="59.4807457" lon="31.0806092">
<ele>57.949997</ele>
<time>2026-08-31T23:25:09.000Z</time>
</trkpt>
<trkpt lat="59.4807525" lon="31.0804931">
<ele>57.960003</ele>
<time>2026-08-31T23:25:24.000Z</time>
</trkpt>
<trkpt lat="59.4807325" lon="31.0803976">
<ele>57.960003</ele>
<time>2026-08-31T23:25:41.000Z</time>
</trkpt>
<trkpt lat="59.4807407" lon="31.0803840">
<ele>57.779999</ele>
<time>2026-08-31T23:25:43.000Z</time>
</trkpt>
<trkpt lat="59.4808032" lon="31.0802186">
<ele>57.190002</ele>
<time>2026-08-31T23:26:05.000Z</time>
</trkpt>
<trkpt lat="59.4808195" lon="31.0802148">
<ele>57.090000</ele>
<time>2026-08-31T23:26:12.000Z</time>
</trkpt>
<trkpt lat="59.4808255" lon="31.0801980">
<ele>56.250000</ele>
<time>2026-08-31T23:26:39.000Z</time>
</trkpt>
<trkpt lat="59.4808716" lon="31.0801576">
<ele>55.480000</ele>
<time>2026-08-31T23:27:08.000Z</time>
</trkpt>
<trkpt lat="59.4808261" lon="31.0802156">
<ele>56.949997</ele>
<time>2026-08-31T23:27:31.000Z</time>
</trkpt>
<trkpt lat="59.4808176" lon="31.0802670">
<ele>57.299999</ele>
<time>2026-08-31T23:27:51.000Z</time>
</trkpt>
<trkpt lat="59.4808111" lon="31.0801954">
<ele>56.890003</ele>
<time>2026-08-31T23:28:24.000Z</time>
</trkpt>
<trkpt lat="59.4807757" lon="31.0801541">
<ele>56.980000</ele>
<time>2026-08-31T23:28:53.000Z</time>
</trkpt>
<trkpt lat="59.4807835" lon="31.0801849">
<ele>55.619999</ele>
<time>2026-08-31T23:29:24.000Z</time>
</trkpt>
<trkpt lat="59.4807878" lon="31.0801531">
<ele>53.279999</ele>
<time>2026-08-31T23:29:57.000Z</time>
</trkpt>
<trkpt lat="59.4807799" lon="31.0801548">
<ele>52.669998</ele>
<time>2026-08-31T23:30:30.000Z</time>
</trkpt>
<trkpt lat="59.4808155" lon="31.0799878">
<ele>52.850002</ele>
<time>2026-08-31T23:30:52.000Z</time>
</trkpt>
<trkpt lat="59.4808967" lon="31.0799149">
<ele>52.550003</ele>
<time>2026-08-31T23:31:11.000Z</time>
</trkpt>
<trkpt lat="59.4809367" lon="31.0798395">
<ele>52.520000</ele>
<time>2026-08-31T23:31:31.000Z</time>
</trkpt>
<trkpt lat="59.4809669" lon="31.0796560">
<ele>53.059998</ele>
<time>2026-08-31T23:31:45.000Z</time>
</trkpt>
<trkpt lat="59.4809718" lon="31.0795264">
<ele>53.119999</ele>
<time>2026-08-31T23:32:11.000Z</time>
</trkpt>
<trkpt lat="59.4810143" lon="31.0794841">
<ele>53.080002</ele>
<time>2026-08-31T23:32:24.000Z</time>
</trkpt>
<trkpt lat="59.4809994" lon="31.0794418">
<ele>52.880001</ele>
<time>2026-08-31T23:32:44.000Z</time>
</trkpt>
<trkpt lat="59.4810039" lon="31.0794313">
<ele>52.430000</ele>
<time>2026-08-31T23:33:11.000Z</time>
</trkpt>
<trkpt lat="59.4810312" lon="31.0793210">
<ele>52.829998</ele>
<time>2026-08-31T23:33:30.000Z</time>
</trkpt>
<trkpt lat="59.4810088" lon="31.0792848">
<ele>53.279999</ele>
<time>2026-08-31T23:33:53.000Z</time>
</trkpt>
<trkpt lat="59.4810000" lon="31.0791786">
<ele>54.310001</ele>
<time>2026-08-31T23:34:14.000Z</time>
</trkpt>
<trkpt lat="59.4809400" lon="31.0791002">
<ele>55.509998</ele>
<time>2026-08-31T23:34:34.000Z</time>
</trkpt>
<trkpt lat="59.4809337" lon="31.0790115">
<ele>55.690002</ele>
<time>2026-08-31T23:34:42.000Z</time>
</trkpt>
<trkpt lat="59.4809119" lon="31.0788559">
<ele>56.389999</ele>
<time>2026-08-31T23:34:58.000Z</time>
</trkpt>
<trkpt lat="59.4809169" lon="31.0787304">
<ele>57.099998</ele>
<time>2026-08-31T23:35:25.000Z</time>
</trkpt>
<trkpt lat="59.4809432" lon="31.0787706">
<ele>55.039997</ele>
<time>2026-08-31T23:35:58.000Z</time>
</trkpt>
<trkpt lat="59.4809475" lon="31.0787310">
<ele>55.459999</ele>
<time>2026-08-31T23:36:28.000Z</time>
</trkpt>
<trkpt lat="59.4809578" lon="31.0788035">
<ele>54.860001</ele>
<time>2026-08-31T23:37:04.000Z</time>
</trkpt>
<trkpt lat="59.4809546" lon="31.0787720">
<ele>54.259998</ele>
<time>2026-08-31T23:37:35.000Z</time>
</trkpt>
<trkpt lat="59.4809753" lon="31.0787607">
<ele>55.269997</ele>
<time>2026-08-31T23:38:01.000Z</time>
</trkpt>
<trkpt lat="59.4809923" lon="31.0787611">
<ele>54.470001</ele>
<time>2026-08-31T23:38:28.000Z</time>
</trkpt>
<trkpt lat="59.4809783" lon="31.0787176">
<ele>53.760002</ele>
<time>2026-08-31T23:38:55.000Z</time>
</trkpt>
<trkpt lat="59.4809770" lon="31.0786312">
<ele>54.630001</ele>
<time>2026-08-31T23:39:19.000Z</time>
</trkpt>
<trkpt lat="59.4810209" lon="31.0784557">
<ele>54.199997</ele>
<time>2026-08-31T23:39:37.000Z</time>
</trkpt>
<trkpt lat="59.4810671" lon="31.0783529">
<ele>53.310001</ele>
<time>2026-08-31T23:39:55.000Z</time>
</trkpt>
<trkpt lat="59.4811015" lon="31.0782734">
<ele>52.529999</ele>
<time>2026-08-31T23:40:13.000Z</time>
</trkpt>
<trkpt lat="59.4811502" lon="31.0782208">
<ele>52.059998</ele>
<time>2026-08-31T23:40:37.000Z</time>
</trkpt>
<trkpt lat="59.4812196" lon="31.0781927">
<ele>50.950001</ele>
<time>2026-08-31T23:40:57.000Z</time>
</trkpt>
<trkpt lat="59.4812643" lon="31.0780935">
<ele>50.650002</ele>
<time>2026-08-31T23:41:14.000Z</time>
</trkpt>
<trkpt lat="59.4812768" lon="31.0780262">
<ele>51.000000</ele>
<time>2026-08-31T23:41:28.000Z</time>
</trkpt>
<trkpt lat="59.4812665" lon="31.0780391">
<ele>51.379997</ele>
<time>2026-08-31T23:41:58.000Z</time>
</trkpt>
<trkpt lat="59.4812597" lon="31.0779271">
<ele>49.709999</ele>
<time>2026-08-31T23:42:15.000Z</time>
</trkpt>
<trkpt lat="59.4812533" lon="31.0777904">
<ele>51.439999</ele>
<time>2026-08-31T23:42:33.000Z</time>
</trkpt>
<trkpt lat="59.4811436" lon="31.0776083">
<ele>50.880001</ele>
<time>2026-08-31T23:42:49.000Z</time>
</trkpt>
<trkpt lat="59.4811205" lon="31.0774757">
<ele>49.000000</ele>
<time>2026-08-31T23:43:02.000Z</time>
</trkpt>
<trkpt lat="59.4811233" lon="31.0774611">
<ele>49.259998</ele>
<time>2026-08-31T23:43:28.000Z</time>
</trkpt>
<trkpt lat="59.4811591" lon="31.0772858">
<ele>49.290001</ele>
<time>2026-08-31T23:43:48.000Z</time>
</trkpt>
<trkpt lat="59.4811720" lon="31.0771991">
<ele>49.570004</ele>
<time>2026-08-31T23:44:10.000Z</time>
</trkpt>
<trkpt lat="59.4811922" lon="31.0770847">
<ele>49.369999</ele>
<time>2026-08-31T23:44:26.000Z</time>
</trkpt>
<trkpt lat="59.4811737" lon="31.0769661">
<ele>49.369999</ele>
<time>2026-08-31T23:44:38.000Z</time>
</trkpt>
<trkpt lat="59.4811780" lon="31.0768517">
<ele>49.329998</ele>
<time>2026-08-31T23:44:49.000Z</time>
</trkpt>
<trkpt lat="59.4811497" lon="31.0766111">
<ele>49.020000</ele>
<time>2026-08-31T23:45:06.000Z</time>
</trkpt>
<trkpt lat="59.4811434" lon="31.0765830">
<ele>48.600002</ele>
<time>2026-08-31T23:45:25.000Z</time>
</trkpt>
<trkpt lat="59.4812203" lon="31.0765648">
<ele>47.210003</ele>
<time>2026-08-31T23:46:00.000Z</time>
</trkpt>
<trkpt lat="59.4811798" lon="31.0765403">
<ele>46.799999</ele>
<time>2026-08-31T23:46:41.000Z</time>
</trkpt>
<trkpt lat="59.4811874" lon="31.0764877">
<ele>46.389999</ele>
<time>2026-08-31T23:47:17.000Z</time>
</trkpt>
<trkpt lat="59.4811535" lon="31.0763923">
<ele>47.600002</ele>
<time>2026-08-31T23:47:56.000Z</time>
</trkpt>
<trkpt lat="59.4811990" lon="31.0762583">
<ele>47.920002</ele>
<time>2026-08-31T23:48:08.000Z</time>
</trkpt>
<trkpt lat="59.4812678" lon="31.0761460">
<ele>48.029999</ele>
<time>2026-08-31T23:48:17.000Z</time>
</trkpt>
<trkpt lat="59.4813081" lon="31.0760808">
<ele>48.430000</ele>
<time>2026-08-31T23:48:26.000Z</time>
</trkpt>
<trkpt lat="59.4813353" lon="31.0758678">
<ele>47.980003</ele>
<time>2026-08-31T23:48:52.000Z</time>
</trkpt>
<trkpt lat="59.4813548" lon="31.0757326">
<ele>48.269997</ele>
<time>2026-08-31T23:49:08.000Z</time>
</trkpt>
<trkpt lat="59.4813167" lon="31.0755916">
<ele>49.099998</ele>
<time>2026-08-31T23:49:27.000Z</time>
</trkpt>
<trkpt lat="59.4813656" lon="31.0753811">
<ele>49.480000</ele>
<time>2026-08-31T23:49:43.000Z</time>
</trkpt>
<trkpt lat="59.4813820" lon="31.0752971">
<ele>49.250000</ele>
<time>2026-08-31T23:49:56.000Z</time>
</trkpt>
<trkpt lat="59.4814055" lon="31.0751467">
<ele>50.650002</ele>
<time>2026-08-31T23:50:27.000Z</time>
</trkpt>
<trkpt lat="59.4814146" lon="31.0750547">
<ele>51.599998</ele>
<time>2026-08-31T23:50:36.000Z</time>
</trkpt>
<trkpt lat="59.4814616" lon="31.0748802">
<ele>50.340000</ele>
<time>2026-08-31T23:51:02.000Z</time>
</trkpt>
<trkpt lat="59.4814398" lon="31.0748406">
<ele>50.520000</ele>
<time>2026-08-31T23:51:17.000Z</time>
</trkpt>
<trkpt lat="59.4814183" lon="31.0746585">
<ele>50.610001</ele>
<time>2026-08-31T23:51:34.000Z</time>
</trkpt>
<trkpt lat="59.4814222" lon="31.0744621">
<ele>50.670002</ele>
<time>2026-08-31T23:51:47.000Z</time>
</trkpt>
<trkpt lat="59.4814435" lon="31.0743408">
<ele>51.369999</ele>
<time>2026-08-31T23:52:01.000Z</time>
</trkpt>
<trkpt lat="59.4815571" lon="31.0742549">
<ele>51.360001</ele>
<time>2026-08-31T23:52:33.000Z</time>
</trkpt>
<trkpt lat="59.4815936" lon="31.0742594">
<ele>50.480000</ele>
<time>2026-08-31T23:53:15.000Z</time>
</trkpt>
<trkpt lat="59.4815317" lon="31.0742851">
<ele>48.779999</ele>
<time>2026-08-31T23:53:49.000Z</time>
</trkpt>
<trkpt lat="59.4815068" lon="31.0743072">
<ele>48.619999</ele>
<time>2026-08-31T23:54:19.000Z</time>
</trkpt>
<trkpt lat="59.4815090" lon="31.0742098">
<ele>48.939999</ele>
<time>2026-08-31T23:54:49.000Z</time>
</trkpt>
<trkpt lat="59.4815386" lon="31.0740116">
<ele>48.890003</ele>
<time>2026-08-31T23:55:05.000Z</time>
</trkpt>
<trkpt lat="59.4815583" lon="31.0738276">
<ele>49.220001</ele>
<time>2026-08-31T23:55:20.000Z</time>
</trkpt>
<trkpt lat="59.4815660" lon="31.0736506">
<ele>49.810001</ele>
<time>2026-08-31T23:55:35.000Z</time>
</trkpt>
<trkpt lat="59.4815832" lon="31.0735040">
<ele>49.810001</ele>
<time>2026-08-31T23:55:52.000Z</time>
</trkpt>
<trkpt lat="59.4815975" lon="31.0734193">
<ele>50.160000</ele>
<time>2026-08-31T23:56:05.000Z</time>
</trkpt>
<trkpt lat="59.4815820" lon="31.0733033">
<ele>50.730000</ele>
<time>2026-08-31T23:56:22.000Z</time>
</trkpt>
<trkpt lat="59.4815833" lon="31.0731888">
<ele>50.580002</ele>
<time>2026-08-31T23:56:38.000Z</time>
</trkpt>
<trkpt lat="59.4815717" lon="31.0731251">
<ele>51.030003</ele>
<time>2026-08-31T23:56:53.000Z</time>
</trkpt>
<trkpt lat="59.4815626" lon="31.0729710">
<ele>50.629997</ele>
<time>2026-08-31T23:57:06.000Z</time>
</trkpt>
<trkpt lat="59.4816427" lon="31.0727283">
<ele>51.619999</ele>
<time>2026-08-31T23:57:20.000Z</time>
</trkpt>
<trkpt lat="59.4816941" lon="31.0725249">
<ele>52.490002</ele>
<time>2026-08-31T23:57:36.000Z</time>
</trkpt>
<trkpt lat="59.4817242" lon="31.0724334">
<ele>53.570000</ele>
<time>2026-08-31T23:58:00.000Z</time>
</trkpt>
<trkpt lat="59.4817366" lon="31.0722418">
<ele>53.799999</ele>
<time>2026-08-31T23:58:13.000Z</time>
</trkpt>
<trkpt lat="59.4817357" lon="31.0721146">
<ele>53.980000</ele>
<time>2026-08-31T23:58:26.000Z</time>
</trkpt>
<trkpt lat="59.4817651" lon="31.0720111">
<ele>54.220001</ele>
<time>2026-08-31T23:58:40.000Z</time>
</trkpt>
<trkpt lat="59.4817599" lon="31.0718062">
<ele>54.720001</ele>
<time>2026-08-31T23:59:01.000Z</time>
</trkpt>
<trkpt lat="59.4817812" lon="31.0715618">
<ele>54.930000</ele>
<time>2026-08-31T23:59:22.000Z</time>
</trkpt>
<trkpt lat="59.4817825" lon="31.0714945">
<ele>55.970001</ele>
<time>2026-08-31T23:59:42.000Z</time>
</trkpt>
<trkpt lat="59.4818087" lon="31.0715039">
<ele>55.990002</ele>
<time>2026-09-01T00:00:09.000Z</time>
</trkpt>
<trkpt lat="59.4817978" lon="31.0715348">
<ele>55.779999</ele>
<time>2026-09-01T00:00:20.000Z</time>
</trkpt>
<trkpt lat="59.4818033" lon="31.0714938">
<ele>56.029999</ele>
<time>2026-09-01T00:00:57.000Z</time>
</trkpt>
<trkpt lat="59.4817869" lon="31.0714747">
<ele>56.590000</ele>
<time>2026-09-01T00:01:31.000Z</time>
</trkpt>
<trkpt lat="59.4818150" lon="31.0713552">
<ele>56.000000</ele>
<time>2026-09-01T00:01:54.000Z</time>
</trkpt>
<trkpt lat="59.4818389" lon="31.0711671">
<ele>55.939999</ele>
<time>2026-09-01T00:02:09.000Z</time>
</trkpt>
<trkpt lat="59.4818692" lon="31.0710902">
<ele>55.400002</ele>
<time>2026-09-01T00:02:29.000Z</time>
</trkpt>
<trkpt lat="59.4818721" lon="31.0709419">
<ele>55.220001</ele>
<time>2026-09-01T00:02:47.000Z</time>
</trkpt>
<trkpt lat="59.4818707" lon="31.0708814">
<ele>54.690002</ele>
<time>2026-09-01T00:02:54.000Z</time>
</trkpt>
<trkpt lat="59.4819214" lon="31.0707427">
<ele>53.690002</ele>
<time>2026-09-01T00:03:13.000Z</time>
</trkpt>
<trkpt lat="59.4819222" lon="31.0706791">
<ele>54.099998</ele>
<time>2026-09-01T00:03:28.000Z</time>
</trkpt>
<trkpt lat="59.4819840" lon="31.0706264">
<ele>53.129997</ele>
<time>2026-09-01T00:03:48.000Z</time>
</trkpt>
<trkpt lat="59.4819764" lon="31.0705617">
<ele>52.590000</ele>
<time>2026-09-01T00:04:36.000Z</time>
</trkpt>
<trkpt lat="59.4819907" lon="31.0704081">
<ele>52.059998</ele>
<time>2026-09-01T00:04:50.000Z</time>
</trkpt>
<trkpt lat="59.4819755" lon="31.0703538">
<ele>51.219997</ele>
<time>2026-09-01T00:05:09.000Z</time>
</trkpt>
<trkpt lat="59.4819055" lon="31.0703234">
<ele>51.369999</ele>
<time>2026-09-01T00:05:26.000Z</time>
</trkpt>
<trkpt lat="59.4818436" lon="31.0702954">
<ele>51.469997</ele>
<time>2026-09-01T00:05:33.000Z</time>
</trkpt>
<trkpt lat="59.4816242" lon="31.0701537">
<ele>53.020000</ele>
<time>2026-09-01T00:05:55.000Z</time>
</trkpt>
<trkpt lat="59.4815013" lon="31.0701344">
<ele>53.630001</ele>
<time>2026-09-01T00:06:14.000Z</time>
</trkpt>
<trkpt lat="59.4814846" lon="31.0700428">
<ele>54.519997</ele>
<time>2026-09-01T00:06:33.000Z</time>
</trkpt>
<trkpt lat="59.4815633" lon="31.0700957">
<ele>55.259998</ele>
<time>2026-09-01T00:06:53.000Z</time>
</trkpt>
<trkpt lat="59.4816746" lon="31.0701558">
<ele>54.980003</ele>
<time>2026-09-01T00:07:09.000Z</time>
</trkpt>
<trkpt lat="59.4818370" lon="31.0702692">
<ele>53.620003</ele>
<time>2026-09-01T00:07:34.000Z</time>
</trkpt>
<trkpt lat="59.4820120" lon="31.0704298">
<ele>53.490002</ele>
<time>2026-09-01T00:07:59.000Z</time>
</trkpt>
<trkpt lat="59.4820997" lon="31.0705024">
<ele>54.820000</ele>
<time>2026-09-01T00:08:14.000Z</time>
</trkpt>
<trkpt lat="59.4822371" lon="31.0706234">
<ele>56.480000</ele>
<time>2026-09-01T00:08:34.000Z</time>
</trkpt>
<trkpt lat="59.4823928" lon="31.0707495">
<ele>58.220001</ele>
<time>2026-09-01T00:08:56.000Z</time>
</trkpt>
</trkseg>
<trkseg>
<trkpt lat="59.0976194" lon="31.2356449">
<ele>17.420000</ele>
<time>2026-08-27T23:08:18.000Z</time>
</trkpt>
<trkpt lat="59.0976098" lon="31.2356177">
<ele>17.850000</ele>
<time>2026-08-27T23:08:21.000Z</time>
</trkpt>
</trkseg>
<trkseg>
<trkpt lat="59.4809604" lon="31.0212016">
<ele>34.820000</ele>
<time>2026-08-31T18:10:28.000Z</time>
</trkpt>
<trkpt lat="59.4809663" lon="31.0211780">
<ele>38.810001</ele>
<time>2026-08-31T18:11:03.000Z</time>
</trkpt>
<trkpt lat="59.4809461" lon="31.0211797">
<ele>39.180000</ele>
<time>2026-08-31T18:11:32.000Z</time>
</trkpt>
<trkpt lat="59.4809378" lon="31.0211914">
<ele>39.719997</ele>
<time>2026-08-31T18:11:57.000Z</time>
</trkpt>
<trkpt lat="59.4809580" lon="31.0211585">
<ele>40.559998</ele>
<time>2026-08-31T18:12:25.000Z</time>
</trkpt>
<trkpt lat="59.4809643" lon="31.0211636">
<ele>42.670002</ele>
<time>2026-08-31T18:12:52.000Z</time>
</trkpt>
<trkpt lat="59.4809629" lon="31.0211264">
<ele>47.389999</ele>
<time>2026-08-31T18:13:15.000Z</time>
</trkpt>
<trkpt lat="59.4810027" lon="31.0210860">
<ele>52.480000</ele>
<time>2026-08-31T18:13:38.000Z</time>
</trkpt>
<trkpt lat="59.4810446" lon="31.0210906">
<ele>54.830002</ele>
<time>2026-08-31T18:14:01.000Z</time>
</trkpt>
<trkpt lat="59.4810534" lon="31.0210847">
<ele>56.489998</ele>
<time>2026-08-31T18:14:34.000Z</time>
</trkpt>
<trkpt lat="59.4810569" lon="31.0210902">
<ele>55.189999</ele>
<time>2026-08-31T18:15:01.000Z</time>
</trkpt>
<trkpt lat="59.4810688" lon="31.0210669">
<ele>55.370003</ele>
<time>2026-08-31T18:15:32.000Z</time>
</trkpt>
<trkpt lat="59.4810551" lon="31.0210871">
<ele>55.700001</ele>
<time>2026-08-31T18:16:02.000Z</time>
</trkpt>
<trkpt lat="59.4810539" lon="31.0210864">
<ele>56.009998</ele>
<time>2026-08-31T18:16:21.000Z</time>
</trkpt>
<trkpt lat="59.4810477" lon="31.0211072">
<ele>56.719997</ele>
<time>2026-08-31T18:16:37.000Z</time>
</trkpt>
<trkpt lat="59.4810418" lon="31.0211045">
<ele>56.590000</ele>
<time>2026-08-31T18:16:48.000Z</time>
</trkpt>
<trkpt lat="59.4810483" lon="31.0211104">
<ele>57.090000</ele>
<time>2026-08-31T18:17:10.000Z</time>
</trkpt>
<trkpt lat="59.4810416" lon="31.0211053">
<ele>57.090000</ele>
<time>2026-08-31T18:17:31.000Z</time>
</trkpt>
<trkpt lat="59.4810539" lon="31.0210939">
<ele>57.619999</ele>
<time>2026-08-31T18:17:53.000Z</time>
</trkpt>
<trkpt lat="59.4810596" lon="31.0211138">
<ele>57.420002</ele>
<time>2026-08-31T18:18:11.000Z</time>
</trkpt>
<trkpt lat="59.4810579" lon="31.0211340">
<ele>58.130001</ele>
<time>2026-08-31T18:18:28.000Z</time>
</trkpt>
<trkpt lat="59.4810595" lon="31.0211277">
<ele>58.829998</ele>
<time>2026-08-31T18:18:52.000Z</time>
</trkpt>
<trkpt lat="59.4810528" lon="31.0211345">
<ele>59.570000</ele>
<time>2026-08-31T18:19:14.000Z</time>
</trkpt>
<trkpt lat="59.4810500" lon="31.0210998">
<ele>58.599998</ele>
<time>2026-08-31T18:19:28.000Z</time>
</trkpt>
<trkpt lat="59.4810967" lon="31.0210358">
<ele>58.280003</ele>
<time>2026-08-31T18:19:33.000Z</time>
</trkpt>
<trkpt lat="59.4811470" lon="31.0210470">
<ele>58.800003</ele>
<time>2026-08-31T18:19:48.000Z</time>
</trkpt>
<trkpt lat="59.4811517" lon="31.0210049">
<ele>58.160000</ele>
<time>2026-08-31T18:20:06.000Z</time>
</trkpt>
<trkpt lat="59.4810924" lon="31.0210097">
<ele>57.680000</ele>
<time>2026-08-31T18:20:36.000Z</time>
</trkpt>
<trkpt lat="59.4810517" lon="31.0211257">
<ele>57.559998</ele>
<time>2026-08-31T18:20:40.000Z</time>
</trkpt>
<trkpt lat="59.4808875" lon="31.0214518">
<ele>57.459999</ele>
<time>2026-08-31T18:20:54.000Z</time>
</trkpt>
<trkpt lat="59.4808793" lon="31.0214810">
<ele>57.520000</ele>
<time>2026-08-31T18:20:56.000Z</time>
</trkpt>
<trkpt lat="59.4807993" lon="31.0215002">
<ele>57.770000</ele>
<time>2026-08-31T18:21:03.000Z</time>
</trkpt>
<trkpt lat="59.4807420" lon="31.0216160">
<ele>57.930000</ele>
<time>2026-08-31T18:21:06.000Z</time>
</trkpt>
<trkpt lat="59.4802416" lon="31.0224935">
<ele>58.180004</ele>
<time>2026-08-31T18:21:14.000Z</time>
</trkpt>
<trkpt lat="59.4794093" lon="31.0241669">
<ele>60.810001</ele>
<time>2026-08-31T18:21:27.000Z</time>
</trkpt>
<trkpt lat="59.4789555" lon="31.0251269">
<ele>62.180000</ele>
<time>2026-08-31T18:21:36.000Z</time>
</trkpt>
<trkpt lat="59.4782888" lon="31.0264476">
<ele>62.869999</ele>
<time>2026-08-31T18:21:49.000Z</time>
</trkpt>
<trkpt lat="59.4777026" lon="31.0275452">
<ele>60.390003</ele>
<time>2026-08-31T18:21:59.000Z</time>
</trkpt>
<trkpt lat="59.4771883" lon="31.0285108">
<ele>57.859997</ele>
<time>2026-08-31T18:22:11.000Z</time>
</trkpt>
<trkpt lat="59.4771747" lon="31.0285394">
<ele>58.209999</ele>
<time>2026-08-31T18:22:22.000Z</time>
</trkpt>
<trkpt lat="59.4771480" lon="31.0285655">
<ele>57.810001</ele>
<time>2026-08-31T18:22:28.000Z</time>
</trkpt>
<trkpt lat="59.4770191" lon="31.0288463">
<ele>57.320000</ele>
<time>2026-08-31T18:22:33.000Z</time>
</trkpt>
<trkpt lat="59.4763630" lon="31.0300953">
<ele>57.380001</ele>
<time>2026-08-31T18:22:44.000Z</time>
</trkpt>
<trkpt lat="59.4755456" lon="31.0316793">
<ele>56.150002</ele>
<time>2026-08-31T18:22:56.000Z</time>
</trkpt>
<trkpt lat="59.4746473" lon="31.0333834">
<ele>53.840000</ele>
<time>2026-08-31T18:23:09.000Z</time>
</trkpt>
<trkpt lat="59.4744514" lon="31.0337529">
<ele>53.860001</ele>
<time>2026-08-31T18:23:13.000Z</time>
</trkpt>
<trkpt lat="59.4740067" lon="31.0345669">
<ele>54.700001</ele>
<time>2026-08-31T18:23:22.000Z</time>
</trkpt>
<trkpt lat="59.4732666" lon="31.0360735">
<ele>55.029999</ele>
<time>2026-08-31T18:23:34.000Z</time>
</trkpt>
<trkpt lat="59.4723422" lon="31.0377871">
<ele>56.280003</ele>
<time>2026-08-31T18:23:47.000Z</time>
</trkpt>
<trkpt lat="59.4720892" lon="31.0382440">
<ele>55.849998</ele>
<time>2026-08-31T18:23:51.000Z</time>
</trkpt>
<trkpt lat="59.4716049" lon="31.0391921">
<ele>55.500000</ele>
<time>2026-08-31T18:24:00.000Z</time>
</trkpt>
<trkpt lat="59.4708671" lon="31.0405900">
<ele>57.750000</ele>
<time>2026-08-31T18:24:12.000Z</time>
</trkpt>
<trkpt lat="59.4708252" lon="31.0406823">
<ele>57.890003</ele>
<time>2026-08-31T18:24:13.000Z</time>
</trkpt>
<trkpt lat="59.4708073" lon="31.0413862">
<ele>58.599998</ele>
<time>2026-08-31T18:24:19.000Z</time>
</trkpt>
<trkpt lat="59.4708743" lon="31.0416479">
<ele>58.740002</ele>
<time>2026-08-31T18:24:21.000Z</time>
</trkpt>
<trkpt lat="59.4713857" lon="31.0431797">
<ele>58.139999</ele>
<time>2026-08-31T18:24:34.000Z</time>
</trkpt>
<trkpt lat="59.4715704" lon="31.0436867">
<ele>60.349998</ele>
<time>2026-08-31T18:24:40.000Z</time>
</trkpt>
<trkpt lat="59.4720517" lon="31.0452703">
<ele>61.860001</ele>
<time>2026-08-31T18:24:53.000Z</time>
</trkpt>
<trkpt lat="59.4722128" lon="31.0458150">
<ele>60.189999</ele>
<time>2026-08-31T18:24:57.000Z</time>
</trkpt>
<trkpt lat="59.4721084" lon="31.0466206">
<ele>61.320000</ele>
<time>2026-08-31T18:25:05.000Z</time>
</trkpt>
<trkpt lat="59.4720684" lon="31.0467008">
<ele>61.330002</ele>
<time>2026-08-31T18:25:06.000Z</time>
</trkpt>
<trkpt lat="59.4715852" lon="31.0475898">
<ele>58.929996</ele>
<time>2026-08-31T18:25:19.000Z</time>
</trkpt>
<trkpt lat="59.4709882" lon="31.0487451">
<ele>59.410000</ele>
<time>2026-08-31T18:25:31.000Z</time>
</trkpt>
<trkpt lat="59.4704624" lon="31.0497108">
<ele>60.430000</ele>
<time>2026-08-31T18:25:42.000Z</time>
</trkpt>
<trkpt lat="59.4703927" lon="31.0498492">
<ele>60.509998</ele>
<time>2026-08-31T18:25:44.000Z</time>
</trkpt>
<trkpt lat="59.4698464" lon="31.0508481">
<ele>58.650002</ele>
<time>2026-08-31T18:25:57.000Z</time>
</trkpt>
<trkpt lat="59.4693287" lon="31.0519764">
<ele>56.900002</ele>
<time>2026-08-31T18:26:13.000Z</time>
</trkpt>
<trkpt lat="59.4692523" lon="31.0521202">
<ele>56.949997</ele>
<time>2026-08-31T18:26:15.000Z</time>
</trkpt>
<trkpt lat="59.4691469" lon="31.0523427">
<ele>57.120003</ele>
<time>2026-08-31T18:26:18.000Z</time>
</trkpt>
<trkpt lat="59.4686923" lon="31.0531847">
<ele>57.529999</ele>
<time>2026-08-31T18:26:28.000Z</time>
</trkpt>
<trkpt lat="59.4685476" lon="31.0535457">
<ele>57.869999</ele>
<time>2026-08-31T18:26:34.000Z</time>
</trkpt>
<trkpt lat="59.4680736" lon="31.0544391">
<ele>56.810001</ele>
<time>2026-08-31T18:26:46.000Z</time>
</trkpt>
<trkpt lat="59.4676413" lon="31.0552006">
<ele>61.299999</ele>
<time>2026-08-31T18:26:58.000Z</time>
</trkpt>
<trkpt lat="59.4670716" lon="31.0563369">
<ele>61.180000</ele>
<time>2026-08-31T18:27:11.000Z</time>
</trkpt>
<trkpt lat="59.4669924" lon="31.0564763">
<ele>61.430000</ele>
<time>2026-08-31T18:27:13.000Z</time>
</trkpt>
<trkpt lat="59.4666298" lon="31.0572173">
<ele>64.320000</ele>
<time>2026-08-31T18:27:24.000Z</time>
</trkpt>
<trkpt lat="59.4666044" lon="31.0572919">
<ele>64.959999</ele>
<time>2026-08-31T18:27:25.000Z</time>
</trkpt>
<trkpt lat="59.4662871" lon="31.0579312">
<ele>67.989998</ele>
<time>2026-08-31T18:27:37.000Z</time>
</trkpt>
<trkpt lat="59.4658952" lon="31.0586424">
<ele>71.529999</ele>
<time>2026-08-31T18:27:48.000Z</time>
</trkpt>
<trkpt lat="59.4654258" lon="31.0594783">
<ele>73.869995</ele>
<time>2026-08-31T18:27:59.000Z</time>
</trkpt>
<trkpt lat="59.4653924" lon="31.0595465">
<ele>74.120003</ele>
<time>2026-08-31T18:28:00.000Z</time>
</trkpt>
<trkpt lat="59.4652563" lon="31.0597834">
<ele>75.639999</ele>
<time>2026-08-31T18:28:03.000Z</time>
</trkpt>
<trkpt lat="59.4651427" lon="31.0600617">
<ele>77.440002</ele>
<time>2026-08-31T18:28:06.000Z</time>
</trkpt>
<trkpt lat="59.4644198" lon="31.0613642">
<ele>82.449997</ele>
<time>2026-08-31T18:28:16.000Z</time>
</trkpt>
<trkpt lat="59.4635371" lon="31.0630206">
<ele>83.839996</ele>
<time>2026-08-31T18:28:28.000Z</time>
</trkpt>
<trkpt lat="59.4624873" lon="31.0651094">
<ele>78.800003</ele>
<time>2026-08-31T18:28:42.000Z</time>
</trkpt>
<trkpt lat="59.4617280" lon="31.0665351">
<ele>74.590004</ele>
<time>2026-08-31T18:28:53.000Z</time>
</trkpt>
<trkpt lat="59.4609531" lon="31.0681745">
<ele>74.950005</ele>
<time>2026-08-31T18:29:05.000Z</time>
</trkpt>
<trkpt lat="59.4603133" lon="31.0694554">
<ele>75.959999</ele>
<time>2026-08-31T18:29:15.000Z</time>
</trkpt>
<trkpt lat="59.4600926" lon="31.0697869">
<ele>73.739998</ele>
<time>2026-08-31T18:29:21.000Z</time>
</trkpt>
<trkpt lat="59.4596321" lon="31.0707663">
<ele>72.869995</ele>
<time>2026-08-31T18:29:30.000Z</time>
</trkpt>
<trkpt lat="59.4590156" lon="31.0718883">
<ele>72.189995</ele>
<time>2026-08-31T18:29:40.000Z</time>
</trkpt>
<trkpt lat="59.4584180" lon="31.0729692">
<ele>73.900002</ele>
<time>2026-08-31T18:29:50.000Z</time>
</trkpt>
<trkpt lat="59.4576036" lon="31.0744403">
<ele>74.880005</ele>
<time>2026-08-31T18:30:01.000Z</time>
</trkpt>
<trkpt lat="59.4566833" lon="31.0761280">
<ele>75.820000</ele>
<time>2026-08-31T18:30:13.000Z</time>
</trkpt>
<trkpt lat="59.4556341" lon="31.0781381">
<ele>75.809998</ele>
<time>2026-08-31T18:30:27.000Z</time>
</trkpt>
<trkpt lat="59.4545562" lon="31.0803005">
<ele>64.119995</ele>
<time>2026-08-31T18:30:41.000Z</time>
</trkpt>
<trkpt lat="59.4535733" lon="31.0819887">
<ele>61.289997</ele>
<time>2026-08-31T18:30:53.000Z</time>
</trkpt>
<trkpt lat="59.4527260" lon="31.0832356">
<ele>62.380001</ele>
<time>2026-08-31T18:31:04.000Z</time>
</trkpt>
<trkpt lat="59.4519598" lon="31.0842937">
<ele>59.309998</ele>
<time>2026-08-31T18:31:15.000Z</time>
</trkpt>
<trkpt lat="59.4519381" lon="31.0846584">
<ele>60.839996</ele>
<time>2026-08-31T18:31:20.000Z</time>
</trkpt>
<trkpt lat="59.4524108" lon="31.0858702">
<ele>60.130001</ele>
<time>2026-08-31T18:31:34.000Z</time>
</trkpt>
<trkpt lat="59.4530848" lon="31.0876041">
<ele>60.839996</ele>
<time>2026-08-31T18:31:53.000Z</time>
</trkpt>
<trkpt lat="59.4537104" lon="31.0891974">
<ele>62.000000</ele>
<time>2026-08-31T18:32:10.000Z</time>
</trkpt>
<trkpt lat="59.4544965" lon="31.0900850">
<ele>59.400002</ele>
<time>2026-08-31T18:32:24.000Z</time>
</trkpt>
<trkpt lat="59.4550368" lon="31.0906381">
<ele>55.970001</ele>
<time>2026-08-31T18:32:33.000Z</time>
</trkpt>
<trkpt lat="59.4556587" lon="31.0913774">
<ele>59.799999</ele>
<time>2026-08-31T18:32:48.000Z</time>
</trkpt>
<trkpt lat="59.4559874" lon="31.0917364">
<ele>60.480000</ele>
<time>2026-08-31T18:33:01.000Z</time>
</trkpt>
<trkpt lat="59.4560686" lon="31.0918092">
<ele>61.170002</ele>
<time>2026-08-31T18:33:18.000Z</time>
</trkpt>
<trkpt lat="59.4560578" lon="31.0918326">
<ele>59.950001</ele>
<time>2026-08-31T18:33:42.000Z</time>
</trkpt>
<trkpt lat="59.4560289" lon="31.0918018">
<ele>59.940002</ele>
<time>2026-08-31T18:33:57.000Z</time>
</trkpt>
<trkpt lat="59.4560246" lon="31.0918030">
<ele>59.469997</ele>
<time>2026-08-31T18:34:15.000Z</time>
</trkpt>
<trkpt lat="59.4560260" lon="31.0917964">
<ele>59.379997</ele>
<time>2026-08-31T18:34:36.000Z</time>
</trkpt>
<trkpt lat="59.4560499" lon="31.0918272">
<ele>60.550003</ele>
<time>2026-08-31T18:35:02.000Z</time>
</trkpt>
<trkpt lat="59.4560299" lon="31.0918058">
<ele>60.930000</ele>
<time>2026-08-31T18:35:30.000Z</time>
</trkpt>
<trkpt lat="59.4560418" lon="31.0918222">
<ele>61.579998</ele>
<time>2026-08-31T18:35:57.000Z</time>
</trkpt>
<trkpt lat="59.4560362" lon="31.0918220">
<ele>61.550003</ele>
<time>2026-08-31T18:36:32.000Z</time>
</trkpt>
<trkpt lat="59.4560281" lon="31.0918080">
<ele>61.470001</ele>
<time>2026-08-31T18:37:17.000Z</time>
</trkpt>
<trkpt lat="59.4560229" lon="31.0917951">
<ele>61.439999</ele>
<time>2026-08-31T18:37:57.000Z</time>
</trkpt>
<trkpt lat="59.4560226" lon="31.0917942">
<ele>61.690002</ele>
<time>2026-08-31T18:38:27.000Z</time>
</trkpt>
<trkpt lat="59.4560220" lon="31.0918075">
<ele>61.340000</ele>
<time>2026-08-31T18:38:51.000Z</time>
</trkpt>
<trkpt lat="59.4560351" lon="31.0917923">
<ele>60.959999</ele>
<time>2026-08-31T18:39:19.000Z</time>
</trkpt>
<trkpt lat="59.4560569" lon="31.0917844">
<ele>60.270000</ele>
<time>2026-08-31T18:39:49.000Z</time>
</trkpt>
<trkpt lat="59.4560311" lon="31.0918001">
<ele>59.420002</ele>
<time>2026-08-31T18:40:20.000Z</time>
</trkpt>
<trkpt lat="59.4560315" lon="31.0917916">
<ele>59.660000</ele>
<time>2026-08-31T18:40:44.000Z</time>
</trkpt>
<trkpt lat="59.4560340" lon="31.0917694">
<ele>59.590000</ele>
<time>2026-08-31T18:41:14.000Z</time>
</trkpt>
<trkpt lat="59.4560336" lon="31.0918035">
<ele>59.880001</ele>
<time>2026-08-31T18:41:41.000Z</time>
</trkpt>
<trkpt lat="59.4560226" lon="31.0917791">
<ele>60.250000</ele>
<time>2026-08-31T18:42:06.000Z</time>
</trkpt>
<trkpt lat="59.4560208" lon="31.0917735">
<ele>59.710003</ele>
<time>2026-08-31T18:42:47.000Z</time>
</trkpt>
<trkpt lat="59.4560250" lon="31.0917961">
<ele>60.090000</ele>
<time>2026-08-31T18:43:12.000Z</time>
</trkpt>
<trkpt lat="59.4560433" lon="31.0918422">
<ele>60.739998</ele>
<time>2026-08-31T18:43:25.000Z</time>
</trkpt>
<trkpt lat="59.4560379" lon="31.0918321">
<ele>61.270000</ele>
<time>2026-08-31T18:43:45.000Z</time>
</trkpt>
<trkpt lat="59.4560309" lon="31.0918266">
<ele>60.480000</ele>
<time>2026-08-31T18:44:14.000Z</time>
</trkpt>
<trkpt lat="59.4560401" lon="31.0918374">
<ele>59.899998</ele>
<time>2026-08-31T18:44:40.000Z</time>
</trkpt>
<trkpt lat="59.4560823" lon="31.0919209">
<ele>58.900002</ele>
<time>2026-08-31T18:45:05.000Z</time>
</trkpt>
<trkpt lat="59.4561861" lon="31.0920967">
<ele>57.719997</ele>
<time>2026-08-31T18:45:19.000Z</time>
</trkpt>
<trkpt lat="59.4562761" lon="31.0922236">
<ele>57.090000</ele>
<time>2026-08-31T18:45:30.000Z</time>
</trkpt>
<trkpt lat="59.4563873" lon="31.0924104">
<ele>56.160000</ele>
<time>2026-08-31T18:45:45.000Z</time>
</trkpt>
<trkpt lat="59.4564810" lon="31.0926718">
<ele>56.689999</ele>
<time>2026-08-31T18:45:59.000Z</time>
</trkpt>
<trkpt lat="59.4565494" lon="31.0929743">
<ele>57.549999</ele>
<time>2026-08-31T18:46:14.000Z</time>
</trkpt>
<trkpt lat="59.4566338" lon="31.0932046">
<ele>56.709999</ele>
<time>2026-08-31T18:46:28.000Z</time>
</trkpt>
<trkpt lat="59.4567264" lon="31.0934591">
<ele>57.430000</ele>
<time>2026-08-31T18:46:43.000Z</time>
</trkpt>
<trkpt lat="59.4567397" lon="31.0935321">
<ele>57.250000</ele>
<time>2026-08-31T18:46:47.000Z</time>
</trkpt>
<trkpt lat="59.4568633" lon="31.0938603">
<ele>58.290001</ele>
<time>2026-08-31T18:47:06.000Z</time>
</trkpt>
<trkpt lat="59.4569099" lon="31.0939862">
<ele>57.800003</ele>
<time>2026-08-31T18:47:18.000Z</time>
</trkpt>
<trkpt lat="59.4569842" lon="31.0942092">
<ele>56.810001</ele>
<time>2026-08-31T18:47:32.000Z</time>
</trkpt>
<trkpt lat="59.4570653" lon="31.0944793">
<ele>57.430000</ele>
<time>2026-08-31T18:47:47.000Z</time>
</trkpt>
<trkpt lat="59.4571501" lon="31.0947836">
<ele>58.130001</ele>
<time>2026-08-31T18:48:03.000Z</time>
</trkpt>
<trkpt lat="59.4572265" lon="31.0950460">
<ele>59.580002</ele>
<time>2026-08-31T18:48:17.000Z</time>
</trkpt>
<trkpt lat="59.4573167" lon="31.0953506">
<ele>57.900002</ele>
<time>2026-08-31T18:48:34.000Z</time>
</trkpt>
<trkpt lat="59.4573866" lon="31.0955736">
<ele>57.169998</ele>
<time>2026-08-31T18:48:47.000Z</time>
</trkpt>
<trkpt lat="59.4574484" lon="31.0957777">
<ele>58.190002</ele>
<time>2026-08-31T18:48:59.000Z</time>
</trkpt>
<trkpt lat="59.4574689" lon="31.0958399">
<ele>58.320000</ele>
<time>2026-08-31T18:49:03.000Z</time>
</trkpt>
<trkpt lat="59.4575427" lon="31.0960331">
<ele>57.480000</ele>
<time>2026-08-31T18:49:14.000Z</time>
</trkpt>
<trkpt lat="59.4576221" lon="31.0962903">
<ele>57.980000</ele>
<time>2026-08-31T18:49:28.000Z</time>
</trkpt>
<trkpt lat="59.4577102" lon="31.0966044">
<ele>57.440002</ele>
<time>2026-08-31T18:49:46.000Z</time>
</trkpt>
<trkpt lat="59.4577714" lon="31.0968511">
<ele>58.680000</ele>
<time>2026-08-31T18:49:59.000Z</time>
</trkpt>
<trkpt lat="59.4578166" lon="31.0969936">
<ele>58.220001</ele>
<time>2026-08-31T18:50:18.000Z</time>
</trkpt>
<trkpt lat="59.4578152" lon="31.0969928">
<ele>57.559998</ele>
<time>2026-08-31T18:50:37.000Z</time>
</trkpt>
<trkpt lat="59.4578148" lon="31.0969952">
<ele>57.160000</ele>
<time>2026-08-31T18:50:57.000Z</time>
</trkpt>
<trkpt lat="59.4578166" lon="31.0970024">
<ele>56.879997</ele>
<time>2026-08-31T18:51:16.000Z</time>
</trkpt>
<trkpt lat="59.4578191" lon="31.0970042">
<ele>57.500000</ele>
<time>2026-08-31T18:51:46.000Z</time>
</trkpt>
<trkpt lat="59.4578348" lon="31.0970632">
<ele>56.590000</ele>
<time>2026-08-31T18:52:05.000Z</time>
</trkpt>
<trkpt lat="59.4579299" lon="31.0973732">
<ele>55.419998</ele>
<time>2026-08-31T18:52:24.000Z</time>
</trkpt>
<trkpt lat="59.4580026" lon="31.0975893">
<ele>54.480000</ele>
<time>2026-08-31T18:52:36.000Z</time>
</trkpt>
<trkpt lat="59.4580915" lon="31.0978057">
<ele>55.169998</ele>
<time>2026-08-31T18:52:50.000Z</time>
</trkpt>
<trkpt lat="59.4581843" lon="31.0981011">
<ele>55.459999</ele>
<time>2026-08-31T18:53:06.000Z</time>
</trkpt>
<trkpt lat="59.4582250" lon="31.0982517">
<ele>55.549999</ele>
<time>2026-08-31T18:53:14.000Z</time>
</trkpt>
<trkpt lat="59.4583094" lon="31.0985297">
<ele>57.020000</ele>
<time>2026-08-31T18:53:29.000Z</time>
</trkpt>
<trkpt lat="59.4583600" lon="31.0987052">
<ele>58.209999</ele>
<time>2026-08-31T18:53:46.000Z</time>
</trkpt>
<trkpt lat="59.4584454" lon="31.0989496">
<ele>57.689999</ele>
<time>2026-08-31T18:54:02.000Z</time>
</trkpt>
<trkpt lat="59.4585376" lon="31.0992394">
<ele>57.250000</ele>
<time>2026-08-31T18:54:18.000Z</time>
</trkpt>
<trkpt lat="59.4586426" lon="31.0994955">
<ele>56.410000</ele>
<time>2026-08-31T18:54:34.000Z</time>
</trkpt>
<trkpt lat="59.4587418" lon="31.0997532">
<ele>56.600002</ele>
<time>2026-08-31T18:54:50.000Z</time>
</trkpt>
<trkpt lat="59.4588374" lon="31.1000067">
<ele>54.869999</ele>
<time>2026-08-31T18:55:06.000Z</time>
</trkpt>
<trkpt lat="59.4588581" lon="31.1000413">
<ele>54.589996</ele>
<time>2026-08-31T18:55:09.000Z</time>
</trkpt>
<trkpt lat="59.4589424" lon="31.1001753">
<ele>55.709999</ele>
<time>2026-08-31T18:55:24.000Z</time>
</trkpt>
<trkpt lat="59.4589354" lon="31.1001882">
<ele>54.830002</ele>
<time>2026-08-31T18:55:47.000Z</time>
</trkpt>
<trkpt lat="59.4588996" lon="31.1002628">
<ele>54.700001</ele>
<time>2026-08-31T18:55:53.000Z</time>
</trkpt>
<trkpt lat="59.4588720" lon="31.1003383">
<ele>54.480000</ele>
<time>2026-08-31T18:55:58.000Z</time>
</trkpt>
<trkpt lat="59.4588850" lon="31.1004919">
<ele>54.600002</ele>
<time>2026-08-31T18:56:08.000Z</time>
</trkpt>
<trkpt lat="59.4589090" lon="31.1005583">
<ele>55.279999</ele>
<time>2026-08-31T18:56:22.000Z</time>
</trkpt>
<trkpt lat="59.4589276" lon="31.1005791">
<ele>54.959999</ele>
<time>2026-08-31T18:56:39.000Z</time>
</trkpt>
<trkpt lat="59.4590187" lon="31.1008034">
<ele>55.489998</ele>
<time>2026-08-31T18:56:57.000Z</time>
</trkpt>
<trkpt lat="59.4590500" lon="31.1008971">
<ele>55.269997</ele>
<time>2026-08-31T18:57:11.000Z</time>
</trkpt>
<trkpt lat="59.4590481" lon="31.1008948">
<ele>55.320000</ele>
<time>2026-08-31T18:57:29.000Z</time>
</trkpt>
<trkpt lat="59.4590818" lon="31.1009639">
<ele>54.620003</ele>
<time>2026-08-31T18:57:49.000Z</time>
</trkpt>
<trkpt lat="59.4591218" lon="31.1010345">
<ele>52.490002</ele>
<time>2026-08-31T18:57:55.000Z</time>
</trkpt>
<trkpt lat="59.4591177" lon="31.1011149">
<ele>50.790001</ele>
<time>2026-08-31T18:58:12.000Z</time>
</trkpt>
<trkpt lat="59.4590925" lon="31.1013057">
<ele>50.549999</ele>
<time>2026-08-31T18:58:28.000Z</time>
</trkpt>
<trkpt lat="59.4590580" lon="31.1013724">
<ele>51.889999</ele>
<time>2026-08-31T18:58:43.000Z</time>
</trkpt>
<trkpt lat="59.4590212" lon="31.1014024">
<ele>52.379997</ele>
<time>2026-08-31T18:59:02.000Z</time>
</trkpt>
<trkpt lat="59.4589478" lon="31.1014764">
<ele>52.579998</ele>
<time>2026-08-31T18:59:16.000Z</time>
</trkpt>
<trkpt lat="59.4589066" lon="31.1015888">
<ele>52.579998</ele>
<time>2026-08-31T18:59:30.000Z</time>
</trkpt>
<trkpt lat="59.4588775" lon="31.1016261">
<ele>52.759998</ele>
<time>2026-08-31T18:59:42.000Z</time>
</trkpt>
<trkpt lat="59.4588519" lon="31.1016989">
<ele>53.080002</ele>
<time>2026-08-31T18:59:54.000Z</time>
</trkpt>
<trkpt lat="59.4588541" lon="31.1017215">
<ele>53.529999</ele>
<time>2026-08-31T19:00:12.000Z</time>
</trkpt>
<trkpt lat="59.4588558" lon="31.1017213">
<ele>53.349998</ele>
<time>2026-08-31T19:00:30.000Z</time>
</trkpt>
<trkpt lat="59.4588587" lon="31.1017187">
<ele>53.850002</ele>
<time>2026-08-31T19:01:00.000Z</time>
</trkpt>
<trkpt lat="59.4588626" lon="31.1017068">
<ele>53.860001</ele>
<time>2026-08-31T19:01:26.000Z</time>
</trkpt>
<trkpt lat="59.4588650" lon="31.1016987">
<ele>54.310001</ele>
<time>2026-08-31T19:01:56.000Z</time>
</trkpt>
<trkpt lat="59.4588559" lon="31.1016990">
<ele>54.410000</ele>
<time>2026-08-31T19:02:25.000Z</time>
</trkpt>
<trkpt lat="59.4587942" lon="31.1018560">
<ele>54.300003</ele>
<time>2026-08-31T19:02:44.000Z</time>
</trkpt>
<trkpt lat="59.4587579" lon="31.1020115">
<ele>54.170002</ele>
<time>2026-08-31T19:03:06.000Z</time>
</trkpt>
<trkpt lat="59.4587080" lon="31.1021685">
<ele>53.419998</ele>
<time>2026-08-31T19:03:28.000Z</time>
</trkpt>
<trkpt lat="59.4586862" lon="31.1023821">
<ele>52.540001</ele>
<time>2026-08-31T19:03:51.000Z</time>
</trkpt>
<trkpt lat="59.4586747" lon="31.1026051">
<ele>51.750000</ele>
<time>2026-08-31T19:04:16.000Z</time>
</trkpt>
<trkpt lat="59.4586613" lon="31.1026401">
<ele>52.100002</ele>
<time>2026-08-31T19:04:20.000Z</time>
</trkpt>
<trkpt lat="59.4586521" lon="31.1027424">
<ele>54.080002</ele>
<time>2026-08-31T19:04:51.000Z</time>
</trkpt>
<trkpt lat="59.4586471" lon="31.1027713">
<ele>54.080002</ele>
<time>2026-08-31T19:05:11.000Z</time>
</trkpt>
<trkpt lat="59.4586022" lon="31.1028452">
<ele>53.829998</ele>
<time>2026-08-31T19:05:22.000Z</time>
</trkpt>
<trkpt lat="59.4585505" lon="31.1029053">
<ele>54.509998</ele>
<time>2026-08-31T19:05:34.000Z</time>
</trkpt>
<trkpt lat="59.4584982" lon="31.1029982">
<ele>54.630001</ele>
<time>2026-08-31T19:05:49.000Z</time>
</trkpt>
<trkpt lat="59.4584423" lon="31.1030874">
<ele>53.899998</ele>
<time>2026-08-31T19:06:04.000Z</time>
</trkpt>
<trkpt lat="59.4583744" lon="31.1031835">
<ele>54.610001</ele>
<time>2026-08-31T19:06:20.000Z</time>
</trkpt>
<trkpt lat="59.4583200" lon="31.1032697">
<ele>54.500000</ele>
<time>2026-08-31T19:06:33.000Z</time>
</trkpt>
<trkpt lat="59.4582905" lon="31.1032940">
<ele>54.899998</ele>
<time>2026-08-31T19:06:46.000Z</time>
</trkpt>
<trkpt lat="59.4582888" lon="31.1033020">
<ele>54.579998</ele>
<time>2026-08-31T19:06:51.000Z</time>
</trkpt>
<trkpt lat="59.4582618" lon="31.1033707">
<ele>54.330002</ele>
<time>2026-08-31T19:06:59.000Z</time>
</trkpt>
<trkpt lat="59.4582246" lon="31.1034954">
<ele>53.519997</ele>
<time>2026-08-31T19:07:11.000Z</time>
</trkpt>
<trkpt lat="59.4581963" lon="31.1035826">
<ele>53.869999</ele>
<time>2026-08-31T19:07:23.000Z</time>
</trkpt>
<trkpt lat="59.4581920" lon="31.1036838">
<ele>54.040001</ele>
<time>2026-08-31T19:07:35.000Z</time>
</trkpt>
<trkpt lat="59.4581813" lon="31.1037888">
<ele>54.370003</ele>
<time>2026-08-31T19:07:48.000Z</time>
</trkpt>
<trkpt lat="59.4581593" lon="31.1037872">
<ele>54.549999</ele>
<time>2026-08-31T19:08:08.000Z</time>
</trkpt>
<trkpt lat="59.4581406" lon="31.1038361">
<ele>52.590000</ele>
<time>2026-08-31T19:08:30.000Z</time>
</trkpt>
<trkpt lat="59.4580879" lon="31.1039736">
<ele>51.710003</ele>
<time>2026-08-31T19:08:44.000Z</time>
</trkpt>
<trkpt lat="59.4580693" lon="31.1040156">
<ele>51.619999</ele>
<time>2026-08-31T19:08:50.000Z</time>
</trkpt>
<trkpt lat="59.4580026" lon="31.1041056">
<ele>51.309998</ele>
<time>2026-08-31T19:09:03.000Z</time>
</trkpt>
<trkpt lat="59.4579636" lon="31.1041610">
<ele>51.299999</ele>
<time>2026-08-31T19:09:14.000Z</time>
</trkpt>
<trkpt lat="59.4579479" lon="31.1042051">
<ele>51.200001</ele>
<time>2026-08-31T19:09:29.000Z</time>
</trkpt>
<trkpt lat="59.4578991" lon="31.1043159">
<ele>51.539997</ele>
<time>2026-08-31T19:09:44.000Z</time>
</trkpt>
<trkpt lat="59.4578583" lon="31.1044148">
<ele>52.540001</ele>
<time>2026-08-31T19:09:58.000Z</time>
</trkpt>
<trkpt lat="59.4578452" lon="31.1044670">
<ele>53.529999</ele>
<time>2026-08-31T19:10:13.000Z</time>
</trkpt>
<trkpt lat="59.4578488" lon="31.1044722">
<ele>55.070000</ele>
<time>2026-08-31T19:10:43.000Z</time>
</trkpt>
<trkpt lat="59.4578499" lon="31.1044740">
<ele>54.139999</ele>
<time>2026-08-31T19:11:04.000Z</time>
</trkpt>
<trkpt lat="59.4578519" lon="31.1044827">
<ele>55.240002</ele>
<time>2026-08-31T19:11:31.000Z</time>
</trkpt>
<trkpt lat="59.4578541" lon="31.1044796">
<ele>55.370003</ele>
<time>2026-08-31T19:12:02.000Z</time>
</trkpt>
<trkpt lat="59.4578886" lon="31.1043524">
<ele>54.770000</ele>
<time>2026-08-31T19:12:18.000Z</time>
</trkpt>
<trkpt lat="59.4579543" lon="31.1042440">
<ele>54.579998</ele>
<time>2026-08-31T19:12:33.000Z</time>
</trkpt>
<trkpt lat="59.4580132" lon="31.1043347">
<ele>52.869999</ele>
<time>2026-08-31T19:12:44.000Z</time>
</trkpt>
<trkpt lat="59.4581066" lon="31.1044798">
<ele>51.950001</ele>
<time>2026-08-31T19:12:59.000Z</time>
</trkpt>
<trkpt lat="59.4581748" lon="31.1045994">
<ele>51.209999</ele>
<time>2026-08-31T19:13:13.000Z</time>
</trkpt>
<trkpt lat="59.4582451" lon="31.1047347">
<ele>51.180000</ele>
<time>2026-08-31T19:13:28.000Z</time>
</trkpt>
<trkpt lat="59.4582838" lon="31.1049025">
<ele>51.730000</ele>
<time>2026-08-31T19:13:42.000Z</time>
</trkpt>
<trkpt lat="59.4583086" lon="31.1050894">
<ele>52.980000</ele>
<time>2026-08-31T19:13:57.000Z</time>
</trkpt>
<trkpt lat="59.4583300" lon="31.1051884">
<ele>51.190002</ele>
<time>2026-08-31T19:14:16.000Z</time>
</trkpt>
<trkpt lat="59.4583773" lon="31.1053694">
<ele>50.870003</ele>
<time>2026-08-31T19:14:35.000Z</time>
</trkpt>
<trkpt lat="59.4583718" lon="31.1053903">
<ele>51.270000</ele>
<time>2026-08-31T19:14:52.000Z</time>
</trkpt>
<trkpt lat="59.4583638" lon="31.1054913">
<ele>54.010002</ele>
<time>2026-08-31T19:15:08.000Z</time>
</trkpt>
<trkpt lat="59.4583260" lon="31.1056937">
<ele>58.369999</ele>
<time>2026-08-31T19:15:32.000Z</time>
</trkpt>
<trkpt lat="59.4582723" lon="31.1058758">
<ele>60.720001</ele>
<time>2026-08-31T19:15:55.000Z</time>
</trkpt>
<trkpt lat="59.4581945" lon="31.1059628">
<ele>61.650002</ele>
<time>2026-08-31T19:16:16.000Z</time>
</trkpt>
<trkpt lat="59.4581875" lon="31.1060407">
<ele>60.100002</ele>
<time>2026-08-31T19:16:39.000Z</time>
</trkpt>
<trkpt lat="59.4581887" lon="31.1060377">
<ele>59.100002</ele>
<time>2026-08-31T19:17:05.000Z</time>
</trkpt>
<trkpt lat="59.4581777" lon="31.1060408">
<ele>56.779999</ele>
<time>2026-08-31T19:17:30.000Z</time>
</trkpt>
<trkpt lat="59.4581916" lon="31.1060383">
<ele>55.939999</ele>
<time>2026-08-31T19:18:01.000Z</time>
</trkpt>
<trkpt lat="59.4581852" lon="31.1061502">
<ele>55.029999</ele>
<time>2026-08-31T19:18:21.000Z</time>
</trkpt>
<trkpt lat="59.4581693" lon="31.1062886">
<ele>54.820000</ele>
<time>2026-08-31T19:18:39.000Z</time>
</trkpt>
<trkpt lat="59.4581257" lon="31.1065455">
<ele>53.889999</ele>
<time>2026-08-31T19:19:02.000Z</time>
</trkpt>
<trkpt lat="59.4580884" lon="31.1068057">
<ele>53.730000</ele>
<time>2026-08-31T19:19:24.000Z</time>
</trkpt>
<trkpt lat="59.4580843" lon="31.1070280">
<ele>53.010002</ele>
<time>2026-08-31T19:19:47.000Z</time>
</trkpt>
<trkpt lat="59.4580541" lon="31.1071257">
<ele>53.349998</ele>
<time>2026-08-31T19:20:13.000Z</time>
</trkpt>
<trkpt lat="59.4580215" lon="31.1073509">
<ele>53.460003</ele>
<time>2026-08-31T19:20:35.000Z</time>
</trkpt>
<trkpt lat="59.4579774" lon="31.1075703">
<ele>53.340000</ele>
<time>2026-08-31T19:20:55.000Z</time>
</trkpt>
<trkpt lat="59.4579809" lon="31.1077572">
<ele>53.690002</ele>
<time>2026-08-31T19:21:10.000Z</time>
</trkpt>
<trkpt lat="59.4579477" lon="31.1079364">
<ele>53.679996</ele>
<time>2026-08-31T19:21:30.000Z</time>
</trkpt>
<trkpt lat="59.4578970" lon="31.1081565">
<ele>54.359997</ele>
<time>2026-08-31T19:21:53.000Z</time>
</trkpt>
<trkpt lat="59.4578844" lon="31.1081934">
<ele>54.180000</ele>
<time>2026-08-31T19:22:16.000Z</time>
</trkpt>
<trkpt lat="59.4578122" lon="31.1083978">
<ele>53.410000</ele>
<time>2026-08-31T19:22:39.000Z</time>
</trkpt>
<trkpt lat="59.4577295" lon="31.1087285">
<ele>53.529999</ele>
<time>2026-08-31T19:23:05.000Z</time>
</trkpt>
<trkpt lat="59.4576870" lon="31.1089946">
<ele>54.170002</ele>
<time>2026-08-31T19:23:30.000Z</time>
</trkpt>
<trkpt lat="59.4576165" lon="31.1091968">
<ele>53.709999</ele>
<time>2026-08-31T19:23:52.000Z</time>
</trkpt>
<trkpt lat="59.4575653" lon="31.1094124">
<ele>53.820000</ele>
<time>2026-08-31T19:24:11.000Z</time>
</trkpt>
<trkpt lat="59.4575859" lon="31.1095910">
<ele>55.199997</ele>
<time>2026-08-31T19:24:26.000Z</time>
</trkpt>
<trkpt lat="59.4576096" lon="31.1097080">
<ele>54.869999</ele>
<time>2026-08-31T19:24:50.000Z</time>
</trkpt>
<trkpt lat="59.4576236" lon="31.1097464">
<ele>54.570000</ele>
<time>2026-08-31T19:25:17.000Z</time>
</trkpt>
<trkpt lat="59.4576126" lon="31.1097199">
<ele>54.570000</ele>
<time>2026-08-31T19:25:46.000Z</time>
</trkpt>
<trkpt lat="59.4576051" lon="31.1097209">
<ele>55.739998</ele>
<time>2026-08-31T19:26:10.000Z</time>
</trkpt>
<trkpt lat="59.4576004" lon="31.1097184">
<ele>55.970001</ele>
<time>2026-08-31T19:26:46.000Z</time>
</trkpt>
<trkpt lat="59.4576534" lon="31.1099541">
<ele>56.189999</ele>
<time>2026-08-31T19:27:07.000Z</time>
</trkpt>
<trkpt lat="59.4576424" lon="31.1101721">
<ele>56.050003</ele>
<time>2026-08-31T19:27:29.000Z</time>
</trkpt>
<trkpt lat="59.4576318" lon="31.1102751">
<ele>55.849998</ele>
<time>2026-08-31T19:27:49.000Z</time>
</trkpt>
<trkpt lat="59.4576448" lon="31.1103821">
<ele>56.430000</ele>
<time>2026-08-31T19:28:15.000Z</time>
</trkpt>
<trkpt lat="59.4576131" lon="31.1103918">
<ele>56.320000</ele>
<time>2026-08-31T19:28:44.000Z</time>
</trkpt>
<trkpt lat="59.4576004" lon="31.1104140">
<ele>56.130001</ele>
<time>2026-08-31T19:29:09.000Z</time>
</trkpt>
<trkpt lat="59.4576954" lon="31.1102476">
<ele>55.980003</ele>
<time>2026-08-31T19:29:27.000Z</time>
</trkpt>
<trkpt lat="59.4577169" lon="31.1102556">
<ele>55.730000</ele>
<time>2026-08-31T19:29:45.000Z</time>
</trkpt>
<trkpt lat="59.4577060" lon="31.1103338">
<ele>55.500000</ele>
<time>2026-08-31T19:30:03.000Z</time>
</trkpt>
<trkpt lat="59.4577509" lon="31.1105864">
<ele>54.910004</ele>
<time>2026-08-31T19:30:22.000Z</time>
</trkpt>
<trkpt lat="59.4578160" lon="31.1107322">
<ele>57.099998</ele>
<time>2026-08-31T19:30:36.000Z</time>
</trkpt>
<trkpt lat="59.4578464" lon="31.1108205">
<ele>58.680000</ele>
<time>2026-08-31T19:31:11.000Z</time>
</trkpt>
<trkpt lat="59.4578724" lon="31.1109916">
<ele>58.619999</ele>
<time>2026-08-31T19:31:29.000Z</time>
</trkpt>
<trkpt lat="59.4579460" lon="31.1111212">
<ele>58.290001</ele>
<time>2026-08-31T19:31:50.000Z</time>
</trkpt>
<trkpt lat="59.4580252" lon="31.1112554">
<ele>58.320000</ele>
<time>2026-08-31T19:32:14.000Z</time>
</trkpt>
<trkpt lat="59.4581387" lon="31.1114055">
<ele>58.230000</ele>
<time>2026-08-31T19:32:36.000Z</time>
</trkpt>
<trkpt lat="59.4582390" lon="31.1116081">
<ele>57.890003</ele>
<time>2026-08-31T19:32:57.000Z</time>
</trkpt>
<trkpt lat="59.4583531" lon="31.1118510">
<ele>57.099998</ele>
<time>2026-08-31T19:33:23.000Z</time>
</trkpt>
<trkpt lat="59.4584269" lon="31.1121392">
<ele>56.459999</ele>
<time>2026-08-31T19:33:46.000Z</time>
</trkpt>
<trkpt lat="59.4584664" lon="31.1125027">
<ele>55.910000</ele>
<time>2026-08-31T19:34:11.000Z</time>
</trkpt>
<trkpt lat="59.4585152" lon="31.1128246">
<ele>56.109997</ele>
<time>2026-08-31T19:34:34.000Z</time>
</trkpt>
<trkpt lat="59.4585151" lon="31.1131694">
<ele>55.610001</ele>
<time>2026-08-31T19:34:58.000Z</time>
</trkpt>
<trkpt lat="59.4584804" lon="31.1132726">
<ele>54.950001</ele>
<time>2026-08-31T19:35:16.000Z</time>
</trkpt>
<trkpt lat="59.4584208" lon="31.1133535">
<ele>53.889999</ele>
<time>2026-08-31T19:35:40.000Z</time>
</trkpt>
<trkpt lat="59.4583561" lon="31.1134291">
<ele>53.760002</ele>
<time>2026-08-31T19:36:00.000Z</time>
</trkpt>
<trkpt lat="59.4583378" lon="31.1134493">
<ele>55.630001</ele>
<time>2026-08-31T19:36:20.000Z</time>
</trkpt>
<trkpt lat="59.4583103" lon="31.1134768">
<ele>57.220001</ele>
<time>2026-08-31T19:36:37.000Z</time>
</trkpt>
<trkpt lat="59.4583179" lon="31.1134537">
<ele>57.250000</ele>
<time>2026-08-31T19:36:57.000Z</time>
</trkpt>
<trkpt lat="59.4583960" lon="31.1134504">
<ele>56.220001</ele>
<time>2026-08-31T19:37:23.000Z</time>
</trkpt>
<trkpt lat="59.4584229" lon="31.1136392">
<ele>55.509998</ele>
<time>2026-08-31T19:37:37.000Z</time>
</trkpt>
<trkpt lat="59.4584296" lon="31.1138922">
<ele>54.660000</ele>
<time>2026-08-31T19:37:53.000Z</time>
</trkpt>
<trkpt lat="59.4584300" lon="31.1140885">
<ele>53.189999</ele>
<time>2026-08-31T19:38:11.000Z</time>
</trkpt>
<trkpt lat="59.4584344" lon="31.1142953">
<ele>52.639999</ele>
<time>2026-08-31T19:38:35.000Z</time>
</trkpt>
<trkpt lat="59.4584321" lon="31.1142911">
<ele>53.279999</ele>
<time>2026-08-31T19:39:05.000Z</time>
</trkpt>
<trkpt lat="59.4584297" lon="31.1142983">
<ele>54.840000</ele>
<time>2026-08-31T19:39:47.000Z</time>
</trkpt>
<trkpt lat="59.4584200" lon="31.1142923">
<ele>55.090000</ele>
<time>2026-08-31T19:40:16.000Z</time>
</trkpt>
<trkpt lat="59.4584521" lon="31.1145208">
<ele>54.860001</ele>
<time>2026-08-31T19:40:39.000Z</time>
</trkpt>
<trkpt lat="59.4585014" lon="31.1148434">
<ele>54.579998</ele>
<time>2026-08-31T19:41:00.000Z</time>
</trkpt>
<trkpt lat="59.4585604" lon="31.1150979">
<ele>54.230003</ele>
<time>2026-08-31T19:41:21.000Z</time>
</trkpt>
<trkpt lat="59.4585993" lon="31.1153451">
<ele>54.320000</ele>
<time>2026-08-31T19:41:41.000Z</time>
</trkpt>
<trkpt lat="59.4585918" lon="31.1155879">
<ele>54.189999</ele>
<time>2026-08-31T19:42:00.000Z</time>
</trkpt>
<trkpt lat="59.4586214" lon="31.1157999">
<ele>53.930000</ele>
<time>2026-08-31T19:42:19.000Z</time>
</trkpt>
<trkpt lat="59.4586702" lon="31.1160354">
<ele>53.730000</ele>
<time>2026-08-31T19:42:38.000Z</time>
</trkpt>
<trkpt lat="59.4587162" lon="31.1164430">
<ele>53.950001</ele>
<time>2026-08-31T19:43:02.000Z</time>
</trkpt>
<trkpt lat="59.4587681" lon="31.1167616">
<ele>53.980000</ele>
<time>2026-08-31T19:43:25.000Z</time>
</trkpt>
<trkpt lat="59.4587963" lon="31.1170758">
<ele>53.799999</ele>
<time>2026-08-31T19:43:48.000Z</time>
</trkpt>
<trkpt lat="59.4588556" lon="31.1173556">
<ele>53.299999</ele>
<time>2026-08-31T19:44:10.000Z</time>
</trkpt>
<trkpt lat="59.4588726" lon="31.1175584">
<ele>52.770000</ele>
<time>2026-08-31T19:44:28.000Z</time>
</trkpt>
<trkpt lat="59.4588931" lon="31.1179267">
<ele>53.150002</ele>
<time>2026-08-31T19:44:52.000Z</time>
</trkpt>
<trkpt lat="59.4589224" lon="31.1183505">
<ele>53.869999</ele>
<time>2026-08-31T19:45:19.000Z</time>
</trkpt>
<trkpt lat="59.4589665" lon="31.1184828">
<ele>53.799999</ele>
<time>2026-08-31T19:45:36.000Z</time>
</trkpt>
<trkpt lat="59.4589843" lon="31.1185977">
<ele>53.529999</ele>
<time>2026-08-31T19:45:55.000Z</time>
</trkpt>
<trkpt lat="59.4590101" lon="31.1188815">
<ele>53.330002</ele>
<time>2026-08-31T19:46:21.000Z</time>
</trkpt>
<trkpt lat="59.4590214" lon="31.1189892">
<ele>53.250000</ele>
<time>2026-08-31T19:46:34.000Z</time>
</trkpt>
<trkpt lat="59.4590172" lon="31.1190188">
<ele>52.509998</ele>
<time>2026-08-31T19:46:57.000Z</time>
</trkpt>
<trkpt lat="59.4590193" lon="31.1190502">
<ele>50.960003</ele>
<time>2026-08-31T19:47:27.000Z</time>
</trkpt>
<trkpt lat="59.4590201" lon="31.1190385">
<ele>51.580002</ele>
<time>2026-08-31T19:47:49.000Z</time>
</trkpt>
<trkpt lat="59.4590137" lon="31.1190378">
<ele>51.420002</ele>
<time>2026-08-31T19:48:26.000Z</time>
</trkpt>
<trkpt lat="59.4590055" lon="31.1190281">
<ele>51.599998</ele>
<time>2026-08-31T19:48:59.000Z</time>
</trkpt>
<trkpt lat="59.4589991" lon="31.1190260">
<ele>52.079998</ele>
<time>2026-08-31T19:49:26.000Z</time>
</trkpt>
<trkpt lat="59.4589955" lon="31.1192707">
<ele>52.349998</ele>
<time>2026-08-31T19:49:49.000Z</time>
</trkpt>
<trkpt lat="59.4590340" lon="31.1194761">
<ele>52.379997</ele>
<time>2026-08-31T19:50:04.000Z</time>
</trkpt>
<trkpt lat="59.4590999" lon="31.1198418">
<ele>52.260002</ele>
<time>2026-08-31T19:50:31.000Z</time>
</trkpt>
<trkpt lat="59.4591693" lon="31.1201714">
<ele>52.369999</ele>
<time>2026-08-31T19:50:57.000Z</time>
</trkpt>
<trkpt lat="59.4592096" lon="31.1203759">
<ele>52.330002</ele>
<time>2026-08-31T19:51:14.000Z</time>
</trkpt>
<trkpt lat="59.4592180" lon="31.1206513">
<ele>53.040001</ele>
<time>2026-08-31T19:51:38.000Z</time>
</trkpt>
<trkpt lat="59.4592721" lon="31.1210537">
<ele>53.750000</ele>
<time>2026-08-31T19:52:03.000Z</time>
</trkpt>
<trkpt lat="59.4594476" lon="31.1212488">
<ele>53.000004</ele>
<time>2026-08-31T19:52:28.000Z</time>
</trkpt>
<trkpt lat="59.4595298" lon="31.1214892">
<ele>52.710003</ele>
<time>2026-08-31T19:52:49.000Z</time>
</trkpt>
<trkpt lat="59.4595763" lon="31.1216673">
<ele>52.650002</ele>
<time>2026-08-31T19:52:59.000Z</time>
</trkpt>
<trkpt lat="59.4596483" lon="31.1219167">
<ele>52.550003</ele>
<time>2026-08-31T19:53:13.000Z</time>
</trkpt>
<trkpt lat="59.4596570" lon="31.1219864">
<ele>52.540001</ele>
<time>2026-08-31T19:53:35.000Z</time>
</trkpt>
<trkpt lat="59.4596985" lon="31.1220877">
<ele>52.130001</ele>
<time>2026-08-31T19:53:53.000Z</time>
</trkpt>
<trkpt lat="59.4597317" lon="31.1221967">
<ele>51.580002</ele>
<time>2026-08-31T19:54:15.000Z</time>
</trkpt>
<trkpt lat="59.4597326" lon="31.1223051">
<ele>52.669998</ele>
<time>2026-08-31T19:54:46.000Z</time>
</trkpt>
<trkpt lat="59.4598028" lon="31.1223379">
<ele>54.620003</ele>
<time>2026-08-31T19:55:32.000Z</time>
</trkpt>
<trkpt lat="59.4598702" lon="31.1224621">
<ele>55.440002</ele>
<time>2026-08-31T19:55:50.000Z</time>
</trkpt>
<trkpt lat="59.4599619" lon="31.1224904">
<ele>56.250000</ele>
<time>2026-08-31T19:56:02.000Z</time>
</trkpt>
<trkpt lat="59.4600112" lon="31.1225959">
<ele>56.990002</ele>
<time>2026-08-31T19:56:24.000Z</time>
</trkpt>
<trkpt lat="59.4600501" lon="31.1226773">
<ele>57.169998</ele>
<time>2026-08-31T19:56:38.000Z</time>
</trkpt>
<trkpt lat="59.4600621" lon="31.1227014">
<ele>57.070000</ele>
<time>2026-08-31T19:56:42.000Z</time>
</trkpt>
<trkpt lat="59.4600962" lon="31.1228075">
<ele>57.389999</ele>
<time>2026-08-31T19:56:58.000Z</time>
</trkpt>
<trkpt lat="59.4601096" lon="31.1228526">
<ele>56.169998</ele>
<time>2026-08-31T19:57:20.000Z</time>
</trkpt>
<trkpt lat="59.4601361" lon="31.1228777">
<ele>58.320000</ele>
<time>2026-08-31T19:58:03.000Z</time>
</trkpt>
<trkpt lat="59.4601352" lon="31.1228713">
<ele>58.779999</ele>
<time>2026-08-31T19:58:51.000Z</time>
</trkpt>
<trkpt lat="59.4601924" lon="31.1230092">
<ele>58.260002</ele>
<time>2026-08-31T19:59:10.000Z</time>
</trkpt>
<trkpt lat="59.4602439" lon="31.1231763">
<ele>58.329998</ele>
<time>2026-08-31T19:59:31.000Z</time>
</trkpt>
<trkpt lat="59.4602563" lon="31.1232609">
<ele>58.280003</ele>
<time>2026-08-31T19:59:43.000Z</time>
</trkpt>
<trkpt lat="59.4603692" lon="31.1233628">
<ele>58.880001</ele>
<time>2026-08-31T20:00:10.000Z</time>
</trkpt>
<trkpt lat="59.4603686" lon="31.1233744">
<ele>58.800003</ele>
<time>2026-08-31T20:00:19.000Z</time>
</trkpt>
<trkpt lat="59.4604127" lon="31.1234101">
<ele>58.019997</ele>
<time>2026-08-31T20:00:46.000Z</time>
</trkpt>
<trkpt lat="59.4605544" lon="31.1236345">
<ele>58.939999</ele>
<time>2026-08-31T20:01:17.000Z</time>
</trkpt>
<trkpt lat="59.4605892" lon="31.1236882">
<ele>58.510002</ele>
<time>2026-08-31T20:01:26.000Z</time>
</trkpt>
<trkpt lat="59.4607068" lon="31.1239105">
<ele>57.619999</ele>
<time>2026-08-31T20:01:49.000Z</time>
</trkpt>
<trkpt lat="59.4608560" lon="31.1240924">
<ele>57.120003</ele>
<time>2026-08-31T20:02:06.000Z</time>
</trkpt>
<trkpt lat="59.4607911" lon="31.1243376">
<ele>59.250004</ele>
<time>2026-08-31T20:02:21.000Z</time>
</trkpt>
<trkpt lat="59.4607943" lon="31.1243522">
<ele>59.669998</ele>
<time>2026-08-31T20:02:47.000Z</time>
</trkpt>
<trkpt lat="59.4607673" lon="31.1244110">
<ele>60.139999</ele>
<time>2026-08-31T20:03:57.000Z</time>
</trkpt>
<trkpt lat="59.4608447" lon="31.1245291">
<ele>59.940002</ele>
<time>2026-08-31T20:04:29.000Z</time>
</trkpt>
<trkpt lat="59.4609254" lon="31.1246640">
<ele>60.360001</ele>
<time>2026-08-31T20:04:44.000Z</time>
</trkpt>
<trkpt lat="59.4609327" lon="31.1247698">
<ele>60.260002</ele>
<time>2026-08-31T20:04:55.000Z</time>
</trkpt>
<trkpt lat="59.4609677" lon="31.1249536">
<ele>59.699997</ele>
<time>2026-08-31T20:05:15.000Z</time>
</trkpt>
<trkpt lat="59.4610093" lon="31.1250450">
<ele>58.709999</ele>
<time>2026-08-31T20:05:29.000Z</time>
</trkpt>
<trkpt lat="59.4610404" lon="31.1251911">
<ele>57.800003</ele>
<time>2026-08-31T20:05:46.000Z</time>
</trkpt>
<trkpt lat="59.4610729" lon="31.1252828">
<ele>57.590000</ele>
<time>2026-08-31T20:05:58.000Z</time>
</trkpt>
<trkpt lat="59.4611313" lon="31.1254390">
<ele>57.099998</ele>
<time>2026-08-31T20:06:11.000Z</time>
</trkpt>
<trkpt lat="59.4611851" lon="31.1256244">
<ele>56.450001</ele>
<time>2026-08-31T20:06:25.000Z</time>
</trkpt>
<trkpt lat="59.4612230" lon="31.1257570">
<ele>55.610001</ele>
<time>2026-08-31T20:06:38.000Z</time>
</trkpt>
<trkpt lat="59.4612206" lon="31.1259191">
<ele>54.850002</ele>
<time>2026-08-31T20:06:50.000Z</time>
</trkpt>
<trkpt lat="59.4612532" lon="31.1261780">
<ele>56.680000</ele>
<time>2026-08-31T20:07:05.000Z</time>
</trkpt>
<trkpt lat="59.4612909" lon="31.1263289">
<ele>56.340000</ele>
<time>2026-08-31T20:07:26.000Z</time>
</trkpt>
<trkpt lat="59.4612064" lon="31.1264915">
<ele>56.020000</ele>
<time>2026-08-31T20:08:19.000Z</time>
</trkpt>
<trkpt lat="59.4612504" lon="31.1264591">
<ele>56.060001</ele>
<time>2026-08-31T20:09:02.000Z</time>
</trkpt>
<trkpt lat="59.4612644" lon="31.1264504">
<ele>57.150002</ele>
<time>2026-08-31T20:09:31.000Z</time>
</trkpt>
<trkpt lat="59.4613258" lon="31.1265629">
<ele>57.380001</ele>
<time>2026-08-31T20:09:53.000Z</time>
</trkpt>
<trkpt lat="59.4613980" lon="31.1266872">
<ele>56.970001</ele>
<time>2026-08-31T20:10:08.000Z</time>
</trkpt>
<trkpt lat="59.4614426" lon="31.1269013">
<ele>56.299999</ele>
<time>2026-08-31T20:10:25.000Z</time>
</trkpt>
<trkpt lat="59.4615127" lon="31.1271378">
<ele>54.820000</ele>
<time>2026-08-31T20:10:45.000Z</time>
</trkpt>
<trkpt lat="59.4615617" lon="31.1272730">
<ele>53.570000</ele>
<time>2026-08-31T20:11:01.000Z</time>
</trkpt>
<trkpt lat="59.4614648" lon="31.1274962">
<ele>52.710003</ele>
<time>2026-08-31T20:11:16.000Z</time>
</trkpt>
<trkpt lat="59.4614151" lon="31.1276960">
<ele>51.459999</ele>
<time>2026-08-31T20:11:33.000Z</time>
</trkpt>
<trkpt lat="59.4613963" lon="31.1277158">
<ele>51.089996</ele>
<time>2026-08-31T20:11:37.000Z</time>
</trkpt>
<trkpt lat="59.4612733" lon="31.1278864">
<ele>51.070000</ele>
<time>2026-08-31T20:12:01.000Z</time>
</trkpt>
<trkpt lat="59.4611823" lon="31.1280115">
<ele>50.549999</ele>
<time>2026-08-31T20:12:19.000Z</time>
</trkpt>
<trkpt lat="59.4611581" lon="31.1280311">
<ele>50.660000</ele>
<time>2026-08-31T20:12:24.000Z</time>
</trkpt>
<trkpt lat="59.4610869" lon="31.1280727">
<ele>50.549999</ele>
<time>2026-08-31T20:12:51.000Z</time>
</trkpt>
<trkpt lat="59.4610640" lon="31.1280064">
<ele>53.730000</ele>
<time>2026-08-31T20:13:21.000Z</time>
</trkpt>
<trkpt lat="59.4611058" lon="31.1280888">
<ele>55.160000</ele>
<time>2026-08-31T20:14:41.000Z</time>
</trkpt>
<trkpt lat="59.4611289" lon="31.1281026">
<ele>58.989998</ele>
<time>2026-08-31T20:15:08.000Z</time>
</trkpt>
<trkpt lat="59.4611507" lon="31.1280374">
<ele>59.209999</ele>
<time>2026-08-31T20:15:54.000Z</time>
</trkpt>
<trkpt lat="59.4611642" lon="31.1281310">
<ele>58.149998</ele>
<time>2026-08-31T20:16:29.000Z</time>
</trkpt>
<trkpt lat="59.4611950" lon="31.1282070">
<ele>57.800003</ele>
<time>2026-08-31T20:16:40.000Z</time>
</trkpt>
<trkpt lat="59.4612522" lon="31.1283227">
<ele>56.700001</ele>
<time>2026-08-31T20:16:56.000Z</time>
</trkpt>
<trkpt lat="59.4612845" lon="31.1284406">
<ele>55.930000</ele>
<time>2026-08-31T20:17:10.000Z</time>
</trkpt>
<trkpt lat="59.4613541" lon="31.1284707">
<ele>54.969997</ele>
<time>2026-08-31T20:17:33.000Z</time>
</trkpt>
<trkpt lat="59.4613788" lon="31.1284924">
<ele>54.809998</ele>
<time>2026-08-31T20:17:56.000Z</time>
</trkpt>
<trkpt lat="59.4614661" lon="31.1286735">
<ele>53.739998</ele>
<time>2026-08-31T20:18:32.000Z</time>
</trkpt>
<trkpt lat="59.4615218" lon="31.1291381">
<ele>52.700001</ele>
<time>2026-08-31T20:19:25.000Z</time>
</trkpt>
<trkpt lat="59.4616415" lon="31.1293624">
<ele>51.450001</ele>
<time>2026-08-31T20:19:56.000Z</time>
</trkpt>
<trkpt lat="59.4616252" lon="31.1295426">
<ele>50.709999</ele>
<time>2026-08-31T20:20:11.000Z</time>
</trkpt>
<trkpt lat="59.4616520" lon="31.1297788">
<ele>50.680000</ele>
<time>2026-08-31T20:20:37.000Z</time>
</trkpt>
<trkpt lat="59.4617225" lon="31.1300213">
<ele>50.490002</ele>
<time>2026-08-31T20:21:31.000Z</time>
</trkpt>
<trkpt lat="59.4617865" lon="31.1302469">
<ele>51.669998</ele>
<time>2026-08-31T20:21:52.000Z</time>
</trkpt>
<trkpt lat="59.4616762" lon="31.1302969">
<ele>52.560001</ele>
<time>2026-08-31T20:22:32.000Z</time>
</trkpt>
<trkpt lat="59.4615751" lon="31.1303927">
<ele>53.540001</ele>
<time>2026-08-31T20:22:58.000Z</time>
</trkpt>
<trkpt lat="59.4617271" lon="31.1305191">
<ele>55.410000</ele>
<time>2026-08-31T20:23:32.000Z</time>
</trkpt>
<trkpt lat="59.4618227" lon="31.1305217">
<ele>55.080002</ele>
<time>2026-08-31T20:23:46.000Z</time>
</trkpt>
<trkpt lat="59.4619471" lon="31.1305781">
<ele>54.349998</ele>
<time>2026-08-31T20:24:10.000Z</time>
</trkpt>
<trkpt lat="59.4619891" lon="31.1307919">
<ele>52.790001</ele>
<time>2026-08-31T20:24:41.000Z</time>
</trkpt>
<trkpt lat="59.4619885" lon="31.1310024">
<ele>52.010002</ele>
<time>2026-08-31T20:25:05.000Z</time>
</trkpt>
<trkpt lat="59.4619426" lon="31.1310645">
<ele>52.349998</ele>
<time>2026-08-31T20:25:26.000Z</time>
</trkpt>
<trkpt lat="59.4619307" lon="31.1311320">
<ele>53.139999</ele>
<time>2026-08-31T20:25:47.000Z</time>
</trkpt>
<trkpt lat="59.4619479" lon="31.1311084">
<ele>51.860001</ele>
<time>2026-08-31T20:26:12.000Z</time>
</trkpt>
<trkpt lat="59.4619474" lon="31.1310939">
<ele>51.689999</ele>
<time>2026-08-31T20:26:16.000Z</time>
</trkpt>
<trkpt lat="59.4620356" lon="31.1309847">
<ele>51.160000</ele>
<time>2026-08-31T20:26:37.000Z</time>
</trkpt>
<trkpt lat="59.4620838" lon="31.1310148">
<ele>50.790001</ele>
<time>2026-08-31T20:26:55.000Z</time>
</trkpt>
<trkpt lat="59.4621110" lon="31.1310823">
<ele>50.859997</ele>
<time>2026-08-31T20:27:16.000Z</time>
</trkpt>
<trkpt lat="59.4621366" lon="31.1313082">
<ele>49.810001</ele>
<time>2026-08-31T20:28:07.000Z</time>
</trkpt>
<trkpt lat="59.4620987" lon="31.1314815">
<ele>49.700001</ele>
<time>2026-08-31T20:28:26.000Z</time>
</trkpt>
<trkpt lat="59.4620585" lon="31.1316123">
<ele>49.399998</ele>
<time>2026-08-31T20:28:56.000Z</time>
</trkpt>
<trkpt lat="59.4621646" lon="31.1317059">
<ele>48.910000</ele>
<time>2026-08-31T20:29:09.000Z</time>
</trkpt>
<trkpt lat="59.4621709" lon="31.1318447">
<ele>48.020000</ele>
<time>2026-08-31T20:29:26.000Z</time>
</trkpt>
<trkpt lat="59.4621165" lon="31.1320409">
<ele>51.309998</ele>
<time>2026-08-31T20:29:55.000Z</time>
</trkpt>
<trkpt lat="59.4621487" lon="31.1320621">
<ele>50.970001</ele>
<time>2026-08-31T20:30:31.000Z</time>
</trkpt>
<trkpt lat="59.4622777" lon="31.1320946">
<ele>50.940002</ele>
<time>2026-08-31T20:30:53.000Z</time>
</trkpt>
<trkpt lat="59.4623713" lon="31.1321814">
<ele>50.469997</ele>
<time>2026-08-31T20:31:12.000Z</time>
</trkpt>
<trkpt lat="59.4624497" lon="31.1322385">
<ele>50.149998</ele>
<time>2026-08-31T20:31:36.000Z</time>
</trkpt>
<trkpt lat="59.4625238" lon="31.1323006">
<ele>49.250000</ele>
<time>2026-08-31T20:31:56.000Z</time>
</trkpt>
<trkpt lat="59.4625300" lon="31.1322309">
<ele>48.949997</ele>
<time>2026-08-31T20:32:26.000Z</time>
</trkpt>
<trkpt lat="59.4625467" lon="31.1321531">
<ele>46.939999</ele>
<time>2026-08-31T20:32:57.000Z</time>
</trkpt>
<trkpt lat="59.4625491" lon="31.1322173">
<ele>45.549999</ele>
<time>2026-08-31T20:33:29.000Z</time>
</trkpt>
<trkpt lat="59.4624941" lon="31.1322816">
<ele>44.260002</ele>
<time>2026-08-31T20:34:00.000Z</time>
</trkpt>
<trkpt lat="59.4625218" lon="31.1322959">
<ele>43.369999</ele>
<time>2026-08-31T20:34:29.000Z</time>
</trkpt>
<trkpt lat="59.4626108" lon="31.1324403">
<ele>43.110001</ele>
<time>2026-08-31T20:34:43.000Z</time>
</trkpt>
<trkpt lat="59.4626671" lon="31.1325524">
<ele>42.650002</ele>
<time>2026-08-31T20:34:54.000Z</time>
</trkpt>
<trkpt lat="59.4626687" lon="31.1327343">
<ele>42.000000</ele>
<time>2026-08-31T20:35:13.000Z</time>
</trkpt>
<trkpt lat="59.4626592" lon="31.1328848">
<ele>41.709999</ele>
<time>2026-08-31T20:35:31.000Z</time>
</trkpt>
<trkpt lat="59.4627045" lon="31.1329309">
<ele>41.450001</ele>
<time>2026-08-31T20:35:47.000Z</time>
</trkpt>
<trkpt lat="59.4626201" lon="31.1331695">
<ele>41.270000</ele>
<time>2026-08-31T20:36:19.000Z</time>
</trkpt>
<trkpt lat="59.4627310" lon="31.1333062">
<ele>41.169998</ele>
<time>2026-08-31T20:36:58.000Z</time>
</trkpt>
<trkpt lat="59.4628232" lon="31.1333971">
<ele>40.510002</ele>
<time>2026-08-31T20:37:19.000Z</time>
</trkpt>
<trkpt lat="59.4628691" lon="31.1335080">
<ele>40.670002</ele>
<time>2026-08-31T20:37:37.000Z</time>
</trkpt>
<trkpt lat="59.4629143" lon="31.1336223">
<ele>40.590000</ele>
<time>2026-08-31T20:37:52.000Z</time>
</trkpt>
<trkpt lat="59.4629276" lon="31.1337677">
<ele>40.489998</ele>
<time>2026-08-31T20:38:13.000Z</time>
</trkpt>
<trkpt lat="59.4628905" lon="31.1340444">
<ele>41.720001</ele>
<time>2026-08-31T20:38:34.000Z</time>
</trkpt>
<trkpt lat="59.4628768" lon="31.1340637">
<ele>42.360001</ele>
<time>2026-08-31T20:39:08.000Z</time>
</trkpt>
<trkpt lat="59.4629491" lon="31.1342143">
<ele>42.469997</ele>
<time>2026-08-31T20:39:24.000Z</time>
</trkpt>
<trkpt lat="59.4630450" lon="31.1344353">
<ele>41.849998</ele>
<time>2026-08-31T20:39:50.000Z</time>
</trkpt>
<trkpt lat="59.4630359" lon="31.1347372">
<ele>43.520000</ele>
<time>2026-08-31T20:40:14.000Z</time>
</trkpt>
<trkpt lat="59.4630731" lon="31.1347679">
<ele>44.430000</ele>
<time>2026-08-31T20:40:48.000Z</time>
</trkpt>
<trkpt lat="59.4630165" lon="31.1347954">
<ele>44.490002</ele>
<time>2026-08-31T20:41:03.000Z</time>
</trkpt>
<trkpt lat="59.4632018" lon="31.1348356">
<ele>44.079998</ele>
<time>2026-08-31T20:41:27.000Z</time>
</trkpt>
<trkpt lat="59.4632472" lon="31.1348595">
<ele>43.740002</ele>
<time>2026-08-31T20:41:35.000Z</time>
</trkpt>
<trkpt lat="59.4633406" lon="31.1348834">
<ele>43.200001</ele>
<time>2026-08-31T20:41:52.000Z</time>
</trkpt>
<trkpt lat="59.4634775" lon="31.1349722">
<ele>40.029999</ele>
<time>2026-08-31T20:42:15.000Z</time>
</trkpt>
<trkpt lat="59.4635614" lon="31.1349615">
<ele>39.639999</ele>
<time>2026-08-31T20:42:37.000Z</time>
</trkpt>
<trkpt lat="59.4636583" lon="31.1350654">
<ele>41.540001</ele>
<time>2026-08-31T20:43:19.000Z</time>
</trkpt>
<trkpt lat="59.4636454" lon="31.1352112">
<ele>41.730003</ele>
<time>2026-08-31T20:43:55.000Z</time>
</trkpt>
<trkpt lat="59.4636569" lon="31.1356073">
<ele>41.040001</ele>
<time>2026-08-31T20:44:23.000Z</time>
</trkpt>
<trkpt lat="59.4636405" lon="31.1357357">
<ele>41.910000</ele>
<time>2026-08-31T20:44:55.000Z</time>
</trkpt>
<trkpt lat="59.4636265" lon="31.1358928">
<ele>42.369999</ele>
<time>2026-08-31T20:45:20.000Z</time>
</trkpt>
<trkpt lat="59.4635908" lon="31.1360717">
<ele>42.560001</ele>
<time>2026-08-31T20:45:52.000Z</time>
</trkpt>
<trkpt lat="59.4636047" lon="31.1362506">
<ele>41.970001</ele>
<time>2026-08-31T20:46:14.000Z</time>
</trkpt>
<trkpt lat="59.4637411" lon="31.1363309">
<ele>40.639999</ele>
<time>2026-08-31T20:47:09.000Z</time>
</trkpt>
<trkpt lat="59.4638371" lon="31.1364886">
<ele>43.130001</ele>
<time>2026-08-31T20:47:34.000Z</time>
</trkpt>
<trkpt lat="59.4639994" lon="31.1368735">
<ele>43.070000</ele>
<time>2026-08-31T20:48:10.000Z</time>
</trkpt>
<trkpt lat="59.4640724" lon="31.1370817">
<ele>42.009998</ele>
<time>2026-08-31T20:48:31.000Z</time>
</trkpt>
<trkpt lat="59.4641298" lon="31.1372359">
<ele>42.070000</ele>
<time>2026-08-31T20:48:44.000Z</time>
</trkpt>
<trkpt lat="59.4641315" lon="31.1374134">
<ele>41.329998</ele>
<time>2026-08-31T20:49:04.000Z</time>
</trkpt>
<trkpt lat="59.4641477" lon="31.1374364">
<ele>40.980000</ele>
<time>2026-08-31T20:49:09.000Z</time>
</trkpt>
<trkpt lat="59.4642349" lon="31.1375067">
<ele>39.889999</ele>
<time>2026-08-31T20:49:31.000Z</time>
</trkpt>
<trkpt lat="59.4642827" lon="31.1374936">
<ele>39.400002</ele>
<time>2026-08-31T20:49:45.000Z</time>
</trkpt>
<trkpt lat="59.4643552" lon="31.1374693">
<ele>39.510002</ele>
<time>2026-08-31T20:50:05.000Z</time>
</trkpt>
<trkpt lat="59.4643168" lon="31.1375307">
<ele>38.520000</ele>
<time>2026-08-31T20:50:25.000Z</time>
</trkpt>
<trkpt lat="59.4643128" lon="31.1375624">
<ele>39.459999</ele>
<time>2026-08-31T20:50:59.000Z</time>
</trkpt>
<trkpt lat="59.4643936" lon="31.1376291">
<ele>46.359997</ele>
<time>2026-08-31T20:51:25.000Z</time>
</trkpt>
<trkpt lat="59.4643273" lon="31.1375949">
<ele>46.669998</ele>
<time>2026-08-31T20:51:58.000Z</time>
</trkpt>
<trkpt lat="59.4643822" lon="31.1375572">
<ele>47.619999</ele>
<time>2026-08-31T20:52:56.000Z</time>
</trkpt>
<trkpt lat="59.4643613" lon="31.1374438">
<ele>46.959999</ele>
<time>2026-08-31T20:53:55.000Z</time>
</trkpt>
<trkpt lat="59.4643772" lon="31.1375590">
<ele>46.690002</ele>
<time>2026-08-31T20:54:32.000Z</time>
</trkpt>
<trkpt lat="59.4643927" lon="31.1375650">
<ele>45.939999</ele>
<time>2026-08-31T20:55:53.000Z</time>
</trkpt>
<trkpt lat="59.4644239" lon="31.1375804">
<ele>40.840000</ele>
<time>2026-08-31T20:56:25.000Z</time>
</trkpt>
<trkpt lat="59.4643944" lon="31.1376122">
<ele>41.599998</ele>
<time>2026-08-31T20:57:01.000Z</time>
</trkpt>
<trkpt lat="59.4644309" lon="31.1377326">
<ele>42.469997</ele>
<time>2026-08-31T20:57:45.000Z</time>
</trkpt>
<trkpt lat="59.4643961" lon="31.1380066">
<ele>42.369999</ele>
<time>2026-08-31T20:58:36.000Z</time>
</trkpt>
<trkpt lat="59.4645466" lon="31.1378745">
<ele>43.730000</ele>
<time>2026-08-31T20:59:06.000Z</time>
</trkpt>
<trkpt lat="59.4646233" lon="31.1378635">
<ele>44.689999</ele>
<time>2026-08-31T20:59:33.000Z</time>
</trkpt>
<trkpt lat="59.4647050" lon="31.1379502">
<ele>44.839996</ele>
<time>2026-08-31T21:00:11.000Z</time>
</trkpt>
<trkpt lat="59.4647189" lon="31.1380136">
<ele>44.710003</ele>
<time>2026-08-31T21:00:32.000Z</time>
</trkpt>
<trkpt lat="59.4649262" lon="31.1382478">
<ele>44.020000</ele>
<time>2026-08-31T21:01:11.000Z</time>
</trkpt>
<trkpt lat="59.4651390" lon="31.1385006">
<ele>40.000000</ele>
<time>2026-08-31T21:01:37.000Z</time>
</trkpt>
<trkpt lat="59.4652152" lon="31.1386163">
<ele>40.109997</ele>
<time>2026-08-31T21:01:54.000Z</time>
</trkpt>
<trkpt lat="59.4653133" lon="31.1387120">
<ele>38.939999</ele>
<time>2026-08-31T21:02:17.000Z</time>
</trkpt>
<trkpt lat="59.4653674" lon="31.1388726">
<ele>39.160000</ele>
<time>2026-08-31T21:02:57.000Z</time>
</trkpt>
<trkpt lat="59.4654111" lon="31.1390367">
<ele>39.080002</ele>
<time>2026-08-31T21:03:22.000Z</time>
</trkpt>
<trkpt lat="59.4654356" lon="31.1390377">
<ele>38.560001</ele>
<time>2026-08-31T21:03:49.000Z</time>
</trkpt>
<trkpt lat="59.4655811" lon="31.1389174">
<ele>40.310001</ele>
<time>2026-08-31T21:04:53.000Z</time>
</trkpt>
<trkpt lat="59.4655884" lon="31.1389947">
<ele>40.799999</ele>
<time>2026-08-31T21:05:19.000Z</time>
</trkpt>
<trkpt lat="59.4657740" lon="31.1391949">
<ele>40.570000</ele>
<time>2026-08-31T21:06:25.000Z</time>
</trkpt>
<trkpt lat="59.4661103" lon="31.1393692">
<ele>40.430000</ele>
<time>2026-08-31T21:07:26.000Z</time>
</trkpt>
<trkpt lat="59.4662134" lon="31.1394032">
<ele>40.310001</ele>
<time>2026-08-31T21:07:40.000Z</time>
</trkpt>
<trkpt lat="59.4664124" lon="31.1395216">
<ele>39.150002</ele>
<time>2026-08-31T21:08:16.000Z</time>
</trkpt>
<trkpt lat="59.4663491" lon="31.1396117">
<ele>38.290001</ele>
<time>2026-08-31T21:08:45.000Z</time>
</trkpt>
<trkpt lat="59.4665395" lon="31.1396927">
<ele>43.079998</ele>
<time>2026-08-31T21:10:57.000Z</time>
</trkpt>
<trkpt lat="59.4667111" lon="31.1397269">
<ele>42.880001</ele>
<time>2026-08-31T21:11:28.000Z</time>
</trkpt>
<trkpt lat="59.4668200" lon="31.1398298">
<ele>41.859997</ele>
<time>2026-08-31T21:11:52.000Z</time>
</trkpt>
<trkpt lat="59.4669663" lon="31.1398307">
<ele>42.360001</ele>
<time>2026-08-31T21:12:26.000Z</time>
</trkpt>
<trkpt lat="59.4670689" lon="31.1398916">
<ele>42.880001</ele>
<time>2026-08-31T21:12:50.000Z</time>
</trkpt>
<trkpt lat="59.4671732" lon="31.1398286">
<ele>43.049999</ele>
<time>2026-08-31T21:13:31.000Z</time>
</trkpt>
<trkpt lat="59.4672303" lon="31.1399850">
<ele>42.779999</ele>
<time>2026-08-31T21:13:54.000Z</time>
</trkpt>
<trkpt lat="59.4672493" lon="31.1400406">
<ele>43.000000</ele>
<time>2026-08-31T21:14:00.000Z</time>
</trkpt>
<trkpt lat="59.4672995" lon="31.1401401">
<ele>44.449997</ele>
<time>2026-08-31T21:14:19.000Z</time>
</trkpt>
<trkpt lat="59.4672707" lon="31.1401219">
<ele>42.529999</ele>
<time>2026-08-31T21:14:45.000Z</time>
</trkpt>
<trkpt lat="59.4673279" lon="31.1400694">
<ele>42.000000</ele>
<time>2026-08-31T21:15:38.000Z</time>
</trkpt>
<trkpt lat="59.4673165" lon="31.1400971">
<ele>41.660000</ele>
<time>2026-08-31T21:16:10.000Z</time>
</trkpt>
<trkpt lat="59.4674310" lon="31.1401297">
<ele>41.200001</ele>
<time>2026-08-31T21:16:39.000Z</time>
</trkpt>
<trkpt lat="59.4675023" lon="31.1402364">
<ele>40.980000</ele>
<time>2026-08-31T21:16:54.000Z</time>
</trkpt>
<trkpt lat="59.4675587" lon="31.1402986">
<ele>41.290001</ele>
<time>2026-08-31T21:17:12.000Z</time>
</trkpt>
<trkpt lat="59.4676132" lon="31.1403075">
<ele>41.299999</ele>
<time>2026-08-31T21:17:29.000Z</time>
</trkpt>
<trkpt lat="59.4677199" lon="31.1404074">
<ele>41.459999</ele>
<time>2026-08-31T21:17:59.000Z</time>
</trkpt>
<trkpt lat="59.4678484" lon="31.1403897">
<ele>41.549999</ele>
<time>2026-08-31T21:18:18.000Z</time>
</trkpt>
<trkpt lat="59.4678836" lon="31.1403645">
<ele>41.270000</ele>
<time>2026-08-31T21:18:23.000Z</time>
</trkpt>
<trkpt lat="59.4680071" lon="31.1403685">
<ele>40.830002</ele>
<time>2026-08-31T21:18:45.000Z</time>
</trkpt>
<trkpt lat="59.4679480" lon="31.1404290">
<ele>41.220001</ele>
<time>2026-08-31T21:19:12.000Z</time>
</trkpt>
<trkpt lat="59.4680964" lon="31.1405151">
<ele>40.709999</ele>
<time>2026-08-31T21:19:41.000Z</time>
</trkpt>
<trkpt lat="59.4682082" lon="31.1405747">
<ele>40.470001</ele>
<time>2026-08-31T21:19:58.000Z</time>
</trkpt>
<trkpt lat="59.4682374" lon="31.1405962">
<ele>40.570000</ele>
<time>2026-08-31T21:20:03.000Z</time>
</trkpt>
<trkpt lat="59.4683413" lon="31.1408294">
<ele>40.639999</ele>
<time>2026-08-31T21:20:32.000Z</time>
</trkpt>
<trkpt lat="59.4684041" lon="31.1410287">
<ele>37.610001</ele>
<time>2026-08-31T21:20:50.000Z</time>
</trkpt>
<trkpt lat="59.4683892" lon="31.1411082">
<ele>37.299999</ele>
<time>2026-08-31T21:21:19.000Z</time>
</trkpt>
<trkpt lat="59.4683760" lon="31.1411034">
<ele>37.200001</ele>
<time>2026-08-31T21:21:50.000Z</time>
</trkpt>
<trkpt lat="59.4683294" lon="31.1411336">
<ele>36.889999</ele>
<time>2026-08-31T21:22:29.000Z</time>
</trkpt>
<trkpt lat="59.4684051" lon="31.1412304">
<ele>36.990002</ele>
<time>2026-08-31T21:23:00.000Z</time>
</trkpt>
<trkpt lat="59.4684868" lon="31.1413861">
<ele>37.239998</ele>
<time>2026-08-31T21:23:18.000Z</time>
</trkpt>
<trkpt lat="59.4684851" lon="31.1416161">
<ele>37.490002</ele>
<time>2026-08-31T21:23:39.000Z</time>
</trkpt>
<trkpt lat="59.4685334" lon="31.1417691">
<ele>38.520000</ele>
<time>2026-08-31T21:24:06.000Z</time>
</trkpt>
<trkpt lat="59.4685686" lon="31.1418200">
<ele>38.480000</ele>
<time>2026-08-31T21:24:15.000Z</time>
</trkpt>
<trkpt lat="59.4685729" lon="31.1418730">
<ele>38.510002</ele>
<time>2026-08-31T21:24:18.000Z</time>
</trkpt>
<trkpt lat="59.4685887" lon="31.1420060">
<ele>38.889999</ele>
<time>2026-08-31T21:24:34.000Z</time>
</trkpt>
<trkpt lat="59.4685909" lon="31.1421303">
<ele>41.980000</ele>
<time>2026-08-31T21:25:06.000Z</time>
</trkpt>
<trkpt lat="59.4685771" lon="31.1421548">
<ele>44.899998</ele>
<time>2026-08-31T21:25:37.000Z</time>
</trkpt>
<trkpt lat="59.4685835" lon="31.1422493">
<ele>45.330002</ele>
<time>2026-08-31T21:26:16.000Z</time>
</trkpt>
<trkpt lat="59.4687599" lon="31.1422309">
<ele>45.200001</ele>
<time>2026-08-31T21:27:11.000Z</time>
</trkpt>
<trkpt lat="59.4689169" lon="31.1422650">
<ele>44.459999</ele>
<time>2026-08-31T21:27:42.000Z</time>
</trkpt>
<trkpt lat="59.4690298" lon="31.1422672">
<ele>44.650002</ele>
<time>2026-08-31T21:27:58.000Z</time>
</trkpt>
<trkpt lat="59.4691122" lon="31.1422947">
<ele>44.730000</ele>
<time>2026-08-31T21:28:12.000Z</time>
</trkpt>
<trkpt lat="59.4692076" lon="31.1423152">
<ele>43.919998</ele>
<time>2026-08-31T21:28:30.000Z</time>
</trkpt>
<trkpt lat="59.4692833" lon="31.1423569">
<ele>43.590000</ele>
<time>2026-08-31T21:28:42.000Z</time>
</trkpt>
<trkpt lat="59.4693794" lon="31.1423434">
<ele>43.180000</ele>
<time>2026-08-31T21:28:55.000Z</time>
</trkpt>
<trkpt lat="59.4694671" lon="31.1423931">
<ele>42.209999</ele>
<time>2026-08-31T21:29:10.000Z</time>
</trkpt>
<trkpt lat="59.4696010" lon="31.1424121">
<ele>40.869999</ele>
<time>2026-08-31T21:29:30.000Z</time>
</trkpt>
<trkpt lat="59.4698678" lon="31.1423289">
<ele>40.689999</ele>
<time>2026-08-31T21:30:12.000Z</time>
</trkpt>
<trkpt lat="59.4699168" lon="31.1422992">
<ele>52.919998</ele>
<time>2026-08-31T21:30:43.000Z</time>
</trkpt>
<trkpt lat="59.4700620" lon="31.1424663">
<ele>51.529999</ele>
<time>2026-08-31T21:32:12.000Z</time>
</trkpt>
<trkpt lat="59.4701441" lon="31.1424468">
<ele>50.670002</ele>
<time>2026-08-31T21:32:28.000Z</time>
</trkpt>
<trkpt lat="59.4701646" lon="31.1425662">
<ele>47.240002</ele>
<time>2026-08-31T21:32:56.000Z</time>
</trkpt>
<trkpt lat="59.4701366" lon="31.1426127">
<ele>48.380001</ele>
<time>2026-08-31T21:33:20.000Z</time>
</trkpt>
<trkpt lat="59.4701310" lon="31.1426371">
<ele>48.180000</ele>
<time>2026-08-31T21:33:48.000Z</time>
</trkpt>
<trkpt lat="59.4701264" lon="31.1426591">
<ele>46.869999</ele>
<time>2026-08-31T21:34:17.000Z</time>
</trkpt>
<trkpt lat="59.4700676" lon="31.1427137">
<ele>50.900002</ele>
<time>2026-08-31T21:34:49.000Z</time>
</trkpt>
<trkpt lat="59.4700765" lon="31.1426980">
<ele>53.100002</ele>
<time>2026-08-31T21:35:19.000Z</time>
</trkpt>
<trkpt lat="59.4701151" lon="31.1426530">
<ele>53.509998</ele>
<time>2026-08-31T21:35:52.000Z</time>
</trkpt>
<trkpt lat="59.4701285" lon="31.1426310">
<ele>51.750000</ele>
<time>2026-08-31T21:36:21.000Z</time>
</trkpt>
<trkpt lat="59.4701536" lon="31.1426659">
<ele>50.590000</ele>
<time>2026-08-31T21:36:52.000Z</time>
</trkpt>
<trkpt lat="59.4701431" lon="31.1427415">
<ele>50.480000</ele>
<time>2026-08-31T21:37:19.000Z</time>
</trkpt>
<trkpt lat="59.4702183" lon="31.1426949">
<ele>49.789997</ele>
<time>2026-08-31T21:37:35.000Z</time>
</trkpt>
<trkpt lat="59.4703746" lon="31.1425594">
<ele>48.879997</ele>
<time>2026-08-31T21:37:56.000Z</time>
</trkpt>
<trkpt lat="59.4704167" lon="31.1425241">
<ele>48.689999</ele>
<time>2026-08-31T21:38:02.000Z</time>
</trkpt>
<trkpt lat="59.4705411" lon="31.1425354">
<ele>48.360001</ele>
<time>2026-08-31T21:38:20.000Z</time>
</trkpt>
<trkpt lat="59.4706490" lon="31.1425488">
<ele>47.770000</ele>
<time>2026-08-31T21:38:35.000Z</time>
</trkpt>
<trkpt lat="59.4707522" lon="31.1425278">
<ele>46.389999</ele>
<time>2026-08-31T21:38:49.000Z</time>
</trkpt>
<trkpt lat="59.4708057" lon="31.1424838">
<ele>46.700001</ele>
<time>2026-08-31T21:39:10.000Z</time>
</trkpt>
<trkpt lat="59.4708435" lon="31.1425089">
<ele>47.959999</ele>
<time>2026-08-31T21:39:35.000Z</time>
</trkpt>
<trkpt lat="59.4709638" lon="31.1425782">
<ele>47.440002</ele>
<time>2026-08-31T21:40:15.000Z</time>
</trkpt>
<trkpt lat="59.4712520" lon="31.1427346">
<ele>45.540001</ele>
<time>2026-08-31T21:41:04.000Z</time>
</trkpt>
<trkpt lat="59.4713645" lon="31.1427030">
<ele>44.989998</ele>
<time>2026-08-31T21:41:20.000Z</time>
</trkpt>
<trkpt lat="59.4714473" lon="31.1426989">
<ele>45.040001</ele>
<time>2026-08-31T21:41:37.000Z</time>
</trkpt>
<trkpt lat="59.4715338" lon="31.1426964">
<ele>44.270000</ele>
<time>2026-08-31T21:41:55.000Z</time>
</trkpt>
<trkpt lat="59.4716960" lon="31.1427234">
<ele>42.900002</ele>
<time>2026-08-31T21:42:25.000Z</time>
</trkpt>
<trkpt lat="59.4717161" lon="31.1427445">
<ele>43.239998</ele>
<time>2026-08-31T21:43:00.000Z</time>
</trkpt>
<trkpt lat="59.4717714" lon="31.1426200">
<ele>46.470001</ele>
<time>2026-08-31T21:44:07.000Z</time>
</trkpt>
<trkpt lat="59.4717703" lon="31.1425438">
<ele>47.930000</ele>
<time>2026-08-31T21:44:35.000Z</time>
</trkpt>
<trkpt lat="59.4717670" lon="31.1424898">
<ele>47.840000</ele>
<time>2026-08-31T21:44:41.000Z</time>
</trkpt>
<trkpt lat="59.4717563" lon="31.1423358">
<ele>47.320000</ele>
<time>2026-08-31T21:44:56.000Z</time>
</trkpt>
<trkpt lat="59.4717201" lon="31.1420441">
<ele>45.950001</ele>
<time>2026-08-31T21:45:21.000Z</time>
</trkpt>
<trkpt lat="59.4717303" lon="31.1418630">
<ele>45.360001</ele>
<time>2026-08-31T21:45:37.000Z</time>
</trkpt>
<trkpt lat="59.4716971" lon="31.1416476">
<ele>44.189999</ele>
<time>2026-08-31T21:45:58.000Z</time>
</trkpt>
<trkpt lat="59.4716778" lon="31.1413532">
<ele>41.970001</ele>
<time>2026-08-31T21:46:20.000Z</time>
</trkpt>
<trkpt lat="59.4716740" lon="31.1412661">
<ele>41.670002</ele>
<time>2026-08-31T21:46:28.000Z</time>
</trkpt>
<trkpt lat="59.4716852" lon="31.1408101">
<ele>40.470001</ele>
<time>2026-08-31T21:46:56.000Z</time>
</trkpt>
<trkpt lat="59.4715910" lon="31.1406427">
<ele>39.799999</ele>
<time>2026-08-31T21:47:16.000Z</time>
</trkpt>
<trkpt lat="59.4716655" lon="31.1403348">
<ele>38.259998</ele>
<time>2026-08-31T21:47:49.000Z</time>
</trkpt>
<trkpt lat="59.4716405" lon="31.1400490">
<ele>37.849998</ele>
<time>2026-08-31T21:48:15.000Z</time>
</trkpt>
<trkpt lat="59.4716719" lon="31.1397402">
<ele>38.029999</ele>
<time>2026-08-31T21:48:34.000Z</time>
</trkpt>
<trkpt lat="59.4716833" lon="31.1395513">
<ele>38.230000</ele>
<time>2026-08-31T21:48:49.000Z</time>
</trkpt>
<trkpt lat="59.4716555" lon="31.1394890">
<ele>37.549999</ele>
<time>2026-08-31T21:49:12.000Z</time>
</trkpt>
<trkpt lat="59.4716822" lon="31.1394250">
<ele>36.689999</ele>
<time>2026-08-31T21:49:42.000Z</time>
</trkpt>
<trkpt lat="59.4717017" lon="31.1394137">
<ele>35.580002</ele>
<time>2026-08-31T21:50:08.000Z</time>
</trkpt>
<trkpt lat="59.4716563" lon="31.1394817">
<ele>37.299999</ele>
<time>2026-08-31T21:50:42.000Z</time>
</trkpt>
<trkpt lat="59.4716589" lon="31.1393961">
<ele>37.049999</ele>
<time>2026-08-31T21:51:16.000Z</time>
</trkpt>
<trkpt lat="59.4715624" lon="31.1392670">
<ele>36.399998</ele>
<time>2026-08-31T21:51:51.000Z</time>
</trkpt>
<trkpt lat="59.4713319" lon="31.1388317">
<ele>36.320000</ele>
<time>2026-08-31T21:52:38.000Z</time>
</trkpt>
<trkpt lat="59.4712183" lon="31.1383817">
<ele>36.360001</ele>
<time>2026-08-31T21:53:18.000Z</time>
</trkpt>
<trkpt lat="59.4712088" lon="31.1378869">
<ele>36.639999</ele>
<time>2026-08-31T21:53:51.000Z</time>
</trkpt>
<trkpt lat="59.4711974" lon="31.1375193">
<ele>36.650002</ele>
<time>2026-08-31T21:54:27.000Z</time>
</trkpt>
<trkpt lat="59.4711165" lon="31.1374170">
<ele>38.320000</ele>
<time>2026-08-31T21:54:57.000Z</time>
</trkpt>
<trkpt lat="59.4710826" lon="31.1373629">
<ele>37.459999</ele>
<time>2026-08-31T21:55:08.000Z</time>
</trkpt>
<trkpt lat="59.4710013" lon="31.1372015">
<ele>37.189999</ele>
<time>2026-08-31T21:55:31.000Z</time>
</trkpt>
<trkpt lat="59.4709388" lon="31.1370024">
<ele>36.980000</ele>
<time>2026-08-31T21:55:53.000Z</time>
</trkpt>
<trkpt lat="59.4708888" lon="31.1369488">
<ele>38.720001</ele>
<time>2026-08-31T21:56:18.000Z</time>
</trkpt>
<trkpt lat="59.4708563" lon="31.1368285">
<ele>40.830002</ele>
<time>2026-08-31T21:57:05.000Z</time>
</trkpt>
<trkpt lat="59.4708849" lon="31.1369498">
<ele>42.539997</ele>
<time>2026-08-31T21:57:56.000Z</time>
</trkpt>
<trkpt lat="59.4708420" lon="31.1369797">
<ele>42.389999</ele>
<time>2026-08-31T21:58:02.000Z</time>
</trkpt>
<trkpt lat="59.4707015" lon="31.1371060">
<ele>41.060001</ele>
<time>2026-08-31T21:58:21.000Z</time>
</trkpt>
<trkpt lat="59.4706201" lon="31.1371758">
<ele>41.320000</ele>
<time>2026-08-31T21:58:39.000Z</time>
</trkpt>
<trkpt lat="59.4705511" lon="31.1372511">
<ele>41.139999</ele>
<time>2026-08-31T21:59:06.000Z</time>
</trkpt>
<trkpt lat="59.4705077" lon="31.1373583">
<ele>40.660004</ele>
<time>2026-08-31T21:59:29.000Z</time>
</trkpt>
<trkpt lat="59.4703796" lon="31.1374285">
<ele>40.520000</ele>
<time>2026-08-31T21:59:59.000Z</time>
</trkpt>
<trkpt lat="59.4702542" lon="31.1374679">
<ele>41.040001</ele>
<time>2026-08-31T22:00:17.000Z</time>
</trkpt>
<trkpt lat="59.4702181" lon="31.1375618">
<ele>40.299999</ele>
<time>2026-08-31T22:00:38.000Z</time>
</trkpt>
<trkpt lat="59.4699353" lon="31.1378069">
<ele>38.329998</ele>
<time>2026-08-31T22:01:24.000Z</time>
</trkpt>
<trkpt lat="59.4699127" lon="31.1378325">
<ele>38.259998</ele>
<time>2026-08-31T22:01:53.000Z</time>
</trkpt>
<trkpt lat="59.4699029" lon="31.1376527">
<ele>38.220001</ele>
<time>2026-08-31T22:02:11.000Z</time>
</trkpt>
<trkpt lat="59.4699332" lon="31.1374934">
<ele>38.329998</ele>
<time>2026-08-31T22:02:27.000Z</time>
</trkpt>
<trkpt lat="59.4699229" lon="31.1374632">
<ele>38.299999</ele>
<time>2026-08-31T22:02:32.000Z</time>
</trkpt>
<trkpt lat="59.4698857" lon="31.1372647">
<ele>37.549999</ele>
<time>2026-08-31T22:02:38.000Z</time>
</trkpt>
<trkpt lat="59.4699876" lon="31.1370197">
<ele>41.209999</ele>
<time>2026-08-31T22:02:59.000Z</time>
</trkpt>
<trkpt lat="59.4700173" lon="31.1370484">
<ele>43.699997</ele>
<time>2026-08-31T22:03:22.000Z</time>
</trkpt>
<trkpt lat="59.4700414" lon="31.1369622">
<ele>43.480003</ele>
<time>2026-08-31T22:03:50.000Z</time>
</trkpt>
<trkpt lat="59.4698131" lon="31.1368868">
<ele>42.309998</ele>
<time>2026-08-31T22:04:26.000Z</time>
</trkpt>
<trkpt lat="59.4698080" lon="31.1368496">
<ele>42.670002</ele>
<time>2026-08-31T22:05:00.000Z</time>
</trkpt>
<trkpt lat="59.4698393" lon="31.1369553">
<ele>41.800003</ele>
<time>2026-08-31T22:05:46.000Z</time>
</trkpt>
<trkpt lat="59.4698177" lon="31.1368880">
<ele>43.320004</ele>
<time>2026-08-31T22:06:14.000Z</time>
</trkpt>
<trkpt lat="59.4697380" lon="31.1365423">
<ele>44.119999</ele>
<time>2026-08-31T22:07:03.000Z</time>
</trkpt>
<trkpt lat="59.4697094" lon="31.1362186">
<ele>44.550003</ele>
<time>2026-08-31T22:07:30.000Z</time>
</trkpt>
<trkpt lat="59.4697605" lon="31.1358134">
<ele>45.150002</ele>
<time>2026-08-31T22:08:08.000Z</time>
</trkpt>
<trkpt lat="59.4697967" lon="31.1357148">
<ele>46.040001</ele>
<time>2026-08-31T22:08:26.000Z</time>
</trkpt>
<trkpt lat="59.4696696" lon="31.1357440">
<ele>44.620003</ele>
<time>2026-08-31T22:08:50.000Z</time>
</trkpt>
<trkpt lat="59.4695513" lon="31.1357341">
<ele>44.679996</ele>
<time>2026-08-31T22:09:13.000Z</time>
</trkpt>
<trkpt lat="59.4695214" lon="31.1356791">
<ele>44.490002</ele>
<time>2026-08-31T22:09:28.000Z</time>
</trkpt>
<trkpt lat="59.4694515" lon="31.1355836">
<ele>44.570000</ele>
<time>2026-08-31T22:10:10.000Z</time>
</trkpt>
<trkpt lat="59.4693393" lon="31.1355198">
<ele>43.170002</ele>
<time>2026-08-31T22:10:37.000Z</time>
</trkpt>
<trkpt lat="59.4692651" lon="31.1354710">
<ele>42.910000</ele>
<time>2026-08-31T22:10:52.000Z</time>
</trkpt>
<trkpt lat="59.4692347" lon="31.1352368">
<ele>42.130001</ele>
<time>2026-08-31T22:11:23.000Z</time>
</trkpt>
<trkpt lat="59.4691174" lon="31.1349615">
<ele>41.549999</ele>
<time>2026-08-31T22:11:34.000Z</time>
</trkpt>
<trkpt lat="59.4690882" lon="31.1348160">
<ele>40.770000</ele>
<time>2026-08-31T22:11:49.000Z</time>
</trkpt>
<trkpt lat="59.4691254" lon="31.1347218">
<ele>40.370003</ele>
<time>2026-08-31T22:12:08.000Z</time>
</trkpt>
<trkpt lat="59.4690459" lon="31.1344884">
<ele>39.630001</ele>
<time>2026-08-31T22:12:45.000Z</time>
</trkpt>
<trkpt lat="59.4690117" lon="31.1343630">
<ele>41.000000</ele>
<time>2026-08-31T22:13:12.000Z</time>
</trkpt>
<trkpt lat="59.4690971" lon="31.1343004">
<ele>48.949997</ele>
<time>2026-08-31T22:13:38.000Z</time>
</trkpt>
<trkpt lat="59.4689571" lon="31.1342653">
<ele>48.160000</ele>
<time>2026-08-31T22:15:15.000Z</time>
</trkpt>
<trkpt lat="59.4688866" lon="31.1341964">
<ele>47.269997</ele>
<time>2026-08-31T22:15:33.000Z</time>
</trkpt>
<trkpt lat="59.4687921" lon="31.1340467">
<ele>46.620003</ele>
<time>2026-08-31T22:15:57.000Z</time>
</trkpt>
<trkpt lat="59.4687809" lon="31.1339157">
<ele>46.000000</ele>
<time>2026-08-31T22:16:11.000Z</time>
</trkpt>
<trkpt lat="59.4687677" lon="31.1338458">
<ele>45.770000</ele>
<time>2026-08-31T22:16:16.000Z</time>
</trkpt>
<trkpt lat="59.4687762" lon="31.1336905">
<ele>45.170002</ele>
<time>2026-08-31T22:16:36.000Z</time>
</trkpt>
<trkpt lat="59.4687323" lon="31.1336243">
<ele>45.029999</ele>
<time>2026-08-31T22:17:02.000Z</time>
</trkpt>
<trkpt lat="59.4687287" lon="31.1336085">
<ele>44.710003</ele>
<time>2026-08-31T22:17:28.000Z</time>
</trkpt>
<trkpt lat="59.4686377" lon="31.1336659">
<ele>44.320004</ele>
<time>2026-08-31T22:17:49.000Z</time>
</trkpt>
<trkpt lat="59.4685237" lon="31.1336080">
<ele>43.260002</ele>
<time>2026-08-31T22:18:28.000Z</time>
</trkpt>
<trkpt lat="59.4682138" lon="31.1333195">
<ele>44.470001</ele>
<time>2026-08-31T22:19:04.000Z</time>
</trkpt>
<trkpt lat="59.4680917" lon="31.1332389">
<ele>45.259998</ele>
<time>2026-08-31T22:19:48.000Z</time>
</trkpt>
<trkpt lat="59.4680189" lon="31.1331744">
<ele>44.829998</ele>
<time>2026-08-31T22:20:25.000Z</time>
</trkpt>
<trkpt lat="59.4677287" lon="31.1328149">
<ele>48.029999</ele>
<time>2026-08-31T22:21:04.000Z</time>
</trkpt>
<trkpt lat="59.4678456" lon="31.1327866">
<ele>48.470001</ele>
<time>2026-08-31T22:21:54.000Z</time>
</trkpt>
<trkpt lat="59.4678467" lon="31.1327851">
<ele>48.600002</ele>
<time>2026-08-31T22:22:20.000Z</time>
</trkpt>
<trkpt lat="59.4678103" lon="31.1327999">
<ele>48.220001</ele>
<time>2026-08-31T22:22:53.000Z</time>
</trkpt>
<trkpt lat="59.4677938" lon="31.1326143">
<ele>47.709999</ele>
<time>2026-08-31T22:23:15.000Z</time>
</trkpt>
<trkpt lat="59.4677467" lon="31.1322369">
<ele>46.920002</ele>
<time>2026-08-31T22:23:52.000Z</time>
</trkpt>
<trkpt lat="59.4676832" lon="31.1319322">
<ele>46.259998</ele>
<time>2026-08-31T22:24:14.000Z</time>
</trkpt>
<trkpt lat="59.4676899" lon="31.1316773">
<ele>46.279999</ele>
<time>2026-08-31T22:24:38.000Z</time>
</trkpt>
<trkpt lat="59.4676996" lon="31.1315100">
<ele>43.930004</ele>
<time>2026-08-31T22:25:01.000Z</time>
</trkpt>
<trkpt lat="59.4677105" lon="31.1314474">
<ele>45.279999</ele>
<time>2026-08-31T22:25:08.000Z</time>
</trkpt>
<trkpt lat="59.4677151" lon="31.1312808">
<ele>50.910000</ele>
<time>2026-08-31T22:25:55.000Z</time>
</trkpt>
<trkpt lat="59.4676764" lon="31.1311717">
<ele>51.740002</ele>
<time>2026-08-31T22:26:22.000Z</time>
</trkpt>
<trkpt lat="59.4676215" lon="31.1310484">
<ele>51.720001</ele>
<time>2026-08-31T22:26:39.000Z</time>
</trkpt>
<trkpt lat="59.4676027" lon="31.1308139">
<ele>53.209999</ele>
<time>2026-08-31T22:27:34.000Z</time>
</trkpt>
<trkpt lat="59.4675378" lon="31.1306648">
<ele>54.809998</ele>
<time>2026-08-31T22:27:57.000Z</time>
</trkpt>
<trkpt lat="59.4675083" lon="31.1307255">
<ele>54.230003</ele>
<time>2026-08-31T22:28:31.000Z</time>
</trkpt>
<trkpt lat="59.4672257" lon="31.1305263">
<ele>51.780003</ele>
<time>2026-08-31T22:29:22.000Z</time>
</trkpt>
<trkpt lat="59.4670645" lon="31.1304042">
<ele>51.980000</ele>
<time>2026-08-31T22:29:40.000Z</time>
</trkpt>
<trkpt lat="59.4670854" lon="31.1303084">
<ele>51.480003</ele>
<time>2026-08-31T22:30:08.000Z</time>
</trkpt>
<trkpt lat="59.4670536" lon="31.1302614">
<ele>51.469997</ele>
<time>2026-08-31T22:30:39.000Z</time>
</trkpt>
<trkpt lat="59.4668961" lon="31.1302305">
<ele>51.880001</ele>
<time>2026-08-31T22:31:38.000Z</time>
</trkpt>
<trkpt lat="59.4668419" lon="31.1303597">
<ele>52.200001</ele>
<time>2026-08-31T22:32:12.000Z</time>
</trkpt>
<trkpt lat="59.4667354" lon="31.1304391">
<ele>51.160000</ele>
<time>2026-08-31T22:32:39.000Z</time>
</trkpt>
<trkpt lat="59.4666382" lon="31.1304331">
<ele>50.820000</ele>
<time>2026-08-31T22:33:01.000Z</time>
</trkpt>
<trkpt lat="59.4665808" lon="31.1301944">
<ele>51.319996</ele>
<time>2026-08-31T22:33:36.000Z</time>
</trkpt>
<trkpt lat="59.4663709" lon="31.1298425">
<ele>56.610001</ele>
<time>2026-08-31T22:34:19.000Z</time>
</trkpt>
<trkpt lat="59.4663398" lon="31.1296128">
<ele>55.840000</ele>
<time>2026-08-31T22:35:17.000Z</time>
</trkpt>
<trkpt lat="59.4662139" lon="31.1295716">
<ele>55.639999</ele>
<time>2026-08-31T22:35:39.000Z</time>
</trkpt>
<trkpt lat="59.4659868" lon="31.1296539">
<ele>54.739998</ele>
<time>2026-08-31T22:36:33.000Z</time>
</trkpt>
<trkpt lat="59.4659327" lon="31.1295240">
<ele>54.370003</ele>
<time>2026-08-31T22:36:52.000Z</time>
</trkpt>
<trkpt lat="59.4657648" lon="31.1293366">
<ele>54.410000</ele>
<time>2026-08-31T22:37:36.000Z</time>
</trkpt>
<trkpt lat="59.4657571" lon="31.1294271">
<ele>55.500000</ele>
<time>2026-08-31T22:38:58.000Z</time>
</trkpt>
<trkpt lat="59.4657735" lon="31.1293569">
<ele>54.010002</ele>
<time>2026-08-31T22:39:29.000Z</time>
</trkpt>
<trkpt lat="59.4657042" lon="31.1292306">
<ele>53.730000</ele>
<time>2026-08-31T22:39:45.000Z</time>
</trkpt>
<trkpt lat="59.4656477" lon="31.1290392">
<ele>53.170002</ele>
<time>2026-08-31T22:40:07.000Z</time>
</trkpt>
<trkpt lat="59.4656478" lon="31.1289775">
<ele>52.970001</ele>
<time>2026-08-31T22:40:12.000Z</time>
</trkpt>
<trkpt lat="59.4656194" lon="31.1288324">
<ele>51.829998</ele>
<time>2026-08-31T22:40:35.000Z</time>
</trkpt>
<trkpt lat="59.4656032" lon="31.1286963">
<ele>52.330002</ele>
<time>2026-08-31T22:41:02.000Z</time>
</trkpt>
<trkpt lat="59.4656116" lon="31.1286105">
<ele>52.340000</ele>
<time>2026-08-31T22:41:09.000Z</time>
</trkpt>
<trkpt lat="59.4655813" lon="31.1284494">
<ele>52.119999</ele>
<time>2026-08-31T22:41:23.000Z</time>
</trkpt>
<trkpt lat="59.4655511" lon="31.1282895">
<ele>51.290001</ele>
<time>2026-08-31T22:41:40.000Z</time>
</trkpt>
<trkpt lat="59.4655684" lon="31.1281397">
<ele>50.929996</ele>
<time>2026-08-31T22:41:56.000Z</time>
</trkpt>
<trkpt lat="59.4656309" lon="31.1279972">
<ele>50.599998</ele>
<time>2026-08-31T22:42:17.000Z</time>
</trkpt>
<trkpt lat="59.4656312" lon="31.1278214">
<ele>49.709999</ele>
<time>2026-08-31T22:42:34.000Z</time>
</trkpt>
<trkpt lat="59.4656447" lon="31.1276894">
<ele>49.270000</ele>
<time>2026-08-31T22:42:44.000Z</time>
</trkpt>
<trkpt lat="59.4656225" lon="31.1275942">
<ele>53.820000</ele>
<time>2026-08-31T22:43:08.000Z</time>
</trkpt>
<trkpt lat="59.4656094" lon="31.1275886">
<ele>54.549999</ele>
<time>2026-08-31T22:43:36.000Z</time>
</trkpt>
<trkpt lat="59.4655887" lon="31.1275946">
<ele>56.250000</ele>
<time>2026-08-31T22:44:03.000Z</time>
</trkpt>
<trkpt lat="59.4655568" lon="31.1276549">
<ele>56.000000</ele>
<time>2026-08-31T22:44:36.000Z</time>
</trkpt>
<trkpt lat="59.4655012" lon="31.1275859">
<ele>56.119999</ele>
<time>2026-08-31T22:45:05.000Z</time>
</trkpt>
<trkpt lat="59.4655714" lon="31.1274172">
<ele>56.660004</ele>
<time>2026-08-31T22:45:57.000Z</time>
</trkpt>
<trkpt lat="59.4656288" lon="31.1271740">
<ele>56.090000</ele>
<time>2026-08-31T22:46:21.000Z</time>
</trkpt>
<trkpt lat="59.4656419" lon="31.1269205">
<ele>55.279999</ele>
<time>2026-08-31T22:46:45.000Z</time>
</trkpt>
<trkpt lat="59.4656708" lon="31.1267664">
<ele>54.259998</ele>
<time>2026-08-31T22:46:58.000Z</time>
</trkpt>
<trkpt lat="59.4656814" lon="31.1264267">
<ele>51.790001</ele>
<time>2026-08-31T22:47:27.000Z</time>
</trkpt>
<trkpt lat="59.4656674" lon="31.1261209">
<ele>50.980000</ele>
<time>2026-08-31T22:47:43.000Z</time>
</trkpt>
<trkpt lat="59.4656291" lon="31.1259110">
<ele>51.660000</ele>
<time>2026-08-31T22:48:03.000Z</time>
</trkpt>
<trkpt lat="59.4656173" lon="31.1257716">
<ele>50.770000</ele>
<time>2026-08-31T22:48:18.000Z</time>
</trkpt>
<trkpt lat="59.4655822" lon="31.1256542">
<ele>50.280003</ele>
<time>2026-08-31T22:48:29.000Z</time>
</trkpt>
<trkpt lat="59.4655514" lon="31.1255648">
<ele>49.980000</ele>
<time>2026-08-31T22:48:52.000Z</time>
</trkpt>
<trkpt lat="59.4655379" lon="31.1255622">
<ele>51.410000</ele>
<time>2026-08-31T22:49:22.000Z</time>
</trkpt>
<trkpt lat="59.4656008" lon="31.1256025">
<ele>54.000000</ele>
<time>2026-08-31T22:49:53.000Z</time>
</trkpt>
<trkpt lat="59.4655530" lon="31.1256439">
<ele>54.240002</ele>
<time>2026-08-31T22:50:26.000Z</time>
</trkpt>
<trkpt lat="59.4654723" lon="31.1257011">
<ele>53.230003</ele>
<time>2026-08-31T22:50:52.000Z</time>
</trkpt>
<trkpt lat="59.4654307" lon="31.1257045">
<ele>52.730000</ele>
<time>2026-08-31T22:51:07.000Z</time>
</trkpt>
<trkpt lat="59.4653670" lon="31.1257829">
<ele>52.279999</ele>
<time>2026-08-31T22:51:30.000Z</time>
</trkpt>
<trkpt lat="59.4652837" lon="31.1257975">
<ele>51.820000</ele>
<time>2026-08-31T22:51:47.000Z</time>
</trkpt>
<trkpt lat="59.4651679" lon="31.1257607">
<ele>51.369999</ele>
<time>2026-08-31T22:52:08.000Z</time>
</trkpt>
<trkpt lat="59.4651268" lon="31.1257502">
<ele>51.319996</ele>
<time>2026-08-31T22:52:28.000Z</time>
</trkpt>
<trkpt lat="59.4650401" lon="31.1257529">
<ele>51.279999</ele>
<time>2026-08-31T22:52:46.000Z</time>
</trkpt>
<trkpt lat="59.4649730" lon="31.1256839">
<ele>50.870003</ele>
<time>2026-08-31T22:53:03.000Z</time>
</trkpt>
<trkpt lat="59.4648737" lon="31.1257082">
<ele>50.480000</ele>
<time>2026-08-31T22:54:02.000Z</time>
</trkpt>
<trkpt lat="59.4648699" lon="31.1258441">
<ele>50.680000</ele>
<time>2026-08-31T22:54:23.000Z</time>
</trkpt>
<trkpt lat="59.4648156" lon="31.1257546">
<ele>50.629997</ele>
<time>2026-08-31T22:54:44.000Z</time>
</trkpt>
<trkpt lat="59.4647906" lon="31.1256723">
<ele>50.110001</ele>
<time>2026-08-31T22:55:04.000Z</time>
</trkpt>
<trkpt lat="59.4647496" lon="31.1256356">
<ele>49.939999</ele>
<time>2026-08-31T22:55:45.000Z</time>
</trkpt>
<trkpt lat="59.4646224" lon="31.1256304">
<ele>49.290001</ele>
<time>2026-08-31T22:56:11.000Z</time>
</trkpt>
<trkpt lat="59.4645105" lon="31.1256456">
<ele>49.160000</ele>
<time>2026-08-31T22:56:30.000Z</time>
</trkpt>
<trkpt lat="59.4644026" lon="31.1256408">
<ele>48.680000</ele>
<time>2026-08-31T22:56:49.000Z</time>
</trkpt>
<trkpt lat="59.4642206" lon="31.1256266">
<ele>50.099998</ele>
<time>2026-08-31T22:57:16.000Z</time>
</trkpt>
<trkpt lat="59.4641510" lon="31.1255415">
<ele>50.459999</ele>
<time>2026-08-31T22:57:34.000Z</time>
</trkpt>
<trkpt lat="59.4641358" lon="31.1255212">
<ele>51.040001</ele>
<time>2026-08-31T22:58:02.000Z</time>
</trkpt>
<trkpt lat="59.4641253" lon="31.1255601">
<ele>51.180000</ele>
<time>2026-08-31T22:58:31.000Z</time>
</trkpt>
<trkpt lat="59.4641020" lon="31.1255027">
<ele>50.950001</ele>
<time>2026-08-31T22:58:52.000Z</time>
</trkpt>
<trkpt lat="59.4640859" lon="31.1255353">
<ele>53.289997</ele>
<time>2026-08-31T22:59:23.000Z</time>
</trkpt>
<trkpt lat="59.4640761" lon="31.1255524">
<ele>55.189999</ele>
<time>2026-08-31T22:59:48.000Z</time>
</trkpt>
<trkpt lat="59.4640106" lon="31.1255772">
<ele>55.000000</ele>
<time>2026-08-31T23:00:14.000Z</time>
</trkpt>
<trkpt lat="59.4639286" lon="31.1255698">
<ele>53.780003</ele>
<time>2026-08-31T23:00:36.000Z</time>
</trkpt>
<trkpt lat="59.4638768" lon="31.1255552">
<ele>53.630001</ele>
<time>2026-08-31T23:00:51.000Z</time>
</trkpt>
<trkpt lat="59.4638190" lon="31.1255626">
<ele>53.360001</ele>
<time>2026-08-31T23:01:09.000Z</time>
</trkpt>
<trkpt lat="59.4637352" lon="31.1255296">
<ele>53.279999</ele>
<time>2026-08-31T23:01:24.000Z</time>
</trkpt>
<trkpt lat="59.4636089" lon="31.1254696">
<ele>52.889999</ele>
<time>2026-08-31T23:01:52.000Z</time>
</trkpt>
<trkpt lat="59.4635866" lon="31.1254690">
<ele>52.710003</ele>
<time>2026-08-31T23:01:58.000Z</time>
</trkpt>
<trkpt lat="59.4634292" lon="31.1253595">
<ele>51.929996</ele>
<time>2026-08-31T23:02:35.000Z</time>
</trkpt>
<trkpt lat="59.4633085" lon="31.1253918">
<ele>51.469997</ele>
<time>2026-08-31T23:02:55.000Z</time>
</trkpt>
<trkpt lat="59.4631501" lon="31.1254089">
<ele>50.249996</ele>
<time>2026-08-31T23:03:38.000Z</time>
</trkpt>
<trkpt lat="59.4630765" lon="31.1255114">
<ele>50.249996</ele>
<time>2026-08-31T23:04:13.000Z</time>
</trkpt>
<trkpt lat="59.4629731" lon="31.1254524">
<ele>49.079998</ele>
<time>2026-08-31T23:04:36.000Z</time>
</trkpt>
<trkpt lat="59.4629631" lon="31.1253659">
<ele>47.119999</ele>
<time>2026-08-31T23:06:27.000Z</time>
</trkpt>
<trkpt lat="59.4629624" lon="31.1252139">
<ele>47.590004</ele>
<time>2026-08-31T23:06:53.000Z</time>
</trkpt>
<trkpt lat="59.4629060" lon="31.1250982">
<ele>50.510002</ele>
<time>2026-08-31T23:07:20.000Z</time>
</trkpt>
<trkpt lat="59.4629482" lon="31.1248973">
<ele>50.709999</ele>
<time>2026-08-31T23:07:43.000Z</time>
</trkpt>
<trkpt lat="59.4629657" lon="31.1246439">
<ele>50.859997</ele>
<time>2026-08-31T23:08:04.000Z</time>
</trkpt>
<trkpt lat="59.4629572" lon="31.1245998">
<ele>50.849998</ele>
<time>2026-08-31T23:08:07.000Z</time>
</trkpt>
<trkpt lat="59.4630259" lon="31.1243953">
<ele>50.889999</ele>
<time>2026-08-31T23:08:28.000Z</time>
</trkpt>
<trkpt lat="59.4630992" lon="31.1241097">
<ele>51.130001</ele>
<time>2026-08-31T23:08:58.000Z</time>
</trkpt>
<trkpt lat="59.4630667" lon="31.1239346">
<ele>51.270000</ele>
<time>2026-08-31T23:09:25.000Z</time>
</trkpt>
<trkpt lat="59.4630053" lon="31.1237419">
<ele>50.960003</ele>
<time>2026-08-31T23:09:43.000Z</time>
</trkpt>
<trkpt lat="59.4629750" lon="31.1234943">
<ele>50.439999</ele>
<time>2026-08-31T23:10:08.000Z</time>
</trkpt>
<trkpt lat="59.4629553" lon="31.1233532">
<ele>50.040001</ele>
<time>2026-08-31T23:10:19.000Z</time>
</trkpt>
<trkpt lat="59.4628629" lon="31.1232136">
<ele>51.509998</ele>
<time>2026-08-31T23:10:39.000Z</time>
</trkpt>
<trkpt lat="59.4628859" lon="31.1231263">
<ele>55.690002</ele>
<time>2026-08-31T23:11:04.000Z</time>
</trkpt>
<trkpt lat="59.4629384" lon="31.1230426">
<ele>56.849998</ele>
<time>2026-08-31T23:11:56.000Z</time>
</trkpt>
<trkpt lat="59.4628273" lon="31.1228008">
<ele>55.920002</ele>
<time>2026-08-31T23:13:12.000Z</time>
</trkpt>
<trkpt lat="59.4628663" lon="31.1225614">
<ele>54.460003</ele>
<time>2026-08-31T23:13:37.000Z</time>
</trkpt>
<trkpt lat="59.4628003" lon="31.1221401">
<ele>52.710003</ele>
<time>2026-08-31T23:14:07.000Z</time>
</trkpt>
<trkpt lat="59.4627391" lon="31.1220449">
<ele>52.420002</ele>
<time>2026-08-31T23:14:23.000Z</time>
</trkpt>
<trkpt lat="59.4626291" lon="31.1219763">
<ele>52.579998</ele>
<time>2026-08-31T23:14:45.000Z</time>
</trkpt>
<trkpt lat="59.4625874" lon="31.1219462">
<ele>53.360001</ele>
<time>2026-08-31T23:15:02.000Z</time>
</trkpt>
<trkpt lat="59.4625538" lon="31.1218073">
<ele>53.129997</ele>
<time>2026-08-31T23:15:21.000Z</time>
</trkpt>
<trkpt lat="59.4624778" lon="31.1216060">
<ele>52.119999</ele>
<time>2026-08-31T23:15:35.000Z</time>
</trkpt>
<trkpt lat="59.4624262" lon="31.1215271">
<ele>56.450001</ele>
<time>2026-08-31T23:16:00.000Z</time>
</trkpt>
<trkpt lat="59.4624247" lon="31.1214295">
<ele>58.019997</ele>
<time>2026-08-31T23:16:59.000Z</time>
</trkpt>
<trkpt lat="59.4624392" lon="31.1213614">
<ele>61.040001</ele>
<time>2026-08-31T23:18:04.000Z</time>
</trkpt>
<trkpt lat="59.4624231" lon="31.1212313">
<ele>60.189999</ele>
<time>2026-08-31T23:18:53.000Z</time>
</trkpt>
<trkpt lat="59.4624344" lon="31.1210776">
<ele>59.049999</ele>
<time>2026-08-31T23:19:17.000Z</time>
</trkpt>
<trkpt lat="59.4624242" lon="31.1209356">
<ele>58.610001</ele>
<time>2026-08-31T23:19:31.000Z</time>
</trkpt>
<trkpt lat="59.4623485" lon="31.1207823">
<ele>57.060001</ele>
<time>2026-08-31T23:20:02.000Z</time>
</trkpt>
<trkpt lat="59.4623394" lon="31.1207624">
<ele>57.009998</ele>
<time>2026-08-31T23:20:04.000Z</time>
</trkpt>
<trkpt lat="59.4622652" lon="31.1206199">
<ele>56.080002</ele>
<time>2026-08-31T23:20:55.000Z</time>
</trkpt>
<trkpt lat="59.4624761" lon="31.1203787">
<ele>53.690002</ele>
<time>2026-08-31T23:21:38.000Z</time>
</trkpt>
<trkpt lat="59.4625086" lon="31.1200612">
<ele>53.059998</ele>
<time>2026-08-31T23:22:33.000Z</time>
</trkpt>
<trkpt lat="59.4624364" lon="31.1198643">
<ele>53.930000</ele>
<time>2026-08-31T23:22:58.000Z</time>
</trkpt>
<trkpt lat="59.4625464" lon="31.1197634">
<ele>54.129997</ele>
<time>2026-08-31T23:24:36.000Z</time>
</trkpt>
<trkpt lat="59.4624694" lon="31.1196209">
<ele>54.400002</ele>
<time>2026-08-31T23:25:43.000Z</time>
</trkpt>
<trkpt lat="59.4624973" lon="31.1173285">
<ele>49.740002</ele>
<time>2026-08-31T23:28:58.000Z</time>
</trkpt>
<trkpt lat="59.4625026" lon="31.1171603">
<ele>52.839996</ele>
<time>2026-08-31T23:29:19.000Z</time>
</trkpt>
<trkpt lat="59.4624635" lon="31.1170778">
<ele>54.540001</ele>
<time>2026-08-31T23:29:45.000Z</time>
</trkpt>
<trkpt lat="59.4624478" lon="31.1170912">
<ele>57.130001</ele>
<time>2026-08-31T23:30:16.000Z</time>
</trkpt>
<trkpt lat="59.4624465" lon="31.1165437">
<ele>57.109997</ele>
<time>2026-08-31T23:31:42.000Z</time>
</trkpt>
<trkpt lat="59.4624848" lon="31.1160594">
<ele>54.959999</ele>
<time>2026-08-31T23:32:22.000Z</time>
</trkpt>
<trkpt lat="59.4624951" lon="31.1157487">
<ele>54.620003</ele>
<time>2026-08-31T23:32:49.000Z</time>
</trkpt>
<trkpt lat="59.4624988" lon="31.1151581">
<ele>52.689999</ele>
<time>2026-08-31T23:33:49.000Z</time>
</trkpt>
<trkpt lat="59.4624278" lon="31.1148436">
<ele>52.139999</ele>
<time>2026-08-31T23:34:06.000Z</time>
</trkpt>
<trkpt lat="59.4624335" lon="31.1147002">
<ele>51.769997</ele>
<time>2026-08-31T23:34:29.000Z</time>
</trkpt>
<trkpt lat="59.4622919" lon="31.1143749">
<ele>51.740002</ele>
<time>2026-08-31T23:37:01.000Z</time>
</trkpt>
<trkpt lat="59.4622510" lon="31.1137315">
<ele>51.999996</ele>
<time>2026-08-31T23:38:24.000Z</time>
</trkpt>
<trkpt lat="59.4621452" lon="31.1134236">
<ele>51.560001</ele>
<time>2026-08-31T23:39:35.000Z</time>
</trkpt>
<trkpt lat="59.4620607" lon="31.1134722">
<ele>50.640003</ele>
<time>2026-08-31T23:40:23.000Z</time>
</trkpt>
<trkpt lat="59.4621386" lon="31.1130068">
<ele>50.410004</ele>
<time>2026-08-31T23:41:15.000Z</time>
</trkpt>
<trkpt lat="59.4620305" lon="31.1130412">
<ele>50.380001</ele>
<time>2026-08-31T23:41:50.000Z</time>
</trkpt>
<trkpt lat="59.4619144" lon="31.1130378">
<ele>53.850002</ele>
<time>2026-08-31T23:43:01.000Z</time>
</trkpt>
<trkpt lat="59.4616628" lon="31.1127832">
<ele>52.349998</ele>
<time>2026-08-31T23:43:46.000Z</time>
</trkpt>
<trkpt lat="59.4613778" lon="31.1126224">
<ele>50.919998</ele>
<time>2026-08-31T23:44:28.000Z</time>
</trkpt>
<trkpt lat="59.4613517" lon="31.1124949">
<ele>50.320000</ele>
<time>2026-08-31T23:44:47.000Z</time>
</trkpt>
<trkpt lat="59.4613659" lon="31.1125411">
<ele>50.410004</ele>
<time>2026-08-31T23:45:16.000Z</time>
</trkpt>
<trkpt lat="59.4613833" lon="31.1125167">
<ele>50.820000</ele>
<time>2026-08-31T23:45:50.000Z</time>
</trkpt>
<trkpt lat="59.4614595" lon="31.1125374">
<ele>49.889999</ele>
<time>2026-08-31T23:46:45.000Z</time>
</trkpt>
<trkpt lat="59.4610889" lon="31.1122017">
<ele>49.719997</ele>
<time>2026-08-31T23:47:39.000Z</time>
</trkpt>
<trkpt lat="59.4609349" lon="31.1119292">
<ele>49.239998</ele>
<time>2026-08-31T23:48:25.000Z</time>
</trkpt>
<trkpt lat="59.4606061" lon="31.1117399">
<ele>49.789997</ele>
<time>2026-08-31T23:49:24.000Z</time>
</trkpt>
<trkpt lat="59.4605669" lon="31.1116241">
<ele>51.660000</ele>
<time>2026-08-31T23:49:47.000Z</time>
</trkpt>
<trkpt lat="59.4605591" lon="31.1115982">
<ele>51.539997</ele>
<time>2026-08-31T23:49:55.000Z</time>
</trkpt>
<trkpt lat="59.4604193" lon="31.1110844">
<ele>50.079998</ele>
<time>2026-08-31T23:51:13.000Z</time>
</trkpt>
<trkpt lat="59.4603422" lon="31.1109876">
<ele>48.370003</ele>
<time>2026-08-31T23:51:46.000Z</time>
</trkpt>
<trkpt lat="59.4603150" lon="31.1107772">
<ele>49.810001</ele>
<time>2026-08-31T23:52:31.000Z</time>
</trkpt>
<trkpt lat="59.4603133" lon="31.1109785">
<ele>48.029999</ele>
<time>2026-08-31T23:52:58.000Z</time>
</trkpt>
<trkpt lat="59.4603314" lon="31.1109691">
<ele>48.399998</ele>
<time>2026-08-31T23:53:29.000Z</time>
</trkpt>
<trkpt lat="59.4599856" lon="31.1107193">
<ele>47.820004</ele>
<time>2026-08-31T23:55:23.000Z</time>
</trkpt>
<trkpt lat="59.4598163" lon="31.1104638">
<ele>47.090000</ele>
<time>2026-08-31T23:56:02.000Z</time>
</trkpt>
<trkpt lat="59.4596747" lon="31.1102395">
<ele>47.119999</ele>
<time>2026-08-31T23:56:49.000Z</time>
</trkpt>
<trkpt lat="59.4596385" lon="31.1100911">
<ele>48.020000</ele>
<time>2026-08-31T23:57:11.000Z</time>
</trkpt>
<trkpt lat="59.4590602" lon="31.1092289">
<ele>45.760002</ele>
<time>2026-08-31T23:59:34.000Z</time>
</trkpt>
<trkpt lat="59.4590062" lon="31.1091745">
<ele>46.080002</ele>
<time>2026-08-31T23:59:44.000Z</time>
</trkpt>
<trkpt lat="59.4588782" lon="31.1092373">
<ele>45.809998</ele>
<time>2026-09-01T00:00:43.000Z</time>
</trkpt>
<trkpt lat="59.4588825" lon="31.1093351">
<ele>45.279999</ele>
<time>2026-09-01T00:01:05.000Z</time>
</trkpt>
<trkpt lat="59.4588195" lon="31.1094250">
<ele>45.669998</ele>
<time>2026-09-01T00:01:30.000Z</time>
</trkpt>
<trkpt lat="59.4586849" lon="31.1094968">
<ele>44.980000</ele>
<time>2026-09-01T00:01:52.000Z</time>
</trkpt>
<trkpt lat="59.4585857" lon="31.1094812">
<ele>44.910000</ele>
<time>2026-09-01T00:02:12.000Z</time>
</trkpt>
<trkpt lat="59.4585503" lon="31.1092153">
<ele>44.020000</ele>
<time>2026-09-01T00:02:28.000Z</time>
</trkpt>
<trkpt lat="59.4585395" lon="31.1090228">
<ele>43.820000</ele>
<time>2026-09-01T00:02:38.000Z</time>
</trkpt>
<trkpt lat="59.4585164" lon="31.1087693">
<ele>43.640003</ele>
<time>2026-09-01T00:02:52.000Z</time>
</trkpt>
<trkpt lat="59.4584908" lon="31.1085781">
<ele>43.759998</ele>
<time>2026-09-01T00:03:06.000Z</time>
</trkpt>
<trkpt lat="59.4584915" lon="31.1083627">
<ele>43.889999</ele>
<time>2026-09-01T00:03:19.000Z</time>
</trkpt>
<trkpt lat="59.4585020" lon="31.1082119">
<ele>43.829998</ele>
<time>2026-09-01T00:03:27.000Z</time>
</trkpt>
<trkpt lat="59.4585415" lon="31.1078611">
<ele>43.450001</ele>
<time>2026-09-01T00:03:46.000Z</time>
</trkpt>
<trkpt lat="59.4585921" lon="31.1074400">
<ele>43.170002</ele>
<time>2026-09-01T00:04:10.000Z</time>
</trkpt>
<trkpt lat="59.4585939" lon="31.1072398">
<ele>43.100002</ele>
<time>2026-09-01T00:04:27.000Z</time>
</trkpt>
<trkpt lat="59.4585992" lon="31.1068583">
<ele>43.000000</ele>
<time>2026-09-01T00:04:48.000Z</time>
</trkpt>
<trkpt lat="59.4586701" lon="31.1065282">
<ele>42.849998</ele>
<time>2026-09-01T00:05:06.000Z</time>
</trkpt>
<trkpt lat="59.4587308" lon="31.1062824">
<ele>42.230000</ele>
<time>2026-09-01T00:05:23.000Z</time>
</trkpt>
<trkpt lat="59.4587824" lon="31.1061397">
<ele>41.889999</ele>
<time>2026-09-01T00:05:33.000Z</time>
</trkpt>
<trkpt lat="59.4588327" lon="31.1060037">
<ele>41.580002</ele>
<time>2026-09-01T00:05:42.000Z</time>
</trkpt>
<trkpt lat="59.4589080" lon="31.1057825">
<ele>41.459999</ele>
<time>2026-09-01T00:05:56.000Z</time>
</trkpt>
<trkpt lat="59.4590021" lon="31.1055987">
<ele>41.239998</ele>
<time>2026-09-01T00:06:10.000Z</time>
</trkpt>
<trkpt lat="59.4590614" lon="31.1054381">
<ele>41.019997</ele>
<time>2026-09-01T00:06:20.000Z</time>
</trkpt>
<trkpt lat="59.4591122" lon="31.1053223">
<ele>40.810001</ele>
<time>2026-09-01T00:06:33.000Z</time>
</trkpt>
<trkpt lat="59.4591706" lon="31.1051992">
<ele>40.410000</ele>
<time>2026-09-01T00:06:42.000Z</time>
</trkpt>
<trkpt lat="59.4592421" lon="31.1050283">
<ele>40.269997</ele>
<time>2026-09-01T00:06:53.000Z</time>
</trkpt>
<trkpt lat="59.4592953" lon="31.1048973">
<ele>40.109997</ele>
<time>2026-09-01T00:07:01.000Z</time>
</trkpt>
<trkpt lat="59.4593470" lon="31.1047422">
<ele>40.239998</ele>
<time>2026-09-01T00:07:11.000Z</time>
</trkpt>
<trkpt lat="59.4594445" lon="31.1044845">
<ele>40.719997</ele>
<time>2026-09-01T00:07:27.000Z</time>
</trkpt>
<trkpt lat="59.4595504" lon="31.1043002">
<ele>41.009998</ele>
<time>2026-09-01T00:07:42.000Z</time>
</trkpt>
<trkpt lat="59.4596152" lon="31.1041853">
<ele>40.970001</ele>
<time>2026-09-01T00:07:51.000Z</time>
</trkpt>
<trkpt lat="59.4597190" lon="31.1038703">
<ele>41.720001</ele>
<time>2026-09-01T00:08:10.000Z</time>
</trkpt>
<trkpt lat="59.4597958" lon="31.1036377">
<ele>42.350002</ele>
<time>2026-09-01T00:08:25.000Z</time>
</trkpt>
<trkpt lat="59.4598783" lon="31.1034813">
<ele>41.459999</ele>
<time>2026-09-01T00:08:41.000Z</time>
</trkpt>
<trkpt lat="59.4598921" lon="31.1032269">
<ele>40.970001</ele>
<time>2026-09-01T00:08:55.000Z</time>
</trkpt>
<trkpt lat="59.4598174" lon="31.1030107">
<ele>40.520000</ele>
<time>2026-09-01T00:09:09.000Z</time>
</trkpt>
<trkpt lat="59.4597538" lon="31.1027636">
<ele>39.849998</ele>
<time>2026-09-01T00:09:26.000Z</time>
</trkpt>
<trkpt lat="59.4597381" lon="31.1027448">
<ele>39.750000</ele>
<time>2026-09-01T00:09:28.000Z</time>
</trkpt>
<trkpt lat="59.4596564" lon="31.1025560">
<ele>39.279999</ele>
<time>2026-09-01T00:09:42.000Z</time>
</trkpt>
<trkpt lat="59.4595909" lon="31.1023759">
<ele>39.090000</ele>
<time>2026-09-01T00:09:53.000Z</time>
</trkpt>
<trkpt lat="59.4594885" lon="31.1021926">
<ele>38.540001</ele>
<time>2026-09-01T00:10:04.000Z</time>
</trkpt>
<trkpt lat="59.4593847" lon="31.1019425">
<ele>37.200001</ele>
<time>2026-09-01T00:10:23.000Z</time>
</trkpt>
<trkpt lat="59.4592243" lon="31.1014682">
<ele>34.799999</ele>
<time>2026-09-01T00:10:52.000Z</time>
</trkpt>
<trkpt lat="59.4590313" lon="31.1009899">
<ele>34.689999</ele>
<time>2026-09-01T00:11:23.000Z</time>
</trkpt>
<trkpt lat="59.4588986" lon="31.1005356">
<ele>38.220001</ele>
<time>2026-09-01T00:11:46.000Z</time>
</trkpt>
<trkpt lat="59.4588611" lon="31.1003624">
<ele>42.740002</ele>
<time>2026-09-01T00:12:02.000Z</time>
</trkpt>
<trkpt lat="59.4588131" lon="31.1003184">
<ele>45.690002</ele>
<time>2026-09-01T00:12:24.000Z</time>
</trkpt>
<trkpt lat="59.4587009" lon="31.1003675">
<ele>47.250000</ele>
<time>2026-09-01T00:12:41.000Z</time>
</trkpt>
<trkpt lat="59.4587106" lon="31.1003615">
<ele>48.050003</ele>
<time>2026-09-01T00:13:03.000Z</time>
</trkpt>
<trkpt lat="59.4587893" lon="31.1003129">
<ele>47.879997</ele>
<time>2026-09-01T00:13:28.000Z</time>
</trkpt>
<trkpt lat="59.4588856" lon="31.1002274">
<ele>47.630001</ele>
<time>2026-09-01T00:13:42.000Z</time>
</trkpt>
<trkpt lat="59.4588797" lon="31.1001123">
<ele>47.790001</ele>
<time>2026-09-01T00:13:53.000Z</time>
</trkpt>
<trkpt lat="59.4588321" lon="31.1000407">
<ele>47.670002</ele>
<time>2026-09-01T00:14:00.000Z</time>
</trkpt>
<trkpt lat="59.4586732" lon="31.0996066">
<ele>47.329998</ele>
<time>2026-09-01T00:14:28.000Z</time>
</trkpt>
<trkpt lat="59.4585005" lon="31.0991173">
<ele>47.770000</ele>
<time>2026-09-01T00:14:56.000Z</time>
</trkpt>
<trkpt lat="59.4583770" lon="31.0987504">
<ele>48.280003</ele>
<time>2026-09-01T00:15:16.000Z</time>
</trkpt>
<trkpt lat="59.4582970" lon="31.0984838">
<ele>48.000000</ele>
<time>2026-09-01T00:15:32.000Z</time>
</trkpt>
<trkpt lat="59.4582017" lon="31.0981826">
<ele>47.760002</ele>
<time>2026-09-01T00:15:50.000Z</time>
</trkpt>
<trkpt lat="59.4580227" lon="31.0976663">
<ele>48.370003</ele>
<time>2026-09-01T00:16:19.000Z</time>
</trkpt>
<trkpt lat="59.4578742" lon="31.0971986">
<ele>48.250000</ele>
<time>2026-09-01T00:16:47.000Z</time>
</trkpt>
<trkpt lat="59.4577376" lon="31.0967367">
<ele>48.310001</ele>
<time>2026-09-01T00:17:13.000Z</time>
</trkpt>
<trkpt lat="59.4575948" lon="31.0962155">
<ele>48.750000</ele>
<time>2026-09-01T00:17:42.000Z</time>
</trkpt>
<trkpt lat="59.4574416" lon="31.0957576">
<ele>49.590000</ele>
<time>2026-09-01T00:18:11.000Z</time>
</trkpt>
<trkpt lat="59.4573288" lon="31.0953905">
<ele>49.639999</ele>
<time>2026-09-01T00:18:31.000Z</time>
</trkpt>
<trkpt lat="59.4571515" lon="31.0947757">
<ele>49.869999</ele>
<time>2026-09-01T00:19:05.000Z</time>
</trkpt>
<trkpt lat="59.4569844" lon="31.0941924">
<ele>49.930000</ele>
<time>2026-09-01T00:19:37.000Z</time>
</trkpt>
<trkpt lat="59.4568097" lon="31.0936731">
<ele>50.060001</ele>
<time>2026-09-01T00:20:08.000Z</time>
</trkpt>
<trkpt lat="59.4566212" lon="31.0931478">
<ele>49.919998</ele>
<time>2026-09-01T00:20:39.000Z</time>
</trkpt>
<trkpt lat="59.4564686" lon="31.0926565">
<ele>49.709999</ele>
<time>2026-09-01T00:21:06.000Z</time>
</trkpt>
<trkpt lat="59.4562909" lon="31.0922652">
<ele>49.239998</ele>
<time>2026-09-01T00:21:33.000Z</time>
</trkpt>
<trkpt lat="59.4562733" lon="31.0922402">
<ele>49.220001</ele>
<time>2026-09-01T00:21:35.000Z</time>
</trkpt>
<trkpt lat="59.4560316" lon="31.0918618">
<ele>50.820000</ele>
<time>2026-09-01T00:22:05.000Z</time>
</trkpt>
<trkpt lat="59.4560552" lon="31.0917994">
<ele>50.720001</ele>
<time>2026-09-01T00:22:25.000Z</time>
</trkpt>
<trkpt lat="59.4560439" lon="31.0917926">
<ele>50.980000</ele>
<time>2026-09-01T00:22:44.000Z</time>
</trkpt>
<trkpt lat="59.4560403" lon="31.0918106">
<ele>51.689999</ele>
<time>2026-09-01T00:23:10.000Z</time>
</trkpt>
<trkpt lat="59.4560390" lon="31.0918351">
<ele>53.940002</ele>
<time>2026-09-01T00:23:34.000Z</time>
</trkpt>
<trkpt lat="59.4560288" lon="31.0918342">
<ele>54.549999</ele>
<time>2026-09-01T00:24:05.000Z</time>
</trkpt>
<trkpt lat="59.4559744" lon="31.0917623">
<ele>55.760002</ele>
<time>2026-09-01T00:24:29.000Z</time>
</trkpt>
<trkpt lat="59.4558377" lon="31.0916094">
<ele>56.280003</ele>
<time>2026-09-01T00:24:44.000Z</time>
</trkpt>
<trkpt lat="59.4558559" lon="31.0916239">
<ele>55.980003</ele>
<time>2026-09-01T00:24:51.000Z</time>
</trkpt>
<trkpt lat="59.4558641" lon="31.0915952">
<ele>55.779999</ele>
<time>2026-09-01T00:25:09.000Z</time>
</trkpt>
<trkpt lat="59.4558625" lon="31.0915854">
<ele>55.269997</ele>
<time>2026-09-01T00:25:22.000Z</time>
</trkpt>
<trkpt lat="59.4558304" lon="31.0915707">
<ele>55.259998</ele>
<time>2026-09-01T00:25:25.000Z</time>
</trkpt>
<trkpt lat="59.4555299" lon="31.0912380">
<ele>55.840000</ele>
<time>2026-09-01T00:25:34.000Z</time>
</trkpt>
<trkpt lat="59.4549898" lon="31.0906104">
<ele>57.040001</ele>
<time>2026-09-01T00:25:48.000Z</time>
</trkpt>
<trkpt lat="59.4547559" lon="31.0903419">
<ele>57.919998</ele>
<time>2026-09-01T00:25:59.000Z</time>
</trkpt>
<trkpt lat="59.4540974" lon="31.0896218">
<ele>59.910000</ele>
<time>2026-09-01T00:26:13.000Z</time>
</trkpt>
<trkpt lat="59.4537118" lon="31.0891457">
<ele>59.430000</ele>
<time>2026-09-01T00:26:21.000Z</time>
</trkpt>
<trkpt lat="59.4533570" lon="31.0882826">
<ele>59.110001</ele>
<time>2026-09-01T00:26:30.000Z</time>
</trkpt>
<trkpt lat="59.4526670" lon="31.0865468">
<ele>58.790001</ele>
<time>2026-09-01T00:26:46.000Z</time>
</trkpt>
<trkpt lat="59.4520894" lon="31.0850875">
<ele>58.160000</ele>
<time>2026-09-01T00:27:00.000Z</time>
</trkpt>
<trkpt lat="59.4519350" lon="31.0846893">
<ele>57.820000</ele>
<time>2026-09-01T00:27:04.000Z</time>
</trkpt>
<trkpt lat="59.4519702" lon="31.0841490">
<ele>58.309998</ele>
<time>2026-09-01T00:27:12.000Z</time>
</trkpt>
<trkpt lat="59.4527175" lon="31.0830535">
<ele>58.779999</ele>
<time>2026-09-01T00:27:23.000Z</time>
</trkpt>
<trkpt lat="59.4539041" lon="31.0811651">
<ele>58.520000</ele>
<time>2026-09-01T00:27:38.000Z</time>
</trkpt>
<trkpt lat="59.4547426" lon="31.0797459">
<ele>60.570000</ele>
<time>2026-09-01T00:27:49.000Z</time>
</trkpt>
<trkpt lat="59.4558090" lon="31.0777775">
<ele>63.910000</ele>
<time>2026-09-01T00:28:02.000Z</time>
</trkpt>
<trkpt lat="59.4565269" lon="31.0764238">
<ele>65.750000</ele>
<time>2026-09-01T00:28:11.000Z</time>
</trkpt>
<trkpt lat="59.4566695" lon="31.0762223">
<ele>66.919998</ele>
<time>2026-09-01T00:28:18.000Z</time>
</trkpt>
<trkpt lat="59.4566139" lon="31.0762456">
<ele>64.949997</ele>
<time>2026-09-01T00:28:44.000Z</time>
</trkpt>
<trkpt lat="59.4566518" lon="31.0762208">
<ele>65.500000</ele>
<time>2026-09-01T00:28:57.000Z</time>
</trkpt>
<trkpt lat="59.4569093" lon="31.0757393">
<ele>64.389999</ele>
<time>2026-09-01T00:29:05.000Z</time>
</trkpt>
<trkpt lat="59.4574517" lon="31.0747347">
<ele>63.959999</ele>
<time>2026-09-01T00:29:14.000Z</time>
</trkpt>
<trkpt lat="59.4575756" lon="31.0745298">
<ele>63.459999</ele>
<time>2026-09-01T00:29:16.000Z</time>
</trkpt>
<trkpt lat="59.4582076" lon="31.0732467">
<ele>60.839996</ele>
<time>2026-09-01T00:29:28.000Z</time>
</trkpt>
<trkpt lat="59.4588785" lon="31.0719988">
<ele>61.299999</ele>
<time>2026-09-01T00:29:41.000Z</time>
</trkpt>
<trkpt lat="59.4595899" lon="31.0707269">
<ele>60.079998</ele>
<time>2026-09-01T00:29:53.000Z</time>
</trkpt>
<trkpt lat="59.4601003" lon="31.0697359">
<ele>60.590000</ele>
<time>2026-09-01T00:30:03.000Z</time>
</trkpt>
<trkpt lat="59.4603758" lon="31.0692846">
<ele>60.349998</ele>
<time>2026-09-01T00:30:10.000Z</time>
</trkpt>
<trkpt lat="59.4605163" lon="31.0689849">
<ele>60.240002</ele>
<time>2026-09-01T00:30:13.000Z</time>
</trkpt>
<trkpt lat="59.4611201" lon="31.0677388">
<ele>61.230003</ele>
<time>2026-09-01T00:30:26.000Z</time>
</trkpt>
<trkpt lat="59.4612152" lon="31.0675354">
<ele>61.570000</ele>
<time>2026-09-01T00:30:28.000Z</time>
</trkpt>
<trkpt lat="59.4619646" lon="31.0661574">
<ele>61.430000</ele>
<time>2026-09-01T00:30:40.000Z</time>
</trkpt>
<trkpt lat="59.4627022" lon="31.0645800">
<ele>57.329998</ele>
<time>2026-09-01T00:30:53.000Z</time>
</trkpt>
<trkpt lat="59.4636038" lon="31.0628134">
<ele>55.169998</ele>
<time>2026-09-01T00:31:07.000Z</time>
</trkpt>
<trkpt lat="59.4645088" lon="31.0611303">
<ele>56.329998</ele>
<time>2026-09-01T00:31:20.000Z</time>
</trkpt>
<trkpt lat="59.4653783" lon="31.0595544">
<ele>55.349998</ele>
<time>2026-09-01T00:31:32.000Z</time>
</trkpt>
<trkpt lat="59.4664428" lon="31.0576536">
<ele>53.160000</ele>
<time>2026-09-01T00:31:46.000Z</time>
</trkpt>
<trkpt lat="59.4671339" lon="31.0562614">
<ele>56.660004</ele>
<time>2026-09-01T00:31:57.000Z</time>
</trkpt>
<trkpt lat="59.4678940" lon="31.0547375">
<ele>56.099998</ele>
<time>2026-09-01T00:32:09.000Z</time>
</trkpt>
<trkpt lat="59.4684584" lon="31.0537145">
<ele>56.130001</ele>
<time>2026-09-01T00:32:19.000Z</time>
</trkpt>
<trkpt lat="59.4690755" lon="31.0524773">
<ele>56.689999</ele>
<time>2026-09-01T00:32:31.000Z</time>
</trkpt>
<trkpt lat="59.4697473" lon="31.0511607">
<ele>60.689999</ele>
<time>2026-09-01T00:32:44.000Z</time>
</trkpt>
<trkpt lat="59.4707952" lon="31.0491274">
<ele>61.610001</ele>
<time>2026-09-01T00:33:01.000Z</time>
</trkpt>
<trkpt lat="59.4716666" lon="31.0474810">
<ele>59.560001</ele>
<time>2026-09-01T00:33:13.000Z</time>
</trkpt>
<trkpt lat="59.4720568" lon="31.0467537">
<ele>60.139999</ele>
<time>2026-09-01T00:33:21.000Z</time>
</trkpt>
<trkpt lat="59.4721430" lon="31.0465734">
<ele>61.100002</ele>
<time>2026-09-01T00:33:23.000Z</time>
</trkpt>
<trkpt lat="59.4721399" lon="31.0455931">
<ele>62.470001</ele>
<time>2026-09-01T00:33:31.000Z</time>
</trkpt>
<trkpt lat="59.4715732" lon="31.0437120">
<ele>63.199997</ele>
<time>2026-09-01T00:33:43.000Z</time>
</trkpt>
<trkpt lat="59.4713043" lon="31.0429205">
<ele>62.850002</ele>
<time>2026-09-01T00:33:54.000Z</time>
</trkpt>
<trkpt lat="59.4709882" lon="31.0418722">
<ele>63.199997</ele>
<time>2026-09-01T00:34:04.000Z</time>
</trkpt>
<trkpt lat="59.4708645" lon="31.0413930">
<ele>62.899998</ele>
<time>2026-09-01T00:34:08.000Z</time>
</trkpt>
<trkpt lat="59.4709438" lon="31.0405578">
<ele>62.070004</ele>
<time>2026-09-01T00:34:15.000Z</time>
</trkpt>
<trkpt lat="59.4717722" lon="31.0389443">
<ele>60.200001</ele>
<time>2026-09-01T00:34:29.000Z</time>
</trkpt>
<trkpt lat="59.4722866" lon="31.0379585">
<ele>58.520000</ele>
<time>2026-09-01T00:34:39.000Z</time>
</trkpt>
<trkpt lat="59.4730081" lon="31.0365629">
<ele>56.399998</ele>
<time>2026-09-01T00:34:50.000Z</time>
</trkpt>
<trkpt lat="59.4736972" lon="31.0351735">
<ele>52.850002</ele>
<time>2026-09-01T00:35:01.000Z</time>
</trkpt>
<trkpt lat="59.4743834" lon="31.0338578">
<ele>51.919998</ele>
<time>2026-09-01T00:35:13.000Z</time>
</trkpt>
<trkpt lat="59.4747109" lon="31.0332362">
<ele>51.110001</ele>
<time>2026-09-01T00:35:23.000Z</time>
</trkpt>
<trkpt lat="59.4754513" lon="31.0318165">
<ele>51.110001</ele>
<time>2026-09-01T00:35:35.000Z</time>
</trkpt>
<trkpt lat="59.4763684" lon="31.0300928">
<ele>53.279999</ele>
<time>2026-09-01T00:35:49.000Z</time>
</trkpt>
<trkpt lat="59.4771155" lon="31.0286698">
<ele>54.950001</ele>
<time>2026-09-01T00:36:00.000Z</time>
</trkpt>
<trkpt lat="59.4771762" lon="31.0285688">
<ele>55.060001</ele>
<time>2026-09-01T00:36:01.000Z</time>
</trkpt>
<trkpt lat="59.4774895" lon="31.0279645">
<ele>55.400002</ele>
<time>2026-09-01T00:36:07.000Z</time>
</trkpt>
<trkpt lat="59.4777752" lon="31.0274045">
<ele>56.520000</ele>
<time>2026-09-01T00:36:15.000Z</time>
</trkpt>
<trkpt lat="59.4783647" lon="31.0262585">
<ele>56.990002</ele>
<time>2026-09-01T00:36:24.000Z</time>
</trkpt>
<trkpt lat="59.4790157" lon="31.0250308">
<ele>56.939999</ele>
<time>2026-09-01T00:36:34.000Z</time>
</trkpt>
<trkpt lat="59.4795808" lon="31.0239131">
<ele>55.530003</ele>
<time>2026-09-01T00:36:43.000Z</time>
</trkpt>
<trkpt lat="59.4803901" lon="31.0223608">
<ele>55.779999</ele>
<time>2026-09-01T00:36:53.000Z</time>
</trkpt>
<trkpt lat="59.4807524" lon="31.0216606">
<ele>57.009998</ele>
<time>2026-09-01T00:37:02.000Z</time>
</trkpt>
<trkpt lat="59.4808090" lon="31.0216470">
<ele>60.189999</ele>
<time>2026-09-01T00:37:12.000Z</time>
</trkpt>
<trkpt lat="59.4807867" lon="31.0216213">
<ele>60.669998</ele>
<time>2026-09-01T00:37:31.000Z</time>
</trkpt>
<trkpt lat="59.4807932" lon="31.0216163">
<ele>60.369999</ele>
<time>2026-09-01T00:37:56.000Z</time>
</trkpt>
<trkpt lat="59.4807728" lon="31.0216277">
<ele>59.820000</ele>
<time>2026-09-01T00:38:18.000Z</time>
</trkpt>
<trkpt lat="59.4808396" lon="31.0215075">
<ele>59.270000</ele>
<time>2026-09-01T00:38:33.000Z</time>
</trkpt>
<trkpt lat="59.4809090" lon="31.0214647">
<ele>60.539997</ele>
<time>2026-09-01T00:38:50.000Z</time>
</trkpt>
<trkpt lat="59.4810304" lon="31.0212340">
<ele>60.279999</ele>
<time>2026-09-01T00:39:04.000Z</time>
</trkpt>
<trkpt lat="59.4811249" lon="31.0210592">
<ele>60.230000</ele>
<time>2026-09-01T00:39:21.000Z</time>
</trkpt>
<trkpt lat="59.4811825" lon="31.0210142">
<ele>61.240002</ele>
<time>2026-09-01T00:39:33.000Z</time>
</trkpt>
<trkpt lat="59.4811916" lon="31.0210164">
<ele>60.330002</ele>
<time>2026-09-01T00:39:54.000Z</time>
</trkpt>
</trkseg>
<trkseg>
<trkpt lat="59.5515079" lon="31.1134034">
<ele>50.610001</ele>
<time>2026-08-31T19:33:38.000Z</time>
</trkpt>
<trkpt lat="59.5515016" lon="31.1133927">
<ele>50.610001</ele>
<time>2026-08-31T19:34:01.000Z</time>
</trkpt>
<trkpt lat="59.5515053" lon="31.1133796">
<ele>50.610001</ele>
<time>2026-08-31T19:34:16.000Z</time>
</trkpt>
<trkpt lat="59.5515055" lon="31.1133672">
<ele>51.089996</ele>
<time>2026-08-31T19:34:47.000Z</time>
</trkpt>
<trkpt lat="59.5515048" lon="31.1133667">
<ele>49.650002</ele>
<time>2026-08-31T19:34:51.000Z</time>
</trkpt>
<trkpt lat="59.5515049" lon="31.1133721">
<ele>51.089996</ele>
<time>2026-08-31T19:34:57.000Z</time>
</trkpt>
<trkpt lat="59.5515295" lon="31.1133757">
<ele>50.130001</ele>
<time>2026-08-31T19:35:33.000Z</time>
</trkpt>
<trkpt lat="59.5515296" lon="31.1133937">
<ele>50.130001</ele>
<time>2026-08-31T19:36:04.000Z</time>
</trkpt>
<trkpt lat="59.5515260" lon="31.1133947">
<ele>51.570000</ele>
<time>2026-08-31T19:36:24.000Z</time>
</trkpt>
<trkpt lat="59.5515204" lon="31.1133973">
<ele>51.570000</ele>
<time>2026-08-31T19:36:46.000Z</time>
</trkpt>
<trkpt lat="59.5515163" lon="31.1133954">
<ele>51.570000</ele>
<time>2026-08-31T19:37:02.000Z</time>
</trkpt>
<trkpt lat="59.5515156" lon="31.1133990">
<ele>50.130001</ele>
<time>2026-08-31T19:37:18.000Z</time>
</trkpt>
<trkpt lat="59.5515154" lon="31.1133991">
<ele>51.570000</ele>
<time>2026-08-31T19:37:20.000Z</time>
</trkpt>
<trkpt lat="59.5515126" lon="31.1133951">
<ele>51.570000</ele>
<time>2026-08-31T19:37:39.000Z</time>
</trkpt>
<trkpt lat="59.5515070" lon="31.1134056">
<ele>51.570000</ele>
<time>2026-08-31T19:38:03.000Z</time>
</trkpt>
<trkpt lat="59.5515067" lon="31.1134046">
<ele>51.570000</ele>
<time>2026-08-31T19:38:22.000Z</time>
</trkpt>
<trkpt lat="59.5515112" lon="31.1134318">
<ele>51.570000</ele>
<time>2026-08-31T19:38:33.000Z</time>
</trkpt>
<trkpt lat="59.5515105" lon="31.1134691">
<ele>51.570000</ele>
<time>2026-08-31T19:38:37.000Z</time>
</trkpt>
<trkpt lat="59.5515152" lon="31.1135377">
<ele>51.570000</ele>
<time>2026-08-31T19:38:43.000Z</time>
</trkpt>
<trkpt lat="59.5514326" lon="31.1137868">
<ele>51.570000</ele>
<time>2026-08-31T19:38:57.000Z</time>
</trkpt>
<trkpt lat="59.5513167" lon="31.1140478">
<ele>50.130001</ele>
<time>2026-08-31T19:39:13.000Z</time>
</trkpt>
<trkpt lat="59.5513085" lon="31.1140656">
<ele>50.130001</ele>
<time>2026-08-31T19:39:14.000Z</time>
</trkpt>
<trkpt lat="59.5512717" lon="31.1141375">
<ele>51.570000</ele>
<time>2026-08-31T19:39:20.000Z</time>
</trkpt>
<trkpt lat="59.5512584" lon="31.1141445">
<ele>51.570000</ele>
<time>2026-08-31T19:39:22.000Z</time>
</trkpt>
<trkpt lat="59.5512497" lon="31.1141586">
<ele>51.570000</ele>
<time>2026-08-31T19:39:23.000Z</time>
</trkpt>
<trkpt lat="59.5512359" lon="31.1141915">
<ele>50.130001</ele>
<time>2026-08-31T19:39:25.000Z</time>
</trkpt>
<trkpt lat="59.5511216" lon="31.1145202">
<ele>50.130001</ele>
<time>2026-08-31T19:39:42.000Z</time>
</trkpt>
<trkpt lat="59.5510176" lon="31.1147253">
<ele>50.130001</ele>
<time>2026-08-31T19:39:57.000Z</time>
</trkpt>
<trkpt lat="59.5509297" lon="31.1149594">
<ele>50.130001</ele>
<time>2026-08-31T19:40:12.000Z</time>
</trkpt>
<trkpt lat="59.5508345" lon="31.1152853">
<ele>50.130001</ele>
<time>2026-08-31T19:40:29.000Z</time>
</trkpt>
<trkpt lat="59.5508152" lon="31.1154072">
<ele>50.130001</ele>
<time>2026-08-31T19:40:34.000Z</time>
</trkpt>
<trkpt lat="59.5507411" lon="31.1157153">
<ele>50.130001</ele>
<time>2026-08-31T19:40:48.000Z</time>
</trkpt>
<trkpt lat="59.5506376" lon="31.1160619">
<ele>50.130001</ele>
<time>2026-08-31T19:41:05.000Z</time>
</trkpt>
<trkpt lat="59.5505572" lon="31.1164208">
<ele>50.130001</ele>
<time>2026-08-31T19:41:20.000Z</time>
</trkpt>
<trkpt lat="59.5505008" lon="31.1166692">
<ele>50.130001</ele>
<time>2026-08-31T19:41:35.000Z</time>
</trkpt>
<trkpt lat="59.5504970" lon="31.1166912">
<ele>50.130001</ele>
<time>2026-08-31T19:41:36.000Z</time>
</trkpt>
<trkpt lat="59.5504843" lon="31.1167380">
<ele>50.130001</ele>
<time>2026-08-31T19:41:38.000Z</time>
</trkpt>
<trkpt lat="59.5504742" lon="31.1167741">
<ele>50.130001</ele>
<time>2026-08-31T19:41:39.000Z</time>
</trkpt>
<trkpt lat="59.5504637" lon="31.1168072">
<ele>50.130001</ele>
<time>2026-08-31T19:41:40.000Z</time>
</trkpt>
<trkpt lat="59.5503910" lon="31.1171347">
<ele>50.130001</ele>
<time>2026-08-31T19:41:54.000Z</time>
</trkpt>
<trkpt lat="59.5503212" lon="31.1174887">
<ele>50.130001</ele>
<time>2026-08-31T19:42:07.000Z</time>
</trkpt>
<trkpt lat="59.5502953" lon="31.1175745">
<ele>49.160000</ele>
<time>2026-08-31T19:42:11.000Z</time>
</trkpt>
<trkpt lat="59.5502126" lon="31.1180024">
<ele>50.610001</ele>
<time>2026-08-31T19:42:28.000Z</time>
</trkpt>
<trkpt lat="59.5501450" lon="31.1183339">
<ele>50.610001</ele>
<time>2026-08-31T19:42:42.000Z</time>
</trkpt>
<trkpt lat="59.5500799" lon="31.1186464">
<ele>50.610001</ele>
<time>2026-08-31T19:42:57.000Z</time>
</trkpt>
<trkpt lat="59.5500604" lon="31.1187307">
<ele>50.610001</ele>
<time>2026-08-31T19:43:01.000Z</time>
</trkpt>
<trkpt lat="59.5500589" lon="31.1187614">
<ele>50.610001</ele>
<time>2026-08-31T19:43:02.000Z</time>
</trkpt>
<trkpt lat="59.5500331" lon="31.1189229">
<ele>50.610001</ele>
<time>2026-08-31T19:43:09.000Z</time>
</trkpt>
<trkpt lat="59.5499673" lon="31.1193196">
<ele>50.610001</ele>
<time>2026-08-31T19:43:25.000Z</time>
</trkpt>
<trkpt lat="59.5498870" lon="31.1197308">
<ele>49.160000</ele>
<time>2026-08-31T19:43:41.000Z</time>
</trkpt>
<trkpt lat="59.5498191" lon="31.1201009">
<ele>49.160000</ele>
<time>2026-08-31T19:43:56.000Z</time>
</trkpt>
<trkpt lat="59.5497625" lon="31.1203915">
<ele>49.160000</ele>
<time>2026-08-31T19:44:10.000Z</time>
</trkpt>
<trkpt lat="59.5497017" lon="31.1206598">
<ele>48.680000</ele>
<time>2026-08-31T19:44:24.000Z</time>
</trkpt>
<trkpt lat="59.5496374" lon="31.1209012">
<ele>48.680000</ele>
<time>2026-08-31T19:44:37.000Z</time>
</trkpt>
<trkpt lat="59.5495983" lon="31.1211080">
<ele>48.680000</ele>
<time>2026-08-31T19:44:48.000Z</time>
</trkpt>
<trkpt lat="59.5495676" lon="31.1213057">
<ele>48.680000</ele>
<time>2026-08-31T19:44:58.000Z</time>
</trkpt>
<trkpt lat="59.5495707" lon="31.1213425">
<ele>48.680000</ele>
<time>2026-08-31T19:44:59.000Z</time>
</trkpt>
<trkpt lat="59.5495718" lon="31.1213746">
<ele>48.680000</ele>
<time>2026-08-31T19:45:00.000Z</time>
</trkpt>
<trkpt lat="59.5495705" lon="31.1214073">
<ele>48.680000</ele>
<time>2026-08-31T19:45:01.000Z</time>
</trkpt>
<trkpt lat="59.5495680" lon="31.1214339">
<ele>48.680000</ele>
<time>2026-08-31T19:45:02.000Z</time>
</trkpt>
<trkpt lat="59.5495357" lon="31.1215219">
<ele>48.680000</ele>
<time>2026-08-31T19:45:08.000Z</time>
</trkpt>
<trkpt lat="59.5495175" lon="31.1216202">
<ele>48.680000</ele>
<time>2026-08-31T19:45:14.000Z</time>
</trkpt>
<trkpt lat="59.5494827" lon="31.1217269">
<ele>48.680000</ele>
<time>2026-08-31T19:45:20.000Z</time>
</trkpt>
<trkpt lat="59.5494535" lon="31.1219907">
<ele>48.680000</ele>
<time>2026-08-31T19:45:32.000Z</time>
</trkpt>
<trkpt lat="59.5494515" lon="31.1220233">
<ele>48.680000</ele>
<time>2026-08-31T19:45:33.000Z</time>
</trkpt>
<trkpt lat="59.5495025" lon="31.1222797">
<ele>50.130001</ele>
<time>2026-08-31T19:45:44.000Z</time>
</trkpt>
<trkpt lat="59.5495125" lon="31.1223055">
<ele>50.130001</ele>
<time>2026-08-31T19:45:45.000Z</time>
</trkpt>
<trkpt lat="59.5496315" lon="31.1226945">
<ele>51.570000</ele>
<time>2026-08-31T19:46:00.000Z</time>
</trkpt>
<trkpt lat="59.5496387" lon="31.1227494">
<ele>51.570000</ele>
<time>2026-08-31T19:46:04.000Z</time>
</trkpt>
<trkpt lat="59.5496506" lon="31.1228584">
<ele>51.570000</ele>
<time>2026-08-31T19:46:09.000Z</time>
</trkpt>
<trkpt lat="59.5497026" lon="31.1229093">
<ele>52.049999</ele>
<time>2026-08-31T19:46:20.000Z</time>
</trkpt>
<trkpt lat="59.5497521" lon="31.1230231">
<ele>52.529999</ele>
<time>2026-08-31T19:46:37.000Z</time>
</trkpt>
<trkpt lat="59.5497569" lon="31.1230245">
<ele>52.529999</ele>
<time>2026-08-31T19:46:53.000Z</time>
</trkpt>
<trkpt lat="59.5497116" lon="31.1229063">
<ele>52.529999</ele>
<time>2026-08-31T19:47:11.000Z</time>
</trkpt>
<trkpt lat="59.5496810" lon="31.1228978">
<ele>52.529999</ele>
<time>2026-08-31T19:47:15.000Z</time>
</trkpt>
<trkpt lat="59.5496314" lon="31.1230167">
<ele>52.529999</ele>
<time>2026-08-31T19:47:30.000Z</time>
</trkpt>
<trkpt lat="59.5496219" lon="31.1230099">
<ele>51.570000</ele>
<time>2026-08-31T19:47:44.000Z</time>
</trkpt>
<trkpt lat="59.5496263" lon="31.1230253">
<ele>52.529999</ele>
<time>2026-08-31T19:47:55.000Z</time>
</trkpt>
<trkpt lat="59.5496254" lon="31.1230264">
<ele>52.529999</ele>
<time>2026-08-31T19:48:22.000Z</time>
</trkpt>
<trkpt lat="59.5496171" lon="31.1230372">
<ele>52.529999</ele>
<time>2026-08-31T19:48:45.000Z</time>
</trkpt>
<trkpt lat="59.5496104" lon="31.1230219">
<ele>51.570000</ele>
<time>2026-08-31T19:49:01.000Z</time>
</trkpt>
<trkpt lat="59.5496042" lon="31.1230152">
<ele>51.570000</ele>
<time>2026-08-31T19:49:14.000Z</time>
</trkpt>
<trkpt lat="59.5496130" lon="31.1230191">
<ele>51.570000</ele>
<time>2026-08-31T19:49:32.000Z</time>
</trkpt>
<trkpt lat="59.5496210" lon="31.1230286">
<ele>51.570000</ele>
<time>2026-08-31T19:50:00.000Z</time>
</trkpt>
<trkpt lat="59.5496173" lon="31.1230406">
<ele>51.570000</ele>
<time>2026-08-31T19:50:15.000Z</time>
</trkpt>
<trkpt lat="59.5496025" lon="31.1230533">
<ele>51.570000</ele>
<time>2026-08-31T19:50:32.000Z</time>
</trkpt>
<trkpt lat="59.5495831" lon="31.1230644">
<ele>51.570000</ele>
<time>2026-08-31T19:50:43.000Z</time>
</trkpt>
<trkpt lat="59.5495566" lon="31.1230514">
<ele>51.570000</ele>
<time>2026-08-31T19:51:01.000Z</time>
</trkpt>
<trkpt lat="59.5495412" lon="31.1230645">
<ele>51.570000</ele>
<time>2026-08-31T19:51:16.000Z</time>
</trkpt>
<trkpt lat="59.5495388" lon="31.1230804">
<ele>51.570000</ele>
<time>2026-08-31T19:51:37.000Z</time>
</trkpt>
<trkpt lat="59.5495364" lon="31.1230905">
<ele>51.570000</ele>
<time>2026-08-31T19:51:59.000Z</time>
</trkpt>
<trkpt lat="59.5495338" lon="31.1230783">
<ele>51.570000</ele>
<time>2026-08-31T19:52:27.000Z</time>
</trkpt>
<trkpt lat="59.5495393" lon="31.1230911">
<ele>51.570000</ele>
<time>2026-08-31T19:52:54.000Z</time>
</trkpt>
<trkpt lat="59.5495441" lon="31.1231031">
<ele>53.010002</ele>
<time>2026-08-31T19:53:30.000Z</time>
</trkpt>
<trkpt lat="59.5495178" lon="31.1231794">
<ele>52.049999</ele>
<time>2026-08-31T19:53:49.000Z</time>
</trkpt>
<trkpt lat="59.5494743" lon="31.1232999">
<ele>53.010002</ele>
<time>2026-08-31T19:53:57.000Z</time>
</trkpt>
<trkpt lat="59.5494364" lon="31.1234192">
<ele>51.570000</ele>
<time>2026-08-31T19:54:05.000Z</time>
</trkpt>
<trkpt lat="59.5494340" lon="31.1234469">
<ele>51.089996</ele>
<time>2026-08-31T19:54:18.000Z</time>
</trkpt>
<trkpt lat="59.5494403" lon="31.1234848">
<ele>51.089996</ele>
<time>2026-08-31T19:54:36.000Z</time>
</trkpt>
<trkpt lat="59.5494418" lon="31.1234919">
<ele>51.089996</ele>
<time>2026-08-31T19:54:50.000Z</time>
</trkpt>
<trkpt lat="59.5494391" lon="31.1235071">
<ele>51.089996</ele>
<time>2026-08-31T19:55:26.000Z</time>
</trkpt>
<trkpt lat="59.5494373" lon="31.1235064">
<ele>52.529999</ele>
<time>2026-08-31T19:55:37.000Z</time>
</trkpt>
<trkpt lat="59.5494347" lon="31.1234932">
<ele>52.529999</ele>
<time>2026-08-31T19:56:12.000Z</time>
</trkpt>
<trkpt lat="59.5494360" lon="31.1234839">
<ele>51.089996</ele>
<time>2026-08-31T19:56:24.000Z</time>
</trkpt>
<trkpt lat="59.5494316" lon="31.1234933">
<ele>51.089996</ele>
<time>2026-08-31T19:56:50.000Z</time>
</trkpt>
<trkpt lat="59.5493901" lon="31.1235389">
<ele>51.089996</ele>
<time>2026-08-31T19:57:04.000Z</time>
</trkpt>
<trkpt lat="59.5493209" lon="31.1236328">
<ele>51.089996</ele>
<time>2026-08-31T19:57:15.000Z</time>
</trkpt>
<trkpt lat="59.5492528" lon="31.1236723">
<ele>51.089996</ele>
<time>2026-08-31T19:57:27.000Z</time>
</trkpt>
<trkpt lat="59.5491474" lon="31.1237989">
<ele>52.529999</ele>
<time>2026-08-31T19:57:40.000Z</time>
</trkpt>
<trkpt lat="59.5490867" lon="31.1238734">
<ele>53.010002</ele>
<time>2026-08-31T19:57:46.000Z</time>
</trkpt>
<trkpt lat="59.5490207" lon="31.1239473">
<ele>53.010002</ele>
<time>2026-08-31T19:57:54.000Z</time>
</trkpt>
<trkpt lat="59.5489334" lon="31.1240926">
<ele>53.010002</ele>
<time>2026-08-31T19:58:04.000Z</time>
</trkpt>
<trkpt lat="59.5488879" lon="31.1241409">
<ele>53.010002</ele>
<time>2026-08-31T19:58:09.000Z</time>
</trkpt>
<trkpt lat="59.5488081" lon="31.1242402">
<ele>53.969997</ele>
<time>2026-08-31T19:58:21.000Z</time>
</trkpt>
<trkpt lat="59.5488007" lon="31.1242576">
<ele>53.969997</ele>
<time>2026-08-31T19:58:22.000Z</time>
</trkpt>
<trkpt lat="59.5487860" lon="31.1243021">
<ele>53.969997</ele>
<time>2026-08-31T19:58:24.000Z</time>
</trkpt>
<trkpt lat="59.5487609" lon="31.1243822">
<ele>52.529999</ele>
<time>2026-08-31T19:58:27.000Z</time>
</trkpt>
<trkpt lat="59.5487035" lon="31.1245460">
<ele>52.529999</ele>
<time>2026-08-31T19:58:36.000Z</time>
</trkpt>
<trkpt lat="59.5486288" lon="31.1247205">
<ele>52.049999</ele>
<time>2026-08-31T19:58:47.000Z</time>
</trkpt>
<trkpt lat="59.5486017" lon="31.1248053">
<ele>52.049999</ele>
<time>2026-08-31T19:58:52.000Z</time>
</trkpt>
<trkpt lat="59.5485392" lon="31.1249888">
<ele>53.010002</ele>
<time>2026-08-31T19:59:05.000Z</time>
</trkpt>
<trkpt lat="59.5485358" lon="31.1250013">
<ele>53.010002</ele>
<time>2026-08-31T19:59:06.000Z</time>
</trkpt>
<trkpt lat="59.5484847" lon="31.1251016">
<ele>53.010002</ele>
<time>2026-08-31T19:59:14.000Z</time>
</trkpt>
<trkpt lat="59.5484588" lon="31.1251462">
<ele>53.010002</ele>
<time>2026-08-31T19:59:17.000Z</time>
</trkpt>
<trkpt lat="59.5484233" lon="31.1252240">
<ele>53.010002</ele>
<time>2026-08-31T19:59:25.000Z</time>
</trkpt>
<trkpt lat="59.5483955" lon="31.1252713">
<ele>53.010002</ele>
<time>2026-08-31T19:59:29.000Z</time>
</trkpt>
<trkpt lat="59.5483729" lon="31.1253133">
<ele>53.010002</ele>
<time>2026-08-31T19:59:33.000Z</time>
</trkpt>
<trkpt lat="59.5483262" lon="31.1253920">
<ele>53.010002</ele>
<time>2026-08-31T19:59:40.000Z</time>
</trkpt>
<trkpt lat="59.5482669" lon="31.1254898">
<ele>53.010002</ele>
<time>2026-08-31T19:59:52.000Z</time>
</trkpt>
<trkpt lat="59.5482292" lon="31.1254837">
<ele>53.010002</ele>
<time>2026-08-31T20:00:07.000Z</time>
</trkpt>
<trkpt lat="59.5481986" lon="31.1255075">
<ele>53.010002</ele>
<time>2026-08-31T20:00:23.000Z</time>
</trkpt>
<trkpt lat="59.5481870" lon="31.1255222">
<ele>53.010002</ele>
<time>2026-08-31T20:00:43.000Z</time>
</trkpt>
<trkpt lat="59.5481849" lon="31.1255228">
<ele>52.049999</ele>
<time>2026-08-31T20:00:46.000Z</time>
</trkpt>
<trkpt lat="59.5481844" lon="31.1255483">
<ele>52.049999</ele>
<time>2026-08-31T20:01:08.000Z</time>
</trkpt>
<trkpt lat="59.5481743" lon="31.1255616">
<ele>52.049999</ele>
<time>2026-08-31T20:01:33.000Z</time>
</trkpt>
<trkpt lat="59.5481750" lon="31.1255949">
<ele>53.490002</ele>
<time>2026-08-31T20:01:46.000Z</time>
</trkpt>
<trkpt lat="59.5481859" lon="31.1256267">
<ele>53.490002</ele>
<time>2026-08-31T20:01:59.000Z</time>
</trkpt>
<trkpt lat="59.5481678" lon="31.1256807">
<ele>53.490002</ele>
<time>2026-08-31T20:02:04.000Z</time>
</trkpt>
<trkpt lat="59.5481074" lon="31.1257834">
<ele>52.529999</ele>
<time>2026-08-31T20:02:15.000Z</time>
</trkpt>
<trkpt lat="59.5480858" lon="31.1258104">
<ele>52.529999</ele>
<time>2026-08-31T20:02:18.000Z</time>
</trkpt>
<trkpt lat="59.5480516" lon="31.1258615">
<ele>52.529999</ele>
<time>2026-08-31T20:02:22.000Z</time>
</trkpt>
<trkpt lat="59.5480020" lon="31.1259360">
<ele>52.529999</ele>
<time>2026-08-31T20:02:30.000Z</time>
</trkpt>
<trkpt lat="59.5479237" lon="31.1260559">
<ele>53.490002</ele>
<time>2026-08-31T20:02:42.000Z</time>
</trkpt>
<trkpt lat="59.5478880" lon="31.1261941">
<ele>52.529999</ele>
<time>2026-08-31T20:02:53.000Z</time>
</trkpt>
<trkpt lat="59.5478576" lon="31.1262729">
<ele>52.529999</ele>
<time>2026-08-31T20:02:58.000Z</time>
</trkpt>
<trkpt lat="59.5478513" lon="31.1263794">
<ele>52.529999</ele>
<time>2026-08-31T20:03:01.000Z</time>
</trkpt>
<trkpt lat="59.5478077" lon="31.1265117">
<ele>52.529999</ele>
<time>2026-08-31T20:03:09.000Z</time>
</trkpt>
<trkpt lat="59.5477390" lon="31.1266335">
<ele>52.529999</ele>
<time>2026-08-31T20:03:19.000Z</time>
</trkpt>
<trkpt lat="59.5477052" lon="31.1267059">
<ele>52.529999</ele>
<time>2026-08-31T20:03:25.000Z</time>
</trkpt>
<trkpt lat="59.5476434" lon="31.1268523">
<ele>52.529999</ele>
<time>2026-08-31T20:03:33.000Z</time>
</trkpt>
<trkpt lat="59.5476255" lon="31.1269359">
<ele>53.969997</ele>
<time>2026-08-31T20:03:37.000Z</time>
</trkpt>
<trkpt lat="59.5475902" lon="31.1271203">
<ele>53.969997</ele>
<time>2026-08-31T20:03:49.000Z</time>
</trkpt>
<trkpt lat="59.5475715" lon="31.1272774">
<ele>53.969997</ele>
<time>2026-08-31T20:03:59.000Z</time>
</trkpt>
<trkpt lat="59.5475489" lon="31.1274920">
<ele>52.529999</ele>
<time>2026-08-31T20:04:10.000Z</time>
</trkpt>
<trkpt lat="59.5475451" lon="31.1275896">
<ele>52.529999</ele>
<time>2026-08-31T20:04:15.000Z</time>
</trkpt>
<trkpt lat="59.5475335" lon="31.1276447">
<ele>52.049999</ele>
<time>2026-08-31T20:04:18.000Z</time>
</trkpt>
<trkpt lat="59.5475161" lon="31.1277094">
<ele>52.049999</ele>
<time>2026-08-31T20:04:22.000Z</time>
</trkpt>
<trkpt lat="59.5474965" lon="31.1278572">
<ele>52.049999</ele>
<time>2026-08-31T20:04:30.000Z</time>
</trkpt>
<trkpt lat="59.5473817" lon="31.1288219">
<ele>53.969997</ele>
<time>2026-08-31T20:06:28.000Z</time>
</trkpt>
<trkpt lat="59.5475069" lon="31.1287515">
<ele>56.860001</ele>
<time>2026-08-31T20:06:39.000Z</time>
</trkpt>
<trkpt lat="59.5474945" lon="31.1287840">
<ele>60.219997</ele>
<time>2026-08-31T20:06:46.000Z</time>
</trkpt>
<trkpt lat="59.5474925" lon="31.1287848">
<ele>60.219997</ele>
<time>2026-08-31T20:06:47.000Z</time>
</trkpt>
<trkpt lat="59.5474876" lon="31.1287631">
<ele>61.660000</ele>
<time>2026-08-31T20:06:51.000Z</time>
</trkpt>
<trkpt lat="59.5474922" lon="31.1286428">
<ele>63.579998</ele>
<time>2026-08-31T20:07:09.000Z</time>
</trkpt>
<trkpt lat="59.5474361" lon="31.1284957">
<ele>64.070000</ele>
<time>2026-08-31T20:07:23.000Z</time>
</trkpt>
<trkpt lat="59.5473778" lon="31.1285382">
<ele>63.099998</ele>
<time>2026-08-31T20:07:38.000Z</time>
</trkpt>
<trkpt lat="59.5473763" lon="31.1286029">
<ele>64.550003</ele>
<time>2026-08-31T20:07:43.000Z</time>
</trkpt>
<trkpt lat="59.5473582" lon="31.1286607">
<ele>64.550003</ele>
<time>2026-08-31T20:07:46.000Z</time>
</trkpt>
<trkpt lat="59.5473265" lon="31.1287276">
<ele>64.550003</ele>
<time>2026-08-31T20:07:49.000Z</time>
</trkpt>
<trkpt lat="59.5473085" lon="31.1289645">
<ele>63.099998</ele>
<time>2026-08-31T20:08:02.000Z</time>
</trkpt>
<trkpt lat="59.5472923" lon="31.1290951">
<ele>63.099998</ele>
<time>2026-08-31T20:08:08.000Z</time>
</trkpt>
<trkpt lat="59.5472767" lon="31.1291752">
<ele>63.099998</ele>
<time>2026-08-31T20:08:12.000Z</time>
</trkpt>
<trkpt lat="59.5472592" lon="31.1293194">
<ele>63.099998</ele>
<time>2026-08-31T20:08:20.000Z</time>
</trkpt>
<trkpt lat="59.5472481" lon="31.1293607">
<ele>63.099998</ele>
<time>2026-08-31T20:08:23.000Z</time>
</trkpt>
<trkpt lat="59.5472566" lon="31.1295442">
<ele>63.099998</ele>
<time>2026-08-31T20:08:33.000Z</time>
</trkpt>
<trkpt lat="59.5472220" lon="31.1297444">
<ele>63.099998</ele>
<time>2026-08-31T20:08:44.000Z</time>
</trkpt>
<trkpt lat="59.5471854" lon="31.1299320">
<ele>63.099998</ele>
<time>2026-08-31T20:08:55.000Z</time>
</trkpt>
<trkpt lat="59.5471722" lon="31.1299669">
<ele>63.099998</ele>
<time>2026-08-31T20:08:58.000Z</time>
</trkpt>
<trkpt lat="59.5470801" lon="31.1301551">
<ele>63.099998</ele>
<time>2026-08-31T20:09:09.000Z</time>
</trkpt>
<trkpt lat="59.5470519" lon="31.1303327">
<ele>62.620003</ele>
<time>2026-08-31T20:09:21.000Z</time>
</trkpt>
<trkpt lat="59.5469964" lon="31.1304431">
<ele>62.620003</ele>
<time>2026-08-31T20:09:33.000Z</time>
</trkpt>
<trkpt lat="59.5469812" lon="31.1304639">
<ele>63.579998</ele>
<time>2026-08-31T20:09:35.000Z</time>
</trkpt>
<trkpt lat="59.5469426" lon="31.1306259">
<ele>63.579998</ele>
<time>2026-08-31T20:09:44.000Z</time>
</trkpt>
<trkpt lat="59.5469396" lon="31.1306845">
<ele>63.579998</ele>
<time>2026-08-31T20:09:46.000Z</time>
</trkpt>
<trkpt lat="59.5469044" lon="31.1308855">
<ele>63.579998</ele>
<time>2026-08-31T20:09:57.000Z</time>
</trkpt>
<trkpt lat="59.5469040" lon="31.1309453">
<ele>63.579998</ele>
<time>2026-08-31T20:09:59.000Z</time>
</trkpt>
<trkpt lat="59.5468870" lon="31.1310313">
<ele>63.579998</ele>
<time>2026-08-31T20:10:03.000Z</time>
</trkpt>
<trkpt lat="59.5468391" lon="31.1311745">
<ele>63.579998</ele>
<time>2026-08-31T20:10:15.000Z</time>
</trkpt>
<trkpt lat="59.5468275" lon="31.1311980">
<ele>62.620003</ele>
<time>2026-08-31T20:10:21.000Z</time>
</trkpt>
<trkpt lat="59.5468023" lon="31.1312336">
<ele>62.620003</ele>
<time>2026-08-31T20:10:46.000Z</time>
</trkpt>
<trkpt lat="59.5467932" lon="31.1312525">
<ele>62.139999</ele>
<time>2026-08-31T20:11:11.000Z</time>
</trkpt>
<trkpt lat="59.5467903" lon="31.1312724">
<ele>62.139999</ele>
<time>2026-08-31T20:11:35.000Z</time>
</trkpt>
<trkpt lat="59.5467909" lon="31.1312773">
<ele>63.579998</ele>
<time>2026-08-31T20:11:38.000Z</time>
</trkpt>
<trkpt lat="59.5467957" lon="31.1313396">
<ele>61.660000</ele>
<time>2026-08-31T20:11:52.000Z</time>
</trkpt>
<trkpt lat="59.5467860" lon="31.1314780">
<ele>61.180000</ele>
<time>2026-08-31T20:12:03.000Z</time>
</trkpt>
<trkpt lat="59.5467869" lon="31.1315064">
<ele>61.180000</ele>
<time>2026-08-31T20:12:05.000Z</time>
</trkpt>
<trkpt lat="59.5467371" lon="31.1318390">
<ele>60.700001</ele>
<time>2026-08-31T20:12:18.000Z</time>
</trkpt>
<trkpt lat="59.5466798" lon="31.1321835">
<ele>60.700001</ele>
<time>2026-08-31T20:12:35.000Z</time>
</trkpt>
<trkpt lat="59.5466850" lon="31.1322092">
<ele>62.139999</ele>
<time>2026-08-31T20:12:39.000Z</time>
</trkpt>
<trkpt lat="59.5466661" lon="31.1323146">
<ele>60.700001</ele>
<time>2026-08-31T20:12:46.000Z</time>
</trkpt>
<trkpt lat="59.5466117" lon="31.1324987">
<ele>60.700001</ele>
<time>2026-08-31T20:12:58.000Z</time>
</trkpt>
<trkpt lat="59.5466042" lon="31.1325076">
<ele>60.700001</ele>
<time>2026-08-31T20:12:59.000Z</time>
</trkpt>
<trkpt lat="59.5465451" lon="31.1327026">
<ele>60.219997</ele>
<time>2026-08-31T20:13:13.000Z</time>
</trkpt>
<trkpt lat="59.5465155" lon="31.1328625">
<ele>60.219997</ele>
<time>2026-08-31T20:13:24.000Z</time>
</trkpt>
<trkpt lat="59.5464869" lon="31.1329352">
<ele>60.219997</ele>
<time>2026-08-31T20:13:33.000Z</time>
</trkpt>
<trkpt lat="59.5464591" lon="31.1329936">
<ele>60.219997</ele>
<time>2026-08-31T20:13:37.000Z</time>
</trkpt>
<trkpt lat="59.5464309" lon="31.1330382">
<ele>60.219997</ele>
<time>2026-08-31T20:13:41.000Z</time>
</trkpt>
<trkpt lat="59.5463970" lon="31.1331231">
<ele>60.219997</ele>
<time>2026-08-31T20:13:52.000Z</time>
</trkpt>
<trkpt lat="59.5463805" lon="31.1331806">
<ele>60.219997</ele>
<time>2026-08-31T20:13:56.000Z</time>
</trkpt>
<trkpt lat="59.5463590" lon="31.1332275">
<ele>60.219997</ele>
<time>2026-08-31T20:13:58.000Z</time>
</trkpt>
<trkpt lat="59.5463442" lon="31.1332900">
<ele>60.219997</ele>
<time>2026-08-31T20:14:01.000Z</time>
</trkpt>
<trkpt lat="59.5463170" lon="31.1333580">
<ele>60.219997</ele>
<time>2026-08-31T20:14:06.000Z</time>
</trkpt>
<trkpt lat="59.5462920" lon="31.1334187">
<ele>60.219997</ele>
<time>2026-08-31T20:14:10.000Z</time>
</trkpt>
<trkpt lat="59.5462475" lon="31.1335798">
<ele>60.219997</ele>
<time>2026-08-31T20:14:22.000Z</time>
</trkpt>
<trkpt lat="59.5462443" lon="31.1336004">
<ele>60.219997</ele>
<time>2026-08-31T20:14:23.000Z</time>
</trkpt>
<trkpt lat="59.5462077" lon="31.1336973">
<ele>60.219997</ele>
<time>2026-08-31T20:14:35.000Z</time>
</trkpt>
<trkpt lat="59.5462050" lon="31.1337188">
<ele>60.219997</ele>
<time>2026-08-31T20:14:58.000Z</time>
</trkpt>
<trkpt lat="59.5461797" lon="31.1337584">
<ele>60.219997</ele>
<time>2026-08-31T20:15:20.000Z</time>
</trkpt>
<trkpt lat="59.5461464" lon="31.1338471">
<ele>60.219997</ele>
<time>2026-08-31T20:15:29.000Z</time>
</trkpt>
<trkpt lat="59.5461764" lon="31.1340063">
<ele>60.219997</ele>
<time>2026-08-31T20:15:43.000Z</time>
</trkpt>
<trkpt lat="59.5462460" lon="31.1340980">
<ele>60.219997</ele>
<time>2026-08-31T20:15:59.000Z</time>
</trkpt>
<trkpt lat="59.5462568" lon="31.1341221">
<ele>60.700001</ele>
<time>2026-08-31T20:16:21.000Z</time>
</trkpt>
<trkpt lat="59.5462606" lon="31.1341166">
<ele>60.700001</ele>
<time>2026-08-31T20:16:49.000Z</time>
</trkpt>
<trkpt lat="59.5462693" lon="31.1340859">
<ele>59.740002</ele>
<time>2026-08-31T20:17:13.000Z</time>
</trkpt>
<trkpt lat="59.5462688" lon="31.1340861">
<ele>59.740002</ele>
<time>2026-08-31T20:17:38.000Z</time>
</trkpt>
<trkpt lat="59.5462022" lon="31.1340374">
<ele>59.740002</ele>
<time>2026-08-31T20:17:52.000Z</time>
</trkpt>
<trkpt lat="59.5461396" lon="31.1340923">
<ele>59.740002</ele>
<time>2026-08-31T20:17:58.000Z</time>
</trkpt>
<trkpt lat="59.5460657" lon="31.1342105">
<ele>59.740002</ele>
<time>2026-08-31T20:18:08.000Z</time>
</trkpt>
<trkpt lat="59.5460407" lon="31.1342545">
<ele>59.260002</ele>
<time>2026-08-31T20:18:13.000Z</time>
</trkpt>
<trkpt lat="59.5459982" lon="31.1344230">
<ele>59.260002</ele>
<time>2026-08-31T20:18:28.000Z</time>
</trkpt>
<trkpt lat="59.5459813" lon="31.1346131">
<ele>59.260002</ele>
<time>2026-08-31T20:18:39.000Z</time>
</trkpt>
<trkpt lat="59.5460261" lon="31.1347864">
<ele>59.260002</ele>
<time>2026-08-31T20:18:48.000Z</time>
</trkpt>
<trkpt lat="59.5460573" lon="31.1348906">
<ele>59.260002</ele>
<time>2026-08-31T20:18:55.000Z</time>
</trkpt>
<trkpt lat="59.5460488" lon="31.1349848">
<ele>59.260002</ele>
<time>2026-08-31T20:19:00.000Z</time>
</trkpt>
<trkpt lat="59.5460548" lon="31.1350410">
<ele>59.260002</ele>
<time>2026-08-31T20:19:03.000Z</time>
</trkpt>
<trkpt lat="59.5460701" lon="31.1351840">
<ele>58.299999</ele>
<time>2026-08-31T20:19:15.000Z</time>
</trkpt>
<trkpt lat="59.5460663" lon="31.1351851">
<ele>58.299999</ele>
<time>2026-08-31T20:19:18.000Z</time>
</trkpt>
<trkpt lat="59.5460698" lon="31.1351528">
<ele>58.299999</ele>
<time>2026-08-31T20:19:25.000Z</time>
</trkpt>
<trkpt lat="59.5460794" lon="31.1352117">
<ele>58.299999</ele>
<time>2026-08-31T20:19:34.000Z</time>
</trkpt>
<trkpt lat="59.5460748" lon="31.1352240">
<ele>58.779999</ele>
<time>2026-08-31T20:19:50.000Z</time>
</trkpt>
<trkpt lat="59.5460702" lon="31.1352102">
<ele>58.779999</ele>
<time>2026-08-31T20:20:01.000Z</time>
</trkpt>
<trkpt lat="59.5460890" lon="31.1351488">
<ele>59.260002</ele>
<time>2026-08-31T20:20:11.000Z</time>
</trkpt>
<trkpt lat="59.5460669" lon="31.1352044">
<ele>58.779999</ele>
<time>2026-08-31T20:20:27.000Z</time>
</trkpt>
<trkpt lat="59.5460671" lon="31.1352419">
<ele>58.779999</ele>
<time>2026-08-31T20:20:42.000Z</time>
</trkpt>
<trkpt lat="59.5460650" lon="31.1352453">
<ele>58.779999</ele>
<time>2026-08-31T20:20:58.000Z</time>
</trkpt>
<trkpt lat="59.5460829" lon="31.1352185">
<ele>58.779999</ele>
<time>2026-08-31T20:21:22.000Z</time>
</trkpt>
<trkpt lat="59.5460756" lon="31.1352320">
<ele>58.779999</ele>
<time>2026-08-31T20:21:44.000Z</time>
</trkpt>
<trkpt lat="59.5460770" lon="31.1352283">
<ele>56.860001</ele>
<time>2026-08-31T20:21:53.000Z</time>
</trkpt>
<trkpt lat="59.5460577" lon="31.1352040">
<ele>56.860001</ele>
<time>2026-08-31T20:22:08.000Z</time>
</trkpt>
<trkpt lat="59.5460522" lon="31.1351941">
<ele>58.779999</ele>
<time>2026-08-31T20:22:19.000Z</time>
</trkpt>
<trkpt lat="59.5460469" lon="31.1351434">
<ele>57.820000</ele>
<time>2026-08-31T20:22:36.000Z</time>
</trkpt>
<trkpt lat="59.5460265" lon="31.1350907">
<ele>57.820000</ele>
<time>2026-08-31T20:22:39.000Z</time>
</trkpt>
<trkpt lat="59.5460248" lon="31.1349967">
<ele>57.820000</ele>
<time>2026-08-31T20:22:44.000Z</time>
</trkpt>
<trkpt lat="59.5460120" lon="31.1348634">
<ele>57.820000</ele>
<time>2026-08-31T20:22:54.000Z</time>
</trkpt>
<trkpt lat="59.5460785" lon="31.1348267">
<ele>57.820000</ele>
<time>2026-08-31T20:23:06.000Z</time>
</trkpt>
<trkpt lat="59.5461721" lon="31.1348420">
<ele>57.820000</ele>
<time>2026-08-31T20:23:18.000Z</time>
</trkpt>
<trkpt lat="59.5462594" lon="31.1348690">
<ele>56.860001</ele>
<time>2026-08-31T20:23:33.000Z</time>
</trkpt>
<trkpt lat="59.5462917" lon="31.1348903">
<ele>56.860001</ele>
<time>2026-08-31T20:23:45.000Z</time>
</trkpt>
<trkpt lat="59.5463333" lon="31.1349136">
<ele>56.860001</ele>
<time>2026-08-31T20:23:57.000Z</time>
</trkpt>
<trkpt lat="59.5463481" lon="31.1349207">
<ele>58.299999</ele>
<time>2026-08-31T20:24:01.000Z</time>
</trkpt>
<trkpt lat="59.5463559" lon="31.1349235">
<ele>56.860001</ele>
<time>2026-08-31T20:24:06.000Z</time>
</trkpt>
<trkpt lat="59.5463822" lon="31.1349242">
<ele>56.860001</ele>
<time>2026-08-31T20:24:22.000Z</time>
</trkpt>
<trkpt lat="59.5464058" lon="31.1349634">
<ele>56.860001</ele>
<time>2026-08-31T20:24:31.000Z</time>
</trkpt>
<trkpt lat="59.5464328" lon="31.1349957">
<ele>56.860001</ele>
<time>2026-08-31T20:24:44.000Z</time>
</trkpt>
<trkpt lat="59.5464656" lon="31.1350353">
<ele>56.860001</ele>
<time>2026-08-31T20:24:54.000Z</time>
</trkpt>
<trkpt lat="59.5464997" lon="31.1351319">
<ele>56.860001</ele>
<time>2026-08-31T20:25:07.000Z</time>
</trkpt>
<trkpt lat="59.5464844" lon="31.1352475">
<ele>56.860001</ele>
<time>2026-08-31T20:25:19.000Z</time>
</trkpt>
<trkpt lat="59.5464601" lon="31.1353199">
<ele>56.860001</ele>
<time>2026-08-31T20:25:31.000Z</time>
</trkpt>
<trkpt lat="59.5464224" lon="31.1353358">
<ele>56.860001</ele>
<time>2026-08-31T20:25:41.000Z</time>
</trkpt>
<trkpt lat="59.5464113" lon="31.1353606">
<ele>56.860001</ele>
<time>2026-08-31T20:25:55.000Z</time>
</trkpt>
<trkpt lat="59.5463982" lon="31.1353752">
<ele>56.370003</ele>
<time>2026-08-31T20:26:18.000Z</time>
</trkpt>
<trkpt lat="59.5463474" lon="31.1353946">
<ele>55.889999</ele>
<time>2026-08-31T20:26:28.000Z</time>
</trkpt>
<trkpt lat="59.5462904" lon="31.1354651">
<ele>55.889999</ele>
<time>2026-08-31T20:26:40.000Z</time>
</trkpt>
<trkpt lat="59.5462781" lon="31.1354966">
<ele>57.339996</ele>
<time>2026-08-31T20:26:47.000Z</time>
</trkpt>
<trkpt lat="59.5462715" lon="31.1354373">
<ele>56.370003</ele>
<time>2026-08-31T20:27:05.000Z</time>
</trkpt>
<trkpt lat="59.5462577" lon="31.1353582">
<ele>55.889999</ele>
<time>2026-08-31T20:27:18.000Z</time>
</trkpt>
<trkpt lat="59.5462246" lon="31.1352687">
<ele>56.860001</ele>
<time>2026-08-31T20:27:33.000Z</time>
</trkpt>
<trkpt lat="59.5462623" lon="31.1352162">
<ele>56.860001</ele>
<time>2026-08-31T20:27:49.000Z</time>
</trkpt>
<trkpt lat="59.5462739" lon="31.1352039">
<ele>56.860001</ele>
<time>2026-08-31T20:28:04.000Z</time>
</trkpt>
<trkpt lat="59.5463276" lon="31.1352489">
<ele>56.860001</ele>
<time>2026-08-31T20:28:15.000Z</time>
</trkpt>
<trkpt lat="59.5463786" lon="31.1353325">
<ele>56.860001</ele>
<time>2026-08-31T20:28:28.000Z</time>
</trkpt>
<trkpt lat="59.5464361" lon="31.1353644">
<ele>56.860001</ele>
<time>2026-08-31T20:28:41.000Z</time>
</trkpt>
<trkpt lat="59.5464651" lon="31.1354631">
<ele>56.860001</ele>
<time>2026-08-31T20:28:57.000Z</time>
</trkpt>
<trkpt lat="59.5464863" lon="31.1355785">
<ele>56.860001</ele>
<time>2026-08-31T20:29:10.000Z</time>
</trkpt>
<trkpt lat="59.5465257" lon="31.1356722">
<ele>56.860001</ele>
<time>2026-08-31T20:29:20.000Z</time>
</trkpt>
<trkpt lat="59.5465547" lon="31.1357285">
<ele>56.860001</ele>
<time>2026-08-31T20:29:35.000Z</time>
</trkpt>
<trkpt lat="59.5465673" lon="31.1357530">
<ele>55.889999</ele>
<time>2026-08-31T20:29:37.000Z</time>
</trkpt>
<trkpt lat="59.5465847" lon="31.1358078">
<ele>56.860001</ele>
<time>2026-08-31T20:29:50.000Z</time>
</trkpt>
<trkpt lat="59.5466161" lon="31.1358857">
<ele>56.860001</ele>
<time>2026-08-31T20:30:01.000Z</time>
</trkpt>
<trkpt lat="59.5466365" lon="31.1359617">
<ele>56.860001</ele>
<time>2026-08-31T20:30:08.000Z</time>
</trkpt>
<trkpt lat="59.5466369" lon="31.1360177">
<ele>56.860001</ele>
<time>2026-08-31T20:30:12.000Z</time>
</trkpt>
<trkpt lat="59.5466533" lon="31.1360592">
<ele>56.860001</ele>
<time>2026-08-31T20:30:16.000Z</time>
</trkpt>
<trkpt lat="59.5466617" lon="31.1360886">
<ele>55.410000</ele>
<time>2026-08-31T20:30:20.000Z</time>
</trkpt>
<trkpt lat="59.5466696" lon="31.1362108">
<ele>55.410000</ele>
<time>2026-08-31T20:30:31.000Z</time>
</trkpt>
<trkpt lat="59.5466743" lon="31.1363382">
<ele>55.410000</ele>
<time>2026-08-31T20:30:42.000Z</time>
</trkpt>
<trkpt lat="59.5466904" lon="31.1364177">
<ele>55.410000</ele>
<time>2026-08-31T20:30:51.000Z</time>
</trkpt>
<trkpt lat="59.5466878" lon="31.1364347">
<ele>55.410000</ele>
<time>2026-08-31T20:30:52.000Z</time>
</trkpt>
<trkpt lat="59.5466500" lon="31.1365563">
<ele>55.410000</ele>
<time>2026-08-31T20:31:04.000Z</time>
</trkpt>
<trkpt lat="59.5466404" lon="31.1366016">
<ele>55.410000</ele>
<time>2026-08-31T20:31:17.000Z</time>
</trkpt>
<trkpt lat="59.5466414" lon="31.1365998">
<ele>56.860001</ele>
<time>2026-08-31T20:31:20.000Z</time>
</trkpt>
<trkpt lat="59.5466365" lon="31.1366028">
<ele>55.410000</ele>
<time>2026-08-31T20:31:25.000Z</time>
</trkpt>
<trkpt lat="59.5466134" lon="31.1366971">
<ele>55.410000</ele>
<time>2026-08-31T20:31:36.000Z</time>
</trkpt>
<trkpt lat="59.5466171" lon="31.1367269">
<ele>55.410000</ele>
<time>2026-08-31T20:31:53.000Z</time>
</trkpt>
<trkpt lat="59.5466191" lon="31.1368134">
<ele>55.410000</ele>
<time>2026-08-31T20:32:07.000Z</time>
</trkpt>
<trkpt lat="59.5466127" lon="31.1368519">
<ele>55.410000</ele>
<time>2026-08-31T20:32:23.000Z</time>
</trkpt>
<trkpt lat="59.5466131" lon="31.1368459">
<ele>56.860001</ele>
<time>2026-08-31T20:32:36.000Z</time>
</trkpt>
<trkpt lat="59.5466118" lon="31.1368415">
<ele>56.860001</ele>
<time>2026-08-31T20:32:59.000Z</time>
</trkpt>
<trkpt lat="59.5466036" lon="31.1368466">
<ele>56.860001</ele>
<time>2026-08-31T20:33:20.000Z</time>
</trkpt>
<trkpt lat="59.5466088" lon="31.1368394">
<ele>55.889999</ele>
<time>2026-08-31T20:33:37.000Z</time>
</trkpt>
<trkpt lat="59.5466184" lon="31.1368089">
<ele>55.410000</ele>
<time>2026-08-31T20:33:58.000Z</time>
</trkpt>
<trkpt lat="59.5466544" lon="31.1367124">
<ele>54.930000</ele>
<time>2026-08-31T20:34:09.000Z</time>
</trkpt>
<trkpt lat="59.5466831" lon="31.1366175">
<ele>54.930000</ele>
<time>2026-08-31T20:34:20.000Z</time>
</trkpt>
<trkpt lat="59.5466902" lon="31.1364257">
<ele>54.930000</ele>
<time>2026-08-31T20:34:34.000Z</time>
</trkpt>
<trkpt lat="59.5466690" lon="31.1363353">
<ele>54.930000</ele>
<time>2026-08-31T20:34:42.000Z</time>
</trkpt>
<trkpt lat="59.5466519" lon="31.1363160">
<ele>54.930000</ele>
<time>2026-08-31T20:34:44.000Z</time>
</trkpt>
<trkpt lat="59.5466264" lon="31.1361801">
<ele>55.889999</ele>
<time>2026-08-31T20:34:56.000Z</time>
</trkpt>
<trkpt lat="59.5465758" lon="31.1360764">
<ele>55.889999</ele>
<time>2026-08-31T20:35:10.000Z</time>
</trkpt>
<trkpt lat="59.5465203" lon="31.1359386">
<ele>55.889999</ele>
<time>2026-08-31T20:35:24.000Z</time>
</trkpt>
<trkpt lat="59.5464387" lon="31.1358988">
<ele>54.930000</ele>
<time>2026-08-31T20:35:39.000Z</time>
</trkpt>
<trkpt lat="59.5464130" lon="31.1358614">
<ele>54.930000</ele>
<time>2026-08-31T20:35:52.000Z</time>
</trkpt>
<trkpt lat="59.5463682" lon="31.1358811">
<ele>54.930000</ele>
<time>2026-08-31T20:36:03.000Z</time>
</trkpt>
<trkpt lat="59.5463107" lon="31.1358784">
<ele>54.450001</ele>
<time>2026-08-31T20:36:17.000Z</time>
</trkpt>
<trkpt lat="59.5463106" lon="31.1358817">
<ele>54.450001</ele>
<time>2026-08-31T20:36:33.000Z</time>
</trkpt>
<trkpt lat="59.5463254" lon="31.1357607">
<ele>54.450001</ele>
<time>2026-08-31T20:36:48.000Z</time>
</trkpt>
<trkpt lat="59.5463374" lon="31.1357369">
<ele>54.450001</ele>
<time>2026-08-31T20:36:51.000Z</time>
</trkpt>
<trkpt lat="59.5463846" lon="31.1356054">
<ele>54.450001</ele>
<time>2026-08-31T20:37:02.000Z</time>
</trkpt>
<trkpt lat="59.5463924" lon="31.1355573">
<ele>54.450001</ele>
<time>2026-08-31T20:37:07.000Z</time>
</trkpt>
<trkpt lat="59.5464286" lon="31.1354501">
<ele>54.450001</ele>
<time>2026-08-31T20:37:20.000Z</time>
</trkpt>
<trkpt lat="59.5464384" lon="31.1354402">
<ele>55.889999</ele>
<time>2026-08-31T20:37:31.000Z</time>
</trkpt>
<trkpt lat="59.5464880" lon="31.1353301">
<ele>55.889999</ele>
<time>2026-08-31T20:37:44.000Z</time>
</trkpt>
<trkpt lat="59.5465666" lon="31.1352170">
<ele>54.450001</ele>
<time>2026-08-31T20:37:58.000Z</time>
</trkpt>
<trkpt lat="59.5466241" lon="31.1352055">
<ele>54.450001</ele>
<time>2026-08-31T20:38:11.000Z</time>
</trkpt>
<trkpt lat="59.5467132" lon="31.1351035">
<ele>54.450001</ele>
<time>2026-08-31T20:38:24.000Z</time>
</trkpt>
<trkpt lat="59.5467089" lon="31.1350770">
<ele>54.450001</ele>
<time>2026-08-31T20:38:38.000Z</time>
</trkpt>
<trkpt lat="59.5467106" lon="31.1350864">
<ele>54.450001</ele>
<time>2026-08-31T20:38:54.000Z</time>
</trkpt>
<trkpt lat="59.5466984" lon="31.1350577">
<ele>53.969997</ele>
<time>2026-08-31T20:39:02.000Z</time>
</trkpt>
<trkpt lat="59.5466457" lon="31.1350091">
<ele>53.969997</ele>
<time>2026-08-31T20:39:11.000Z</time>
</trkpt>
<trkpt lat="59.5465819" lon="31.1349466">
<ele>53.969997</ele>
<time>2026-08-31T20:39:22.000Z</time>
</trkpt>
<trkpt lat="59.5465693" lon="31.1349443">
<ele>53.969997</ele>
<time>2026-08-31T20:39:31.000Z</time>
</trkpt>
<trkpt lat="59.5465683" lon="31.1349446">
<ele>53.969997</ele>
<time>2026-08-31T20:39:48.000Z</time>
</trkpt>
<trkpt lat="59.5465591" lon="31.1349342">
<ele>53.969997</ele>
<time>2026-08-31T20:40:04.000Z</time>
</trkpt>
<trkpt lat="59.5465552" lon="31.1349310">
<ele>53.969997</ele>
<time>2026-08-31T20:40:25.000Z</time>
</trkpt>
<trkpt lat="59.5465480" lon="31.1348664">
<ele>53.490002</ele>
<time>2026-08-31T20:40:44.000Z</time>
</trkpt>
<trkpt lat="59.5465379" lon="31.1348061">
<ele>53.490002</ele>
<time>2026-08-31T20:40:53.000Z</time>
</trkpt>
<trkpt lat="59.5465298" lon="31.1348009">
<ele>53.490002</ele>
<time>2026-08-31T20:41:13.000Z</time>
</trkpt>
<trkpt lat="59.5465228" lon="31.1348123">
<ele>54.930000</ele>
<time>2026-08-31T20:41:33.000Z</time>
</trkpt>
<trkpt lat="59.5465184" lon="31.1348166">
<ele>53.490002</ele>
<time>2026-08-31T20:41:45.000Z</time>
</trkpt>
<trkpt lat="59.5465181" lon="31.1348248">
<ele>54.450001</ele>
<time>2026-08-31T20:42:05.000Z</time>
</trkpt>
<trkpt lat="59.5465185" lon="31.1348175">
<ele>54.450001</ele>
<time>2026-08-31T20:42:23.000Z</time>
</trkpt>
<trkpt lat="59.5465222" lon="31.1348148">
<ele>54.450001</ele>
<time>2026-08-31T20:42:46.000Z</time>
</trkpt>
<trkpt lat="59.5465234" lon="31.1348230">
<ele>53.490002</ele>
<time>2026-08-31T20:43:15.000Z</time>
</trkpt>
<trkpt lat="59.5465016" lon="31.1348008">
<ele>53.490002</ele>
<time>2026-08-31T20:43:27.000Z</time>
</trkpt>
<trkpt lat="59.5464925" lon="31.1348008">
<ele>53.490002</ele>
<time>2026-08-31T20:43:39.000Z</time>
</trkpt>
<trkpt lat="59.5464578" lon="31.1347524">
<ele>53.490002</ele>
<time>2026-08-31T20:43:51.000Z</time>
</trkpt>
<trkpt lat="59.5463775" lon="31.1346717">
<ele>53.490002</ele>
<time>2026-08-31T20:44:06.000Z</time>
</trkpt>
<trkpt lat="59.5462746" lon="31.1345886">
<ele>53.490002</ele>
<time>2026-08-31T20:44:18.000Z</time>
</trkpt>
<trkpt lat="59.5462426" lon="31.1345870">
<ele>54.450001</ele>
<time>2026-08-31T20:44:34.000Z</time>
</trkpt>
<trkpt lat="59.5462365" lon="31.1345899">
<ele>54.450001</ele>
<time>2026-08-31T20:44:54.000Z</time>
</trkpt>
<trkpt lat="59.5461468" lon="31.1347134">
<ele>54.450001</ele>
<time>2026-08-31T20:45:09.000Z</time>
</trkpt>
<trkpt lat="59.5460761" lon="31.1349207">
<ele>54.450001</ele>
<time>2026-08-31T20:45:27.000Z</time>
</trkpt>
<trkpt lat="59.5460687" lon="31.1349504">
<ele>54.450001</ele>
<time>2026-08-31T20:45:31.000Z</time>
</trkpt>
<trkpt lat="59.5460586" lon="31.1351687">
<ele>53.490002</ele>
<time>2026-08-31T20:45:43.000Z</time>
</trkpt>
<trkpt lat="59.5460519" lon="31.1351858">
<ele>53.490002</ele>
<time>2026-08-31T20:45:56.000Z</time>
</trkpt>
<trkpt lat="59.5460606" lon="31.1351893">
<ele>53.490002</ele>
<time>2026-08-31T20:46:13.000Z</time>
</trkpt>
<trkpt lat="59.5460606" lon="31.1351718">
<ele>53.490002</ele>
<time>2026-08-31T20:46:34.000Z</time>
</trkpt>
<trkpt lat="59.5460724" lon="31.1352029">
<ele>52.529999</ele>
<time>2026-08-31T20:46:48.000Z</time>
</trkpt>
<trkpt lat="59.5460771" lon="31.1352050">
<ele>52.529999</ele>
<time>2026-08-31T20:47:07.000Z</time>
</trkpt>
<trkpt lat="59.5460802" lon="31.1352140">
<ele>52.529999</ele>
<time>2026-08-31T20:47:22.000Z</time>
</trkpt>
<trkpt lat="59.5460747" lon="31.1352077">
<ele>53.969997</ele>
<time>2026-08-31T20:47:31.000Z</time>
</trkpt>
<trkpt lat="59.5460786" lon="31.1352086">
<ele>53.969997</ele>
<time>2026-08-31T20:47:49.000Z</time>
</trkpt>
<trkpt lat="59.5460735" lon="31.1352060">
<ele>53.969997</ele>
<time>2026-08-31T20:48:08.000Z</time>
</trkpt>
<trkpt lat="59.5460750" lon="31.1351972">
<ele>53.969997</ele>
<time>2026-08-31T20:48:34.000Z</time>
</trkpt>
<trkpt lat="59.5460698" lon="31.1352065">
<ele>53.969997</ele>
<time>2026-08-31T20:48:49.000Z</time>
</trkpt>
<trkpt lat="59.5460701" lon="31.1352086">
<ele>53.969997</ele>
<time>2026-08-31T20:49:06.000Z</time>
</trkpt>
<trkpt lat="59.5460701" lon="31.1351956">
<ele>53.969997</ele>
<time>2026-08-31T20:49:18.000Z</time>
</trkpt>
<trkpt lat="59.5460679" lon="31.1351980">
<ele>53.969997</ele>
<time>2026-08-31T20:49:34.000Z</time>
</trkpt>
<trkpt lat="59.5460667" lon="31.1352022">
<ele>53.969997</ele>
<time>2026-08-31T20:49:48.000Z</time>
</trkpt>
<trkpt lat="59.5460667" lon="31.1351893">
<ele>53.969997</ele>
<time>2026-08-31T20:50:08.000Z</time>
</trkpt>
<trkpt lat="59.5460698" lon="31.1351826">
<ele>53.969997</ele>
<time>2026-08-31T20:50:26.000Z</time>
</trkpt>
<trkpt lat="59.5460751" lon="31.1351812">
<ele>53.969997</ele>
<time>2026-08-31T20:50:41.000Z</time>
</trkpt>
<trkpt lat="59.5460749" lon="31.1351783">
<ele>53.969997</ele>
<time>2026-08-31T20:50:58.000Z</time>
</trkpt>
<trkpt lat="59.5460750" lon="31.1351731">
<ele>53.969997</ele>
<time>2026-08-31T20:51:10.000Z</time>
</trkpt>
<trkpt lat="59.5460714" lon="31.1351720">
<ele>53.969997</ele>
<time>2026-08-31T20:51:33.000Z</time>
</trkpt>
<trkpt lat="59.5460636" lon="31.1351755">
<ele>53.969997</ele>
<time>2026-08-31T20:51:55.000Z</time>
</trkpt>
<trkpt lat="59.5460618" lon="31.1351848">
<ele>53.969997</ele>
<time>2026-08-31T20:52:11.000Z</time>
</trkpt>
<trkpt lat="59.5460656" lon="31.1351907">
<ele>53.969997</ele>
<time>2026-08-31T20:52:28.000Z</time>
</trkpt>
<trkpt lat="59.5460670" lon="31.1351900">
<ele>53.969997</ele>
<time>2026-08-31T20:52:45.000Z</time>
</trkpt>
<trkpt lat="59.5460714" lon="31.1351951">
<ele>53.969997</ele>
<time>2026-08-31T20:52:59.000Z</time>
</trkpt>
<trkpt lat="59.5460702" lon="31.1352017">
<ele>53.969997</ele>
<time>2026-08-31T20:53:18.000Z</time>
</trkpt>
<trkpt lat="59.5460712" lon="31.1351851">
<ele>53.010002</ele>
<time>2026-08-31T20:53:49.000Z</time>
</trkpt>
<trkpt lat="59.5460672" lon="31.1351903">
<ele>53.010002</ele>
<time>2026-08-31T20:54:22.000Z</time>
</trkpt>
<trkpt lat="59.5460787" lon="31.1352628">
<ele>53.010002</ele>
<time>2026-08-31T20:54:39.000Z</time>
</trkpt>
<trkpt lat="59.5460828" lon="31.1352418">
<ele>53.010002</ele>
<time>2026-08-31T20:54:53.000Z</time>
</trkpt>
<trkpt lat="59.5460711" lon="31.1352426">
<ele>53.010002</ele>
<time>2026-08-31T20:55:09.000Z</time>
</trkpt>
<trkpt lat="59.5460761" lon="31.1352511">
<ele>53.010002</ele>
<time>2026-08-31T20:55:24.000Z</time>
</trkpt>
<trkpt lat="59.5460830" lon="31.1352551">
<ele>53.010002</ele>
<time>2026-08-31T20:55:25.000Z</time>
</trkpt>
<trkpt lat="59.5461128" lon="31.1353123">
<ele>53.010002</ele>
<time>2026-08-31T20:55:37.000Z</time>
</trkpt>
<trkpt lat="59.5461302" lon="31.1353741">
<ele>52.529999</ele>
<time>2026-08-31T20:55:52.000Z</time>
</trkpt>
<trkpt lat="59.5461482" lon="31.1354098">
<ele>52.529999</ele>
<time>2026-08-31T20:56:05.000Z</time>
</trkpt>
<trkpt lat="59.5461659" lon="31.1354535">
<ele>52.529999</ele>
<time>2026-08-31T20:56:17.000Z</time>
</trkpt>
<trkpt lat="59.5461620" lon="31.1354676">
<ele>52.529999</ele>
<time>2026-08-31T20:56:32.000Z</time>
</trkpt>
<trkpt lat="59.5461574" lon="31.1354632">
<ele>52.529999</ele>
<time>2026-08-31T20:56:47.000Z</time>
</trkpt>
<trkpt lat="59.5461521" lon="31.1354548">
<ele>52.529999</ele>
<time>2026-08-31T20:56:55.000Z</time>
</trkpt>
<trkpt lat="59.5461273" lon="31.1353708">
<ele>52.529999</ele>
<time>2026-08-31T20:57:10.000Z</time>
</trkpt>
<trkpt lat="59.5460679" lon="31.1352128">
<ele>52.529999</ele>
<time>2026-08-31T20:57:23.000Z</time>
</trkpt>
<trkpt lat="59.5460541" lon="31.1352371">
<ele>52.529999</ele>
<time>2026-08-31T20:57:32.000Z</time>
</trkpt>
<trkpt lat="59.5460455" lon="31.1352446">
<ele>52.529999</ele>
<time>2026-08-31T20:57:43.000Z</time>
</trkpt>
<trkpt lat="59.5460388" lon="31.1352840">
<ele>52.529999</ele>
<time>2026-08-31T20:57:53.000Z</time>
</trkpt>
<trkpt lat="59.5460421" lon="31.1353824">
<ele>52.529999</ele>
<time>2026-08-31T20:58:07.000Z</time>
</trkpt>
<trkpt lat="59.5460441" lon="31.1353892">
<ele>52.529999</ele>
<time>2026-08-31T20:58:09.000Z</time>
</trkpt>
<trkpt lat="59.5460498" lon="31.1353982">
<ele>52.529999</ele>
<time>2026-08-31T20:58:14.000Z</time>
</trkpt>
<trkpt lat="59.5460708" lon="31.1354901">
<ele>52.529999</ele>
<time>2026-08-31T20:58:25.000Z</time>
</trkpt>
<trkpt lat="59.5460907" lon="31.1355669">
<ele>52.529999</ele>
<time>2026-08-31T20:58:36.000Z</time>
</trkpt>
<trkpt lat="59.5461228" lon="31.1356966">
<ele>52.529999</ele>
<time>2026-08-31T20:58:48.000Z</time>
</trkpt>
<trkpt lat="59.5461569" lon="31.1358613">
<ele>52.529999</ele>
<time>2026-08-31T20:59:01.000Z</time>
</trkpt>
<trkpt lat="59.5461926" lon="31.1359791">
<ele>52.529999</ele>
<time>2026-08-31T20:59:12.000Z</time>
</trkpt>
<trkpt lat="59.5462094" lon="31.1360616">
<ele>52.529999</ele>
<time>2026-08-31T20:59:25.000Z</time>
</trkpt>
<trkpt lat="59.5462216" lon="31.1361137">
<ele>52.529999</ele>
<time>2026-08-31T20:59:38.000Z</time>
</trkpt>
<trkpt lat="59.5462340" lon="31.1361659">
<ele>52.529999</ele>
<time>2026-08-31T20:59:52.000Z</time>
</trkpt>
<trkpt lat="59.5462400" lon="31.1361991">
<ele>52.049999</ele>
<time>2026-08-31T21:00:09.000Z</time>
</trkpt>
<trkpt lat="59.5462468" lon="31.1362198">
<ele>52.049999</ele>
<time>2026-08-31T21:00:25.000Z</time>
</trkpt>
<trkpt lat="59.5462427" lon="31.1362078">
<ele>52.049999</ele>
<time>2026-08-31T21:00:39.000Z</time>
</trkpt>
<trkpt lat="59.5462378" lon="31.1362011">
<ele>52.049999</ele>
<time>2026-08-31T21:00:41.000Z</time>
</trkpt>
<trkpt lat="59.5462098" lon="31.1362127">
<ele>52.049999</ele>
<time>2026-08-31T21:00:45.000Z</time>
</trkpt>
<trkpt lat="59.5461532" lon="31.1362845">
<ele>52.049999</ele>
<time>2026-08-31T21:00:57.000Z</time>
</trkpt>
<trkpt lat="59.5461113" lon="31.1363327">
<ele>52.049999</ele>
<time>2026-08-31T21:01:07.000Z</time>
</trkpt>
<trkpt lat="59.5460850" lon="31.1363438">
<ele>53.010002</ele>
<time>2026-08-31T21:01:19.000Z</time>
</trkpt>
<trkpt lat="59.5460797" lon="31.1363063">
<ele>53.010002</ele>
<time>2026-08-31T21:01:31.000Z</time>
</trkpt>
<trkpt lat="59.5460581" lon="31.1363029">
<ele>53.010002</ele>
<time>2026-08-31T21:01:43.000Z</time>
</trkpt>
<trkpt lat="59.5460107" lon="31.1363422">
<ele>52.049999</ele>
<time>2026-08-31T21:01:55.000Z</time>
</trkpt>
<trkpt lat="59.5459447" lon="31.1364239">
<ele>52.049999</ele>
<time>2026-08-31T21:02:05.000Z</time>
</trkpt>
<trkpt lat="59.5459119" lon="31.1365395">
<ele>52.049999</ele>
<time>2026-08-31T21:02:19.000Z</time>
</trkpt>
<trkpt lat="59.5459274" lon="31.1365894">
<ele>52.049999</ele>
<time>2026-08-31T21:02:23.000Z</time>
</trkpt>
<trkpt lat="59.5459714" lon="31.1366378">
<ele>52.049999</ele>
<time>2026-08-31T21:02:37.000Z</time>
</trkpt>
<trkpt lat="59.5460485" lon="31.1366294">
<ele>51.570000</ele>
<time>2026-08-31T21:02:47.000Z</time>
</trkpt>
<trkpt lat="59.5461143" lon="31.1365835">
<ele>51.570000</ele>
<time>2026-08-31T21:02:59.000Z</time>
</trkpt>
<trkpt lat="59.5461719" lon="31.1365581">
<ele>51.570000</ele>
<time>2026-08-31T21:03:10.000Z</time>
</trkpt>
<trkpt lat="59.5462113" lon="31.1365482">
<ele>51.570000</ele>
<time>2026-08-31T21:03:23.000Z</time>
</trkpt>
<trkpt lat="59.5462289" lon="31.1365271">
<ele>51.570000</ele>
<time>2026-08-31T21:03:36.000Z</time>
</trkpt>
<trkpt lat="59.5462342" lon="31.1365736">
<ele>51.570000</ele>
<time>2026-08-31T21:03:41.000Z</time>
</trkpt>
<trkpt lat="59.5463329" lon="31.1366142">
<ele>51.570000</ele>
<time>2026-08-31T21:03:54.000Z</time>
</trkpt>
<trkpt lat="59.5463903" lon="31.1366463">
<ele>51.570000</ele>
<time>2026-08-31T21:04:05.000Z</time>
</trkpt>
<trkpt lat="59.5464028" lon="31.1366346">
<ele>51.570000</ele>
<time>2026-08-31T21:04:24.000Z</time>
</trkpt>
<trkpt lat="59.5464116" lon="31.1366229">
<ele>51.570000</ele>
<time>2026-08-31T21:04:45.000Z</time>
</trkpt>
<trkpt lat="59.5463989" lon="31.1366864">
<ele>51.570000</ele>
<time>2026-08-31T21:04:59.000Z</time>
</trkpt>
<trkpt lat="59.5463347" lon="31.1367546">
<ele>51.570000</ele>
<time>2026-08-31T21:05:09.000Z</time>
</trkpt>
<trkpt lat="59.5462465" lon="31.1367240">
<ele>51.089996</ele>
<time>2026-08-31T21:05:21.000Z</time>
</trkpt>
<trkpt lat="59.5461315" lon="31.1367763">
<ele>51.089996</ele>
<time>2026-08-31T21:05:33.000Z</time>
</trkpt>
<trkpt lat="59.5461164" lon="31.1367542">
<ele>51.089996</ele>
<time>2026-08-31T21:05:35.000Z</time>
</trkpt>
<trkpt lat="59.5460179" lon="31.1367172">
<ele>51.089996</ele>
<time>2026-08-31T21:05:48.000Z</time>
</trkpt>
<trkpt lat="59.5459182" lon="31.1366804">
<ele>51.089996</ele>
<time>2026-08-31T21:06:02.000Z</time>
</trkpt>
<trkpt lat="59.5458321" lon="31.1366311">
<ele>51.089996</ele>
<time>2026-08-31T21:06:16.000Z</time>
</trkpt>
<trkpt lat="59.5457637" lon="31.1366454">
<ele>52.049999</ele>
<time>2026-08-31T21:06:27.000Z</time>
</trkpt>
<trkpt lat="59.5456487" lon="31.1366551">
<ele>52.049999</ele>
<time>2026-08-31T21:06:38.000Z</time>
</trkpt>
<trkpt lat="59.5455895" lon="31.1366476">
<ele>51.089996</ele>
<time>2026-08-31T21:06:51.000Z</time>
</trkpt>
<trkpt lat="59.5455432" lon="31.1366045">
<ele>51.089996</ele>
<time>2026-08-31T21:07:02.000Z</time>
</trkpt>
<trkpt lat="59.5454534" lon="31.1366295">
<ele>51.089996</ele>
<time>2026-08-31T21:07:13.000Z</time>
</trkpt>
<trkpt lat="59.5454294" lon="31.1367021">
<ele>51.089996</ele>
<time>2026-08-31T21:07:24.000Z</time>
</trkpt>
<trkpt lat="59.5454008" lon="31.1367354">
<ele>51.089996</ele>
<time>2026-08-31T21:07:37.000Z</time>
</trkpt>
<trkpt lat="59.5453382" lon="31.1367816">
<ele>51.089996</ele>
<time>2026-08-31T21:07:50.000Z</time>
</trkpt>
<trkpt lat="59.5452876" lon="31.1367860">
<ele>51.089996</ele>
<time>2026-08-31T21:08:03.000Z</time>
</trkpt>
<trkpt lat="59.5452629" lon="31.1367647">
<ele>51.089996</ele>
<time>2026-08-31T21:08:22.000Z</time>
</trkpt>
<trkpt lat="59.5452249" lon="31.1367562">
<ele>51.089996</ele>
<time>2026-08-31T21:08:35.000Z</time>
</trkpt>
<trkpt lat="59.5452314" lon="31.1367190">
<ele>51.089996</ele>
<time>2026-08-31T21:08:51.000Z</time>
</trkpt>
<trkpt lat="59.5452348" lon="31.1367401">
<ele>51.089996</ele>
<time>2026-08-31T21:09:05.000Z</time>
</trkpt>
<trkpt lat="59.5452408" lon="31.1367753">
<ele>51.089996</ele>
<time>2026-08-31T21:09:08.000Z</time>
</trkpt>
<trkpt lat="59.5452165" lon="31.1369066">
<ele>51.089996</ele>
<time>2026-08-31T21:09:17.000Z</time>
</trkpt>
<trkpt lat="59.5452101" lon="31.1369289">
<ele>51.089996</ele>
<time>2026-08-31T21:09:19.000Z</time>
</trkpt>
<trkpt lat="59.5451866" lon="31.1369962">
<ele>51.089996</ele>
<time>2026-08-31T21:09:24.000Z</time>
</trkpt>
<trkpt lat="59.5451230" lon="31.1371843">
<ele>50.130001</ele>
<time>2026-08-31T21:09:36.000Z</time>
</trkpt>
<trkpt lat="59.5450969" lon="31.1372715">
<ele>51.570000</ele>
<time>2026-08-31T21:09:43.000Z</time>
</trkpt>
<trkpt lat="59.5450810" lon="31.1373217">
<ele>51.570000</ele>
<time>2026-08-31T21:09:46.000Z</time>
</trkpt>
<trkpt lat="59.5450369" lon="31.1375114">
<ele>51.570000</ele>
<time>2026-08-31T21:09:58.000Z</time>
</trkpt>
<trkpt lat="59.5450337" lon="31.1375490">
<ele>51.570000</ele>
<time>2026-08-31T21:10:01.000Z</time>
</trkpt>
<trkpt lat="59.5449881" lon="31.1376688">
<ele>51.570000</ele>
<time>2026-08-31T21:10:09.000Z</time>
</trkpt>
<trkpt lat="59.5449510" lon="31.1378098">
<ele>51.570000</ele>
<time>2026-08-31T21:10:17.000Z</time>
</trkpt>
<trkpt lat="59.5449312" lon="31.1380205">
<ele>50.610001</ele>
<time>2026-08-31T21:10:29.000Z</time>
</trkpt>
<trkpt lat="59.5449047" lon="31.1382296">
<ele>50.610001</ele>
<time>2026-08-31T21:10:40.000Z</time>
</trkpt>
<trkpt lat="59.5448888" lon="31.1384127">
<ele>49.650002</ele>
<time>2026-08-31T21:10:51.000Z</time>
</trkpt>
<trkpt lat="59.5448710" lon="31.1386253">
<ele>49.650002</ele>
<time>2026-08-31T21:11:02.000Z</time>
</trkpt>
<trkpt lat="59.5448698" lon="31.1388450">
<ele>49.650002</ele>
<time>2026-08-31T21:11:14.000Z</time>
</trkpt>
<trkpt lat="59.5448370" lon="31.1389158">
<ele>49.650002</ele>
<time>2026-08-31T21:11:26.000Z</time>
</trkpt>
<trkpt lat="59.5448605" lon="31.1389291">
<ele>49.650002</ele>
<time>2026-08-31T21:11:35.000Z</time>
</trkpt>
<trkpt lat="59.5448473" lon="31.1390183">
<ele>49.650002</ele>
<time>2026-08-31T21:11:47.000Z</time>
</trkpt>
<trkpt lat="59.5448308" lon="31.1390906">
<ele>49.650002</ele>
<time>2026-08-31T21:11:59.000Z</time>
</trkpt>
<trkpt lat="59.5448089" lon="31.1391407">
<ele>49.650002</ele>
<time>2026-08-31T21:12:10.000Z</time>
</trkpt>
<trkpt lat="59.5447577" lon="31.1392657">
<ele>49.650002</ele>
<time>2026-08-31T21:12:22.000Z</time>
</trkpt>
<trkpt lat="59.5447166" lon="31.1393460">
<ele>49.650002</ele>
<time>2026-08-31T21:12:31.000Z</time>
</trkpt>
<trkpt lat="59.5446261" lon="31.1394247">
<ele>49.650002</ele>
<time>2026-08-31T21:12:42.000Z</time>
</trkpt>
<trkpt lat="59.5445813" lon="31.1394936">
<ele>51.089996</ele>
<time>2026-08-31T21:12:47.000Z</time>
</trkpt>
<trkpt lat="59.5445649" lon="31.1395356">
<ele>51.089996</ele>
<time>2026-08-31T21:12:50.000Z</time>
</trkpt>
<trkpt lat="59.5445250" lon="31.1395980">
<ele>51.089996</ele>
<time>2026-08-31T21:12:56.000Z</time>
</trkpt>
<trkpt lat="59.5444973" lon="31.1396216">
<ele>51.089996</ele>
<time>2026-08-31T21:12:59.000Z</time>
</trkpt>
<trkpt lat="59.5444621" lon="31.1396366">
<ele>51.089996</ele>
<time>2026-08-31T21:13:02.000Z</time>
</trkpt>
<trkpt lat="59.5444200" lon="31.1397396">
<ele>51.089996</ele>
<time>2026-08-31T21:13:10.000Z</time>
</trkpt>
<trkpt lat="59.5443992" lon="31.1397871">
<ele>51.089996</ele>
<time>2026-08-31T21:13:14.000Z</time>
</trkpt>
<trkpt lat="59.5443355" lon="31.1399004">
<ele>51.089996</ele>
<time>2026-08-31T21:13:25.000Z</time>
</trkpt>
<trkpt lat="59.5443333" lon="31.1399362">
<ele>51.570000</ele>
<time>2026-08-31T21:13:41.000Z</time>
</trkpt>
<trkpt lat="59.5443418" lon="31.1399410">
<ele>51.570000</ele>
<time>2026-08-31T21:13:57.000Z</time>
</trkpt>
<trkpt lat="59.5443533" lon="31.1399500">
<ele>50.610001</ele>
<time>2026-08-31T21:14:18.000Z</time>
</trkpt>
<trkpt lat="59.5443552" lon="31.1399306">
<ele>50.610001</ele>
<time>2026-08-31T21:14:34.000Z</time>
</trkpt>
<trkpt lat="59.5443433" lon="31.1399722">
<ele>51.570000</ele>
<time>2026-08-31T21:14:54.000Z</time>
</trkpt>
<trkpt lat="59.5443407" lon="31.1400022">
<ele>49.650002</ele>
<time>2026-08-31T21:15:23.000Z</time>
</trkpt>
<trkpt lat="59.5443309" lon="31.1400158">
<ele>49.650002</ele>
<time>2026-08-31T21:15:41.000Z</time>
</trkpt>
<trkpt lat="59.5443319" lon="31.1400249">
<ele>49.650002</ele>
<time>2026-08-31T21:15:45.000Z</time>
</trkpt>
<trkpt lat="59.5443213" lon="31.1400726">
<ele>49.650002</ele>
<time>2026-08-31T21:15:49.000Z</time>
</trkpt>
<trkpt lat="59.5442565" lon="31.1401975">
<ele>49.650002</ele>
<time>2026-08-31T21:16:00.000Z</time>
</trkpt>
<trkpt lat="59.5441949" lon="31.1403645">
<ele>49.650002</ele>
<time>2026-08-31T21:16:11.000Z</time>
</trkpt>
<trkpt lat="59.5441771" lon="31.1404663">
<ele>49.650002</ele>
<time>2026-08-31T21:16:16.000Z</time>
</trkpt>
<trkpt lat="59.5441607" lon="31.1405748">
<ele>49.650002</ele>
<time>2026-08-31T21:16:23.000Z</time>
</trkpt>
<trkpt lat="59.5441325" lon="31.1407484">
<ele>49.650002</ele>
<time>2026-08-31T21:16:36.000Z</time>
</trkpt>
<trkpt lat="59.5441192" lon="31.1409755">
<ele>49.160000</ele>
<time>2026-08-31T21:16:49.000Z</time>
</trkpt>
<trkpt lat="59.5441061" lon="31.1411444">
<ele>49.160000</ele>
<time>2026-08-31T21:17:00.000Z</time>
</trkpt>
<trkpt lat="59.5441084" lon="31.1412328">
<ele>50.130001</ele>
<time>2026-08-31T21:17:05.000Z</time>
</trkpt>
<trkpt lat="59.5441029" lon="31.1414124">
<ele>50.130001</ele>
<time>2026-08-31T21:17:16.000Z</time>
</trkpt>
<trkpt lat="59.5441028" lon="31.1414148">
<ele>50.130001</ele>
<time>2026-08-31T21:17:17.000Z</time>
</trkpt>
<trkpt lat="59.5440547" lon="31.1417076">
<ele>50.610001</ele>
<time>2026-08-31T21:17:30.000Z</time>
</trkpt>
<trkpt lat="59.5440320" lon="31.1417924">
<ele>50.610001</ele>
<time>2026-08-31T21:17:38.000Z</time>
</trkpt>
<trkpt lat="59.5439655" lon="31.1420847">
<ele>49.650002</ele>
<time>2026-08-31T21:17:55.000Z</time>
</trkpt>
<trkpt lat="59.5439391" lon="31.1421380">
<ele>49.650002</ele>
<time>2026-08-31T21:18:06.000Z</time>
</trkpt>
<trkpt lat="59.5439147" lon="31.1422388">
<ele>49.650002</ele>
<time>2026-08-31T21:18:17.000Z</time>
</trkpt>
<trkpt lat="59.5438100" lon="31.1424561">
<ele>49.160000</ele>
<time>2026-08-31T21:18:31.000Z</time>
</trkpt>
<trkpt lat="59.5437553" lon="31.1426019">
<ele>50.610001</ele>
<time>2026-08-31T21:18:42.000Z</time>
</trkpt>
<trkpt lat="59.5437492" lon="31.1426440">
<ele>50.610001</ele>
<time>2026-08-31T21:18:49.000Z</time>
</trkpt>
<trkpt lat="59.5437190" lon="31.1426763">
<ele>49.160000</ele>
<time>2026-08-31T21:18:51.000Z</time>
</trkpt>
<trkpt lat="59.5436529" lon="31.1428127">
<ele>49.160000</ele>
<time>2026-08-31T21:19:04.000Z</time>
</trkpt>
<trkpt lat="59.5435919" lon="31.1430113">
<ele>48.680000</ele>
<time>2026-08-31T21:19:17.000Z</time>
</trkpt>
<trkpt lat="59.5435523" lon="31.1432146">
<ele>48.680000</ele>
<time>2026-08-31T21:19:30.000Z</time>
</trkpt>
<trkpt lat="59.5435431" lon="31.1433625">
<ele>48.680000</ele>
<time>2026-08-31T21:19:42.000Z</time>
</trkpt>
<trkpt lat="59.5435423" lon="31.1433835">
<ele>48.680000</ele>
<time>2026-08-31T21:19:54.000Z</time>
</trkpt>
<trkpt lat="59.5435426" lon="31.1433795">
<ele>48.680000</ele>
<time>2026-08-31T21:20:08.000Z</time>
</trkpt>
<trkpt lat="59.5435522" lon="31.1433870">
<ele>49.650002</ele>
<time>2026-08-31T21:20:25.000Z</time>
</trkpt>
<trkpt lat="59.5435548" lon="31.1433994">
<ele>49.650002</ele>
<time>2026-08-31T21:20:41.000Z</time>
</trkpt>
<trkpt lat="59.5435492" lon="31.1434026">
<ele>49.650002</ele>
<time>2026-08-31T21:20:59.000Z</time>
</trkpt>
<trkpt lat="59.5435551" lon="31.1434081">
<ele>49.650002</ele>
<time>2026-08-31T21:21:20.000Z</time>
</trkpt>
<trkpt lat="59.5435522" lon="31.1434175">
<ele>49.650002</ele>
<time>2026-08-31T21:21:42.000Z</time>
</trkpt>
<trkpt lat="59.5435304" lon="31.1435359">
<ele>49.650002</ele>
<time>2026-08-31T21:21:53.000Z</time>
</trkpt>
<trkpt lat="59.5434892" lon="31.1436956">
<ele>49.650002</ele>
<time>2026-08-31T21:22:04.000Z</time>
</trkpt>
<trkpt lat="59.5435028" lon="31.1438677">
<ele>49.650002</ele>
<time>2026-08-31T21:22:17.000Z</time>
</trkpt>
<trkpt lat="59.5434622" lon="31.1439591">
<ele>49.650002</ele>
<time>2026-08-31T21:22:24.000Z</time>
</trkpt>
<trkpt lat="59.5434601" lon="31.1440895">
<ele>49.650002</ele>
<time>2026-08-31T21:22:37.000Z</time>
</trkpt>
<trkpt lat="59.5434079" lon="31.1441889">
<ele>49.650002</ele>
<time>2026-08-31T21:22:46.000Z</time>
</trkpt>
<trkpt lat="59.5433597" lon="31.1442963">
<ele>49.650002</ele>
<time>2026-08-31T21:22:57.000Z</time>
</trkpt>
<trkpt lat="59.5433442" lon="31.1443676">
<ele>49.650002</ele>
<time>2026-08-31T21:23:01.000Z</time>
</trkpt>
<trkpt lat="59.5433106" lon="31.1444483">
<ele>49.650002</ele>
<time>2026-08-31T21:23:07.000Z</time>
</trkpt>
<trkpt lat="59.5432876" lon="31.1445401">
<ele>49.650002</ele>
<time>2026-08-31T21:23:16.000Z</time>
</trkpt>
<trkpt lat="59.5432470" lon="31.1446423">
<ele>49.650002</ele>
<time>2026-08-31T21:23:27.000Z</time>
</trkpt>
<trkpt lat="59.5431845" lon="31.1447315">
<ele>49.650002</ele>
<time>2026-08-31T21:23:40.000Z</time>
</trkpt>
<trkpt lat="59.5431692" lon="31.1448326">
<ele>49.650002</ele>
<time>2026-08-31T21:23:58.000Z</time>
</trkpt>
<trkpt lat="59.5431562" lon="31.1448694">
<ele>49.650002</ele>
<time>2026-08-31T21:24:04.000Z</time>
</trkpt>
<trkpt lat="59.5431312" lon="31.1450104">
<ele>48.680000</ele>
<time>2026-08-31T21:24:17.000Z</time>
</trkpt>
<trkpt lat="59.5431353" lon="31.1450196">
<ele>48.680000</ele>
<time>2026-08-31T21:24:18.000Z</time>
</trkpt>
<trkpt lat="59.5431168" lon="31.1450680">
<ele>48.680000</ele>
<time>2026-08-31T21:24:33.000Z</time>
</trkpt>
<trkpt lat="59.5430923" lon="31.1451375">
<ele>48.680000</ele>
<time>2026-08-31T21:24:49.000Z</time>
</trkpt>
<trkpt lat="59.5430750" lon="31.1452425">
<ele>48.680000</ele>
<time>2026-08-31T21:25:01.000Z</time>
</trkpt>
<trkpt lat="59.5430291" lon="31.1453694">
<ele>48.680000</ele>
<time>2026-08-31T21:25:14.000Z</time>
</trkpt>
<trkpt lat="59.5429597" lon="31.1454572">
<ele>48.680000</ele>
<time>2026-08-31T21:25:23.000Z</time>
</trkpt>
<trkpt lat="59.5429274" lon="31.1456258">
<ele>48.680000</ele>
<time>2026-08-31T21:25:33.000Z</time>
</trkpt>
<trkpt lat="59.5428663" lon="31.1456991">
<ele>48.680000</ele>
<time>2026-08-31T21:25:47.000Z</time>
</trkpt>
<trkpt lat="59.5427444" lon="31.1457522">
<ele>50.130001</ele>
<time>2026-08-31T21:26:01.000Z</time>
</trkpt>
<trkpt lat="59.5426582" lon="31.1457621">
<ele>48.680000</ele>
<time>2026-08-31T21:26:14.000Z</time>
</trkpt>
<trkpt lat="59.5426730" lon="31.1457387">
<ele>48.680000</ele>
<time>2026-08-31T21:26:34.000Z</time>
</trkpt>
<trkpt lat="59.5426792" lon="31.1457366">
<ele>49.650002</ele>
<time>2026-08-31T21:26:48.000Z</time>
</trkpt>
<trkpt lat="59.5426644" lon="31.1457234">
<ele>48.200001</ele>
<time>2026-08-31T21:27:00.000Z</time>
</trkpt>
<trkpt lat="59.5426818" lon="31.1457465">
<ele>49.650002</ele>
<time>2026-08-31T21:27:16.000Z</time>
</trkpt>
<trkpt lat="59.5426664" lon="31.1457645">
<ele>49.650002</ele>
<time>2026-08-31T21:27:34.000Z</time>
</trkpt>
<trkpt lat="59.5426088" lon="31.1458143">
<ele>49.650002</ele>
<time>2026-08-31T21:27:45.000Z</time>
</trkpt>
<trkpt lat="59.5425720" lon="31.1458608">
<ele>49.650002</ele>
<time>2026-08-31T21:27:56.000Z</time>
</trkpt>
<trkpt lat="59.5425652" lon="31.1458630">
<ele>49.650002</ele>
<time>2026-08-31T21:27:57.000Z</time>
</trkpt>
<trkpt lat="59.5424961" lon="31.1458737">
<ele>49.650002</ele>
<time>2026-08-31T21:28:02.000Z</time>
</trkpt>
<trkpt lat="59.5424113" lon="31.1458647">
<ele>49.650002</ele>
<time>2026-08-31T21:28:12.000Z</time>
</trkpt>
<trkpt lat="59.5424213" lon="31.1458528">
<ele>49.650002</ele>
<time>2026-08-31T21:28:37.000Z</time>
</trkpt>
<trkpt lat="59.5424066" lon="31.1458368">
<ele>48.200001</ele>
<time>2026-08-31T21:28:56.000Z</time>
</trkpt>
<trkpt lat="59.5424101" lon="31.1458454">
<ele>49.650002</ele>
<time>2026-08-31T21:29:13.000Z</time>
</trkpt>
<trkpt lat="59.5424101" lon="31.1458527">
<ele>49.650002</ele>
<time>2026-08-31T21:29:33.000Z</time>
</trkpt>
<trkpt lat="59.5424080" lon="31.1458572">
<ele>49.650002</ele>
<time>2026-08-31T21:29:52.000Z</time>
</trkpt>
<trkpt lat="59.5424050" lon="31.1458702">
<ele>49.650002</ele>
<time>2026-08-31T21:30:14.000Z</time>
</trkpt>
<trkpt lat="59.5423848" lon="31.1459480">
<ele>49.650002</ele>
<time>2026-08-31T21:30:28.000Z</time>
</trkpt>
<trkpt lat="59.5422814" lon="31.1461130">
<ele>48.200001</ele>
<time>2026-08-31T21:30:44.000Z</time>
</trkpt>
<trkpt lat="59.5421970" lon="31.1461609">
<ele>48.200001</ele>
<time>2026-08-31T21:30:57.000Z</time>
</trkpt>
<trkpt lat="59.5421070" lon="31.1462110">
<ele>48.200001</ele>
<time>2026-08-31T21:31:09.000Z</time>
</trkpt>
<trkpt lat="59.5420032" lon="31.1464111">
<ele>48.200001</ele>
<time>2026-08-31T21:31:22.000Z</time>
</trkpt>
<trkpt lat="59.5419043" lon="31.1465960">
<ele>48.200001</ele>
<time>2026-08-31T21:31:37.000Z</time>
</trkpt>
<trkpt lat="59.5418833" lon="31.1466196">
<ele>48.200001</ele>
<time>2026-08-31T21:31:49.000Z</time>
</trkpt>
<trkpt lat="59.5418422" lon="31.1466727">
<ele>48.200001</ele>
<time>2026-08-31T21:32:01.000Z</time>
</trkpt>
<trkpt lat="59.5418250" lon="31.1467219">
<ele>47.719997</ele>
<time>2026-08-31T21:32:13.000Z</time>
</trkpt>
<trkpt lat="59.5417994" lon="31.1467520">
<ele>47.719997</ele>
<time>2026-08-31T21:32:25.000Z</time>
</trkpt>
<trkpt lat="59.5417199" lon="31.1469707">
<ele>48.680000</ele>
<time>2026-08-31T21:32:41.000Z</time>
</trkpt>
<trkpt lat="59.5416486" lon="31.1472156">
<ele>48.680000</ele>
<time>2026-08-31T21:32:54.000Z</time>
</trkpt>
<trkpt lat="59.5415875" lon="31.1473937">
<ele>49.160000</ele>
<time>2026-08-31T21:33:06.000Z</time>
</trkpt>
<trkpt lat="59.5415137" lon="31.1476643">
<ele>49.650002</ele>
<time>2026-08-31T21:33:21.000Z</time>
</trkpt>
<trkpt lat="59.5414439" lon="31.1478312">
<ele>49.650002</ele>
<time>2026-08-31T21:33:34.000Z</time>
</trkpt>
<trkpt lat="59.5414125" lon="31.1480278">
<ele>49.650002</ele>
<time>2026-08-31T21:33:45.000Z</time>
</trkpt>
<trkpt lat="59.5413655" lon="31.1482401">
<ele>48.680000</ele>
<time>2026-08-31T21:33:59.000Z</time>
</trkpt>
<trkpt lat="59.5413337" lon="31.1484855">
<ele>48.680000</ele>
<time>2026-08-31T21:34:14.000Z</time>
</trkpt>
<trkpt lat="59.5412455" lon="31.1487539">
<ele>48.680000</ele>
<time>2026-08-31T21:34:29.000Z</time>
</trkpt>
<trkpt lat="59.5412088" lon="31.1489939">
<ele>48.200001</ele>
<time>2026-08-31T21:34:42.000Z</time>
</trkpt>
<trkpt lat="59.5411912" lon="31.1491126">
<ele>49.160000</ele>
<time>2026-08-31T21:34:54.000Z</time>
</trkpt>
<trkpt lat="59.5412026" lon="31.1492003">
<ele>49.160000</ele>
<time>2026-08-31T21:35:02.000Z</time>
</trkpt>
<trkpt lat="59.5412094" lon="31.1492471">
<ele>47.719997</ele>
<time>2026-08-31T21:35:07.000Z</time>
</trkpt>
<trkpt lat="59.5411664" lon="31.1494192">
<ele>47.240002</ele>
<time>2026-08-31T21:35:21.000Z</time>
</trkpt>
<trkpt lat="59.5411118" lon="31.1495783">
<ele>47.240002</ele>
<time>2026-08-31T21:35:33.000Z</time>
</trkpt>
<trkpt lat="59.5410332" lon="31.1497577">
<ele>47.240002</ele>
<time>2026-08-31T21:35:44.000Z</time>
</trkpt>
<trkpt lat="59.5409260" lon="31.1498399">
<ele>47.240002</ele>
<time>2026-08-31T21:35:59.000Z</time>
</trkpt>
<trkpt lat="59.5408939" lon="31.1499096">
<ele>47.240002</ele>
<time>2026-08-31T21:36:09.000Z</time>
</trkpt>
<trkpt lat="59.5409008" lon="31.1499968">
<ele>47.240002</ele>
<time>2026-08-31T21:36:23.000Z</time>
</trkpt>
<trkpt lat="59.5408822" lon="31.1502034">
<ele>47.240002</ele>
<time>2026-08-31T21:36:36.000Z</time>
</trkpt>
<trkpt lat="59.5408606" lon="31.1502237">
<ele>47.240002</ele>
<time>2026-08-31T21:36:38.000Z</time>
</trkpt>
<trkpt lat="59.5408306" lon="31.1501979">
<ele>47.240002</ele>
<time>2026-08-31T21:36:51.000Z</time>
</trkpt>
<trkpt lat="59.5408409" lon="31.1502145">
<ele>47.240002</ele>
<time>2026-08-31T21:37:10.000Z</time>
</trkpt>
<trkpt lat="59.5408366" lon="31.1502268">
<ele>47.240002</ele>
<time>2026-08-31T21:37:22.000Z</time>
</trkpt>
<trkpt lat="59.5408421" lon="31.1503019">
<ele>47.240002</ele>
<time>2026-08-31T21:37:28.000Z</time>
</trkpt>
<trkpt lat="59.5408527" lon="31.1503566">
<ele>47.240002</ele>
<time>2026-08-31T21:37:31.000Z</time>
</trkpt>
<trkpt lat="59.5408742" lon="31.1504864">
<ele>47.240002</ele>
<time>2026-08-31T21:37:38.000Z</time>
</trkpt>
<trkpt lat="59.5408803" lon="31.1505509">
<ele>47.240002</ele>
<time>2026-08-31T21:37:41.000Z</time>
</trkpt>
<trkpt lat="59.5408735" lon="31.1506085">
<ele>47.240002</ele>
<time>2026-08-31T21:37:44.000Z</time>
</trkpt>
<trkpt lat="59.5408409" lon="31.1507307">
<ele>46.279999</ele>
<time>2026-08-31T21:37:58.000Z</time>
</trkpt>
<trkpt lat="59.5408336" lon="31.1507505">
<ele>47.719997</ele>
<time>2026-08-31T21:38:11.000Z</time>
</trkpt>
<trkpt lat="59.5408357" lon="31.1507689">
<ele>47.719997</ele>
<time>2026-08-31T21:38:26.000Z</time>
</trkpt>
<trkpt lat="59.5408272" lon="31.1508157">
<ele>48.200001</ele>
<time>2026-08-31T21:38:54.000Z</time>
</trkpt>
<trkpt lat="59.5408229" lon="31.1508060">
<ele>48.200001</ele>
<time>2026-08-31T21:39:16.000Z</time>
</trkpt>
<trkpt lat="59.5408202" lon="31.1507964">
<ele>48.200001</ele>
<time>2026-08-31T21:39:41.000Z</time>
</trkpt>
<trkpt lat="59.5408214" lon="31.1507953">
<ele>48.200001</ele>
<time>2026-08-31T21:40:03.000Z</time>
</trkpt>
<trkpt lat="59.5408221" lon="31.1507626">
<ele>48.680000</ele>
<time>2026-08-31T21:40:18.000Z</time>
</trkpt>
<trkpt lat="59.5408250" lon="31.1507647">
<ele>48.680000</ele>
<time>2026-08-31T21:40:36.000Z</time>
</trkpt>
<trkpt lat="59.5408255" lon="31.1507685">
<ele>48.680000</ele>
<time>2026-08-31T21:40:51.000Z</time>
</trkpt>
<trkpt lat="59.5408279" lon="31.1507551">
<ele>48.680000</ele>
<time>2026-08-31T21:41:09.000Z</time>
</trkpt>
<trkpt lat="59.5408322" lon="31.1507773">
<ele>48.680000</ele>
<time>2026-08-31T21:41:27.000Z</time>
</trkpt>
<trkpt lat="59.5408311" lon="31.1507756">
<ele>48.680000</ele>
<time>2026-08-31T21:41:47.000Z</time>
</trkpt>
<trkpt lat="59.5408300" lon="31.1507630">
<ele>49.160000</ele>
<time>2026-08-31T21:42:00.000Z</time>
</trkpt>
<trkpt lat="59.5408338" lon="31.1507768">
<ele>49.160000</ele>
<time>2026-08-31T21:42:22.000Z</time>
</trkpt>
<trkpt lat="59.5408348" lon="31.1507774">
<ele>48.200001</ele>
<time>2026-08-31T21:42:28.000Z</time>
</trkpt>
<trkpt lat="59.5408296" lon="31.1507672">
<ele>49.160000</ele>
<time>2026-08-31T21:42:37.000Z</time>
</trkpt>
<trkpt lat="59.5408290" lon="31.1507660">
<ele>49.160000</ele>
<time>2026-08-31T21:42:54.000Z</time>
</trkpt>
<trkpt lat="59.5408149" lon="31.1507825">
<ele>49.160000</ele>
<time>2026-08-31T21:43:08.000Z</time>
</trkpt>
<trkpt lat="59.5407889" lon="31.1507667">
<ele>49.160000</ele>
<time>2026-08-31T21:43:21.000Z</time>
</trkpt>
<trkpt lat="59.5407858" lon="31.1507602">
<ele>49.160000</ele>
<time>2026-08-31T21:43:34.000Z</time>
</trkpt>
<trkpt lat="59.5407849" lon="31.1507565">
<ele>49.160000</ele>
<time>2026-08-31T21:43:55.000Z</time>
</trkpt>
<trkpt lat="59.5407877" lon="31.1507670">
<ele>49.160000</ele>
<time>2026-08-31T21:44:12.000Z</time>
</trkpt>
<trkpt lat="59.5407883" lon="31.1507613">
<ele>49.160000</ele>
<time>2026-08-31T21:44:29.000Z</time>
</trkpt>
<trkpt lat="59.5407955" lon="31.1507521">
<ele>49.160000</ele>
<time>2026-08-31T21:44:44.000Z</time>
</trkpt>
<trkpt lat="59.5408092" lon="31.1507565">
<ele>48.200001</ele>
<time>2026-08-31T21:44:56.000Z</time>
</trkpt>
<trkpt lat="59.5408335" lon="31.1508051">
<ele>48.200001</ele>
<time>2026-08-31T21:45:01.000Z</time>
</trkpt>
<trkpt lat="59.5408137" lon="31.1508935">
<ele>48.200001</ele>
<time>2026-08-31T21:45:14.000Z</time>
</trkpt>
<trkpt lat="59.5408131" lon="31.1508961">
<ele>48.200001</ele>
<time>2026-08-31T21:45:31.000Z</time>
</trkpt>
<trkpt lat="59.5407892" lon="31.1508901">
<ele>48.200001</ele>
<time>2026-08-31T21:45:57.000Z</time>
</trkpt>
<trkpt lat="59.5407866" lon="31.1508875">
<ele>48.200001</ele>
<time>2026-08-31T21:46:15.000Z</time>
</trkpt>
<trkpt lat="59.5407976" lon="31.1509078">
<ele>48.200001</ele>
<time>2026-08-31T21:46:37.000Z</time>
</trkpt>
<trkpt lat="59.5408064" lon="31.1509048">
<ele>48.200001</ele>
<time>2026-08-31T21:47:08.000Z</time>
</trkpt>
<trkpt lat="59.5408132" lon="31.1509292">
<ele>48.200001</ele>
<time>2026-08-31T21:47:18.000Z</time>
</trkpt>
<trkpt lat="59.5408000" lon="31.1510949">
<ele>48.200001</ele>
<time>2026-08-31T21:47:28.000Z</time>
</trkpt>
<trkpt lat="59.5408403" lon="31.1512540">
<ele>48.200001</ele>
<time>2026-08-31T21:47:41.000Z</time>
</trkpt>
<trkpt lat="59.5408529" lon="31.1514518">
<ele>48.200001</ele>
<time>2026-08-31T21:47:52.000Z</time>
</trkpt>
<trkpt lat="59.5408272" lon="31.1514850">
<ele>48.200001</ele>
<time>2026-08-31T21:47:57.000Z</time>
</trkpt>
<trkpt lat="59.5407972" lon="31.1515348">
<ele>48.200001</ele>
<time>2026-08-31T21:48:04.000Z</time>
</trkpt>
<trkpt lat="59.5407939" lon="31.1516607">
<ele>48.200001</ele>
<time>2026-08-31T21:48:10.000Z</time>
</trkpt>
<trkpt lat="59.5407751" lon="31.1517140">
<ele>48.200001</ele>
<time>2026-08-31T21:48:13.000Z</time>
</trkpt>
<trkpt lat="59.5407575" lon="31.1518260">
<ele>48.200001</ele>
<time>2026-08-31T21:48:19.000Z</time>
</trkpt>
<trkpt lat="59.5407371" lon="31.1519596">
<ele>48.200001</ele>
<time>2026-08-31T21:48:28.000Z</time>
</trkpt>
<trkpt lat="59.5407207" lon="31.1520238">
<ele>48.200001</ele>
<time>2026-08-31T21:48:31.000Z</time>
</trkpt>
<trkpt lat="59.5407132" lon="31.1521112">
<ele>49.160000</ele>
<time>2026-08-31T21:48:35.000Z</time>
</trkpt>
<trkpt lat="59.5406887" lon="31.1523614">
<ele>49.160000</ele>
<time>2026-08-31T21:48:47.000Z</time>
</trkpt>
<trkpt lat="59.5406671" lon="31.1524842">
<ele>49.160000</ele>
<time>2026-08-31T21:48:54.000Z</time>
</trkpt>
<trkpt lat="59.5406395" lon="31.1525517">
<ele>49.160000</ele>
<time>2026-08-31T21:48:58.000Z</time>
</trkpt>
<trkpt lat="59.5406259" lon="31.1526344">
<ele>49.160000</ele>
<time>2026-08-31T21:49:02.000Z</time>
</trkpt>
<trkpt lat="59.5406052" lon="31.1528391">
<ele>49.160000</ele>
<time>2026-08-31T21:49:12.000Z</time>
</trkpt>
<trkpt lat="59.5405893" lon="31.1529504">
<ele>49.160000</ele>
<time>2026-08-31T21:49:17.000Z</time>
</trkpt>
<trkpt lat="59.5405872" lon="31.1530392">
<ele>49.160000</ele>
<time>2026-08-31T21:49:21.000Z</time>
</trkpt>
<trkpt lat="59.5405761" lon="31.1531997">
<ele>49.160000</ele>
<time>2026-08-31T21:49:28.000Z</time>
</trkpt>
<trkpt lat="59.5405849" lon="31.1533037">
<ele>49.160000</ele>
<time>2026-08-31T21:49:33.000Z</time>
</trkpt>
<trkpt lat="59.5405818" lon="31.1533799">
<ele>49.160000</ele>
<time>2026-08-31T21:49:36.000Z</time>
</trkpt>
<trkpt lat="59.5405736" lon="31.1534816">
<ele>49.160000</ele>
<time>2026-08-31T21:49:41.000Z</time>
</trkpt>
<trkpt lat="59.5405333" lon="31.1536517">
<ele>49.160000</ele>
<time>2026-08-31T21:49:51.000Z</time>
</trkpt>
<trkpt lat="59.5405136" lon="31.1536834">
<ele>47.719997</ele>
<time>2026-08-31T21:49:54.000Z</time>
</trkpt>
<trkpt lat="59.5404667" lon="31.1537195">
<ele>47.719997</ele>
<time>2026-08-31T21:49:59.000Z</time>
</trkpt>
<trkpt lat="59.5404661" lon="31.1537877">
<ele>47.719997</ele>
<time>2026-08-31T21:50:02.000Z</time>
</trkpt>
<trkpt lat="59.5404272" lon="31.1539171">
<ele>47.240002</ele>
<time>2026-08-31T21:50:10.000Z</time>
</trkpt>
<trkpt lat="59.5404266" lon="31.1539466">
<ele>47.240002</ele>
<time>2026-08-31T21:50:22.000Z</time>
</trkpt>
<trkpt lat="59.5403920" lon="31.1540117">
<ele>47.240002</ele>
<time>2026-08-31T21:50:27.000Z</time>
</trkpt>
<trkpt lat="59.5403676" lon="31.1540479">
<ele>47.240002</ele>
<time>2026-08-31T21:50:30.000Z</time>
</trkpt>
<trkpt lat="59.5402840" lon="31.1541942">
<ele>47.240002</ele>
<time>2026-08-31T21:50:42.000Z</time>
</trkpt>
<trkpt lat="59.5402676" lon="31.1542432">
<ele>47.240002</ele>
<time>2026-08-31T21:50:45.000Z</time>
</trkpt>
<trkpt lat="59.5402069" lon="31.1543712">
<ele>47.240002</ele>
<time>2026-08-31T21:50:53.000Z</time>
</trkpt>
<trkpt lat="59.5401552" lon="31.1544534">
<ele>47.240002</ele>
<time>2026-08-31T21:51:00.000Z</time>
</trkpt>
<trkpt lat="59.5401191" lon="31.1545201">
<ele>47.240002</ele>
<time>2026-08-31T21:51:04.000Z</time>
</trkpt>
<trkpt lat="59.5400783" lon="31.1546950">
<ele>47.240002</ele>
<time>2026-08-31T21:51:15.000Z</time>
</trkpt>
<trkpt lat="59.5400953" lon="31.1549137">
<ele>47.240002</ele>
<time>2026-08-31T21:51:26.000Z</time>
</trkpt>
<trkpt lat="59.5400466" lon="31.1549474">
<ele>47.240002</ele>
<time>2026-08-31T21:51:38.000Z</time>
</trkpt>
<trkpt lat="59.5400472" lon="31.1549751">
<ele>47.240002</ele>
<time>2026-08-31T21:52:06.000Z</time>
</trkpt>
<trkpt lat="59.5400475" lon="31.1550085">
<ele>46.760002</ele>
<time>2026-08-31T21:52:34.000Z</time>
</trkpt>
<trkpt lat="59.5400301" lon="31.1550237">
<ele>46.760002</ele>
<time>2026-08-31T21:53:00.000Z</time>
</trkpt>
<trkpt lat="59.5400324" lon="31.1550260">
<ele>46.760002</ele>
<time>2026-08-31T21:53:22.000Z</time>
</trkpt>
<trkpt lat="59.5400233" lon="31.1550029">
<ele>46.760002</ele>
<time>2026-08-31T21:53:47.000Z</time>
</trkpt>
<trkpt lat="59.5400288" lon="31.1550230">
<ele>46.760002</ele>
<time>2026-08-31T21:54:04.000Z</time>
</trkpt>
<trkpt lat="59.5400354" lon="31.1550363">
<ele>46.760002</ele>
<time>2026-08-31T21:54:05.000Z</time>
</trkpt>
<trkpt lat="59.5401174" lon="31.1552112">
<ele>46.279999</ele>
<time>2026-08-31T21:54:15.000Z</time>
</trkpt>
<trkpt lat="59.5401542" lon="31.1552836">
<ele>46.279999</ele>
<time>2026-08-31T21:54:22.000Z</time>
</trkpt>
<trkpt lat="59.5401603" lon="31.1553494">
<ele>46.279999</ele>
<time>2026-08-31T21:54:26.000Z</time>
</trkpt>
<trkpt lat="59.5401687" lon="31.1554536">
<ele>46.279999</ele>
<time>2026-08-31T21:54:31.000Z</time>
</trkpt>
<trkpt lat="59.5401829" lon="31.1555549">
<ele>46.279999</ele>
<time>2026-08-31T21:54:36.000Z</time>
</trkpt>
<trkpt lat="59.5402071" lon="31.1557301">
<ele>45.320000</ele>
<time>2026-08-31T21:54:46.000Z</time>
</trkpt>
<trkpt lat="59.5402142" lon="31.1557894">
<ele>45.320000</ele>
<time>2026-08-31T21:54:56.000Z</time>
</trkpt>
<trkpt lat="59.5402408" lon="31.1559693">
<ele>45.320000</ele>
<time>2026-08-31T21:55:07.000Z</time>
</trkpt>
<trkpt lat="59.5402175" lon="31.1561406">
<ele>45.320000</ele>
<time>2026-08-31T21:55:18.000Z</time>
</trkpt>
<trkpt lat="59.5402090" lon="31.1562279">
<ele>45.320000</ele>
<time>2026-08-31T21:55:22.000Z</time>
</trkpt>
<trkpt lat="59.5402119" lon="31.1564481">
<ele>45.320000</ele>
<time>2026-08-31T21:55:31.000Z</time>
</trkpt>
<trkpt lat="59.5402395" lon="31.1565430">
<ele>45.320000</ele>
<time>2026-08-31T21:55:44.000Z</time>
</trkpt>
<trkpt lat="59.5402230" lon="31.1565346">
<ele>45.320000</ele>
<time>2026-08-31T21:56:08.000Z</time>
</trkpt>
<trkpt lat="59.5402210" lon="31.1565607">
<ele>45.320000</ele>
<time>2026-08-31T21:56:20.000Z</time>
</trkpt>
<trkpt lat="59.5402242" lon="31.1566301">
<ele>45.320000</ele>
<time>2026-08-31T21:56:24.000Z</time>
</trkpt>
<trkpt lat="59.5402364" lon="31.1567393">
<ele>45.320000</ele>
<time>2026-08-31T21:56:29.000Z</time>
</trkpt>
<trkpt lat="59.5402442" lon="31.1569015">
<ele>44.360001</ele>
<time>2026-08-31T21:56:37.000Z</time>
</trkpt>
<trkpt lat="59.5402126" lon="31.1569503">
<ele>44.360001</ele>
<time>2026-08-31T21:56:45.000Z</time>
</trkpt>
<trkpt lat="59.5402138" lon="31.1570018">
<ele>44.360001</ele>
<time>2026-08-31T21:56:49.000Z</time>
</trkpt>
<trkpt lat="59.5401921" lon="31.1571778">
<ele>44.360001</ele>
<time>2026-08-31T21:57:03.000Z</time>
</trkpt>
<trkpt lat="59.5402359" lon="31.1572566">
<ele>44.360001</ele>
<time>2026-08-31T21:57:14.000Z</time>
</trkpt>
<trkpt lat="59.5402816" lon="31.1574008">
<ele>44.360001</ele>
<time>2026-08-31T21:57:25.000Z</time>
</trkpt>
<trkpt lat="59.5402854" lon="31.1574153">
<ele>45.799999</ele>
<time>2026-08-31T21:57:28.000Z</time>
</trkpt>
<trkpt lat="59.5402920" lon="31.1574255">
<ele>45.799999</ele>
<time>2026-08-31T21:57:34.000Z</time>
</trkpt>
<trkpt lat="59.5403059" lon="31.1574798">
<ele>45.799999</ele>
<time>2026-08-31T21:57:38.000Z</time>
</trkpt>
<trkpt lat="59.5403104" lon="31.1574936">
<ele>44.839996</ele>
<time>2026-08-31T21:57:48.000Z</time>
</trkpt>
<trkpt lat="59.5403080" lon="31.1575055">
<ele>44.839996</ele>
<time>2026-08-31T21:58:02.000Z</time>
</trkpt>
<trkpt lat="59.5403093" lon="31.1575566">
<ele>45.799999</ele>
<time>2026-08-31T21:58:28.000Z</time>
</trkpt>
<trkpt lat="59.5403290" lon="31.1575462">
<ele>45.799999</ele>
<time>2026-08-31T21:58:52.000Z</time>
</trkpt>
<trkpt lat="59.5403160" lon="31.1575258">
<ele>45.799999</ele>
<time>2026-08-31T21:59:26.000Z</time>
</trkpt>
<trkpt lat="59.5403152" lon="31.1575291">
<ele>45.799999</ele>
<time>2026-08-31T21:59:51.000Z</time>
</trkpt>
<trkpt lat="59.5403151" lon="31.1575250">
<ele>45.799999</ele>
<time>2026-08-31T22:00:09.000Z</time>
</trkpt>
<trkpt lat="59.5403101" lon="31.1575220">
<ele>45.799999</ele>
<time>2026-08-31T22:00:30.000Z</time>
</trkpt>
<trkpt lat="59.5403100" lon="31.1575223">
<ele>45.799999</ele>
<time>2026-08-31T22:00:33.000Z</time>
</trkpt>
<trkpt lat="59.5403383" lon="31.1575668">
<ele>45.799999</ele>
<time>2026-08-31T22:00:37.000Z</time>
</trkpt>
<trkpt lat="59.5403443" lon="31.1576255">
<ele>45.799999</ele>
<time>2026-08-31T22:00:42.000Z</time>
</trkpt>
<trkpt lat="59.5403254" lon="31.1577012">
<ele>45.799999</ele>
<time>2026-08-31T22:00:51.000Z</time>
</trkpt>
<trkpt lat="59.5403302" lon="31.1576702">
<ele>45.799999</ele>
<time>2026-08-31T22:00:57.000Z</time>
</trkpt>
<trkpt lat="59.5403580" lon="31.1576766">
<ele>45.799999</ele>
<time>2026-08-31T22:00:59.000Z</time>
</trkpt>
<trkpt lat="59.5403935" lon="31.1577278">
<ele>45.799999</ele>
<time>2026-08-31T22:01:05.000Z</time>
</trkpt>
<trkpt lat="59.5404082" lon="31.1578666">
<ele>45.799999</ele>
<time>2026-08-31T22:01:13.000Z</time>
</trkpt>
<trkpt lat="59.5404140" lon="31.1579466">
<ele>44.839996</ele>
<time>2026-08-31T22:01:18.000Z</time>
</trkpt>
<trkpt lat="59.5403418" lon="31.1581125">
<ele>44.839996</ele>
<time>2026-08-31T22:01:28.000Z</time>
</trkpt>
<trkpt lat="59.5402883" lon="31.1582018">
<ele>44.839996</ele>
<time>2026-08-31T22:01:34.000Z</time>
</trkpt>
<trkpt lat="59.5402545" lon="31.1583570">
<ele>44.839996</ele>
<time>2026-08-31T22:01:43.000Z</time>
</trkpt>
<trkpt lat="59.5402456" lon="31.1584678">
<ele>44.839996</ele>
<time>2026-08-31T22:01:54.000Z</time>
</trkpt>
<trkpt lat="59.5402075" lon="31.1585040">
<ele>44.839996</ele>
<time>2026-08-31T22:02:03.000Z</time>
</trkpt>
<trkpt lat="59.5401940" lon="31.1585061">
<ele>44.839996</ele>
<time>2026-08-31T22:02:04.000Z</time>
</trkpt>
<trkpt lat="59.5401526" lon="31.1585179">
<ele>44.839996</ele>
<time>2026-08-31T22:02:10.000Z</time>
</trkpt>
<trkpt lat="59.5401328" lon="31.1585367">
<ele>44.839996</ele>
<time>2026-08-31T22:02:13.000Z</time>
</trkpt>
<trkpt lat="59.5401232" lon="31.1585601">
<ele>44.839996</ele>
<time>2026-08-31T22:02:14.000Z</time>
</trkpt>
<trkpt lat="59.5401091" lon="31.1585840">
<ele>44.839996</ele>
<time>2026-08-31T22:02:15.000Z</time>
</trkpt>
<trkpt lat="59.5400915" lon="31.1586334">
<ele>44.839996</ele>
<time>2026-08-31T22:02:19.000Z</time>
</trkpt>
<trkpt lat="59.5400708" lon="31.1587184">
<ele>44.839996</ele>
<time>2026-08-31T22:02:28.000Z</time>
</trkpt>
<trkpt lat="59.5400793" lon="31.1587823">
<ele>44.839996</ele>
<time>2026-08-31T22:02:43.000Z</time>
</trkpt>
<trkpt lat="59.5400899" lon="31.1587916">
<ele>44.839996</ele>
<time>2026-08-31T22:02:55.000Z</time>
</trkpt>
<trkpt lat="59.5401345" lon="31.1587460">
<ele>44.839996</ele>
<time>2026-08-31T22:03:07.000Z</time>
</trkpt>
<trkpt lat="59.5401505" lon="31.1588631">
<ele>44.839996</ele>
<time>2026-08-31T22:03:16.000Z</time>
</trkpt>
<trkpt lat="59.5401478" lon="31.1590233">
<ele>44.839996</ele>
<time>2026-08-31T22:03:27.000Z</time>
</trkpt>
<trkpt lat="59.5401370" lon="31.1591245">
<ele>45.799999</ele>
<time>2026-08-31T22:03:40.000Z</time>
</trkpt>
<trkpt lat="59.5401412" lon="31.1591420">
<ele>44.360001</ele>
<time>2026-08-31T22:03:43.000Z</time>
</trkpt>
<trkpt lat="59.5402021" lon="31.1591737">
<ele>45.320000</ele>
<time>2026-08-31T22:03:53.000Z</time>
</trkpt>
<trkpt lat="59.5402592" lon="31.1592210">
<ele>45.320000</ele>
<time>2026-08-31T22:04:04.000Z</time>
</trkpt>
<trkpt lat="59.5402464" lon="31.1593080">
<ele>44.360001</ele>
<time>2026-08-31T22:04:10.000Z</time>
</trkpt>
<trkpt lat="59.5401852" lon="31.1594454">
<ele>44.360001</ele>
<time>2026-08-31T22:04:21.000Z</time>
</trkpt>
<trkpt lat="59.5401775" lon="31.1594790">
<ele>44.360001</ele>
<time>2026-08-31T22:04:23.000Z</time>
</trkpt>
<trkpt lat="59.5401618" lon="31.1595705">
<ele>44.360001</ele>
<time>2026-08-31T22:04:33.000Z</time>
</trkpt>
<trkpt lat="59.5401676" lon="31.1596047">
<ele>44.360001</ele>
<time>2026-08-31T22:04:34.000Z</time>
</trkpt>
<trkpt lat="59.5401870" lon="31.1596543">
<ele>44.360001</ele>
<time>2026-08-31T22:04:37.000Z</time>
</trkpt>
<trkpt lat="59.5401967" lon="31.1596835">
<ele>44.360001</ele>
<time>2026-08-31T22:04:38.000Z</time>
</trkpt>
<trkpt lat="59.5402078" lon="31.1597137">
<ele>44.360001</ele>
<time>2026-08-31T22:04:39.000Z</time>
</trkpt>
<trkpt lat="59.5402266" lon="31.1597773">
<ele>45.799999</ele>
<time>2026-08-31T22:04:42.000Z</time>
</trkpt>
<trkpt lat="59.5402331" lon="31.1597975">
<ele>45.799999</ele>
<time>2026-08-31T22:04:43.000Z</time>
</trkpt>
<trkpt lat="59.5402422" lon="31.1598340">
<ele>45.799999</ele>
<time>2026-08-31T22:04:47.000Z</time>
</trkpt>
<trkpt lat="59.5402490" lon="31.1598640">
<ele>45.799999</ele>
<time>2026-08-31T22:04:48.000Z</time>
</trkpt>
<trkpt lat="59.5402677" lon="31.1599367">
<ele>45.799999</ele>
<time>2026-08-31T22:04:52.000Z</time>
</trkpt>
<trkpt lat="59.5402708" lon="31.1599663">
<ele>45.799999</ele>
<time>2026-08-31T22:04:53.000Z</time>
</trkpt>
<trkpt lat="59.5402697" lon="31.1600146">
<ele>45.799999</ele>
<time>2026-08-31T22:05:04.000Z</time>
</trkpt>
<trkpt lat="59.5402577" lon="31.1600328">
<ele>44.839996</ele>
<time>2026-08-31T22:05:11.000Z</time>
</trkpt>
<trkpt lat="59.5402780" lon="31.1601129">
<ele>44.839996</ele>
<time>2026-08-31T22:05:24.000Z</time>
</trkpt>
<trkpt lat="59.5402887" lon="31.1601243">
<ele>44.839996</ele>
<time>2026-08-31T22:05:26.000Z</time>
</trkpt>
<trkpt lat="59.5402801" lon="31.1602715">
<ele>44.839996</ele>
<time>2026-08-31T22:05:35.000Z</time>
</trkpt>
<trkpt lat="59.5402630" lon="31.1603056">
<ele>44.839996</ele>
<time>2026-08-31T22:05:37.000Z</time>
</trkpt>
<trkpt lat="59.5402625" lon="31.1603474">
<ele>44.839996</ele>
<time>2026-08-31T22:05:46.000Z</time>
</trkpt>
<trkpt lat="59.5402680" lon="31.1603554">
<ele>44.839996</ele>
<time>2026-08-31T22:05:58.000Z</time>
</trkpt>
<trkpt lat="59.5402685" lon="31.1603274">
<ele>44.839996</ele>
<time>2026-08-31T22:06:14.000Z</time>
</trkpt>
<trkpt lat="59.5402693" lon="31.1603179">
<ele>44.839996</ele>
<time>2026-08-31T22:06:31.000Z</time>
</trkpt>
<trkpt lat="59.5402638" lon="31.1603304">
<ele>44.839996</ele>
<time>2026-08-31T22:06:39.000Z</time>
</trkpt>
<trkpt lat="59.5402306" lon="31.1604222">
<ele>44.839996</ele>
<time>2026-08-31T22:06:49.000Z</time>
</trkpt>
<trkpt lat="59.5402360" lon="31.1604820">
<ele>44.839996</ele>
<time>2026-08-31T22:07:02.000Z</time>
</trkpt>
<trkpt lat="59.5402011" lon="31.1606585">
<ele>44.839996</ele>
<time>2026-08-31T22:07:14.000Z</time>
</trkpt>
<trkpt lat="59.5401369" lon="31.1608613">
<ele>45.799999</ele>
<time>2026-08-31T22:07:26.000Z</time>
</trkpt>
<trkpt lat="59.5400449" lon="31.1611027">
<ele>45.799999</ele>
<time>2026-08-31T22:07:41.000Z</time>
</trkpt>
<trkpt lat="59.5399397" lon="31.1614681">
<ele>45.799999</ele>
<time>2026-08-31T22:07:59.000Z</time>
</trkpt>
<trkpt lat="59.5399226" lon="31.1614800">
<ele>46.279999</ele>
<time>2026-08-31T22:08:14.000Z</time>
</trkpt>
<trkpt lat="59.5399283" lon="31.1614928">
<ele>46.279999</ele>
<time>2026-08-31T22:08:32.000Z</time>
</trkpt>
<trkpt lat="59.5399295" lon="31.1614977">
<ele>46.279999</ele>
<time>2026-08-31T22:09:02.000Z</time>
</trkpt>
<trkpt lat="59.5399263" lon="31.1615019">
<ele>45.320000</ele>
<time>2026-08-31T22:09:20.000Z</time>
</trkpt>
<trkpt lat="59.5399203" lon="31.1614987">
<ele>46.279999</ele>
<time>2026-08-31T22:09:42.000Z</time>
</trkpt>
<trkpt lat="59.5399214" lon="31.1615133">
<ele>46.279999</ele>
<time>2026-08-31T22:10:03.000Z</time>
</trkpt>
<trkpt lat="59.5399201" lon="31.1615868">
<ele>46.279999</ele>
<time>2026-08-31T22:10:07.000Z</time>
</trkpt>
<trkpt lat="59.5399212" lon="31.1616132">
<ele>46.279999</ele>
<time>2026-08-31T22:10:08.000Z</time>
</trkpt>
<trkpt lat="59.5399250" lon="31.1616479">
<ele>46.279999</ele>
<time>2026-08-31T22:10:11.000Z</time>
</trkpt>
<trkpt lat="59.5399218" lon="31.1616795">
<ele>46.279999</ele>
<time>2026-08-31T22:10:12.000Z</time>
</trkpt>
<trkpt lat="59.5399216" lon="31.1617178">
<ele>46.279999</ele>
<time>2026-08-31T22:10:15.000Z</time>
</trkpt>
<trkpt lat="59.5399206" lon="31.1617516">
<ele>46.279999</ele>
<time>2026-08-31T22:10:16.000Z</time>
</trkpt>
<trkpt lat="59.5399200" lon="31.1617906">
<ele>46.279999</ele>
<time>2026-08-31T22:10:19.000Z</time>
</trkpt>
<trkpt lat="59.5399247" lon="31.1618260">
<ele>46.279999</ele>
<time>2026-08-31T22:10:20.000Z</time>
</trkpt>
<trkpt lat="59.5399280" lon="31.1618571">
<ele>44.839996</ele>
<time>2026-08-31T22:10:21.000Z</time>
</trkpt>
<trkpt lat="59.5399301" lon="31.1618789">
<ele>44.839996</ele>
<time>2026-08-31T22:10:22.000Z</time>
</trkpt>
<trkpt lat="59.5399633" lon="31.1620700">
<ele>44.360001</ele>
<time>2026-08-31T22:10:31.000Z</time>
</trkpt>
<trkpt lat="59.5399652" lon="31.1622233">
<ele>44.360001</ele>
<time>2026-08-31T22:10:39.000Z</time>
</trkpt>
<trkpt lat="59.5399632" lon="31.1622493">
<ele>44.360001</ele>
<time>2026-08-31T22:10:40.000Z</time>
</trkpt>
<trkpt lat="59.5399398" lon="31.1624388">
<ele>44.360001</ele>
<time>2026-08-31T22:10:49.000Z</time>
</trkpt>
<trkpt lat="59.5399389" lon="31.1624917">
<ele>44.360001</ele>
<time>2026-08-31T22:10:52.000Z</time>
</trkpt>
<trkpt lat="59.5399366" lon="31.1625174">
<ele>44.360001</ele>
<time>2026-08-31T22:10:53.000Z</time>
</trkpt>
<trkpt lat="59.5399303" lon="31.1626286">
<ele>44.360001</ele>
<time>2026-08-31T22:11:01.000Z</time>
</trkpt>
<trkpt lat="59.5399286" lon="31.1626649">
<ele>44.360001</ele>
<time>2026-08-31T22:11:02.000Z</time>
</trkpt>
<trkpt lat="59.5399268" lon="31.1627020">
<ele>44.360001</ele>
<time>2026-08-31T22:11:03.000Z</time>
</trkpt>
<trkpt lat="59.5399317" lon="31.1627909">
<ele>44.360001</ele>
<time>2026-08-31T22:11:07.000Z</time>
</trkpt>
<trkpt lat="59.5399279" lon="31.1628221">
<ele>44.360001</ele>
<time>2026-08-31T22:11:08.000Z</time>
</trkpt>
<trkpt lat="59.5399287" lon="31.1628768">
<ele>44.360001</ele>
<time>2026-08-31T22:11:11.000Z</time>
</trkpt>
<trkpt lat="59.5399260" lon="31.1629080">
<ele>44.360001</ele>
<time>2026-08-31T22:11:12.000Z</time>
</trkpt>
<trkpt lat="59.5399246" lon="31.1629437">
<ele>44.360001</ele>
<time>2026-08-31T22:11:13.000Z</time>
</trkpt>
<trkpt lat="59.5399372" lon="31.1630346">
<ele>43.880001</ele>
<time>2026-08-31T22:11:20.000Z</time>
</trkpt>
<trkpt lat="59.5399330" lon="31.1631407">
<ele>43.880001</ele>
<time>2026-08-31T22:11:32.000Z</time>
</trkpt>
<trkpt lat="59.5399211" lon="31.1632636">
<ele>43.880001</ele>
<time>2026-08-31T22:11:42.000Z</time>
</trkpt>
<trkpt lat="59.5398946" lon="31.1633854">
<ele>43.400002</ele>
<time>2026-08-31T22:11:51.000Z</time>
</trkpt>
<trkpt lat="59.5398978" lon="31.1634097">
<ele>43.400002</ele>
<time>2026-08-31T22:12:03.000Z</time>
</trkpt>
<trkpt lat="59.5399028" lon="31.1634479">
<ele>43.400002</ele>
<time>2026-08-31T22:12:05.000Z</time>
</trkpt>
<trkpt lat="59.5399008" lon="31.1634914">
<ele>43.400002</ele>
<time>2026-08-31T22:12:08.000Z</time>
</trkpt>
<trkpt lat="59.5398935" lon="31.1635906">
<ele>44.360001</ele>
<time>2026-08-31T22:12:12.000Z</time>
</trkpt>
<trkpt lat="59.5398945" lon="31.1636473">
<ele>44.360001</ele>
<time>2026-08-31T22:12:15.000Z</time>
</trkpt>
<trkpt lat="59.5398875" lon="31.1636708">
<ele>44.360001</ele>
<time>2026-08-31T22:12:16.000Z</time>
</trkpt>
<trkpt lat="59.5398850" lon="31.1637670">
<ele>44.360001</ele>
<time>2026-08-31T22:12:24.000Z</time>
</trkpt>
<trkpt lat="59.5398845" lon="31.1637738">
<ele>42.919998</ele>
<time>2026-08-31T22:12:27.000Z</time>
</trkpt>
<trkpt lat="59.5398755" lon="31.1638079">
<ele>42.919998</ele>
<time>2026-08-31T22:12:28.000Z</time>
</trkpt>
<trkpt lat="59.5398631" lon="31.1638401">
<ele>42.919998</ele>
<time>2026-08-31T22:12:29.000Z</time>
</trkpt>
<trkpt lat="59.5398506" lon="31.1638671">
<ele>42.919998</ele>
<time>2026-08-31T22:12:30.000Z</time>
</trkpt>
<trkpt lat="59.5398320" lon="31.1639088">
<ele>42.919998</ele>
<time>2026-08-31T22:12:34.000Z</time>
</trkpt>
<trkpt lat="59.5398043" lon="31.1639842">
<ele>42.919998</ele>
<time>2026-08-31T22:12:38.000Z</time>
</trkpt>
<trkpt lat="59.5397946" lon="31.1640064">
<ele>42.919998</ele>
<time>2026-08-31T22:12:39.000Z</time>
</trkpt>
<trkpt lat="59.5397780" lon="31.1640752">
<ele>42.919998</ele>
<time>2026-08-31T22:12:42.000Z</time>
</trkpt>
<trkpt lat="59.5397575" lon="31.1641448">
<ele>43.880001</ele>
<time>2026-08-31T22:12:46.000Z</time>
</trkpt>
<trkpt lat="59.5397287" lon="31.1641853">
<ele>43.880001</ele>
<time>2026-08-31T22:12:51.000Z</time>
</trkpt>
<trkpt lat="59.5397128" lon="31.1642245">
<ele>43.880001</ele>
<time>2026-08-31T22:12:54.000Z</time>
</trkpt>
<trkpt lat="59.5396813" lon="31.1642473">
<ele>43.880001</ele>
<time>2026-08-31T22:12:57.000Z</time>
</trkpt>
<trkpt lat="59.5396709" lon="31.1642628">
<ele>44.839996</ele>
<time>2026-08-31T22:12:58.000Z</time>
</trkpt>
<trkpt lat="59.5396457" lon="31.1642779">
<ele>43.400002</ele>
<time>2026-08-31T22:13:02.000Z</time>
</trkpt>
<trkpt lat="59.5396331" lon="31.1642963">
<ele>43.400002</ele>
<time>2026-08-31T22:13:05.000Z</time>
</trkpt>
<trkpt lat="59.5396225" lon="31.1643135">
<ele>43.400002</ele>
<time>2026-08-31T22:13:06.000Z</time>
</trkpt>
<trkpt lat="59.5395667" lon="31.1643793">
<ele>43.400002</ele>
<time>2026-08-31T22:13:12.000Z</time>
</trkpt>
<trkpt lat="59.5395471" lon="31.1643979">
<ele>43.400002</ele>
<time>2026-08-31T22:13:13.000Z</time>
</trkpt>
<trkpt lat="59.5395300" lon="31.1644165">
<ele>43.400002</ele>
<time>2026-08-31T22:13:14.000Z</time>
</trkpt>
<trkpt lat="59.5395076" lon="31.1644508">
<ele>43.400002</ele>
<time>2026-08-31T22:13:17.000Z</time>
</trkpt>
<trkpt lat="59.5394632" lon="31.1645120">
<ele>43.400002</ele>
<time>2026-08-31T22:13:21.000Z</time>
</trkpt>
<trkpt lat="59.5394526" lon="31.1645272">
<ele>43.400002</ele>
<time>2026-08-31T22:13:22.000Z</time>
</trkpt>
<trkpt lat="59.5394393" lon="31.1645423">
<ele>43.400002</ele>
<time>2026-08-31T22:13:26.000Z</time>
</trkpt>
<trkpt lat="59.5394237" lon="31.1645548">
<ele>43.400002</ele>
<time>2026-08-31T22:13:27.000Z</time>
</trkpt>
<trkpt lat="59.5394093" lon="31.1645689">
<ele>43.400002</ele>
<time>2026-08-31T22:13:28.000Z</time>
</trkpt>
<trkpt lat="59.5393877" lon="31.1646062">
<ele>43.400002</ele>
<time>2026-08-31T22:13:31.000Z</time>
</trkpt>
<trkpt lat="59.5393708" lon="31.1646240">
<ele>43.400002</ele>
<time>2026-08-31T22:13:32.000Z</time>
</trkpt>
<trkpt lat="59.5393512" lon="31.1646366">
<ele>43.400002</ele>
<time>2026-08-31T22:13:33.000Z</time>
</trkpt>
<trkpt lat="59.5393273" lon="31.1646559">
<ele>43.400002</ele>
<time>2026-08-31T22:13:35.000Z</time>
</trkpt>
<trkpt lat="59.5393130" lon="31.1646686">
<ele>43.400002</ele>
<time>2026-08-31T22:13:36.000Z</time>
</trkpt>
<trkpt lat="59.5392994" lon="31.1646844">
<ele>43.400002</ele>
<time>2026-08-31T22:13:37.000Z</time>
</trkpt>
<trkpt lat="59.5392873" lon="31.1646952">
<ele>44.360001</ele>
<time>2026-08-31T22:13:38.000Z</time>
</trkpt>
<trkpt lat="59.5391935" lon="31.1647824">
<ele>44.360001</ele>
<time>2026-08-31T22:13:46.000Z</time>
</trkpt>
<trkpt lat="59.5391836" lon="31.1648058">
<ele>44.360001</ele>
<time>2026-08-31T22:13:47.000Z</time>
</trkpt>
<trkpt lat="59.5391690" lon="31.1648261">
<ele>44.360001</ele>
<time>2026-08-31T22:13:48.000Z</time>
</trkpt>
<trkpt lat="59.5391455" lon="31.1649017">
<ele>44.360001</ele>
<time>2026-08-31T22:13:52.000Z</time>
</trkpt>
<trkpt lat="59.5391307" lon="31.1649165">
<ele>44.360001</ele>
<time>2026-08-31T22:13:53.000Z</time>
</trkpt>
<trkpt lat="59.5391192" lon="31.1649332">
<ele>44.360001</ele>
<time>2026-08-31T22:13:54.000Z</time>
</trkpt>
<trkpt lat="59.5390485" lon="31.1650981">
<ele>45.320000</ele>
<time>2026-08-31T22:14:07.000Z</time>
</trkpt>
<trkpt lat="59.5390430" lon="31.1651127">
<ele>45.320000</ele>
<time>2026-08-31T22:14:08.000Z</time>
</trkpt>
<trkpt lat="59.5390285" lon="31.1651299">
<ele>45.320000</ele>
<time>2026-08-31T22:14:09.000Z</time>
</trkpt>
<trkpt lat="59.5390140" lon="31.1651470">
<ele>45.320000</ele>
<time>2026-08-31T22:14:10.000Z</time>
</trkpt>
<trkpt lat="59.5389453" lon="31.1653122">
<ele>44.360001</ele>
<time>2026-08-31T22:14:22.000Z</time>
</trkpt>
<trkpt lat="59.5389329" lon="31.1653265">
<ele>44.360001</ele>
<time>2026-08-31T22:14:24.000Z</time>
</trkpt>
<trkpt lat="59.5388822" lon="31.1653906">
<ele>44.360001</ele>
<time>2026-08-31T22:14:30.000Z</time>
</trkpt>
<trkpt lat="59.5388274" lon="31.1654709">
<ele>44.360001</ele>
<time>2026-08-31T22:14:35.000Z</time>
</trkpt>
<trkpt lat="59.5388058" lon="31.1655115">
<ele>44.360001</ele>
<time>2026-08-31T22:14:37.000Z</time>
</trkpt>
<trkpt lat="59.5387964" lon="31.1655309">
<ele>45.320000</ele>
<time>2026-08-31T22:14:38.000Z</time>
</trkpt>
<trkpt lat="59.5387841" lon="31.1655554">
<ele>45.320000</ele>
<time>2026-08-31T22:14:39.000Z</time>
</trkpt>
<trkpt lat="59.5387681" lon="31.1655798">
<ele>45.320000</ele>
<time>2026-08-31T22:14:40.000Z</time>
</trkpt>
<trkpt lat="59.5387126" lon="31.1656780">
<ele>45.320000</ele>
<time>2026-08-31T22:14:47.000Z</time>
</trkpt>
<trkpt lat="59.5386715" lon="31.1657610">
<ele>45.320000</ele>
<time>2026-08-31T22:14:51.000Z</time>
</trkpt>
<trkpt lat="59.5386613" lon="31.1657861">
<ele>45.320000</ele>
<time>2026-08-31T22:14:52.000Z</time>
</trkpt>
<trkpt lat="59.5386502" lon="31.1658172">
<ele>45.320000</ele>
<time>2026-08-31T22:14:53.000Z</time>
</trkpt>
<trkpt lat="59.5386402" lon="31.1658469">
<ele>45.320000</ele>
<time>2026-08-31T22:14:54.000Z</time>
</trkpt>
<trkpt lat="59.5386283" lon="31.1658748">
<ele>45.320000</ele>
<time>2026-08-31T22:14:55.000Z</time>
</trkpt>
<trkpt lat="59.5386214" lon="31.1659080">
<ele>45.320000</ele>
<time>2026-08-31T22:14:56.000Z</time>
</trkpt>
<trkpt lat="59.5385997" lon="31.1660602">
<ele>45.320000</ele>
<time>2026-08-31T22:15:02.000Z</time>
</trkpt>
<trkpt lat="59.5385918" lon="31.1660763">
<ele>45.320000</ele>
<time>2026-08-31T22:15:03.000Z</time>
</trkpt>
<trkpt lat="59.5385833" lon="31.1660933">
<ele>45.320000</ele>
<time>2026-08-31T22:15:04.000Z</time>
</trkpt>
<trkpt lat="59.5385765" lon="31.1661126">
<ele>45.320000</ele>
<time>2026-08-31T22:15:05.000Z</time>
</trkpt>
<trkpt lat="59.5385776" lon="31.1661550">
<ele>45.320000</ele>
<time>2026-08-31T22:15:08.000Z</time>
</trkpt>
<trkpt lat="59.5385701" lon="31.1661781">
<ele>45.320000</ele>
<time>2026-08-31T22:15:09.000Z</time>
</trkpt>
<trkpt lat="59.5385599" lon="31.1662024">
<ele>45.320000</ele>
<time>2026-08-31T22:15:10.000Z</time>
</trkpt>
<trkpt lat="59.5385514" lon="31.1662266">
<ele>45.320000</ele>
<time>2026-08-31T22:15:11.000Z</time>
</trkpt>
<trkpt lat="59.5385165" lon="31.1662665">
<ele>44.360001</ele>
<time>2026-08-31T22:15:25.000Z</time>
</trkpt>
<trkpt lat="59.5385137" lon="31.1662768">
<ele>44.360001</ele>
<time>2026-08-31T22:15:45.000Z</time>
</trkpt>
<trkpt lat="59.5385090" lon="31.1662681">
<ele>45.320000</ele>
<time>2026-08-31T22:16:12.000Z</time>
</trkpt>
<trkpt lat="59.5385122" lon="31.1662712">
<ele>45.320000</ele>
<time>2026-08-31T22:16:34.000Z</time>
</trkpt>
<trkpt lat="59.5385192" lon="31.1662649">
<ele>45.320000</ele>
<time>2026-08-31T22:17:01.000Z</time>
</trkpt>
<trkpt lat="59.5385209" lon="31.1662655">
<ele>45.320000</ele>
<time>2026-08-31T22:17:17.000Z</time>
</trkpt>
<trkpt lat="59.5385240" lon="31.1662656">
<ele>45.320000</ele>
<time>2026-08-31T22:17:46.000Z</time>
</trkpt>
<trkpt lat="59.5385175" lon="31.1662577">
<ele>45.320000</ele>
<time>2026-08-31T22:18:13.000Z</time>
</trkpt>
<trkpt lat="59.5385332" lon="31.1663668">
<ele>44.360001</ele>
<time>2026-08-31T22:18:23.000Z</time>
</trkpt>
<trkpt lat="59.5385255" lon="31.1664222">
<ele>44.360001</ele>
<time>2026-08-31T22:18:26.000Z</time>
</trkpt>
<trkpt lat="59.5385176" lon="31.1664712">
<ele>44.360001</ele>
<time>2026-08-31T22:18:30.000Z</time>
</trkpt>
<trkpt lat="59.5384955" lon="31.1665192">
<ele>43.880001</ele>
<time>2026-08-31T22:18:32.000Z</time>
</trkpt>
<trkpt lat="59.5384845" lon="31.1665795">
<ele>43.880001</ele>
<time>2026-08-31T22:18:36.000Z</time>
</trkpt>
<trkpt lat="59.5384753" lon="31.1666010">
<ele>43.880001</ele>
<time>2026-08-31T22:18:37.000Z</time>
</trkpt>
<trkpt lat="59.5384664" lon="31.1666226">
<ele>43.880001</ele>
<time>2026-08-31T22:18:38.000Z</time>
</trkpt>
<trkpt lat="59.5384549" lon="31.1666944">
<ele>43.880001</ele>
<time>2026-08-31T22:18:42.000Z</time>
</trkpt>
<trkpt lat="59.5384534" lon="31.1667279">
<ele>43.880001</ele>
<time>2026-08-31T22:18:43.000Z</time>
</trkpt>
<trkpt lat="59.5384770" lon="31.1669823">
<ele>43.880001</ele>
<time>2026-08-31T22:18:53.000Z</time>
</trkpt>
<trkpt lat="59.5384840" lon="31.1670151">
<ele>43.880001</ele>
<time>2026-08-31T22:18:54.000Z</time>
</trkpt>
<trkpt lat="59.5385028" lon="31.1671196">
<ele>43.400002</ele>
<time>2026-08-31T22:18:59.000Z</time>
</trkpt>
<trkpt lat="59.5385011" lon="31.1671973">
<ele>43.400002</ele>
<time>2026-08-31T22:19:02.000Z</time>
</trkpt>
<trkpt lat="59.5384995" lon="31.1672299">
<ele>43.400002</ele>
<time>2026-08-31T22:19:03.000Z</time>
</trkpt>
<trkpt lat="59.5385064" lon="31.1673402">
<ele>43.400002</ele>
<time>2026-08-31T22:19:08.000Z</time>
</trkpt>
<trkpt lat="59.5385111" lon="31.1673722">
<ele>43.400002</ele>
<time>2026-08-31T22:19:09.000Z</time>
</trkpt>
<trkpt lat="59.5385288" lon="31.1674974">
<ele>43.400002</ele>
<time>2026-08-31T22:19:18.000Z</time>
</trkpt>
<trkpt lat="59.5385321" lon="31.1675246">
<ele>42.919998</ele>
<time>2026-08-31T22:19:19.000Z</time>
</trkpt>
<trkpt lat="59.5385255" lon="31.1677542">
<ele>43.880001</ele>
<time>2026-08-31T22:19:29.000Z</time>
</trkpt>
<trkpt lat="59.5385237" lon="31.1678324">
<ele>42.439999</ele>
<time>2026-08-31T22:19:34.000Z</time>
</trkpt>
<trkpt lat="59.5385191" lon="31.1679375">
<ele>43.880001</ele>
<time>2026-08-31T22:19:44.000Z</time>
</trkpt>
<trkpt lat="59.5385302" lon="31.1680106">
<ele>43.880001</ele>
<time>2026-08-31T22:19:50.000Z</time>
</trkpt>
<trkpt lat="59.5385172" lon="31.1682184">
<ele>43.880001</ele>
<time>2026-08-31T22:20:01.000Z</time>
</trkpt>
<trkpt lat="59.5385046" lon="31.1682527">
<ele>43.880001</ele>
<time>2026-08-31T22:20:03.000Z</time>
</trkpt>
<trkpt lat="59.5384515" lon="31.1684224">
<ele>43.880001</ele>
<time>2026-08-31T22:20:14.000Z</time>
</trkpt>
<trkpt lat="59.5384347" lon="31.1684352">
<ele>43.880001</ele>
<time>2026-08-31T22:20:15.000Z</time>
</trkpt>
<trkpt lat="59.5384040" lon="31.1685493">
<ele>43.880001</ele>
<time>2026-08-31T22:20:25.000Z</time>
</trkpt>
<trkpt lat="59.5383907" lon="31.1686420">
<ele>44.360001</ele>
<time>2026-08-31T22:20:30.000Z</time>
</trkpt>
<trkpt lat="59.5383831" lon="31.1687566">
<ele>44.839996</ele>
<time>2026-08-31T22:20:36.000Z</time>
</trkpt>
<trkpt lat="59.5383830" lon="31.1688254">
<ele>44.839996</ele>
<time>2026-08-31T22:20:39.000Z</time>
</trkpt>
<trkpt lat="59.5383818" lon="31.1688540">
<ele>44.839996</ele>
<time>2026-08-31T22:20:40.000Z</time>
</trkpt>
<trkpt lat="59.5383831" lon="31.1689324">
<ele>44.839996</ele>
<time>2026-08-31T22:20:44.000Z</time>
</trkpt>
<trkpt lat="59.5383774" lon="31.1690662">
<ele>44.839996</ele>
<time>2026-08-31T22:20:50.000Z</time>
</trkpt>
<trkpt lat="59.5383809" lon="31.1690930">
<ele>44.839996</ele>
<time>2026-08-31T22:20:51.000Z</time>
</trkpt>
<trkpt lat="59.5383823" lon="31.1691143">
<ele>44.839996</ele>
<time>2026-08-31T22:20:52.000Z</time>
</trkpt>
<trkpt lat="59.5383880" lon="31.1691931">
<ele>44.839996</ele>
<time>2026-08-31T22:20:56.000Z</time>
</trkpt>
<trkpt lat="59.5383930" lon="31.1692198">
<ele>44.839996</ele>
<time>2026-08-31T22:20:57.000Z</time>
</trkpt>
<trkpt lat="59.5383991" lon="31.1692656">
<ele>44.839996</ele>
<time>2026-08-31T22:20:59.000Z</time>
</trkpt>
<trkpt lat="59.5384009" lon="31.1692961">
<ele>44.839996</ele>
<time>2026-08-31T22:21:00.000Z</time>
</trkpt>
<trkpt lat="59.5383884" lon="31.1694164">
<ele>44.839996</ele>
<time>2026-08-31T22:21:05.000Z</time>
</trkpt>
<trkpt lat="59.5383914" lon="31.1694506">
<ele>44.839996</ele>
<time>2026-08-31T22:21:06.000Z</time>
</trkpt>
<trkpt lat="59.5384037" lon="31.1696280">
<ele>44.839996</ele>
<time>2026-08-31T22:21:15.000Z</time>
</trkpt>
<trkpt lat="59.5384054" lon="31.1696652">
<ele>44.839996</ele>
<time>2026-08-31T22:21:16.000Z</time>
</trkpt>
<trkpt lat="59.5384100" lon="31.1696979">
<ele>44.839996</ele>
<time>2026-08-31T22:21:17.000Z</time>
</trkpt>
<trkpt lat="59.5384183" lon="31.1697403">
<ele>44.839996</ele>
<time>2026-08-31T22:21:20.000Z</time>
</trkpt>
<trkpt lat="59.5384217" lon="31.1697787">
<ele>44.839996</ele>
<time>2026-08-31T22:21:21.000Z</time>
</trkpt>
<trkpt lat="59.5384246" lon="31.1698138">
<ele>44.839996</ele>
<time>2026-08-31T22:21:22.000Z</time>
</trkpt>
<trkpt lat="59.5384177" lon="31.1699796">
<ele>44.839996</ele>
<time>2026-08-31T22:21:29.000Z</time>
</trkpt>
<trkpt lat="59.5384193" lon="31.1700168">
<ele>44.839996</ele>
<time>2026-08-31T22:21:30.000Z</time>
</trkpt>
<trkpt lat="59.5384285" lon="31.1701089">
<ele>44.839996</ele>
<time>2026-08-31T22:21:34.000Z</time>
</trkpt>
<trkpt lat="59.5384331" lon="31.1701412">
<ele>44.839996</ele>
<time>2026-08-31T22:21:35.000Z</time>
</trkpt>
<trkpt lat="59.5384411" lon="31.1701686">
<ele>44.839996</ele>
<time>2026-08-31T22:21:36.000Z</time>
</trkpt>
<trkpt lat="59.5384421" lon="31.1702511">
<ele>44.839996</ele>
<time>2026-08-31T22:21:40.000Z</time>
</trkpt>
<trkpt lat="59.5384394" lon="31.1703999">
<ele>43.400002</ele>
<time>2026-08-31T22:21:50.000Z</time>
</trkpt>
<trkpt lat="59.5384226" lon="31.1705454">
<ele>43.400002</ele>
<time>2026-08-31T22:21:57.000Z</time>
</trkpt>
<trkpt lat="59.5384245" lon="31.1706281">
<ele>44.360001</ele>
<time>2026-08-31T22:22:05.000Z</time>
</trkpt>
<trkpt lat="59.5383971" lon="31.1707046">
<ele>44.360001</ele>
<time>2026-08-31T22:22:15.000Z</time>
</trkpt>
<trkpt lat="59.5383525" lon="31.1708583">
<ele>44.360001</ele>
<time>2026-08-31T22:22:26.000Z</time>
</trkpt>
<trkpt lat="59.5383423" lon="31.1708710">
<ele>44.360001</ele>
<time>2026-08-31T22:22:27.000Z</time>
</trkpt>
<trkpt lat="59.5383331" lon="31.1708935">
<ele>44.360001</ele>
<time>2026-08-31T22:22:30.000Z</time>
</trkpt>
<trkpt lat="59.5383230" lon="31.1709111">
<ele>44.360001</ele>
<time>2026-08-31T22:22:31.000Z</time>
</trkpt>
<trkpt lat="59.5383194" lon="31.1709841">
<ele>44.360001</ele>
<time>2026-08-31T22:22:35.000Z</time>
</trkpt>
<trkpt lat="59.5382930" lon="31.1710926">
<ele>44.360001</ele>
<time>2026-08-31T22:22:43.000Z</time>
</trkpt>
<trkpt lat="59.5382708" lon="31.1711278">
<ele>44.839996</ele>
<time>2026-08-31T22:22:47.000Z</time>
</trkpt>
<trkpt lat="59.5382263" lon="31.1712259">
<ele>43.400002</ele>
<time>2026-08-31T22:22:55.000Z</time>
</trkpt>
<trkpt lat="59.5382177" lon="31.1712473">
<ele>43.400002</ele>
<time>2026-08-31T22:22:56.000Z</time>
</trkpt>
<trkpt lat="59.5382089" lon="31.1712673">
<ele>43.400002</ele>
<time>2026-08-31T22:22:57.000Z</time>
</trkpt>
<trkpt lat="59.5382059" lon="31.1712839">
<ele>43.400002</ele>
<time>2026-08-31T22:22:59.000Z</time>
</trkpt>
<trkpt lat="59.5381968" lon="31.1713067">
<ele>43.400002</ele>
<time>2026-08-31T22:23:00.000Z</time>
</trkpt>
<trkpt lat="59.5381876" lon="31.1713310">
<ele>43.400002</ele>
<time>2026-08-31T22:23:01.000Z</time>
</trkpt>
<trkpt lat="59.5381796" lon="31.1713951">
<ele>43.400002</ele>
<time>2026-08-31T22:23:05.000Z</time>
</trkpt>
<trkpt lat="59.5381697" lon="31.1714158">
<ele>43.400002</ele>
<time>2026-08-31T22:23:06.000Z</time>
</trkpt>
<trkpt lat="59.5381609" lon="31.1714399">
<ele>43.400002</ele>
<time>2026-08-31T22:23:07.000Z</time>
</trkpt>
<trkpt lat="59.5381434" lon="31.1715667">
<ele>43.400002</ele>
<time>2026-08-31T22:23:13.000Z</time>
</trkpt>
<trkpt lat="59.5381389" lon="31.1715909">
<ele>43.400002</ele>
<time>2026-08-31T22:23:14.000Z</time>
</trkpt>
<trkpt lat="59.5381148" lon="31.1716691">
<ele>43.400002</ele>
<time>2026-08-31T22:23:19.000Z</time>
</trkpt>
<trkpt lat="59.5381435" lon="31.1718152">
<ele>43.400002</ele>
<time>2026-08-31T22:23:23.000Z</time>
</trkpt>
<trkpt lat="59.5381398" lon="31.1718495">
<ele>43.400002</ele>
<time>2026-08-31T22:23:24.000Z</time>
</trkpt>
<trkpt lat="59.5381407" lon="31.1718900">
<ele>43.400002</ele>
<time>2026-08-31T22:23:25.000Z</time>
</trkpt>
<trkpt lat="59.5381823" lon="31.1719939">
<ele>43.400002</ele>
<time>2026-08-31T22:23:31.000Z</time>
</trkpt>
<trkpt lat="59.5381966" lon="31.1720600">
<ele>43.400002</ele>
<time>2026-08-31T22:23:48.000Z</time>
</trkpt>
<trkpt lat="59.5381985" lon="31.1720859">
<ele>43.400002</ele>
<time>2026-08-31T22:24:06.000Z</time>
</trkpt>
<trkpt lat="59.5382105" lon="31.1720787">
<ele>44.839996</ele>
<time>2026-08-31T22:24:27.000Z</time>
</trkpt>
<trkpt lat="59.5382071" lon="31.1721167">
<ele>44.839996</ele>
<time>2026-08-31T22:24:54.000Z</time>
</trkpt>
<trkpt lat="59.5382033" lon="31.1721409">
<ele>45.320000</ele>
<time>2026-08-31T22:25:13.000Z</time>
</trkpt>
<trkpt lat="59.5381780" lon="31.1720915">
<ele>43.880001</ele>
<time>2026-08-31T22:25:26.000Z</time>
</trkpt>
<trkpt lat="59.5381410" lon="31.1721273">
<ele>43.880001</ele>
<time>2026-08-31T22:25:33.000Z</time>
</trkpt>
<trkpt lat="59.5381239" lon="31.1721513">
<ele>43.880001</ele>
<time>2026-08-31T22:25:35.000Z</time>
</trkpt>
<trkpt lat="59.5381116" lon="31.1721786">
<ele>43.880001</ele>
<time>2026-08-31T22:25:36.000Z</time>
</trkpt>
<trkpt lat="59.5381005" lon="31.1722053">
<ele>43.880001</ele>
<time>2026-08-31T22:25:37.000Z</time>
</trkpt>
<trkpt lat="59.5380842" lon="31.1722752">
<ele>43.880001</ele>
<time>2026-08-31T22:25:42.000Z</time>
</trkpt>
<trkpt lat="59.5380755" lon="31.1723200">
<ele>43.880001</ele>
<time>2026-08-31T22:25:44.000Z</time>
</trkpt>
<trkpt lat="59.5380681" lon="31.1723461">
<ele>43.880001</ele>
<time>2026-08-31T22:25:45.000Z</time>
</trkpt>
<trkpt lat="59.5380586" lon="31.1723744">
<ele>43.880001</ele>
<time>2026-08-31T22:25:46.000Z</time>
</trkpt>
<trkpt lat="59.5380453" lon="31.1724365">
<ele>43.880001</ele>
<time>2026-08-31T22:25:50.000Z</time>
</trkpt>
<trkpt lat="59.5380381" lon="31.1724657">
<ele>43.880001</ele>
<time>2026-08-31T22:25:51.000Z</time>
</trkpt>
<trkpt lat="59.5380077" lon="31.1725496">
<ele>43.880001</ele>
<time>2026-08-31T22:25:56.000Z</time>
</trkpt>
<trkpt lat="59.5379813" lon="31.1726141">
<ele>43.880001</ele>
<time>2026-08-31T22:26:02.000Z</time>
</trkpt>
<trkpt lat="59.5379668" lon="31.1726690">
<ele>43.880001</ele>
<time>2026-08-31T22:26:12.000Z</time>
</trkpt>
<trkpt lat="59.5378705" lon="31.1727952">
<ele>43.880001</ele>
<time>2026-08-31T22:26:23.000Z</time>
</trkpt>
<trkpt lat="59.5378475" lon="31.1728407">
<ele>43.880001</ele>
<time>2026-08-31T22:26:28.000Z</time>
</trkpt>
<trkpt lat="59.5378337" lon="31.1728894">
<ele>43.880001</ele>
<time>2026-08-31T22:26:32.000Z</time>
</trkpt>
<trkpt lat="59.5378116" lon="31.1729644">
<ele>43.880001</ele>
<time>2026-08-31T22:26:36.000Z</time>
</trkpt>
<trkpt lat="59.5377947" lon="31.1729892">
<ele>43.880001</ele>
<time>2026-08-31T22:26:37.000Z</time>
</trkpt>
<trkpt lat="59.5377667" lon="31.1730622">
<ele>43.880001</ele>
<time>2026-08-31T22:26:40.000Z</time>
</trkpt>
<trkpt lat="59.5377575" lon="31.1730910">
<ele>43.880001</ele>
<time>2026-08-31T22:26:41.000Z</time>
</trkpt>
<trkpt lat="59.5377100" lon="31.1732725">
<ele>43.880001</ele>
<time>2026-08-31T22:26:52.000Z</time>
</trkpt>
<trkpt lat="59.5376401" lon="31.1734471">
<ele>45.320000</ele>
<time>2026-08-31T22:27:05.000Z</time>
</trkpt>
<trkpt lat="59.5376225" lon="31.1734792">
<ele>45.320000</ele>
<time>2026-08-31T22:27:07.000Z</time>
</trkpt>
<trkpt lat="59.5375846" lon="31.1735388">
<ele>45.320000</ele>
<time>2026-08-31T22:27:11.000Z</time>
</trkpt>
<trkpt lat="59.5375707" lon="31.1735517">
<ele>45.320000</ele>
<time>2026-08-31T22:27:12.000Z</time>
</trkpt>
<trkpt lat="59.5374460" lon="31.1736983">
<ele>45.799999</ele>
<time>2026-08-31T22:27:24.000Z</time>
</trkpt>
<trkpt lat="59.5372797" lon="31.1738063">
<ele>46.760002</ele>
<time>2026-08-31T22:27:41.000Z</time>
</trkpt>
<trkpt lat="59.5372295" lon="31.1738048">
<ele>45.320000</ele>
<time>2026-08-31T22:27:46.000Z</time>
</trkpt>
<trkpt lat="59.5370850" lon="31.1737197">
<ele>44.839996</ele>
<time>2026-08-31T22:28:00.000Z</time>
</trkpt>
<trkpt lat="59.5369316" lon="31.1737457">
<ele>45.799999</ele>
<time>2026-08-31T22:28:11.000Z</time>
</trkpt>
<trkpt lat="59.5368777" lon="31.1737884">
<ele>45.799999</ele>
<time>2026-08-31T22:28:15.000Z</time>
</trkpt>
<trkpt lat="59.5368601" lon="31.1738029">
<ele>45.799999</ele>
<time>2026-08-31T22:28:16.000Z</time>
</trkpt>
<trkpt lat="59.5367826" lon="31.1738990">
<ele>45.799999</ele>
<time>2026-08-31T22:28:22.000Z</time>
</trkpt>
<trkpt lat="59.5367677" lon="31.1739118">
<ele>45.799999</ele>
<time>2026-08-31T22:28:23.000Z</time>
</trkpt>
<trkpt lat="59.5367519" lon="31.1739350">
<ele>45.799999</ele>
<time>2026-08-31T22:28:24.000Z</time>
</trkpt>
<trkpt lat="59.5366743" lon="31.1740049">
<ele>45.799999</ele>
<time>2026-08-31T22:28:36.000Z</time>
</trkpt>
<trkpt lat="59.5366582" lon="31.1740139">
<ele>45.799999</ele>
<time>2026-08-31T22:28:37.000Z</time>
</trkpt>
<trkpt lat="59.5366275" lon="31.1740226">
<ele>45.799999</ele>
<time>2026-08-31T22:28:39.000Z</time>
</trkpt>
<trkpt lat="59.5365735" lon="31.1740575">
<ele>45.799999</ele>
<time>2026-08-31T22:28:42.000Z</time>
</trkpt>
<trkpt lat="59.5365097" lon="31.1740862">
<ele>45.799999</ele>
<time>2026-08-31T22:28:47.000Z</time>
</trkpt>
<trkpt lat="59.5364408" lon="31.1741696">
<ele>44.839996</ele>
<time>2026-08-31T22:28:53.000Z</time>
</trkpt>
<trkpt lat="59.5364319" lon="31.1741939">
<ele>44.839996</ele>
<time>2026-08-31T22:28:54.000Z</time>
</trkpt>
<trkpt lat="59.5364175" lon="31.1742335">
<ele>44.839996</ele>
<time>2026-08-31T22:28:55.000Z</time>
</trkpt>
<trkpt lat="59.5363563" lon="31.1744231">
<ele>44.839996</ele>
<time>2026-08-31T22:29:05.000Z</time>
</trkpt>
<trkpt lat="59.5363279" lon="31.1744961">
<ele>44.839996</ele>
<time>2026-08-31T22:29:09.000Z</time>
</trkpt>
<trkpt lat="59.5363191" lon="31.1745202">
<ele>44.839996</ele>
<time>2026-08-31T22:29:10.000Z</time>
</trkpt>
<trkpt lat="59.5362878" lon="31.1747202">
<ele>46.279999</ele>
<time>2026-08-31T22:29:20.000Z</time>
</trkpt>
<trkpt lat="59.5362753" lon="31.1748809">
<ele>46.279999</ele>
<time>2026-08-31T22:29:26.000Z</time>
</trkpt>
<trkpt lat="59.5362693" lon="31.1749021">
<ele>46.279999</ele>
<time>2026-08-31T22:29:27.000Z</time>
</trkpt>
<trkpt lat="59.5362636" lon="31.1749270">
<ele>46.279999</ele>
<time>2026-08-31T22:29:28.000Z</time>
</trkpt>
<trkpt lat="59.5362680" lon="31.1749969">
<ele>46.279999</ele>
<time>2026-08-31T22:29:42.000Z</time>
</trkpt>
<trkpt lat="59.5362617" lon="31.1750508">
<ele>46.279999</ele>
<time>2026-08-31T22:29:50.000Z</time>
</trkpt>
<trkpt lat="59.5362263" lon="31.1752098">
<ele>44.839996</ele>
<time>2026-08-31T22:30:00.000Z</time>
</trkpt>
<trkpt lat="59.5361758" lon="31.1753782">
<ele>44.839996</ele>
<time>2026-08-31T22:30:09.000Z</time>
</trkpt>
<trkpt lat="59.5361605" lon="31.1754429">
<ele>44.839996</ele>
<time>2026-08-31T22:30:14.000Z</time>
</trkpt>
<trkpt lat="59.5361563" lon="31.1754706">
<ele>44.839996</ele>
<time>2026-08-31T22:30:15.000Z</time>
</trkpt>
<trkpt lat="59.5361594" lon="31.1755902">
<ele>46.279999</ele>
<time>2026-08-31T22:30:29.000Z</time>
</trkpt>
<trkpt lat="59.5361678" lon="31.1756699">
<ele>46.279999</ele>
<time>2026-08-31T22:30:54.000Z</time>
</trkpt>
<trkpt lat="59.5361639" lon="31.1757020">
<ele>46.279999</ele>
<time>2026-08-31T22:31:15.000Z</time>
</trkpt>
<trkpt lat="59.5361453" lon="31.1757045">
<ele>46.279999</ele>
<time>2026-08-31T22:31:33.000Z</time>
</trkpt>
<trkpt lat="59.5361380" lon="31.1757299">
<ele>46.279999</ele>
<time>2026-08-31T22:32:00.000Z</time>
</trkpt>
<trkpt lat="59.5361163" lon="31.1757505">
<ele>46.279999</ele>
<time>2026-08-31T22:32:29.000Z</time>
</trkpt>
<trkpt lat="59.5361066" lon="31.1757733">
<ele>46.760002</ele>
<time>2026-08-31T22:32:54.000Z</time>
</trkpt>
<trkpt lat="59.5361049" lon="31.1757730">
<ele>46.760002</ele>
<time>2026-08-31T22:33:14.000Z</time>
</trkpt>
<trkpt lat="59.5361023" lon="31.1757751">
<ele>46.760002</ele>
<time>2026-08-31T22:33:34.000Z</time>
</trkpt>
<trkpt lat="59.5361042" lon="31.1757807">
<ele>46.760002</ele>
<time>2026-08-31T22:33:53.000Z</time>
</trkpt>
<trkpt lat="59.5361006" lon="31.1757726">
<ele>46.760002</ele>
<time>2026-08-31T22:34:17.000Z</time>
</trkpt>
<trkpt lat="59.5360950" lon="31.1757551">
<ele>47.240002</ele>
<time>2026-08-31T22:34:39.000Z</time>
</trkpt>
<trkpt lat="59.5360952" lon="31.1757582">
<ele>47.240002</ele>
<time>2026-08-31T22:34:55.000Z</time>
</trkpt>
<trkpt lat="59.5361021" lon="31.1757554">
<ele>47.240002</ele>
<time>2026-08-31T22:35:20.000Z</time>
</trkpt>
<trkpt lat="59.5361062" lon="31.1757445">
<ele>47.240002</ele>
<time>2026-08-31T22:35:38.000Z</time>
</trkpt>
<trkpt lat="59.5361126" lon="31.1757522">
<ele>46.279999</ele>
<time>2026-08-31T22:36:03.000Z</time>
</trkpt>
<trkpt lat="59.5361273" lon="31.1757475">
<ele>46.279999</ele>
<time>2026-08-31T22:36:30.000Z</time>
</trkpt>
<trkpt lat="59.5361306" lon="31.1757455">
<ele>46.279999</ele>
<time>2026-08-31T22:36:49.000Z</time>
</trkpt>
<trkpt lat="59.5361313" lon="31.1757399">
<ele>46.279999</ele>
<time>2026-08-31T22:37:15.000Z</time>
</trkpt>
<trkpt lat="59.5361312" lon="31.1757564">
<ele>47.719997</ele>
<time>2026-08-31T22:37:43.000Z</time>
</trkpt>
<trkpt lat="59.5361264" lon="31.1757525">
<ele>47.719997</ele>
<time>2026-08-31T22:38:00.000Z</time>
</trkpt>
<trkpt lat="59.5361302" lon="31.1757495">
<ele>47.719997</ele>
<time>2026-08-31T22:38:21.000Z</time>
</trkpt>
<trkpt lat="59.5361118" lon="31.1758151">
<ele>47.719997</ele>
<time>2026-08-31T22:38:34.000Z</time>
</trkpt>
<trkpt lat="59.5360338" lon="31.1760822">
<ele>47.719997</ele>
<time>2026-08-31T22:38:48.000Z</time>
</trkpt>
<trkpt lat="59.5360205" lon="31.1760994">
<ele>47.719997</ele>
<time>2026-08-31T22:38:49.000Z</time>
</trkpt>
<trkpt lat="59.5359909" lon="31.1762110">
<ele>47.719997</ele>
<time>2026-08-31T22:38:55.000Z</time>
</trkpt>
<trkpt lat="59.5359674" lon="31.1763022">
<ele>47.719997</ele>
<time>2026-08-31T22:39:00.000Z</time>
</trkpt>
<trkpt lat="59.5359356" lon="31.1764025">
<ele>47.719997</ele>
<time>2026-08-31T22:39:06.000Z</time>
</trkpt>
<trkpt lat="59.5359189" lon="31.1764469">
<ele>47.719997</ele>
<time>2026-08-31T22:39:08.000Z</time>
</trkpt>
<trkpt lat="59.5359149" lon="31.1765090">
<ele>46.279999</ele>
<time>2026-08-31T22:39:11.000Z</time>
</trkpt>
<trkpt lat="59.5359113" lon="31.1765774">
<ele>45.799999</ele>
<time>2026-08-31T22:39:14.000Z</time>
</trkpt>
<trkpt lat="59.5358890" lon="31.1769053">
<ele>46.760002</ele>
<time>2026-08-31T22:39:26.000Z</time>
</trkpt>
<trkpt lat="59.5358788" lon="31.1770400">
<ele>46.760002</ele>
<time>2026-08-31T22:39:36.000Z</time>
</trkpt>
<trkpt lat="59.5358797" lon="31.1770752">
<ele>46.279999</ele>
<time>2026-08-31T22:39:43.000Z</time>
</trkpt>
<trkpt lat="59.5358907" lon="31.1770960">
<ele>47.719997</ele>
<time>2026-08-31T22:39:59.000Z</time>
</trkpt>
<trkpt lat="59.5358855" lon="31.1771275">
<ele>46.760002</ele>
<time>2026-08-31T22:40:21.000Z</time>
</trkpt>
<trkpt lat="59.5358882" lon="31.1771786">
<ele>47.719997</ele>
<time>2026-08-31T22:40:24.000Z</time>
</trkpt>
<trkpt lat="59.5358882" lon="31.1772027">
<ele>47.719997</ele>
<time>2026-08-31T22:40:25.000Z</time>
</trkpt>
<trkpt lat="59.5358865" lon="31.1772361">
<ele>46.279999</ele>
<time>2026-08-31T22:40:26.000Z</time>
</trkpt>
<trkpt lat="59.5358835" lon="31.1772698">
<ele>46.279999</ele>
<time>2026-08-31T22:40:27.000Z</time>
</trkpt>
<trkpt lat="59.5358818" lon="31.1773045">
<ele>46.279999</ele>
<time>2026-08-31T22:40:29.000Z</time>
</trkpt>
<trkpt lat="59.5358793" lon="31.1773291">
<ele>46.279999</ele>
<time>2026-08-31T22:40:30.000Z</time>
</trkpt>
<trkpt lat="59.5358722" lon="31.1774399">
<ele>46.279999</ele>
<time>2026-08-31T22:40:36.000Z</time>
</trkpt>
<trkpt lat="59.5358675" lon="31.1774984">
<ele>46.279999</ele>
<time>2026-08-31T22:40:40.000Z</time>
</trkpt>
<trkpt lat="59.5358648" lon="31.1775232">
<ele>46.279999</ele>
<time>2026-08-31T22:40:41.000Z</time>
</trkpt>
<trkpt lat="59.5358941" lon="31.1777944">
<ele>46.279999</ele>
<time>2026-08-31T22:40:53.000Z</time>
</trkpt>
<trkpt lat="59.5358946" lon="31.1779672">
<ele>46.279999</ele>
<time>2026-08-31T22:41:00.000Z</time>
</trkpt>
<trkpt lat="59.5358942" lon="31.1779985">
<ele>46.279999</ele>
<time>2026-08-31T22:41:01.000Z</time>
</trkpt>
<trkpt lat="59.5359075" lon="31.1782081">
<ele>46.279999</ele>
<time>2026-08-31T22:41:10.000Z</time>
</trkpt>
<trkpt lat="59.5359135" lon="31.1782349">
<ele>46.279999</ele>
<time>2026-08-31T22:41:11.000Z</time>
</trkpt>
<trkpt lat="59.5359262" lon="31.1783019">
<ele>46.279999</ele>
<time>2026-08-31T22:41:16.000Z</time>
</trkpt>
<trkpt lat="59.5359492" lon="31.1783814">
<ele>46.279999</ele>
<time>2026-08-31T22:41:21.000Z</time>
</trkpt>
<trkpt lat="59.5359572" lon="31.1784175">
<ele>46.279999</ele>
<time>2026-08-31T22:41:22.000Z</time>
</trkpt>
<trkpt lat="59.5359746" lon="31.1786660">
<ele>46.279999</ele>
<time>2026-08-31T22:41:32.000Z</time>
</trkpt>
<trkpt lat="59.5359755" lon="31.1786942">
<ele>46.279999</ele>
<time>2026-08-31T22:41:33.000Z</time>
</trkpt>
<trkpt lat="59.5359741" lon="31.1787275">
<ele>46.279999</ele>
<time>2026-08-31T22:41:34.000Z</time>
</trkpt>
<trkpt lat="59.5359779" lon="31.1787569">
<ele>46.279999</ele>
<time>2026-08-31T22:41:35.000Z</time>
</trkpt>
<trkpt lat="59.5359921" lon="31.1788440">
<ele>46.279999</ele>
<time>2026-08-31T22:41:40.000Z</time>
</trkpt>
<trkpt lat="59.5359921" lon="31.1788732">
<ele>46.279999</ele>
<time>2026-08-31T22:41:41.000Z</time>
</trkpt>
<trkpt lat="59.5360046" lon="31.1789671">
<ele>46.279999</ele>
<time>2026-08-31T22:41:46.000Z</time>
</trkpt>
<trkpt lat="59.5360069" lon="31.1789989">
<ele>46.279999</ele>
<time>2026-08-31T22:41:47.000Z</time>
</trkpt>
<trkpt lat="59.5360119" lon="31.1790312">
<ele>46.279999</ele>
<time>2026-08-31T22:41:48.000Z</time>
</trkpt>
<trkpt lat="59.5360164" lon="31.1790611">
<ele>46.279999</ele>
<time>2026-08-31T22:41:49.000Z</time>
</trkpt>
<trkpt lat="59.5360317" lon="31.1792279">
<ele>46.279999</ele>
<time>2026-08-31T22:41:59.000Z</time>
</trkpt>
<trkpt lat="59.5360249" lon="31.1792640">
<ele>46.279999</ele>
<time>2026-08-31T22:42:00.000Z</time>
</trkpt>
<trkpt lat="59.5360213" lon="31.1794308">
<ele>47.240002</ele>
<time>2026-08-31T22:42:08.000Z</time>
</trkpt>
<trkpt lat="59.5360174" lon="31.1794799">
<ele>47.240002</ele>
<time>2026-08-31T22:42:10.000Z</time>
</trkpt>
<trkpt lat="59.5360104" lon="31.1795207">
<ele>47.240002</ele>
<time>2026-08-31T22:42:11.000Z</time>
</trkpt>
<trkpt lat="59.5360027" lon="31.1795552">
<ele>47.240002</ele>
<time>2026-08-31T22:42:12.000Z</time>
</trkpt>
<trkpt lat="59.5360087" lon="31.1796418">
<ele>47.240002</ele>
<time>2026-08-31T22:42:16.000Z</time>
</trkpt>
<trkpt lat="59.5360105" lon="31.1796816">
<ele>47.240002</ele>
<time>2026-08-31T22:42:17.000Z</time>
</trkpt>
<trkpt lat="59.5360123" lon="31.1797595">
<ele>48.200001</ele>
<time>2026-08-31T22:42:20.000Z</time>
</trkpt>
<trkpt lat="59.5360074" lon="31.1797937">
<ele>48.680000</ele>
<time>2026-08-31T22:42:21.000Z</time>
</trkpt>
<trkpt lat="59.5360078" lon="31.1798321">
<ele>49.160000</ele>
<time>2026-08-31T22:42:22.000Z</time>
</trkpt>
<trkpt lat="59.5360134" lon="31.1798895">
<ele>48.200001</ele>
<time>2026-08-31T22:42:26.000Z</time>
</trkpt>
<trkpt lat="59.5360137" lon="31.1799153">
<ele>48.200001</ele>
<time>2026-08-31T22:42:27.000Z</time>
</trkpt>
<trkpt lat="59.5360102" lon="31.1799494">
<ele>48.200001</ele>
<time>2026-08-31T22:42:28.000Z</time>
</trkpt>
<trkpt lat="59.5360056" lon="31.1801139">
<ele>48.200001</ele>
<time>2026-08-31T22:42:37.000Z</time>
</trkpt>
<trkpt lat="59.5360129" lon="31.1801833">
<ele>48.200001</ele>
<time>2026-08-31T22:42:40.000Z</time>
</trkpt>
<trkpt lat="59.5360122" lon="31.1802225">
<ele>48.200001</ele>
<time>2026-08-31T22:42:41.000Z</time>
</trkpt>
<trkpt lat="59.5360324" lon="31.1804696">
<ele>48.200001</ele>
<time>2026-08-31T22:42:52.000Z</time>
</trkpt>
<trkpt lat="59.5360437" lon="31.1805612">
<ele>48.200001</ele>
<time>2026-08-31T22:42:56.000Z</time>
</trkpt>
<trkpt lat="59.5360488" lon="31.1806003">
<ele>48.200001</ele>
<time>2026-08-31T22:42:57.000Z</time>
</trkpt>
<trkpt lat="59.5360571" lon="31.1806724">
<ele>48.200001</ele>
<time>2026-08-31T22:42:59.000Z</time>
</trkpt>
<trkpt lat="59.5360584" lon="31.1807987">
<ele>48.200001</ele>
<time>2026-08-31T22:43:04.000Z</time>
</trkpt>
<trkpt lat="59.5360738" lon="31.1809085">
<ele>48.200001</ele>
<time>2026-08-31T22:43:09.000Z</time>
</trkpt>
<trkpt lat="59.5360790" lon="31.1809479">
<ele>48.200001</ele>
<time>2026-08-31T22:43:10.000Z</time>
</trkpt>
<trkpt lat="59.5360825" lon="31.1809891">
<ele>48.200001</ele>
<time>2026-08-31T22:43:11.000Z</time>
</trkpt>
<trkpt lat="59.5360615" lon="31.1811639">
<ele>48.200001</ele>
<time>2026-08-31T22:43:21.000Z</time>
</trkpt>
<trkpt lat="59.5360348" lon="31.1812056">
<ele>48.200001</ele>
<time>2026-08-31T22:43:41.000Z</time>
</trkpt>
<trkpt lat="59.5360241" lon="31.1812151">
<ele>48.200001</ele>
<time>2026-08-31T22:44:08.000Z</time>
</trkpt>
<trkpt lat="59.5360257" lon="31.1812414">
<ele>48.200001</ele>
<time>2026-08-31T22:44:35.000Z</time>
</trkpt>
<trkpt lat="59.5360222" lon="31.1812489">
<ele>48.200001</ele>
<time>2026-08-31T22:45:03.000Z</time>
</trkpt>
<trkpt lat="59.5360194" lon="31.1812292">
<ele>48.200001</ele>
<time>2026-08-31T22:45:26.000Z</time>
</trkpt>
<trkpt lat="59.5360201" lon="31.1812328">
<ele>48.200001</ele>
<time>2026-08-31T22:46:04.000Z</time>
</trkpt>
<trkpt lat="59.5360224" lon="31.1812387">
<ele>48.200001</ele>
<time>2026-08-31T22:46:41.000Z</time>
</trkpt>
<trkpt lat="59.5360202" lon="31.1812426">
<ele>48.200001</ele>
<time>2026-08-31T22:47:11.000Z</time>
</trkpt>
<trkpt lat="59.5360199" lon="31.1812642">
<ele>47.719997</ele>
<time>2026-08-31T22:47:42.000Z</time>
</trkpt>
<trkpt lat="59.5360216" lon="31.1812844">
<ele>49.160000</ele>
<time>2026-08-31T22:48:09.000Z</time>
</trkpt>
<trkpt lat="59.5360268" lon="31.1812874">
<ele>49.160000</ele>
<time>2026-08-31T22:48:38.000Z</time>
</trkpt>
<trkpt lat="59.5360588" lon="31.1812513">
<ele>47.719997</ele>
<time>2026-08-31T22:48:57.000Z</time>
</trkpt>
<trkpt lat="59.5360735" lon="31.1812576">
<ele>47.719997</ele>
<time>2026-08-31T22:48:58.000Z</time>
</trkpt>
<trkpt lat="59.5360964" lon="31.1812724">
<ele>47.719997</ele>
<time>2026-08-31T22:49:00.000Z</time>
</trkpt>
<trkpt lat="59.5361384" lon="31.1813431">
<ele>47.719997</ele>
<time>2026-08-31T22:49:05.000Z</time>
</trkpt>
<trkpt lat="59.5361766" lon="31.1815640">
<ele>47.719997</ele>
<time>2026-08-31T22:49:17.000Z</time>
</trkpt>
<trkpt lat="59.5361865" lon="31.1816691">
<ele>47.240002</ele>
<time>2026-08-31T22:49:23.000Z</time>
</trkpt>
<trkpt lat="59.5361836" lon="31.1817448">
<ele>47.240002</ele>
<time>2026-08-31T22:49:25.000Z</time>
</trkpt>
<trkpt lat="59.5361612" lon="31.1818985">
<ele>47.240002</ele>
<time>2026-08-31T22:49:30.000Z</time>
</trkpt>
<trkpt lat="59.5361327" lon="31.1820129">
<ele>46.279999</ele>
<time>2026-08-31T22:49:43.000Z</time>
</trkpt>
<trkpt lat="59.5361370" lon="31.1821061">
<ele>45.799999</ele>
<time>2026-08-31T22:49:48.000Z</time>
</trkpt>
<trkpt lat="59.5361474" lon="31.1823296">
<ele>45.799999</ele>
<time>2026-08-31T22:49:59.000Z</time>
</trkpt>
<trkpt lat="59.5361511" lon="31.1823429">
<ele>45.799999</ele>
<time>2026-08-31T22:50:00.000Z</time>
</trkpt>
<trkpt lat="59.5361868" lon="31.1826393">
<ele>45.799999</ele>
<time>2026-08-31T22:50:13.000Z</time>
</trkpt>
<trkpt lat="59.5361792" lon="31.1830726">
<ele>45.320000</ele>
<time>2026-08-31T22:50:25.000Z</time>
</trkpt>
<trkpt lat="59.5361772" lon="31.1833239">
<ele>45.320000</ele>
<time>2026-08-31T22:50:36.000Z</time>
</trkpt>
<trkpt lat="59.5361495" lon="31.1835700">
<ele>46.279999</ele>
<time>2026-08-31T22:50:46.000Z</time>
</trkpt>
<trkpt lat="59.5361492" lon="31.1835745">
<ele>46.279999</ele>
<time>2026-08-31T22:50:47.000Z</time>
</trkpt>
<trkpt lat="59.5361272" lon="31.1837078">
<ele>46.760002</ele>
<time>2026-08-31T22:50:54.000Z</time>
</trkpt>
<trkpt lat="59.5361188" lon="31.1837600">
<ele>47.240002</ele>
<time>2026-08-31T22:50:56.000Z</time>
</trkpt>
<trkpt lat="59.5360731" lon="31.1839185">
<ele>45.799999</ele>
<time>2026-08-31T22:51:04.000Z</time>
</trkpt>
<trkpt lat="59.5360905" lon="31.1842693">
<ele>45.799999</ele>
<time>2026-08-31T22:51:15.000Z</time>
</trkpt>
<trkpt lat="59.5361480" lon="31.1844174">
<ele>45.799999</ele>
<time>2026-08-31T22:51:24.000Z</time>
</trkpt>
<trkpt lat="59.5361468" lon="31.1844261">
<ele>45.799999</ele>
<time>2026-08-31T22:51:25.000Z</time>
</trkpt>
<trkpt lat="59.5361839" lon="31.1846616">
<ele>45.799999</ele>
<time>2026-08-31T22:51:37.000Z</time>
</trkpt>
<trkpt lat="59.5361187" lon="31.1848455">
<ele>45.799999</ele>
<time>2026-08-31T22:51:50.000Z</time>
</trkpt>
<trkpt lat="59.5360975" lon="31.1848812">
<ele>45.799999</ele>
<time>2026-08-31T22:52:08.000Z</time>
</trkpt>
<trkpt lat="59.5360801" lon="31.1848464">
<ele>45.799999</ele>
<time>2026-08-31T22:52:48.000Z</time>
</trkpt>
<trkpt lat="59.5360853" lon="31.1848356">
<ele>47.240002</ele>
<time>2026-08-31T22:53:31.000Z</time>
</trkpt>
<trkpt lat="59.5360867" lon="31.1848219">
<ele>47.240002</ele>
<time>2026-08-31T22:54:14.000Z</time>
</trkpt>
<trkpt lat="59.5360893" lon="31.1848043">
<ele>47.240002</ele>
<time>2026-08-31T22:54:40.000Z</time>
</trkpt>
<trkpt lat="59.5360895" lon="31.1848041">
<ele>47.240002</ele>
<time>2026-08-31T22:55:09.000Z</time>
</trkpt>
<trkpt lat="59.5361168" lon="31.1848546">
<ele>47.240002</ele>
<time>2026-08-31T22:55:26.000Z</time>
</trkpt>
<trkpt lat="59.5361453" lon="31.1849484">
<ele>47.719997</ele>
<time>2026-08-31T22:55:30.000Z</time>
</trkpt>
<trkpt lat="59.5361872" lon="31.1852143">
<ele>49.160000</ele>
<time>2026-08-31T22:55:44.000Z</time>
</trkpt>
<trkpt lat="59.5362263" lon="31.1854975">
<ele>49.160000</ele>
<time>2026-08-31T22:55:57.000Z</time>
</trkpt>
<trkpt lat="59.5361831" lon="31.1858266">
<ele>49.160000</ele>
<time>2026-08-31T22:56:10.000Z</time>
</trkpt>
<trkpt lat="59.5362057" lon="31.1860026">
<ele>47.719997</ele>
<time>2026-08-31T22:56:19.000Z</time>
</trkpt>
<trkpt lat="59.5362085" lon="31.1862512">
<ele>47.240002</ele>
<time>2026-08-31T22:56:30.000Z</time>
</trkpt>
<trkpt lat="59.5362035" lon="31.1863231">
<ele>47.240002</ele>
<time>2026-08-31T22:56:33.000Z</time>
</trkpt>
<trkpt lat="59.5361998" lon="31.1865217">
<ele>47.240002</ele>
<time>2026-08-31T22:56:43.000Z</time>
</trkpt>
<trkpt lat="59.5362140" lon="31.1866961">
<ele>46.760002</ele>
<time>2026-08-31T22:56:51.000Z</time>
</trkpt>
<trkpt lat="59.5362198" lon="31.1867754">
<ele>46.760002</ele>
<time>2026-08-31T22:56:55.000Z</time>
</trkpt>
<trkpt lat="59.5361981" lon="31.1870058">
<ele>48.200001</ele>
<time>2026-08-31T22:57:02.000Z</time>
</trkpt>
<trkpt lat="59.5361791" lon="31.1872595">
<ele>48.680000</ele>
<time>2026-08-31T22:57:16.000Z</time>
</trkpt>
<trkpt lat="59.5361678" lon="31.1873642">
<ele>47.719997</ele>
<time>2026-08-31T22:57:55.000Z</time>
</trkpt>
<trkpt lat="59.5361427" lon="31.1876814">
<ele>47.719997</ele>
<time>2026-08-31T22:58:11.000Z</time>
</trkpt>
<trkpt lat="59.5361354" lon="31.1877159">
<ele>47.240002</ele>
<time>2026-08-31T22:58:13.000Z</time>
</trkpt>
<trkpt lat="59.5361210" lon="31.1878344">
<ele>46.760002</ele>
<time>2026-08-31T22:58:20.000Z</time>
</trkpt>
<trkpt lat="59.5361313" lon="31.1880306">
<ele>46.760002</ele>
<time>2026-08-31T22:58:27.000Z</time>
</trkpt>
<trkpt lat="59.5361950" lon="31.1883068">
<ele>47.719997</ele>
<time>2026-08-31T22:58:37.000Z</time>
</trkpt>
<trkpt lat="59.5362385" lon="31.1885792">
<ele>47.719997</ele>
<time>2026-08-31T22:58:49.000Z</time>
</trkpt>
<trkpt lat="59.5362431" lon="31.1888175">
<ele>46.760002</ele>
<time>2026-08-31T22:59:01.000Z</time>
</trkpt>
<trkpt lat="59.5362442" lon="31.1888234">
<ele>46.760002</ele>
<time>2026-08-31T22:59:03.000Z</time>
</trkpt>
<trkpt lat="59.5362558" lon="31.1888913">
<ele>46.760002</ele>
<time>2026-08-31T22:59:35.000Z</time>
</trkpt>
<trkpt lat="59.5362860" lon="31.1892328">
<ele>46.279999</ele>
<time>2026-08-31T22:59:53.000Z</time>
</trkpt>
<trkpt lat="59.5362815" lon="31.1894312">
<ele>46.279999</ele>
<time>2026-08-31T23:00:06.000Z</time>
</trkpt>
<trkpt lat="59.5362839" lon="31.1894429">
<ele>47.240002</ele>
<time>2026-08-31T23:00:14.000Z</time>
</trkpt>
<trkpt lat="59.5362753" lon="31.1895149">
<ele>47.240002</ele>
<time>2026-08-31T23:00:18.000Z</time>
</trkpt>
<trkpt lat="59.5362731" lon="31.1896411">
<ele>46.279999</ele>
<time>2026-08-31T23:00:28.000Z</time>
</trkpt>
<trkpt lat="59.5362755" lon="31.1896541">
<ele>45.799999</ele>
<time>2026-08-31T23:00:53.000Z</time>
</trkpt>
<trkpt lat="59.5362708" lon="31.1896670">
<ele>47.240002</ele>
<time>2026-08-31T23:01:11.000Z</time>
</trkpt>
<trkpt lat="59.5362698" lon="31.1896961">
<ele>45.799999</ele>
<time>2026-08-31T23:01:23.000Z</time>
</trkpt>
<trkpt lat="59.5362729" lon="31.1896705">
<ele>47.240002</ele>
<time>2026-08-31T23:01:44.000Z</time>
</trkpt>
<trkpt lat="59.5362633" lon="31.1896821">
<ele>47.240002</ele>
<time>2026-08-31T23:02:12.000Z</time>
</trkpt>
<trkpt lat="59.5362634" lon="31.1896888">
<ele>45.799999</ele>
<time>2026-08-31T23:02:18.000Z</time>
</trkpt>
<trkpt lat="59.5362867" lon="31.1898095">
<ele>47.240002</ele>
<time>2026-08-31T23:02:30.000Z</time>
</trkpt>
<trkpt lat="59.5363068" lon="31.1898373">
<ele>47.240002</ele>
<time>2026-08-31T23:02:33.000Z</time>
</trkpt>
<trkpt lat="59.5363484" lon="31.1898979">
<ele>45.799999</ele>
<time>2026-08-31T23:02:40.000Z</time>
</trkpt>
<trkpt lat="59.5363497" lon="31.1900548">
<ele>45.799999</ele>
<time>2026-08-31T23:02:47.000Z</time>
</trkpt>
<trkpt lat="59.5363761" lon="31.1901678">
<ele>45.799999</ele>
<time>2026-08-31T23:02:56.000Z</time>
</trkpt>
<trkpt lat="59.5364118" lon="31.1903032">
<ele>45.799999</ele>
<time>2026-08-31T23:03:06.000Z</time>
</trkpt>
<trkpt lat="59.5364514" lon="31.1903568">
<ele>47.240002</ele>
<time>2026-08-31T23:03:15.000Z</time>
</trkpt>
<trkpt lat="59.5364612" lon="31.1903811">
<ele>45.799999</ele>
<time>2026-08-31T23:03:18.000Z</time>
</trkpt>
<trkpt lat="59.5364650" lon="31.1904065">
<ele>45.799999</ele>
<time>2026-08-31T23:03:30.000Z</time>
</trkpt>
<trkpt lat="59.5364850" lon="31.1904538">
<ele>47.240002</ele>
<time>2026-08-31T23:03:40.000Z</time>
</trkpt>
<trkpt lat="59.5364918" lon="31.1904674">
<ele>47.240002</ele>
<time>2026-08-31T23:03:42.000Z</time>
</trkpt>
<trkpt lat="59.5364944" lon="31.1905145">
<ele>46.760002</ele>
<time>2026-08-31T23:03:46.000Z</time>
</trkpt>
<trkpt lat="59.5365447" lon="31.1905478">
<ele>46.760002</ele>
<time>2026-08-31T23:03:53.000Z</time>
</trkpt>
<trkpt lat="59.5366048" lon="31.1905792">
<ele>46.760002</ele>
<time>2026-08-31T23:03:59.000Z</time>
</trkpt>
<trkpt lat="59.5366557" lon="31.1906453">
<ele>46.760002</ele>
<time>2026-08-31T23:04:06.000Z</time>
</trkpt>
<trkpt lat="59.5366713" lon="31.1906755">
<ele>46.760002</ele>
<time>2026-08-31T23:04:10.000Z</time>
</trkpt>
<trkpt lat="59.5367422" lon="31.1907742">
<ele>46.760002</ele>
<time>2026-08-31T23:04:22.000Z</time>
</trkpt>
<trkpt lat="59.5367750" lon="31.1907403">
<ele>46.760002</ele>
<time>2026-08-31T23:04:55.000Z</time>
</trkpt>
<trkpt lat="59.5367769" lon="31.1907506">
<ele>47.719997</ele>
<time>2026-08-31T23:05:20.000Z</time>
</trkpt>
<trkpt lat="59.5367760" lon="31.1907554">
<ele>46.279999</ele>
<time>2026-08-31T23:05:28.000Z</time>
</trkpt>
<trkpt lat="59.5367970" lon="31.1908149">
<ele>47.240002</ele>
<time>2026-08-31T23:05:50.000Z</time>
</trkpt>
<trkpt lat="59.5368616" lon="31.1909330">
<ele>47.240002</ele>
<time>2026-08-31T23:05:59.000Z</time>
</trkpt>
<trkpt lat="59.5368623" lon="31.1909345">
<ele>47.240002</ele>
<time>2026-08-31T23:06:00.000Z</time>
</trkpt>
<trkpt lat="59.5368711" lon="31.1909695">
<ele>47.240002</ele>
<time>2026-08-31T23:06:02.000Z</time>
</trkpt>
<trkpt lat="59.5368820" lon="31.1909983">
<ele>47.240002</ele>
<time>2026-08-31T23:06:03.000Z</time>
</trkpt>
<trkpt lat="59.5369010" lon="31.1910356">
<ele>47.240002</ele>
<time>2026-08-31T23:06:06.000Z</time>
</trkpt>
<trkpt lat="59.5369095" lon="31.1910676">
<ele>47.240002</ele>
<time>2026-08-31T23:06:07.000Z</time>
</trkpt>
<trkpt lat="59.5369276" lon="31.1911272">
<ele>47.240002</ele>
<time>2026-08-31T23:06:11.000Z</time>
</trkpt>
<trkpt lat="59.5369404" lon="31.1911578">
<ele>47.240002</ele>
<time>2026-08-31T23:06:12.000Z</time>
</trkpt>
<trkpt lat="59.5369657" lon="31.1912112">
<ele>47.719997</ele>
<time>2026-08-31T23:06:16.000Z</time>
</trkpt>
<trkpt lat="59.5369838" lon="31.1912486">
<ele>47.719997</ele>
<time>2026-08-31T23:06:18.000Z</time>
</trkpt>
<trkpt lat="59.5369994" lon="31.1912931">
<ele>47.719997</ele>
<time>2026-08-31T23:06:22.000Z</time>
</trkpt>
<trkpt lat="59.5370061" lon="31.1913234">
<ele>47.719997</ele>
<time>2026-08-31T23:06:23.000Z</time>
</trkpt>
<trkpt lat="59.5370269" lon="31.1913554">
<ele>46.279999</ele>
<time>2026-08-31T23:06:27.000Z</time>
</trkpt>
<trkpt lat="59.5370280" lon="31.1913633">
<ele>46.279999</ele>
<time>2026-08-31T23:06:28.000Z</time>
</trkpt>
<trkpt lat="59.5370394" lon="31.1914126">
<ele>46.279999</ele>
<time>2026-08-31T23:06:30.000Z</time>
</trkpt>
<trkpt lat="59.5370604" lon="31.1915810">
<ele>46.279999</ele>
<time>2026-08-31T23:06:37.000Z</time>
</trkpt>
<trkpt lat="59.5370640" lon="31.1916450">
<ele>47.719997</ele>
<time>2026-08-31T23:06:40.000Z</time>
</trkpt>
<trkpt lat="59.5370613" lon="31.1916651">
<ele>47.719997</ele>
<time>2026-08-31T23:06:41.000Z</time>
</trkpt>
<trkpt lat="59.5370602" lon="31.1916926">
<ele>47.719997</ele>
<time>2026-08-31T23:06:42.000Z</time>
</trkpt>
<trkpt lat="59.5370718" lon="31.1917544">
<ele>47.719997</ele>
<time>2026-08-31T23:06:45.000Z</time>
</trkpt>
<trkpt lat="59.5370741" lon="31.1917886">
<ele>47.719997</ele>
<time>2026-08-31T23:06:46.000Z</time>
</trkpt>
<trkpt lat="59.5370902" lon="31.1918654">
<ele>47.719997</ele>
<time>2026-08-31T23:06:50.000Z</time>
</trkpt>
<trkpt lat="59.5370969" lon="31.1918911">
<ele>48.200001</ele>
<time>2026-08-31T23:06:51.000Z</time>
</trkpt>
<trkpt lat="59.5371204" lon="31.1919993">
<ele>48.200001</ele>
<time>2026-08-31T23:07:00.000Z</time>
</trkpt>
<trkpt lat="59.5371181" lon="31.1919980">
<ele>48.200001</ele>
<time>2026-08-31T23:07:01.000Z</time>
</trkpt>
<trkpt lat="59.5370954" lon="31.1919897">
<ele>48.200001</ele>
<time>2026-08-31T23:07:12.000Z</time>
</trkpt>
<trkpt lat="59.5371031" lon="31.1919833">
<ele>48.680000</ele>
<time>2026-08-31T23:07:39.000Z</time>
</trkpt>
<trkpt lat="59.5370964" lon="31.1919716">
<ele>48.680000</ele>
<time>2026-08-31T23:08:10.000Z</time>
</trkpt>
<trkpt lat="59.5370853" lon="31.1919568">
<ele>48.680000</ele>
<time>2026-08-31T23:08:33.000Z</time>
</trkpt>
<trkpt lat="59.5370824" lon="31.1919475">
<ele>47.240002</ele>
<time>2026-08-31T23:09:00.000Z</time>
</trkpt>
<trkpt lat="59.5370824" lon="31.1919651">
<ele>47.240002</ele>
<time>2026-08-31T23:09:27.000Z</time>
</trkpt>
<trkpt lat="59.5370767" lon="31.1919710">
<ele>47.240002</ele>
<time>2026-08-31T23:09:53.000Z</time>
</trkpt>
<trkpt lat="59.5370765" lon="31.1919563">
<ele>47.240002</ele>
<time>2026-08-31T23:10:21.000Z</time>
</trkpt>
<trkpt lat="59.5370751" lon="31.1919459">
<ele>47.240002</ele>
<time>2026-08-31T23:10:42.000Z</time>
</trkpt>
<trkpt lat="59.5370685" lon="31.1919543">
<ele>46.760002</ele>
<time>2026-08-31T23:11:14.000Z</time>
</trkpt>
<trkpt lat="59.5370762" lon="31.1919592">
<ele>48.200001</ele>
<time>2026-08-31T23:11:29.000Z</time>
</trkpt>
<trkpt lat="59.5370675" lon="31.1919535">
<ele>46.760002</ele>
<time>2026-08-31T23:11:57.000Z</time>
</trkpt>
<trkpt lat="59.5370848" lon="31.1919842">
<ele>46.760002</ele>
<time>2026-08-31T23:12:16.000Z</time>
</trkpt>
<trkpt lat="59.5370984" lon="31.1920364">
<ele>46.760002</ele>
<time>2026-08-31T23:12:19.000Z</time>
</trkpt>
<trkpt lat="59.5371829" lon="31.1923149">
<ele>46.760002</ele>
<time>2026-08-31T23:12:31.000Z</time>
</trkpt>
<trkpt lat="59.5372455" lon="31.1924563">
<ele>46.760002</ele>
<time>2026-08-31T23:12:46.000Z</time>
</trkpt>
<trkpt lat="59.5372549" lon="31.1924710">
<ele>46.760002</ele>
<time>2026-08-31T23:13:02.000Z</time>
</trkpt>
<trkpt lat="59.5372724" lon="31.1924920">
<ele>46.760002</ele>
<time>2026-08-31T23:13:10.000Z</time>
</trkpt>
<trkpt lat="59.5372869" lon="31.1925651">
<ele>46.760002</ele>
<time>2026-08-31T23:13:15.000Z</time>
</trkpt>
<trkpt lat="59.5372933" lon="31.1925929">
<ele>46.279999</ele>
<time>2026-08-31T23:13:16.000Z</time>
</trkpt>
<trkpt lat="59.5373081" lon="31.1926324">
<ele>46.279999</ele>
<time>2026-08-31T23:13:18.000Z</time>
</trkpt>
<trkpt lat="59.5373169" lon="31.1926523">
<ele>46.279999</ele>
<time>2026-08-31T23:13:19.000Z</time>
</trkpt>
<trkpt lat="59.5373259" lon="31.1926654">
<ele>46.279999</ele>
<time>2026-08-31T23:13:20.000Z</time>
</trkpt>
<trkpt lat="59.5373483" lon="31.1926801">
<ele>46.279999</ele>
<time>2026-08-31T23:13:24.000Z</time>
</trkpt>
<trkpt lat="59.5373785" lon="31.1927744">
<ele>47.240002</ele>
<time>2026-08-31T23:13:28.000Z</time>
</trkpt>
<trkpt lat="59.5374766" lon="31.1930968">
<ele>47.719997</ele>
<time>2026-08-31T23:13:44.000Z</time>
</trkpt>
<trkpt lat="59.5374688" lon="31.1931731">
<ele>47.719997</ele>
<time>2026-08-31T23:14:02.000Z</time>
</trkpt>
<trkpt lat="59.5374807" lon="31.1932221">
<ele>46.760002</ele>
<time>2026-08-31T23:14:06.000Z</time>
</trkpt>
<trkpt lat="59.5375148" lon="31.1932977">
<ele>46.760002</ele>
<time>2026-08-31T23:14:12.000Z</time>
</trkpt>
<trkpt lat="59.5375378" lon="31.1933779">
<ele>46.760002</ele>
<time>2026-08-31T23:14:17.000Z</time>
</trkpt>
<trkpt lat="59.5375741" lon="31.1934676">
<ele>46.279999</ele>
<time>2026-08-31T23:14:23.000Z</time>
</trkpt>
<trkpt lat="59.5375970" lon="31.1935932">
<ele>45.799999</ele>
<time>2026-08-31T23:14:29.000Z</time>
</trkpt>
<trkpt lat="59.5376083" lon="31.1936532">
<ele>45.799999</ele>
<time>2026-08-31T23:14:33.000Z</time>
</trkpt>
<trkpt lat="59.5376226" lon="31.1937846">
<ele>45.799999</ele>
<time>2026-08-31T23:14:39.000Z</time>
</trkpt>
<trkpt lat="59.5376479" lon="31.1939178">
<ele>45.799999</ele>
<time>2026-08-31T23:14:45.000Z</time>
</trkpt>
<trkpt lat="59.5376570" lon="31.1939897">
<ele>45.799999</ele>
<time>2026-08-31T23:14:47.000Z</time>
</trkpt>
<trkpt lat="59.5376800" lon="31.1940595">
<ele>45.799999</ele>
<time>2026-08-31T23:14:51.000Z</time>
</trkpt>
<trkpt lat="59.5376844" lon="31.1940971">
<ele>45.799999</ele>
<time>2026-08-31T23:14:52.000Z</time>
</trkpt>
<trkpt lat="59.5376903" lon="31.1941341">
<ele>45.799999</ele>
<time>2026-08-31T23:14:53.000Z</time>
</trkpt>
<trkpt lat="59.5377086" lon="31.1941973">
<ele>45.799999</ele>
<time>2026-08-31T23:14:57.000Z</time>
</trkpt>
<trkpt lat="59.5377121" lon="31.1942371">
<ele>45.799999</ele>
<time>2026-08-31T23:14:58.000Z</time>
</trkpt>
<trkpt lat="59.5377283" lon="31.1943190">
<ele>45.320000</ele>
<time>2026-08-31T23:15:02.000Z</time>
</trkpt>
<trkpt lat="59.5377304" lon="31.1943616">
<ele>45.320000</ele>
<time>2026-08-31T23:15:03.000Z</time>
</trkpt>
<trkpt lat="59.5377445" lon="31.1944399">
<ele>45.320000</ele>
<time>2026-08-31T23:15:07.000Z</time>
</trkpt>
<trkpt lat="59.5377496" lon="31.1944760">
<ele>45.320000</ele>
<time>2026-08-31T23:15:08.000Z</time>
</trkpt>
<trkpt lat="59.5377580" lon="31.1945088">
<ele>45.320000</ele>
<time>2026-08-31T23:15:09.000Z</time>
</trkpt>
<trkpt lat="59.5377787" lon="31.1945622">
<ele>45.320000</ele>
<time>2026-08-31T23:15:12.000Z</time>
</trkpt>
<trkpt lat="59.5377844" lon="31.1945876">
<ele>45.320000</ele>
<time>2026-08-31T23:15:13.000Z</time>
</trkpt>
<trkpt lat="59.5377933" lon="31.1946106">
<ele>45.320000</ele>
<time>2026-08-31T23:15:14.000Z</time>
</trkpt>
<trkpt lat="59.5378203" lon="31.1946456">
<ele>45.320000</ele>
<time>2026-08-31T23:15:18.000Z</time>
</trkpt>
<trkpt lat="59.5378315" lon="31.1946719">
<ele>45.320000</ele>
<time>2026-08-31T23:15:19.000Z</time>
</trkpt>
<trkpt lat="59.5378845" lon="31.1948778">
<ele>45.320000</ele>
<time>2026-08-31T23:15:29.000Z</time>
</trkpt>
<trkpt lat="59.5379215" lon="31.1949538">
<ele>45.320000</ele>
<time>2026-08-31T23:15:33.000Z</time>
</trkpt>
<trkpt lat="59.5379754" lon="31.1951764">
<ele>45.320000</ele>
<time>2026-08-31T23:15:46.000Z</time>
</trkpt>
<trkpt lat="59.5379971" lon="31.1952491">
<ele>46.760002</ele>
<time>2026-08-31T23:15:50.000Z</time>
</trkpt>
<trkpt lat="59.5380523" lon="31.1953949">
<ele>47.240002</ele>
<time>2026-08-31T23:15:59.000Z</time>
</trkpt>
<trkpt lat="59.5380595" lon="31.1954415">
<ele>47.240002</ele>
<time>2026-08-31T23:16:22.000Z</time>
</trkpt>
<trkpt lat="59.5380641" lon="31.1954454">
<ele>46.279999</ele>
<time>2026-08-31T23:16:38.000Z</time>
</trkpt>
<trkpt lat="59.5380346" lon="31.1955214">
<ele>48.200001</ele>
<time>2026-08-31T23:16:45.000Z</time>
</trkpt>
<trkpt lat="59.5380033" lon="31.1957258">
<ele>46.760002</ele>
<time>2026-08-31T23:17:00.000Z</time>
</trkpt>
<trkpt lat="59.5379847" lon="31.1959039">
<ele>46.760002</ele>
<time>2026-08-31T23:17:18.000Z</time>
</trkpt>
<trkpt lat="59.5378997" lon="31.1962519">
<ele>46.279999</ele>
<time>2026-08-31T23:17:35.000Z</time>
</trkpt>
<trkpt lat="59.5378426" lon="31.1963758">
<ele>46.279999</ele>
<time>2026-08-31T23:17:49.000Z</time>
</trkpt>
<trkpt lat="59.5378109" lon="31.1964608">
<ele>46.279999</ele>
<time>2026-08-31T23:18:01.000Z</time>
</trkpt>
<trkpt lat="59.5377045" lon="31.1966301">
<ele>46.279999</ele>
<time>2026-08-31T23:18:16.000Z</time>
</trkpt>
<trkpt lat="59.5376004" lon="31.1967721">
<ele>46.279999</ele>
<time>2026-08-31T23:18:27.000Z</time>
</trkpt>
<trkpt lat="59.5375456" lon="31.1968093">
<ele>46.279999</ele>
<time>2026-08-31T23:18:44.000Z</time>
</trkpt>
<trkpt lat="59.5375143" lon="31.1968264">
<ele>47.719997</ele>
<time>2026-08-31T23:18:54.000Z</time>
</trkpt>
<trkpt lat="59.5374521" lon="31.1969760">
<ele>47.719997</ele>
<time>2026-08-31T23:19:10.000Z</time>
</trkpt>
<trkpt lat="59.5374263" lon="31.1970178">
<ele>46.760002</ele>
<time>2026-08-31T23:19:16.000Z</time>
</trkpt>
<trkpt lat="59.5373907" lon="31.1970736">
<ele>47.719997</ele>
<time>2026-08-31T23:19:25.000Z</time>
</trkpt>
<trkpt lat="59.5373611" lon="31.1971101">
<ele>47.719997</ele>
<time>2026-08-31T23:19:50.000Z</time>
</trkpt>
<trkpt lat="59.5373622" lon="31.1971148">
<ele>47.719997</ele>
<time>2026-08-31T23:19:52.000Z</time>
</trkpt>
<trkpt lat="59.5373259" lon="31.1971568">
<ele>46.760002</ele>
<time>2026-08-31T23:20:11.000Z</time>
</trkpt>
<trkpt lat="59.5373073" lon="31.1971810">
<ele>46.760002</ele>
<time>2026-08-31T23:20:44.000Z</time>
</trkpt>
<trkpt lat="59.5373092" lon="31.1971657">
<ele>46.760002</ele>
<time>2026-08-31T23:21:08.000Z</time>
</trkpt>
<trkpt lat="59.5372937" lon="31.1971524">
<ele>47.719997</ele>
<time>2026-08-31T23:21:46.000Z</time>
</trkpt>
<trkpt lat="59.5372841" lon="31.1971526">
<ele>47.719997</ele>
<time>2026-08-31T23:22:12.000Z</time>
</trkpt>
<trkpt lat="59.5372818" lon="31.1971430">
<ele>46.279999</ele>
<time>2026-08-31T23:22:18.000Z</time>
</trkpt>
<trkpt lat="59.5372721" lon="31.1971328">
<ele>47.719997</ele>
<time>2026-08-31T23:22:52.000Z</time>
</trkpt>
<trkpt lat="59.5372481" lon="31.1971361">
<ele>47.719997</ele>
<time>2026-08-31T23:23:22.000Z</time>
</trkpt>
<trkpt lat="59.5372526" lon="31.1972469">
<ele>47.719997</ele>
<time>2026-08-31T23:23:45.000Z</time>
</trkpt>
<trkpt lat="59.5372190" lon="31.1975321">
<ele>47.719997</ele>
<time>2026-08-31T23:23:59.000Z</time>
</trkpt>
<trkpt lat="59.5371940" lon="31.1976729">
<ele>47.719997</ele>
<time>2026-08-31T23:24:09.000Z</time>
</trkpt>
<trkpt lat="59.5371560" lon="31.1977611">
<ele>47.719997</ele>
<time>2026-08-31T23:24:20.000Z</time>
</trkpt>
<trkpt lat="59.5371129" lon="31.1979247">
<ele>47.719997</ele>
<time>2026-08-31T23:24:35.000Z</time>
</trkpt>
<trkpt lat="59.5370803" lon="31.1981722">
<ele>47.719997</ele>
<time>2026-08-31T23:24:48.000Z</time>
</trkpt>
<trkpt lat="59.5370591" lon="31.1983180">
<ele>46.760002</ele>
<time>2026-08-31T23:25:01.000Z</time>
</trkpt>
<trkpt lat="59.5370084" lon="31.1984965">
<ele>46.760002</ele>
<time>2026-08-31T23:25:14.000Z</time>
</trkpt>
<trkpt lat="59.5369773" lon="31.1986649">
<ele>45.799999</ele>
<time>2026-08-31T23:25:28.000Z</time>
</trkpt>
<trkpt lat="59.5369236" lon="31.1987582">
<ele>45.799999</ele>
<time>2026-08-31T23:25:41.000Z</time>
</trkpt>
<trkpt lat="59.5368446" lon="31.1989422">
<ele>45.799999</ele>
<time>2026-08-31T23:25:55.000Z</time>
</trkpt>
<trkpt lat="59.5367586" lon="31.1990240">
<ele>45.799999</ele>
<time>2026-08-31T23:26:08.000Z</time>
</trkpt>
<trkpt lat="59.5367066" lon="31.1991430">
<ele>45.799999</ele>
<time>2026-08-31T23:26:22.000Z</time>
</trkpt>
<trkpt lat="59.5366527" lon="31.1992720">
<ele>45.799999</ele>
<time>2026-08-31T23:26:36.000Z</time>
</trkpt>
<trkpt lat="59.5366213" lon="31.1993257">
<ele>47.240002</ele>
<time>2026-08-31T23:26:45.000Z</time>
</trkpt>
<trkpt lat="59.5365711" lon="31.1994569">
<ele>47.240002</ele>
<time>2026-08-31T23:27:00.000Z</time>
</trkpt>
<trkpt lat="59.5364965" lon="31.1997466">
<ele>47.240002</ele>
<time>2026-08-31T23:27:15.000Z</time>
</trkpt>
<trkpt lat="59.5364509" lon="31.1998913">
<ele>45.799999</ele>
<time>2026-08-31T23:27:24.000Z</time>
</trkpt>
<trkpt lat="59.5364081" lon="31.1999901">
<ele>45.320000</ele>
<time>2026-08-31T23:27:37.000Z</time>
</trkpt>
<trkpt lat="59.5363447" lon="31.2000647">
<ele>45.799999</ele>
<time>2026-08-31T23:27:51.000Z</time>
</trkpt>
<trkpt lat="59.5362961" lon="31.2001864">
<ele>45.799999</ele>
<time>2026-08-31T23:28:03.000Z</time>
</trkpt>
<trkpt lat="59.5362305" lon="31.2003695">
<ele>45.799999</ele>
<time>2026-08-31T23:28:17.000Z</time>
</trkpt>
<trkpt lat="59.5361731" lon="31.2004164">
<ele>46.279999</ele>
<time>2026-08-31T23:28:31.000Z</time>
</trkpt>
<trkpt lat="59.5361586" lon="31.2004419">
<ele>46.760002</ele>
<time>2026-08-31T23:29:00.000Z</time>
</trkpt>
<trkpt lat="59.5361505" lon="31.2004219">
<ele>46.760002</ele>
<time>2026-08-31T23:29:30.000Z</time>
</trkpt>
<trkpt lat="59.5361479" lon="31.2004370">
<ele>45.799999</ele>
<time>2026-08-31T23:29:50.000Z</time>
</trkpt>
<trkpt lat="59.5361447" lon="31.2004400">
<ele>45.799999</ele>
<time>2026-08-31T23:30:13.000Z</time>
</trkpt>
<trkpt lat="59.5361394" lon="31.2004597">
<ele>45.799999</ele>
<time>2026-08-31T23:30:34.000Z</time>
</trkpt>
<trkpt lat="59.5361406" lon="31.2004863">
<ele>47.240002</ele>
<time>2026-08-31T23:30:51.000Z</time>
</trkpt>
<trkpt lat="59.5361410" lon="31.2004999">
<ele>47.240002</ele>
<time>2026-08-31T23:31:11.000Z</time>
</trkpt>
<trkpt lat="59.5361397" lon="31.2005122">
<ele>47.240002</ele>
<time>2026-08-31T23:31:31.000Z</time>
</trkpt>
<trkpt lat="59.5361351" lon="31.2005126">
<ele>45.799999</ele>
<time>2026-08-31T23:31:56.000Z</time>
</trkpt>
<trkpt lat="59.5361515" lon="31.2005508">
<ele>45.799999</ele>
<time>2026-08-31T23:32:10.000Z</time>
</trkpt>
<trkpt lat="59.5361757" lon="31.2006509">
<ele>45.320000</ele>
<time>2026-08-31T23:32:20.000Z</time>
</trkpt>
<trkpt lat="59.5362156" lon="31.2007261">
<ele>44.839996</ele>
<time>2026-08-31T23:32:33.000Z</time>
</trkpt>
<trkpt lat="59.5362623" lon="31.2008215">
<ele>44.839996</ele>
<time>2026-08-31T23:32:46.000Z</time>
</trkpt>
<trkpt lat="59.5362854" lon="31.2008444">
<ele>44.839996</ele>
<time>2026-08-31T23:33:06.000Z</time>
</trkpt>
<trkpt lat="59.5362752" lon="31.2008957">
<ele>44.839996</ele>
<time>2026-08-31T23:33:25.000Z</time>
</trkpt>
<trkpt lat="59.5362540" lon="31.2008690">
<ele>44.839996</ele>
<time>2026-08-31T23:33:40.000Z</time>
</trkpt>
<trkpt lat="59.5362687" lon="31.2008763">
<ele>44.839996</ele>
<time>2026-08-31T23:33:57.000Z</time>
</trkpt>
<trkpt lat="59.5362542" lon="31.2008907">
<ele>44.839996</ele>
<time>2026-08-31T23:34:18.000Z</time>
</trkpt>
<trkpt lat="59.5362495" lon="31.2008819">
<ele>44.839996</ele>
<time>2026-08-31T23:34:33.000Z</time>
</trkpt>
<trkpt lat="59.5362485" lon="31.2008917">
<ele>46.279999</ele>
<time>2026-08-31T23:34:49.000Z</time>
</trkpt>
<trkpt lat="59.5362601" lon="31.2008660">
<ele>44.839996</ele>
<time>2026-08-31T23:35:08.000Z</time>
</trkpt>
<trkpt lat="59.5362625" lon="31.2008373">
<ele>45.799999</ele>
<time>2026-08-31T23:35:27.000Z</time>
</trkpt>
<trkpt lat="59.5362669" lon="31.2008571">
<ele>45.799999</ele>
<time>2026-08-31T23:35:40.000Z</time>
</trkpt>
<trkpt lat="59.5362826" lon="31.2008819">
<ele>45.799999</ele>
<time>2026-08-31T23:35:59.000Z</time>
</trkpt>
<trkpt lat="59.5362696" lon="31.2009255">
<ele>45.799999</ele>
<time>2026-08-31T23:36:09.000Z</time>
</trkpt>
<trkpt lat="59.5362794" lon="31.2009287">
<ele>45.320000</ele>
<time>2026-08-31T23:36:19.000Z</time>
</trkpt>
<trkpt lat="59.5362748" lon="31.2009301">
<ele>45.320000</ele>
<time>2026-08-31T23:36:27.000Z</time>
</trkpt>
<trkpt lat="59.5362619" lon="31.2010046">
<ele>45.320000</ele>
<time>2026-08-31T23:36:38.000Z</time>
</trkpt>
<trkpt lat="59.5362390" lon="31.2011921">
<ele>45.320000</ele>
<time>2026-08-31T23:36:52.000Z</time>
</trkpt>
<trkpt lat="59.5362374" lon="31.2012319">
<ele>45.320000</ele>
<time>2026-08-31T23:37:10.000Z</time>
</trkpt>
<trkpt lat="59.5362410" lon="31.2012640">
<ele>45.320000</ele>
<time>2026-08-31T23:37:13.000Z</time>
</trkpt>
<trkpt lat="59.5362377" lon="31.2013232">
<ele>45.320000</ele>
<time>2026-08-31T23:37:21.000Z</time>
</trkpt>
<trkpt lat="59.5362400" lon="31.2013719">
<ele>45.320000</ele>
<time>2026-08-31T23:37:34.000Z</time>
</trkpt>
<trkpt lat="59.5362495" lon="31.2013600">
<ele>45.320000</ele>
<time>2026-08-31T23:37:54.000Z</time>
</trkpt>
<trkpt lat="59.5362476" lon="31.2013600">
<ele>46.279999</ele>
<time>2026-08-31T23:37:56.000Z</time>
</trkpt>
<trkpt lat="59.5362441" lon="31.2013651">
<ele>46.279999</ele>
<time>2026-08-31T23:38:27.000Z</time>
</trkpt>
<trkpt lat="59.5362417" lon="31.2013631">
<ele>46.279999</ele>
<time>2026-08-31T23:38:47.000Z</time>
</trkpt>
<trkpt lat="59.5362411" lon="31.2013637">
<ele>46.279999</ele>
<time>2026-08-31T23:39:05.000Z</time>
</trkpt>
<trkpt lat="59.5362441" lon="31.2013632">
<ele>46.760002</ele>
<time>2026-08-31T23:39:17.000Z</time>
</trkpt>
<trkpt lat="59.5362282" lon="31.2012644">
<ele>45.320000</ele>
<time>2026-08-31T23:39:26.000Z</time>
</trkpt>
<trkpt lat="59.5362271" lon="31.2011644">
<ele>45.320000</ele>
<time>2026-08-31T23:39:33.000Z</time>
</trkpt>
<trkpt lat="59.5362108" lon="31.2009871">
<ele>45.320000</ele>
<time>2026-08-31T23:39:46.000Z</time>
</trkpt>
<trkpt lat="59.5361719" lon="31.2008324">
<ele>45.320000</ele>
<time>2026-08-31T23:39:58.000Z</time>
</trkpt>
<trkpt lat="59.5361541" lon="31.2007254">
<ele>45.320000</ele>
<time>2026-08-31T23:40:11.000Z</time>
</trkpt>
<trkpt lat="59.5361605" lon="31.2006552">
<ele>46.279999</ele>
<time>2026-08-31T23:40:24.000Z</time>
</trkpt>
<trkpt lat="59.5361567" lon="31.2005324">
<ele>46.760002</ele>
<time>2026-08-31T23:40:40.000Z</time>
</trkpt>
<trkpt lat="59.5361286" lon="31.2004825">
<ele>47.719997</ele>
<time>2026-08-31T23:40:54.000Z</time>
</trkpt>
<trkpt lat="59.5361304" lon="31.2004788">
<ele>46.279999</ele>
<time>2026-08-31T23:41:00.000Z</time>
</trkpt>
<trkpt lat="59.5361366" lon="31.2004334">
<ele>47.240002</ele>
<time>2026-08-31T23:41:20.000Z</time>
</trkpt>
<trkpt lat="59.5361210" lon="31.2003939">
<ele>47.240002</ele>
<time>2026-08-31T23:41:42.000Z</time>
</trkpt>
<trkpt lat="59.5361303" lon="31.2003723">
<ele>47.240002</ele>
<time>2026-08-31T23:42:04.000Z</time>
</trkpt>
<trkpt lat="59.5361303" lon="31.2003620">
<ele>47.240002</ele>
<time>2026-08-31T23:42:27.000Z</time>
</trkpt>
<trkpt lat="59.5361362" lon="31.2003551">
<ele>47.240002</ele>
<time>2026-08-31T23:42:45.000Z</time>
</trkpt>
<trkpt lat="59.5361318" lon="31.2002849">
<ele>47.719997</ele>
<time>2026-08-31T23:43:03.000Z</time>
</trkpt>
<trkpt lat="59.5361323" lon="31.2002147">
<ele>48.200001</ele>
<time>2026-08-31T23:43:05.000Z</time>
</trkpt>
<trkpt lat="59.5361275" lon="31.2000283">
<ele>48.200001</ele>
<time>2026-08-31T23:43:20.000Z</time>
</trkpt>
<trkpt lat="59.5361301" lon="31.1999088">
<ele>48.200001</ele>
<time>2026-08-31T23:43:36.000Z</time>
</trkpt>
<trkpt lat="59.5360702" lon="31.1997112">
<ele>48.200001</ele>
<time>2026-08-31T23:43:51.000Z</time>
</trkpt>
<trkpt lat="59.5360549" lon="31.1994817">
<ele>49.160000</ele>
<time>2026-08-31T23:44:09.000Z</time>
</trkpt>
<trkpt lat="59.5359885" lon="31.1993493">
<ele>49.650002</ele>
<time>2026-08-31T23:44:25.000Z</time>
</trkpt>
<trkpt lat="59.5359150" lon="31.1991931">
<ele>49.650002</ele>
<time>2026-08-31T23:44:40.000Z</time>
</trkpt>
<trkpt lat="59.5358680" lon="31.1989694">
<ele>49.160000</ele>
<time>2026-08-31T23:44:50.000Z</time>
</trkpt>
<trkpt lat="59.5358304" lon="31.1988857">
<ele>49.160000</ele>
<time>2026-08-31T23:45:07.000Z</time>
</trkpt>
<trkpt lat="59.5357558" lon="31.1988358">
<ele>48.680000</ele>
<time>2026-08-31T23:45:22.000Z</time>
</trkpt>
<trkpt lat="59.5356723" lon="31.1986461">
<ele>50.130001</ele>
<time>2026-08-31T23:45:35.000Z</time>
</trkpt>
<trkpt lat="59.5356094" lon="31.1985253">
<ele>50.130001</ele>
<time>2026-08-31T23:45:48.000Z</time>
</trkpt>
<trkpt lat="59.5356147" lon="31.1984181">
<ele>50.610001</ele>
<time>2026-08-31T23:46:02.000Z</time>
</trkpt>
<trkpt lat="59.5356088" lon="31.1984136">
<ele>50.610001</ele>
<time>2026-08-31T23:46:11.000Z</time>
</trkpt>
<trkpt lat="59.5356011" lon="31.1984268">
<ele>49.650002</ele>
<time>2026-08-31T23:46:26.000Z</time>
</trkpt>
<trkpt lat="59.5355941" lon="31.1984047">
<ele>50.610001</ele>
<time>2026-08-31T23:46:48.000Z</time>
</trkpt>
<trkpt lat="59.5355817" lon="31.1983884">
<ele>51.089996</ele>
<time>2026-08-31T23:47:10.000Z</time>
</trkpt>
<trkpt lat="59.5355801" lon="31.1983920">
<ele>49.650002</ele>
<time>2026-08-31T23:47:16.000Z</time>
</trkpt>
<trkpt lat="59.5355775" lon="31.1983954">
<ele>51.089996</ele>
<time>2026-08-31T23:47:29.000Z</time>
</trkpt>
<trkpt lat="59.5355740" lon="31.1983963">
<ele>51.089996</ele>
<time>2026-08-31T23:47:42.000Z</time>
</trkpt>
<trkpt lat="59.5355741" lon="31.1983789">
<ele>51.089996</ele>
<time>2026-08-31T23:48:00.000Z</time>
</trkpt>
<trkpt lat="59.5355932" lon="31.1983499">
<ele>51.089996</ele>
<time>2026-08-31T23:48:15.000Z</time>
</trkpt>
<trkpt lat="59.5355928" lon="31.1983515">
<ele>50.130001</ele>
<time>2026-08-31T23:48:26.000Z</time>
</trkpt>
<trkpt lat="59.5355923" lon="31.1983517">
<ele>51.089996</ele>
<time>2026-08-31T23:48:28.000Z</time>
</trkpt>
<trkpt lat="59.5355931" lon="31.1983618">
<ele>51.570000</ele>
<time>2026-08-31T23:48:46.000Z</time>
</trkpt>
<trkpt lat="59.5356337" lon="31.1982916">
<ele>51.570000</ele>
<time>2026-08-31T23:48:53.000Z</time>
</trkpt>
<trkpt lat="59.5356918" lon="31.1981644">
<ele>51.570000</ele>
<time>2026-08-31T23:49:01.000Z</time>
</trkpt>
<trkpt lat="59.5357505" lon="31.1980655">
<ele>51.570000</ele>
<time>2026-08-31T23:49:08.000Z</time>
</trkpt>
<trkpt lat="59.5358468" lon="31.1978882">
<ele>51.570000</ele>
<time>2026-08-31T23:49:22.000Z</time>
</trkpt>
<trkpt lat="59.5359004" lon="31.1977892">
<ele>51.570000</ele>
<time>2026-08-31T23:49:33.000Z</time>
</trkpt>
<trkpt lat="59.5359422" lon="31.1976752">
<ele>51.570000</ele>
<time>2026-08-31T23:49:45.000Z</time>
</trkpt>
<trkpt lat="59.5360238" lon="31.1975110">
<ele>52.049999</ele>
<time>2026-08-31T23:49:57.000Z</time>
</trkpt>
<trkpt lat="59.5361375" lon="31.1973404">
<ele>52.529999</ele>
<time>2026-08-31T23:50:11.000Z</time>
</trkpt>
<trkpt lat="59.5362395" lon="31.1971832">
<ele>52.529999</ele>
<time>2026-08-31T23:50:26.000Z</time>
</trkpt>
<trkpt lat="59.5363433" lon="31.1969736">
<ele>52.529999</ele>
<time>2026-08-31T23:50:40.000Z</time>
</trkpt>
<trkpt lat="59.5364289" lon="31.1968486">
<ele>51.089996</ele>
<time>2026-08-31T23:50:49.000Z</time>
</trkpt>
<trkpt lat="59.5365126" lon="31.1967105">
<ele>51.089996</ele>
<time>2026-08-31T23:51:01.000Z</time>
</trkpt>
<trkpt lat="59.5365996" lon="31.1965668">
<ele>51.089996</ele>
<time>2026-08-31T23:51:15.000Z</time>
</trkpt>
<trkpt lat="59.5366709" lon="31.1963421">
<ele>50.610001</ele>
<time>2026-08-31T23:51:29.000Z</time>
</trkpt>
<trkpt lat="59.5367141" lon="31.1961866">
<ele>50.130001</ele>
<time>2026-08-31T23:51:40.000Z</time>
</trkpt>
<trkpt lat="59.5367947" lon="31.1960767">
<ele>50.130001</ele>
<time>2026-08-31T23:51:55.000Z</time>
</trkpt>
<trkpt lat="59.5368644" lon="31.1960004">
<ele>50.130001</ele>
<time>2026-08-31T23:52:08.000Z</time>
</trkpt>
<trkpt lat="59.5369073" lon="31.1959381">
<ele>50.130001</ele>
<time>2026-08-31T23:52:16.000Z</time>
</trkpt>
<trkpt lat="59.5369918" lon="31.1957996">
<ele>48.680000</ele>
<time>2026-08-31T23:52:28.000Z</time>
</trkpt>
<trkpt lat="59.5370052" lon="31.1957719">
<ele>50.130001</ele>
<time>2026-08-31T23:52:31.000Z</time>
</trkpt>
<trkpt lat="59.5370052" lon="31.1957234">
<ele>48.680000</ele>
<time>2026-08-31T23:52:45.000Z</time>
</trkpt>
<trkpt lat="59.5370112" lon="31.1957234">
<ele>50.130001</ele>
<time>2026-08-31T23:52:50.000Z</time>
</trkpt>
<trkpt lat="59.5370770" lon="31.1956476">
<ele>50.130001</ele>
<time>2026-08-31T23:53:01.000Z</time>
</trkpt>
<trkpt lat="59.5371352" lon="31.1955394">
<ele>50.130001</ele>
<time>2026-08-31T23:53:15.000Z</time>
</trkpt>
<trkpt lat="59.5372165" lon="31.1954377">
<ele>50.130001</ele>
<time>2026-08-31T23:53:27.000Z</time>
</trkpt>
<trkpt lat="59.5372888" lon="31.1952939">
<ele>50.130001</ele>
<time>2026-08-31T23:53:40.000Z</time>
</trkpt>
<trkpt lat="59.5373710" lon="31.1951334">
<ele>48.680000</ele>
<time>2026-08-31T23:53:55.000Z</time>
</trkpt>
<trkpt lat="59.5374616" lon="31.1949449">
<ele>48.680000</ele>
<time>2026-08-31T23:54:11.000Z</time>
</trkpt>
<trkpt lat="59.5375147" lon="31.1948536">
<ele>48.680000</ele>
<time>2026-08-31T23:54:20.000Z</time>
</trkpt>
<trkpt lat="59.5375636" lon="31.1947317">
<ele>48.680000</ele>
<time>2026-08-31T23:54:32.000Z</time>
</trkpt>
<trkpt lat="59.5376367" lon="31.1946093">
<ele>48.680000</ele>
<time>2026-08-31T23:54:44.000Z</time>
</trkpt>
<trkpt lat="59.5376865" lon="31.1944812">
<ele>50.130001</ele>
<time>2026-08-31T23:54:53.000Z</time>
</trkpt>
<trkpt lat="59.5376899" lon="31.1944638">
<ele>50.130001</ele>
<time>2026-08-31T23:54:54.000Z</time>
</trkpt>
<trkpt lat="59.5377677" lon="31.1943922">
<ele>50.130001</ele>
<time>2026-08-31T23:55:06.000Z</time>
</trkpt>
<trkpt lat="59.5378077" lon="31.1945632">
<ele>50.130001</ele>
<time>2026-08-31T23:55:17.000Z</time>
</trkpt>
<trkpt lat="59.5378494" lon="31.1946913">
<ele>50.130001</ele>
<time>2026-08-31T23:55:24.000Z</time>
</trkpt>
<trkpt lat="59.5378646" lon="31.1947118">
<ele>50.130001</ele>
<time>2026-08-31T23:55:27.000Z</time>
</trkpt>
<trkpt lat="59.5378972" lon="31.1948092">
<ele>49.160000</ele>
<time>2026-08-31T23:55:32.000Z</time>
</trkpt>
<trkpt lat="59.5379600" lon="31.1950134">
<ele>48.680000</ele>
<time>2026-08-31T23:55:44.000Z</time>
</trkpt>
<trkpt lat="59.5379912" lon="31.1951008">
<ele>48.680000</ele>
<time>2026-08-31T23:55:49.000Z</time>
</trkpt>
<trkpt lat="59.5380178" lon="31.1952772">
<ele>49.650002</ele>
<time>2026-08-31T23:56:00.000Z</time>
</trkpt>
<trkpt lat="59.5380236" lon="31.1952998">
<ele>49.650002</ele>
<time>2026-08-31T23:56:01.000Z</time>
</trkpt>
<trkpt lat="59.5380703" lon="31.1954805">
<ele>50.610001</ele>
<time>2026-08-31T23:56:13.000Z</time>
</trkpt>
<trkpt lat="59.5381213" lon="31.1955368">
<ele>50.610001</ele>
<time>2026-08-31T23:56:19.000Z</time>
</trkpt>
<trkpt lat="59.5381606" lon="31.1955764">
<ele>49.160000</ele>
<time>2026-08-31T23:56:23.000Z</time>
</trkpt>
<trkpt lat="59.5382598" lon="31.1957419">
<ele>48.680000</ele>
<time>2026-08-31T23:56:41.000Z</time>
</trkpt>
<trkpt lat="59.5383075" lon="31.1957310">
<ele>48.200001</ele>
<time>2026-08-31T23:56:49.000Z</time>
</trkpt>
<trkpt lat="59.5384339" lon="31.1958195">
<ele>48.200001</ele>
<time>2026-08-31T23:57:00.000Z</time>
</trkpt>
<trkpt lat="59.5384992" lon="31.1958609">
<ele>47.719997</ele>
<time>2026-08-31T23:57:13.000Z</time>
</trkpt>
<trkpt lat="59.5385721" lon="31.1958946">
<ele>47.719997</ele>
<time>2026-08-31T23:57:17.000Z</time>
</trkpt>
<trkpt lat="59.5386967" lon="31.1960091">
<ele>47.719997</ele>
<time>2026-08-31T23:57:25.000Z</time>
</trkpt>
<trkpt lat="59.5387177" lon="31.1960158">
<ele>47.719997</ele>
<time>2026-08-31T23:57:28.000Z</time>
</trkpt>
<trkpt lat="59.5387407" lon="31.1960479">
<ele>48.680000</ele>
<time>2026-08-31T23:57:32.000Z</time>
</trkpt>
<trkpt lat="59.5387547" lon="31.1960687">
<ele>48.680000</ele>
<time>2026-08-31T23:57:33.000Z</time>
</trkpt>
<trkpt lat="59.5387784" lon="31.1961048">
<ele>48.680000</ele>
<time>2026-08-31T23:57:37.000Z</time>
</trkpt>
<trkpt lat="59.5387915" lon="31.1961370">
<ele>48.680000</ele>
<time>2026-08-31T23:57:38.000Z</time>
</trkpt>
<trkpt lat="59.5388123" lon="31.1961762">
<ele>48.680000</ele>
<time>2026-08-31T23:57:42.000Z</time>
</trkpt>
<trkpt lat="59.5388243" lon="31.1961996">
<ele>48.680000</ele>
<time>2026-08-31T23:57:43.000Z</time>
</trkpt>
<trkpt lat="59.5388710" lon="31.1963255">
<ele>48.680000</ele>
<time>2026-08-31T23:57:50.000Z</time>
</trkpt>
<trkpt lat="59.5388779" lon="31.1963474">
<ele>48.680000</ele>
<time>2026-08-31T23:57:51.000Z</time>
</trkpt>
<trkpt lat="59.5389065" lon="31.1964006">
<ele>49.160000</ele>
<time>2026-08-31T23:57:54.000Z</time>
</trkpt>
<trkpt lat="59.5389741" lon="31.1965405">
<ele>49.160000</ele>
<time>2026-08-31T23:58:03.000Z</time>
</trkpt>
<trkpt lat="59.5389824" lon="31.1965576">
<ele>49.160000</ele>
<time>2026-08-31T23:58:04.000Z</time>
</trkpt>
<trkpt lat="59.5389933" lon="31.1965686">
<ele>49.160000</ele>
<time>2026-08-31T23:58:05.000Z</time>
</trkpt>
<trkpt lat="59.5390201" lon="31.1965539">
<ele>49.160000</ele>
<time>2026-08-31T23:58:08.000Z</time>
</trkpt>
<trkpt lat="59.5390282" lon="31.1965345">
<ele>49.160000</ele>
<time>2026-08-31T23:58:09.000Z</time>
</trkpt>
<trkpt lat="59.5390380" lon="31.1965047">
<ele>49.160000</ele>
<time>2026-08-31T23:58:10.000Z</time>
</trkpt>
<trkpt lat="59.5390457" lon="31.1964813">
<ele>49.160000</ele>
<time>2026-08-31T23:58:11.000Z</time>
</trkpt>
<trkpt lat="59.5390693" lon="31.1964238">
<ele>49.160000</ele>
<time>2026-08-31T23:58:14.000Z</time>
</trkpt>
<trkpt lat="59.5391605" lon="31.1963372">
<ele>49.650002</ele>
<time>2026-08-31T23:58:25.000Z</time>
</trkpt>
<trkpt lat="59.5391744" lon="31.1963473">
<ele>49.650002</ele>
<time>2026-08-31T23:58:26.000Z</time>
</trkpt>
<trkpt lat="59.5392373" lon="31.1963855">
<ele>49.650002</ele>
<time>2026-08-31T23:58:36.000Z</time>
</trkpt>
<trkpt lat="59.5392792" lon="31.1964585">
<ele>49.650002</ele>
<time>2026-08-31T23:58:46.000Z</time>
</trkpt>
<trkpt lat="59.5392969" lon="31.1964863">
<ele>49.650002</ele>
<time>2026-08-31T23:58:48.000Z</time>
</trkpt>
<trkpt lat="59.5393803" lon="31.1966798">
<ele>49.650002</ele>
<time>2026-08-31T23:59:00.000Z</time>
</trkpt>
<trkpt lat="59.5394526" lon="31.1968128">
<ele>48.680000</ele>
<time>2026-08-31T23:59:15.000Z</time>
</trkpt>
<trkpt lat="59.5395348" lon="31.1969207">
<ele>48.680000</ele>
<time>2026-08-31T23:59:31.000Z</time>
</trkpt>
<trkpt lat="59.5395308" lon="31.1969715">
<ele>48.680000</ele>
<time>2026-08-31T23:59:45.000Z</time>
</trkpt>
<trkpt lat="59.5395341" lon="31.1969820">
<ele>49.160000</ele>
<time>2026-09-01T00:00:07.000Z</time>
</trkpt>
<trkpt lat="59.5395379" lon="31.1969942">
<ele>49.160000</ele>
<time>2026-09-01T00:00:29.000Z</time>
</trkpt>
<trkpt lat="59.5395458" lon="31.1970207">
<ele>49.160000</ele>
<time>2026-09-01T00:00:50.000Z</time>
</trkpt>
<trkpt lat="59.5395400" lon="31.1970482">
<ele>48.680000</ele>
<time>2026-09-01T00:01:07.000Z</time>
</trkpt>
<trkpt lat="59.5396180" lon="31.1972133">
<ele>48.680000</ele>
<time>2026-09-01T00:01:18.000Z</time>
</trkpt>
<trkpt lat="59.5396988" lon="31.1973440">
<ele>49.160000</ele>
<time>2026-09-01T00:01:30.000Z</time>
</trkpt>
<trkpt lat="59.5397632" lon="31.1975112">
<ele>50.610001</ele>
<time>2026-09-01T00:01:42.000Z</time>
</trkpt>
<trkpt lat="59.5398475" lon="31.1976689">
<ele>50.610001</ele>
<time>2026-09-01T00:01:58.000Z</time>
</trkpt>
<trkpt lat="59.5398677" lon="31.1977012">
<ele>50.610001</ele>
<time>2026-09-01T00:02:00.000Z</time>
</trkpt>
<trkpt lat="59.5399127" lon="31.1977477">
<ele>49.160000</ele>
<time>2026-09-01T00:02:17.000Z</time>
</trkpt>
<trkpt lat="59.5399091" lon="31.1977406">
<ele>50.130001</ele>
<time>2026-09-01T00:02:21.000Z</time>
</trkpt>
<trkpt lat="59.5399181" lon="31.1978579">
<ele>50.610001</ele>
<time>2026-09-01T00:02:29.000Z</time>
</trkpt>
<trkpt lat="59.5399905" lon="31.1979805">
<ele>50.610001</ele>
<time>2026-09-01T00:02:41.000Z</time>
</trkpt>
<trkpt lat="59.5400134" lon="31.1980573">
<ele>49.160000</ele>
<time>2026-09-01T00:02:47.000Z</time>
</trkpt>
<trkpt lat="59.5401181" lon="31.1981986">
<ele>48.680000</ele>
<time>2026-09-01T00:03:02.000Z</time>
</trkpt>
<trkpt lat="59.5401836" lon="31.1983769">
<ele>49.650002</ele>
<time>2026-09-01T00:03:14.000Z</time>
</trkpt>
<trkpt lat="59.5401891" lon="31.1985592">
<ele>49.650002</ele>
<time>2026-09-01T00:03:25.000Z</time>
</trkpt>
<trkpt lat="59.5402843" lon="31.1986876">
<ele>48.200001</ele>
<time>2026-09-01T00:03:37.000Z</time>
</trkpt>
<trkpt lat="59.5403395" lon="31.1987603">
<ele>48.200001</ele>
<time>2026-09-01T00:03:43.000Z</time>
</trkpt>
<trkpt lat="59.5403731" lon="31.1989348">
<ele>48.200001</ele>
<time>2026-09-01T00:03:55.000Z</time>
</trkpt>
<trkpt lat="59.5403703" lon="31.1989392">
<ele>48.200001</ele>
<time>2026-09-01T00:03:56.000Z</time>
</trkpt>
<trkpt lat="59.5404246" lon="31.1990528">
<ele>48.200001</ele>
<time>2026-09-01T00:04:07.000Z</time>
</trkpt>
<trkpt lat="59.5404349" lon="31.1991020">
<ele>49.650002</ele>
<time>2026-09-01T00:04:12.000Z</time>
</trkpt>
<trkpt lat="59.5404826" lon="31.1992184">
<ele>49.650002</ele>
<time>2026-09-01T00:04:25.000Z</time>
</trkpt>
<trkpt lat="59.5405769" lon="31.1993541">
<ele>49.650002</ele>
<time>2026-09-01T00:04:35.000Z</time>
</trkpt>
<trkpt lat="59.5406481" lon="31.1994737">
<ele>49.650002</ele>
<time>2026-09-01T00:04:50.000Z</time>
</trkpt>
<trkpt lat="59.5406565" lon="31.1995624">
<ele>48.680000</ele>
<time>2026-09-01T00:05:00.000Z</time>
</trkpt>
<trkpt lat="59.5406537" lon="31.1995803">
<ele>48.680000</ele>
<time>2026-09-01T00:05:01.000Z</time>
</trkpt>
<trkpt lat="59.5407167" lon="31.1997236">
<ele>50.610001</ele>
<time>2026-09-01T00:05:13.000Z</time>
</trkpt>
<trkpt lat="59.5407760" lon="31.1999343">
<ele>50.610001</ele>
<time>2026-09-01T00:05:24.000Z</time>
</trkpt>
<trkpt lat="59.5407940" lon="31.1999740">
<ele>50.610001</ele>
<time>2026-09-01T00:05:26.000Z</time>
</trkpt>
<trkpt lat="59.5408906" lon="31.2001655">
<ele>51.089996</ele>
<time>2026-09-01T00:05:41.000Z</time>
</trkpt>
<trkpt lat="59.5409605" lon="31.2002999">
<ele>49.650002</ele>
<time>2026-09-01T00:05:52.000Z</time>
</trkpt>
<trkpt lat="59.5410186" lon="31.2004537">
<ele>49.650002</ele>
<time>2026-09-01T00:06:04.000Z</time>
</trkpt>
<trkpt lat="59.5411170" lon="31.2006279">
<ele>48.680000</ele>
<time>2026-09-01T00:06:17.000Z</time>
</trkpt>
<trkpt lat="59.5411391" lon="31.2007308">
<ele>48.680000</ele>
<time>2026-09-01T00:06:29.000Z</time>
</trkpt>
<trkpt lat="59.5411450" lon="31.2007259">
<ele>50.130001</ele>
<time>2026-09-01T00:06:34.000Z</time>
</trkpt>
<trkpt lat="59.5411324" lon="31.2007448">
<ele>50.130001</ele>
<time>2026-09-01T00:06:59.000Z</time>
</trkpt>
<trkpt lat="59.5411243" lon="31.2007685">
<ele>50.130001</ele>
<time>2026-09-01T00:07:28.000Z</time>
</trkpt>
<trkpt lat="59.5411218" lon="31.2007623">
<ele>50.130001</ele>
<time>2026-09-01T00:07:52.000Z</time>
</trkpt>
<trkpt lat="59.5411202" lon="31.2007493">
<ele>50.130001</ele>
<time>2026-09-01T00:08:15.000Z</time>
</trkpt>
<trkpt lat="59.5411378" lon="31.2007461">
<ele>48.680000</ele>
<time>2026-09-01T00:08:27.000Z</time>
</trkpt>
<trkpt lat="59.5411690" lon="31.2007996">
<ele>48.680000</ele>
<time>2026-09-01T00:08:33.000Z</time>
</trkpt>
<trkpt lat="59.5412342" lon="31.2009687">
<ele>48.680000</ele>
<time>2026-09-01T00:08:43.000Z</time>
</trkpt>
<trkpt lat="59.5412434" lon="31.2009879">
<ele>48.680000</ele>
<time>2026-09-01T00:08:44.000Z</time>
</trkpt>
<trkpt lat="59.5412643" lon="31.2010780">
<ele>48.680000</ele>
<time>2026-09-01T00:08:49.000Z</time>
</trkpt>
<trkpt lat="59.5412893" lon="31.2011235">
<ele>48.680000</ele>
<time>2026-09-01T00:08:52.000Z</time>
</trkpt>
<trkpt lat="59.5413285" lon="31.2012233">
<ele>48.680000</ele>
<time>2026-09-01T00:09:02.000Z</time>
</trkpt>
<trkpt lat="59.5413385" lon="31.2012394">
<ele>48.680000</ele>
<time>2026-09-01T00:09:04.000Z</time>
</trkpt>
<trkpt lat="59.5413570" lon="31.2012806">
<ele>48.680000</ele>
<time>2026-09-01T00:09:07.000Z</time>
</trkpt>
<trkpt lat="59.5413881" lon="31.2013377">
<ele>48.680000</ele>
<time>2026-09-01T00:09:11.000Z</time>
</trkpt>
<trkpt lat="59.5414378" lon="31.2014740">
<ele>48.680000</ele>
<time>2026-09-01T00:09:23.000Z</time>
</trkpt>
<trkpt lat="59.5415225" lon="31.2016627">
<ele>48.680000</ele>
<time>2026-09-01T00:09:34.000Z</time>
</trkpt>
<trkpt lat="59.5415383" lon="31.2016896">
<ele>48.680000</ele>
<time>2026-09-01T00:09:36.000Z</time>
</trkpt>
<trkpt lat="59.5415860" lon="31.2017820">
<ele>49.650002</ele>
<time>2026-09-01T00:09:45.000Z</time>
</trkpt>
<trkpt lat="59.5415988" lon="31.2018117">
<ele>49.650002</ele>
<time>2026-09-01T00:09:47.000Z</time>
</trkpt>
<trkpt lat="59.5416425" lon="31.2019247">
<ele>49.650002</ele>
<time>2026-09-01T00:09:55.000Z</time>
</trkpt>
<trkpt lat="59.5416718" lon="31.2020086">
<ele>49.650002</ele>
<time>2026-09-01T00:10:03.000Z</time>
</trkpt>
<trkpt lat="59.5416673" lon="31.2021225">
<ele>49.650002</ele>
<time>2026-09-01T00:10:18.000Z</time>
</trkpt>
<trkpt lat="59.5416636" lon="31.2021163">
<ele>49.650002</ele>
<time>2026-09-01T00:10:32.000Z</time>
</trkpt>
<trkpt lat="59.5416777" lon="31.2021014">
<ele>49.650002</ele>
<time>2026-09-01T00:10:49.000Z</time>
</trkpt>
<trkpt lat="59.5416953" lon="31.2021111">
<ele>49.650002</ele>
<time>2026-09-01T00:11:13.000Z</time>
</trkpt>
<trkpt lat="59.5417022" lon="31.2021223">
<ele>49.650002</ele>
<time>2026-09-01T00:11:33.000Z</time>
</trkpt>
<trkpt lat="59.5417082" lon="31.2021215">
<ele>49.650002</ele>
<time>2026-09-01T00:11:47.000Z</time>
</trkpt>
<trkpt lat="59.5417117" lon="31.2021223">
<ele>49.650002</ele>
<time>2026-09-01T00:12:10.000Z</time>
</trkpt>
<trkpt lat="59.5417128" lon="31.2021135">
<ele>49.650002</ele>
<time>2026-09-01T00:12:27.000Z</time>
</trkpt>
<trkpt lat="59.5417051" lon="31.2020899">
<ele>49.650002</ele>
<time>2026-09-01T00:12:42.000Z</time>
</trkpt>
<trkpt lat="59.5417602" lon="31.2021912">
<ele>49.650002</ele>
<time>2026-09-01T00:13:00.000Z</time>
</trkpt>
<trkpt lat="59.5417750" lon="31.2022666">
<ele>51.089996</ele>
<time>2026-09-01T00:13:02.000Z</time>
</trkpt>
<trkpt lat="59.5418494" lon="31.2024700">
<ele>51.089996</ele>
<time>2026-09-01T00:13:16.000Z</time>
</trkpt>
<trkpt lat="59.5419319" lon="31.2027141">
<ele>51.089996</ele>
<time>2026-09-01T00:13:28.000Z</time>
</trkpt>
<trkpt lat="59.5419937" lon="31.2028548">
<ele>51.089996</ele>
<time>2026-09-01T00:13:39.000Z</time>
</trkpt>
<trkpt lat="59.5420692" lon="31.2030871">
<ele>51.089996</ele>
<time>2026-09-01T00:13:50.000Z</time>
</trkpt>
<trkpt lat="59.5421555" lon="31.2032813">
<ele>51.089996</ele>
<time>2026-09-01T00:14:01.000Z</time>
</trkpt>
<trkpt lat="59.5421796" lon="31.2033752">
<ele>49.650002</ele>
<time>2026-09-01T00:14:15.000Z</time>
</trkpt>
<trkpt lat="59.5421924" lon="31.2033933">
<ele>49.650002</ele>
<time>2026-09-01T00:14:25.000Z</time>
</trkpt>
<trkpt lat="59.5421884" lon="31.2033766">
<ele>49.650002</ele>
<time>2026-09-01T00:14:37.000Z</time>
</trkpt>
<trkpt lat="59.5421776" lon="31.2033662">
<ele>51.089996</ele>
<time>2026-09-01T00:14:53.000Z</time>
</trkpt>
<trkpt lat="59.5421731" lon="31.2033559">
<ele>51.570000</ele>
<time>2026-09-01T00:15:13.000Z</time>
</trkpt>
<trkpt lat="59.5421717" lon="31.2033700">
<ele>50.130001</ele>
<time>2026-09-01T00:15:29.000Z</time>
</trkpt>
<trkpt lat="59.5421744" lon="31.2033725">
<ele>51.570000</ele>
<time>2026-09-01T00:15:52.000Z</time>
</trkpt>
<trkpt lat="59.5421768" lon="31.2033688">
<ele>51.570000</ele>
<time>2026-09-01T00:15:53.000Z</time>
</trkpt>
<trkpt lat="59.5422454" lon="31.2032589">
<ele>50.130001</ele>
<time>2026-09-01T00:16:07.000Z</time>
</trkpt>
<trkpt lat="59.5422652" lon="31.2032269">
<ele>50.130001</ele>
<time>2026-09-01T00:16:09.000Z</time>
</trkpt>
<trkpt lat="59.5423400" lon="31.2031131">
<ele>49.650002</ele>
<time>2026-09-01T00:16:22.000Z</time>
</trkpt>
<trkpt lat="59.5423977" lon="31.2031209">
<ele>49.650002</ele>
<time>2026-09-01T00:16:34.000Z</time>
</trkpt>
<trkpt lat="59.5424501" lon="31.2031461">
<ele>49.650002</ele>
<time>2026-09-01T00:16:49.000Z</time>
</trkpt>
<trkpt lat="59.5424977" lon="31.2031678">
<ele>49.650002</ele>
<time>2026-09-01T00:17:00.000Z</time>
</trkpt>
<trkpt lat="59.5425883" lon="31.2031257">
<ele>51.089996</ele>
<time>2026-09-01T00:17:13.000Z</time>
</trkpt>
<trkpt lat="59.5425863" lon="31.2032187">
<ele>51.089996</ele>
<time>2026-09-01T00:17:26.000Z</time>
</trkpt>
<trkpt lat="59.5425774" lon="31.2032375">
<ele>51.089996</ele>
<time>2026-09-01T00:17:28.000Z</time>
</trkpt>
<trkpt lat="59.5425680" lon="31.2032765">
<ele>49.650002</ele>
<time>2026-09-01T00:17:30.000Z</time>
</trkpt>
<trkpt lat="59.5425642" lon="31.2034393">
<ele>49.650002</ele>
<time>2026-09-01T00:17:41.000Z</time>
</trkpt>
<trkpt lat="59.5425789" lon="31.2035868">
<ele>49.160000</ele>
<time>2026-09-01T00:17:54.000Z</time>
</trkpt>
<trkpt lat="59.5425853" lon="31.2037703">
<ele>49.160000</ele>
<time>2026-09-01T00:18:05.000Z</time>
</trkpt>
<trkpt lat="59.5425251" lon="31.2039190">
<ele>49.160000</ele>
<time>2026-09-01T00:18:19.000Z</time>
</trkpt>
<trkpt lat="59.5424525" lon="31.2039581">
<ele>50.130001</ele>
<time>2026-09-01T00:18:29.000Z</time>
</trkpt>
<trkpt lat="59.5424173" lon="31.2039667">
<ele>49.160000</ele>
<time>2026-09-01T00:18:35.000Z</time>
</trkpt>
<trkpt lat="59.5424008" lon="31.2039546">
<ele>49.160000</ele>
<time>2026-09-01T00:18:39.000Z</time>
</trkpt>
<trkpt lat="59.5423048" lon="31.2040146">
<ele>48.680000</ele>
<time>2026-09-01T00:18:52.000Z</time>
</trkpt>
<trkpt lat="59.5422709" lon="31.2040557">
<ele>48.680000</ele>
<time>2026-09-01T00:18:56.000Z</time>
</trkpt>
<trkpt lat="59.5422422" lon="31.2040976">
<ele>49.160000</ele>
<time>2026-09-01T00:19:07.000Z</time>
</trkpt>
<trkpt lat="59.5422318" lon="31.2041657">
<ele>47.719997</ele>
<time>2026-09-01T00:19:17.000Z</time>
</trkpt>
<trkpt lat="59.5422222" lon="31.2043874">
<ele>47.719997</ele>
<time>2026-09-01T00:19:29.000Z</time>
</trkpt>
<trkpt lat="59.5422650" lon="31.2045189">
<ele>47.240002</ele>
<time>2026-09-01T00:19:41.000Z</time>
</trkpt>
<trkpt lat="59.5423129" lon="31.2045793">
<ele>47.240002</ele>
<time>2026-09-01T00:19:48.000Z</time>
</trkpt>
<trkpt lat="59.5423696" lon="31.2046465">
<ele>47.240002</ele>
<time>2026-09-01T00:19:59.000Z</time>
</trkpt>
<trkpt lat="59.5424255" lon="31.2048092">
<ele>46.279999</ele>
<time>2026-09-01T00:20:11.000Z</time>
</trkpt>
<trkpt lat="59.5424764" lon="31.2048311">
<ele>46.279999</ele>
<time>2026-09-01T00:20:21.000Z</time>
</trkpt>
<trkpt lat="59.5424806" lon="31.2048246">
<ele>46.279999</ele>
<time>2026-09-01T00:20:23.000Z</time>
</trkpt>
<trkpt lat="59.5424950" lon="31.2048101">
<ele>47.719997</ele>
<time>2026-09-01T00:20:25.000Z</time>
</trkpt>
<trkpt lat="59.5425666" lon="31.2048603">
<ele>47.719997</ele>
<time>2026-09-01T00:20:36.000Z</time>
</trkpt>
<trkpt lat="59.5426241" lon="31.2048695">
<ele>46.760002</ele>
<time>2026-09-01T00:20:46.000Z</time>
</trkpt>
<trkpt lat="59.5426384" lon="31.2047878">
<ele>46.760002</ele>
<time>2026-09-01T00:20:59.000Z</time>
</trkpt>
<trkpt lat="59.5426756" lon="31.2047879">
<ele>47.719997</ele>
<time>2026-09-01T00:21:08.000Z</time>
</trkpt>
<trkpt lat="59.5427573" lon="31.2048872">
<ele>46.760002</ele>
<time>2026-09-01T00:21:20.000Z</time>
</trkpt>
<trkpt lat="59.5428081" lon="31.2049391">
<ele>46.760002</ele>
<time>2026-09-01T00:21:31.000Z</time>
</trkpt>
<trkpt lat="59.5428328" lon="31.2049992">
<ele>46.760002</ele>
<time>2026-09-01T00:21:41.000Z</time>
</trkpt>
<trkpt lat="59.5428343" lon="31.2050379">
<ele>46.760002</ele>
<time>2026-09-01T00:21:43.000Z</time>
</trkpt>
<trkpt lat="59.5428634" lon="31.2051716">
<ele>46.760002</ele>
<time>2026-09-01T00:21:51.000Z</time>
</trkpt>
<trkpt lat="59.5428976" lon="31.2052448">
<ele>48.200001</ele>
<time>2026-09-01T00:21:59.000Z</time>
</trkpt>
<trkpt lat="59.5429356" lon="31.2052044">
<ele>46.760002</ele>
<time>2026-09-01T00:22:06.000Z</time>
</trkpt>
<trkpt lat="59.5429458" lon="31.2051782">
<ele>46.760002</ele>
<time>2026-09-01T00:22:08.000Z</time>
</trkpt>
<trkpt lat="59.5429777" lon="31.2051027">
<ele>46.760002</ele>
<time>2026-09-01T00:22:13.000Z</time>
</trkpt>
<trkpt lat="59.5430071" lon="31.2050112">
<ele>47.719997</ele>
<time>2026-09-01T00:22:18.000Z</time>
</trkpt>
<trkpt lat="59.5430995" lon="31.2049802">
<ele>46.760002</ele>
<time>2026-09-01T00:22:28.000Z</time>
</trkpt>
<trkpt lat="59.5431239" lon="31.2049776">
<ele>46.760002</ele>
<time>2026-09-01T00:22:30.000Z</time>
</trkpt>
<trkpt lat="59.5431439" lon="31.2049505">
<ele>46.760002</ele>
<time>2026-09-01T00:22:32.000Z</time>
</trkpt>
<trkpt lat="59.5431915" lon="31.2048621">
<ele>47.719997</ele>
<time>2026-09-01T00:22:45.000Z</time>
</trkpt>
<trkpt lat="59.5432078" lon="31.2048286">
<ele>47.719997</ele>
<time>2026-09-01T00:22:54.000Z</time>
</trkpt>
<trkpt lat="59.5432729" lon="31.2047553">
<ele>46.760002</ele>
<time>2026-09-01T00:23:06.000Z</time>
</trkpt>
<trkpt lat="59.5433095" lon="31.2046790">
<ele>46.760002</ele>
<time>2026-09-01T00:23:16.000Z</time>
</trkpt>
<trkpt lat="59.5434052" lon="31.2046406">
<ele>44.839996</ele>
<time>2026-09-01T00:23:30.000Z</time>
</trkpt>
<trkpt lat="59.5434212" lon="31.2046455">
<ele>44.839996</ele>
<time>2026-09-01T00:23:33.000Z</time>
</trkpt>
<trkpt lat="59.5435393" lon="31.2046002">
<ele>44.839996</ele>
<time>2026-09-01T00:23:47.000Z</time>
</trkpt>
<trkpt lat="59.5435843" lon="31.2046156">
<ele>45.799999</ele>
<time>2026-09-01T00:24:00.000Z</time>
</trkpt>
<trkpt lat="59.5436936" lon="31.2046634">
<ele>45.320000</ele>
<time>2026-09-01T00:24:12.000Z</time>
</trkpt>
<trkpt lat="59.5437634" lon="31.2045455">
<ele>45.320000</ele>
<time>2026-09-01T00:24:22.000Z</time>
</trkpt>
<trkpt lat="59.5437910" lon="31.2045375">
<ele>44.839996</ele>
<time>2026-09-01T00:24:33.000Z</time>
</trkpt>
<trkpt lat="59.5438323" lon="31.2044625">
<ele>45.799999</ele>
<time>2026-09-01T00:24:46.000Z</time>
</trkpt>
<trkpt lat="59.5439138" lon="31.2045082">
<ele>45.799999</ele>
<time>2026-09-01T00:25:00.000Z</time>
</trkpt>
<trkpt lat="59.5439557" lon="31.2045097">
<ele>45.799999</ele>
<time>2026-09-01T00:25:11.000Z</time>
</trkpt>
<trkpt lat="59.5440114" lon="31.2045122">
<ele>45.799999</ele>
<time>2026-09-01T00:25:22.000Z</time>
</trkpt>
<trkpt lat="59.5440688" lon="31.2045525">
<ele>46.760002</ele>
<time>2026-09-01T00:25:35.000Z</time>
</trkpt>
<trkpt lat="59.5440910" lon="31.2045837">
<ele>46.760002</ele>
<time>2026-09-01T00:25:50.000Z</time>
</trkpt>
<trkpt lat="59.5440973" lon="31.2045879">
<ele>46.760002</ele>
<time>2026-09-01T00:26:05.000Z</time>
</trkpt>
<trkpt lat="59.5441005" lon="31.2045893">
<ele>46.760002</ele>
<time>2026-09-01T00:26:14.000Z</time>
</trkpt>
<trkpt lat="59.5440893" lon="31.2046078">
<ele>45.799999</ele>
<time>2026-09-01T00:26:40.000Z</time>
</trkpt>
<trkpt lat="59.5441039" lon="31.2046227">
<ele>47.240002</ele>
<time>2026-09-01T00:26:59.000Z</time>
</trkpt>
<trkpt lat="59.5441071" lon="31.2046239">
<ele>46.279999</ele>
<time>2026-09-01T00:27:02.000Z</time>
</trkpt>
<trkpt lat="59.5441134" lon="31.2046372">
<ele>45.799999</ele>
<time>2026-09-01T00:27:27.000Z</time>
</trkpt>
<trkpt lat="59.5441183" lon="31.2046188">
<ele>45.320000</ele>
<time>2026-09-01T00:27:47.000Z</time>
</trkpt>
<trkpt lat="59.5441357" lon="31.2046037">
<ele>46.760002</ele>
<time>2026-09-01T00:28:13.000Z</time>
</trkpt>
<trkpt lat="59.5441387" lon="31.2046016">
<ele>46.760002</ele>
<time>2026-09-01T00:28:34.000Z</time>
</trkpt>
<trkpt lat="59.5441420" lon="31.2045935">
<ele>46.760002</ele>
<time>2026-09-01T00:28:58.000Z</time>
</trkpt>
<trkpt lat="59.5441513" lon="31.2045972">
<ele>46.760002</ele>
<time>2026-09-01T00:29:17.000Z</time>
</trkpt>
<trkpt lat="59.5441780" lon="31.2045961">
<ele>45.320000</ele>
<time>2026-09-01T00:29:48.000Z</time>
</trkpt>
<trkpt lat="59.5442264" lon="31.2046361">
<ele>45.320000</ele>
<time>2026-09-01T00:30:02.000Z</time>
</trkpt>
<trkpt lat="59.5442959" lon="31.2047009">
<ele>46.760002</ele>
<time>2026-09-01T00:30:16.000Z</time>
</trkpt>
<trkpt lat="59.5443462" lon="31.2047530">
<ele>46.760002</ele>
<time>2026-09-01T00:30:26.000Z</time>
</trkpt>
<trkpt lat="59.5443637" lon="31.2047330">
<ele>45.320000</ele>
<time>2026-09-01T00:30:31.000Z</time>
</trkpt>
<trkpt lat="59.5443644" lon="31.2047054">
<ele>45.320000</ele>
<time>2026-09-01T00:30:44.000Z</time>
</trkpt>
<trkpt lat="59.5443484" lon="31.2047162">
<ele>46.760002</ele>
<time>2026-09-01T00:30:54.000Z</time>
</trkpt>
<trkpt lat="59.5444005" lon="31.2047154">
<ele>46.760002</ele>
<time>2026-09-01T00:31:06.000Z</time>
</trkpt>
<trkpt lat="59.5444155" lon="31.2047085">
<ele>44.839996</ele>
<time>2026-09-01T00:31:09.000Z</time>
</trkpt>
<trkpt lat="59.5444242" lon="31.2047147">
<ele>44.839996</ele>
<time>2026-09-01T00:31:13.000Z</time>
</trkpt>
<trkpt lat="59.5444193" lon="31.2047653">
<ele>44.360001</ele>
<time>2026-09-01T00:31:17.000Z</time>
</trkpt>
<trkpt lat="59.5443734" lon="31.2048758">
<ele>45.799999</ele>
<time>2026-09-01T00:31:23.000Z</time>
</trkpt>
<trkpt lat="59.5443579" lon="31.2049113">
<ele>45.799999</ele>
<time>2026-09-01T00:31:27.000Z</time>
</trkpt>
<trkpt lat="59.5443480" lon="31.2049557">
<ele>45.799999</ele>
<time>2026-09-01T00:31:30.000Z</time>
</trkpt>
<trkpt lat="59.5443220" lon="31.2050372">
<ele>46.279999</ele>
<time>2026-09-01T00:31:36.000Z</time>
</trkpt>
<trkpt lat="59.5442760" lon="31.2051735">
<ele>46.279999</ele>
<time>2026-09-01T00:31:43.000Z</time>
</trkpt>
<trkpt lat="59.5442601" lon="31.2052051">
<ele>47.240002</ele>
<time>2026-09-01T00:31:44.000Z</time>
</trkpt>
<trkpt lat="59.5442471" lon="31.2052394">
<ele>47.240002</ele>
<time>2026-09-01T00:31:45.000Z</time>
</trkpt>
<trkpt lat="59.5442236" lon="31.2053215">
<ele>47.240002</ele>
<time>2026-09-01T00:31:49.000Z</time>
</trkpt>
<trkpt lat="59.5442150" lon="31.2053538">
<ele>47.240002</ele>
<time>2026-09-01T00:31:50.000Z</time>
</trkpt>
<trkpt lat="59.5441607" lon="31.2055321">
<ele>47.240002</ele>
<time>2026-09-01T00:31:59.000Z</time>
</trkpt>
<trkpt lat="59.5441533" lon="31.2055694">
<ele>47.719997</ele>
<time>2026-09-01T00:32:01.000Z</time>
</trkpt>
<trkpt lat="59.5441440" lon="31.2055953">
<ele>47.719997</ele>
<time>2026-09-01T00:32:02.000Z</time>
</trkpt>
<trkpt lat="59.5441347" lon="31.2056204">
<ele>47.719997</ele>
<time>2026-09-01T00:32:03.000Z</time>
</trkpt>
<trkpt lat="59.5441264" lon="31.2056386">
<ele>47.719997</ele>
<time>2026-09-01T00:32:04.000Z</time>
</trkpt>
<trkpt lat="59.5441092" lon="31.2057005">
<ele>47.719997</ele>
<time>2026-09-01T00:32:08.000Z</time>
</trkpt>
<trkpt lat="59.5440809" lon="31.2058093">
<ele>47.719997</ele>
<time>2026-09-01T00:32:13.000Z</time>
</trkpt>
<trkpt lat="59.5440729" lon="31.2058471">
<ele>47.719997</ele>
<time>2026-09-01T00:32:14.000Z</time>
</trkpt>
<trkpt lat="59.5440660" lon="31.2058854">
<ele>48.200001</ele>
<time>2026-09-01T00:32:15.000Z</time>
</trkpt>
<trkpt lat="59.5440646" lon="31.2059304">
<ele>48.200001</ele>
<time>2026-09-01T00:32:19.000Z</time>
</trkpt>
<trkpt lat="59.5440553" lon="31.2059680">
<ele>48.200001</ele>
<time>2026-09-01T00:32:20.000Z</time>
</trkpt>
<trkpt lat="59.5440281" lon="31.2060577">
<ele>48.200001</ele>
<time>2026-09-01T00:32:24.000Z</time>
</trkpt>
<trkpt lat="59.5440181" lon="31.2060952">
<ele>48.200001</ele>
<time>2026-09-01T00:32:25.000Z</time>
</trkpt>
<trkpt lat="59.5440054" lon="31.2061370">
<ele>48.200001</ele>
<time>2026-09-01T00:32:26.000Z</time>
</trkpt>
<trkpt lat="59.5439967" lon="31.2061685">
<ele>48.200001</ele>
<time>2026-09-01T00:32:27.000Z</time>
</trkpt>
<trkpt lat="59.5439895" lon="31.2063720">
<ele>46.760002</ele>
<time>2026-09-01T00:32:34.000Z</time>
</trkpt>
<trkpt lat="59.5439697" lon="31.2064435">
<ele>46.760002</ele>
<time>2026-09-01T00:32:37.000Z</time>
</trkpt>
<trkpt lat="59.5439627" lon="31.2065171">
<ele>46.760002</ele>
<time>2026-09-01T00:32:52.000Z</time>
</trkpt>
<trkpt lat="59.5439703" lon="31.2064855">
<ele>46.760002</ele>
<time>2026-09-01T00:32:53.000Z</time>
</trkpt>
<trkpt lat="59.5439853" lon="31.2064262">
<ele>46.760002</ele>
<time>2026-09-01T00:32:56.000Z</time>
</trkpt>
<trkpt lat="59.5440003" lon="31.2063008">
<ele>46.760002</ele>
<time>2026-09-01T00:33:02.000Z</time>
</trkpt>
<trkpt lat="59.5440024" lon="31.2062721">
<ele>46.760002</ele>
<time>2026-09-01T00:33:03.000Z</time>
</trkpt>
<trkpt lat="59.5440069" lon="31.2062408">
<ele>46.760002</ele>
<time>2026-09-01T00:33:04.000Z</time>
</trkpt>
<trkpt lat="59.5440139" lon="31.2062060">
<ele>47.719997</ele>
<time>2026-09-01T00:33:05.000Z</time>
</trkpt>
<trkpt lat="59.5440198" lon="31.2061833">
<ele>47.719997</ele>
<time>2026-09-01T00:33:06.000Z</time>
</trkpt>
<trkpt lat="59.5440224" lon="31.2061682">
<ele>47.719997</ele>
<time>2026-09-01T00:33:07.000Z</time>
</trkpt>
<trkpt lat="59.5440274" lon="31.2061408">
<ele>47.719997</ele>
<time>2026-09-01T00:33:08.000Z</time>
</trkpt>
<trkpt lat="59.5440317" lon="31.2061063">
<ele>47.719997</ele>
<time>2026-09-01T00:33:09.000Z</time>
</trkpt>
<trkpt lat="59.5440358" lon="31.2060663">
<ele>47.719997</ele>
<time>2026-09-01T00:33:10.000Z</time>
</trkpt>
<trkpt lat="59.5440431" lon="31.2060242">
<ele>47.719997</ele>
<time>2026-09-01T00:33:11.000Z</time>
</trkpt>
<trkpt lat="59.5440496" lon="31.2059846">
<ele>47.719997</ele>
<time>2026-09-01T00:33:12.000Z</time>
</trkpt>
<trkpt lat="59.5440563" lon="31.2058753">
<ele>47.719997</ele>
<time>2026-09-01T00:33:22.000Z</time>
</trkpt>
<trkpt lat="59.5440827" lon="31.2057463">
<ele>47.719997</ele>
<time>2026-09-01T00:33:36.000Z</time>
</trkpt>
<trkpt lat="59.5440988" lon="31.2057111">
<ele>47.719997</ele>
<time>2026-09-01T00:33:37.000Z</time>
</trkpt>
<trkpt lat="59.5441143" lon="31.2056846">
<ele>47.719997</ele>
<time>2026-09-01T00:33:38.000Z</time>
</trkpt>
<trkpt lat="59.5441272" lon="31.2056681">
<ele>48.200001</ele>
<time>2026-09-01T00:33:39.000Z</time>
</trkpt>
<trkpt lat="59.5441509" lon="31.2055979">
<ele>48.200001</ele>
<time>2026-09-01T00:33:43.000Z</time>
</trkpt>
<trkpt lat="59.5442028" lon="31.2054246">
<ele>47.240002</ele>
<time>2026-09-01T00:33:49.000Z</time>
</trkpt>
<trkpt lat="59.5442100" lon="31.2053845">
<ele>47.240002</ele>
<time>2026-09-01T00:33:52.000Z</time>
</trkpt>
<trkpt lat="59.5442222" lon="31.2053569">
<ele>47.240002</ele>
<time>2026-09-01T00:33:53.000Z</time>
</trkpt>
<trkpt lat="59.5442320" lon="31.2053309">
<ele>47.240002</ele>
<time>2026-09-01T00:33:54.000Z</time>
</trkpt>
<trkpt lat="59.5442402" lon="31.2053052">
<ele>47.240002</ele>
<time>2026-09-01T00:33:55.000Z</time>
</trkpt>
<trkpt lat="59.5442560" lon="31.2052117">
<ele>47.240002</ele>
<time>2026-09-01T00:34:02.000Z</time>
</trkpt>
<trkpt lat="59.5442655" lon="31.2051808">
<ele>47.240002</ele>
<time>2026-09-01T00:34:03.000Z</time>
</trkpt>
<trkpt lat="59.5442786" lon="31.2051504">
<ele>47.240002</ele>
<time>2026-09-01T00:34:04.000Z</time>
</trkpt>
<trkpt lat="59.5442927" lon="31.2051271">
<ele>46.760002</ele>
<time>2026-09-01T00:34:05.000Z</time>
</trkpt>
<trkpt lat="59.5443049" lon="31.2051071">
<ele>46.760002</ele>
<time>2026-09-01T00:34:06.000Z</time>
</trkpt>
<trkpt lat="59.5443415" lon="31.2050258">
<ele>46.279999</ele>
<time>2026-09-01T00:34:10.000Z</time>
</trkpt>
<trkpt lat="59.5443811" lon="31.2048774">
<ele>45.320000</ele>
<time>2026-09-01T00:34:18.000Z</time>
</trkpt>
<trkpt lat="59.5443932" lon="31.2048502">
<ele>45.320000</ele>
<time>2026-09-01T00:34:19.000Z</time>
</trkpt>
<trkpt lat="59.5444055" lon="31.2048229">
<ele>45.320000</ele>
<time>2026-09-01T00:34:20.000Z</time>
</trkpt>
<trkpt lat="59.5444203" lon="31.2047870">
<ele>44.839996</ele>
<time>2026-09-01T00:34:21.000Z</time>
</trkpt>
<trkpt lat="59.5444344" lon="31.2047555">
<ele>44.839996</ele>
<time>2026-09-01T00:34:22.000Z</time>
</trkpt>
<trkpt lat="59.5444490" lon="31.2047303">
<ele>44.839996</ele>
<time>2026-09-01T00:34:23.000Z</time>
</trkpt>
<trkpt lat="59.5445516" lon="31.2045217">
<ele>43.880001</ele>
<time>2026-09-01T00:34:32.000Z</time>
</trkpt>
<trkpt lat="59.5445797" lon="31.2044329">
<ele>43.880001</ele>
<time>2026-09-01T00:34:37.000Z</time>
</trkpt>
<trkpt lat="59.5445883" lon="31.2044038">
<ele>43.880001</ele>
<time>2026-09-01T00:34:38.000Z</time>
</trkpt>
<trkpt lat="59.5446125" lon="31.2043387">
<ele>43.880001</ele>
<time>2026-09-01T00:34:44.000Z</time>
</trkpt>
<trkpt lat="59.5446697" lon="31.2042843">
<ele>43.880001</ele>
<time>2026-09-01T00:34:50.000Z</time>
</trkpt>
<trkpt lat="59.5447936" lon="31.2042640">
<ele>43.880001</ele>
<time>2026-09-01T00:35:03.000Z</time>
</trkpt>
<trkpt lat="59.5448144" lon="31.2042731">
<ele>43.400002</ele>
<time>2026-09-01T00:35:18.000Z</time>
</trkpt>
<trkpt lat="59.5448953" lon="31.2042423">
<ele>43.400002</ele>
<time>2026-09-01T00:35:34.000Z</time>
</trkpt>
<trkpt lat="59.5449664" lon="31.2042668">
<ele>44.360001</ele>
<time>2026-09-01T00:35:46.000Z</time>
</trkpt>
<trkpt lat="59.5450302" lon="31.2042591">
<ele>44.839996</ele>
<time>2026-09-01T00:35:55.000Z</time>
</trkpt>
<trkpt lat="59.5450447" lon="31.2042747">
<ele>44.839996</ele>
<time>2026-09-01T00:35:56.000Z</time>
</trkpt>
<trkpt lat="59.5450667" lon="31.2042754">
<ele>44.839996</ele>
<time>2026-09-01T00:35:59.000Z</time>
</trkpt>
<trkpt lat="59.5450827" lon="31.2042903">
<ele>44.839996</ele>
<time>2026-09-01T00:36:00.000Z</time>
</trkpt>
<trkpt lat="59.5450958" lon="31.2043100">
<ele>44.839996</ele>
<time>2026-09-01T00:36:01.000Z</time>
</trkpt>
<trkpt lat="59.5451266" lon="31.2043407">
<ele>44.839996</ele>
<time>2026-09-01T00:36:04.000Z</time>
</trkpt>
<trkpt lat="59.5451395" lon="31.2043510">
<ele>45.320000</ele>
<time>2026-09-01T00:36:05.000Z</time>
</trkpt>
<trkpt lat="59.5452803" lon="31.2044803">
<ele>46.760002</ele>
<time>2026-09-01T00:36:17.000Z</time>
</trkpt>
<trkpt lat="59.5453762" lon="31.2045267">
<ele>46.760002</ele>
<time>2026-09-01T00:36:26.000Z</time>
</trkpt>
<trkpt lat="59.5453883" lon="31.2045248">
<ele>46.760002</ele>
<time>2026-09-01T00:36:27.000Z</time>
</trkpt>
<trkpt lat="59.5455723" lon="31.2045862">
<ele>46.760002</ele>
<time>2026-09-01T00:36:41.000Z</time>
</trkpt>
<trkpt lat="59.5456764" lon="31.2046448">
<ele>45.320000</ele>
<time>2026-09-01T00:36:48.000Z</time>
</trkpt>
<trkpt lat="59.5457166" lon="31.2046628">
<ele>45.320000</ele>
<time>2026-09-01T00:36:51.000Z</time>
</trkpt>
<trkpt lat="59.5457442" lon="31.2046802">
<ele>45.320000</ele>
<time>2026-09-01T00:36:52.000Z</time>
</trkpt>
<trkpt lat="59.5457945" lon="31.2047043">
<ele>45.320000</ele>
<time>2026-09-01T00:36:54.000Z</time>
</trkpt>
<trkpt lat="59.5458331" lon="31.2047244">
<ele>45.320000</ele>
<time>2026-09-01T00:36:58.000Z</time>
</trkpt>
<trkpt lat="59.5458493" lon="31.2047390">
<ele>45.320000</ele>
<time>2026-09-01T00:36:59.000Z</time>
</trkpt>
<trkpt lat="59.5458870" lon="31.2047724">
<ele>45.320000</ele>
<time>2026-09-01T00:37:01.000Z</time>
</trkpt>
<trkpt lat="59.5459344" lon="31.2048279">
<ele>46.760002</ele>
<time>2026-09-01T00:37:06.000Z</time>
</trkpt>
<trkpt lat="59.5459478" lon="31.2048494">
<ele>46.760002</ele>
<time>2026-09-01T00:37:07.000Z</time>
</trkpt>
<trkpt lat="59.5460476" lon="31.2049764">
<ele>46.760002</ele>
<time>2026-09-01T00:37:16.000Z</time>
</trkpt>
<trkpt lat="59.5461462" lon="31.2050980">
<ele>46.760002</ele>
<time>2026-09-01T00:37:28.000Z</time>
</trkpt>
<trkpt lat="59.5461656" lon="31.2051245">
<ele>46.760002</ele>
<time>2026-09-01T00:37:38.000Z</time>
</trkpt>
<trkpt lat="59.5462005" lon="31.2051488">
<ele>46.760002</ele>
<time>2026-09-01T00:37:42.000Z</time>
</trkpt>
<trkpt lat="59.5462182" lon="31.2051612">
<ele>46.760002</ele>
<time>2026-09-01T00:37:43.000Z</time>
</trkpt>
<trkpt lat="59.5462362" lon="31.2051746">
<ele>46.760002</ele>
<time>2026-09-01T00:37:44.000Z</time>
</trkpt>
<trkpt lat="59.5462525" lon="31.2051849">
<ele>46.760002</ele>
<time>2026-09-01T00:37:45.000Z</time>
</trkpt>
<trkpt lat="59.5462688" lon="31.2051980">
<ele>46.760002</ele>
<time>2026-09-01T00:37:46.000Z</time>
</trkpt>
<trkpt lat="59.5463931" lon="31.2052695">
<ele>46.760002</ele>
<time>2026-09-01T00:37:57.000Z</time>
</trkpt>
<trkpt lat="59.5464082" lon="31.2052781">
<ele>46.760002</ele>
<time>2026-09-01T00:37:58.000Z</time>
</trkpt>
<trkpt lat="59.5464231" lon="31.2052835">
<ele>46.760002</ele>
<time>2026-09-01T00:37:59.000Z</time>
</trkpt>
<trkpt lat="59.5464817" lon="31.2053069">
<ele>46.760002</ele>
<time>2026-09-01T00:38:04.000Z</time>
</trkpt>
<trkpt lat="59.5465081" lon="31.2053270">
<ele>46.760002</ele>
<time>2026-09-01T00:38:05.000Z</time>
</trkpt>
<trkpt lat="59.5465240" lon="31.2053353">
<ele>46.760002</ele>
<time>2026-09-01T00:38:06.000Z</time>
</trkpt>
<trkpt lat="59.5466909" lon="31.2054159">
<ele>46.760002</ele>
<time>2026-09-01T00:38:17.000Z</time>
</trkpt>
<trkpt lat="59.5467265" lon="31.2054525">
<ele>46.760002</ele>
<time>2026-09-01T00:38:20.000Z</time>
</trkpt>
<trkpt lat="59.5467340" lon="31.2054709">
<ele>46.760002</ele>
<time>2026-09-01T00:38:21.000Z</time>
</trkpt>
<trkpt lat="59.5467673" lon="31.2055103">
<ele>46.760002</ele>
<time>2026-09-01T00:38:25.000Z</time>
</trkpt>
<trkpt lat="59.5467889" lon="31.2055342">
<ele>46.760002</ele>
<time>2026-09-01T00:38:26.000Z</time>
</trkpt>
<trkpt lat="59.5468125" lon="31.2055525">
<ele>46.760002</ele>
<time>2026-09-01T00:38:27.000Z</time>
</trkpt>
<trkpt lat="59.5468887" lon="31.2056210">
<ele>46.760002</ele>
<time>2026-09-01T00:38:32.000Z</time>
</trkpt>
<trkpt lat="59.5468953" lon="31.2056531">
<ele>46.760002</ele>
<time>2026-09-01T00:38:33.000Z</time>
</trkpt>
<trkpt lat="59.5469085" lon="31.2056763">
<ele>46.760002</ele>
<time>2026-09-01T00:38:34.000Z</time>
</trkpt>
<trkpt lat="59.5469230" lon="31.2056951">
<ele>46.760002</ele>
<time>2026-09-01T00:38:35.000Z</time>
</trkpt>
<trkpt lat="59.5469702" lon="31.2057521">
<ele>46.760002</ele>
<time>2026-09-01T00:38:40.000Z</time>
</trkpt>
<trkpt lat="59.5469836" lon="31.2057752">
<ele>46.760002</ele>
<time>2026-09-01T00:38:41.000Z</time>
</trkpt>
<trkpt lat="59.5470011" lon="31.2057973">
<ele>46.760002</ele>
<time>2026-09-01T00:38:42.000Z</time>
</trkpt>
<trkpt lat="59.5470135" lon="31.2058075">
<ele>46.760002</ele>
<time>2026-09-01T00:38:43.000Z</time>
</trkpt>
<trkpt lat="59.5470522" lon="31.2058462">
<ele>46.760002</ele>
<time>2026-09-01T00:38:47.000Z</time>
</trkpt>
<trkpt lat="59.5470636" lon="31.2058724">
<ele>46.760002</ele>
<time>2026-09-01T00:38:48.000Z</time>
</trkpt>
<trkpt lat="59.5470937" lon="31.2059364">
<ele>47.240002</ele>
<time>2026-09-01T00:38:52.000Z</time>
</trkpt>
<trkpt lat="59.5471049" lon="31.2059667">
<ele>47.240002</ele>
<time>2026-09-01T00:38:53.000Z</time>
</trkpt>
<trkpt lat="59.5471136" lon="31.2060041">
<ele>47.240002</ele>
<time>2026-09-01T00:38:54.000Z</time>
</trkpt>
<trkpt lat="59.5471243" lon="31.2060333">
<ele>47.240002</ele>
<time>2026-09-01T00:38:55.000Z</time>
</trkpt>
<trkpt lat="59.5471451" lon="31.2060907">
<ele>47.240002</ele>
<time>2026-09-01T00:38:58.000Z</time>
</trkpt>
<trkpt lat="59.5471553" lon="31.2061124">
<ele>47.240002</ele>
<time>2026-09-01T00:38:59.000Z</time>
</trkpt>
<trkpt lat="59.5471655" lon="31.2061305">
<ele>47.240002</ele>
<time>2026-09-01T00:39:00.000Z</time>
</trkpt>
<trkpt lat="59.5471773" lon="31.2061492">
<ele>48.200001</ele>
<time>2026-09-01T00:39:01.000Z</time>
</trkpt>
<trkpt lat="59.5472975" lon="31.2063271">
<ele>49.160000</ele>
<time>2026-09-01T00:39:14.000Z</time>
</trkpt>
<trkpt lat="59.5473676" lon="31.2063411">
<ele>49.160000</ele>
<time>2026-09-01T00:39:22.000Z</time>
</trkpt>
<trkpt lat="59.5473928" lon="31.2063270">
<ele>49.160000</ele>
<time>2026-09-01T00:39:24.000Z</time>
</trkpt>
<trkpt lat="59.5474050" lon="31.2063144">
<ele>49.160000</ele>
<time>2026-09-01T00:39:25.000Z</time>
</trkpt>
<trkpt lat="59.5474179" lon="31.2063077">
<ele>49.160000</ele>
<time>2026-09-01T00:39:26.000Z</time>
</trkpt>
<trkpt lat="59.5475404" lon="31.2062417">
<ele>49.650002</ele>
<time>2026-09-01T00:39:35.000Z</time>
</trkpt>
<trkpt lat="59.5475746" lon="31.2062014">
<ele>48.200001</ele>
<time>2026-09-01T00:39:37.000Z</time>
</trkpt>
<trkpt lat="59.5476328" lon="31.2062339">
<ele>48.200001</ele>
<time>2026-09-01T00:39:41.000Z</time>
</trkpt>
<trkpt lat="59.5476474" lon="31.2062379">
<ele>48.200001</ele>
<time>2026-09-01T00:39:42.000Z</time>
</trkpt>
<trkpt lat="59.5476630" lon="31.2062421">
<ele>48.200001</ele>
<time>2026-09-01T00:39:43.000Z</time>
</trkpt>
<trkpt lat="59.5477689" lon="31.2062231">
<ele>49.650002</ele>
<time>2026-09-01T00:39:51.000Z</time>
</trkpt>
<trkpt lat="59.5478163" lon="31.2062163">
<ele>49.650002</ele>
<time>2026-09-01T00:39:57.000Z</time>
</trkpt>
<trkpt lat="59.5478351" lon="31.2062120">
<ele>49.650002</ele>
<time>2026-09-01T00:39:58.000Z</time>
</trkpt>
<trkpt lat="59.5478571" lon="31.2062039">
<ele>49.650002</ele>
<time>2026-09-01T00:39:59.000Z</time>
</trkpt>
<trkpt lat="59.5478726" lon="31.2061951">
<ele>49.650002</ele>
<time>2026-09-01T00:40:00.000Z</time>
</trkpt>
<trkpt lat="59.5479128" lon="31.2062023">
<ele>49.650002</ele>
<time>2026-09-01T00:40:05.000Z</time>
</trkpt>
<trkpt lat="59.5479652" lon="31.2061881">
<ele>49.650002</ele>
<time>2026-09-01T00:40:09.000Z</time>
</trkpt>
<trkpt lat="59.5480842" lon="31.2061111">
<ele>49.650002</ele>
<time>2026-09-01T00:40:21.000Z</time>
</trkpt>
<trkpt lat="59.5481688" lon="31.2059916">
<ele>49.160000</ele>
<time>2026-09-01T00:40:30.000Z</time>
</trkpt>
<trkpt lat="59.5481872" lon="31.2059674">
<ele>49.160000</ele>
<time>2026-09-01T00:40:31.000Z</time>
</trkpt>
<trkpt lat="59.5482056" lon="31.2059471">
<ele>49.160000</ele>
<time>2026-09-01T00:40:32.000Z</time>
</trkpt>
<trkpt lat="59.5482242" lon="31.2059293">
<ele>49.160000</ele>
<time>2026-09-01T00:40:33.000Z</time>
</trkpt>
<trkpt lat="59.5482825" lon="31.2059031">
<ele>49.160000</ele>
<time>2026-09-01T00:40:39.000Z</time>
</trkpt>
<trkpt lat="59.5483966" lon="31.2058610">
<ele>49.160000</ele>
<time>2026-09-01T00:40:47.000Z</time>
</trkpt>
<trkpt lat="59.5484654" lon="31.2058321">
<ele>49.160000</ele>
<time>2026-09-01T00:40:54.000Z</time>
</trkpt>
<trkpt lat="59.5484794" lon="31.2058276">
<ele>49.160000</ele>
<time>2026-09-01T00:40:55.000Z</time>
</trkpt>
<trkpt lat="59.5486444" lon="31.2057943">
<ele>48.680000</ele>
<time>2026-09-01T00:41:06.000Z</time>
</trkpt>
<trkpt lat="59.5488012" lon="31.2057732">
<ele>48.200001</ele>
<time>2026-09-01T00:41:16.000Z</time>
</trkpt>
<trkpt lat="59.5488256" lon="31.2057743">
<ele>48.200001</ele>
<time>2026-09-01T00:41:17.000Z</time>
</trkpt>
<trkpt lat="59.5488444" lon="31.2057688">
<ele>48.200001</ele>
<time>2026-09-01T00:41:18.000Z</time>
</trkpt>
<trkpt lat="59.5489110" lon="31.2057434">
<ele>48.200001</ele>
<time>2026-09-01T00:41:23.000Z</time>
</trkpt>
<trkpt lat="59.5489639" lon="31.2057115">
<ele>48.200001</ele>
<time>2026-09-01T00:41:29.000Z</time>
</trkpt>
<trkpt lat="59.5489802" lon="31.2057182">
<ele>48.200001</ele>
<time>2026-09-01T00:41:30.000Z</time>
</trkpt>
<trkpt lat="59.5490342" lon="31.2057138">
<ele>48.200001</ele>
<time>2026-09-01T00:41:35.000Z</time>
</trkpt>
<trkpt lat="59.5490488" lon="31.2057159">
<ele>48.200001</ele>
<time>2026-09-01T00:41:36.000Z</time>
</trkpt>
<trkpt lat="59.5490666" lon="31.2057211">
<ele>48.200001</ele>
<time>2026-09-01T00:41:37.000Z</time>
</trkpt>
<trkpt lat="59.5491341" lon="31.2057094">
<ele>48.200001</ele>
<time>2026-09-01T00:41:43.000Z</time>
</trkpt>
<trkpt lat="59.5491916" lon="31.2056999">
<ele>48.200001</ele>
<time>2026-09-01T00:41:48.000Z</time>
</trkpt>
<trkpt lat="59.5492275" lon="31.2056669">
<ele>48.200001</ele>
<time>2026-09-01T00:41:50.000Z</time>
</trkpt>
<trkpt lat="59.5492931" lon="31.2056323">
<ele>48.200001</ele>
<time>2026-09-01T00:41:54.000Z</time>
</trkpt>
<trkpt lat="59.5493133" lon="31.2056345">
<ele>48.200001</ele>
<time>2026-09-01T00:41:55.000Z</time>
</trkpt>
<trkpt lat="59.5493300" lon="31.2056426">
<ele>48.200001</ele>
<time>2026-09-01T00:41:56.000Z</time>
</trkpt>
<trkpt lat="59.5493483" lon="31.2056518">
<ele>48.200001</ele>
<time>2026-09-01T00:41:57.000Z</time>
</trkpt>
<trkpt lat="59.5493681" lon="31.2056450">
<ele>48.200001</ele>
<time>2026-09-01T00:41:58.000Z</time>
</trkpt>
<trkpt lat="59.5494022" lon="31.2056331">
<ele>48.200001</ele>
<time>2026-09-01T00:42:02.000Z</time>
</trkpt>
<trkpt lat="59.5494200" lon="31.2056346">
<ele>48.200001</ele>
<time>2026-09-01T00:42:03.000Z</time>
</trkpt>
<trkpt lat="59.5494420" lon="31.2056352">
<ele>48.200001</ele>
<time>2026-09-01T00:42:04.000Z</time>
</trkpt>
<trkpt lat="59.5494973" lon="31.2056155">
<ele>48.200001</ele>
<time>2026-09-01T00:42:10.000Z</time>
</trkpt>
<trkpt lat="59.5495088" lon="31.2056171">
<ele>48.200001</ele>
<time>2026-09-01T00:42:11.000Z</time>
</trkpt>
<trkpt lat="59.5495213" lon="31.2056201">
<ele>48.200001</ele>
<time>2026-09-01T00:42:12.000Z</time>
</trkpt>
<trkpt lat="59.5495951" lon="31.2056156">
<ele>50.130001</ele>
<time>2026-09-01T00:42:18.000Z</time>
</trkpt>
<trkpt lat="59.5496187" lon="31.2056153">
<ele>50.130001</ele>
<time>2026-09-01T00:42:19.000Z</time>
</trkpt>
<trkpt lat="59.5496349" lon="31.2056119">
<ele>50.130001</ele>
<time>2026-09-01T00:42:20.000Z</time>
</trkpt>
<trkpt lat="59.5496695" lon="31.2056211">
<ele>50.130001</ele>
<time>2026-09-01T00:42:24.000Z</time>
</trkpt>
<trkpt lat="59.5496840" lon="31.2056291">
<ele>50.130001</ele>
<time>2026-09-01T00:42:25.000Z</time>
</trkpt>
<trkpt lat="59.5496976" lon="31.2056398">
<ele>50.130001</ele>
<time>2026-09-01T00:42:26.000Z</time>
</trkpt>
<trkpt lat="59.5497495" lon="31.2056772">
<ele>50.130001</ele>
<time>2026-09-01T00:42:32.000Z</time>
</trkpt>
<trkpt lat="59.5497611" lon="31.2056984">
<ele>50.130001</ele>
<time>2026-09-01T00:42:33.000Z</time>
</trkpt>
<trkpt lat="59.5497704" lon="31.2057180">
<ele>50.130001</ele>
<time>2026-09-01T00:42:34.000Z</time>
</trkpt>
<trkpt lat="59.5497816" lon="31.2057315">
<ele>50.130001</ele>
<time>2026-09-01T00:42:35.000Z</time>
</trkpt>
<trkpt lat="59.5498179" lon="31.2057601">
<ele>50.130001</ele>
<time>2026-09-01T00:42:40.000Z</time>
</trkpt>
<trkpt lat="59.5498339" lon="31.2057730">
<ele>50.130001</ele>
<time>2026-09-01T00:42:41.000Z</time>
</trkpt>
<trkpt lat="59.5498484" lon="31.2057864">
<ele>50.130001</ele>
<time>2026-09-01T00:42:42.000Z</time>
</trkpt>
<trkpt lat="59.5498740" lon="31.2057982">
<ele>48.200001</ele>
<time>2026-09-01T00:42:44.000Z</time>
</trkpt>
<trkpt lat="59.5498968" lon="31.2058274">
<ele>48.200001</ele>
<time>2026-09-01T00:42:48.000Z</time>
</trkpt>
<trkpt lat="59.5499123" lon="31.2058449">
<ele>48.200001</ele>
<time>2026-09-01T00:42:49.000Z</time>
</trkpt>
<trkpt lat="59.5500272" lon="31.2058507">
<ele>48.200001</ele>
<time>2026-09-01T00:43:03.000Z</time>
</trkpt>
<trkpt lat="59.5501600" lon="31.2057876">
<ele>48.200001</ele>
<time>2026-09-01T00:43:13.000Z</time>
</trkpt>
<trkpt lat="59.5501865" lon="31.2057600">
<ele>48.200001</ele>
<time>2026-09-01T00:43:14.000Z</time>
</trkpt>
<trkpt lat="59.5502090" lon="31.2057441">
<ele>48.200001</ele>
<time>2026-09-01T00:43:15.000Z</time>
</trkpt>
<trkpt lat="59.5502248" lon="31.2057289">
<ele>48.200001</ele>
<time>2026-09-01T00:43:16.000Z</time>
</trkpt>
<trkpt lat="59.5502782" lon="31.2056975">
<ele>48.200001</ele>
<time>2026-09-01T00:43:20.000Z</time>
</trkpt>
<trkpt lat="59.5502936" lon="31.2056935">
<ele>48.200001</ele>
<time>2026-09-01T00:43:21.000Z</time>
</trkpt>
<trkpt lat="59.5503641" lon="31.2056644">
<ele>48.200001</ele>
<time>2026-09-01T00:43:27.000Z</time>
</trkpt>
<trkpt lat="59.5505275" lon="31.2055877">
<ele>47.719997</ele>
<time>2026-09-01T00:43:39.000Z</time>
</trkpt>
<trkpt lat="59.5505799" lon="31.2055485">
<ele>47.719997</ele>
<time>2026-09-01T00:43:42.000Z</time>
</trkpt>
<trkpt lat="59.5506028" lon="31.2055320">
<ele>47.719997</ele>
<time>2026-09-01T00:43:43.000Z</time>
</trkpt>
<trkpt lat="59.5506226" lon="31.2055194">
<ele>47.719997</ele>
<time>2026-09-01T00:43:44.000Z</time>
</trkpt>
<trkpt lat="59.5506447" lon="31.2055172">
<ele>47.719997</ele>
<time>2026-09-01T00:43:45.000Z</time>
</trkpt>
<trkpt lat="59.5506595" lon="31.2055145">
<ele>47.719997</ele>
<time>2026-09-01T00:43:46.000Z</time>
</trkpt>
<trkpt lat="59.5507094" lon="31.2054921">
<ele>47.719997</ele>
<time>2026-09-01T00:43:50.000Z</time>
</trkpt>
<trkpt lat="59.5507275" lon="31.2054807">
<ele>47.240002</ele>
<time>2026-09-01T00:43:51.000Z</time>
</trkpt>
<trkpt lat="59.5507497" lon="31.2054696">
<ele>47.240002</ele>
<time>2026-09-01T00:43:52.000Z</time>
</trkpt>
<trkpt lat="59.5508155" lon="31.2054495">
<ele>46.760002</ele>
<time>2026-09-01T00:43:58.000Z</time>
</trkpt>
<trkpt lat="59.5508337" lon="31.2054450">
<ele>46.760002</ele>
<time>2026-09-01T00:43:59.000Z</time>
</trkpt>
<trkpt lat="59.5508538" lon="31.2054417">
<ele>46.760002</ele>
<time>2026-09-01T00:44:00.000Z</time>
</trkpt>
<trkpt lat="59.5508704" lon="31.2054336">
<ele>46.279999</ele>
<time>2026-09-01T00:44:01.000Z</time>
</trkpt>
<trkpt lat="59.5509032" lon="31.2054217">
<ele>46.279999</ele>
<time>2026-09-01T00:44:05.000Z</time>
</trkpt>
<trkpt lat="59.5509145" lon="31.2054147">
<ele>46.279999</ele>
<time>2026-09-01T00:44:06.000Z</time>
</trkpt>
<trkpt lat="59.5509293" lon="31.2053970">
<ele>46.279999</ele>
<time>2026-09-01T00:44:07.000Z</time>
</trkpt>
<trkpt lat="59.5509483" lon="31.2053705">
<ele>46.279999</ele>
<time>2026-09-01T00:44:08.000Z</time>
</trkpt>
<trkpt lat="59.5509641" lon="31.2053586">
<ele>46.279999</ele>
<time>2026-09-01T00:44:09.000Z</time>
</trkpt>
<trkpt lat="59.5510130" lon="31.2053347">
<ele>45.320000</ele>
<time>2026-09-01T00:44:14.000Z</time>
</trkpt>
<trkpt lat="59.5510341" lon="31.2053219">
<ele>45.320000</ele>
<time>2026-09-01T00:44:15.000Z</time>
</trkpt>
<trkpt lat="59.5510513" lon="31.2053122">
<ele>45.320000</ele>
<time>2026-09-01T00:44:16.000Z</time>
</trkpt>
<trkpt lat="59.5511288" lon="31.2053042">
<ele>44.839996</ele>
<time>2026-09-01T00:44:22.000Z</time>
</trkpt>
<trkpt lat="59.5511471" lon="31.2053004">
<ele>44.839996</ele>
<time>2026-09-01T00:44:23.000Z</time>
</trkpt>
<trkpt lat="59.5511639" lon="31.2052943">
<ele>44.839996</ele>
<time>2026-09-01T00:44:24.000Z</time>
</trkpt>
<trkpt lat="59.5512386" lon="31.2052574">
<ele>43.880001</ele>
<time>2026-09-01T00:44:31.000Z</time>
</trkpt>
<trkpt lat="59.5512520" lon="31.2052464">
<ele>43.880001</ele>
<time>2026-09-01T00:44:32.000Z</time>
</trkpt>
<trkpt lat="59.5513406" lon="31.2051157">
<ele>43.400002</ele>
<time>2026-09-01T00:44:43.000Z</time>
</trkpt>
<trkpt lat="59.5513515" lon="31.2051016">
<ele>43.400002</ele>
<time>2026-09-01T00:44:44.000Z</time>
</trkpt>
<trkpt lat="59.5515398" lon="31.2049400">
<ele>41.469997</ele>
<time>2026-09-01T00:44:59.000Z</time>
</trkpt>
<trkpt lat="59.5515669" lon="31.2049170">
<ele>41.469997</ele>
<time>2026-09-01T00:45:01.000Z</time>
</trkpt>
<trkpt lat="59.5517582" lon="31.2048058">
<ele>40.990002</ele>
<time>2026-09-01T00:45:15.000Z</time>
</trkpt>
<trkpt lat="59.5518537" lon="31.2047613">
<ele>40.990002</ele>
<time>2026-09-01T00:45:26.000Z</time>
</trkpt>
<trkpt lat="59.5519166" lon="31.2047546">
<ele>40.990002</ele>
<time>2026-09-01T00:45:30.000Z</time>
</trkpt>
<trkpt lat="59.5519524" lon="31.2047241">
<ele>40.990002</ele>
<time>2026-09-01T00:45:34.000Z</time>
</trkpt>
<trkpt lat="59.5519634" lon="31.2047086">
<ele>40.990002</ele>
<time>2026-09-01T00:45:35.000Z</time>
</trkpt>
<trkpt lat="59.5519819" lon="31.2047073">
<ele>40.990002</ele>
<time>2026-09-01T00:45:38.000Z</time>
</trkpt>
<trkpt lat="59.5520035" lon="31.2047088">
<ele>40.990002</ele>
<time>2026-09-01T00:45:40.000Z</time>
</trkpt>
<trkpt lat="59.5520417" lon="31.2047343">
<ele>42.439999</ele>
<time>2026-09-01T00:45:42.000Z</time>
</trkpt>
<trkpt lat="59.5521591" lon="31.2047605">
<ele>42.439999</ele>
<time>2026-09-01T00:45:54.000Z</time>
</trkpt>
<trkpt lat="59.5521739" lon="31.2047767">
<ele>42.439999</ele>
<time>2026-09-01T00:45:55.000Z</time>
</trkpt>
<trkpt lat="59.5521894" lon="31.2048007">
<ele>42.439999</ele>
<time>2026-09-01T00:45:56.000Z</time>
</trkpt>
<trkpt lat="59.5522034" lon="31.2048195">
<ele>42.439999</ele>
<time>2026-09-01T00:45:57.000Z</time>
</trkpt>
<trkpt lat="59.5522187" lon="31.2048346">
<ele>42.439999</ele>
<time>2026-09-01T00:45:58.000Z</time>
</trkpt>
<trkpt lat="59.5522803" lon="31.2048669">
<ele>42.439999</ele>
<time>2026-09-01T00:46:03.000Z</time>
</trkpt>
<trkpt lat="59.5523157" lon="31.2048867">
<ele>42.439999</ele>
<time>2026-09-01T00:46:05.000Z</time>
</trkpt>
<trkpt lat="59.5523901" lon="31.2049359">
<ele>42.439999</ele>
<time>2026-09-01T00:46:11.000Z</time>
</trkpt>
<trkpt lat="59.5524124" lon="31.2049583">
<ele>42.439999</ele>
<time>2026-09-01T00:46:13.000Z</time>
</trkpt>
<trkpt lat="59.5524758" lon="31.2049797">
<ele>42.439999</ele>
<time>2026-09-01T00:46:19.000Z</time>
</trkpt>
<trkpt lat="59.5524899" lon="31.2049896">
<ele>42.439999</ele>
<time>2026-09-01T00:46:20.000Z</time>
</trkpt>
<trkpt lat="59.5525071" lon="31.2050039">
<ele>42.439999</ele>
<time>2026-09-01T00:46:21.000Z</time>
</trkpt>
<trkpt lat="59.5526486" lon="31.2050873">
<ele>42.439999</ele>
<time>2026-09-01T00:46:33.000Z</time>
</trkpt>
<trkpt lat="59.5526599" lon="31.2050944">
<ele>40.990002</ele>
<time>2026-09-01T00:46:34.000Z</time>
</trkpt>
<trkpt lat="59.5526740" lon="31.2051008">
<ele>40.990002</ele>
<time>2026-09-01T00:46:35.000Z</time>
</trkpt>
<trkpt lat="59.5528128" lon="31.2051853">
<ele>40.990002</ele>
<time>2026-09-01T00:46:47.000Z</time>
</trkpt>
<trkpt lat="59.5528327" lon="31.2051940">
<ele>40.990002</ele>
<time>2026-09-01T00:46:48.000Z</time>
</trkpt>
<trkpt lat="59.5528556" lon="31.2052058">
<ele>40.990002</ele>
<time>2026-09-01T00:46:49.000Z</time>
</trkpt>
<trkpt lat="59.5528808" lon="31.2052175">
<ele>40.990002</ele>
<time>2026-09-01T00:46:50.000Z</time>
</trkpt>
<trkpt lat="59.5529019" lon="31.2052280">
<ele>40.990002</ele>
<time>2026-09-01T00:46:51.000Z</time>
</trkpt>
<trkpt lat="59.5529328" lon="31.2052520">
<ele>40.990002</ele>
<time>2026-09-01T00:46:52.000Z</time>
</trkpt>
<trkpt lat="59.5530117" lon="31.2053163">
<ele>40.990002</ele>
<time>2026-09-01T00:46:57.000Z</time>
</trkpt>
<trkpt lat="59.5530282" lon="31.2053394">
<ele>40.990002</ele>
<time>2026-09-01T00:46:58.000Z</time>
</trkpt>
<trkpt lat="59.5530407" lon="31.2053544">
<ele>40.990002</ele>
<time>2026-09-01T00:46:59.000Z</time>
</trkpt>
<trkpt lat="59.5531065" lon="31.2053942">
<ele>40.990002</ele>
<time>2026-09-01T00:47:08.000Z</time>
</trkpt>
<trkpt lat="59.5531506" lon="31.2054287">
<ele>40.990002</ele>
<time>2026-09-01T00:47:14.000Z</time>
</trkpt>
<trkpt lat="59.5531626" lon="31.2054448">
<ele>40.990002</ele>
<time>2026-09-01T00:47:15.000Z</time>
</trkpt>
<trkpt lat="59.5532106" lon="31.2054717">
<ele>40.990002</ele>
<time>2026-09-01T00:47:27.000Z</time>
</trkpt>
<trkpt lat="59.5532324" lon="31.2055003">
<ele>40.990002</ele>
<time>2026-09-01T00:47:29.000Z</time>
</trkpt>
<trkpt lat="59.5532617" lon="31.2055271">
<ele>40.990002</ele>
<time>2026-09-01T00:47:31.000Z</time>
</trkpt>
<trkpt lat="59.5533111" lon="31.2055451">
<ele>40.990002</ele>
<time>2026-09-01T00:47:35.000Z</time>
</trkpt>
<trkpt lat="59.5533268" lon="31.2055551">
<ele>40.990002</ele>
<time>2026-09-01T00:47:36.000Z</time>
</trkpt>
<trkpt lat="59.5534594" lon="31.2056854">
<ele>40.990002</ele>
<time>2026-09-01T00:47:48.000Z</time>
</trkpt>
<trkpt lat="59.5535142" lon="31.2057323">
<ele>40.990002</ele>
<time>2026-09-01T00:47:51.000Z</time>
</trkpt>
<trkpt lat="59.5535334" lon="31.2057571">
<ele>40.990002</ele>
<time>2026-09-01T00:47:52.000Z</time>
</trkpt>
<trkpt lat="59.5535703" lon="31.2058020">
<ele>40.510002</ele>
<time>2026-09-01T00:47:55.000Z</time>
</trkpt>
<trkpt lat="59.5535885" lon="31.2058240">
<ele>40.510002</ele>
<time>2026-09-01T00:47:56.000Z</time>
</trkpt>
<trkpt lat="59.5536065" lon="31.2058358">
<ele>40.510002</ele>
<time>2026-09-01T00:47:57.000Z</time>
</trkpt>
<trkpt lat="59.5536409" lon="31.2058497">
<ele>40.510002</ele>
<time>2026-09-01T00:48:01.000Z</time>
</trkpt>
<trkpt lat="59.5537128" lon="31.2059065">
<ele>40.510002</ele>
<time>2026-09-01T00:48:11.000Z</time>
</trkpt>
<trkpt lat="59.5537227" lon="31.2059210">
<ele>40.510002</ele>
<time>2026-09-01T00:48:12.000Z</time>
</trkpt>
<trkpt lat="59.5537333" lon="31.2059416">
<ele>40.510002</ele>
<time>2026-09-01T00:48:13.000Z</time>
</trkpt>
<trkpt lat="59.5537737" lon="31.2059377">
<ele>41.950001</ele>
<time>2026-09-01T00:48:17.000Z</time>
</trkpt>
<trkpt lat="59.5538540" lon="31.2059622">
<ele>40.990002</ele>
<time>2026-09-01T00:48:25.000Z</time>
</trkpt>
<trkpt lat="59.5539078" lon="31.2059892">
<ele>40.990002</ele>
<time>2026-09-01T00:48:32.000Z</time>
</trkpt>
<trkpt lat="59.5540117" lon="31.2060769">
<ele>40.990002</ele>
<time>2026-09-01T00:48:37.000Z</time>
</trkpt>
<trkpt lat="59.5540254" lon="31.2060978">
<ele>40.990002</ele>
<time>2026-09-01T00:48:38.000Z</time>
</trkpt>
<trkpt lat="59.5540799" lon="31.2061602">
<ele>40.990002</ele>
<time>2026-09-01T00:48:44.000Z</time>
</trkpt>
<trkpt lat="59.5541932" lon="31.2062423">
<ele>40.990002</ele>
<time>2026-09-01T00:48:57.000Z</time>
</trkpt>
<trkpt lat="59.5542087" lon="31.2062529">
<ele>41.950001</ele>
<time>2026-09-01T00:48:59.000Z</time>
</trkpt>
<trkpt lat="59.5542288" lon="31.2062779">
<ele>41.950001</ele>
<time>2026-09-01T00:49:13.000Z</time>
</trkpt>
<trkpt lat="59.5542340" lon="31.2062815">
<ele>40.510002</ele>
<time>2026-09-01T00:49:15.000Z</time>
</trkpt>
<trkpt lat="59.5542627" lon="31.2062817">
<ele>40.510002</ele>
<time>2026-09-01T00:49:19.000Z</time>
</trkpt>
<trkpt lat="59.5543160" lon="31.2063090">
<ele>41.950001</ele>
<time>2026-09-01T00:49:25.000Z</time>
</trkpt>
<trkpt lat="59.5543884" lon="31.2063551">
<ele>41.950001</ele>
<time>2026-09-01T00:49:32.000Z</time>
</trkpt>
<trkpt lat="59.5544657" lon="31.2064112">
<ele>41.950001</ele>
<time>2026-09-01T00:49:43.000Z</time>
</trkpt>
<trkpt lat="59.5545429" lon="31.2065020">
<ele>41.950001</ele>
<time>2026-09-01T00:49:51.000Z</time>
</trkpt>
<trkpt lat="59.5546076" lon="31.2065595">
<ele>41.950001</ele>
<time>2026-09-01T00:50:01.000Z</time>
</trkpt>
<trkpt lat="59.5546336" lon="31.2065659">
<ele>41.950001</ele>
<time>2026-09-01T00:50:03.000Z</time>
</trkpt>
<trkpt lat="59.5546455" lon="31.2065673">
<ele>41.950001</ele>
<time>2026-09-01T00:50:04.000Z</time>
</trkpt>
<trkpt lat="59.5547073" lon="31.2066696">
<ele>41.950001</ele>
<time>2026-09-01T00:50:15.000Z</time>
</trkpt>
<trkpt lat="59.5548188" lon="31.2067451">
<ele>41.950001</ele>
<time>2026-09-01T00:50:26.000Z</time>
</trkpt>
<trkpt lat="59.5548469" lon="31.2067610">
<ele>41.950001</ele>
<time>2026-09-01T00:50:28.000Z</time>
</trkpt>
<trkpt lat="59.5548953" lon="31.2068112">
<ele>41.950001</ele>
<time>2026-09-01T00:50:32.000Z</time>
</trkpt>
<trkpt lat="59.5550625" lon="31.2069005">
<ele>41.950001</ele>
<time>2026-09-01T00:50:43.000Z</time>
</trkpt>
<trkpt lat="59.5551455" lon="31.2069735">
<ele>41.950001</ele>
<time>2026-09-01T00:50:51.000Z</time>
</trkpt>
<trkpt lat="59.5552605" lon="31.2069681">
<ele>41.950001</ele>
<time>2026-09-01T00:51:04.000Z</time>
</trkpt>
<trkpt lat="59.5553603" lon="31.2069685">
<ele>41.950001</ele>
<time>2026-09-01T00:51:17.000Z</time>
</trkpt>
<trkpt lat="59.5554264" lon="31.2070503">
<ele>41.950001</ele>
<time>2026-09-01T00:51:30.000Z</time>
</trkpt>
<trkpt lat="59.5554966" lon="31.2070514">
<ele>41.950001</ele>
<time>2026-09-01T00:51:42.000Z</time>
</trkpt>
<trkpt lat="59.5555336" lon="31.2070385">
<ele>41.950001</ele>
<time>2026-09-01T00:51:45.000Z</time>
</trkpt>
<trkpt lat="59.5555961" lon="31.2070314">
<ele>41.950001</ele>
<time>2026-09-01T00:51:50.000Z</time>
</trkpt>
<trkpt lat="59.5557312" lon="31.2071060">
<ele>41.950001</ele>
<time>2026-09-01T00:51:56.000Z</time>
</trkpt>
<trkpt lat="59.5558024" lon="31.2071024">
<ele>41.950001</ele>
<time>2026-09-01T00:52:00.000Z</time>
</trkpt>
<trkpt lat="59.5559159" lon="31.2071146">
<ele>42.439999</ele>
<time>2026-09-01T00:52:10.000Z</time>
</trkpt>
<trkpt lat="59.5559435" lon="31.2071300">
<ele>42.439999</ele>
<time>2026-09-01T00:52:11.000Z</time>
</trkpt>
<trkpt lat="59.5560063" lon="31.2071397">
<ele>42.439999</ele>
<time>2026-09-01T00:52:17.000Z</time>
</trkpt>
<trkpt lat="59.5560231" lon="31.2071329">
<ele>42.439999</ele>
<time>2026-09-01T00:52:18.000Z</time>
</trkpt>
<trkpt lat="59.5560409" lon="31.2071270">
<ele>42.439999</ele>
<time>2026-09-01T00:52:19.000Z</time>
</trkpt>
<trkpt lat="59.5560546" lon="31.2071260">
<ele>42.439999</ele>
<time>2026-09-01T00:52:20.000Z</time>
</trkpt>
<trkpt lat="59.5560705" lon="31.2071236">
<ele>42.439999</ele>
<time>2026-09-01T00:52:21.000Z</time>
</trkpt>
<trkpt lat="59.5560844" lon="31.2071255">
<ele>42.439999</ele>
<time>2026-09-01T00:52:22.000Z</time>
</trkpt>
<trkpt lat="59.5560982" lon="31.2071275">
<ele>42.439999</ele>
<time>2026-09-01T00:52:23.000Z</time>
</trkpt>
<trkpt lat="59.5561200" lon="31.2071164">
<ele>42.439999</ele>
<time>2026-09-01T00:52:28.000Z</time>
</trkpt>
<trkpt lat="59.5561373" lon="31.2071311">
<ele>42.439999</ele>
<time>2026-09-01T00:52:29.000Z</time>
</trkpt>
<trkpt lat="59.5561590" lon="31.2071390">
<ele>42.439999</ele>
<time>2026-09-01T00:52:30.000Z</time>
</trkpt>
<trkpt lat="59.5561758" lon="31.2071361">
<ele>42.439999</ele>
<time>2026-09-01T00:52:31.000Z</time>
</trkpt>
<trkpt lat="59.5563140" lon="31.2071540">
<ele>41.469997</ele>
<time>2026-09-01T00:52:41.000Z</time>
</trkpt>
<trkpt lat="59.5563290" lon="31.2071586">
<ele>41.469997</ele>
<time>2026-09-01T00:52:42.000Z</time>
</trkpt>
<trkpt lat="59.5563382" lon="31.2071640">
<ele>41.469997</ele>
<time>2026-09-01T00:52:43.000Z</time>
</trkpt>
<trkpt lat="59.5563589" lon="31.2071745">
<ele>42.439999</ele>
<time>2026-09-01T00:52:44.000Z</time>
</trkpt>
<trkpt lat="59.5564505" lon="31.2072327">
<ele>42.439999</ele>
<time>2026-09-01T00:52:52.000Z</time>
</trkpt>
<trkpt lat="59.5565484" lon="31.2072813">
<ele>41.469997</ele>
<time>2026-09-01T00:52:59.000Z</time>
</trkpt>
<trkpt lat="59.5565878" lon="31.2072938">
<ele>41.469997</ele>
<time>2026-09-01T00:53:01.000Z</time>
</trkpt>
<trkpt lat="59.5566113" lon="31.2073049">
<ele>40.990002</ele>
<time>2026-09-01T00:53:02.000Z</time>
</trkpt>
<trkpt lat="59.5566342" lon="31.2073135">
<ele>40.990002</ele>
<time>2026-09-01T00:53:03.000Z</time>
</trkpt>
<trkpt lat="59.5567015" lon="31.2072817">
<ele>40.990002</ele>
<time>2026-09-01T00:53:09.000Z</time>
</trkpt>
<trkpt lat="59.5567173" lon="31.2072733">
<ele>40.990002</ele>
<time>2026-09-01T00:53:10.000Z</time>
</trkpt>
<trkpt lat="59.5567312" lon="31.2072619">
<ele>40.990002</ele>
<time>2026-09-01T00:53:11.000Z</time>
</trkpt>
<trkpt lat="59.5568203" lon="31.2072651">
<ele>40.990002</ele>
<time>2026-09-01T00:53:18.000Z</time>
</trkpt>
<trkpt lat="59.5568612" lon="31.2072389">
<ele>40.990002</ele>
<time>2026-09-01T00:53:22.000Z</time>
</trkpt>
<trkpt lat="59.5568744" lon="31.2072260">
<ele>40.990002</ele>
<time>2026-09-01T00:53:23.000Z</time>
</trkpt>
<trkpt lat="59.5569579" lon="31.2071538">
<ele>40.510002</ele>
<time>2026-09-01T00:53:32.000Z</time>
</trkpt>
<trkpt lat="59.5569709" lon="31.2071405">
<ele>40.510002</ele>
<time>2026-09-01T00:53:33.000Z</time>
</trkpt>
<trkpt lat="59.5569988" lon="31.2071202">
<ele>40.510002</ele>
<time>2026-09-01T00:53:37.000Z</time>
</trkpt>
<trkpt lat="59.5570123" lon="31.2071154">
<ele>40.510002</ele>
<time>2026-09-01T00:53:38.000Z</time>
</trkpt>
<trkpt lat="59.5570898" lon="31.2070981">
<ele>40.510002</ele>
<time>2026-09-01T00:53:44.000Z</time>
</trkpt>
<trkpt lat="59.5571221" lon="31.2070799">
<ele>40.510002</ele>
<time>2026-09-01T00:53:47.000Z</time>
</trkpt>
<trkpt lat="59.5571349" lon="31.2070647">
<ele>40.510002</ele>
<time>2026-09-01T00:53:48.000Z</time>
</trkpt>
<trkpt lat="59.5571580" lon="31.2070584">
<ele>40.510002</ele>
<time>2026-09-01T00:53:49.000Z</time>
</trkpt>
<trkpt lat="59.5571813" lon="31.2070532">
<ele>41.950001</ele>
<time>2026-09-01T00:53:50.000Z</time>
</trkpt>
<trkpt lat="59.5571966" lon="31.2070497">
<ele>41.950001</ele>
<time>2026-09-01T00:53:51.000Z</time>
</trkpt>
<trkpt lat="59.5572049" lon="31.2070451">
<ele>40.510002</ele>
<time>2026-09-01T00:53:53.000Z</time>
</trkpt>
<trkpt lat="59.5572217" lon="31.2070413">
<ele>40.510002</ele>
<time>2026-09-01T00:53:54.000Z</time>
</trkpt>
<trkpt lat="59.5572814" lon="31.2070551">
<ele>40.510002</ele>
<time>2026-09-01T00:54:00.000Z</time>
</trkpt>
<trkpt lat="59.5572982" lon="31.2070580">
<ele>40.510002</ele>
<time>2026-09-01T00:54:01.000Z</time>
</trkpt>
<trkpt lat="59.5573954" lon="31.2070867">
<ele>40.510002</ele>
<time>2026-09-01T00:54:11.000Z</time>
</trkpt>
<trkpt lat="59.5574432" lon="31.2071056">
<ele>40.510002</ele>
<time>2026-09-01T00:54:18.000Z</time>
</trkpt>
<trkpt lat="59.5574592" lon="31.2071002">
<ele>40.510002</ele>
<time>2026-09-01T00:54:19.000Z</time>
</trkpt>
<trkpt lat="59.5575290" lon="31.2070805">
<ele>40.510002</ele>
<time>2026-09-01T00:54:24.000Z</time>
</trkpt>
<trkpt lat="59.5576369" lon="31.2070984">
<ele>40.510002</ele>
<time>2026-09-01T00:54:31.000Z</time>
</trkpt>
<trkpt lat="59.5576578" lon="31.2071105">
<ele>40.510002</ele>
<time>2026-09-01T00:54:34.000Z</time>
</trkpt>
<trkpt lat="59.5576799" lon="31.2071272">
<ele>40.510002</ele>
<time>2026-09-01T00:54:35.000Z</time>
</trkpt>
<trkpt lat="59.5577412" lon="31.2071623">
<ele>40.510002</ele>
<time>2026-09-01T00:54:40.000Z</time>
</trkpt>
<trkpt lat="59.5577692" lon="31.2071906">
<ele>40.510002</ele>
<time>2026-09-01T00:54:41.000Z</time>
</trkpt>
<trkpt lat="59.5577899" lon="31.2072100">
<ele>40.510002</ele>
<time>2026-09-01T00:54:42.000Z</time>
</trkpt>
<trkpt lat="59.5578232" lon="31.2072538">
<ele>40.510002</ele>
<time>2026-09-01T00:54:47.000Z</time>
</trkpt>
<trkpt lat="59.5578447" lon="31.2072765">
<ele>40.510002</ele>
<time>2026-09-01T00:54:48.000Z</time>
</trkpt>
<trkpt lat="59.5578655" lon="31.2073061">
<ele>41.950001</ele>
<time>2026-09-01T00:54:49.000Z</time>
</trkpt>
<trkpt lat="59.5578850" lon="31.2073283">
<ele>41.950001</ele>
<time>2026-09-01T00:54:50.000Z</time>
</trkpt>
<trkpt lat="59.5579744" lon="31.2074487">
<ele>41.950001</ele>
<time>2026-09-01T00:54:59.000Z</time>
</trkpt>
<trkpt lat="59.5579843" lon="31.2074653">
<ele>41.950001</ele>
<time>2026-09-01T00:55:00.000Z</time>
</trkpt>
<trkpt lat="59.5580166" lon="31.2075113">
<ele>41.950001</ele>
<time>2026-09-01T00:55:03.000Z</time>
</trkpt>
<trkpt lat="59.5580421" lon="31.2075426">
<ele>41.950001</ele>
<time>2026-09-01T00:55:05.000Z</time>
</trkpt>
<trkpt lat="59.5581140" lon="31.2076298">
<ele>41.950001</ele>
<time>2026-09-01T00:55:12.000Z</time>
</trkpt>
<trkpt lat="59.5581269" lon="31.2076575">
<ele>41.950001</ele>
<time>2026-09-01T00:55:13.000Z</time>
</trkpt>
<trkpt lat="59.5581401" lon="31.2076844">
<ele>41.950001</ele>
<time>2026-09-01T00:55:14.000Z</time>
</trkpt>
<trkpt lat="59.5581529" lon="31.2076969">
<ele>41.950001</ele>
<time>2026-09-01T00:55:15.000Z</time>
</trkpt>
<trkpt lat="59.5581939" lon="31.2077317">
<ele>41.950001</ele>
<time>2026-09-01T00:55:19.000Z</time>
</trkpt>
<trkpt lat="59.5582087" lon="31.2077522">
<ele>41.950001</ele>
<time>2026-09-01T00:55:20.000Z</time>
</trkpt>
<trkpt lat="59.5582218" lon="31.2077633">
<ele>42.439999</ele>
<time>2026-09-01T00:55:23.000Z</time>
</trkpt>
<trkpt lat="59.5582321" lon="31.2077860">
<ele>42.439999</ele>
<time>2026-09-01T00:55:24.000Z</time>
</trkpt>
<trkpt lat="59.5582490" lon="31.2078113">
<ele>42.439999</ele>
<time>2026-09-01T00:55:25.000Z</time>
</trkpt>
<trkpt lat="59.5582677" lon="31.2078340">
<ele>42.439999</ele>
<time>2026-09-01T00:55:26.000Z</time>
</trkpt>
<trkpt lat="59.5583651" lon="31.2079816">
<ele>43.400002</ele>
<time>2026-09-01T00:55:36.000Z</time>
</trkpt>
<trkpt lat="59.5583769" lon="31.2080161">
<ele>43.400002</ele>
<time>2026-09-01T00:55:37.000Z</time>
</trkpt>
<trkpt lat="59.5584107" lon="31.2080709">
<ele>43.400002</ele>
<time>2026-09-01T00:55:41.000Z</time>
</trkpt>
<trkpt lat="59.5584252" lon="31.2080910">
<ele>43.400002</ele>
<time>2026-09-01T00:55:42.000Z</time>
</trkpt>
<trkpt lat="59.5585090" lon="31.2081798">
<ele>43.880001</ele>
<time>2026-09-01T00:55:48.000Z</time>
</trkpt>
<trkpt lat="59.5585193" lon="31.2081913">
<ele>43.880001</ele>
<time>2026-09-01T00:55:49.000Z</time>
</trkpt>
<trkpt lat="59.5586126" lon="31.2082621">
<ele>44.360001</ele>
<time>2026-09-01T00:56:01.000Z</time>
</trkpt>
<trkpt lat="59.5586987" lon="31.2083574">
<ele>44.360001</ele>
<time>2026-09-01T00:56:10.000Z</time>
</trkpt>
<trkpt lat="59.5587207" lon="31.2083739">
<ele>44.360001</ele>
<time>2026-09-01T00:56:11.000Z</time>
</trkpt>
<trkpt lat="59.5587389" lon="31.2083868">
<ele>44.360001</ele>
<time>2026-09-01T00:56:12.000Z</time>
</trkpt>
<trkpt lat="59.5587836" lon="31.2084074">
<ele>44.360001</ele>
<time>2026-09-01T00:56:16.000Z</time>
</trkpt>
<trkpt lat="59.5588005" lon="31.2084146">
<ele>44.360001</ele>
<time>2026-09-01T00:56:17.000Z</time>
</trkpt>
<trkpt lat="59.5588159" lon="31.2084169">
<ele>44.360001</ele>
<time>2026-09-01T00:56:18.000Z</time>
</trkpt>
<trkpt lat="59.5588556" lon="31.2084371">
<ele>44.360001</ele>
<time>2026-09-01T00:56:22.000Z</time>
</trkpt>
<trkpt lat="59.5588709" lon="31.2084480">
<ele>45.320000</ele>
<time>2026-09-01T00:56:23.000Z</time>
</trkpt>
<trkpt lat="59.5588855" lon="31.2084556">
<ele>45.320000</ele>
<time>2026-09-01T00:56:24.000Z</time>
</trkpt>
<trkpt lat="59.5589069" lon="31.2084667">
<ele>45.320000</ele>
<time>2026-09-01T00:56:26.000Z</time>
</trkpt>
<trkpt lat="59.5589224" lon="31.2084714">
<ele>45.320000</ele>
<time>2026-09-01T00:56:27.000Z</time>
</trkpt>
<trkpt lat="59.5590470" lon="31.2085715">
<ele>45.799999</ele>
<time>2026-09-01T00:56:37.000Z</time>
</trkpt>
<trkpt lat="59.5590605" lon="31.2085785">
<ele>45.799999</ele>
<time>2026-09-01T00:56:38.000Z</time>
</trkpt>
<trkpt lat="59.5590784" lon="31.2085877">
<ele>45.799999</ele>
<time>2026-09-01T00:56:39.000Z</time>
</trkpt>
<trkpt lat="59.5590923" lon="31.2085927">
<ele>45.799999</ele>
<time>2026-09-01T00:56:40.000Z</time>
</trkpt>
<trkpt lat="59.5591190" lon="31.2085836">
<ele>45.799999</ele>
<time>2026-09-01T00:56:43.000Z</time>
</trkpt>
<trkpt lat="59.5591361" lon="31.2085921">
<ele>45.799999</ele>
<time>2026-09-01T00:56:44.000Z</time>
</trkpt>
<trkpt lat="59.5591539" lon="31.2085948">
<ele>46.279999</ele>
<time>2026-09-01T00:56:45.000Z</time>
</trkpt>
<trkpt lat="59.5592143" lon="31.2086195">
<ele>46.279999</ele>
<time>2026-09-01T00:56:50.000Z</time>
</trkpt>
<trkpt lat="59.5592712" lon="31.2085850">
<ele>46.279999</ele>
<time>2026-09-01T00:56:55.000Z</time>
</trkpt>
<trkpt lat="59.5593568" lon="31.2085751">
<ele>46.760002</ele>
<time>2026-09-01T00:57:07.000Z</time>
</trkpt>
<trkpt lat="59.5593773" lon="31.2085860">
<ele>46.760002</ele>
<time>2026-09-01T00:57:08.000Z</time>
</trkpt>
<trkpt lat="59.5594216" lon="31.2085850">
<ele>46.760002</ele>
<time>2026-09-01T00:57:12.000Z</time>
</trkpt>
<trkpt lat="59.5594436" lon="31.2085893">
<ele>46.760002</ele>
<time>2026-09-01T00:57:13.000Z</time>
</trkpt>
<trkpt lat="59.5594670" lon="31.2086023">
<ele>47.240002</ele>
<time>2026-09-01T00:57:14.000Z</time>
</trkpt>
<trkpt lat="59.5595082" lon="31.2086189">
<ele>47.240002</ele>
<time>2026-09-01T00:57:17.000Z</time>
</trkpt>
<trkpt lat="59.5595234" lon="31.2086224">
<ele>47.240002</ele>
<time>2026-09-01T00:57:18.000Z</time>
</trkpt>
<trkpt lat="59.5595436" lon="31.2086270">
<ele>47.240002</ele>
<time>2026-09-01T00:57:19.000Z</time>
</trkpt>
<trkpt lat="59.5595901" lon="31.2086453">
<ele>47.240002</ele>
<time>2026-09-01T00:57:24.000Z</time>
</trkpt>
<trkpt lat="59.5596403" lon="31.2086895">
<ele>47.240002</ele>
<time>2026-09-01T00:57:28.000Z</time>
</trkpt>
<trkpt lat="59.5596558" lon="31.2086972">
<ele>47.240002</ele>
<time>2026-09-01T00:57:29.000Z</time>
</trkpt>
<trkpt lat="59.5596789" lon="31.2086961">
<ele>47.719997</ele>
<time>2026-09-01T00:57:30.000Z</time>
</trkpt>
<trkpt lat="59.5597023" lon="31.2086826">
<ele>47.719997</ele>
<time>2026-09-01T00:57:31.000Z</time>
</trkpt>
<trkpt lat="59.5597531" lon="31.2086588">
<ele>47.719997</ele>
<time>2026-09-01T00:57:35.000Z</time>
</trkpt>
<trkpt lat="59.5598712" lon="31.2086644">
<ele>46.279999</ele>
<time>2026-09-01T00:57:45.000Z</time>
</trkpt>
<trkpt lat="59.5598955" lon="31.2086697">
<ele>46.279999</ele>
<time>2026-09-01T00:57:47.000Z</time>
</trkpt>
<trkpt lat="59.5599661" lon="31.2086741">
<ele>46.279999</ele>
<time>2026-09-01T00:57:52.000Z</time>
</trkpt>
<trkpt lat="59.5599981" lon="31.2086754">
<ele>46.279999</ele>
<time>2026-09-01T00:57:54.000Z</time>
</trkpt>
<trkpt lat="59.5601277" lon="31.2086866">
<ele>46.279999</ele>
<time>2026-09-01T00:58:04.000Z</time>
</trkpt>
<trkpt lat="59.5601708" lon="31.2086982">
<ele>46.279999</ele>
<time>2026-09-01T00:58:07.000Z</time>
</trkpt>
<trkpt lat="59.5601842" lon="31.2086984">
<ele>46.279999</ele>
<time>2026-09-01T00:58:08.000Z</time>
</trkpt>
<trkpt lat="59.5603145" lon="31.2086751">
<ele>47.719997</ele>
<time>2026-09-01T00:58:19.000Z</time>
</trkpt>
<trkpt lat="59.5603273" lon="31.2086792">
<ele>47.719997</ele>
<time>2026-09-01T00:58:20.000Z</time>
</trkpt>
<trkpt lat="59.5604788" lon="31.2087179">
<ele>46.760002</ele>
<time>2026-09-01T00:58:32.000Z</time>
</trkpt>
<trkpt lat="59.5604944" lon="31.2087192">
<ele>46.760002</ele>
<time>2026-09-01T00:58:33.000Z</time>
</trkpt>
<trkpt lat="59.5605360" lon="31.2087144">
<ele>48.200001</ele>
<time>2026-09-01T00:58:37.000Z</time>
</trkpt>
<trkpt lat="59.5605534" lon="31.2087192">
<ele>48.200001</ele>
<time>2026-09-01T00:58:38.000Z</time>
</trkpt>
<trkpt lat="59.5605763" lon="31.2087278">
<ele>48.200001</ele>
<time>2026-09-01T00:58:39.000Z</time>
</trkpt>
<trkpt lat="59.5606124" lon="31.2087189">
<ele>48.200001</ele>
<time>2026-09-01T00:58:43.000Z</time>
</trkpt>
<trkpt lat="59.5606270" lon="31.2087159">
<ele>48.200001</ele>
<time>2026-09-01T00:58:44.000Z</time>
</trkpt>
<trkpt lat="59.5606466" lon="31.2087087">
<ele>48.200001</ele>
<time>2026-09-01T00:58:45.000Z</time>
</trkpt>
<trkpt lat="59.5606647" lon="31.2087026">
<ele>48.200001</ele>
<time>2026-09-01T00:58:46.000Z</time>
</trkpt>
<trkpt lat="59.5607600" lon="31.2086729">
<ele>48.200001</ele>
<time>2026-09-01T00:58:55.000Z</time>
</trkpt>
<trkpt lat="59.5608086" lon="31.2086681">
<ele>48.200001</ele>
<time>2026-09-01T00:58:58.000Z</time>
</trkpt>
<trkpt lat="59.5608286" lon="31.2086665">
<ele>48.200001</ele>
<time>2026-09-01T00:58:59.000Z</time>
</trkpt>
<trkpt lat="59.5608772" lon="31.2086635">
<ele>48.200001</ele>
<time>2026-09-01T00:59:03.000Z</time>
</trkpt>
<trkpt lat="59.5608992" lon="31.2086691">
<ele>48.200001</ele>
<time>2026-09-01T00:59:04.000Z</time>
</trkpt>
<trkpt lat="59.5609722" lon="31.2086712">
<ele>48.200001</ele>
<time>2026-09-01T00:59:11.000Z</time>
</trkpt>
<trkpt lat="59.5609898" lon="31.2086722">
<ele>48.200001</ele>
<time>2026-09-01T00:59:12.000Z</time>
</trkpt>
<trkpt lat="59.5610233" lon="31.2086693">
<ele>48.200001</ele>
<time>2026-09-01T00:59:15.000Z</time>
</trkpt>
<trkpt lat="59.5610410" lon="31.2086721">
<ele>48.200001</ele>
<time>2026-09-01T00:59:16.000Z</time>
</trkpt>
<trkpt lat="59.5610616" lon="31.2086813">
<ele>48.200001</ele>
<time>2026-09-01T00:59:17.000Z</time>
</trkpt>
<trkpt lat="59.5612113" lon="31.2087013">
<ele>48.200001</ele>
<time>2026-09-01T00:59:27.000Z</time>
</trkpt>
<trkpt lat="59.5612621" lon="31.2087132">
<ele>48.200001</ele>
<time>2026-09-01T00:59:30.000Z</time>
</trkpt>
<trkpt lat="59.5612763" lon="31.2087121">
<ele>48.200001</ele>
<time>2026-09-01T00:59:31.000Z</time>
</trkpt>
<trkpt lat="59.5613397" lon="31.2086965">
<ele>48.200001</ele>
<time>2026-09-01T00:59:36.000Z</time>
</trkpt>
<trkpt lat="59.5613565" lon="31.2086968">
<ele>48.200001</ele>
<time>2026-09-01T00:59:37.000Z</time>
</trkpt>
<trkpt lat="59.5613734" lon="31.2086994">
<ele>48.200001</ele>
<time>2026-09-01T00:59:38.000Z</time>
</trkpt>
<trkpt lat="59.5613898" lon="31.2087009">
<ele>48.200001</ele>
<time>2026-09-01T00:59:39.000Z</time>
</trkpt>
<trkpt lat="59.5614354" lon="31.2087028">
<ele>48.200001</ele>
<time>2026-09-01T00:59:45.000Z</time>
</trkpt>
<trkpt lat="59.5614570" lon="31.2087091">
<ele>48.200001</ele>
<time>2026-09-01T00:59:46.000Z</time>
</trkpt>
<trkpt lat="59.5614722" lon="31.2087146">
<ele>48.200001</ele>
<time>2026-09-01T00:59:47.000Z</time>
</trkpt>
<trkpt lat="59.5614871" lon="31.2087189">
<ele>46.760002</ele>
<time>2026-09-01T00:59:48.000Z</time>
</trkpt>
<trkpt lat="59.5615017" lon="31.2087237">
<ele>46.760002</ele>
<time>2026-09-01T00:59:49.000Z</time>
</trkpt>
<trkpt lat="59.5616382" lon="31.2087168">
<ele>46.760002</ele>
<time>2026-09-01T00:59:59.000Z</time>
</trkpt>
<trkpt lat="59.5616607" lon="31.2087149">
<ele>46.760002</ele>
<time>2026-09-01T01:00:00.000Z</time>
</trkpt>
<trkpt lat="59.5616831" lon="31.2087145">
<ele>46.760002</ele>
<time>2026-09-01T01:00:01.000Z</time>
</trkpt>
<trkpt lat="59.5617111" lon="31.2087176">
<ele>46.760002</ele>
<time>2026-09-01T01:00:06.000Z</time>
</trkpt>
<trkpt lat="59.5617294" lon="31.2087170">
<ele>46.760002</ele>
<time>2026-09-01T01:00:07.000Z</time>
</trkpt>
<trkpt lat="59.5617485" lon="31.2087168">
<ele>46.760002</ele>
<time>2026-09-01T01:00:08.000Z</time>
</trkpt>
<trkpt lat="59.5617620" lon="31.2087184">
<ele>46.760002</ele>
<time>2026-09-01T01:00:09.000Z</time>
</trkpt>
<trkpt lat="59.5617988" lon="31.2087215">
<ele>46.760002</ele>
<time>2026-09-01T01:00:13.000Z</time>
</trkpt>
<trkpt lat="59.5618168" lon="31.2087248">
<ele>46.760002</ele>
<time>2026-09-01T01:00:14.000Z</time>
</trkpt>
<trkpt lat="59.5618343" lon="31.2087240">
<ele>46.760002</ele>
<time>2026-09-01T01:00:15.000Z</time>
</trkpt>
<trkpt lat="59.5618667" lon="31.2087069">
<ele>45.799999</ele>
<time>2026-09-01T01:00:20.000Z</time>
</trkpt>
<trkpt lat="59.5618845" lon="31.2087068">
<ele>45.799999</ele>
<time>2026-09-01T01:00:21.000Z</time>
</trkpt>
<trkpt lat="59.5619213" lon="31.2087166">
<ele>47.240002</ele>
<time>2026-09-01T01:00:24.000Z</time>
</trkpt>
<trkpt lat="59.5619392" lon="31.2087118">
<ele>47.240002</ele>
<time>2026-09-01T01:00:25.000Z</time>
</trkpt>
<trkpt lat="59.5620227" lon="31.2087086">
<ele>47.240002</ele>
<time>2026-09-01T01:00:32.000Z</time>
</trkpt>
<trkpt lat="59.5620417" lon="31.2087083">
<ele>45.799999</ele>
<time>2026-09-01T01:00:33.000Z</time>
</trkpt>
<trkpt lat="59.5620673" lon="31.2087104">
<ele>45.799999</ele>
<time>2026-09-01T01:00:34.000Z</time>
</trkpt>
<trkpt lat="59.5621084" lon="31.2087101">
<ele>45.799999</ele>
<time>2026-09-01T01:00:40.000Z</time>
</trkpt>
<trkpt lat="59.5621309" lon="31.2087130">
<ele>45.799999</ele>
<time>2026-09-01T01:00:41.000Z</time>
</trkpt>
<trkpt lat="59.5621535" lon="31.2087153">
<ele>45.799999</ele>
<time>2026-09-01T01:00:42.000Z</time>
</trkpt>
<trkpt lat="59.5621780" lon="31.2087042">
<ele>45.799999</ele>
<time>2026-09-01T01:00:46.000Z</time>
</trkpt>
<trkpt lat="59.5622019" lon="31.2087097">
<ele>45.799999</ele>
<time>2026-09-01T01:00:47.000Z</time>
</trkpt>
<trkpt lat="59.5622254" lon="31.2087192">
<ele>45.799999</ele>
<time>2026-09-01T01:00:48.000Z</time>
</trkpt>
<trkpt lat="59.5623214" lon="31.2087118">
<ele>47.240002</ele>
<time>2026-09-01T01:00:58.000Z</time>
</trkpt>
<trkpt lat="59.5623554" lon="31.2087096">
<ele>47.240002</ele>
<time>2026-09-01T01:01:01.000Z</time>
</trkpt>
<trkpt lat="59.5624754" lon="31.2087266">
<ele>47.240002</ele>
<time>2026-09-01T01:01:09.000Z</time>
</trkpt>
<trkpt lat="59.5624875" lon="31.2087246">
<ele>47.240002</ele>
<time>2026-09-01T01:01:10.000Z</time>
</trkpt>
<trkpt lat="59.5625033" lon="31.2087267">
<ele>47.240002</ele>
<time>2026-09-01T01:01:11.000Z</time>
</trkpt>
<trkpt lat="59.5625262" lon="31.2087348">
<ele>47.240002</ele>
<time>2026-09-01T01:01:12.000Z</time>
</trkpt>
<trkpt lat="59.5625488" lon="31.2087353">
<ele>47.240002</ele>
<time>2026-09-01T01:01:13.000Z</time>
</trkpt>
<trkpt lat="59.5626010" lon="31.2087244">
<ele>47.240002</ele>
<time>2026-09-01T01:01:18.000Z</time>
</trkpt>
<trkpt lat="59.5626264" lon="31.2087253">
<ele>47.240002</ele>
<time>2026-09-01T01:01:19.000Z</time>
</trkpt>
<trkpt lat="59.5626463" lon="31.2087233">
<ele>47.240002</ele>
<time>2026-09-01T01:01:20.000Z</time>
</trkpt>
<trkpt lat="59.5627430" lon="31.2087205">
<ele>47.240002</ele>
<time>2026-09-01T01:01:27.000Z</time>
</trkpt>
<trkpt lat="59.5628168" lon="31.2086802">
<ele>47.240002</ele>
<time>2026-09-01T01:01:33.000Z</time>
</trkpt>
<trkpt lat="59.5628321" lon="31.2086773">
<ele>47.240002</ele>
<time>2026-09-01T01:01:34.000Z</time>
</trkpt>
<trkpt lat="59.5628763" lon="31.2086900">
<ele>47.240002</ele>
<time>2026-09-01T01:01:38.000Z</time>
</trkpt>
<trkpt lat="59.5628961" lon="31.2086938">
<ele>47.240002</ele>
<time>2026-09-01T01:01:39.000Z</time>
</trkpt>
<trkpt lat="59.5629126" lon="31.2086956">
<ele>47.240002</ele>
<time>2026-09-01T01:01:40.000Z</time>
</trkpt>
<trkpt lat="59.5629825" lon="31.2087075">
<ele>47.240002</ele>
<time>2026-09-01T01:01:45.000Z</time>
</trkpt>
<trkpt lat="59.5630057" lon="31.2087109">
<ele>47.240002</ele>
<time>2026-09-01T01:01:46.000Z</time>
</trkpt>
<trkpt lat="59.5630375" lon="31.2087219">
<ele>47.240002</ele>
<time>2026-09-01T01:01:50.000Z</time>
</trkpt>
<trkpt lat="59.5630544" lon="31.2087251">
<ele>47.240002</ele>
<time>2026-09-01T01:01:51.000Z</time>
</trkpt>
<trkpt lat="59.5630775" lon="31.2087304">
<ele>47.240002</ele>
<time>2026-09-01T01:01:52.000Z</time>
</trkpt>
<trkpt lat="59.5631163" lon="31.2087351">
<ele>47.240002</ele>
<time>2026-09-01T01:01:56.000Z</time>
</trkpt>
<trkpt lat="59.5631303" lon="31.2087398">
<ele>47.240002</ele>
<time>2026-09-01T01:01:57.000Z</time>
</trkpt>
<trkpt lat="59.5631453" lon="31.2087426">
<ele>47.240002</ele>
<time>2026-09-01T01:01:58.000Z</time>
</trkpt>
<trkpt lat="59.5631720" lon="31.2087433">
<ele>47.240002</ele>
<time>2026-09-01T01:02:02.000Z</time>
</trkpt>
<trkpt lat="59.5631912" lon="31.2087459">
<ele>47.240002</ele>
<time>2026-09-01T01:02:03.000Z</time>
</trkpt>
<trkpt lat="59.5632140" lon="31.2087484">
<ele>47.240002</ele>
<time>2026-09-01T01:02:04.000Z</time>
</trkpt>
<trkpt lat="59.5632308" lon="31.2087505">
<ele>47.240002</ele>
<time>2026-09-01T01:02:05.000Z</time>
</trkpt>
<trkpt lat="59.5632777" lon="31.2087535">
<ele>47.240002</ele>
<time>2026-09-01T01:02:09.000Z</time>
</trkpt>
<trkpt lat="59.5632955" lon="31.2087574">
<ele>47.240002</ele>
<time>2026-09-01T01:02:10.000Z</time>
</trkpt>
<trkpt lat="59.5634331" lon="31.2087316">
<ele>47.240002</ele>
<time>2026-09-01T01:02:21.000Z</time>
</trkpt>
<trkpt lat="59.5634504" lon="31.2087334">
<ele>47.240002</ele>
<time>2026-09-01T01:02:22.000Z</time>
</trkpt>
<trkpt lat="59.5634727" lon="31.2087373">
<ele>47.240002</ele>
<time>2026-09-01T01:02:23.000Z</time>
</trkpt>
<trkpt lat="59.5634931" lon="31.2087368">
<ele>47.240002</ele>
<time>2026-09-01T01:02:24.000Z</time>
</trkpt>
<trkpt lat="59.5635496" lon="31.2087392">
<ele>47.240002</ele>
<time>2026-09-01T01:02:29.000Z</time>
</trkpt>
<trkpt lat="59.5635676" lon="31.2087373">
<ele>47.240002</ele>
<time>2026-09-01T01:02:30.000Z</time>
</trkpt>
<trkpt lat="59.5635863" lon="31.2087333">
<ele>47.240002</ele>
<time>2026-09-01T01:02:31.000Z</time>
</trkpt>
<trkpt lat="59.5636001" lon="31.2087291">
<ele>47.240002</ele>
<time>2026-09-01T01:02:32.000Z</time>
</trkpt>
<trkpt lat="59.5637028" lon="31.2087209">
<ele>47.240002</ele>
<time>2026-09-01T01:02:41.000Z</time>
</trkpt>
<trkpt lat="59.5637222" lon="31.2087211">
<ele>47.240002</ele>
<time>2026-09-01T01:02:42.000Z</time>
</trkpt>
<trkpt lat="59.5637391" lon="31.2087214">
<ele>47.240002</ele>
<time>2026-09-01T01:02:43.000Z</time>
</trkpt>
<trkpt lat="59.5637882" lon="31.2087277">
<ele>47.240002</ele>
<time>2026-09-01T01:02:47.000Z</time>
</trkpt>
<trkpt lat="59.5638119" lon="31.2087323">
<ele>47.240002</ele>
<time>2026-09-01T01:02:48.000Z</time>
</trkpt>
<trkpt lat="59.5638307" lon="31.2087283">
<ele>47.240002</ele>
<time>2026-09-01T01:02:49.000Z</time>
</trkpt>
<trkpt lat="59.5638588" lon="31.2087133">
<ele>47.240002</ele>
<time>2026-09-01T01:02:54.000Z</time>
</trkpt>
<trkpt lat="59.5638830" lon="31.2087219">
<ele>47.240002</ele>
<time>2026-09-01T01:02:55.000Z</time>
</trkpt>
<trkpt lat="59.5639061" lon="31.2087282">
<ele>45.799999</ele>
<time>2026-09-01T01:02:56.000Z</time>
</trkpt>
<trkpt lat="59.5639477" lon="31.2087374">
<ele>45.799999</ele>
<time>2026-09-01T01:03:00.000Z</time>
</trkpt>
<trkpt lat="59.5639671" lon="31.2087326">
<ele>45.799999</ele>
<time>2026-09-01T01:03:01.000Z</time>
</trkpt>
<trkpt lat="59.5639831" lon="31.2087285">
<ele>45.799999</ele>
<time>2026-09-01T01:03:02.000Z</time>
</trkpt>
<trkpt lat="59.5640123" lon="31.2087174">
<ele>45.799999</ele>
<time>2026-09-01T01:03:06.000Z</time>
</trkpt>
<trkpt lat="59.5640319" lon="31.2087199">
<ele>45.799999</ele>
<time>2026-09-01T01:03:07.000Z</time>
</trkpt>
<trkpt lat="59.5640526" lon="31.2087249">
<ele>45.799999</ele>
<time>2026-09-01T01:03:08.000Z</time>
</trkpt>
<trkpt lat="59.5640721" lon="31.2087236">
<ele>45.799999</ele>
<time>2026-09-01T01:03:09.000Z</time>
</trkpt>
<trkpt lat="59.5641308" lon="31.2087342">
<ele>45.799999</ele>
<time>2026-09-01T01:03:14.000Z</time>
</trkpt>
<trkpt lat="59.5641466" lon="31.2087356">
<ele>45.799999</ele>
<time>2026-09-01T01:03:15.000Z</time>
</trkpt>
<trkpt lat="59.5641848" lon="31.2087235">
<ele>45.799999</ele>
<time>2026-09-01T01:03:18.000Z</time>
</trkpt>
<trkpt lat="59.5643380" lon="31.2086929">
<ele>45.799999</ele>
<time>2026-09-01T01:03:27.000Z</time>
</trkpt>
<trkpt lat="59.5643605" lon="31.2086948">
<ele>45.799999</ele>
<time>2026-09-01T01:03:28.000Z</time>
</trkpt>
<trkpt lat="59.5644087" lon="31.2086987">
<ele>45.799999</ele>
<time>2026-09-01T01:03:32.000Z</time>
</trkpt>
<trkpt lat="59.5644819" lon="31.2086919">
<ele>45.799999</ele>
<time>2026-09-01T01:03:39.000Z</time>
</trkpt>
<trkpt lat="59.5644990" lon="31.2086939">
<ele>45.799999</ele>
<time>2026-09-01T01:03:40.000Z</time>
</trkpt>
<trkpt lat="59.5645198" lon="31.2086964">
<ele>45.799999</ele>
<time>2026-09-01T01:03:41.000Z</time>
</trkpt>
<trkpt lat="59.5645361" lon="31.2086947">
<ele>45.799999</ele>
<time>2026-09-01T01:03:42.000Z</time>
</trkpt>
<trkpt lat="59.5645731" lon="31.2086842">
<ele>45.799999</ele>
<time>2026-09-01T01:03:46.000Z</time>
</trkpt>
<trkpt lat="59.5645920" lon="31.2086848">
<ele>45.799999</ele>
<time>2026-09-01T01:03:47.000Z</time>
</trkpt>
<trkpt lat="59.5646083" lon="31.2086803">
<ele>45.799999</ele>
<time>2026-09-01T01:03:48.000Z</time>
</trkpt>
<trkpt lat="59.5646472" lon="31.2086812">
<ele>45.799999</ele>
<time>2026-09-01T01:03:53.000Z</time>
</trkpt>
<trkpt lat="59.5646699" lon="31.2086836">
<ele>45.799999</ele>
<time>2026-09-01T01:03:54.000Z</time>
</trkpt>
<trkpt lat="59.5646880" lon="31.2086814">
<ele>45.799999</ele>
<time>2026-09-01T01:03:55.000Z</time>
</trkpt>
<trkpt lat="59.5647172" lon="31.2086965">
<ele>45.799999</ele>
<time>2026-09-01T01:03:59.000Z</time>
</trkpt>
<trkpt lat="59.5647436" lon="31.2087044">
<ele>45.799999</ele>
<time>2026-09-01T01:04:01.000Z</time>
</trkpt>
<trkpt lat="59.5647848" lon="31.2086801">
<ele>45.799999</ele>
<time>2026-09-01T01:04:05.000Z</time>
</trkpt>
<trkpt lat="59.5648064" lon="31.2086778">
<ele>45.799999</ele>
<time>2026-09-01T01:04:06.000Z</time>
</trkpt>
<trkpt lat="59.5648865" lon="31.2086894">
<ele>47.240002</ele>
<time>2026-09-01T01:04:12.000Z</time>
</trkpt>
<trkpt lat="59.5649115" lon="31.2086886">
<ele>47.240002</ele>
<time>2026-09-01T01:04:13.000Z</time>
</trkpt>
<trkpt lat="59.5649833" lon="31.2086939">
<ele>47.240002</ele>
<time>2026-09-01T01:04:19.000Z</time>
</trkpt>
<trkpt lat="59.5650037" lon="31.2086932">
<ele>47.240002</ele>
<time>2026-09-01T01:04:20.000Z</time>
</trkpt>
<trkpt lat="59.5650704" lon="31.2086741">
<ele>47.240002</ele>
<time>2026-09-01T01:04:25.000Z</time>
</trkpt>
<trkpt lat="59.5651388" lon="31.2086500">
<ele>47.240002</ele>
<time>2026-09-01T01:04:31.000Z</time>
</trkpt>
<trkpt lat="59.5651526" lon="31.2086524">
<ele>47.240002</ele>
<time>2026-09-01T01:04:32.000Z</time>
</trkpt>
<trkpt lat="59.5651839" lon="31.2086639">
<ele>47.240002</ele>
<time>2026-09-01T01:04:34.000Z</time>
</trkpt>
<trkpt lat="59.5653038" lon="31.2086732">
<ele>45.799999</ele>
<time>2026-09-01T01:04:43.000Z</time>
</trkpt>
<trkpt lat="59.5653195" lon="31.2086821">
<ele>45.799999</ele>
<time>2026-09-01T01:04:45.000Z</time>
</trkpt>
<trkpt lat="59.5653387" lon="31.2086878">
<ele>45.799999</ele>
<time>2026-09-01T01:04:46.000Z</time>
</trkpt>
<trkpt lat="59.5654219" lon="31.2086863">
<ele>45.799999</ele>
<time>2026-09-01T01:04:54.000Z</time>
</trkpt>
<trkpt lat="59.5654373" lon="31.2086863">
<ele>45.799999</ele>
<time>2026-09-01T01:04:57.000Z</time>
</trkpt>
<trkpt lat="59.5654817" lon="31.2086951">
<ele>45.799999</ele>
<time>2026-09-01T01:04:59.000Z</time>
</trkpt>
<trkpt lat="59.5655007" lon="31.2086955">
<ele>45.799999</ele>
<time>2026-09-01T01:05:00.000Z</time>
</trkpt>
<trkpt lat="59.5655382" lon="31.2086918">
<ele>45.799999</ele>
<time>2026-09-01T01:05:04.000Z</time>
</trkpt>
<trkpt lat="59.5655580" lon="31.2086873">
<ele>45.799999</ele>
<time>2026-09-01T01:05:05.000Z</time>
</trkpt>
<trkpt lat="59.5655739" lon="31.2086821">
<ele>45.799999</ele>
<time>2026-09-01T01:05:06.000Z</time>
</trkpt>
<trkpt lat="59.5656161" lon="31.2086516">
<ele>45.799999</ele>
<time>2026-09-01T01:05:11.000Z</time>
</trkpt>
<trkpt lat="59.5656777" lon="31.2086158">
<ele>45.799999</ele>
<time>2026-09-01T01:05:16.000Z</time>
</trkpt>
<trkpt lat="59.5656983" lon="31.2086074">
<ele>45.799999</ele>
<time>2026-09-01T01:05:17.000Z</time>
</trkpt>
<trkpt lat="59.5657186" lon="31.2086001">
<ele>45.320000</ele>
<time>2026-09-01T01:05:18.000Z</time>
</trkpt>
<trkpt lat="59.5657671" lon="31.2085808">
<ele>44.839996</ele>
<time>2026-09-01T01:05:27.000Z</time>
</trkpt>
<trkpt lat="59.5658106" lon="31.2085608">
<ele>45.799999</ele>
<time>2026-09-01T01:05:43.000Z</time>
</trkpt>
<trkpt lat="59.5658838" lon="31.2084975">
<ele>44.839996</ele>
<time>2026-09-01T01:05:55.000Z</time>
</trkpt>
<trkpt lat="59.5659025" lon="31.2084920">
<ele>44.839996</ele>
<time>2026-09-01T01:05:57.000Z</time>
</trkpt>
<trkpt lat="59.5659214" lon="31.2084827">
<ele>44.839996</ele>
<time>2026-09-01T01:05:58.000Z</time>
</trkpt>
<trkpt lat="59.5659903" lon="31.2084486">
<ele>44.839996</ele>
<time>2026-09-01T01:06:03.000Z</time>
</trkpt>
<trkpt lat="59.5660040" lon="31.2084504">
<ele>44.839996</ele>
<time>2026-09-01T01:06:04.000Z</time>
</trkpt>
<trkpt lat="59.5660332" lon="31.2084395">
<ele>45.799999</ele>
<time>2026-09-01T01:06:06.000Z</time>
</trkpt>
<trkpt lat="59.5660857" lon="31.2084226">
<ele>45.799999</ele>
<time>2026-09-01T01:06:10.000Z</time>
</trkpt>
<trkpt lat="59.5661106" lon="31.2084170">
<ele>45.799999</ele>
<time>2026-09-01T01:06:11.000Z</time>
</trkpt>
<trkpt lat="59.5661683" lon="31.2084111">
<ele>46.279999</ele>
<time>2026-09-01T01:06:15.000Z</time>
</trkpt>
<trkpt lat="59.5661960" lon="31.2084087">
<ele>46.279999</ele>
<time>2026-09-01T01:06:16.000Z</time>
</trkpt>
<trkpt lat="59.5662722" lon="31.2083615">
<ele>46.279999</ele>
<time>2026-09-01T01:06:21.000Z</time>
</trkpt>
<trkpt lat="59.5662901" lon="31.2083532">
<ele>46.279999</ele>
<time>2026-09-01T01:06:22.000Z</time>
</trkpt>
<trkpt lat="59.5663138" lon="31.2083295">
<ele>46.279999</ele>
<time>2026-09-01T01:06:23.000Z</time>
</trkpt>
<trkpt lat="59.5663364" lon="31.2083141">
<ele>46.279999</ele>
<time>2026-09-01T01:06:24.000Z</time>
</trkpt>
<trkpt lat="59.5663571" lon="31.2082974">
<ele>46.279999</ele>
<time>2026-09-01T01:06:25.000Z</time>
</trkpt>
<trkpt lat="59.5664882" lon="31.2082229">
<ele>46.279999</ele>
<time>2026-09-01T01:06:35.000Z</time>
</trkpt>
<trkpt lat="59.5665017" lon="31.2082256">
<ele>46.279999</ele>
<time>2026-09-01T01:06:36.000Z</time>
</trkpt>
<trkpt lat="59.5665200" lon="31.2082273">
<ele>46.279999</ele>
<time>2026-09-01T01:06:37.000Z</time>
</trkpt>
<trkpt lat="59.5665359" lon="31.2082271">
<ele>46.279999</ele>
<time>2026-09-01T01:06:38.000Z</time>
</trkpt>
<trkpt lat="59.5665657" lon="31.2082179">
<ele>46.760002</ele>
<time>2026-09-01T01:06:41.000Z</time>
</trkpt>
<trkpt lat="59.5665800" lon="31.2082164">
<ele>46.760002</ele>
<time>2026-09-01T01:06:42.000Z</time>
</trkpt>
<trkpt lat="59.5665982" lon="31.2082146">
<ele>46.760002</ele>
<time>2026-09-01T01:06:43.000Z</time>
</trkpt>
<trkpt lat="59.5666632" lon="31.2082338">
<ele>46.760002</ele>
<time>2026-09-01T01:06:52.000Z</time>
</trkpt>
<trkpt lat="59.5667592" lon="31.2082251">
<ele>47.240002</ele>
<time>2026-09-01T01:06:59.000Z</time>
</trkpt>
<trkpt lat="59.5667967" lon="31.2082082">
<ele>47.240002</ele>
<time>2026-09-01T01:07:03.000Z</time>
</trkpt>
<trkpt lat="59.5668152" lon="31.2082300">
<ele>47.240002</ele>
<time>2026-09-01T01:07:04.000Z</time>
</trkpt>
<trkpt lat="59.5668343" lon="31.2082475">
<ele>47.240002</ele>
<time>2026-09-01T01:07:05.000Z</time>
</trkpt>
<trkpt lat="59.5668753" lon="31.2082815">
<ele>47.240002</ele>
<time>2026-09-01T01:07:07.000Z</time>
</trkpt>
<trkpt lat="59.5669003" lon="31.2083014">
<ele>47.240002</ele>
<time>2026-09-01T01:07:09.000Z</time>
</trkpt>
<trkpt lat="59.5669177" lon="31.2083174">
<ele>47.240002</ele>
<time>2026-09-01T01:07:10.000Z</time>
</trkpt>
<trkpt lat="59.5669286" lon="31.2083288">
<ele>47.240002</ele>
<time>2026-09-01T01:07:11.000Z</time>
</trkpt>
<trkpt lat="59.5669493" lon="31.2083506">
<ele>47.719997</ele>
<time>2026-09-01T01:07:14.000Z</time>
</trkpt>
<trkpt lat="59.5669613" lon="31.2083636">
<ele>47.719997</ele>
<time>2026-09-01T01:07:15.000Z</time>
</trkpt>
<trkpt lat="59.5669748" lon="31.2083739">
<ele>47.719997</ele>
<time>2026-09-01T01:07:16.000Z</time>
</trkpt>
<trkpt lat="59.5670235" lon="31.2084184">
<ele>48.200001</ele>
<time>2026-09-01T01:07:21.000Z</time>
</trkpt>
<trkpt lat="59.5670532" lon="31.2084367">
<ele>48.200001</ele>
<time>2026-09-01T01:07:24.000Z</time>
</trkpt>
<trkpt lat="59.5671821" lon="31.2085559">
<ele>49.650002</ele>
<time>2026-09-01T01:07:36.000Z</time>
</trkpt>
<trkpt lat="59.5671994" lon="31.2085832">
<ele>49.650002</ele>
<time>2026-09-01T01:07:39.000Z</time>
</trkpt>
<trkpt lat="59.5672109" lon="31.2085935">
<ele>49.650002</ele>
<time>2026-09-01T01:07:40.000Z</time>
</trkpt>
<trkpt lat="59.5672389" lon="31.2086223">
<ele>49.650002</ele>
<time>2026-09-01T01:07:43.000Z</time>
</trkpt>
<trkpt lat="59.5672863" lon="31.2086857">
<ele>49.650002</ele>
<time>2026-09-01T01:07:48.000Z</time>
</trkpt>
<trkpt lat="59.5672996" lon="31.2087021">
<ele>49.650002</ele>
<time>2026-09-01T01:07:49.000Z</time>
</trkpt>
<trkpt lat="59.5673120" lon="31.2087176">
<ele>49.650002</ele>
<time>2026-09-01T01:07:50.000Z</time>
</trkpt>
<trkpt lat="59.5673430" lon="31.2087568">
<ele>50.130001</ele>
<time>2026-09-01T01:07:54.000Z</time>
</trkpt>
<trkpt lat="59.5673585" lon="31.2087842">
<ele>50.130001</ele>
<time>2026-09-01T01:07:55.000Z</time>
</trkpt>
<trkpt lat="59.5673706" lon="31.2088074">
<ele>50.130001</ele>
<time>2026-09-01T01:07:56.000Z</time>
</trkpt>
<trkpt lat="59.5673947" lon="31.2088230">
<ele>50.610001</ele>
<time>2026-09-01T01:07:59.000Z</time>
</trkpt>
<trkpt lat="59.5674113" lon="31.2088405">
<ele>50.610001</ele>
<time>2026-09-01T01:08:00.000Z</time>
</trkpt>
<trkpt lat="59.5674289" lon="31.2088640">
<ele>50.610001</ele>
<time>2026-09-01T01:08:01.000Z</time>
</trkpt>
<trkpt lat="59.5674681" lon="31.2089340">
<ele>50.610001</ele>
<time>2026-09-01T01:08:11.000Z</time>
</trkpt>
<trkpt lat="59.5675517" lon="31.2090525">
<ele>53.010002</ele>
<time>2026-09-01T01:08:19.000Z</time>
</trkpt>
<trkpt lat="59.5675651" lon="31.2090722">
<ele>53.010002</ele>
<time>2026-09-01T01:08:20.000Z</time>
</trkpt>
<trkpt lat="59.5675818" lon="31.2090919">
<ele>53.490002</ele>
<time>2026-09-01T01:08:21.000Z</time>
</trkpt>
<trkpt lat="59.5676254" lon="31.2091442">
<ele>53.490002</ele>
<time>2026-09-01T01:08:26.000Z</time>
</trkpt>
<trkpt lat="59.5676600" lon="31.2091837">
<ele>53.969997</ele>
<time>2026-09-01T01:08:31.000Z</time>
</trkpt>
<trkpt lat="59.5677655" lon="31.2093231">
<ele>54.450001</ele>
<time>2026-09-01T01:08:40.000Z</time>
</trkpt>
<trkpt lat="59.5677903" lon="31.2093434">
<ele>54.930000</ele>
<time>2026-09-01T01:08:43.000Z</time>
</trkpt>
<trkpt lat="59.5678032" lon="31.2093574">
<ele>54.930000</ele>
<time>2026-09-01T01:08:44.000Z</time>
</trkpt>
<trkpt lat="59.5678226" lon="31.2093844">
<ele>54.930000</ele>
<time>2026-09-01T01:08:46.000Z</time>
</trkpt>
<trkpt lat="59.5678366" lon="31.2093978">
<ele>54.930000</ele>
<time>2026-09-01T01:08:47.000Z</time>
</trkpt>
<trkpt lat="59.5678661" lon="31.2094146">
<ele>55.410000</ele>
<time>2026-09-01T01:08:50.000Z</time>
</trkpt>
<trkpt lat="59.5678789" lon="31.2094271">
<ele>55.410000</ele>
<time>2026-09-01T01:08:51.000Z</time>
</trkpt>
<trkpt lat="59.5679718" lon="31.2094975">
<ele>56.370003</ele>
<time>2026-09-01T01:09:02.000Z</time>
</trkpt>
<trkpt lat="59.5679868" lon="31.2095068">
<ele>56.370003</ele>
<time>2026-09-01T01:09:03.000Z</time>
</trkpt>
<trkpt lat="59.5680060" lon="31.2095135">
<ele>56.370003</ele>
<time>2026-09-01T01:09:05.000Z</time>
</trkpt>
<trkpt lat="59.5680215" lon="31.2095291">
<ele>56.370003</ele>
<time>2026-09-01T01:09:06.000Z</time>
</trkpt>
<trkpt lat="59.5680373" lon="31.2095435">
<ele>56.370003</ele>
<time>2026-09-01T01:09:07.000Z</time>
</trkpt>
<trkpt lat="59.5680700" lon="31.2095662">
<ele>57.339996</ele>
<time>2026-09-01T01:09:10.000Z</time>
</trkpt>
<trkpt lat="59.5680790" lon="31.2095845">
<ele>57.339996</ele>
<time>2026-09-01T01:09:11.000Z</time>
</trkpt>
<trkpt lat="59.5680886" lon="31.2095993">
<ele>57.339996</ele>
<time>2026-09-01T01:09:12.000Z</time>
</trkpt>
<trkpt lat="59.5681133" lon="31.2096182">
<ele>57.339996</ele>
<time>2026-09-01T01:09:15.000Z</time>
</trkpt>
<trkpt lat="59.5681296" lon="31.2096336">
<ele>58.299999</ele>
<time>2026-09-01T01:09:16.000Z</time>
</trkpt>
<trkpt lat="59.5681659" lon="31.2096677">
<ele>58.299999</ele>
<time>2026-09-01T01:09:20.000Z</time>
</trkpt>
<trkpt lat="59.5682109" lon="31.2097239">
<ele>59.260002</ele>
<time>2026-09-01T01:09:29.000Z</time>
</trkpt>
<trkpt lat="59.5682272" lon="31.2097446">
<ele>59.260002</ele>
<time>2026-09-01T01:09:30.000Z</time>
</trkpt>
<trkpt lat="59.5682443" lon="31.2097701">
<ele>59.260002</ele>
<time>2026-09-01T01:09:31.000Z</time>
</trkpt>
<trkpt lat="59.5682728" lon="31.2098314">
<ele>60.219997</ele>
<time>2026-09-01T01:09:42.000Z</time>
</trkpt>
<trkpt lat="59.5683072" lon="31.2098436">
<ele>60.219997</ele>
<time>2026-09-01T01:09:51.000Z</time>
</trkpt>
<trkpt lat="59.5683202" lon="31.2098718">
<ele>60.219997</ele>
<time>2026-09-01T01:09:52.000Z</time>
</trkpt>
<trkpt lat="59.5683384" lon="31.2099196">
<ele>60.219997</ele>
<time>2026-09-01T01:09:56.000Z</time>
</trkpt>
<trkpt lat="59.5683562" lon="31.2099476">
<ele>60.219997</ele>
<time>2026-09-01T01:09:57.000Z</time>
</trkpt>
<trkpt lat="59.5683709" lon="31.2099701">
<ele>60.219997</ele>
<time>2026-09-01T01:09:58.000Z</time>
</trkpt>
<trkpt lat="59.5683878" lon="31.2099920">
<ele>60.219997</ele>
<time>2026-09-01T01:10:01.000Z</time>
</trkpt>
<trkpt lat="59.5684005" lon="31.2100252">
<ele>60.219997</ele>
<time>2026-09-01T01:10:02.000Z</time>
</trkpt>
<trkpt lat="59.5684165" lon="31.2100600">
<ele>60.219997</ele>
<time>2026-09-01T01:10:03.000Z</time>
</trkpt>
<trkpt lat="59.5684332" lon="31.2100873">
<ele>60.700001</ele>
<time>2026-09-01T01:10:06.000Z</time>
</trkpt>
<trkpt lat="59.5684414" lon="31.2101053">
<ele>60.700001</ele>
<time>2026-09-01T01:10:07.000Z</time>
</trkpt>
<trkpt lat="59.5684546" lon="31.2101222">
<ele>60.700001</ele>
<time>2026-09-01T01:10:08.000Z</time>
</trkpt>
<trkpt lat="59.5684674" lon="31.2101387">
<ele>60.700001</ele>
<time>2026-09-01T01:10:09.000Z</time>
</trkpt>
<trkpt lat="59.5684974" lon="31.2101730">
<ele>60.700001</ele>
<time>2026-09-01T01:10:12.000Z</time>
</trkpt>
<trkpt lat="59.5685139" lon="31.2101957">
<ele>61.180000</ele>
<time>2026-09-01T01:10:13.000Z</time>
</trkpt>
<trkpt lat="59.5685390" lon="31.2102254">
<ele>62.139999</ele>
<time>2026-09-01T01:10:16.000Z</time>
</trkpt>
<trkpt lat="59.5685491" lon="31.2102469">
<ele>62.139999</ele>
<time>2026-09-01T01:10:17.000Z</time>
</trkpt>
<trkpt lat="59.5685604" lon="31.2102725">
<ele>62.139999</ele>
<time>2026-09-01T01:10:18.000Z</time>
</trkpt>
<trkpt lat="59.5685902" lon="31.2103700">
<ele>62.620003</ele>
<time>2026-09-01T01:10:25.000Z</time>
</trkpt>
<trkpt lat="59.5685997" lon="31.2103902">
<ele>62.620003</ele>
<time>2026-09-01T01:10:26.000Z</time>
</trkpt>
<trkpt lat="59.5686291" lon="31.2104370">
<ele>62.620003</ele>
<time>2026-09-01T01:10:30.000Z</time>
</trkpt>
<trkpt lat="59.5686393" lon="31.2104563">
<ele>62.620003</ele>
<time>2026-09-01T01:10:31.000Z</time>
</trkpt>
<trkpt lat="59.5686659" lon="31.2105494">
<ele>63.579998</ele>
<time>2026-09-01T01:10:43.000Z</time>
</trkpt>
<trkpt lat="59.5686929" lon="31.2106055">
<ele>64.070000</ele>
<time>2026-09-01T01:10:49.000Z</time>
</trkpt>
<trkpt lat="59.5687305" lon="31.2106706">
<ele>64.070000</ele>
<time>2026-09-01T01:10:53.000Z</time>
</trkpt>
<trkpt lat="59.5689084" lon="31.2109530">
<ele>64.550003</ele>
<time>2026-09-01T01:11:10.000Z</time>
</trkpt>
<trkpt lat="59.5690165" lon="31.2111033">
<ele>65.029999</ele>
<time>2026-09-01T01:11:22.000Z</time>
</trkpt>
<trkpt lat="59.5691371" lon="31.2112354">
<ele>65.989998</ele>
<time>2026-09-01T01:11:36.000Z</time>
</trkpt>
<trkpt lat="59.5691503" lon="31.2112506">
<ele>65.989998</ele>
<time>2026-09-01T01:11:37.000Z</time>
</trkpt>
<trkpt lat="59.5691621" lon="31.2112639">
<ele>65.989998</ele>
<time>2026-09-01T01:11:38.000Z</time>
</trkpt>
<trkpt lat="59.5693100" lon="31.2114493">
<ele>65.989998</ele>
<time>2026-09-01T01:11:51.000Z</time>
</trkpt>
<trkpt lat="59.5693195" lon="31.2114680">
<ele>65.989998</ele>
<time>2026-09-01T01:11:52.000Z</time>
</trkpt>
<trkpt lat="59.5694500" lon="31.2116963">
<ele>66.470001</ele>
<time>2026-09-01T01:12:06.000Z</time>
</trkpt>
<trkpt lat="59.5695107" lon="31.2118815">
<ele>66.470001</ele>
<time>2026-09-01T01:12:18.000Z</time>
</trkpt>
<trkpt lat="59.5695227" lon="31.2119224">
<ele>66.470001</ele>
<time>2026-09-01T01:12:20.000Z</time>
</trkpt>
<trkpt lat="59.5695305" lon="31.2119474">
<ele>66.470001</ele>
<time>2026-09-01T01:12:21.000Z</time>
</trkpt>
<trkpt lat="59.5696398" lon="31.2122683">
<ele>66.950005</ele>
<time>2026-09-01T01:12:35.000Z</time>
</trkpt>
<trkpt lat="59.5696705" lon="31.2123400">
<ele>66.950005</ele>
<time>2026-09-01T01:12:39.000Z</time>
</trkpt>
<trkpt lat="59.5696781" lon="31.2123654">
<ele>66.950005</ele>
<time>2026-09-01T01:12:40.000Z</time>
</trkpt>
<trkpt lat="59.5696863" lon="31.2123886">
<ele>66.950005</ele>
<time>2026-09-01T01:12:41.000Z</time>
</trkpt>
<trkpt lat="59.5696952" lon="31.2124139">
<ele>65.510002</ele>
<time>2026-09-01T01:12:42.000Z</time>
</trkpt>
<trkpt lat="59.5697046" lon="31.2124338">
<ele>65.510002</ele>
<time>2026-09-01T01:12:43.000Z</time>
</trkpt>
<trkpt lat="59.5698314" lon="31.2127989">
<ele>65.510002</ele>
<time>2026-09-01T01:13:00.000Z</time>
</trkpt>
<trkpt lat="59.5698480" lon="31.2128342">
<ele>65.510002</ele>
<time>2026-09-01T01:13:02.000Z</time>
</trkpt>
<trkpt lat="59.5699899" lon="31.2129872">
<ele>65.510002</ele>
<time>2026-09-01T01:13:17.000Z</time>
</trkpt>
<trkpt lat="59.5700871" lon="31.2130028">
<ele>65.029999</ele>
<time>2026-09-01T01:13:24.000Z</time>
</trkpt>
<trkpt lat="59.5701041" lon="31.2130099">
<ele>65.029999</ele>
<time>2026-09-01T01:13:25.000Z</time>
</trkpt>
<trkpt lat="59.5701625" lon="31.2130085">
<ele>65.029999</ele>
<time>2026-09-01T01:13:31.000Z</time>
</trkpt>
<trkpt lat="59.5702266" lon="31.2130089">
<ele>64.550003</ele>
<time>2026-09-01T01:13:36.000Z</time>
</trkpt>
<trkpt lat="59.5702417" lon="31.2130150">
<ele>64.550003</ele>
<time>2026-09-01T01:13:37.000Z</time>
</trkpt>
<trkpt lat="59.5702848" lon="31.2130345">
<ele>64.550003</ele>
<time>2026-09-01T01:13:41.000Z</time>
</trkpt>
<trkpt lat="59.5703867" lon="31.2130795">
<ele>64.070000</ele>
<time>2026-09-01T01:13:52.000Z</time>
</trkpt>
<trkpt lat="59.5703893" lon="31.2130782">
<ele>64.070000</ele>
<time>2026-09-01T01:13:53.000Z</time>
</trkpt>
<trkpt lat="59.5704126" lon="31.2130589">
<ele>65.029999</ele>
<time>2026-09-01T01:13:55.000Z</time>
</trkpt>
<trkpt lat="59.5704702" lon="31.2130484">
<ele>65.029999</ele>
<time>2026-09-01T01:14:04.000Z</time>
</trkpt>
<trkpt lat="59.5705336" lon="31.2130614">
<ele>65.029999</ele>
<time>2026-09-01T01:14:09.000Z</time>
</trkpt>
<trkpt lat="59.5705687" lon="31.2130483">
<ele>65.029999</ele>
<time>2026-09-01T01:14:12.000Z</time>
</trkpt>
<trkpt lat="59.5705846" lon="31.2130421">
<ele>65.029999</ele>
<time>2026-09-01T01:14:13.000Z</time>
</trkpt>
<trkpt lat="59.5706177" lon="31.2130410">
<ele>65.029999</ele>
<time>2026-09-01T01:14:15.000Z</time>
</trkpt>
<trkpt lat="59.5706637" lon="31.2130349">
<ele>65.029999</ele>
<time>2026-09-01T01:14:21.000Z</time>
</trkpt>
<trkpt lat="59.5707354" lon="31.2130163">
<ele>65.029999</ele>
<time>2026-09-01T01:14:28.000Z</time>
</trkpt>
<trkpt lat="59.5707876" lon="31.2130256">
<ele>65.029999</ele>
<time>2026-09-01T01:14:33.000Z</time>
</trkpt>
<trkpt lat="59.5708058" lon="31.2130256">
<ele>64.070000</ele>
<time>2026-09-01T01:14:34.000Z</time>
</trkpt>
<trkpt lat="59.5708733" lon="31.2130203">
<ele>64.070000</ele>
<time>2026-09-01T01:14:47.000Z</time>
</trkpt>
<trkpt lat="59.5708852" lon="31.2130081">
<ele>64.070000</ele>
<time>2026-09-01T01:14:48.000Z</time>
</trkpt>
<trkpt lat="59.5709439" lon="31.2129861">
<ele>64.070000</ele>
<time>2026-09-01T01:14:52.000Z</time>
</trkpt>
<trkpt lat="59.5709898" lon="31.2129567">
<ele>64.070000</ele>
<time>2026-09-01T01:14:56.000Z</time>
</trkpt>
<trkpt lat="59.5710081" lon="31.2129500">
<ele>64.070000</ele>
<time>2026-09-01T01:14:57.000Z</time>
</trkpt>
<trkpt lat="59.5710245" lon="31.2129381">
<ele>64.070000</ele>
<time>2026-09-01T01:14:58.000Z</time>
</trkpt>
<trkpt lat="59.5710581" lon="31.2128911">
<ele>64.070000</ele>
<time>2026-09-01T01:15:03.000Z</time>
</trkpt>
<trkpt lat="59.5710726" lon="31.2128788">
<ele>64.070000</ele>
<time>2026-09-01T01:15:04.000Z</time>
</trkpt>
<trkpt lat="59.5711779" lon="31.2127402">
<ele>65.989998</ele>
<time>2026-09-01T01:15:15.000Z</time>
</trkpt>
<trkpt lat="59.5712114" lon="31.2127062">
<ele>65.989998</ele>
<time>2026-09-01T01:15:18.000Z</time>
</trkpt>
<trkpt lat="59.5713057" lon="31.2126476">
<ele>65.989998</ele>
<time>2026-09-01T01:15:26.000Z</time>
</trkpt>
<trkpt lat="59.5713203" lon="31.2126284">
<ele>66.470001</ele>
<time>2026-09-01T01:15:27.000Z</time>
</trkpt>
<trkpt lat="59.5714662" lon="31.2125071">
<ele>66.470001</ele>
<time>2026-09-01T01:15:40.000Z</time>
</trkpt>
<trkpt lat="59.5715091" lon="31.2125055">
<ele>66.470001</ele>
<time>2026-09-01T01:15:43.000Z</time>
</trkpt>
<trkpt lat="59.5715828" lon="31.2125216">
<ele>66.470001</ele>
<time>2026-09-01T01:15:50.000Z</time>
</trkpt>
<trkpt lat="59.5716347" lon="31.2125097">
<ele>66.470001</ele>
<time>2026-09-01T01:15:55.000Z</time>
</trkpt>
<trkpt lat="59.5716557" lon="31.2125045">
<ele>66.470001</ele>
<time>2026-09-01T01:15:56.000Z</time>
</trkpt>
<trkpt lat="59.5716766" lon="31.2125025">
<ele>66.470001</ele>
<time>2026-09-01T01:15:57.000Z</time>
</trkpt>
<trkpt lat="59.5717554" lon="31.2125110">
<ele>66.470001</ele>
<time>2026-09-01T01:16:03.000Z</time>
</trkpt>
<trkpt lat="59.5717699" lon="31.2125086">
<ele>66.470001</ele>
<time>2026-09-01T01:16:04.000Z</time>
</trkpt>
<trkpt lat="59.5717880" lon="31.2125038">
<ele>65.029999</ele>
<time>2026-09-01T01:16:06.000Z</time>
</trkpt>
<trkpt lat="59.5718282" lon="31.2125030">
<ele>64.550003</ele>
<time>2026-09-01T01:16:10.000Z</time>
</trkpt>
<trkpt lat="59.5718797" lon="31.2124998">
<ele>64.550003</ele>
<time>2026-09-01T01:16:14.000Z</time>
</trkpt>
<trkpt lat="59.5719154" lon="31.2125064">
<ele>64.070000</ele>
<time>2026-09-01T01:16:16.000Z</time>
</trkpt>
<trkpt lat="59.5719315" lon="31.2125092">
<ele>64.070000</ele>
<time>2026-09-01T01:16:17.000Z</time>
</trkpt>
<trkpt lat="59.5719486" lon="31.2125093">
<ele>64.070000</ele>
<time>2026-09-01T01:16:18.000Z</time>
</trkpt>
<trkpt lat="59.5719821" lon="31.2124636">
<ele>63.579998</ele>
<time>2026-09-01T01:16:23.000Z</time>
</trkpt>
<trkpt lat="59.5719941" lon="31.2124524">
<ele>62.620003</ele>
<time>2026-09-01T01:16:24.000Z</time>
</trkpt>
<trkpt lat="59.5720072" lon="31.2124429">
<ele>62.139999</ele>
<time>2026-09-01T01:16:25.000Z</time>
</trkpt>
<trkpt lat="59.5720220" lon="31.2124281">
<ele>62.139999</ele>
<time>2026-09-01T01:16:26.000Z</time>
</trkpt>
<trkpt lat="59.5720876" lon="31.2123476">
<ele>61.660000</ele>
<time>2026-09-01T01:16:32.000Z</time>
</trkpt>
<trkpt lat="59.5721536" lon="31.2122370">
<ele>60.700001</ele>
<time>2026-09-01T01:16:38.000Z</time>
</trkpt>
<trkpt lat="59.5722390" lon="31.2120492">
<ele>59.740002</ele>
<time>2026-09-01T01:16:47.000Z</time>
</trkpt>
<trkpt lat="59.5722449" lon="31.2120217">
<ele>59.740002</ele>
<time>2026-09-01T01:16:48.000Z</time>
</trkpt>
<trkpt lat="59.5722520" lon="31.2119903">
<ele>59.260002</ele>
<time>2026-09-01T01:16:49.000Z</time>
</trkpt>
<trkpt lat="59.5723634" lon="31.2117813">
<ele>58.299999</ele>
<time>2026-09-01T01:17:01.000Z</time>
</trkpt>
<trkpt lat="59.5723739" lon="31.2117608">
<ele>58.299999</ele>
<time>2026-09-01T01:17:02.000Z</time>
</trkpt>
<trkpt lat="59.5724086" lon="31.2116901">
<ele>57.339996</ele>
<time>2026-09-01T01:17:07.000Z</time>
</trkpt>
<trkpt lat="59.5724319" lon="31.2116560">
<ele>57.339996</ele>
<time>2026-09-01T01:17:09.000Z</time>
</trkpt>
<trkpt lat="59.5724408" lon="31.2116348">
<ele>56.860001</ele>
<time>2026-09-01T01:17:10.000Z</time>
</trkpt>
<trkpt lat="59.5724685" lon="31.2115871">
<ele>56.860001</ele>
<time>2026-09-01T01:17:16.000Z</time>
</trkpt>
<trkpt lat="59.5724858" lon="31.2115661">
<ele>56.860001</ele>
<time>2026-09-01T01:17:17.000Z</time>
</trkpt>
<trkpt lat="59.5725200" lon="31.2115243">
<ele>56.370003</ele>
<time>2026-09-01T01:17:21.000Z</time>
</trkpt>
<trkpt lat="59.5725411" lon="31.2115097">
<ele>56.370003</ele>
<time>2026-09-01T01:17:22.000Z</time>
</trkpt>
<trkpt lat="59.5725640" lon="31.2114926">
<ele>56.370003</ele>
<time>2026-09-01T01:17:23.000Z</time>
</trkpt>
<trkpt lat="59.5725825" lon="31.2114712">
<ele>56.370003</ele>
<time>2026-09-01T01:17:24.000Z</time>
</trkpt>
<trkpt lat="59.5726290" lon="31.2114189">
<ele>55.889999</ele>
<time>2026-09-01T01:17:28.000Z</time>
</trkpt>
<trkpt lat="59.5726490" lon="31.2114094">
<ele>55.889999</ele>
<time>2026-09-01T01:17:29.000Z</time>
</trkpt>
<trkpt lat="59.5726691" lon="31.2114002">
<ele>55.889999</ele>
<time>2026-09-01T01:17:30.000Z</time>
</trkpt>
<trkpt lat="59.5727310" lon="31.2113582">
<ele>55.889999</ele>
<time>2026-09-01T01:17:35.000Z</time>
</trkpt>
<trkpt lat="59.5727529" lon="31.2113487">
<ele>55.889999</ele>
<time>2026-09-01T01:17:36.000Z</time>
</trkpt>
<trkpt lat="59.5727690" lon="31.2113373">
<ele>55.889999</ele>
<time>2026-09-01T01:17:37.000Z</time>
</trkpt>
<trkpt lat="59.5728054" lon="31.2112943">
<ele>55.410000</ele>
<time>2026-09-01T01:17:41.000Z</time>
</trkpt>
<trkpt lat="59.5728245" lon="31.2112791">
<ele>55.410000</ele>
<time>2026-09-01T01:17:42.000Z</time>
</trkpt>
<trkpt lat="59.5728377" lon="31.2112578">
<ele>55.410000</ele>
<time>2026-09-01T01:17:43.000Z</time>
</trkpt>
<trkpt lat="59.5728603" lon="31.2111923">
<ele>55.410000</ele>
<time>2026-09-01T01:17:48.000Z</time>
</trkpt>
<trkpt lat="59.5729140" lon="31.2110773">
<ele>55.410000</ele>
<time>2026-09-01T01:18:01.000Z</time>
</trkpt>
<trkpt lat="59.5729188" lon="31.2110507">
<ele>55.410000</ele>
<time>2026-09-01T01:18:24.000Z</time>
</trkpt>
<trkpt lat="59.5729247" lon="31.2110219">
<ele>55.410000</ele>
<time>2026-09-01T01:18:51.000Z</time>
</trkpt>
<trkpt lat="59.5729257" lon="31.2110166">
<ele>55.410000</ele>
<time>2026-09-01T01:18:55.000Z</time>
</trkpt>
<trkpt lat="59.5729322" lon="31.2109982">
<ele>55.410000</ele>
<time>2026-09-01T01:18:56.000Z</time>
</trkpt>
<trkpt lat="59.5729406" lon="31.2109615">
<ele>55.410000</ele>
<time>2026-09-01T01:18:58.000Z</time>
</trkpt>
<trkpt lat="59.5729749" lon="31.2108976">
<ele>56.370003</ele>
<time>2026-09-01T01:19:04.000Z</time>
</trkpt>
<trkpt lat="59.5729830" lon="31.2108805">
<ele>56.370003</ele>
<time>2026-09-01T01:19:05.000Z</time>
</trkpt>
<trkpt lat="59.5729908" lon="31.2108648">
<ele>56.370003</ele>
<time>2026-09-01T01:19:06.000Z</time>
</trkpt>
<trkpt lat="59.5729978" lon="31.2108489">
<ele>56.370003</ele>
<time>2026-09-01T01:19:07.000Z</time>
</trkpt>
<trkpt lat="59.5730040" lon="31.2108309">
<ele>56.370003</ele>
<time>2026-09-01T01:19:08.000Z</time>
</trkpt>
<trkpt lat="59.5731475" lon="31.2105973">
<ele>57.339996</ele>
<time>2026-09-01T01:19:23.000Z</time>
</trkpt>
<trkpt lat="59.5731586" lon="31.2105826">
<ele>57.339996</ele>
<time>2026-09-01T01:19:24.000Z</time>
</trkpt>
<trkpt lat="59.5731681" lon="31.2105723">
<ele>57.339996</ele>
<time>2026-09-01T01:19:25.000Z</time>
</trkpt>
<trkpt lat="59.5733190" lon="31.2103506">
<ele>57.820000</ele>
<time>2026-09-01T01:19:41.000Z</time>
</trkpt>
<trkpt lat="59.5734344" lon="31.2100807">
<ele>58.779999</ele>
<time>2026-09-01T01:19:57.000Z</time>
</trkpt>
<trkpt lat="59.5735332" lon="31.2098546">
<ele>59.260002</ele>
<time>2026-09-01T01:20:11.000Z</time>
</trkpt>
<trkpt lat="59.5736699" lon="31.2096278">
<ele>60.219997</ele>
<time>2026-09-01T01:20:26.000Z</time>
</trkpt>
<trkpt lat="59.5738723" lon="31.2094648">
<ele>62.620003</ele>
<time>2026-09-01T01:20:45.000Z</time>
</trkpt>
<trkpt lat="59.5740455" lon="31.2094188">
<ele>64.070000</ele>
<time>2026-09-01T01:21:00.000Z</time>
</trkpt>
<trkpt lat="59.5741977" lon="31.2093524">
<ele>64.550003</ele>
<time>2026-09-01T01:21:13.000Z</time>
</trkpt>
<trkpt lat="59.5743388" lon="31.2092376">
<ele>65.510002</ele>
<time>2026-09-01T01:21:26.000Z</time>
</trkpt>
<trkpt lat="59.5745594" lon="31.2090517">
<ele>67.909996</ele>
<time>2026-09-01T01:21:45.000Z</time>
</trkpt>
<trkpt lat="59.5746723" lon="31.2089527">
<ele>68.389999</ele>
<time>2026-09-01T01:21:55.000Z</time>
</trkpt>
<trkpt lat="59.5746815" lon="31.2089452">
<ele>68.389999</ele>
<time>2026-09-01T01:21:56.000Z</time>
</trkpt>
<trkpt lat="59.5747235" lon="31.2089106">
<ele>68.389999</ele>
<time>2026-09-01T01:22:02.000Z</time>
</trkpt>
<trkpt lat="59.5747366" lon="31.2089071">
<ele>68.389999</ele>
<time>2026-09-01T01:22:03.000Z</time>
</trkpt>
<trkpt lat="59.5747656" lon="31.2088832">
<ele>68.389999</ele>
<time>2026-09-01T01:22:07.000Z</time>
</trkpt>
<trkpt lat="59.5747826" lon="31.2088768">
<ele>68.389999</ele>
<time>2026-09-01T01:22:08.000Z</time>
</trkpt>
<trkpt lat="59.5747987" lon="31.2088709">
<ele>68.389999</ele>
<time>2026-09-01T01:22:09.000Z</time>
</trkpt>
<trkpt lat="59.5748184" lon="31.2088423">
<ele>68.389999</ele>
<time>2026-09-01T01:22:12.000Z</time>
</trkpt>
<trkpt lat="59.5748301" lon="31.2088343">
<ele>68.870003</ele>
<time>2026-09-01T01:22:13.000Z</time>
</trkpt>
<trkpt lat="59.5748429" lon="31.2088267">
<ele>68.870003</ele>
<time>2026-09-01T01:22:14.000Z</time>
</trkpt>
<trkpt lat="59.5749541" lon="31.2087741">
<ele>68.870003</ele>
<time>2026-09-01T01:22:23.000Z</time>
</trkpt>
<trkpt lat="59.5750486" lon="31.2087255">
<ele>70.310005</ele>
<time>2026-09-01T01:22:32.000Z</time>
</trkpt>
<trkpt lat="59.5750668" lon="31.2087218">
<ele>70.790001</ele>
<time>2026-09-01T01:22:37.000Z</time>
</trkpt>
<trkpt lat="59.5750921" lon="31.2087313">
<ele>70.790001</ele>
<time>2026-09-01T01:22:40.000Z</time>
</trkpt>
<trkpt lat="59.5751104" lon="31.2087345">
<ele>70.790001</ele>
<time>2026-09-01T01:22:41.000Z</time>
</trkpt>
<trkpt lat="59.5751354" lon="31.2087308">
<ele>70.790001</ele>
<time>2026-09-01T01:22:44.000Z</time>
</trkpt>
<trkpt lat="59.5751567" lon="31.2087262">
<ele>70.790001</ele>
<time>2026-09-01T01:22:45.000Z</time>
</trkpt>
<trkpt lat="59.5751739" lon="31.2087183">
<ele>70.790001</ele>
<time>2026-09-01T01:22:46.000Z</time>
</trkpt>
<trkpt lat="59.5751922" lon="31.2087131">
<ele>70.790001</ele>
<time>2026-09-01T01:22:49.000Z</time>
</trkpt>
<trkpt lat="59.5752093" lon="31.2087199">
<ele>70.790001</ele>
<time>2026-09-01T01:22:50.000Z</time>
</trkpt>
<trkpt lat="59.5752316" lon="31.2087322">
<ele>70.790001</ele>
<time>2026-09-01T01:22:51.000Z</time>
</trkpt>
<trkpt lat="59.5752507" lon="31.2087375">
<ele>70.790001</ele>
<time>2026-09-01T01:22:52.000Z</time>
</trkpt>
<trkpt lat="59.5752737" lon="31.2087345">
<ele>70.790001</ele>
<time>2026-09-01T01:22:55.000Z</time>
</trkpt>
<trkpt lat="59.5752899" lon="31.2087418">
<ele>70.790001</ele>
<time>2026-09-01T01:22:56.000Z</time>
</trkpt>
<trkpt lat="59.5753039" lon="31.2087449">
<ele>70.790001</ele>
<time>2026-09-01T01:22:57.000Z</time>
</trkpt>
<trkpt lat="59.5753296" lon="31.2087458">
<ele>70.790001</ele>
<time>2026-09-01T01:23:00.000Z</time>
</trkpt>
<trkpt lat="59.5753482" lon="31.2087547">
<ele>70.790001</ele>
<time>2026-09-01T01:23:01.000Z</time>
</trkpt>
<trkpt lat="59.5753658" lon="31.2087618">
<ele>70.790001</ele>
<time>2026-09-01T01:23:02.000Z</time>
</trkpt>
<trkpt lat="59.5754110" lon="31.2087886">
<ele>70.790001</ele>
<time>2026-09-01T01:23:06.000Z</time>
</trkpt>
<trkpt lat="59.5754268" lon="31.2087982">
<ele>70.790001</ele>
<time>2026-09-01T01:23:07.000Z</time>
</trkpt>
<trkpt lat="59.5754495" lon="31.2088038">
<ele>70.790001</ele>
<time>2026-09-01T01:23:10.000Z</time>
</trkpt>
<trkpt lat="59.5754655" lon="31.2088157">
<ele>70.790001</ele>
<time>2026-09-01T01:23:11.000Z</time>
</trkpt>
<trkpt lat="59.5755035" lon="31.2088531">
<ele>70.790001</ele>
<time>2026-09-01T01:23:13.000Z</time>
</trkpt>
<trkpt lat="59.5755232" lon="31.2088569">
<ele>70.790001</ele>
<time>2026-09-01T01:23:16.000Z</time>
</trkpt>
<trkpt lat="59.5755370" lon="31.2088708">
<ele>70.790001</ele>
<time>2026-09-01T01:23:17.000Z</time>
</trkpt>
<trkpt lat="59.5755527" lon="31.2088862">
<ele>70.790001</ele>
<time>2026-09-01T01:23:18.000Z</time>
</trkpt>
<trkpt lat="59.5755854" lon="31.2089098">
<ele>70.790001</ele>
<time>2026-09-01T01:23:22.000Z</time>
</trkpt>
<trkpt lat="59.5756039" lon="31.2089330">
<ele>70.790001</ele>
<time>2026-09-01T01:23:23.000Z</time>
</trkpt>
<trkpt lat="59.5756245" lon="31.2089560">
<ele>70.790001</ele>
<time>2026-09-01T01:23:24.000Z</time>
</trkpt>
<trkpt lat="59.5756491" lon="31.2089719">
<ele>70.790001</ele>
<time>2026-09-01T01:23:26.000Z</time>
</trkpt>
<trkpt lat="59.5756590" lon="31.2089810">
<ele>70.790001</ele>
<time>2026-09-01T01:23:27.000Z</time>
</trkpt>
<trkpt lat="59.5756696" lon="31.2089927">
<ele>70.790001</ele>
<time>2026-09-01T01:23:28.000Z</time>
</trkpt>
<trkpt lat="59.5756809" lon="31.2090077">
<ele>70.790001</ele>
<time>2026-09-01T01:23:29.000Z</time>
</trkpt>
<trkpt lat="59.5756931" lon="31.2090204">
<ele>70.790001</ele>
<time>2026-09-01T01:23:30.000Z</time>
</trkpt>
<trkpt lat="59.5757046" lon="31.2090295">
<ele>70.790001</ele>
<time>2026-09-01T01:23:31.000Z</time>
</trkpt>
<trkpt lat="59.5757784" lon="31.2090973">
<ele>71.269997</ele>
<time>2026-09-01T01:23:36.000Z</time>
</trkpt>
<trkpt lat="59.5758062" lon="31.2090919">
<ele>71.269997</ele>
<time>2026-09-01T01:23:40.000Z</time>
</trkpt>
<trkpt lat="59.5758243" lon="31.2091029">
<ele>71.269997</ele>
<time>2026-09-01T01:23:41.000Z</time>
</trkpt>
<trkpt lat="59.5758417" lon="31.2091103">
<ele>71.269997</ele>
<time>2026-09-01T01:23:42.000Z</time>
</trkpt>
<trkpt lat="59.5758662" lon="31.2091052">
<ele>71.269997</ele>
<time>2026-09-01T01:23:45.000Z</time>
</trkpt>
<trkpt lat="59.5758846" lon="31.2091081">
<ele>71.269997</ele>
<time>2026-09-01T01:23:46.000Z</time>
</trkpt>
<trkpt lat="59.5759050" lon="31.2091127">
<ele>71.269997</ele>
<time>2026-09-01T01:23:47.000Z</time>
</trkpt>
<trkpt lat="59.5759331" lon="31.2091080">
<ele>71.269997</ele>
<time>2026-09-01T01:23:50.000Z</time>
</trkpt>
<trkpt lat="59.5759496" lon="31.2091158">
<ele>71.269997</ele>
<time>2026-09-01T01:23:51.000Z</time>
</trkpt>
<trkpt lat="59.5759696" lon="31.2091234">
<ele>71.269997</ele>
<time>2026-09-01T01:23:52.000Z</time>
</trkpt>
<trkpt lat="59.5759898" lon="31.2091243">
<ele>71.269997</ele>
<time>2026-09-01T01:23:56.000Z</time>
</trkpt>
<trkpt lat="59.5760058" lon="31.2091231">
<ele>71.269997</ele>
<time>2026-09-01T01:23:57.000Z</time>
</trkpt>
<trkpt lat="59.5760277" lon="31.2091260">
<ele>71.269997</ele>
<time>2026-09-01T01:23:58.000Z</time>
</trkpt>
<trkpt lat="59.5760475" lon="31.2091299">
<ele>71.269997</ele>
<time>2026-09-01T01:23:59.000Z</time>
</trkpt>
<trkpt lat="59.5760977" lon="31.2091323">
<ele>71.269997</ele>
<time>2026-09-01T01:24:04.000Z</time>
</trkpt>
<trkpt lat="59.5761382" lon="31.2091431">
<ele>69.830002</ele>
<time>2026-09-01T01:24:06.000Z</time>
</trkpt>
<trkpt lat="59.5761679" lon="31.2091255">
<ele>69.349998</ele>
<time>2026-09-01T01:24:10.000Z</time>
</trkpt>
<trkpt lat="59.5761880" lon="31.2091287">
<ele>69.349998</ele>
<time>2026-09-01T01:24:11.000Z</time>
</trkpt>
<trkpt lat="59.5762113" lon="31.2091368">
<ele>69.349998</ele>
<time>2026-09-01T01:24:12.000Z</time>
</trkpt>
<trkpt lat="59.5762299" lon="31.2091419">
<ele>69.349998</ele>
<time>2026-09-01T01:24:13.000Z</time>
</trkpt>
<trkpt lat="59.5762580" lon="31.2091351">
<ele>69.349998</ele>
<time>2026-09-01T01:24:16.000Z</time>
</trkpt>
<trkpt lat="59.5762710" lon="31.2091312">
<ele>69.349998</ele>
<time>2026-09-01T01:24:17.000Z</time>
</trkpt>
<trkpt lat="59.5762855" lon="31.2091299">
<ele>69.349998</ele>
<time>2026-09-01T01:24:18.000Z</time>
</trkpt>
<trkpt lat="59.5763345" lon="31.2091194">
<ele>69.349998</ele>
<time>2026-09-01T01:24:23.000Z</time>
</trkpt>
<trkpt lat="59.5763526" lon="31.2091183">
<ele>69.349998</ele>
<time>2026-09-01T01:24:24.000Z</time>
</trkpt>
<trkpt lat="59.5763776" lon="31.2091190">
<ele>68.870003</ele>
<time>2026-09-01T01:24:25.000Z</time>
</trkpt>
<trkpt lat="59.5763987" lon="31.2091125">
<ele>68.870003</ele>
<time>2026-09-01T01:24:26.000Z</time>
</trkpt>
<trkpt lat="59.5764269" lon="31.2090799">
<ele>68.870003</ele>
<time>2026-09-01T01:24:30.000Z</time>
</trkpt>
<trkpt lat="59.5764485" lon="31.2090775">
<ele>67.909996</ele>
<time>2026-09-01T01:24:31.000Z</time>
</trkpt>
<trkpt lat="59.5764731" lon="31.2090742">
<ele>69.349998</ele>
<time>2026-09-01T01:24:32.000Z</time>
</trkpt>
<trkpt lat="59.5764911" lon="31.2090662">
<ele>69.349998</ele>
<time>2026-09-01T01:24:33.000Z</time>
</trkpt>
<trkpt lat="59.5765116" lon="31.2090463">
<ele>68.389999</ele>
<time>2026-09-01T01:24:36.000Z</time>
</trkpt>
<trkpt lat="59.5765303" lon="31.2090404">
<ele>68.389999</ele>
<time>2026-09-01T01:24:37.000Z</time>
</trkpt>
<trkpt lat="59.5765554" lon="31.2090391">
<ele>68.389999</ele>
<time>2026-09-01T01:24:38.000Z</time>
</trkpt>
<trkpt lat="59.5765740" lon="31.2090344">
<ele>68.389999</ele>
<time>2026-09-01T01:24:39.000Z</time>
</trkpt>
<trkpt lat="59.5765857" lon="31.2090275">
<ele>68.389999</ele>
<time>2026-09-01T01:24:40.000Z</time>
</trkpt>
<trkpt lat="59.5765962" lon="31.2090240">
<ele>68.389999</ele>
<time>2026-09-01T01:24:41.000Z</time>
</trkpt>
<trkpt lat="59.5766069" lon="31.2090247">
<ele>68.389999</ele>
<time>2026-09-01T01:24:42.000Z</time>
</trkpt>
<trkpt lat="59.5768144" lon="31.2088971">
<ele>68.389999</ele>
<time>2026-09-01T01:25:00.000Z</time>
</trkpt>
<trkpt lat="59.5770221" lon="31.2088152">
<ele>67.430000</ele>
<time>2026-09-01T01:25:17.000Z</time>
</trkpt>
<trkpt lat="59.5771924" lon="31.2086795">
<ele>67.430000</ele>
<time>2026-09-01T01:25:32.000Z</time>
</trkpt>
<trkpt lat="59.5772589" lon="31.2086053">
<ele>66.950005</ele>
<time>2026-09-01T01:25:38.000Z</time>
</trkpt>
<trkpt lat="59.5772672" lon="31.2085933">
<ele>66.950005</ele>
<time>2026-09-01T01:25:39.000Z</time>
</trkpt>
<trkpt lat="59.5772780" lon="31.2085805">
<ele>66.950005</ele>
<time>2026-09-01T01:25:40.000Z</time>
</trkpt>
<trkpt lat="59.5774576" lon="31.2083765">
<ele>65.510002</ele>
<time>2026-09-01T01:25:56.000Z</time>
</trkpt>
<trkpt lat="59.5774809" lon="31.2083656">
<ele>64.550003</ele>
<time>2026-09-01T01:25:58.000Z</time>
</trkpt>
<trkpt lat="59.5776546" lon="31.2083981">
<ele>64.550003</ele>
<time>2026-09-01T01:26:13.000Z</time>
</trkpt>
<trkpt lat="59.5776975" lon="31.2084303">
<ele>65.989998</ele>
<time>2026-09-01T01:26:17.000Z</time>
</trkpt>
<trkpt lat="59.5778557" lon="31.2085242">
<ele>65.989998</ele>
<time>2026-09-01T01:26:28.000Z</time>
</trkpt>
<trkpt lat="59.5778863" lon="31.2085449">
<ele>65.029999</ele>
<time>2026-09-01T01:26:35.000Z</time>
</trkpt>
<trkpt lat="59.5779018" lon="31.2085576">
<ele>65.029999</ele>
<time>2026-09-01T01:26:36.000Z</time>
</trkpt>
<trkpt lat="59.5779202" lon="31.2085720">
<ele>65.029999</ele>
<time>2026-09-01T01:26:37.000Z</time>
</trkpt>
<trkpt lat="59.5779539" lon="31.2085839">
<ele>65.029999</ele>
<time>2026-09-01T01:26:41.000Z</time>
</trkpt>
<trkpt lat="59.5779684" lon="31.2085996">
<ele>65.029999</ele>
<time>2026-09-01T01:26:42.000Z</time>
</trkpt>
<trkpt lat="59.5779887" lon="31.2086160">
<ele>65.029999</ele>
<time>2026-09-01T01:26:43.000Z</time>
</trkpt>
<trkpt lat="59.5780178" lon="31.2086455">
<ele>65.029999</ele>
<time>2026-09-01T01:26:47.000Z</time>
</trkpt>
<trkpt lat="59.5780352" lon="31.2086505">
<ele>65.029999</ele>
<time>2026-09-01T01:26:48.000Z</time>
</trkpt>
<trkpt lat="59.5780706" lon="31.2086671">
<ele>65.029999</ele>
<time>2026-09-01T01:26:52.000Z</time>
</trkpt>
<trkpt lat="59.5780863" lon="31.2086855">
<ele>65.989998</ele>
<time>2026-09-01T01:26:53.000Z</time>
</trkpt>
<trkpt lat="59.5781056" lon="31.2087085">
<ele>65.989998</ele>
<time>2026-09-01T01:26:54.000Z</time>
</trkpt>
<trkpt lat="59.5781226" lon="31.2087236">
<ele>65.989998</ele>
<time>2026-09-01T01:26:55.000Z</time>
</trkpt>
<trkpt lat="59.5781507" lon="31.2087313">
<ele>65.989998</ele>
<time>2026-09-01T01:26:58.000Z</time>
</trkpt>
<trkpt lat="59.5781649" lon="31.2087436">
<ele>65.989998</ele>
<time>2026-09-01T01:26:59.000Z</time>
</trkpt>
<trkpt lat="59.5781815" lon="31.2087623">
<ele>65.989998</ele>
<time>2026-09-01T01:27:00.000Z</time>
</trkpt>
<trkpt lat="59.5781978" lon="31.2087807">
<ele>65.989998</ele>
<time>2026-09-01T01:27:01.000Z</time>
</trkpt>
<trkpt lat="59.5782120" lon="31.2087955">
<ele>65.989998</ele>
<time>2026-09-01T01:27:02.000Z</time>
</trkpt>
<trkpt lat="59.5782427" lon="31.2088067">
<ele>65.989998</ele>
<time>2026-09-01T01:27:05.000Z</time>
</trkpt>
<trkpt lat="59.5782540" lon="31.2088288">
<ele>65.989998</ele>
<time>2026-09-01T01:27:06.000Z</time>
</trkpt>
<trkpt lat="59.5782643" lon="31.2088529">
<ele>65.989998</ele>
<time>2026-09-01T01:27:07.000Z</time>
</trkpt>
<trkpt lat="59.5782721" lon="31.2089046">
<ele>66.470001</ele>
<time>2026-09-01T01:27:10.000Z</time>
</trkpt>
<trkpt lat="59.5782603" lon="31.2090413">
<ele>66.470001</ele>
<time>2026-09-01T01:27:16.000Z</time>
</trkpt>
<trkpt lat="59.5782818" lon="31.2090784">
<ele>66.950005</ele>
<time>2026-09-01T01:27:21.000Z</time>
</trkpt>
<trkpt lat="59.5783249" lon="31.2090601">
<ele>67.909996</ele>
<time>2026-09-01T01:27:25.000Z</time>
</trkpt>
<trkpt lat="59.5783771" lon="31.2090906">
<ele>67.909996</ele>
<time>2026-09-01T01:27:30.000Z</time>
</trkpt>
<trkpt lat="59.5784262" lon="31.2090929">
<ele>67.909996</ele>
<time>2026-09-01T01:27:34.000Z</time>
</trkpt>
<trkpt lat="59.5785173" lon="31.2090011">
<ele>67.909996</ele>
<time>2026-09-01T01:27:43.000Z</time>
</trkpt>
<trkpt lat="59.5785498" lon="31.2089758">
<ele>68.389999</ele>
<time>2026-09-01T01:27:45.000Z</time>
</trkpt>
<trkpt lat="59.5785853" lon="31.2089406">
<ele>68.389999</ele>
<time>2026-09-01T01:27:49.000Z</time>
</trkpt>
<trkpt lat="59.5785935" lon="31.2089239">
<ele>68.389999</ele>
<time>2026-09-01T01:27:50.000Z</time>
</trkpt>
<trkpt lat="59.5786138" lon="31.2088783">
<ele>68.389999</ele>
<time>2026-09-01T01:27:55.000Z</time>
</trkpt>
<trkpt lat="59.5786313" lon="31.2088660">
<ele>68.389999</ele>
<time>2026-09-01T01:27:56.000Z</time>
</trkpt>
<trkpt lat="59.5786485" lon="31.2088482">
<ele>68.389999</ele>
<time>2026-09-01T01:27:57.000Z</time>
</trkpt>
<trkpt lat="59.5786611" lon="31.2088334">
<ele>68.389999</ele>
<time>2026-09-01T01:27:58.000Z</time>
</trkpt>
<trkpt lat="59.5788394" lon="31.2086982">
<ele>68.870003</ele>
<time>2026-09-01T01:28:13.000Z</time>
</trkpt>
<trkpt lat="59.5789661" lon="31.2085941">
<ele>69.830002</ele>
<time>2026-09-01T01:28:26.000Z</time>
</trkpt>
<trkpt lat="59.5790550" lon="31.2085138">
<ele>69.830002</ele>
<time>2026-09-01T01:28:36.000Z</time>
</trkpt>
<trkpt lat="59.5790664" lon="31.2085063">
<ele>69.830002</ele>
<time>2026-09-01T01:28:37.000Z</time>
</trkpt>
<trkpt lat="59.5790782" lon="31.2084952">
<ele>69.830002</ele>
<time>2026-09-01T01:28:38.000Z</time>
</trkpt>
<trkpt lat="59.5790892" lon="31.2084853">
<ele>69.830002</ele>
<time>2026-09-01T01:28:39.000Z</time>
</trkpt>
<trkpt lat="59.5791013" lon="31.2084745">
<ele>69.830002</ele>
<time>2026-09-01T01:28:40.000Z</time>
</trkpt>
<trkpt lat="59.5791146" lon="31.2084609">
<ele>69.830002</ele>
<time>2026-09-01T01:28:41.000Z</time>
</trkpt>
<trkpt lat="59.5792047" lon="31.2083761">
<ele>68.389999</ele>
<time>2026-09-01T01:28:49.000Z</time>
</trkpt>
<trkpt lat="59.5793377" lon="31.2082339">
<ele>68.389999</ele>
<time>2026-09-01T01:29:03.000Z</time>
</trkpt>
<trkpt lat="59.5794855" lon="31.2080511">
<ele>68.389999</ele>
<time>2026-09-01T01:29:17.000Z</time>
</trkpt>
<trkpt lat="59.5796698" lon="31.2078501">
<ele>68.389999</ele>
<time>2026-09-01T01:29:33.000Z</time>
</trkpt>
<trkpt lat="59.5798545" lon="31.2076518">
<ele>68.389999</ele>
<time>2026-09-01T01:29:49.000Z</time>
</trkpt>
<trkpt lat="59.5799154" lon="31.2075873">
<ele>68.389999</ele>
<time>2026-09-01T01:29:54.000Z</time>
</trkpt>
<trkpt lat="59.5799270" lon="31.2075812">
<ele>67.909996</ele>
<time>2026-09-01T01:29:55.000Z</time>
</trkpt>
<trkpt lat="59.5800956" lon="31.2073769">
<ele>67.909996</ele>
<time>2026-09-01T01:30:11.000Z</time>
</trkpt>
<trkpt lat="59.5802387" lon="31.2071700">
<ele>67.909996</ele>
<time>2026-09-01T01:30:28.000Z</time>
</trkpt>
<trkpt lat="59.5802653" lon="31.2071088">
<ele>67.909996</ele>
<time>2026-09-01T01:30:34.000Z</time>
</trkpt>
<trkpt lat="59.5803728" lon="31.2068114">
<ele>66.950005</ele>
<time>2026-09-01T01:30:50.000Z</time>
</trkpt>
<trkpt lat="59.5804194" lon="31.2067526">
<ele>65.510002</ele>
<time>2026-09-01T01:30:54.000Z</time>
</trkpt>
<trkpt lat="59.5806016" lon="31.2065378">
<ele>65.510002</ele>
<time>2026-09-01T01:31:10.000Z</time>
</trkpt>
<trkpt lat="59.5806411" lon="31.2064812">
<ele>66.950005</ele>
<time>2026-09-01T01:31:14.000Z</time>
</trkpt>
<trkpt lat="59.5807928" lon="31.2063079">
<ele>67.909996</ele>
<time>2026-09-01T01:31:29.000Z</time>
</trkpt>
<trkpt lat="59.5809270" lon="31.2061568">
<ele>68.870003</ele>
<time>2026-09-01T01:31:43.000Z</time>
</trkpt>
<trkpt lat="59.5810583" lon="31.2059918">
<ele>69.349998</ele>
<time>2026-09-01T01:31:57.000Z</time>
</trkpt>
<trkpt lat="59.5811873" lon="31.2058397">
<ele>70.310005</ele>
<time>2026-09-01T01:32:11.000Z</time>
</trkpt>
<trkpt lat="59.5811909" lon="31.2058328">
<ele>70.310005</ele>
<time>2026-09-01T01:32:12.000Z</time>
</trkpt>
<trkpt lat="59.5812150" lon="31.2058036">
<ele>70.310005</ele>
<time>2026-09-01T01:32:15.000Z</time>
</trkpt>
<trkpt lat="59.5812249" lon="31.2057927">
<ele>70.310005</ele>
<time>2026-09-01T01:32:16.000Z</time>
</trkpt>
<trkpt lat="59.5812334" lon="31.2057792">
<ele>70.310005</ele>
<time>2026-09-01T01:32:17.000Z</time>
</trkpt>
<trkpt lat="59.5812437" lon="31.2057645">
<ele>70.310005</ele>
<time>2026-09-01T01:32:18.000Z</time>
</trkpt>
<trkpt lat="59.5812540" lon="31.2057512">
<ele>70.310005</ele>
<time>2026-09-01T01:32:19.000Z</time>
</trkpt>
<trkpt lat="59.5812634" lon="31.2057388">
<ele>70.310005</ele>
<time>2026-09-01T01:32:20.000Z</time>
</trkpt>
<trkpt lat="59.5812726" lon="31.2057274">
<ele>70.310005</ele>
<time>2026-09-01T01:32:21.000Z</time>
</trkpt>
<trkpt lat="59.5812822" lon="31.2057174">
<ele>70.310005</ele>
<time>2026-09-01T01:32:22.000Z</time>
</trkpt>
<trkpt lat="59.5814395" lon="31.2055542">
<ele>70.790001</ele>
<time>2026-09-01T01:32:37.000Z</time>
</trkpt>
<trkpt lat="59.5816380" lon="31.2053472">
<ele>70.790001</ele>
<time>2026-09-01T01:32:56.000Z</time>
</trkpt>
<trkpt lat="59.5818048" lon="31.2052165">
<ele>68.870003</ele>
<time>2026-09-01T01:33:11.000Z</time>
</trkpt>
<trkpt lat="59.5818841" lon="31.2051519">
<ele>67.909996</ele>
<time>2026-09-01T01:33:19.000Z</time>
</trkpt>
<trkpt lat="59.5818907" lon="31.2051337">
<ele>67.909996</ele>
<time>2026-09-01T01:33:20.000Z</time>
</trkpt>
<trkpt lat="59.5818965" lon="31.2051156">
<ele>67.909996</ele>
<time>2026-09-01T01:33:21.000Z</time>
</trkpt>
<trkpt lat="59.5820491" lon="31.2048801">
<ele>66.950005</ele>
<time>2026-09-01T01:33:37.000Z</time>
</trkpt>
<trkpt lat="59.5821814" lon="31.2047338">
<ele>68.870003</ele>
<time>2026-09-01T01:33:50.000Z</time>
</trkpt>
<trkpt lat="59.5821736" lon="31.2047161">
<ele>68.870003</ele>
<time>2026-09-01T01:33:51.000Z</time>
</trkpt>
<trkpt lat="59.5821654" lon="31.2046980">
<ele>68.870003</ele>
<time>2026-09-01T01:33:52.000Z</time>
</trkpt>
<trkpt lat="59.5821567" lon="31.2046799">
<ele>68.870003</ele>
<time>2026-09-01T01:33:53.000Z</time>
</trkpt>
<trkpt lat="59.5821469" lon="31.2046629">
<ele>68.870003</ele>
<time>2026-09-01T01:33:54.000Z</time>
</trkpt>
<trkpt lat="59.5821368" lon="31.2046222">
<ele>69.349998</ele>
<time>2026-09-01T01:34:06.000Z</time>
</trkpt>
<trkpt lat="59.5821456" lon="31.2046376">
<ele>69.349998</ele>
<time>2026-09-01T01:34:07.000Z</time>
</trkpt>
<trkpt lat="59.5821559" lon="31.2046528">
<ele>69.349998</ele>
<time>2026-09-01T01:34:08.000Z</time>
</trkpt>
<trkpt lat="59.5821682" lon="31.2046642">
<ele>69.349998</ele>
<time>2026-09-01T01:34:09.000Z</time>
</trkpt>
<trkpt lat="59.5821811" lon="31.2046688">
<ele>69.349998</ele>
<time>2026-09-01T01:34:10.000Z</time>
</trkpt>
<trkpt lat="59.5821943" lon="31.2046686">
<ele>69.349998</ele>
<time>2026-09-01T01:34:11.000Z</time>
</trkpt>
<trkpt lat="59.5822075" lon="31.2046660">
<ele>69.349998</ele>
<time>2026-09-01T01:34:12.000Z</time>
</trkpt>
<trkpt lat="59.5822205" lon="31.2046597">
<ele>69.349998</ele>
<time>2026-09-01T01:34:13.000Z</time>
</trkpt>
<trkpt lat="59.5822322" lon="31.2046499">
<ele>69.349998</ele>
<time>2026-09-01T01:34:14.000Z</time>
</trkpt>
<trkpt lat="59.5822445" lon="31.2046402">
<ele>69.349998</ele>
<time>2026-09-01T01:34:15.000Z</time>
</trkpt>
<trkpt lat="59.5822575" lon="31.2046350">
<ele>69.349998</ele>
<time>2026-09-01T01:34:16.000Z</time>
</trkpt>
<trkpt lat="59.5823217" lon="31.2045950">
<ele>69.349998</ele>
<time>2026-09-01T01:34:23.000Z</time>
</trkpt>
<trkpt lat="59.5823311" lon="31.2045850">
<ele>69.349998</ele>
<time>2026-09-01T01:34:24.000Z</time>
</trkpt>
<trkpt lat="59.5823420" lon="31.2045766">
<ele>69.349998</ele>
<time>2026-09-01T01:34:25.000Z</time>
</trkpt>
<trkpt lat="59.5823549" lon="31.2045678">
<ele>69.349998</ele>
<time>2026-09-01T01:34:26.000Z</time>
</trkpt>
<trkpt lat="59.5823654" lon="31.2045551">
<ele>69.349998</ele>
<time>2026-09-01T01:34:27.000Z</time>
</trkpt>
<trkpt lat="59.5823771" lon="31.2045433">
<ele>69.830002</ele>
<time>2026-09-01T01:34:28.000Z</time>
</trkpt>
<trkpt lat="59.5823892" lon="31.2045308">
<ele>69.830002</ele>
<time>2026-09-01T01:34:29.000Z</time>
</trkpt>
<trkpt lat="59.5825520" lon="31.2043264">
<ele>69.830002</ele>
<time>2026-09-01T01:34:44.000Z</time>
</trkpt>
<trkpt lat="59.5827219" lon="31.2041443">
<ele>69.830002</ele>
<time>2026-09-01T01:34:59.000Z</time>
</trkpt>
<trkpt lat="59.5828189" lon="31.2040475">
<ele>69.830002</ele>
<time>2026-09-01T01:35:06.000Z</time>
</trkpt>
<trkpt lat="59.5828651" lon="31.2039916">
<ele>68.870003</ele>
<time>2026-09-01T01:35:11.000Z</time>
</trkpt>
<trkpt lat="59.5828744" lon="31.2039756">
<ele>68.870003</ele>
<time>2026-09-01T01:35:12.000Z</time>
</trkpt>
<trkpt lat="59.5830247" lon="31.2037113">
<ele>67.430000</ele>
<time>2026-09-01T01:35:28.000Z</time>
</trkpt>
<trkpt lat="59.5831694" lon="31.2034996">
<ele>67.430000</ele>
<time>2026-09-01T01:35:43.000Z</time>
</trkpt>
<trkpt lat="59.5831928" lon="31.2034527">
<ele>68.389999</ele>
<time>2026-09-01T01:35:46.000Z</time>
</trkpt>
<trkpt lat="59.5832001" lon="31.2034367">
<ele>68.389999</ele>
<time>2026-09-01T01:35:47.000Z</time>
</trkpt>
<trkpt lat="59.5832090" lon="31.2034217">
<ele>68.389999</ele>
<time>2026-09-01T01:35:48.000Z</time>
</trkpt>
<trkpt lat="59.5832192" lon="31.2034015">
<ele>68.870003</ele>
<time>2026-09-01T01:35:49.000Z</time>
</trkpt>
<trkpt lat="59.5832288" lon="31.2033837">
<ele>68.870003</ele>
<time>2026-09-01T01:35:50.000Z</time>
</trkpt>
<trkpt lat="59.5832395" lon="31.2033601">
<ele>69.349998</ele>
<time>2026-09-01T01:35:51.000Z</time>
</trkpt>
<trkpt lat="59.5832898" lon="31.2033042">
<ele>69.349998</ele>
<time>2026-09-01T01:35:56.000Z</time>
</trkpt>
<trkpt lat="59.5833113" lon="31.2032876">
<ele>69.349998</ele>
<time>2026-09-01T01:35:58.000Z</time>
</trkpt>
<trkpt lat="59.5833199" lon="31.2032705">
<ele>69.349998</ele>
<time>2026-09-01T01:35:59.000Z</time>
</trkpt>
<trkpt lat="59.5833285" lon="31.2032528">
<ele>69.349998</ele>
<time>2026-09-01T01:36:00.000Z</time>
</trkpt>
<trkpt lat="59.5833387" lon="31.2032379">
<ele>69.349998</ele>
<time>2026-09-01T01:36:01.000Z</time>
</trkpt>
<trkpt lat="59.5833500" lon="31.2032247">
<ele>69.349998</ele>
<time>2026-09-01T01:36:02.000Z</time>
</trkpt>
<trkpt lat="59.5833611" lon="31.2032153">
<ele>69.349998</ele>
<time>2026-09-01T01:36:03.000Z</time>
</trkpt>
<trkpt lat="59.5833836" lon="31.2032074">
<ele>69.349998</ele>
<time>2026-09-01T01:36:05.000Z</time>
</trkpt>
<trkpt lat="59.5835552" lon="31.2031700">
<ele>69.349998</ele>
<time>2026-09-01T01:36:20.000Z</time>
</trkpt>
<trkpt lat="59.5835623" lon="31.2031524">
<ele>69.349998</ele>
<time>2026-09-01T01:36:21.000Z</time>
</trkpt>
<trkpt lat="59.5835664" lon="31.2031317">
<ele>69.349998</ele>
<time>2026-09-01T01:36:22.000Z</time>
</trkpt>
<trkpt lat="59.5835876" lon="31.2030546">
<ele>69.349998</ele>
<time>2026-09-01T01:36:26.000Z</time>
</trkpt>
<trkpt lat="59.5836003" lon="31.2030474">
<ele>69.349998</ele>
<time>2026-09-01T01:36:27.000Z</time>
</trkpt>
<trkpt lat="59.5836225" lon="31.2030539">
<ele>68.389999</ele>
<time>2026-09-01T01:36:29.000Z</time>
</trkpt>
<trkpt lat="59.5836318" lon="31.2030696">
<ele>67.909996</ele>
<time>2026-09-01T01:36:30.000Z</time>
</trkpt>
<trkpt lat="59.5836375" lon="31.2030892">
<ele>67.909996</ele>
<time>2026-09-01T01:36:31.000Z</time>
</trkpt>
<trkpt lat="59.5836855" lon="31.2033177">
<ele>69.830002</ele>
<time>2026-09-01T01:36:46.000Z</time>
</trkpt>
<trkpt lat="59.5836799" lon="31.2033376">
<ele>69.830002</ele>
<time>2026-09-01T01:36:48.000Z</time>
</trkpt>
<trkpt lat="59.5836638" lon="31.2033901">
<ele>68.389999</ele>
<time>2026-09-01T01:36:51.000Z</time>
</trkpt>
<trkpt lat="59.5836881" lon="31.2033749">
<ele>69.830002</ele>
<time>2026-09-01T01:37:03.000Z</time>
</trkpt>
<trkpt lat="59.5836894" lon="31.2033739">
<ele>68.389999</ele>
<time>2026-09-01T01:37:06.000Z</time>
</trkpt>
<trkpt lat="59.5836913" lon="31.2033799">
<ele>68.389999</ele>
<time>2026-09-01T01:37:25.000Z</time>
</trkpt>
<trkpt lat="59.5837006" lon="31.2033737">
<ele>68.389999</ele>
<time>2026-09-01T01:37:33.000Z</time>
</trkpt>
<trkpt lat="59.5836920" lon="31.2033870">
<ele>68.389999</ele>
<time>2026-09-01T01:37:34.000Z</time>
</trkpt>
<trkpt lat="59.5836858" lon="31.2034062">
<ele>68.389999</ele>
<time>2026-09-01T01:37:35.000Z</time>
</trkpt>
<trkpt lat="59.5836856" lon="31.2034261">
<ele>68.389999</ele>
<time>2026-09-01T01:37:36.000Z</time>
</trkpt>
<trkpt lat="59.5836887" lon="31.2034442">
<ele>68.389999</ele>
<time>2026-09-01T01:37:37.000Z</time>
</trkpt>
<trkpt lat="59.5837184" lon="31.2037455">
<ele>67.430000</ele>
<time>2026-09-01T01:37:51.000Z</time>
</trkpt>
<trkpt lat="59.5837629" lon="31.2038500">
<ele>67.430000</ele>
<time>2026-09-01T01:38:07.000Z</time>
</trkpt>
<trkpt lat="59.5837650" lon="31.2038755">
<ele>66.950005</ele>
<time>2026-09-01T01:38:47.000Z</time>
</trkpt>
<trkpt lat="59.5837656" lon="31.2038547">
<ele>66.950005</ele>
<time>2026-09-01T01:39:12.000Z</time>
</trkpt>
<trkpt lat="59.5837449" lon="31.2038276">
<ele>66.950005</ele>
<time>2026-09-01T01:39:21.000Z</time>
</trkpt>
<trkpt lat="59.5837214" lon="31.2036776">
<ele>67.909996</ele>
<time>2026-09-01T01:39:29.000Z</time>
</trkpt>
<trkpt lat="59.5836898" lon="31.2034826">
<ele>68.870003</ele>
<time>2026-09-01T01:39:38.000Z</time>
</trkpt>
<trkpt lat="59.5836760" lon="31.2033607">
<ele>69.349998</ele>
<time>2026-09-01T01:39:50.000Z</time>
</trkpt>
<trkpt lat="59.5836708" lon="31.2033590">
<ele>69.349998</ele>
<time>2026-09-01T01:40:04.000Z</time>
</trkpt>
<trkpt lat="59.5836728" lon="31.2033508">
<ele>68.389999</ele>
<time>2026-09-01T01:40:17.000Z</time>
</trkpt>
<trkpt lat="59.5836722" lon="31.2033413">
<ele>68.389999</ele>
<time>2026-09-01T01:40:33.000Z</time>
</trkpt>
<trkpt lat="59.5836827" lon="31.2033455">
<ele>68.389999</ele>
<time>2026-09-01T01:40:45.000Z</time>
</trkpt>
<trkpt lat="59.5836834" lon="31.2033505">
<ele>68.389999</ele>
<time>2026-09-01T01:40:54.000Z</time>
</trkpt>
<trkpt lat="59.5836752" lon="31.2033385">
<ele>68.389999</ele>
<time>2026-09-01T01:41:18.000Z</time>
</trkpt>
<trkpt lat="59.5836756" lon="31.2033252">
<ele>68.389999</ele>
<time>2026-09-01T01:41:41.000Z</time>
</trkpt>
<trkpt lat="59.5836753" lon="31.2033186">
<ele>68.389999</ele>
<time>2026-09-01T01:41:55.000Z</time>
</trkpt>
<trkpt lat="59.5836753" lon="31.2033098">
<ele>68.389999</ele>
<time>2026-09-01T01:42:15.000Z</time>
</trkpt>
<trkpt lat="59.5836771" lon="31.2033139">
<ele>68.389999</ele>
<time>2026-09-01T01:42:24.000Z</time>
</trkpt>
<trkpt lat="59.5836770" lon="31.2033172">
<ele>68.389999</ele>
<time>2026-09-01T01:42:41.000Z</time>
</trkpt>
<trkpt lat="59.5836743" lon="31.2033098">
<ele>68.389999</ele>
<time>2026-09-01T01:43:02.000Z</time>
</trkpt>
<trkpt lat="59.5836727" lon="31.2033107">
<ele>68.389999</ele>
<time>2026-09-01T01:43:19.000Z</time>
</trkpt>
<trkpt lat="59.5836671" lon="31.2033186">
<ele>68.389999</ele>
<time>2026-09-01T01:43:35.000Z</time>
</trkpt>
<trkpt lat="59.5836652" lon="31.2033280">
<ele>68.389999</ele>
<time>2026-09-01T01:43:53.000Z</time>
</trkpt>
<trkpt lat="59.5836663" lon="31.2033292">
<ele>68.389999</ele>
<time>2026-09-01T01:44:15.000Z</time>
</trkpt>
<trkpt lat="59.5836688" lon="31.2032547">
<ele>69.830002</ele>
<time>2026-09-01T01:44:33.000Z</time>
</trkpt>
<trkpt lat="59.5836725" lon="31.2032715">
<ele>69.830002</ele>
<time>2026-09-01T01:44:54.000Z</time>
</trkpt>
<trkpt lat="59.5836716" lon="31.2032783">
<ele>69.830002</ele>
<time>2026-09-01T01:45:15.000Z</time>
</trkpt>
<trkpt lat="59.5836720" lon="31.2032814">
<ele>68.870003</ele>
<time>2026-09-01T01:45:31.000Z</time>
</trkpt>
<trkpt lat="59.5836743" lon="31.2032908">
<ele>68.870003</ele>
<time>2026-09-01T01:45:55.000Z</time>
</trkpt>
<trkpt lat="59.5836701" lon="31.2033029">
<ele>68.870003</ele>
<time>2026-09-01T01:46:17.000Z</time>
</trkpt>
<trkpt lat="59.5836696" lon="31.2032903">
<ele>68.870003</ele>
<time>2026-09-01T01:46:34.000Z</time>
</trkpt>
<trkpt lat="59.5836695" lon="31.2033020">
<ele>68.870003</ele>
<time>2026-09-01T01:46:50.000Z</time>
</trkpt>
<trkpt lat="59.5836753" lon="31.2033595">
<ele>68.870003</ele>
<time>2026-09-01T01:47:15.000Z</time>
</trkpt>
<trkpt lat="59.5836730" lon="31.2033675">
<ele>68.870003</ele>
<time>2026-09-01T01:47:31.000Z</time>
</trkpt>
<trkpt lat="59.5836701" lon="31.2033598">
<ele>68.870003</ele>
<time>2026-09-01T01:47:52.000Z</time>
</trkpt>
<trkpt lat="59.5836694" lon="31.2033502">
<ele>68.870003</ele>
<time>2026-09-01T01:48:10.000Z</time>
</trkpt>
<trkpt lat="59.5836624" lon="31.2033628">
<ele>68.870003</ele>
<time>2026-09-01T01:48:40.000Z</time>
</trkpt>
<trkpt lat="59.5836638" lon="31.2033552">
<ele>68.870003</ele>
<time>2026-09-01T01:49:01.000Z</time>
</trkpt>
<trkpt lat="59.5836593" lon="31.2033472">
<ele>68.870003</ele>
<time>2026-09-01T01:49:15.000Z</time>
</trkpt>
<trkpt lat="59.5836421" lon="31.2033300">
<ele>68.870003</ele>
<time>2026-09-01T01:49:28.000Z</time>
</trkpt>
<trkpt lat="59.5836441" lon="31.2033296">
<ele>68.870003</ele>
<time>2026-09-01T01:49:47.000Z</time>
</trkpt>
<trkpt lat="59.5836511" lon="31.2033343">
<ele>68.870003</ele>
<time>2026-09-01T01:50:13.000Z</time>
</trkpt>
</trkseg>
<trkseg>
<trkpt lat="60.0203133" lon="30.3491605">
<ele>38.209999</ele>
<time>2026-08-22T14:43:56.000Z</time>
</trkpt>
<trkpt lat="60.0203088" lon="30.3491899">
<ele>38.270000</ele>
<time>2026-08-22T14:44:14.000Z</time>
</trkpt>
<trkpt lat="60.0203763" lon="30.3490006">
<ele>38.139999</ele>
<time>2026-08-22T14:44:29.000Z</time>
</trkpt>
<trkpt lat="60.0204862" lon="30.3491104">
<ele>37.360001</ele>
<time>2026-08-22T14:44:45.000Z</time>
</trkpt>
<trkpt lat="60.0205317" lon="30.3490808">
<ele>36.810001</ele>
<time>2026-08-22T14:45:11.000Z</time>
</trkpt>
</trkseg>
<trkseg>
<trkpt lat="59.4811679" lon="31.0210330">
<ele>77.949997</ele>
<time>2026-08-31T18:39:31.000Z</time>
</trkpt>
<trkpt lat="59.4811071" lon="31.0210464">
<ele>58.430000</ele>
<time>2026-08-31T18:39:52.000Z</time>
</trkpt>
<trkpt lat="59.4810352" lon="31.0210972">
<ele>55.360001</ele>
<time>2026-08-31T18:40:16.000Z</time>
</trkpt>
<trkpt lat="59.4810347" lon="31.0211040">
<ele>54.029999</ele>
<time>2026-08-31T18:40:58.000Z</time>
</trkpt>
<trkpt lat="59.4810557" lon="31.0211208">
<ele>54.530003</ele>
<time>2026-08-31T18:41:37.000Z</time>
</trkpt>
<trkpt lat="59.4810585" lon="31.0211019">
<ele>54.969997</ele>
<time>2026-08-31T18:41:58.000Z</time>
</trkpt>
<trkpt lat="59.4810242" lon="31.0211152">
<ele>55.680000</ele>
<time>2026-08-31T18:42:26.000Z</time>
</trkpt>
<trkpt lat="59.4810503" lon="31.0210511">
<ele>58.629997</ele>
<time>2026-08-31T18:42:51.000Z</time>
</trkpt>
<trkpt lat="59.4810467" lon="31.0211101">
<ele>58.090000</ele>
<time>2026-08-31T18:43:21.000Z</time>
</trkpt>
<trkpt lat="59.4810602" lon="31.0211007">
<ele>52.810001</ele>
<time>2026-08-31T18:43:51.000Z</time>
</trkpt>
<trkpt lat="59.4810709" lon="31.0211127">
<ele>51.790001</ele>
<time>2026-08-31T18:44:15.000Z</time>
</trkpt>
<trkpt lat="59.4810423" lon="31.0211288">
<ele>54.119999</ele>
<time>2026-08-31T18:44:29.000Z</time>
</trkpt>
<trkpt lat="59.4810444" lon="31.0210641">
<ele>53.139999</ele>
<time>2026-08-31T18:44:54.000Z</time>
</trkpt>
<trkpt lat="59.4810424" lon="31.0210464">
<ele>52.360001</ele>
<time>2026-08-31T18:45:17.000Z</time>
</trkpt>
<trkpt lat="59.4811138" lon="31.0209769">
<ele>51.899998</ele>
<time>2026-08-31T18:45:31.000Z</time>
</trkpt>
<trkpt lat="59.4811096" lon="31.0210321">
<ele>50.730000</ele>
<time>2026-08-31T18:45:47.000Z</time>
</trkpt>
<trkpt lat="59.4811088" lon="31.0210608">
<ele>49.889999</ele>
<time>2026-08-31T18:46:08.000Z</time>
</trkpt>
<trkpt lat="59.4810994" lon="31.0210369">
<ele>52.119999</ele>
<time>2026-08-31T18:46:29.000Z</time>
</trkpt>
<trkpt lat="59.4810754" lon="31.0210024">
<ele>54.630001</ele>
<time>2026-08-31T18:47:02.000Z</time>
</trkpt>
<trkpt lat="59.4810735" lon="31.0210490">
<ele>54.950001</ele>
<time>2026-08-31T18:47:27.000Z</time>
</trkpt>
<trkpt lat="59.4811574" lon="31.0210842">
<ele>59.279999</ele>
<time>2026-08-31T18:47:48.000Z</time>
</trkpt>
<trkpt lat="59.4810702" lon="31.0210998">
<ele>56.939999</ele>
<time>2026-08-31T18:48:09.000Z</time>
</trkpt>
<trkpt lat="59.4810785" lon="31.0210112">
<ele>55.240002</ele>
<time>2026-08-31T18:48:20.000Z</time>
</trkpt>
<trkpt lat="59.4811044" lon="31.0209934">
<ele>55.489998</ele>
<time>2026-08-31T18:48:39.000Z</time>
</trkpt>
<trkpt lat="59.4811205" lon="31.0210081">
<ele>56.259998</ele>
<time>2026-08-31T18:49:02.000Z</time>
</trkpt>
<trkpt lat="59.4811009" lon="31.0209982">
<ele>56.029999</ele>
<time>2026-08-31T18:49:17.000Z</time>
</trkpt>
<trkpt lat="59.4810472" lon="31.0209951">
<ele>56.770000</ele>
<time>2026-08-31T18:49:34.000Z</time>
</trkpt>
<trkpt lat="59.4810736" lon="31.0209776">
<ele>56.559998</ele>
<time>2026-08-31T18:49:52.000Z</time>
</trkpt>
<trkpt lat="59.4810548" lon="31.0208982">
<ele>55.730000</ele>
<time>2026-08-31T18:50:15.000Z</time>
</trkpt>
<trkpt lat="59.4810801" lon="31.0209528">
<ele>55.459999</ele>
<time>2026-08-31T18:50:31.000Z</time>
</trkpt>
<trkpt lat="59.4810926" lon="31.0209593">
<ele>55.879997</ele>
<time>2026-08-31T18:50:51.000Z</time>
</trkpt>
<trkpt lat="59.4811065" lon="31.0209434">
<ele>54.530003</ele>
<time>2026-08-31T18:51:08.000Z</time>
</trkpt>
<trkpt lat="59.4810828" lon="31.0210361">
<ele>58.880001</ele>
<time>2026-08-31T18:51:30.000Z</time>
</trkpt>
<trkpt lat="59.4811065" lon="31.0209723">
<ele>56.760002</ele>
<time>2026-08-31T18:51:46.000Z</time>
</trkpt>
<trkpt lat="59.4811284" lon="31.0209075">
<ele>56.600002</ele>
<time>2026-08-31T18:52:10.000Z</time>
</trkpt>
<trkpt lat="59.4811296" lon="31.0208832">
<ele>51.710003</ele>
<time>2026-08-31T18:52:33.000Z</time>
</trkpt>
<trkpt lat="59.4811119" lon="31.0209160">
<ele>51.940002</ele>
<time>2026-08-31T18:52:56.000Z</time>
</trkpt>
<trkpt lat="59.4810846" lon="31.0208904">
<ele>54.259998</ele>
<time>2026-08-31T18:53:12.000Z</time>
</trkpt>
<trkpt lat="59.4810850" lon="31.0209836">
<ele>54.930000</ele>
<time>2026-08-31T18:53:34.000Z</time>
</trkpt>
<trkpt lat="59.4810766" lon="31.0209045">
<ele>55.680000</ele>
<time>2026-08-31T18:53:55.000Z</time>
</trkpt>
<trkpt lat="59.4810607" lon="31.0209584">
<ele>52.780003</ele>
<time>2026-08-31T18:54:11.000Z</time>
</trkpt>
<trkpt lat="59.4810941" lon="31.0209154">
<ele>55.049999</ele>
<time>2026-08-31T18:54:28.000Z</time>
</trkpt>
<trkpt lat="59.4811165" lon="31.0209775">
<ele>55.930000</ele>
<time>2026-08-31T18:54:45.000Z</time>
</trkpt>
<trkpt lat="59.4810979" lon="31.0209122">
<ele>54.139999</ele>
<time>2026-08-31T18:55:07.000Z</time>
</trkpt>
<trkpt lat="59.4810683" lon="31.0209300">
<ele>56.119999</ele>
<time>2026-08-31T18:55:29.000Z</time>
</trkpt>
<trkpt lat="59.4810891" lon="31.0210153">
<ele>56.779999</ele>
<time>2026-08-31T18:55:47.000Z</time>
</trkpt>
<trkpt lat="59.4810259" lon="31.0210163">
<ele>47.310001</ele>
<time>2026-08-31T18:56:04.000Z</time>
</trkpt>
<trkpt lat="59.4810099" lon="31.0210118">
<ele>49.990002</ele>
<time>2026-08-31T18:56:27.000Z</time>
</trkpt>
<trkpt lat="59.4810205" lon="31.0210045">
<ele>49.259998</ele>
<time>2026-08-31T18:56:38.000Z</time>
</trkpt>
<trkpt lat="59.4809824" lon="31.0211314">
<ele>48.370003</ele>
<time>2026-08-31T18:56:43.000Z</time>
</trkpt>
<trkpt lat="59.4808773" lon="31.0214218">
<ele>47.220001</ele>
<time>2026-08-31T18:56:58.000Z</time>
</trkpt>
<trkpt lat="59.4808359" lon="31.0214905">
<ele>47.530003</ele>
<time>2026-08-31T18:57:03.000Z</time>
</trkpt>
<trkpt lat="59.4807462" lon="31.0215545">
<ele>49.619999</ele>
<time>2026-08-31T18:57:19.000Z</time>
</trkpt>
<trkpt lat="59.4806963" lon="31.0215931">
<ele>52.439999</ele>
<time>2026-08-31T18:57:38.000Z</time>
</trkpt>
<trkpt lat="59.4806611" lon="31.0215966">
<ele>52.240002</ele>
<time>2026-08-31T18:57:43.000Z</time>
</trkpt>
<trkpt lat="59.4804349" lon="31.0220869">
<ele>50.880001</ele>
<time>2026-08-31T18:57:58.000Z</time>
</trkpt>
<trkpt lat="59.4800268" lon="31.0229776">
<ele>48.029999</ele>
<time>2026-08-31T18:58:12.000Z</time>
</trkpt>
<trkpt lat="59.4797065" lon="31.0235764">
<ele>49.020000</ele>
<time>2026-08-31T18:58:25.000Z</time>
</trkpt>
<trkpt lat="59.4793931" lon="31.0241916">
<ele>47.680000</ele>
<time>2026-08-31T18:58:36.000Z</time>
</trkpt>
<trkpt lat="59.4791629" lon="31.0242064">
<ele>48.310001</ele>
<time>2026-08-31T18:58:45.000Z</time>
</trkpt>
<trkpt lat="59.4791210" lon="31.0242011">
<ele>48.990002</ele>
<time>2026-08-31T18:59:11.000Z</time>
</trkpt>
<trkpt lat="59.4789767" lon="31.0239696">
<ele>50.520000</ele>
<time>2026-08-31T18:59:25.000Z</time>
</trkpt>
<trkpt lat="59.4786212" lon="31.0232341">
<ele>51.239998</ele>
<time>2026-08-31T18:59:35.000Z</time>
</trkpt>
<trkpt lat="59.4780639" lon="31.0220472">
<ele>50.970001</ele>
<time>2026-08-31T18:59:47.000Z</time>
</trkpt>
<trkpt lat="59.4778075" lon="31.0215101">
<ele>51.989998</ele>
<time>2026-08-31T18:59:57.000Z</time>
</trkpt>
<trkpt lat="59.4778085" lon="31.0214653">
<ele>54.000000</ele>
<time>2026-08-31T19:00:09.000Z</time>
</trkpt>
<trkpt lat="59.4777376" lon="31.0213819">
<ele>53.799999</ele>
<time>2026-08-31T19:00:12.000Z</time>
</trkpt>
<trkpt lat="59.4771398" lon="31.0203568">
<ele>53.829998</ele>
<time>2026-08-31T19:00:26.000Z</time>
</trkpt>
<trkpt lat="59.4770581" lon="31.0201932">
<ele>54.029999</ele>
<time>2026-08-31T19:00:28.000Z</time>
</trkpt>
<trkpt lat="59.4768740" lon="31.0198705">
<ele>53.270000</ele>
<time>2026-08-31T19:00:32.000Z</time>
</trkpt>
<trkpt lat="59.4762975" lon="31.0187600">
<ele>56.259998</ele>
<time>2026-08-31T19:00:43.000Z</time>
</trkpt>
<trkpt lat="59.4755840" lon="31.0172531">
<ele>67.739998</ele>
<time>2026-08-31T19:00:54.000Z</time>
</trkpt>
<trkpt lat="59.4744405" lon="31.0148374">
<ele>60.030003</ele>
<time>2026-08-31T19:01:11.000Z</time>
</trkpt>
<trkpt lat="59.4736990" lon="31.0133161">
<ele>60.550003</ele>
<time>2026-08-31T19:01:21.000Z</time>
</trkpt>
<trkpt lat="59.4734659" lon="31.0128753">
<ele>59.940002</ele>
<time>2026-08-31T19:01:24.000Z</time>
</trkpt>
<trkpt lat="59.4726332" lon="31.0122061">
<ele>59.139999</ele>
<time>2026-08-31T19:01:33.000Z</time>
</trkpt>
<trkpt lat="59.4722309" lon="31.0121511">
<ele>57.000000</ele>
<time>2026-08-31T19:01:37.000Z</time>
</trkpt>
<trkpt lat="59.4709370" lon="31.0129707">
<ele>58.320000</ele>
<time>2026-08-31T19:01:50.000Z</time>
</trkpt>
<trkpt lat="59.4697337" lon="31.0136695">
<ele>57.040001</ele>
<time>2026-08-31T19:02:04.000Z</time>
</trkpt>
<trkpt lat="59.4688307" lon="31.0141968">
<ele>55.400002</ele>
<time>2026-08-31T19:02:17.000Z</time>
</trkpt>
<trkpt lat="59.4683066" lon="31.0145339">
<ele>54.910004</ele>
<time>2026-08-31T19:02:29.000Z</time>
</trkpt>
<trkpt lat="59.4681130" lon="31.0145970">
<ele>54.110001</ele>
<time>2026-08-31T19:02:41.000Z</time>
</trkpt>
<trkpt lat="59.4681150" lon="31.0145874">
<ele>51.910000</ele>
<time>2026-08-31T19:03:32.000Z</time>
</trkpt>
<trkpt lat="59.4681030" lon="31.0145983">
<ele>52.040001</ele>
<time>2026-08-31T19:04:04.000Z</time>
</trkpt>
<trkpt lat="59.4681057" lon="31.0145630">
<ele>52.950001</ele>
<time>2026-08-31T19:05:04.000Z</time>
</trkpt>
<trkpt lat="59.4680929" lon="31.0145941">
<ele>51.119999</ele>
<time>2026-08-31T19:05:46.000Z</time>
</trkpt>
<trkpt lat="59.4680622" lon="31.0146005">
<ele>50.689999</ele>
<time>2026-08-31T19:06:14.000Z</time>
</trkpt>
<trkpt lat="59.4679742" lon="31.0145663">
<ele>50.889999</ele>
<time>2026-08-31T19:06:18.000Z</time>
</trkpt>
<trkpt lat="59.4678955" lon="31.0143500">
<ele>50.209999</ele>
<time>2026-08-31T19:06:22.000Z</time>
</trkpt>
<trkpt lat="59.4674052" lon="31.0133763">
<ele>51.110001</ele>
<time>2026-08-31T19:06:30.000Z</time>
</trkpt>
<trkpt lat="59.4670793" lon="31.0127195">
<ele>53.279999</ele>
<time>2026-08-31T19:06:39.000Z</time>
</trkpt>
<trkpt lat="59.4670920" lon="31.0127505">
<ele>53.170002</ele>
<time>2026-08-31T19:06:48.000Z</time>
</trkpt>
<trkpt lat="59.4670895" lon="31.0126890">
<ele>53.160000</ele>
<time>2026-08-31T19:06:50.000Z</time>
</trkpt>
<trkpt lat="59.4674934" lon="31.0119948">
<ele>52.230000</ele>
<time>2026-08-31T19:06:58.000Z</time>
</trkpt>
<trkpt lat="59.4683339" lon="31.0104167">
<ele>53.439999</ele>
<time>2026-08-31T19:07:09.000Z</time>
</trkpt>
<trkpt lat="59.4699249" lon="31.0074170">
<ele>50.110001</ele>
<time>2026-08-31T19:07:27.000Z</time>
</trkpt>
<trkpt lat="59.4714298" lon="31.0046586">
<ele>51.180000</ele>
<time>2026-08-31T19:07:42.000Z</time>
</trkpt>
<trkpt lat="59.4728562" lon="31.0019879">
<ele>52.759998</ele>
<time>2026-08-31T19:07:55.000Z</time>
</trkpt>
<trkpt lat="59.4742939" lon="30.9993829">
<ele>51.680000</ele>
<time>2026-08-31T19:08:08.000Z</time>
</trkpt>
<trkpt lat="59.4755644" lon="30.9970511">
<ele>53.750000</ele>
<time>2026-08-31T19:08:20.000Z</time>
</trkpt>
<trkpt lat="59.4770232" lon="30.9943351">
<ele>55.680000</ele>
<time>2026-08-31T19:08:34.000Z</time>
</trkpt>
<trkpt lat="59.4782743" lon="30.9920362">
<ele>55.310001</ele>
<time>2026-08-31T19:08:46.000Z</time>
</trkpt>
<trkpt lat="59.4794111" lon="30.9898706">
<ele>54.560001</ele>
<time>2026-08-31T19:08:57.000Z</time>
</trkpt>
<trkpt lat="59.4806321" lon="30.9876652">
<ele>54.419998</ele>
<time>2026-08-31T19:09:08.000Z</time>
</trkpt>
<trkpt lat="59.4819963" lon="30.9852504">
<ele>54.170002</ele>
<time>2026-08-31T19:09:20.000Z</time>
</trkpt>
<trkpt lat="59.4837424" lon="30.9821061">
<ele>53.610001</ele>
<time>2026-08-31T19:09:35.000Z</time>
</trkpt>
<trkpt lat="59.4855443" lon="30.9786545">
<ele>55.049999</ele>
<time>2026-08-31T19:09:51.000Z</time>
</trkpt>
<trkpt lat="59.4867732" lon="30.9764632">
<ele>57.529999</ele>
<time>2026-08-31T19:10:02.000Z</time>
</trkpt>
<trkpt lat="59.4881712" lon="30.9738564">
<ele>56.840000</ele>
<time>2026-08-31T19:10:15.000Z</time>
</trkpt>
<trkpt lat="59.4895182" lon="30.9714425">
<ele>55.830002</ele>
<time>2026-08-31T19:10:27.000Z</time>
</trkpt>
<trkpt lat="59.4907588" lon="30.9691460">
<ele>55.619999</ele>
<time>2026-08-31T19:10:38.000Z</time>
</trkpt>
<trkpt lat="59.4919070" lon="30.9670921">
<ele>55.429996</ele>
<time>2026-08-31T19:10:48.000Z</time>
</trkpt>
<trkpt lat="59.4931604" lon="30.9647621">
<ele>54.840000</ele>
<time>2026-08-31T19:10:59.000Z</time>
</trkpt>
<trkpt lat="59.4946518" lon="30.9621632">
<ele>53.490002</ele>
<time>2026-08-31T19:11:12.000Z</time>
</trkpt>
<trkpt lat="59.4964611" lon="30.9592525">
<ele>52.739998</ele>
<time>2026-08-31T19:11:27.000Z</time>
</trkpt>
<trkpt lat="59.4980582" lon="30.9561781">
<ele>51.369999</ele>
<time>2026-08-31T19:11:41.000Z</time>
</trkpt>
<trkpt lat="59.4994370" lon="30.9536072">
<ele>54.480000</ele>
<time>2026-08-31T19:11:53.000Z</time>
</trkpt>
<trkpt lat="59.5052020" lon="30.9434416">
<ele>46.889999</ele>
<time>2026-08-31T19:12:42.000Z</time>
</trkpt>
<trkpt lat="59.5053629" lon="30.9432560">
<ele>47.110001</ele>
<time>2026-08-31T19:12:43.000Z</time>
</trkpt>
<trkpt lat="59.5067384" lon="30.9404133">
<ele>45.390003</ele>
<time>2026-08-31T19:12:54.000Z</time>
</trkpt>
<trkpt lat="59.5083474" lon="30.9374221">
<ele>42.660000</ele>
<time>2026-08-31T19:13:07.000Z</time>
</trkpt>
<trkpt lat="59.5095378" lon="30.9354241">
<ele>45.049999</ele>
<time>2026-08-31T19:13:15.000Z</time>
</trkpt>
<trkpt lat="59.5114176" lon="30.9318533">
<ele>44.309998</ele>
<time>2026-08-31T19:13:29.000Z</time>
</trkpt>
<trkpt lat="59.5129833" lon="30.9288985">
<ele>41.209999</ele>
<time>2026-08-31T19:13:40.000Z</time>
</trkpt>
<trkpt lat="59.5162562" lon="30.9230320">
<ele>39.329998</ele>
<time>2026-08-31T19:14:02.000Z</time>
</trkpt>
<trkpt lat="59.5184339" lon="30.9190824">
<ele>38.970001</ele>
<time>2026-08-31T19:14:17.000Z</time>
</trkpt>
<trkpt lat="59.5201165" lon="30.9158928">
<ele>37.079998</ele>
<time>2026-08-31T19:14:29.000Z</time>
</trkpt>
<trkpt lat="59.5214867" lon="30.9131178">
<ele>40.290001</ele>
<time>2026-08-31T19:14:39.000Z</time>
</trkpt>
<trkpt lat="59.5229448" lon="30.9103747">
<ele>37.939999</ele>
<time>2026-08-31T19:14:51.000Z</time>
</trkpt>
<trkpt lat="59.5244341" lon="30.9077344">
<ele>36.560001</ele>
<time>2026-08-31T19:15:04.000Z</time>
</trkpt>
<trkpt lat="59.5256948" lon="30.9054023">
<ele>34.869999</ele>
<time>2026-08-31T19:15:15.000Z</time>
</trkpt>
<trkpt lat="59.5269720" lon="30.9029469">
<ele>37.959999</ele>
<time>2026-08-31T19:15:27.000Z</time>
</trkpt>
<trkpt lat="59.5285220" lon="30.9000439">
<ele>34.989998</ele>
<time>2026-08-31T19:15:41.000Z</time>
</trkpt>
<trkpt lat="59.5298685" lon="30.8974482">
<ele>34.320000</ele>
<time>2026-08-31T19:15:53.000Z</time>
</trkpt>
<trkpt lat="59.5313537" lon="30.8948363">
<ele>32.969997</ele>
<time>2026-08-31T19:16:06.000Z</time>
</trkpt>
<trkpt lat="59.5325767" lon="30.8926223">
<ele>32.669998</ele>
<time>2026-08-31T19:16:17.000Z</time>
</trkpt>
<trkpt lat="59.5340805" lon="30.8899304">
<ele>32.500000</ele>
<time>2026-08-31T19:16:31.000Z</time>
</trkpt>
<trkpt lat="59.5355346" lon="30.8871637">
<ele>31.990002</ele>
<time>2026-08-31T19:16:45.000Z</time>
</trkpt>
<trkpt lat="59.5365877" lon="30.8853268">
<ele>30.869999</ele>
<time>2026-08-31T19:16:55.000Z</time>
</trkpt>
<trkpt lat="59.5377292" lon="30.8831158">
<ele>30.490000</ele>
<time>2026-08-31T19:17:06.000Z</time>
</trkpt>
<trkpt lat="59.5389156" lon="30.8810504">
<ele>29.570000</ele>
<time>2026-08-31T19:17:17.000Z</time>
</trkpt>
<trkpt lat="59.5398851" lon="30.8792330">
<ele>28.680000</ele>
<time>2026-08-31T19:17:28.000Z</time>
</trkpt>
<trkpt lat="59.5402860" lon="30.8783592">
<ele>29.580000</ele>
<time>2026-08-31T19:17:36.000Z</time>
</trkpt>
<trkpt lat="59.5403382" lon="30.8783548">
<ele>30.080002</ele>
<time>2026-08-31T19:17:45.000Z</time>
</trkpt>
<trkpt lat="59.5403220" lon="30.8783559">
<ele>30.160002</ele>
<time>2026-08-31T19:18:09.000Z</time>
</trkpt>
<trkpt lat="59.5403446" lon="30.8782932">
<ele>26.010000</ele>
<time>2026-08-31T19:18:30.000Z</time>
</trkpt>
<trkpt lat="59.5404006" lon="30.8781524">
<ele>25.570000</ele>
<time>2026-08-31T19:18:33.000Z</time>
</trkpt>
<trkpt lat="59.5406762" lon="30.8776243">
<ele>24.150000</ele>
<time>2026-08-31T19:18:39.000Z</time>
</trkpt>
<trkpt lat="59.5416215" lon="30.8759865">
<ele>24.980001</ele>
<time>2026-08-31T19:18:51.000Z</time>
</trkpt>
<trkpt lat="59.5425741" lon="30.8742217">
<ele>25.320002</ele>
<time>2026-08-31T19:19:02.000Z</time>
</trkpt>
<trkpt lat="59.5439248" lon="30.8717440">
<ele>28.469999</ele>
<time>2026-08-31T19:19:18.000Z</time>
</trkpt>
<trkpt lat="59.5521407" lon="30.8855029">
<ele>13.570000</ele>
<time>2026-08-31T19:21:04.000Z</time>
</trkpt>
<trkpt lat="59.5531044" lon="30.8885545">
<ele>26.299999</ele>
<time>2026-08-31T19:21:16.000Z</time>
</trkpt>
<trkpt lat="59.5541490" lon="30.8918237">
<ele>24.199999</ele>
<time>2026-08-31T19:21:29.000Z</time>
</trkpt>
<trkpt lat="59.5550180" lon="30.8946078">
<ele>21.030001</ele>
<time>2026-08-31T19:21:40.000Z</time>
</trkpt>
<trkpt lat="59.5562490" lon="30.8983716">
<ele>23.430000</ele>
<time>2026-08-31T19:21:55.000Z</time>
</trkpt>
<trkpt lat="59.5571864" lon="30.9011282">
<ele>26.010000</ele>
<time>2026-08-31T19:22:06.000Z</time>
</trkpt>
<trkpt lat="59.5582706" lon="30.9042575">
<ele>24.410000</ele>
<time>2026-08-31T19:22:19.000Z</time>
</trkpt>
<trkpt lat="59.5592919" lon="30.9072438">
<ele>24.779999</ele>
<time>2026-08-31T19:22:32.000Z</time>
</trkpt>
<trkpt lat="59.5598804" lon="30.9091813">
<ele>24.010000</ele>
<time>2026-08-31T19:22:40.000Z</time>
</trkpt>
<trkpt lat="59.5602970" lon="30.9122587">
<ele>24.140001</ele>
<time>2026-08-31T19:22:51.000Z</time>
</trkpt>
<trkpt lat="59.5603658" lon="30.9137303">
<ele>24.199999</ele>
<time>2026-08-31T19:22:56.000Z</time>
</trkpt>
<trkpt lat="59.5598986" lon="30.9183159">
<ele>22.559999</ele>
<time>2026-08-31T19:23:10.000Z</time>
</trkpt>
<trkpt lat="59.5588637" lon="30.9303807">
<ele>26.250000</ele>
<time>2026-08-31T19:23:45.000Z</time>
</trkpt>
<trkpt lat="59.5584170" lon="30.9352534">
<ele>26.750000</ele>
<time>2026-08-31T19:23:59.000Z</time>
</trkpt>
<trkpt lat="59.5581401" lon="30.9385622">
<ele>27.580000</ele>
<time>2026-08-31T19:24:09.000Z</time>
</trkpt>
<trkpt lat="59.5577891" lon="30.9421182">
<ele>27.460001</ele>
<time>2026-08-31T19:24:20.000Z</time>
</trkpt>
<trkpt lat="59.5575505" lon="30.9458910">
<ele>28.460001</ele>
<time>2026-08-31T19:24:32.000Z</time>
</trkpt>
<trkpt lat="59.5576965" lon="30.9502215">
<ele>24.910000</ele>
<time>2026-08-31T19:24:45.000Z</time>
</trkpt>
<trkpt lat="59.5578142" lon="30.9538797">
<ele>31.250000</ele>
<time>2026-08-31T19:24:56.000Z</time>
</trkpt>
<trkpt lat="59.5579411" lon="30.9577331">
<ele>35.470001</ele>
<time>2026-08-31T19:25:07.000Z</time>
</trkpt>
<trkpt lat="59.5580181" lon="30.9620043">
<ele>36.919998</ele>
<time>2026-08-31T19:25:19.000Z</time>
</trkpt>
<trkpt lat="59.5581364" lon="30.9652649">
<ele>39.119999</ele>
<time>2026-08-31T19:25:28.000Z</time>
</trkpt>
<trkpt lat="59.5582333" lon="30.9697804">
<ele>38.820000</ele>
<time>2026-08-31T19:25:41.000Z</time>
</trkpt>
<trkpt lat="59.5584470" lon="30.9777760">
<ele>38.070000</ele>
<time>2026-08-31T19:26:03.000Z</time>
</trkpt>
<trkpt lat="59.5585317" lon="30.9822464">
<ele>39.830002</ele>
<time>2026-08-31T19:26:15.000Z</time>
</trkpt>
<trkpt lat="59.5585675" lon="30.9865901">
<ele>40.570000</ele>
<time>2026-08-31T19:26:26.000Z</time>
</trkpt>
<trkpt lat="59.5586837" lon="30.9908885">
<ele>40.549999</ele>
<time>2026-08-31T19:26:37.000Z</time>
</trkpt>
<trkpt lat="59.5587429" lon="30.9938155">
<ele>38.000000</ele>
<time>2026-08-31T19:26:45.000Z</time>
</trkpt>
<trkpt lat="59.5588217" lon="30.9970921">
<ele>39.389999</ele>
<time>2026-08-31T19:26:55.000Z</time>
</trkpt>
<trkpt lat="59.5589826" lon="31.0014931">
<ele>42.520000</ele>
<time>2026-08-31T19:27:07.000Z</time>
</trkpt>
<trkpt lat="59.5590710" lon="31.0064703">
<ele>42.759998</ele>
<time>2026-08-31T19:27:21.000Z</time>
</trkpt>
<trkpt lat="59.5591349" lon="31.0083721">
<ele>43.619999</ele>
<time>2026-08-31T19:27:28.000Z</time>
</trkpt>
<trkpt lat="59.5591287" lon="31.0101057">
<ele>42.919998</ele>
<time>2026-08-31T19:27:38.000Z</time>
</trkpt>
<trkpt lat="59.5589720" lon="31.0125179">
<ele>46.600002</ele>
<time>2026-08-31T19:27:52.000Z</time>
</trkpt>
<trkpt lat="59.5590165" lon="31.0137668">
<ele>47.799999</ele>
<time>2026-08-31T19:28:02.000Z</time>
</trkpt>
<trkpt lat="59.5590245" lon="31.0139170">
<ele>47.910000</ele>
<time>2026-08-31T19:28:03.000Z</time>
</trkpt>
<trkpt lat="59.5591578" lon="31.0145890">
<ele>48.320000</ele>
<time>2026-08-31T19:28:07.000Z</time>
</trkpt>
<trkpt lat="59.5600608" lon="31.0166646">
<ele>47.869999</ele>
<time>2026-08-31T19:28:18.000Z</time>
</trkpt>
<trkpt lat="59.5610145" lon="31.0192053">
<ele>47.740002</ele>
<time>2026-08-31T19:28:29.000Z</time>
</trkpt>
<trkpt lat="59.5613639" lon="31.0209718">
<ele>46.639999</ele>
<time>2026-08-31T19:28:37.000Z</time>
</trkpt>
<trkpt lat="59.5615246" lon="31.0224689">
<ele>48.180000</ele>
<time>2026-08-31T19:28:47.000Z</time>
</trkpt>
<trkpt lat="59.5616949" lon="31.0244855">
<ele>48.360001</ele>
<time>2026-08-31T19:28:57.000Z</time>
</trkpt>
<trkpt lat="59.5620384" lon="31.0268730">
<ele>47.959999</ele>
<time>2026-08-31T19:29:09.000Z</time>
</trkpt>
<trkpt lat="59.5623671" lon="31.0292777">
<ele>48.180000</ele>
<time>2026-08-31T19:29:20.000Z</time>
</trkpt>
<trkpt lat="59.5626477" lon="31.0317719">
<ele>48.090000</ele>
<time>2026-08-31T19:29:31.000Z</time>
</trkpt>
<trkpt lat="59.5630098" lon="31.0343579">
<ele>45.480000</ele>
<time>2026-08-31T19:29:43.000Z</time>
</trkpt>
<trkpt lat="59.5632845" lon="31.0363160">
<ele>44.910000</ele>
<time>2026-08-31T19:29:54.000Z</time>
</trkpt>
<trkpt lat="59.5636697" lon="31.0397829">
<ele>45.240002</ele>
<time>2026-08-31T19:30:08.000Z</time>
</trkpt>
<trkpt lat="59.5641628" lon="31.0437291">
<ele>45.560001</ele>
<time>2026-08-31T19:30:22.000Z</time>
</trkpt>
<trkpt lat="59.5646944" lon="31.0478054">
<ele>45.250000</ele>
<time>2026-08-31T19:30:36.000Z</time>
</trkpt>
<trkpt lat="59.5651223" lon="31.0515366">
<ele>45.639999</ele>
<time>2026-08-31T19:30:49.000Z</time>
</trkpt>
<trkpt lat="59.5655826" lon="31.0551642">
<ele>45.669998</ele>
<time>2026-08-31T19:31:03.000Z</time>
</trkpt>
<trkpt lat="59.5660385" lon="31.0587363">
<ele>45.909996</ele>
<time>2026-08-31T19:31:15.000Z</time>
</trkpt>
<trkpt lat="59.5664768" lon="31.0622177">
<ele>45.100002</ele>
<time>2026-08-31T19:31:27.000Z</time>
</trkpt>
<trkpt lat="59.5670630" lon="31.0667692">
<ele>45.360001</ele>
<time>2026-08-31T19:31:42.000Z</time>
</trkpt>
<trkpt lat="59.5674909" lon="31.0707775">
<ele>42.790001</ele>
<time>2026-08-31T19:31:54.000Z</time>
</trkpt>
<trkpt lat="59.5679842" lon="31.0745981">
<ele>43.430000</ele>
<time>2026-08-31T19:32:06.000Z</time>
</trkpt>
<trkpt lat="59.5685590" lon="31.0788212">
<ele>46.040001</ele>
<time>2026-08-31T19:32:18.000Z</time>
</trkpt>
<trkpt lat="59.5690886" lon="31.0828829">
<ele>45.250000</ele>
<time>2026-08-31T19:32:29.000Z</time>
</trkpt>
<trkpt lat="59.5710607" lon="31.0984083">
<ele>46.310001</ele>
<time>2026-08-31T19:33:11.000Z</time>
</trkpt>
<trkpt lat="59.5741795" lon="31.1226487">
<ele>39.779999</ele>
<time>2026-08-31T19:34:09.000Z</time>
</trkpt>
<trkpt lat="59.5748739" lon="31.1282155">
<ele>40.200001</ele>
<time>2026-08-31T19:34:22.000Z</time>
</trkpt>
<trkpt lat="59.5755498" lon="31.1341343">
<ele>48.960003</ele>
<time>2026-08-31T19:34:36.000Z</time>
</trkpt>
<trkpt lat="59.5762729" lon="31.1399202">
<ele>53.310001</ele>
<time>2026-08-31T19:34:50.000Z</time>
</trkpt>
<trkpt lat="59.5767318" lon="31.1437297">
<ele>56.329998</ele>
<time>2026-08-31T19:35:00.000Z</time>
</trkpt>
<trkpt lat="59.5779763" lon="31.1539589">
<ele>51.299999</ele>
<time>2026-08-31T19:35:27.000Z</time>
</trkpt>
<trkpt lat="59.5786380" lon="31.1589231">
<ele>46.720001</ele>
<time>2026-08-31T19:35:40.000Z</time>
</trkpt>
<trkpt lat="59.5791045" lon="31.1623444">
<ele>42.090000</ele>
<time>2026-08-31T19:35:49.000Z</time>
</trkpt>
<trkpt lat="59.5795557" lon="31.1662100">
<ele>48.499996</ele>
<time>2026-08-31T19:36:01.000Z</time>
</trkpt>
<trkpt lat="59.5799389" lon="31.1699532">
<ele>50.770000</ele>
<time>2026-08-31T19:36:13.000Z</time>
</trkpt>
<trkpt lat="59.5799364" lon="31.1702458">
<ele>50.800003</ele>
<time>2026-08-31T19:36:14.000Z</time>
</trkpt>
<trkpt lat="59.5796244" lon="31.1744433">
<ele>46.700001</ele>
<time>2026-08-31T19:36:27.000Z</time>
</trkpt>
<trkpt lat="59.5790042" lon="31.1800507">
<ele>44.989998</ele>
<time>2026-08-31T19:36:44.000Z</time>
</trkpt>
<trkpt lat="59.5788345" lon="31.1843989">
<ele>42.110001</ele>
<time>2026-08-31T19:36:57.000Z</time>
</trkpt>
<trkpt lat="59.5792456" lon="31.1887786">
<ele>43.270000</ele>
<time>2026-08-31T19:37:12.000Z</time>
</trkpt>
<trkpt lat="59.5798038" lon="31.1915562">
<ele>46.020000</ele>
<time>2026-08-31T19:37:22.000Z</time>
</trkpt>
<trkpt lat="59.5806693" lon="31.1940429">
<ele>44.959999</ele>
<time>2026-08-31T19:37:32.000Z</time>
</trkpt>
<trkpt lat="59.5819159" lon="31.1965594">
<ele>43.689999</ele>
<time>2026-08-31T19:37:44.000Z</time>
</trkpt>
<trkpt lat="59.5833096" lon="31.1993964">
<ele>43.020000</ele>
<time>2026-08-31T19:37:57.000Z</time>
</trkpt>
<trkpt lat="59.5848066" lon="31.2023245">
<ele>48.070000</ele>
<time>2026-08-31T19:38:09.000Z</time>
</trkpt>
<trkpt lat="59.5874698" lon="31.2073467">
<ele>59.929996</ele>
<time>2026-08-31T19:38:29.000Z</time>
</trkpt>
<trkpt lat="59.5894046" lon="31.2114983">
<ele>65.699997</ele>
<time>2026-08-31T19:38:46.000Z</time>
</trkpt>
<trkpt lat="59.5898443" lon="31.2126690">
<ele>61.880001</ele>
<time>2026-08-31T19:38:52.000Z</time>
</trkpt>
<trkpt lat="59.5898753" lon="31.2133281">
<ele>60.110001</ele>
<time>2026-08-31T19:38:57.000Z</time>
</trkpt>
<trkpt lat="59.5893072" lon="31.2141671">
<ele>59.290001</ele>
<time>2026-08-31T19:39:04.000Z</time>
</trkpt>
<trkpt lat="59.5882020" lon="31.2158136">
<ele>64.089996</ele>
<time>2026-08-31T19:39:14.000Z</time>
</trkpt>
<trkpt lat="59.5864383" lon="31.2171495">
<ele>61.679996</ele>
<time>2026-08-31T19:39:26.000Z</time>
</trkpt>
<trkpt lat="59.5856764" lon="31.2176669">
<ele>60.759998</ele>
<time>2026-08-31T19:39:31.000Z</time>
</trkpt>
<trkpt lat="59.5853740" lon="31.2178935">
<ele>60.529999</ele>
<time>2026-08-31T19:39:33.000Z</time>
</trkpt>
<trkpt lat="59.5839095" lon="31.2194874">
<ele>60.290001</ele>
<time>2026-08-31T19:39:43.000Z</time>
</trkpt>
<trkpt lat="59.5825539" lon="31.2217389">
<ele>62.129997</ele>
<time>2026-08-31T19:39:53.000Z</time>
</trkpt>
<trkpt lat="59.5811138" lon="31.2249860">
<ele>63.619999</ele>
<time>2026-08-31T19:40:06.000Z</time>
</trkpt>
<trkpt lat="59.5798608" lon="31.2277569">
<ele>64.250000</ele>
<time>2026-08-31T19:40:17.000Z</time>
</trkpt>
<trkpt lat="59.5785717" lon="31.2298619">
<ele>64.900002</ele>
<time>2026-08-31T19:40:27.000Z</time>
</trkpt>
<trkpt lat="59.5775452" lon="31.2319802">
<ele>68.010002</ele>
<time>2026-08-31T19:40:36.000Z</time>
</trkpt>
<trkpt lat="59.5766365" lon="31.2353917">
<ele>68.550003</ele>
<time>2026-08-31T19:40:47.000Z</time>
</trkpt>
<trkpt lat="59.5757345" lon="31.2385880">
<ele>67.879997</ele>
<time>2026-08-31T19:40:58.000Z</time>
</trkpt>
<trkpt lat="59.5746361" lon="31.2422218">
<ele>66.900002</ele>
<time>2026-08-31T19:41:10.000Z</time>
</trkpt>
<trkpt lat="59.5740875" lon="31.2433929">
<ele>67.089996</ele>
<time>2026-08-31T19:41:15.000Z</time>
</trkpt>
<trkpt lat="59.5736808" lon="31.2442702">
<ele>68.090004</ele>
<time>2026-08-31T19:41:19.000Z</time>
</trkpt>
<trkpt lat="59.5721697" lon="31.2466962">
<ele>65.860001</ele>
<time>2026-08-31T19:41:31.000Z</time>
</trkpt>
<trkpt lat="59.5701168" lon="31.2493981">
<ele>65.290001</ele>
<time>2026-08-31T19:41:46.000Z</time>
</trkpt>
<trkpt lat="59.5685378" lon="31.2502892">
<ele>63.760002</ele>
<time>2026-08-31T19:41:56.000Z</time>
</trkpt>
<trkpt lat="59.5673037" lon="31.2512328">
<ele>65.590004</ele>
<time>2026-08-31T19:42:04.000Z</time>
</trkpt>
<trkpt lat="59.5665443" lon="31.2524986">
<ele>62.969997</ele>
<time>2026-08-31T19:42:10.000Z</time>
</trkpt>
<trkpt lat="59.5655574" lon="31.2551993">
<ele>67.139999</ele>
<time>2026-08-31T19:42:20.000Z</time>
</trkpt>
<trkpt lat="59.5651637" lon="31.2558895">
<ele>66.360001</ele>
<time>2026-08-31T19:42:23.000Z</time>
</trkpt>
<trkpt lat="59.5638676" lon="31.2570212">
<ele>64.810005</ele>
<time>2026-08-31T19:42:31.000Z</time>
</trkpt>
<trkpt lat="59.5620390" lon="31.2576889">
<ele>66.699997</ele>
<time>2026-08-31T19:42:41.000Z</time>
</trkpt>
<trkpt lat="59.5603185" lon="31.2576250">
<ele>65.159996</ele>
<time>2026-08-31T19:42:50.000Z</time>
</trkpt>
<trkpt lat="59.5584233" lon="31.2576539">
<ele>66.570000</ele>
<time>2026-08-31T19:43:00.000Z</time>
</trkpt>
<trkpt lat="59.5571260" lon="31.2590027">
<ele>65.949997</ele>
<time>2026-08-31T19:43:09.000Z</time>
</trkpt>
<trkpt lat="59.5552681" lon="31.2611318">
<ele>65.559998</ele>
<time>2026-08-31T19:43:22.000Z</time>
</trkpt>
<trkpt lat="59.5538017" lon="31.2617893">
<ele>66.169998</ele>
<time>2026-08-31T19:43:31.000Z</time>
</trkpt>
<trkpt lat="59.5529940" lon="31.2617568">
<ele>65.660004</ele>
<time>2026-08-31T19:43:36.000Z</time>
</trkpt>
<trkpt lat="59.5527027" lon="31.2616755">
<ele>64.980003</ele>
<time>2026-08-31T19:43:38.000Z</time>
</trkpt>
<trkpt lat="59.5519962" lon="31.2610934">
<ele>61.010002</ele>
<time>2026-08-31T19:43:43.000Z</time>
</trkpt>
<trkpt lat="59.5505049" lon="31.2587975">
<ele>66.449997</ele>
<time>2026-08-31T19:43:55.000Z</time>
</trkpt>
<trkpt lat="59.5490743" lon="31.2569558">
<ele>66.930000</ele>
<time>2026-08-31T19:44:06.000Z</time>
</trkpt>
<trkpt lat="59.5476424" lon="31.2556692">
<ele>62.250000</ele>
<time>2026-08-31T19:44:17.000Z</time>
</trkpt>
<trkpt lat="59.5459817" lon="31.2552420">
<ele>62.950001</ele>
<time>2026-08-31T19:44:28.000Z</time>
</trkpt>
<trkpt lat="59.5440474" lon="31.2548408">
<ele>63.750000</ele>
<time>2026-08-31T19:44:41.000Z</time>
</trkpt>
<trkpt lat="59.5423897" lon="31.2545664">
<ele>64.089996</ele>
<time>2026-08-31T19:44:52.000Z</time>
</trkpt>
<trkpt lat="59.5410518" lon="31.2543069">
<ele>65.790001</ele>
<time>2026-08-31T19:45:02.000Z</time>
</trkpt>
<trkpt lat="59.5404102" lon="31.2539314">
<ele>67.279999</ele>
<time>2026-08-31T19:45:07.000Z</time>
</trkpt>
<trkpt lat="59.5389586" lon="31.2523116">
<ele>66.529999</ele>
<time>2026-08-31T19:45:19.000Z</time>
</trkpt>
<trkpt lat="59.5378738" lon="31.2511478">
<ele>66.690002</ele>
<time>2026-08-31T19:45:29.000Z</time>
</trkpt>
<trkpt lat="59.5364565" lon="31.2497355">
<ele>65.180000</ele>
<time>2026-08-31T19:45:41.000Z</time>
</trkpt>
<trkpt lat="59.5351749" lon="31.2490644">
<ele>62.700001</ele>
<time>2026-08-31T19:45:51.000Z</time>
</trkpt>
<trkpt lat="59.5341960" lon="31.2490487">
<ele>62.199997</ele>
<time>2026-08-31T19:46:00.000Z</time>
</trkpt>
<trkpt lat="59.5340442" lon="31.2488652">
<ele>61.650002</ele>
<time>2026-08-31T19:46:04.000Z</time>
</trkpt>
<trkpt lat="59.5340661" lon="31.2482499">
<ele>55.900002</ele>
<time>2026-08-31T19:46:14.000Z</time>
</trkpt>
<trkpt lat="59.5340094" lon="31.2477015">
<ele>53.279999</ele>
<time>2026-08-31T19:46:22.000Z</time>
</trkpt>
<trkpt lat="59.5339339" lon="31.2472392">
<ele>55.570000</ele>
<time>2026-08-31T19:46:31.000Z</time>
</trkpt>
<trkpt lat="59.5338737" lon="31.2468195">
<ele>57.139999</ele>
<time>2026-08-31T19:46:38.000Z</time>
</trkpt>
<trkpt lat="59.5338219" lon="31.2459716">
<ele>54.779999</ele>
<time>2026-08-31T19:46:51.000Z</time>
</trkpt>
<trkpt lat="59.5336417" lon="31.2448516">
<ele>56.269997</ele>
<time>2026-08-31T19:47:06.000Z</time>
</trkpt>
<trkpt lat="59.5335816" lon="31.2441190">
<ele>56.029999</ele>
<time>2026-08-31T19:47:19.000Z</time>
</trkpt>
<trkpt lat="59.5335660" lon="31.2433767">
<ele>55.869999</ele>
<time>2026-08-31T19:47:33.000Z</time>
</trkpt>
<trkpt lat="59.5335861" lon="31.2430275">
<ele>57.339996</ele>
<time>2026-08-31T19:47:39.000Z</time>
</trkpt>
<trkpt lat="59.5336469" lon="31.2427195">
<ele>53.799999</ele>
<time>2026-08-31T19:47:48.000Z</time>
</trkpt>
<trkpt lat="59.5340586" lon="31.2426547">
<ele>54.010002</ele>
<time>2026-08-31T19:48:00.000Z</time>
</trkpt>
<trkpt lat="59.5344818" lon="31.2425703">
<ele>52.989998</ele>
<time>2026-08-31T19:48:12.000Z</time>
</trkpt>
<trkpt lat="59.5348258" lon="31.2424507">
<ele>53.829998</ele>
<time>2026-08-31T19:48:23.000Z</time>
</trkpt>
<trkpt lat="59.5348519" lon="31.2424413">
<ele>53.059998</ele>
<time>2026-08-31T19:48:24.000Z</time>
</trkpt>
<trkpt lat="59.5348882" lon="31.2421330">
<ele>53.260002</ele>
<time>2026-08-31T19:48:30.000Z</time>
</trkpt>
<trkpt lat="59.5348112" lon="31.2411630">
<ele>51.079998</ele>
<time>2026-08-31T19:48:44.000Z</time>
</trkpt>
<trkpt lat="59.5346923" lon="31.2405038">
<ele>52.049999</ele>
<time>2026-08-31T19:48:55.000Z</time>
</trkpt>
<trkpt lat="59.5343168" lon="31.2397470">
<ele>49.360001</ele>
<time>2026-08-31T19:49:09.000Z</time>
</trkpt>
<trkpt lat="59.5338485" lon="31.2386982">
<ele>51.000000</ele>
<time>2026-08-31T19:49:26.000Z</time>
</trkpt>
<trkpt lat="59.5337225" lon="31.2383571">
<ele>50.750000</ele>
<time>2026-08-31T19:49:32.000Z</time>
</trkpt>
<trkpt lat="59.5334930" lon="31.2378538">
<ele>47.549999</ele>
<time>2026-08-31T19:49:43.000Z</time>
</trkpt>
<trkpt lat="59.5331917" lon="31.2371443">
<ele>44.149998</ele>
<time>2026-08-31T19:49:56.000Z</time>
</trkpt>
<trkpt lat="59.5329290" lon="31.2364297">
<ele>42.699997</ele>
<time>2026-08-31T19:50:09.000Z</time>
</trkpt>
<trkpt lat="59.5328110" lon="31.2361236">
<ele>39.970001</ele>
<time>2026-08-31T19:50:24.000Z</time>
</trkpt>
<trkpt lat="59.5327730" lon="31.2360195">
<ele>40.380001</ele>
<time>2026-08-31T19:50:51.000Z</time>
</trkpt>
<trkpt lat="59.5327829" lon="31.2361289">
<ele>42.399998</ele>
<time>2026-08-31T19:51:14.000Z</time>
</trkpt>
<trkpt lat="59.5327918" lon="31.2361466">
<ele>44.889999</ele>
<time>2026-08-31T19:51:39.000Z</time>
</trkpt>
<trkpt lat="59.5327816" lon="31.2361183">
<ele>44.540001</ele>
<time>2026-08-31T19:52:01.000Z</time>
</trkpt>
<trkpt lat="59.5328066" lon="31.2361098">
<ele>44.570000</ele>
<time>2026-08-31T19:52:30.000Z</time>
</trkpt>
<trkpt lat="59.5327740" lon="31.2360280">
<ele>44.299999</ele>
<time>2026-08-31T19:53:02.000Z</time>
</trkpt>
<trkpt lat="59.5327239" lon="31.2359382">
<ele>44.040001</ele>
<time>2026-08-31T19:53:31.000Z</time>
</trkpt>
<trkpt lat="59.5326109" lon="31.2356695">
<ele>45.160000</ele>
<time>2026-08-31T19:53:45.000Z</time>
</trkpt>
<trkpt lat="59.5325151" lon="31.2354376">
<ele>45.330002</ele>
<time>2026-08-31T19:54:03.000Z</time>
</trkpt>
<trkpt lat="59.5324425" lon="31.2352400">
<ele>44.149998</ele>
<time>2026-08-31T19:54:28.000Z</time>
</trkpt>
<trkpt lat="59.5323510" lon="31.2349604">
<ele>44.449997</ele>
<time>2026-08-31T19:54:49.000Z</time>
</trkpt>
<trkpt lat="59.5323586" lon="31.2349132">
<ele>43.520000</ele>
<time>2026-08-31T19:55:17.000Z</time>
</trkpt>
<trkpt lat="59.5323374" lon="31.2348691">
<ele>45.750000</ele>
<time>2026-08-31T19:55:41.000Z</time>
</trkpt>
<trkpt lat="59.5322550" lon="31.2348200">
<ele>45.090000</ele>
<time>2026-08-31T19:56:01.000Z</time>
</trkpt>
<trkpt lat="59.5321823" lon="31.2346653">
<ele>44.599998</ele>
<time>2026-08-31T19:56:21.000Z</time>
</trkpt>
<trkpt lat="59.5321015" lon="31.2344719">
<ele>44.590000</ele>
<time>2026-08-31T19:56:38.000Z</time>
</trkpt>
<trkpt lat="59.5320862" lon="31.2342867">
<ele>44.020000</ele>
<time>2026-08-31T19:56:53.000Z</time>
</trkpt>
<trkpt lat="59.5320618" lon="31.2342587">
<ele>41.529999</ele>
<time>2026-08-31T19:57:10.000Z</time>
</trkpt>
<trkpt lat="59.5320603" lon="31.2341999">
<ele>40.590000</ele>
<time>2026-08-31T19:57:27.000Z</time>
</trkpt>
<trkpt lat="59.5320712" lon="31.2342459">
<ele>39.770000</ele>
<time>2026-08-31T19:57:43.000Z</time>
</trkpt>
<trkpt lat="59.5320188" lon="31.2341611">
<ele>39.360001</ele>
<time>2026-08-31T19:58:06.000Z</time>
</trkpt>
<trkpt lat="59.5319561" lon="31.2338738">
<ele>40.410000</ele>
<time>2026-08-31T19:58:22.000Z</time>
</trkpt>
<trkpt lat="59.5319598" lon="31.2338722">
<ele>40.610001</ele>
<time>2026-08-31T19:58:44.000Z</time>
</trkpt>
<trkpt lat="59.5318888" lon="31.2336668">
<ele>41.280003</ele>
<time>2026-08-31T19:59:02.000Z</time>
</trkpt>
<trkpt lat="59.5318596" lon="31.2333796">
<ele>42.389999</ele>
<time>2026-08-31T19:59:21.000Z</time>
</trkpt>
<trkpt lat="59.5318473" lon="31.2331488">
<ele>43.219997</ele>
<time>2026-08-31T19:59:39.000Z</time>
</trkpt>
<trkpt lat="59.5318152" lon="31.2327479">
<ele>44.630001</ele>
<time>2026-08-31T20:00:07.000Z</time>
</trkpt>
<trkpt lat="59.5317984" lon="31.2324732">
<ele>44.330002</ele>
<time>2026-08-31T20:00:20.000Z</time>
</trkpt>
<trkpt lat="59.5317871" lon="31.2323061">
<ele>44.770000</ele>
<time>2026-08-31T20:00:33.000Z</time>
</trkpt>
<trkpt lat="59.5317609" lon="31.2319832">
<ele>45.410000</ele>
<time>2026-08-31T20:00:47.000Z</time>
</trkpt>
<trkpt lat="59.5317350" lon="31.2317002">
<ele>46.240002</ele>
<time>2026-08-31T20:01:00.000Z</time>
</trkpt>
<trkpt lat="59.5317128" lon="31.2314638">
<ele>46.930000</ele>
<time>2026-08-31T20:01:12.000Z</time>
</trkpt>
<trkpt lat="59.5317176" lon="31.2311254">
<ele>47.180000</ele>
<time>2026-08-31T20:01:27.000Z</time>
</trkpt>
<trkpt lat="59.5317074" lon="31.2308843">
<ele>47.039997</ele>
<time>2026-08-31T20:01:39.000Z</time>
</trkpt>
<trkpt lat="59.5317379" lon="31.2305872">
<ele>46.450001</ele>
<time>2026-08-31T20:01:54.000Z</time>
</trkpt>
<trkpt lat="59.5317650" lon="31.2304318">
<ele>45.799999</ele>
<time>2026-08-31T20:02:01.000Z</time>
</trkpt>
<trkpt lat="59.5317862" lon="31.2301241">
<ele>45.129997</ele>
<time>2026-08-31T20:02:15.000Z</time>
</trkpt>
<trkpt lat="59.5318013" lon="31.2298314">
<ele>45.189999</ele>
<time>2026-08-31T20:02:30.000Z</time>
</trkpt>
<trkpt lat="59.5318328" lon="31.2295513">
<ele>47.559998</ele>
<time>2026-08-31T20:02:48.000Z</time>
</trkpt>
<trkpt lat="59.5318444" lon="31.2291847">
<ele>49.190002</ele>
<time>2026-08-31T20:03:03.000Z</time>
</trkpt>
<trkpt lat="59.5318686" lon="31.2288166">
<ele>49.250000</ele>
<time>2026-08-31T20:03:21.000Z</time>
</trkpt>
<trkpt lat="59.5318848" lon="31.2285942">
<ele>48.290001</ele>
<time>2026-08-31T20:03:43.000Z</time>
</trkpt>
<trkpt lat="59.5318749" lon="31.2285799">
<ele>48.919998</ele>
<time>2026-08-31T20:04:03.000Z</time>
</trkpt>
<trkpt lat="59.5318868" lon="31.2284731">
<ele>49.489998</ele>
<time>2026-08-31T20:04:12.000Z</time>
</trkpt>
<trkpt lat="59.5318497" lon="31.2284065">
<ele>48.380001</ele>
<time>2026-08-31T20:04:24.000Z</time>
</trkpt>
<trkpt lat="59.5317401" lon="31.2282308">
<ele>47.860001</ele>
<time>2026-08-31T20:04:42.000Z</time>
</trkpt>
<trkpt lat="59.5316408" lon="31.2280228">
<ele>47.160000</ele>
<time>2026-08-31T20:04:59.000Z</time>
</trkpt>
<trkpt lat="59.5315744" lon="31.2278292">
<ele>46.720001</ele>
<time>2026-08-31T20:05:18.000Z</time>
</trkpt>
<trkpt lat="59.5315095" lon="31.2276587">
<ele>46.540001</ele>
<time>2026-08-31T20:05:32.000Z</time>
</trkpt>
<trkpt lat="59.5313937" lon="31.2273679">
<ele>45.899998</ele>
<time>2026-08-31T20:05:56.000Z</time>
</trkpt>
<trkpt lat="59.5313697" lon="31.2273382">
<ele>47.509998</ele>
<time>2026-08-31T20:06:12.000Z</time>
</trkpt>
<trkpt lat="59.5312986" lon="31.2271606">
<ele>47.790001</ele>
<time>2026-08-31T20:06:48.000Z</time>
</trkpt>
<trkpt lat="59.5311388" lon="31.2268724">
<ele>47.070000</ele>
<time>2026-08-31T20:07:14.000Z</time>
</trkpt>
<trkpt lat="59.5309672" lon="31.2266426">
<ele>46.140003</ele>
<time>2026-08-31T20:07:34.000Z</time>
</trkpt>
<trkpt lat="59.5308745" lon="31.2265384">
<ele>46.099998</ele>
<time>2026-08-31T20:08:04.000Z</time>
</trkpt>
<trkpt lat="59.5307747" lon="31.2264038">
<ele>45.829998</ele>
<time>2026-08-31T20:08:22.000Z</time>
</trkpt>
<trkpt lat="59.5305451" lon="31.2260454">
<ele>47.230000</ele>
<time>2026-08-31T20:08:38.000Z</time>
</trkpt>
<trkpt lat="59.5303722" lon="31.2256784">
<ele>47.809998</ele>
<time>2026-08-31T20:09:08.000Z</time>
</trkpt>
<trkpt lat="59.5303276" lon="31.2256216">
<ele>48.480000</ele>
<time>2026-08-31T20:09:27.000Z</time>
</trkpt>
<trkpt lat="59.5302442" lon="31.2253810">
<ele>48.719997</ele>
<time>2026-08-31T20:09:54.000Z</time>
</trkpt>
<trkpt lat="59.5300446" lon="31.2251787">
<ele>48.180000</ele>
<time>2026-08-31T20:10:11.000Z</time>
</trkpt>
<trkpt lat="59.5299059" lon="31.2250009">
<ele>47.959999</ele>
<time>2026-08-31T20:10:26.000Z</time>
</trkpt>
<trkpt lat="59.5297575" lon="31.2248612">
<ele>48.230000</ele>
<time>2026-08-31T20:10:42.000Z</time>
</trkpt>
<trkpt lat="59.5295325" lon="31.2245756">
<ele>47.900002</ele>
<time>2026-08-31T20:11:10.000Z</time>
</trkpt>
<trkpt lat="59.5293946" lon="31.2245522">
<ele>46.899998</ele>
<time>2026-08-31T20:11:29.000Z</time>
</trkpt>
<trkpt lat="59.5292349" lon="31.2244767">
<ele>45.639999</ele>
<time>2026-08-31T20:11:44.000Z</time>
</trkpt>
<trkpt lat="59.5290978" lon="31.2244690">
<ele>44.490002</ele>
<time>2026-08-31T20:11:59.000Z</time>
</trkpt>
<trkpt lat="59.5289505" lon="31.2244258">
<ele>47.160000</ele>
<time>2026-08-31T20:12:14.000Z</time>
</trkpt>
<trkpt lat="59.5288187" lon="31.2245524">
<ele>47.610001</ele>
<time>2026-08-31T20:12:28.000Z</time>
</trkpt>
<trkpt lat="59.5286906" lon="31.2246291">
<ele>47.429996</ele>
<time>2026-08-31T20:12:47.000Z</time>
</trkpt>
<trkpt lat="59.5285057" lon="31.2247275">
<ele>46.830002</ele>
<time>2026-08-31T20:13:04.000Z</time>
</trkpt>
<trkpt lat="59.5283669" lon="31.2247284">
<ele>46.349998</ele>
<time>2026-08-31T20:13:18.000Z</time>
</trkpt>
<trkpt lat="59.5283508" lon="31.2246866">
<ele>46.439999</ele>
<time>2026-08-31T20:13:36.000Z</time>
</trkpt>
<trkpt lat="59.5283300" lon="31.2246560">
<ele>46.250000</ele>
<time>2026-08-31T20:13:41.000Z</time>
</trkpt>
<trkpt lat="59.5281276" lon="31.2245418">
<ele>43.769997</ele>
<time>2026-08-31T20:13:58.000Z</time>
</trkpt>
<trkpt lat="59.5280030" lon="31.2244202">
<ele>42.670002</ele>
<time>2026-08-31T20:14:19.000Z</time>
</trkpt>
<trkpt lat="59.5279743" lon="31.2243650">
<ele>39.700001</ele>
<time>2026-08-31T20:14:40.000Z</time>
</trkpt>
<trkpt lat="59.5278865" lon="31.2242499">
<ele>40.210003</ele>
<time>2026-08-31T20:14:56.000Z</time>
</trkpt>
<trkpt lat="59.5278636" lon="31.2241709">
<ele>40.280003</ele>
<time>2026-08-31T20:15:09.000Z</time>
</trkpt>
<trkpt lat="59.5278053" lon="31.2240380">
<ele>40.029999</ele>
<time>2026-08-31T20:15:28.000Z</time>
</trkpt>
<trkpt lat="59.5277970" lon="31.2238561">
<ele>40.399998</ele>
<time>2026-08-31T20:15:41.000Z</time>
</trkpt>
<trkpt lat="59.5277852" lon="31.2237267">
<ele>40.410000</ele>
<time>2026-08-31T20:15:52.000Z</time>
</trkpt>
<trkpt lat="59.5277919" lon="31.2236806">
<ele>40.139999</ele>
<time>2026-08-31T20:16:15.000Z</time>
</trkpt>
<trkpt lat="59.5277722" lon="31.2236081">
<ele>39.029999</ele>
<time>2026-08-31T20:16:34.000Z</time>
</trkpt>
<trkpt lat="59.5277492" lon="31.2235868">
<ele>39.140003</ele>
<time>2026-08-31T20:16:49.000Z</time>
</trkpt>
<trkpt lat="59.5277637" lon="31.2235562">
<ele>38.189999</ele>
<time>2026-08-31T20:17:05.000Z</time>
</trkpt>
<trkpt lat="59.5277292" lon="31.2235830">
<ele>36.880001</ele>
<time>2026-08-31T20:17:36.000Z</time>
</trkpt>
<trkpt lat="59.5277157" lon="31.2235154">
<ele>36.349998</ele>
<time>2026-08-31T20:17:59.000Z</time>
</trkpt>
<trkpt lat="59.5277001" lon="31.2235481">
<ele>39.080002</ele>
<time>2026-08-31T20:18:31.000Z</time>
</trkpt>
<trkpt lat="59.5276984" lon="31.2235241">
<ele>37.579998</ele>
<time>2026-08-31T20:19:06.000Z</time>
</trkpt>
<trkpt lat="59.5277420" lon="31.2235594">
<ele>39.010002</ele>
<time>2026-08-31T20:19:44.000Z</time>
</trkpt>
<trkpt lat="59.5277805" lon="31.2235516">
<ele>40.900002</ele>
<time>2026-08-31T20:20:14.000Z</time>
</trkpt>
<trkpt lat="59.5277841" lon="31.2233160">
<ele>41.840000</ele>
<time>2026-08-31T20:20:31.000Z</time>
</trkpt>
<trkpt lat="59.5277336" lon="31.2230896">
<ele>43.130001</ele>
<time>2026-08-31T20:20:49.000Z</time>
</trkpt>
<trkpt lat="59.5277225" lon="31.2228994">
<ele>44.540001</ele>
<time>2026-08-31T20:21:03.000Z</time>
</trkpt>
<trkpt lat="59.5276958" lon="31.2227114">
<ele>46.330002</ele>
<time>2026-08-31T20:21:17.000Z</time>
</trkpt>
<trkpt lat="59.5276870" lon="31.2225532">
<ele>47.320000</ele>
<time>2026-08-31T20:21:31.000Z</time>
</trkpt>
<trkpt lat="59.5276687" lon="31.2223294">
<ele>48.380001</ele>
<time>2026-08-31T20:21:48.000Z</time>
</trkpt>
<trkpt lat="59.5276350" lon="31.2221842">
<ele>49.160000</ele>
<time>2026-08-31T20:22:04.000Z</time>
</trkpt>
<trkpt lat="59.5276186" lon="31.2218893">
<ele>50.610001</ele>
<time>2026-08-31T20:22:24.000Z</time>
</trkpt>
<trkpt lat="59.5276132" lon="31.2215729">
<ele>52.130001</ele>
<time>2026-08-31T20:22:43.000Z</time>
</trkpt>
<trkpt lat="59.5276297" lon="31.2213091">
<ele>52.540001</ele>
<time>2026-08-31T20:23:03.000Z</time>
</trkpt>
<trkpt lat="59.5276282" lon="31.2210466">
<ele>52.219997</ele>
<time>2026-08-31T20:23:18.000Z</time>
</trkpt>
<trkpt lat="59.5275870" lon="31.2208427">
<ele>53.129997</ele>
<time>2026-08-31T20:23:37.000Z</time>
</trkpt>
<trkpt lat="59.5275463" lon="31.2205746">
<ele>53.720001</ele>
<time>2026-08-31T20:23:54.000Z</time>
</trkpt>
<trkpt lat="59.5274866" lon="31.2204122">
<ele>54.560001</ele>
<time>2026-08-31T20:24:10.000Z</time>
</trkpt>
<trkpt lat="59.5274379" lon="31.2201041">
<ele>54.209999</ele>
<time>2026-08-31T20:24:31.000Z</time>
</trkpt>
<trkpt lat="59.5274193" lon="31.2199422">
<ele>54.419998</ele>
<time>2026-08-31T20:24:47.000Z</time>
</trkpt>
<trkpt lat="59.5274168" lon="31.2198970">
<ele>53.750000</ele>
<time>2026-08-31T20:25:02.000Z</time>
</trkpt>
<trkpt lat="59.5273542" lon="31.2196245">
<ele>53.700001</ele>
<time>2026-08-31T20:25:25.000Z</time>
</trkpt>
<trkpt lat="59.5273527" lon="31.2193288">
<ele>53.170002</ele>
<time>2026-08-31T20:25:49.000Z</time>
</trkpt>
<trkpt lat="59.5273546" lon="31.2193572">
<ele>50.190002</ele>
<time>2026-08-31T20:26:11.000Z</time>
</trkpt>
<trkpt lat="59.5273530" lon="31.2193842">
<ele>49.090000</ele>
<time>2026-08-31T20:26:48.000Z</time>
</trkpt>
<trkpt lat="59.5273228" lon="31.2193366">
<ele>49.619999</ele>
<time>2026-08-31T20:27:18.000Z</time>
</trkpt>
<trkpt lat="59.5272475" lon="31.2192182">
<ele>53.669998</ele>
<time>2026-08-31T20:28:04.000Z</time>
</trkpt>
<trkpt lat="59.5272508" lon="31.2193955">
<ele>53.010002</ele>
<time>2026-08-31T20:28:45.000Z</time>
</trkpt>
<trkpt lat="59.5272602" lon="31.2194522">
<ele>54.630001</ele>
<time>2026-08-31T20:29:15.000Z</time>
</trkpt>
<trkpt lat="59.5272464" lon="31.2191022">
<ele>53.639999</ele>
<time>2026-08-31T20:29:36.000Z</time>
</trkpt>
<trkpt lat="59.5271661" lon="31.2188948">
<ele>53.679996</ele>
<time>2026-08-31T20:29:49.000Z</time>
</trkpt>
<trkpt lat="59.5271063" lon="31.2186232">
<ele>52.560001</ele>
<time>2026-08-31T20:30:05.000Z</time>
</trkpt>
<trkpt lat="59.5269769" lon="31.2184373">
<ele>51.539997</ele>
<time>2026-08-31T20:30:19.000Z</time>
</trkpt>
<trkpt lat="59.5269175" lon="31.2183000">
<ele>50.200001</ele>
<time>2026-08-31T20:30:30.000Z</time>
</trkpt>
<trkpt lat="59.5267962" lon="31.2181051">
<ele>49.520000</ele>
<time>2026-08-31T20:30:45.000Z</time>
</trkpt>
<trkpt lat="59.5267314" lon="31.2180125">
<ele>47.910000</ele>
<time>2026-08-31T20:30:56.000Z</time>
</trkpt>
<trkpt lat="59.5266222" lon="31.2177856">
<ele>46.750004</ele>
<time>2026-08-31T20:31:13.000Z</time>
</trkpt>
<trkpt lat="59.5265642" lon="31.2176493">
<ele>48.440002</ele>
<time>2026-08-31T20:31:25.000Z</time>
</trkpt>
<trkpt lat="59.5265299" lon="31.2174338">
<ele>49.160000</ele>
<time>2026-08-31T20:31:38.000Z</time>
</trkpt>
<trkpt lat="59.5264652" lon="31.2173101">
<ele>49.500000</ele>
<time>2026-08-31T20:31:51.000Z</time>
</trkpt>
<trkpt lat="59.5264206" lon="31.2171837">
<ele>47.760002</ele>
<time>2026-08-31T20:32:12.000Z</time>
</trkpt>
<trkpt lat="59.5263414" lon="31.2171012">
<ele>49.160000</ele>
<time>2026-08-31T20:32:28.000Z</time>
</trkpt>
<trkpt lat="59.5263145" lon="31.2172437">
<ele>50.870003</ele>
<time>2026-08-31T20:33:06.000Z</time>
</trkpt>
<trkpt lat="59.5262729" lon="31.2172132">
<ele>47.830002</ele>
<time>2026-08-31T20:33:53.000Z</time>
</trkpt>
<trkpt lat="59.5262953" lon="31.2171391">
<ele>49.310001</ele>
<time>2026-08-31T20:34:43.000Z</time>
</trkpt>
<trkpt lat="59.5263129" lon="31.2168101">
<ele>48.649998</ele>
<time>2026-08-31T20:35:01.000Z</time>
</trkpt>
<trkpt lat="59.5263236" lon="31.2166899">
<ele>48.639999</ele>
<time>2026-08-31T20:35:04.000Z</time>
</trkpt>
<trkpt lat="59.5263485" lon="31.2164368">
<ele>47.360001</ele>
<time>2026-08-31T20:35:16.000Z</time>
</trkpt>
<trkpt lat="59.5263435" lon="31.2162864">
<ele>46.770000</ele>
<time>2026-08-31T20:35:27.000Z</time>
</trkpt>
<trkpt lat="59.5264154" lon="31.2160539">
<ele>45.439999</ele>
<time>2026-08-31T20:35:42.000Z</time>
</trkpt>
<trkpt lat="59.5264259" lon="31.2159053">
<ele>46.010002</ele>
<time>2026-08-31T20:35:57.000Z</time>
</trkpt>
<trkpt lat="59.5263812" lon="31.2156676">
<ele>45.930000</ele>
<time>2026-08-31T20:36:12.000Z</time>
</trkpt>
<trkpt lat="59.5263601" lon="31.2155520">
<ele>44.449997</ele>
<time>2026-08-31T20:36:29.000Z</time>
</trkpt>
<trkpt lat="59.5263327" lon="31.2154094">
<ele>43.490002</ele>
<time>2026-08-31T20:36:41.000Z</time>
</trkpt>
<trkpt lat="59.5262938" lon="31.2152897">
<ele>43.640003</ele>
<time>2026-08-31T20:36:55.000Z</time>
</trkpt>
<trkpt lat="59.5262658" lon="31.2152494">
<ele>43.899998</ele>
<time>2026-08-31T20:37:29.000Z</time>
</trkpt>
<trkpt lat="59.5262518" lon="31.2151442">
<ele>43.940002</ele>
<time>2026-08-31T20:37:53.000Z</time>
</trkpt>
<trkpt lat="59.5262031" lon="31.2150199">
<ele>44.119999</ele>
<time>2026-08-31T20:38:07.000Z</time>
</trkpt>
<trkpt lat="59.5262065" lon="31.2149911">
<ele>44.100002</ele>
<time>2026-08-31T20:38:30.000Z</time>
</trkpt>
<trkpt lat="59.5261817" lon="31.2150193">
<ele>43.889999</ele>
<time>2026-08-31T20:38:51.000Z</time>
</trkpt>
<trkpt lat="59.5261622" lon="31.2149620">
<ele>44.410000</ele>
<time>2026-08-31T20:39:22.000Z</time>
</trkpt>
<trkpt lat="59.5261465" lon="31.2150482">
<ele>44.410000</ele>
<time>2026-08-31T20:39:56.000Z</time>
</trkpt>
<trkpt lat="59.5261783" lon="31.2150044">
<ele>46.279999</ele>
<time>2026-08-31T20:40:42.000Z</time>
</trkpt>
<trkpt lat="59.5261338" lon="31.2150592">
<ele>45.969997</ele>
<time>2026-08-31T20:41:13.000Z</time>
</trkpt>
<trkpt lat="59.5261798" lon="31.2150516">
<ele>44.030003</ele>
<time>2026-08-31T20:41:58.000Z</time>
</trkpt>
<trkpt lat="59.5262094" lon="31.2149748">
<ele>43.999996</ele>
<time>2026-08-31T20:42:17.000Z</time>
</trkpt>
<trkpt lat="59.5261871" lon="31.2150090">
<ele>43.829998</ele>
<time>2026-08-31T20:42:49.000Z</time>
</trkpt>
<trkpt lat="59.5262109" lon="31.2149624">
<ele>44.040001</ele>
<time>2026-08-31T20:43:19.000Z</time>
</trkpt>
<trkpt lat="59.5262503" lon="31.2149283">
<ele>43.299999</ele>
<time>2026-08-31T20:43:35.000Z</time>
</trkpt>
<trkpt lat="59.5262661" lon="31.2148754">
<ele>43.239998</ele>
<time>2026-08-31T20:44:11.000Z</time>
</trkpt>
<trkpt lat="59.5262744" lon="31.2148434">
<ele>43.149998</ele>
<time>2026-08-31T20:44:41.000Z</time>
</trkpt>
<trkpt lat="59.5263280" lon="31.2147713">
<ele>44.049999</ele>
<time>2026-08-31T20:45:04.000Z</time>
</trkpt>
<trkpt lat="59.5264108" lon="31.2146833">
<ele>45.189999</ele>
<time>2026-08-31T20:45:26.000Z</time>
</trkpt>
<trkpt lat="59.5264133" lon="31.2146424">
<ele>43.139999</ele>
<time>2026-08-31T20:45:48.000Z</time>
</trkpt>
<trkpt lat="59.5264290" lon="31.2145375">
<ele>42.859997</ele>
<time>2026-08-31T20:46:16.000Z</time>
</trkpt>
<trkpt lat="59.5264635" lon="31.2144942">
<ele>42.689999</ele>
<time>2026-08-31T20:46:36.000Z</time>
</trkpt>
<trkpt lat="59.5265396" lon="31.2144745">
<ele>42.800003</ele>
<time>2026-08-31T20:46:59.000Z</time>
</trkpt>
<trkpt lat="59.5265859" lon="31.2143740">
<ele>45.679996</ele>
<time>2026-08-31T20:47:21.000Z</time>
</trkpt>
<trkpt lat="59.5265959" lon="31.2143247">
<ele>45.110001</ele>
<time>2026-08-31T20:47:38.000Z</time>
</trkpt>
<trkpt lat="59.5266445" lon="31.2143227">
<ele>46.610001</ele>
<time>2026-08-31T20:48:12.000Z</time>
</trkpt>
<trkpt lat="59.5266269" lon="31.2143216">
<ele>47.360001</ele>
<time>2026-08-31T20:48:44.000Z</time>
</trkpt>
<trkpt lat="59.5266947" lon="31.2143174">
<ele>48.280003</ele>
<time>2026-08-31T20:49:06.000Z</time>
</trkpt>
<trkpt lat="59.5267007" lon="31.2142999">
<ele>47.360001</ele>
<time>2026-08-31T20:49:46.000Z</time>
</trkpt>
<trkpt lat="59.5267256" lon="31.2143734">
<ele>49.090000</ele>
<time>2026-08-31T20:50:18.000Z</time>
</trkpt>
<trkpt lat="59.5267425" lon="31.2143974">
<ele>48.730003</ele>
<time>2026-08-31T20:50:48.000Z</time>
</trkpt>
<trkpt lat="59.5266977" lon="31.2143890">
<ele>48.280003</ele>
<time>2026-08-31T20:51:15.000Z</time>
</trkpt>
<trkpt lat="59.5265973" lon="31.2145329">
<ele>47.010002</ele>
<time>2026-08-31T20:51:39.000Z</time>
</trkpt>
<trkpt lat="59.5266403" lon="31.2146720">
<ele>48.970001</ele>
<time>2026-08-31T20:52:07.000Z</time>
</trkpt>
<trkpt lat="59.5266710" lon="31.2147216">
<ele>48.489998</ele>
<time>2026-08-31T20:52:30.000Z</time>
</trkpt>
<trkpt lat="59.5267263" lon="31.2147500">
<ele>50.160000</ele>
<time>2026-08-31T20:52:53.000Z</time>
</trkpt>
<trkpt lat="59.5267667" lon="31.2147618">
<ele>50.770000</ele>
<time>2026-08-31T20:53:17.000Z</time>
</trkpt>
<trkpt lat="59.5267729" lon="31.2147853">
<ele>48.820000</ele>
<time>2026-08-31T20:53:59.000Z</time>
</trkpt>
<trkpt lat="59.5267839" lon="31.2147013">
<ele>48.160000</ele>
<time>2026-08-31T20:54:27.000Z</time>
</trkpt>
<trkpt lat="59.5268015" lon="31.2147220">
<ele>48.230000</ele>
<time>2026-08-31T20:54:57.000Z</time>
</trkpt>
<trkpt lat="59.5267899" lon="31.2146499">
<ele>47.930000</ele>
<time>2026-08-31T20:55:36.000Z</time>
</trkpt>
<trkpt lat="59.5267884" lon="31.2145459">
<ele>46.690002</ele>
<time>2026-08-31T20:56:00.000Z</time>
</trkpt>
<trkpt lat="59.5267952" lon="31.2144755">
<ele>48.779999</ele>
<time>2026-08-31T20:56:24.000Z</time>
</trkpt>
<trkpt lat="59.5267755" lon="31.2144169">
<ele>50.389999</ele>
<time>2026-08-31T20:56:55.000Z</time>
</trkpt>
<trkpt lat="59.5268134" lon="31.2143160">
<ele>49.130001</ele>
<time>2026-08-31T20:57:32.000Z</time>
</trkpt>
<trkpt lat="59.5268375" lon="31.2142427">
<ele>48.949997</ele>
<time>2026-08-31T20:57:55.000Z</time>
</trkpt>
<trkpt lat="59.5268667" lon="31.2141856">
<ele>48.350002</ele>
<time>2026-08-31T20:58:27.000Z</time>
</trkpt>
<trkpt lat="59.5268155" lon="31.2138659">
<ele>48.090000</ele>
<time>2026-08-31T20:59:00.000Z</time>
</trkpt>
<trkpt lat="59.5268367" lon="31.2137881">
<ele>49.570004</ele>
<time>2026-08-31T20:59:39.000Z</time>
</trkpt>
<trkpt lat="59.5268748" lon="31.2138206">
<ele>51.799999</ele>
<time>2026-08-31T21:00:41.000Z</time>
</trkpt>
<trkpt lat="59.5268749" lon="31.2138585">
<ele>52.130001</ele>
<time>2026-08-31T21:01:19.000Z</time>
</trkpt>
<trkpt lat="59.5268694" lon="31.2138395">
<ele>51.160000</ele>
<time>2026-08-31T21:01:50.000Z</time>
</trkpt>
<trkpt lat="59.5268536" lon="31.2137458">
<ele>51.369999</ele>
<time>2026-08-31T21:02:25.000Z</time>
</trkpt>
<trkpt lat="59.5268790" lon="31.2135942">
<ele>51.110001</ele>
<time>2026-08-31T21:02:44.000Z</time>
</trkpt>
<trkpt lat="59.5269359" lon="31.2134557">
<ele>50.900002</ele>
<time>2026-08-31T21:03:11.000Z</time>
</trkpt>
<trkpt lat="59.5269675" lon="31.2134334">
<ele>50.599998</ele>
<time>2026-08-31T21:03:36.000Z</time>
</trkpt>
<trkpt lat="59.5269879" lon="31.2132617">
<ele>49.939999</ele>
<time>2026-08-31T21:04:03.000Z</time>
</trkpt>
<trkpt lat="59.5270616" lon="31.2131001">
<ele>49.109997</ele>
<time>2026-08-31T21:04:41.000Z</time>
</trkpt>
<trkpt lat="59.5270859" lon="31.2130452">
<ele>48.799999</ele>
<time>2026-08-31T21:05:06.000Z</time>
</trkpt>
<trkpt lat="59.5270945" lon="31.2129193">
<ele>48.869999</ele>
<time>2026-08-31T21:05:24.000Z</time>
</trkpt>
<trkpt lat="59.5271208" lon="31.2128169">
<ele>48.860001</ele>
<time>2026-08-31T21:05:52.000Z</time>
</trkpt>
<trkpt lat="59.5271587" lon="31.2127324">
<ele>48.860001</ele>
<time>2026-08-31T21:06:28.000Z</time>
</trkpt>
<trkpt lat="59.5272293" lon="31.2128040">
<ele>48.200001</ele>
<time>2026-08-31T21:06:53.000Z</time>
</trkpt>
<trkpt lat="59.5272242" lon="31.2126618">
<ele>47.240002</ele>
<time>2026-08-31T21:07:13.000Z</time>
</trkpt>
<trkpt lat="59.5272557" lon="31.2126040">
<ele>47.060001</ele>
<time>2026-08-31T21:07:45.000Z</time>
</trkpt>
<trkpt lat="59.5272403" lon="31.2125025">
<ele>46.119999</ele>
<time>2026-08-31T21:08:13.000Z</time>
</trkpt>
<trkpt lat="59.5272230" lon="31.2125014">
<ele>45.279999</ele>
<time>2026-08-31T21:09:02.000Z</time>
</trkpt>
<trkpt lat="59.5272407" lon="31.2124820">
<ele>45.439999</ele>
<time>2026-08-31T21:09:43.000Z</time>
</trkpt>
<trkpt lat="59.5272334" lon="31.2124952">
<ele>43.290001</ele>
<time>2026-08-31T21:10:20.000Z</time>
</trkpt>
<trkpt lat="59.5272925" lon="31.2124592">
<ele>43.149998</ele>
<time>2026-08-31T21:10:35.000Z</time>
</trkpt>
<trkpt lat="59.5273366" lon="31.2123481">
<ele>42.840000</ele>
<time>2026-08-31T21:10:56.000Z</time>
</trkpt>
<trkpt lat="59.5274244" lon="31.2122461">
<ele>41.989998</ele>
<time>2026-08-31T21:11:21.000Z</time>
</trkpt>
<trkpt lat="59.5274796" lon="31.2121629">
<ele>42.389999</ele>
<time>2026-08-31T21:11:50.000Z</time>
</trkpt>
<trkpt lat="59.5275229" lon="31.2121155">
<ele>42.079998</ele>
<time>2026-08-31T21:12:13.000Z</time>
</trkpt>
<trkpt lat="59.5275401" lon="31.2119896">
<ele>44.219997</ele>
<time>2026-08-31T21:12:48.000Z</time>
</trkpt>
<trkpt lat="59.5276376" lon="31.2118193">
<ele>44.889999</ele>
<time>2026-08-31T21:13:12.000Z</time>
</trkpt>
<trkpt lat="59.5277248" lon="31.2117302">
<ele>44.700001</ele>
<time>2026-08-31T21:13:32.000Z</time>
</trkpt>
<trkpt lat="59.5278146" lon="31.2116010">
<ele>44.360001</ele>
<time>2026-08-31T21:13:53.000Z</time>
</trkpt>
<trkpt lat="59.5278918" lon="31.2114674">
<ele>45.490002</ele>
<time>2026-08-31T21:14:19.000Z</time>
</trkpt>
<trkpt lat="59.5279580" lon="31.2113426">
<ele>44.810001</ele>
<time>2026-08-31T21:14:43.000Z</time>
</trkpt>
<trkpt lat="59.5279733" lon="31.2111374">
<ele>44.540001</ele>
<time>2026-08-31T21:15:10.000Z</time>
</trkpt>
<trkpt lat="59.5280553" lon="31.2109965">
<ele>44.410000</ele>
<time>2026-08-31T21:15:28.000Z</time>
</trkpt>
<trkpt lat="59.5280860" lon="31.2108246">
<ele>44.839996</ele>
<time>2026-08-31T21:15:47.000Z</time>
</trkpt>
<trkpt lat="59.5281203" lon="31.2107633">
<ele>45.310001</ele>
<time>2026-08-31T21:16:13.000Z</time>
</trkpt>
<trkpt lat="59.5281332" lon="31.2106939">
<ele>46.110001</ele>
<time>2026-08-31T21:16:28.000Z</time>
</trkpt>
<trkpt lat="59.5282006" lon="31.2106429">
<ele>45.700001</ele>
<time>2026-08-31T21:16:44.000Z</time>
</trkpt>
<trkpt lat="59.5282928" lon="31.2104431">
<ele>46.320000</ele>
<time>2026-08-31T21:17:06.000Z</time>
</trkpt>
<trkpt lat="59.5282984" lon="31.2103179">
<ele>44.100002</ele>
<time>2026-08-31T21:17:22.000Z</time>
</trkpt>
<trkpt lat="59.5283827" lon="31.2101679">
<ele>45.049999</ele>
<time>2026-08-31T21:17:42.000Z</time>
</trkpt>
<trkpt lat="59.5283972" lon="31.2100605">
<ele>46.289997</ele>
<time>2026-08-31T21:18:03.000Z</time>
</trkpt>
<trkpt lat="59.5283844" lon="31.2100954">
<ele>47.429996</ele>
<time>2026-08-31T21:18:26.000Z</time>
</trkpt>
<trkpt lat="59.5283492" lon="31.2100595">
<ele>47.970001</ele>
<time>2026-08-31T21:18:46.000Z</time>
</trkpt>
<trkpt lat="59.5283539" lon="31.2100663">
<ele>49.559998</ele>
<time>2026-08-31T21:19:22.000Z</time>
</trkpt>
<trkpt lat="59.5284131" lon="31.2101227">
<ele>49.970001</ele>
<time>2026-08-31T21:19:51.000Z</time>
</trkpt>
<trkpt lat="59.5284943" lon="31.2099455">
<ele>49.230000</ele>
<time>2026-08-31T21:20:20.000Z</time>
</trkpt>
<trkpt lat="59.5284694" lon="31.2101297">
<ele>48.890003</ele>
<time>2026-08-31T21:20:39.000Z</time>
</trkpt>
<trkpt lat="59.5284559" lon="31.2101175">
<ele>52.189999</ele>
<time>2026-08-31T21:21:01.000Z</time>
</trkpt>
<trkpt lat="59.5284466" lon="31.2100066">
<ele>53.200001</ele>
<time>2026-08-31T21:21:30.000Z</time>
</trkpt>
<trkpt lat="59.5285507" lon="31.2098952">
<ele>52.669998</ele>
<time>2026-08-31T21:21:49.000Z</time>
</trkpt>
<trkpt lat="59.5285829" lon="31.2097078">
<ele>52.230000</ele>
<time>2026-08-31T21:22:12.000Z</time>
</trkpt>
<trkpt lat="59.5286501" lon="31.2095354">
<ele>51.219997</ele>
<time>2026-08-31T21:22:29.000Z</time>
</trkpt>
<trkpt lat="59.5286943" lon="31.2093598">
<ele>51.170002</ele>
<time>2026-08-31T21:22:45.000Z</time>
</trkpt>
<trkpt lat="59.5286954" lon="31.2091837">
<ele>51.149998</ele>
<time>2026-08-31T21:23:02.000Z</time>
</trkpt>
<trkpt lat="59.5287081" lon="31.2091070">
<ele>50.350002</ele>
<time>2026-08-31T21:23:15.000Z</time>
</trkpt>
<trkpt lat="59.5287212" lon="31.2089747">
<ele>50.070000</ele>
<time>2026-08-31T21:23:33.000Z</time>
</trkpt>
<trkpt lat="59.5287417" lon="31.2088874">
<ele>49.910000</ele>
<time>2026-08-31T21:23:53.000Z</time>
</trkpt>
<trkpt lat="59.5287573" lon="31.2087389">
<ele>49.220001</ele>
<time>2026-08-31T21:24:13.000Z</time>
</trkpt>
<trkpt lat="59.5287724" lon="31.2085959">
<ele>49.299999</ele>
<time>2026-08-31T21:24:40.000Z</time>
</trkpt>
<trkpt lat="59.5288336" lon="31.2084987">
<ele>49.290001</ele>
<time>2026-08-31T21:25:04.000Z</time>
</trkpt>
<trkpt lat="59.5288595" lon="31.2082732">
<ele>49.000000</ele>
<time>2026-08-31T21:25:28.000Z</time>
</trkpt>
<trkpt lat="59.5288940" lon="31.2081180">
<ele>52.470001</ele>
<time>2026-08-31T21:25:47.000Z</time>
</trkpt>
<trkpt lat="59.5289237" lon="31.2081715">
<ele>50.099998</ele>
<time>2026-08-31T21:26:08.000Z</time>
</trkpt>
<trkpt lat="59.5289895" lon="31.2079393">
<ele>49.709999</ele>
<time>2026-08-31T21:26:25.000Z</time>
</trkpt>
<trkpt lat="59.5290566" lon="31.2077449">
<ele>48.740002</ele>
<time>2026-08-31T21:26:42.000Z</time>
</trkpt>
<trkpt lat="59.5291084" lon="31.2076226">
<ele>48.160000</ele>
<time>2026-08-31T21:27:03.000Z</time>
</trkpt>
<trkpt lat="59.5291426" lon="31.2075429">
<ele>48.200001</ele>
<time>2026-08-31T21:27:22.000Z</time>
</trkpt>
<trkpt lat="59.5291719" lon="31.2074363">
<ele>46.950001</ele>
<time>2026-08-31T21:27:42.000Z</time>
</trkpt>
<trkpt lat="59.5292017" lon="31.2073853">
<ele>49.700001</ele>
<time>2026-08-31T21:28:01.000Z</time>
</trkpt>
<trkpt lat="59.5292639" lon="31.2072756">
<ele>49.930000</ele>
<time>2026-08-31T21:28:24.000Z</time>
</trkpt>
<trkpt lat="59.5292858" lon="31.2071818">
<ele>51.420002</ele>
<time>2026-08-31T21:28:50.000Z</time>
</trkpt>
<trkpt lat="59.5293382" lon="31.2071289">
<ele>51.309998</ele>
<time>2026-08-31T21:29:12.000Z</time>
</trkpt>
<trkpt lat="59.5294079" lon="31.2070000">
<ele>51.820000</ele>
<time>2026-08-31T21:29:32.000Z</time>
</trkpt>
<trkpt lat="59.5294261" lon="31.2069383">
<ele>52.270000</ele>
<time>2026-08-31T21:29:49.000Z</time>
</trkpt>
<trkpt lat="59.5295179" lon="31.2069577">
<ele>53.150002</ele>
<time>2026-08-31T21:30:05.000Z</time>
</trkpt>
<trkpt lat="59.5295153" lon="31.2068530">
<ele>52.759998</ele>
<time>2026-08-31T21:30:20.000Z</time>
</trkpt>
<trkpt lat="59.5295197" lon="31.2067805">
<ele>51.880001</ele>
<time>2026-08-31T21:30:38.000Z</time>
</trkpt>
<trkpt lat="59.5295484" lon="31.2067487">
<ele>52.710003</ele>
<time>2026-08-31T21:31:03.000Z</time>
</trkpt>
<trkpt lat="59.5296199" lon="31.2066291">
<ele>52.119999</ele>
<time>2026-08-31T21:31:20.000Z</time>
</trkpt>
<trkpt lat="59.5296860" lon="31.2065832">
<ele>52.899998</ele>
<time>2026-08-31T21:31:33.000Z</time>
</trkpt>
<trkpt lat="59.5296520" lon="31.2064752">
<ele>47.509998</ele>
<time>2026-08-31T21:31:53.000Z</time>
</trkpt>
<trkpt lat="59.5296980" lon="31.2065516">
<ele>47.140003</ele>
<time>2026-08-31T21:32:18.000Z</time>
</trkpt>
<trkpt lat="59.5297699" lon="31.2064600">
<ele>47.540001</ele>
<time>2026-08-31T21:32:36.000Z</time>
</trkpt>
<trkpt lat="59.5298261" lon="31.2063574">
<ele>48.820000</ele>
<time>2026-08-31T21:32:51.000Z</time>
</trkpt>
<trkpt lat="59.5298644" lon="31.2061356">
<ele>48.730003</ele>
<time>2026-08-31T21:33:10.000Z</time>
</trkpt>
<trkpt lat="59.5298981" lon="31.2060240">
<ele>45.939999</ele>
<time>2026-08-31T21:33:25.000Z</time>
</trkpt>
<trkpt lat="59.5299443" lon="31.2060395">
<ele>45.540001</ele>
<time>2026-08-31T21:33:38.000Z</time>
</trkpt>
<trkpt lat="59.5300368" lon="31.2060713">
<ele>45.669998</ele>
<time>2026-08-31T21:33:55.000Z</time>
</trkpt>
<trkpt lat="59.5299924" lon="31.2059300">
<ele>48.060001</ele>
<time>2026-08-31T21:34:22.000Z</time>
</trkpt>
<trkpt lat="59.5299865" lon="31.2059496">
<ele>46.730000</ele>
<time>2026-08-31T21:34:44.000Z</time>
</trkpt>
<trkpt lat="59.5300317" lon="31.2059900">
<ele>48.890003</ele>
<time>2026-08-31T21:35:11.000Z</time>
</trkpt>
<trkpt lat="59.5299886" lon="31.2060289">
<ele>49.510002</ele>
<time>2026-08-31T21:35:37.000Z</time>
</trkpt>
<trkpt lat="59.5300975" lon="31.2060324">
<ele>52.650002</ele>
<time>2026-08-31T21:36:00.000Z</time>
</trkpt>
<trkpt lat="59.5301323" lon="31.2059435">
<ele>60.919998</ele>
<time>2026-08-31T21:36:18.000Z</time>
</trkpt>
<trkpt lat="59.5300574" lon="31.2059278">
<ele>57.290001</ele>
<time>2026-08-31T21:36:39.000Z</time>
</trkpt>
<trkpt lat="59.5300440" lon="31.2059341">
<ele>56.760002</ele>
<time>2026-08-31T21:36:54.000Z</time>
</trkpt>
<trkpt lat="59.5300245" lon="31.2058159">
<ele>55.980003</ele>
<time>2026-08-31T21:37:15.000Z</time>
</trkpt>
<trkpt lat="59.5300969" lon="31.2057114">
<ele>54.950001</ele>
<time>2026-08-31T21:37:28.000Z</time>
</trkpt>
<trkpt lat="59.5301479" lon="31.2054956">
<ele>53.750000</ele>
<time>2026-08-31T21:37:47.000Z</time>
</trkpt>
<trkpt lat="59.5301673" lon="31.2054238">
<ele>52.430000</ele>
<time>2026-08-31T21:38:09.000Z</time>
</trkpt>
<trkpt lat="59.5301994" lon="31.2052544">
<ele>52.100002</ele>
<time>2026-08-31T21:38:25.000Z</time>
</trkpt>
<trkpt lat="59.5302203" lon="31.2051945">
<ele>51.500000</ele>
<time>2026-08-31T21:38:41.000Z</time>
</trkpt>
<trkpt lat="59.5303041" lon="31.2051805">
<ele>51.599998</ele>
<time>2026-08-31T21:38:56.000Z</time>
</trkpt>
<trkpt lat="59.5303591" lon="31.2052912">
<ele>53.260002</ele>
<time>2026-08-31T21:39:17.000Z</time>
</trkpt>
<trkpt lat="59.5304539" lon="31.2052499">
<ele>53.739998</ele>
<time>2026-08-31T21:39:32.000Z</time>
</trkpt>
<trkpt lat="59.5305340" lon="31.2052300">
<ele>56.009998</ele>
<time>2026-08-31T21:39:47.000Z</time>
</trkpt>
<trkpt lat="59.5306647" lon="31.2053038">
<ele>54.760002</ele>
<time>2026-08-31T21:40:05.000Z</time>
</trkpt>
<trkpt lat="59.5307052" lon="31.2052071">
<ele>54.240002</ele>
<time>2026-08-31T21:40:23.000Z</time>
</trkpt>
<trkpt lat="59.5307450" lon="31.2052209">
<ele>55.670002</ele>
<time>2026-08-31T21:40:38.000Z</time>
</trkpt>
<trkpt lat="59.5307269" lon="31.2051363">
<ele>56.259998</ele>
<time>2026-08-31T21:40:57.000Z</time>
</trkpt>
<trkpt lat="59.5306832" lon="31.2051445">
<ele>60.839996</ele>
<time>2026-08-31T21:41:21.000Z</time>
</trkpt>
<trkpt lat="59.5307310" lon="31.2050878">
<ele>61.470001</ele>
<time>2026-08-31T21:41:39.000Z</time>
</trkpt>
<trkpt lat="59.5307151" lon="31.2049094">
<ele>61.020000</ele>
<time>2026-08-31T21:41:54.000Z</time>
</trkpt>
<trkpt lat="59.5307378" lon="31.2047774">
<ele>61.139999</ele>
<time>2026-08-31T21:42:09.000Z</time>
</trkpt>
<trkpt lat="59.5307792" lon="31.2046467">
<ele>59.840000</ele>
<time>2026-08-31T21:42:24.000Z</time>
</trkpt>
<trkpt lat="59.5307610" lon="31.2044886">
<ele>57.619999</ele>
<time>2026-08-31T21:42:42.000Z</time>
</trkpt>
<trkpt lat="59.5307451" lon="31.2044532">
<ele>54.850002</ele>
<time>2026-08-31T21:43:03.000Z</time>
</trkpt>
<trkpt lat="59.5307854" lon="31.2042821">
<ele>54.739998</ele>
<time>2026-08-31T21:43:23.000Z</time>
</trkpt>
<trkpt lat="59.5307823" lon="31.2041284">
<ele>55.020000</ele>
<time>2026-08-31T21:43:43.000Z</time>
</trkpt>
<trkpt lat="59.5307828" lon="31.2039608">
<ele>54.439999</ele>
<time>2026-08-31T21:44:04.000Z</time>
</trkpt>
<trkpt lat="59.5307813" lon="31.2038293">
<ele>53.170002</ele>
<time>2026-08-31T21:44:22.000Z</time>
</trkpt>
<trkpt lat="59.5308042" lon="31.2037821">
<ele>49.109997</ele>
<time>2026-08-31T21:44:41.000Z</time>
</trkpt>
<trkpt lat="59.5307967" lon="31.2037179">
<ele>49.930000</ele>
<time>2026-08-31T21:45:06.000Z</time>
</trkpt>
<trkpt lat="59.5307933" lon="31.2035564">
<ele>49.200001</ele>
<time>2026-08-31T21:45:22.000Z</time>
</trkpt>
<trkpt lat="59.5307549" lon="31.2035117">
<ele>47.579998</ele>
<time>2026-08-31T21:45:42.000Z</time>
</trkpt>
<trkpt lat="59.5307529" lon="31.2034180">
<ele>47.360001</ele>
<time>2026-08-31T21:46:00.000Z</time>
</trkpt>
<trkpt lat="59.5307788" lon="31.2032663">
<ele>45.809998</ele>
<time>2026-08-31T21:46:17.000Z</time>
</trkpt>
<trkpt lat="59.5307839" lon="31.2032267">
<ele>45.170002</ele>
<time>2026-08-31T21:46:39.000Z</time>
</trkpt>
<trkpt lat="59.5308008" lon="31.2032046">
<ele>46.600002</ele>
<time>2026-08-31T21:46:53.000Z</time>
</trkpt>
<trkpt lat="59.5308394" lon="31.2030413">
<ele>46.380001</ele>
<time>2026-08-31T21:47:18.000Z</time>
</trkpt>
<trkpt lat="59.5308303" lon="31.2029128">
<ele>45.730000</ele>
<time>2026-08-31T21:47:32.000Z</time>
</trkpt>
<trkpt lat="59.5308330" lon="31.2028820">
<ele>45.410000</ele>
<time>2026-08-31T21:47:52.000Z</time>
</trkpt>
<trkpt lat="59.5308570" lon="31.2028332">
<ele>46.709999</ele>
<time>2026-08-31T21:48:21.000Z</time>
</trkpt>
<trkpt lat="59.5308367" lon="31.2028685">
<ele>43.640003</ele>
<time>2026-08-31T21:48:36.000Z</time>
</trkpt>
<trkpt lat="59.5308196" lon="31.2028779">
<ele>43.699997</ele>
<time>2026-08-31T21:49:01.000Z</time>
</trkpt>
<trkpt lat="59.5308066" lon="31.2028895">
<ele>41.660000</ele>
<time>2026-08-31T21:49:34.000Z</time>
</trkpt>
<trkpt lat="59.5308040" lon="31.2028857">
<ele>42.439999</ele>
<time>2026-08-31T21:50:16.000Z</time>
</trkpt>
<trkpt lat="59.5307855" lon="31.2028421">
<ele>41.910000</ele>
<time>2026-08-31T21:50:53.000Z</time>
</trkpt>
<trkpt lat="59.5307977" lon="31.2027903">
<ele>42.270000</ele>
<time>2026-08-31T21:51:19.000Z</time>
</trkpt>
<trkpt lat="59.5308422" lon="31.2027523">
<ele>42.049999</ele>
<time>2026-08-31T21:51:34.000Z</time>
</trkpt>
<trkpt lat="59.5308735" lon="31.2025733">
<ele>42.139999</ele>
<time>2026-08-31T21:51:47.000Z</time>
</trkpt>
<trkpt lat="59.5309051" lon="31.2023580">
<ele>41.639999</ele>
<time>2026-08-31T21:52:00.000Z</time>
</trkpt>
<trkpt lat="59.5309116" lon="31.2022169">
<ele>41.840000</ele>
<time>2026-08-31T21:52:15.000Z</time>
</trkpt>
<trkpt lat="59.5309145" lon="31.2020314">
<ele>42.200001</ele>
<time>2026-08-31T21:52:40.000Z</time>
</trkpt>
<trkpt lat="59.5309227" lon="31.2018930">
<ele>42.629997</ele>
<time>2026-08-31T21:52:58.000Z</time>
</trkpt>
<trkpt lat="59.5309686" lon="31.2017686">
<ele>42.220001</ele>
<time>2026-08-31T21:53:11.000Z</time>
</trkpt>
<trkpt lat="59.5309746" lon="31.2016434">
<ele>41.939999</ele>
<time>2026-08-31T21:53:24.000Z</time>
</trkpt>
<trkpt lat="59.5309780" lon="31.2016279">
<ele>42.459999</ele>
<time>2026-08-31T21:53:59.000Z</time>
</trkpt>
<trkpt lat="59.5309872" lon="31.2015060">
<ele>44.079998</ele>
<time>2026-08-31T21:54:18.000Z</time>
</trkpt>
<trkpt lat="59.5310191" lon="31.2014730">
<ele>43.630001</ele>
<time>2026-08-31T21:54:42.000Z</time>
</trkpt>
<trkpt lat="59.5310292" lon="31.2014247">
<ele>43.369999</ele>
<time>2026-08-31T21:54:57.000Z</time>
</trkpt>
<trkpt lat="59.5310507" lon="31.2013449">
<ele>43.149998</ele>
<time>2026-08-31T21:55:17.000Z</time>
</trkpt>
<trkpt lat="59.5310387" lon="31.2012277">
<ele>42.989998</ele>
<time>2026-08-31T21:55:34.000Z</time>
</trkpt>
<trkpt lat="59.5310583" lon="31.2010741">
<ele>43.309998</ele>
<time>2026-08-31T21:55:54.000Z</time>
</trkpt>
<trkpt lat="59.5310693" lon="31.2010037">
<ele>44.040001</ele>
<time>2026-08-31T21:56:20.000Z</time>
</trkpt>
<trkpt lat="59.5310393" lon="31.2010083">
<ele>43.040001</ele>
<time>2026-08-31T21:57:07.000Z</time>
</trkpt>
<trkpt lat="59.5310274" lon="31.2009498">
<ele>43.459999</ele>
<time>2026-08-31T21:57:35.000Z</time>
</trkpt>
<trkpt lat="59.5310451" lon="31.2009146">
<ele>44.989998</ele>
<time>2026-08-31T21:58:04.000Z</time>
</trkpt>
<trkpt lat="59.5310204" lon="31.2008454">
<ele>42.950001</ele>
<time>2026-08-31T21:58:28.000Z</time>
</trkpt>
<trkpt lat="59.5309964" lon="31.2007543">
<ele>43.590000</ele>
<time>2026-08-31T21:58:57.000Z</time>
</trkpt>
<trkpt lat="59.5310071" lon="31.2007491">
<ele>43.529999</ele>
<time>2026-08-31T21:59:13.000Z</time>
</trkpt>
<trkpt lat="59.5310181" lon="31.2007146">
<ele>42.750000</ele>
<time>2026-08-31T21:59:36.000Z</time>
</trkpt>
<trkpt lat="59.5310227" lon="31.2005942">
<ele>43.219997</ele>
<time>2026-08-31T21:59:52.000Z</time>
</trkpt>
<trkpt lat="59.5310096" lon="31.2005017">
<ele>41.079998</ele>
<time>2026-08-31T22:00:09.000Z</time>
</trkpt>
<trkpt lat="59.5310080" lon="31.2002106">
<ele>41.209999</ele>
<time>2026-08-31T22:00:39.000Z</time>
</trkpt>
<trkpt lat="59.5310304" lon="31.2001252">
<ele>41.480000</ele>
<time>2026-08-31T22:01:16.000Z</time>
</trkpt>
<trkpt lat="59.5310280" lon="31.1999302">
<ele>42.950001</ele>
<time>2026-08-31T22:01:31.000Z</time>
</trkpt>
<trkpt lat="59.5309672" lon="31.1998542">
<ele>44.930000</ele>
<time>2026-08-31T22:01:46.000Z</time>
</trkpt>
<trkpt lat="59.5310392" lon="31.1998231">
<ele>45.620003</ele>
<time>2026-08-31T22:02:26.000Z</time>
</trkpt>
<trkpt lat="59.5310862" lon="31.1996111">
<ele>44.609997</ele>
<time>2026-08-31T22:02:46.000Z</time>
</trkpt>
<trkpt lat="59.5310947" lon="31.1994647">
<ele>44.570000</ele>
<time>2026-08-31T22:03:05.000Z</time>
</trkpt>
<trkpt lat="59.5310935" lon="31.1992581">
<ele>44.590000</ele>
<time>2026-08-31T22:03:25.000Z</time>
</trkpt>
<trkpt lat="59.5310801" lon="31.1991469">
<ele>45.349998</ele>
<time>2026-08-31T22:03:36.000Z</time>
</trkpt>
<trkpt lat="59.5310755" lon="31.1990483">
<ele>45.460003</ele>
<time>2026-08-31T22:04:03.000Z</time>
</trkpt>
<trkpt lat="59.5310797" lon="31.1990388">
<ele>46.359997</ele>
<time>2026-08-31T22:04:06.000Z</time>
</trkpt>
<trkpt lat="59.5310598" lon="31.1989864">
<ele>47.659996</ele>
<time>2026-08-31T22:04:20.000Z</time>
</trkpt>
<trkpt lat="59.5309847" lon="31.1990393">
<ele>47.320000</ele>
<time>2026-08-31T22:04:33.000Z</time>
</trkpt>
<trkpt lat="59.5309857" lon="31.1990482">
<ele>47.750000</ele>
<time>2026-08-31T22:05:06.000Z</time>
</trkpt>
<trkpt lat="59.5310299" lon="31.1990905">
<ele>49.610001</ele>
<time>2026-08-31T22:05:42.000Z</time>
</trkpt>
<trkpt lat="59.5311009" lon="31.1991343">
<ele>48.430000</ele>
<time>2026-08-31T22:06:05.000Z</time>
</trkpt>
<trkpt lat="59.5310651" lon="31.1991365">
<ele>47.740002</ele>
<time>2026-08-31T22:06:30.000Z</time>
</trkpt>
<trkpt lat="59.5310691" lon="31.1991120">
<ele>47.670002</ele>
<time>2026-08-31T22:06:56.000Z</time>
</trkpt>
<trkpt lat="59.5310235" lon="31.1990825">
<ele>48.280003</ele>
<time>2026-08-31T22:07:27.000Z</time>
</trkpt>
<trkpt lat="59.5310228" lon="31.1991984">
<ele>47.670002</ele>
<time>2026-08-31T22:07:51.000Z</time>
</trkpt>
<trkpt lat="59.5310392" lon="31.1991439">
<ele>47.540001</ele>
<time>2026-08-31T22:08:14.000Z</time>
</trkpt>
<trkpt lat="59.5310428" lon="31.1991324">
<ele>46.489998</ele>
<time>2026-08-31T22:08:36.000Z</time>
</trkpt>
<trkpt lat="59.5311285" lon="31.1990446">
<ele>45.709999</ele>
<time>2026-08-31T22:08:58.000Z</time>
</trkpt>
<trkpt lat="59.5311212" lon="31.1990703">
<ele>45.700001</ele>
<time>2026-08-31T22:09:16.000Z</time>
</trkpt>
<trkpt lat="59.5311210" lon="31.1990387">
<ele>44.529999</ele>
<time>2026-08-31T22:09:43.000Z</time>
</trkpt>
<trkpt lat="59.5311252" lon="31.1990875">
<ele>44.059998</ele>
<time>2026-08-31T22:10:07.000Z</time>
</trkpt>
<trkpt lat="59.5311258" lon="31.1990870">
<ele>44.839996</ele>
<time>2026-08-31T22:10:24.000Z</time>
</trkpt>
<trkpt lat="59.5310904" lon="31.1990749">
<ele>44.560001</ele>
<time>2026-08-31T22:10:56.000Z</time>
</trkpt>
<trkpt lat="59.5310956" lon="31.1990435">
<ele>44.160004</ele>
<time>2026-08-31T22:11:12.000Z</time>
</trkpt>
<trkpt lat="59.5309318" lon="31.1991371">
<ele>44.320004</ele>
<time>2026-08-31T22:11:40.000Z</time>
</trkpt>
<trkpt lat="59.5310631" lon="31.1991502">
<ele>42.160000</ele>
<time>2026-08-31T22:12:14.000Z</time>
</trkpt>
<trkpt lat="59.5311289" lon="31.1990762">
<ele>44.100002</ele>
<time>2026-08-31T22:12:45.000Z</time>
</trkpt>
<trkpt lat="59.5310997" lon="31.1991155">
<ele>44.930000</ele>
<time>2026-08-31T22:13:34.000Z</time>
</trkpt>
<trkpt lat="59.5310943" lon="31.1990902">
<ele>46.320000</ele>
<time>2026-08-31T22:14:25.000Z</time>
</trkpt>
<trkpt lat="59.5310817" lon="31.1991098">
<ele>46.779999</ele>
<time>2026-08-31T22:14:55.000Z</time>
</trkpt>
<trkpt lat="59.5311033" lon="31.1990881">
<ele>46.049999</ele>
<time>2026-08-31T22:15:25.000Z</time>
</trkpt>
<trkpt lat="59.5311097" lon="31.1990816">
<ele>44.700001</ele>
<time>2026-08-31T22:15:49.000Z</time>
</trkpt>
<trkpt lat="59.5311105" lon="31.1990585">
<ele>45.180000</ele>
<time>2026-08-31T22:16:11.000Z</time>
</trkpt>
<trkpt lat="59.5310501" lon="31.1990543">
<ele>46.259998</ele>
<time>2026-08-31T22:16:44.000Z</time>
</trkpt>
<trkpt lat="59.5311603" lon="31.1989678">
<ele>45.610001</ele>
<time>2026-08-31T22:17:05.000Z</time>
</trkpt>
<trkpt lat="59.5311222" lon="31.1989224">
<ele>47.279999</ele>
<time>2026-08-31T22:17:25.000Z</time>
</trkpt>
<trkpt lat="59.5310383" lon="31.1991091">
<ele>48.280003</ele>
<time>2026-08-31T22:18:08.000Z</time>
</trkpt>
<trkpt lat="59.5310613" lon="31.1991513">
<ele>46.820000</ele>
<time>2026-08-31T22:19:09.000Z</time>
</trkpt>
<trkpt lat="59.5310491" lon="31.1991528">
<ele>48.009998</ele>
<time>2026-08-31T22:20:02.000Z</time>
</trkpt>
<trkpt lat="59.5310491" lon="31.1991579">
<ele>46.680000</ele>
<time>2026-08-31T22:20:41.000Z</time>
</trkpt>
<trkpt lat="59.5310822" lon="31.1990988">
<ele>46.519997</ele>
<time>2026-08-31T22:20:58.000Z</time>
</trkpt>
<trkpt lat="59.5311165" lon="31.1991165">
<ele>46.470001</ele>
<time>2026-08-31T22:21:22.000Z</time>
</trkpt>
<trkpt lat="59.5310679" lon="31.1990653">
<ele>47.719997</ele>
<time>2026-08-31T22:22:09.000Z</time>
</trkpt>
<trkpt lat="59.5311134" lon="31.1991683">
<ele>47.779999</ele>
<time>2026-08-31T22:22:25.000Z</time>
</trkpt>
<trkpt lat="59.5311216" lon="31.1991034">
<ele>47.830002</ele>
<time>2026-08-31T22:22:40.000Z</time>
</trkpt>
<trkpt lat="59.5310495" lon="31.1991023">
<ele>44.889999</ele>
<time>2026-08-31T22:23:18.000Z</time>
</trkpt>
<trkpt lat="59.5310595" lon="31.1991130">
<ele>44.869999</ele>
<time>2026-08-31T22:23:47.000Z</time>
</trkpt>
<trkpt lat="59.5311204" lon="31.1990799">
<ele>45.490002</ele>
<time>2026-08-31T22:24:23.000Z</time>
</trkpt>
<trkpt lat="59.5311734" lon="31.1989352">
<ele>45.579998</ele>
<time>2026-08-31T22:24:28.000Z</time>
</trkpt>
<trkpt lat="59.5312666" lon="31.1989580">
<ele>45.570000</ele>
<time>2026-08-31T22:24:44.000Z</time>
</trkpt>
<trkpt lat="59.5312365" lon="31.1989906">
<ele>46.070004</ele>
<time>2026-08-31T22:25:04.000Z</time>
</trkpt>
<trkpt lat="59.5309867" lon="31.1991964">
<ele>49.639999</ele>
<time>2026-08-31T22:25:35.000Z</time>
</trkpt>
<trkpt lat="59.5310268" lon="31.1992313">
<ele>53.449997</ele>
<time>2026-08-31T22:26:09.000Z</time>
</trkpt>
<trkpt lat="59.5311145" lon="31.1990037">
<ele>49.889999</ele>
<time>2026-08-31T22:26:38.000Z</time>
</trkpt>
<trkpt lat="59.5311273" lon="31.1988768">
<ele>48.419998</ele>
<time>2026-08-31T22:26:56.000Z</time>
</trkpt>
<trkpt lat="59.5311848" lon="31.1986498">
<ele>46.950001</ele>
<time>2026-08-31T22:27:16.000Z</time>
</trkpt>
<trkpt lat="59.5311748" lon="31.1985551">
<ele>44.639999</ele>
<time>2026-08-31T22:27:34.000Z</time>
</trkpt>
<trkpt lat="59.5311579" lon="31.1985010">
<ele>44.059998</ele>
<time>2026-08-31T22:27:54.000Z</time>
</trkpt>
<trkpt lat="59.5310987" lon="31.1984079">
<ele>43.730000</ele>
<time>2026-08-31T22:28:08.000Z</time>
</trkpt>
<trkpt lat="59.5310622" lon="31.1983510">
<ele>43.950001</ele>
<time>2026-08-31T22:28:21.000Z</time>
</trkpt>
<trkpt lat="59.5310361" lon="31.1983250">
<ele>44.110001</ele>
<time>2026-08-31T22:28:38.000Z</time>
</trkpt>
<trkpt lat="59.5310183" lon="31.1982134">
<ele>45.490002</ele>
<time>2026-08-31T22:28:51.000Z</time>
</trkpt>
<trkpt lat="59.5310356" lon="31.1980986">
<ele>44.720001</ele>
<time>2026-08-31T22:29:07.000Z</time>
</trkpt>
<trkpt lat="59.5310869" lon="31.1979971">
<ele>43.400002</ele>
<time>2026-08-31T22:29:21.000Z</time>
</trkpt>
<trkpt lat="59.5311258" lon="31.1978183">
<ele>43.640003</ele>
<time>2026-08-31T22:29:54.000Z</time>
</trkpt>
<trkpt lat="59.5311568" lon="31.1976103">
<ele>44.299999</ele>
<time>2026-08-31T22:30:16.000Z</time>
</trkpt>
<trkpt lat="59.5311434" lon="31.1974697">
<ele>42.900002</ele>
<time>2026-08-31T22:30:31.000Z</time>
</trkpt>
<trkpt lat="59.5310999" lon="31.1973812">
<ele>42.699997</ele>
<time>2026-08-31T22:30:47.000Z</time>
</trkpt>
<trkpt lat="59.5310728" lon="31.1973009">
<ele>42.629997</ele>
<time>2026-08-31T22:31:04.000Z</time>
</trkpt>
<trkpt lat="59.5310604" lon="31.1972590">
<ele>42.970001</ele>
<time>2026-08-31T22:31:22.000Z</time>
</trkpt>
<trkpt lat="59.5310739" lon="31.1971393">
<ele>43.930004</ele>
<time>2026-08-31T22:31:37.000Z</time>
</trkpt>
<trkpt lat="59.5310906" lon="31.1970989">
<ele>42.759998</ele>
<time>2026-08-31T22:32:06.000Z</time>
</trkpt>
<trkpt lat="59.5311132" lon="31.1970057">
<ele>43.640003</ele>
<time>2026-08-31T22:32:23.000Z</time>
</trkpt>
<trkpt lat="59.5311190" lon="31.1969583">
<ele>42.049999</ele>
<time>2026-08-31T22:32:43.000Z</time>
</trkpt>
<trkpt lat="59.5311076" lon="31.1969402">
<ele>43.389999</ele>
<time>2026-08-31T22:33:04.000Z</time>
</trkpt>
<trkpt lat="59.5311014" lon="31.1969231">
<ele>39.000000</ele>
<time>2026-08-31T22:33:27.000Z</time>
</trkpt>
<trkpt lat="59.5311248" lon="31.1968839">
<ele>40.830002</ele>
<time>2026-08-31T22:33:51.000Z</time>
</trkpt>
<trkpt lat="59.5311582" lon="31.1968425">
<ele>41.880001</ele>
<time>2026-08-31T22:34:15.000Z</time>
</trkpt>
<trkpt lat="59.5311986" lon="31.1967300">
<ele>42.770000</ele>
<time>2026-08-31T22:34:56.000Z</time>
</trkpt>
<trkpt lat="59.5312527" lon="31.1967361">
<ele>44.200001</ele>
<time>2026-08-31T22:35:33.000Z</time>
</trkpt>
<trkpt lat="59.5312329" lon="31.1966737">
<ele>44.829998</ele>
<time>2026-08-31T22:35:59.000Z</time>
</trkpt>
<trkpt lat="59.5311997" lon="31.1966296">
<ele>43.849998</ele>
<time>2026-08-31T22:36:24.000Z</time>
</trkpt>
<trkpt lat="59.5312004" lon="31.1966379">
<ele>44.869999</ele>
<time>2026-08-31T22:37:12.000Z</time>
</trkpt>
<trkpt lat="59.5311875" lon="31.1965995">
<ele>46.530003</ele>
<time>2026-08-31T22:37:44.000Z</time>
</trkpt>
<trkpt lat="59.5311567" lon="31.1966218">
<ele>46.059998</ele>
<time>2026-08-31T22:38:04.000Z</time>
</trkpt>
<trkpt lat="59.5311196" lon="31.1966172">
<ele>45.650002</ele>
<time>2026-08-31T22:38:28.000Z</time>
</trkpt>
<trkpt lat="59.5311776" lon="31.1966217">
<ele>46.080002</ele>
<time>2026-08-31T22:38:58.000Z</time>
</trkpt>
<trkpt lat="59.5312207" lon="31.1966198">
<ele>45.209999</ele>
<time>2026-08-31T22:39:21.000Z</time>
</trkpt>
<trkpt lat="59.5312253" lon="31.1965625">
<ele>46.869999</ele>
<time>2026-08-31T22:39:59.000Z</time>
</trkpt>
<trkpt lat="59.5311874" lon="31.1963432">
<ele>46.000000</ele>
<time>2026-08-31T22:40:27.000Z</time>
</trkpt>
<trkpt lat="59.5312004" lon="31.1960870">
<ele>46.690002</ele>
<time>2026-08-31T22:41:10.000Z</time>
</trkpt>
<trkpt lat="59.5312365" lon="31.1957742">
<ele>45.029999</ele>
<time>2026-08-31T22:41:49.000Z</time>
</trkpt>
<trkpt lat="59.5311636" lon="31.1956630">
<ele>44.509998</ele>
<time>2026-08-31T22:42:14.000Z</time>
</trkpt>
<trkpt lat="59.5311611" lon="31.1955687">
<ele>43.910000</ele>
<time>2026-08-31T22:42:41.000Z</time>
</trkpt>
<trkpt lat="59.5311744" lon="31.1952185">
<ele>43.550003</ele>
<time>2026-08-31T22:43:05.000Z</time>
</trkpt>
<trkpt lat="59.5311786" lon="31.1950090">
<ele>44.660000</ele>
<time>2026-08-31T22:43:21.000Z</time>
</trkpt>
<trkpt lat="59.5311882" lon="31.1946932">
<ele>45.380001</ele>
<time>2026-08-31T22:43:47.000Z</time>
</trkpt>
<trkpt lat="59.5311646" lon="31.1945551">
<ele>48.730003</ele>
<time>2026-08-31T22:44:01.000Z</time>
</trkpt>
<trkpt lat="59.5311722" lon="31.1944404">
<ele>49.120003</ele>
<time>2026-08-31T22:44:15.000Z</time>
</trkpt>
<trkpt lat="59.5311676" lon="31.1944203">
<ele>50.989998</ele>
<time>2026-08-31T22:45:02.000Z</time>
</trkpt>
<trkpt lat="59.5312038" lon="31.1944454">
<ele>51.790001</ele>
<time>2026-08-31T22:45:32.000Z</time>
</trkpt>
<trkpt lat="59.5311947" lon="31.1944877">
<ele>51.769997</ele>
<time>2026-08-31T22:46:08.000Z</time>
</trkpt>
<trkpt lat="59.5312241" lon="31.1944584">
<ele>48.700001</ele>
<time>2026-08-31T22:46:51.000Z</time>
</trkpt>
<trkpt lat="59.5312112" lon="31.1945121">
<ele>46.090000</ele>
<time>2026-08-31T22:47:55.000Z</time>
</trkpt>
<trkpt lat="59.5311937" lon="31.1944644">
<ele>47.879997</ele>
<time>2026-08-31T22:48:40.000Z</time>
</trkpt>
<trkpt lat="59.5311822" lon="31.1944021">
<ele>49.580002</ele>
<time>2026-08-31T22:49:26.000Z</time>
</trkpt>
<trkpt lat="59.5312169" lon="31.1944011">
<ele>47.070000</ele>
<time>2026-08-31T22:49:58.000Z</time>
</trkpt>
<trkpt lat="59.5312074" lon="31.1943161">
<ele>46.129997</ele>
<time>2026-08-31T22:50:18.000Z</time>
</trkpt>
<trkpt lat="59.5312747" lon="31.1940903">
<ele>46.680000</ele>
<time>2026-08-31T22:50:45.000Z</time>
</trkpt>
<trkpt lat="59.5313475" lon="31.1939198">
<ele>47.189999</ele>
<time>2026-08-31T22:51:05.000Z</time>
</trkpt>
<trkpt lat="59.5313968" lon="31.1936783">
<ele>47.349998</ele>
<time>2026-08-31T22:51:34.000Z</time>
</trkpt>
<trkpt lat="59.5313794" lon="31.1935049">
<ele>46.980003</ele>
<time>2026-08-31T22:51:59.000Z</time>
</trkpt>
<trkpt lat="59.5314144" lon="31.1932629">
<ele>46.500000</ele>
<time>2026-08-31T22:52:24.000Z</time>
</trkpt>
<trkpt lat="59.5314376" lon="31.1930346">
<ele>47.429996</ele>
<time>2026-08-31T22:52:45.000Z</time>
</trkpt>
<trkpt lat="59.5314645" lon="31.1927575">
<ele>47.540001</ele>
<time>2026-08-31T22:53:09.000Z</time>
</trkpt>
<trkpt lat="59.5314739" lon="31.1925410">
<ele>47.700001</ele>
<time>2026-08-31T22:53:29.000Z</time>
</trkpt>
<trkpt lat="59.5314708" lon="31.1922701">
<ele>48.080002</ele>
<time>2026-08-31T22:53:57.000Z</time>
</trkpt>
<trkpt lat="59.5314552" lon="31.1920793">
<ele>48.259998</ele>
<time>2026-08-31T22:54:23.000Z</time>
</trkpt>
<trkpt lat="59.5315148" lon="31.1920715">
<ele>45.579998</ele>
<time>2026-08-31T22:54:47.000Z</time>
</trkpt>
<trkpt lat="59.5315313" lon="31.1920691">
<ele>47.269997</ele>
<time>2026-08-31T22:55:23.000Z</time>
</trkpt>
<trkpt lat="59.5315796" lon="31.1920750">
<ele>48.610001</ele>
<time>2026-08-31T22:56:09.000Z</time>
</trkpt>
<trkpt lat="59.5315319" lon="31.1920664">
<ele>51.250004</ele>
<time>2026-08-31T22:56:37.000Z</time>
</trkpt>
<trkpt lat="59.5315089" lon="31.1920654">
<ele>47.220001</ele>
<time>2026-08-31T22:57:25.000Z</time>
</trkpt>
<trkpt lat="59.5315227" lon="31.1919750">
<ele>46.150002</ele>
<time>2026-08-31T22:57:47.000Z</time>
</trkpt>
<trkpt lat="59.5315272" lon="31.1917422">
<ele>45.650002</ele>
<time>2026-08-31T22:58:05.000Z</time>
</trkpt>
<trkpt lat="59.5315318" lon="31.1915272">
<ele>44.920002</ele>
<time>2026-08-31T22:58:26.000Z</time>
</trkpt>
<trkpt lat="59.5315288" lon="31.1912338">
<ele>46.010002</ele>
<time>2026-08-31T22:58:54.000Z</time>
</trkpt>
<trkpt lat="59.5315235" lon="31.1910189">
<ele>45.880001</ele>
<time>2026-08-31T22:59:14.000Z</time>
</trkpt>
<trkpt lat="59.5315169" lon="31.1907377">
<ele>45.170002</ele>
<time>2026-08-31T22:59:31.000Z</time>
</trkpt>
<trkpt lat="59.5315133" lon="31.1905102">
<ele>46.410000</ele>
<time>2026-08-31T23:00:04.000Z</time>
</trkpt>
<trkpt lat="59.5315137" lon="31.1903476">
<ele>47.189999</ele>
<time>2026-08-31T23:00:25.000Z</time>
</trkpt>
<trkpt lat="59.5314997" lon="31.1902763">
<ele>48.039997</ele>
<time>2026-08-31T23:01:03.000Z</time>
</trkpt>
<trkpt lat="59.5315169" lon="31.1901441">
<ele>48.070000</ele>
<time>2026-08-31T23:01:28.000Z</time>
</trkpt>
<trkpt lat="59.5315272" lon="31.1898757">
<ele>47.930000</ele>
<time>2026-08-31T23:01:41.000Z</time>
</trkpt>
<trkpt lat="59.5315454" lon="31.1897748">
<ele>48.660004</ele>
<time>2026-08-31T23:02:02.000Z</time>
</trkpt>
<trkpt lat="59.5315473" lon="31.1896581">
<ele>49.079998</ele>
<time>2026-08-31T23:02:32.000Z</time>
</trkpt>
<trkpt lat="59.5315365" lon="31.1894366">
<ele>48.660004</ele>
<time>2026-08-31T23:02:48.000Z</time>
</trkpt>
<trkpt lat="59.5315557" lon="31.1892443">
<ele>48.009998</ele>
<time>2026-08-31T23:03:16.000Z</time>
</trkpt>
<trkpt lat="59.5315189" lon="31.1892215">
<ele>46.500000</ele>
<time>2026-08-31T23:03:42.000Z</time>
</trkpt>
<trkpt lat="59.5315495" lon="31.1891983">
<ele>44.880001</ele>
<time>2026-08-31T23:04:10.000Z</time>
</trkpt>
<trkpt lat="59.5315384" lon="31.1891852">
<ele>46.750004</ele>
<time>2026-08-31T23:05:07.000Z</time>
</trkpt>
<trkpt lat="59.5315749" lon="31.1890794">
<ele>48.419998</ele>
<time>2026-08-31T23:05:45.000Z</time>
</trkpt>
<trkpt lat="59.5315547" lon="31.1891049">
<ele>47.750000</ele>
<time>2026-08-31T23:06:19.000Z</time>
</trkpt>
<trkpt lat="59.5315640" lon="31.1890583">
<ele>47.119999</ele>
<time>2026-08-31T23:06:43.000Z</time>
</trkpt>
<trkpt lat="59.5316086" lon="31.1890040">
<ele>47.130001</ele>
<time>2026-08-31T23:07:06.000Z</time>
</trkpt>
<trkpt lat="59.5315920" lon="31.1888360">
<ele>47.060001</ele>
<time>2026-08-31T23:07:21.000Z</time>
</trkpt>
<trkpt lat="59.5315762" lon="31.1886552">
<ele>47.659996</ele>
<time>2026-08-31T23:07:45.000Z</time>
</trkpt>
<trkpt lat="59.5314899" lon="31.1884767">
<ele>47.809998</ele>
<time>2026-08-31T23:08:04.000Z</time>
</trkpt>
<trkpt lat="59.5314519" lon="31.1884067">
<ele>48.840000</ele>
<time>2026-08-31T23:08:20.000Z</time>
</trkpt>
<trkpt lat="59.5314495" lon="31.1882263">
<ele>48.760002</ele>
<time>2026-08-31T23:08:41.000Z</time>
</trkpt>
<trkpt lat="59.5314474" lon="31.1880804">
<ele>48.060001</ele>
<time>2026-08-31T23:09:05.000Z</time>
</trkpt>
<trkpt lat="59.5314506" lon="31.1879948">
<ele>48.339996</ele>
<time>2026-08-31T23:09:29.000Z</time>
</trkpt>
<trkpt lat="59.5314236" lon="31.1876064">
<ele>48.820000</ele>
<time>2026-08-31T23:09:53.000Z</time>
</trkpt>
<trkpt lat="59.5314001" lon="31.1873091">
<ele>49.130001</ele>
<time>2026-08-31T23:10:08.000Z</time>
</trkpt>
<trkpt lat="59.5313470" lon="31.1870664">
<ele>49.160000</ele>
<time>2026-08-31T23:10:24.000Z</time>
</trkpt>
<trkpt lat="59.5313392" lon="31.1869272">
<ele>49.230000</ele>
<time>2026-08-31T23:10:40.000Z</time>
</trkpt>
<trkpt lat="59.5313272" lon="31.1867243">
<ele>51.560001</ele>
<time>2026-08-31T23:10:53.000Z</time>
</trkpt>
<trkpt lat="59.5313485" lon="31.1865437">
<ele>52.149998</ele>
<time>2026-08-31T23:11:11.000Z</time>
</trkpt>
<trkpt lat="59.5313473" lon="31.1865652">
<ele>50.329998</ele>
<time>2026-08-31T23:11:33.000Z</time>
</trkpt>
<trkpt lat="59.5313551" lon="31.1865218">
<ele>50.430000</ele>
<time>2026-08-31T23:11:53.000Z</time>
</trkpt>
<trkpt lat="59.5313934" lon="31.1865844">
<ele>53.509998</ele>
<time>2026-08-31T23:13:05.000Z</time>
</trkpt>
<trkpt lat="59.5314138" lon="31.1865046">
<ele>58.110001</ele>
<time>2026-08-31T23:13:39.000Z</time>
</trkpt>
<trkpt lat="59.5313635" lon="31.1864453">
<ele>60.209999</ele>
<time>2026-08-31T23:14:19.000Z</time>
</trkpt>
<trkpt lat="59.5313797" lon="31.1861704">
<ele>60.750000</ele>
<time>2026-08-31T23:14:37.000Z</time>
</trkpt>
<trkpt lat="59.5314462" lon="31.1859233">
<ele>60.390003</ele>
<time>2026-08-31T23:14:53.000Z</time>
</trkpt>
<trkpt lat="59.5314584" lon="31.1857968">
<ele>59.119999</ele>
<time>2026-08-31T23:15:05.000Z</time>
</trkpt>
<trkpt lat="59.5315081" lon="31.1856849">
<ele>56.789997</ele>
<time>2026-08-31T23:15:21.000Z</time>
</trkpt>
<trkpt lat="59.5314731" lon="31.1854316">
<ele>55.619999</ele>
<time>2026-08-31T23:15:42.000Z</time>
</trkpt>
<trkpt lat="59.5314723" lon="31.1853046">
<ele>54.969997</ele>
<time>2026-08-31T23:15:58.000Z</time>
</trkpt>
<trkpt lat="59.5315017" lon="31.1851663">
<ele>54.620003</ele>
<time>2026-08-31T23:16:17.000Z</time>
</trkpt>
<trkpt lat="59.5315038" lon="31.1850345">
<ele>53.739998</ele>
<time>2026-08-31T23:16:44.000Z</time>
</trkpt>
<trkpt lat="59.5314951" lon="31.1849050">
<ele>53.809998</ele>
<time>2026-08-31T23:16:57.000Z</time>
</trkpt>
<trkpt lat="59.5314837" lon="31.1847723">
<ele>53.969997</ele>
<time>2026-08-31T23:17:14.000Z</time>
</trkpt>
<trkpt lat="59.5314768" lon="31.1846749">
<ele>53.889999</ele>
<time>2026-08-31T23:17:39.000Z</time>
</trkpt>
<trkpt lat="59.5315075" lon="31.1845392">
<ele>53.500000</ele>
<time>2026-08-31T23:18:01.000Z</time>
</trkpt>
<trkpt lat="59.5315094" lon="31.1843863">
<ele>54.969997</ele>
<time>2026-08-31T23:18:13.000Z</time>
</trkpt>
<trkpt lat="59.5315454" lon="31.1843594">
<ele>60.180000</ele>
<time>2026-08-31T23:18:38.000Z</time>
</trkpt>
<trkpt lat="59.5315268" lon="31.1842500">
<ele>58.650002</ele>
<time>2026-08-31T23:19:25.000Z</time>
</trkpt>
<trkpt lat="59.5315645" lon="31.1844532">
<ele>56.670002</ele>
<time>2026-08-31T23:19:54.000Z</time>
</trkpt>
<trkpt lat="59.5316490" lon="31.1844950">
<ele>55.610001</ele>
<time>2026-08-31T23:20:29.000Z</time>
</trkpt>
<trkpt lat="59.5316951" lon="31.1844650">
<ele>55.380001</ele>
<time>2026-08-31T23:20:54.000Z</time>
</trkpt>
<trkpt lat="59.5316614" lon="31.1844361">
<ele>56.789997</ele>
<time>2026-08-31T23:21:29.000Z</time>
</trkpt>
<trkpt lat="59.5316833" lon="31.1843415">
<ele>55.419998</ele>
<time>2026-08-31T23:21:54.000Z</time>
</trkpt>
<trkpt lat="59.5316495" lon="31.1843533">
<ele>54.799999</ele>
<time>2026-08-31T23:22:17.000Z</time>
</trkpt>
<trkpt lat="59.5316935" lon="31.1842288">
<ele>53.490002</ele>
<time>2026-08-31T23:22:44.000Z</time>
</trkpt>
<trkpt lat="59.5316368" lon="31.1842920">
<ele>53.529999</ele>
<time>2026-08-31T23:23:03.000Z</time>
</trkpt>
<trkpt lat="59.5315707" lon="31.1843230">
<ele>54.300003</ele>
<time>2026-08-31T23:23:52.000Z</time>
</trkpt>
<trkpt lat="59.5315199" lon="31.1842257">
<ele>51.669998</ele>
<time>2026-08-31T23:24:35.000Z</time>
</trkpt>
<trkpt lat="59.5315633" lon="31.1843538">
<ele>49.209999</ele>
<time>2026-08-31T23:25:04.000Z</time>
</trkpt>
<trkpt lat="59.5316215" lon="31.1843842">
<ele>50.099998</ele>
<time>2026-08-31T23:25:30.000Z</time>
</trkpt>
<trkpt lat="59.5315771" lon="31.1844154">
<ele>52.930000</ele>
<time>2026-08-31T23:26:09.000Z</time>
</trkpt>
<trkpt lat="59.5315651" lon="31.1845169">
<ele>52.730000</ele>
<time>2026-08-31T23:26:31.000Z</time>
</trkpt>
<trkpt lat="59.5315509" lon="31.1844496">
<ele>53.799999</ele>
<time>2026-08-31T23:26:54.000Z</time>
</trkpt>
<trkpt lat="59.5315902" lon="31.1844946">
<ele>53.739998</ele>
<time>2026-08-31T23:27:24.000Z</time>
</trkpt>
<trkpt lat="59.5315174" lon="31.1844081">
<ele>52.970001</ele>
<time>2026-08-31T23:27:45.000Z</time>
</trkpt>
<trkpt lat="59.5314982" lon="31.1842910">
<ele>52.850002</ele>
<time>2026-08-31T23:28:06.000Z</time>
</trkpt>
<trkpt lat="59.5315277" lon="31.1842982">
<ele>52.899998</ele>
<time>2026-08-31T23:28:23.000Z</time>
</trkpt>
<trkpt lat="59.5314837" lon="31.1844506">
<ele>52.940002</ele>
<time>2026-08-31T23:28:52.000Z</time>
</trkpt>
<trkpt lat="59.5314407" lon="31.1843984">
<ele>48.480000</ele>
<time>2026-08-31T23:29:21.000Z</time>
</trkpt>
<trkpt lat="59.5314915" lon="31.1843683">
<ele>51.000000</ele>
<time>2026-08-31T23:29:49.000Z</time>
</trkpt>
<trkpt lat="59.5314992" lon="31.1841590">
<ele>52.369999</ele>
<time>2026-08-31T23:30:11.000Z</time>
</trkpt>
<trkpt lat="59.5315504" lon="31.1840362">
<ele>53.770000</ele>
<time>2026-08-31T23:30:50.000Z</time>
</trkpt>
<trkpt lat="59.5315789" lon="31.1839803">
<ele>55.220001</ele>
<time>2026-08-31T23:31:20.000Z</time>
</trkpt>
<trkpt lat="59.5315608" lon="31.1838482">
<ele>55.199997</ele>
<time>2026-08-31T23:31:41.000Z</time>
</trkpt>
<trkpt lat="59.5315361" lon="31.1837988">
<ele>56.740002</ele>
<time>2026-08-31T23:32:11.000Z</time>
</trkpt>
<trkpt lat="59.5315577" lon="31.1836646">
<ele>56.830002</ele>
<time>2026-08-31T23:32:33.000Z</time>
</trkpt>
<trkpt lat="59.5315760" lon="31.1834048">
<ele>56.529999</ele>
<time>2026-08-31T23:33:05.000Z</time>
</trkpt>
<trkpt lat="59.5316091" lon="31.1832162">
<ele>56.410000</ele>
<time>2026-08-31T23:33:26.000Z</time>
</trkpt>
<trkpt lat="59.5315786" lon="31.1829203">
<ele>56.789997</ele>
<time>2026-08-31T23:33:48.000Z</time>
</trkpt>
<trkpt lat="59.5315892" lon="31.1827116">
<ele>57.580002</ele>
<time>2026-08-31T23:34:03.000Z</time>
</trkpt>
<trkpt lat="59.5316040" lon="31.1824997">
<ele>58.280003</ele>
<time>2026-08-31T23:34:21.000Z</time>
</trkpt>
<trkpt lat="59.5316121" lon="31.1824326">
<ele>57.520000</ele>
<time>2026-08-31T23:34:47.000Z</time>
</trkpt>
<trkpt lat="59.5316431" lon="31.1822475">
<ele>57.259998</ele>
<time>2026-08-31T23:35:04.000Z</time>
</trkpt>
<trkpt lat="59.5316142" lon="31.1821634">
<ele>60.200001</ele>
<time>2026-08-31T23:35:48.000Z</time>
</trkpt>
<trkpt lat="59.5316697" lon="31.1822139">
<ele>60.799999</ele>
<time>2026-08-31T23:36:18.000Z</time>
</trkpt>
<trkpt lat="59.5316303" lon="31.1822696">
<ele>60.810001</ele>
<time>2026-08-31T23:36:35.000Z</time>
</trkpt>
<trkpt lat="59.5316220" lon="31.1822202">
<ele>52.070000</ele>
<time>2026-08-31T23:37:54.000Z</time>
</trkpt>
<trkpt lat="59.5316506" lon="31.1821181">
<ele>46.930000</ele>
<time>2026-08-31T23:38:19.000Z</time>
</trkpt>
<trkpt lat="59.5316379" lon="31.1820347">
<ele>47.760002</ele>
<time>2026-08-31T23:38:55.000Z</time>
</trkpt>
<trkpt lat="59.5316194" lon="31.1817576">
<ele>48.410000</ele>
<time>2026-08-31T23:39:17.000Z</time>
</trkpt>
<trkpt lat="59.5316033" lon="31.1814824">
<ele>48.930000</ele>
<time>2026-08-31T23:39:40.000Z</time>
</trkpt>
<trkpt lat="59.5316096" lon="31.1812834">
<ele>49.120003</ele>
<time>2026-08-31T23:39:56.000Z</time>
</trkpt>
<trkpt lat="59.5316249" lon="31.1810992">
<ele>49.960003</ele>
<time>2026-08-31T23:40:10.000Z</time>
</trkpt>
<trkpt lat="59.5316211" lon="31.1808821">
<ele>50.960003</ele>
<time>2026-08-31T23:40:34.000Z</time>
</trkpt>
<trkpt lat="59.5316521" lon="31.1805929">
<ele>52.090000</ele>
<time>2026-08-31T23:40:54.000Z</time>
</trkpt>
<trkpt lat="59.5316765" lon="31.1803946">
<ele>52.669998</ele>
<time>2026-08-31T23:41:10.000Z</time>
</trkpt>
<trkpt lat="59.5316640" lon="31.1802426">
<ele>53.430000</ele>
<time>2026-08-31T23:41:24.000Z</time>
</trkpt>
<trkpt lat="59.5316806" lon="31.1801021">
<ele>54.669998</ele>
<time>2026-08-31T23:41:37.000Z</time>
</trkpt>
<trkpt lat="59.5317013" lon="31.1801028">
<ele>54.680000</ele>
<time>2026-08-31T23:41:55.000Z</time>
</trkpt>
<trkpt lat="59.5317063" lon="31.1801038">
<ele>54.830002</ele>
<time>2026-08-31T23:42:18.000Z</time>
</trkpt>
<trkpt lat="59.5317190" lon="31.1801326">
<ele>55.250000</ele>
<time>2026-08-31T23:43:22.000Z</time>
</trkpt>
<trkpt lat="59.5317277" lon="31.1801153">
<ele>55.150002</ele>
<time>2026-08-31T23:44:05.000Z</time>
</trkpt>
<trkpt lat="59.5316742" lon="31.1800962">
<ele>55.920002</ele>
<time>2026-08-31T23:44:35.000Z</time>
</trkpt>
<trkpt lat="59.5316983" lon="31.1800367">
<ele>57.430000</ele>
<time>2026-08-31T23:45:19.000Z</time>
</trkpt>
<trkpt lat="59.5316993" lon="31.1800732">
<ele>58.840000</ele>
<time>2026-08-31T23:45:59.000Z</time>
</trkpt>
<trkpt lat="59.5317368" lon="31.1801418">
<ele>58.320000</ele>
<time>2026-08-31T23:46:23.000Z</time>
</trkpt>
<trkpt lat="59.5317060" lon="31.1800746">
<ele>57.320000</ele>
<time>2026-08-31T23:47:15.000Z</time>
</trkpt>
<trkpt lat="59.5317256" lon="31.1798049">
<ele>57.290001</ele>
<time>2026-08-31T23:47:27.000Z</time>
</trkpt>
<trkpt lat="59.5316872" lon="31.1796046">
<ele>56.789997</ele>
<time>2026-08-31T23:47:41.000Z</time>
</trkpt>
<trkpt lat="59.5316648" lon="31.1793639">
<ele>56.099998</ele>
<time>2026-08-31T23:47:53.000Z</time>
</trkpt>
<trkpt lat="59.5316485" lon="31.1791089">
<ele>55.930000</ele>
<time>2026-08-31T23:48:10.000Z</time>
</trkpt>
<trkpt lat="59.5316447" lon="31.1788701">
<ele>54.860001</ele>
<time>2026-08-31T23:48:30.000Z</time>
</trkpt>
<trkpt lat="59.5316547" lon="31.1785904">
<ele>54.430000</ele>
<time>2026-08-31T23:48:48.000Z</time>
</trkpt>
<trkpt lat="59.5316286" lon="31.1783227">
<ele>53.940002</ele>
<time>2026-08-31T23:49:07.000Z</time>
</trkpt>
<trkpt lat="59.5315972" lon="31.1780805">
<ele>50.929996</ele>
<time>2026-08-31T23:49:22.000Z</time>
</trkpt>
<trkpt lat="59.5315981" lon="31.1780195">
<ele>50.599998</ele>
<time>2026-08-31T23:49:36.000Z</time>
</trkpt>
<trkpt lat="59.5315842" lon="31.1779931">
<ele>49.730003</ele>
<time>2026-08-31T23:50:06.000Z</time>
</trkpt>
<trkpt lat="59.5314345" lon="31.1780169">
<ele>50.450001</ele>
<time>2026-08-31T23:50:25.000Z</time>
</trkpt>
<trkpt lat="59.5313382" lon="31.1780465">
<ele>50.640003</ele>
<time>2026-08-31T23:50:43.000Z</time>
</trkpt>
<trkpt lat="59.5313014" lon="31.1780834">
<ele>51.880001</ele>
<time>2026-08-31T23:51:20.000Z</time>
</trkpt>
<trkpt lat="59.5312958" lon="31.1780834">
<ele>51.950001</ele>
<time>2026-08-31T23:51:41.000Z</time>
</trkpt>
<trkpt lat="59.5313174" lon="31.1782459">
<ele>53.279999</ele>
<time>2026-08-31T23:51:58.000Z</time>
</trkpt>
<trkpt lat="59.5313215" lon="31.1783320">
<ele>54.240002</ele>
<time>2026-08-31T23:52:31.000Z</time>
</trkpt>
<trkpt lat="59.5312433" lon="31.1783241">
<ele>55.760002</ele>
<time>2026-08-31T23:52:47.000Z</time>
</trkpt>
<trkpt lat="59.5310992" lon="31.1782501">
<ele>55.489998</ele>
<time>2026-08-31T23:53:03.000Z</time>
</trkpt>
<trkpt lat="59.5310215" lon="31.1782387">
<ele>55.119999</ele>
<time>2026-08-31T23:53:16.000Z</time>
</trkpt>
<trkpt lat="59.5308731" lon="31.1783319">
<ele>55.070000</ele>
<time>2026-08-31T23:53:33.000Z</time>
</trkpt>
<trkpt lat="59.5308041" lon="31.1782314">
<ele>53.560001</ele>
<time>2026-08-31T23:53:52.000Z</time>
</trkpt>
<trkpt lat="59.5307824" lon="31.1782676">
<ele>52.119999</ele>
<time>2026-08-31T23:54:18.000Z</time>
</trkpt>
<trkpt lat="59.5307393" lon="31.1782330">
<ele>52.090000</ele>
<time>2026-08-31T23:54:37.000Z</time>
</trkpt>
<trkpt lat="59.5308057" lon="31.1782975">
<ele>52.250000</ele>
<time>2026-08-31T23:54:54.000Z</time>
</trkpt>
<trkpt lat="59.5308083" lon="31.1784275">
<ele>54.389999</ele>
<time>2026-08-31T23:55:20.000Z</time>
</trkpt>
<trkpt lat="59.5307602" lon="31.1784174">
<ele>55.450001</ele>
<time>2026-08-31T23:55:49.000Z</time>
</trkpt>
<trkpt lat="59.5308118" lon="31.1784220">
<ele>54.380001</ele>
<time>2026-08-31T23:56:06.000Z</time>
</trkpt>
<trkpt lat="59.5308185" lon="31.1783688">
<ele>53.969997</ele>
<time>2026-08-31T23:56:26.000Z</time>
</trkpt>
<trkpt lat="59.5307936" lon="31.1782724">
<ele>54.799999</ele>
<time>2026-08-31T23:56:47.000Z</time>
</trkpt>
<trkpt lat="59.5308060" lon="31.1783007">
<ele>52.090000</ele>
<time>2026-08-31T23:57:19.000Z</time>
</trkpt>
<trkpt lat="59.5307190" lon="31.1782754">
<ele>46.340000</ele>
<time>2026-08-31T23:57:37.000Z</time>
</trkpt>
<trkpt lat="59.5305581" lon="31.1781869">
<ele>47.670002</ele>
<time>2026-08-31T23:57:52.000Z</time>
</trkpt>
<trkpt lat="59.5304844" lon="31.1781836">
<ele>50.360001</ele>
<time>2026-08-31T23:58:08.000Z</time>
</trkpt>
<trkpt lat="59.5304289" lon="31.1782214">
<ele>51.529999</ele>
<time>2026-08-31T23:58:28.000Z</time>
</trkpt>
<trkpt lat="59.5303927" lon="31.1783053">
<ele>51.369999</ele>
<time>2026-08-31T23:58:46.000Z</time>
</trkpt>
<trkpt lat="59.5303068" lon="31.1783457">
<ele>51.570000</ele>
<time>2026-08-31T23:59:02.000Z</time>
</trkpt>
<trkpt lat="59.5301895" lon="31.1782926">
<ele>50.510002</ele>
<time>2026-08-31T23:59:19.000Z</time>
</trkpt>
<trkpt lat="59.5301422" lon="31.1783055">
<ele>51.430000</ele>
<time>2026-08-31T23:59:44.000Z</time>
</trkpt>
<trkpt lat="59.5300737" lon="31.1783121">
<ele>52.430000</ele>
<time>2026-08-31T23:59:57.000Z</time>
</trkpt>
<trkpt lat="59.5300111" lon="31.1782738">
<ele>57.680000</ele>
<time>2026-09-01T00:00:14.000Z</time>
</trkpt>
<trkpt lat="59.5300119" lon="31.1782913">
<ele>57.990002</ele>
<time>2026-09-01T00:00:29.000Z</time>
</trkpt>
<trkpt lat="59.5300072" lon="31.1783406">
<ele>57.489998</ele>
<time>2026-09-01T00:01:02.000Z</time>
</trkpt>
<trkpt lat="59.5300193" lon="31.1784810">
<ele>58.810001</ele>
<time>2026-09-01T00:01:29.000Z</time>
</trkpt>
<trkpt lat="59.5300406" lon="31.1788272">
<ele>58.169998</ele>
<time>2026-09-01T00:01:52.000Z</time>
</trkpt>
<trkpt lat="59.5300421" lon="31.1789992">
<ele>56.849998</ele>
<time>2026-09-01T00:02:07.000Z</time>
</trkpt>
<trkpt lat="59.5300601" lon="31.1792217">
<ele>56.450001</ele>
<time>2026-09-01T00:02:31.000Z</time>
</trkpt>
<trkpt lat="59.5300658" lon="31.1794269">
<ele>57.169998</ele>
<time>2026-09-01T00:02:47.000Z</time>
</trkpt>
<trkpt lat="59.5300284" lon="31.1795495">
<ele>52.289997</ele>
<time>2026-09-01T00:03:01.000Z</time>
</trkpt>
<trkpt lat="59.5299964" lon="31.1795927">
<ele>52.240002</ele>
<time>2026-09-01T00:03:20.000Z</time>
</trkpt>
<trkpt lat="59.5299440" lon="31.1797927">
<ele>52.390003</ele>
<time>2026-09-01T00:03:38.000Z</time>
</trkpt>
<trkpt lat="59.5298893" lon="31.1799450">
<ele>52.410000</ele>
<time>2026-09-01T00:03:52.000Z</time>
</trkpt>
<trkpt lat="59.5298471" lon="31.1799184">
<ele>53.869999</ele>
<time>2026-09-01T00:04:13.000Z</time>
</trkpt>
<trkpt lat="59.5298564" lon="31.1799258">
<ele>53.449997</ele>
<time>2026-09-01T00:04:31.000Z</time>
</trkpt>
<trkpt lat="59.5299056" lon="31.1798319">
<ele>51.970001</ele>
<time>2026-09-01T00:05:19.000Z</time>
</trkpt>
<trkpt lat="59.5299328" lon="31.1799092">
<ele>53.100002</ele>
<time>2026-09-01T00:05:53.000Z</time>
</trkpt>
<trkpt lat="59.5299062" lon="31.1799020">
<ele>53.739998</ele>
<time>2026-09-01T00:06:18.000Z</time>
</trkpt>
<trkpt lat="59.5299017" lon="31.1798326">
<ele>52.020000</ele>
<time>2026-09-01T00:06:40.000Z</time>
</trkpt>
<trkpt lat="59.5298893" lon="31.1799200">
<ele>51.500000</ele>
<time>2026-09-01T00:06:58.000Z</time>
</trkpt>
<trkpt lat="59.5298519" lon="31.1799170">
<ele>45.070000</ele>
<time>2026-09-01T00:07:34.000Z</time>
</trkpt>
<trkpt lat="59.5298249" lon="31.1799833">
<ele>46.430000</ele>
<time>2026-09-01T00:08:03.000Z</time>
</trkpt>
<trkpt lat="59.5298606" lon="31.1800303">
<ele>46.189999</ele>
<time>2026-09-01T00:08:22.000Z</time>
</trkpt>
<trkpt lat="59.5298649" lon="31.1801867">
<ele>46.220001</ele>
<time>2026-09-01T00:08:34.000Z</time>
</trkpt>
<trkpt lat="59.5298696" lon="31.1803562">
<ele>46.300003</ele>
<time>2026-09-01T00:08:53.000Z</time>
</trkpt>
<trkpt lat="59.5298477" lon="31.1805214">
<ele>46.400002</ele>
<time>2026-09-01T00:09:05.000Z</time>
</trkpt>
<trkpt lat="59.5298766" lon="31.1806556">
<ele>45.369999</ele>
<time>2026-09-01T00:09:22.000Z</time>
</trkpt>
<trkpt lat="59.5298684" lon="31.1808784">
<ele>45.560001</ele>
<time>2026-09-01T00:09:38.000Z</time>
</trkpt>
<trkpt lat="59.5298259" lon="31.1811643">
<ele>44.850002</ele>
<time>2026-09-01T00:09:54.000Z</time>
</trkpt>
<trkpt lat="59.5298093" lon="31.1814370">
<ele>45.519997</ele>
<time>2026-09-01T00:10:11.000Z</time>
</trkpt>
<trkpt lat="59.5297950" lon="31.1816652">
<ele>46.160000</ele>
<time>2026-09-01T00:10:27.000Z</time>
</trkpt>
<trkpt lat="59.5297826" lon="31.1818596">
<ele>46.199997</ele>
<time>2026-09-01T00:10:42.000Z</time>
</trkpt>
<trkpt lat="59.5297970" lon="31.1820181">
<ele>46.980003</ele>
<time>2026-09-01T00:10:56.000Z</time>
</trkpt>
<trkpt lat="59.5298431" lon="31.1822802">
<ele>47.849998</ele>
<time>2026-09-01T00:11:11.000Z</time>
</trkpt>
<trkpt lat="59.5298779" lon="31.1824439">
<ele>48.169998</ele>
<time>2026-09-01T00:11:22.000Z</time>
</trkpt>
<trkpt lat="59.5299022" lon="31.1825924">
<ele>48.709999</ele>
<time>2026-09-01T00:11:37.000Z</time>
</trkpt>
<trkpt lat="59.5298611" lon="31.1827683">
<ele>49.450001</ele>
<time>2026-09-01T00:11:58.000Z</time>
</trkpt>
<trkpt lat="59.5298509" lon="31.1828042">
<ele>49.369999</ele>
<time>2026-09-01T00:12:00.000Z</time>
</trkpt>
<trkpt lat="59.5298547" lon="31.1828342">
<ele>49.259998</ele>
<time>2026-09-01T00:12:02.000Z</time>
</trkpt>
<trkpt lat="59.5298806" lon="31.1830221">
<ele>49.450001</ele>
<time>2026-09-01T00:12:14.000Z</time>
</trkpt>
<trkpt lat="59.5298428" lon="31.1830884">
<ele>50.209999</ele>
<time>2026-09-01T00:12:28.000Z</time>
</trkpt>
<trkpt lat="59.5298236" lon="31.1831659">
<ele>52.540001</ele>
<time>2026-09-01T00:13:12.000Z</time>
</trkpt>
<trkpt lat="59.5297669" lon="31.1832725">
<ele>55.199997</ele>
<time>2026-09-01T00:13:36.000Z</time>
</trkpt>
<trkpt lat="59.5297884" lon="31.1832183">
<ele>59.750000</ele>
<time>2026-09-01T00:14:16.000Z</time>
</trkpt>
<trkpt lat="59.5298007" lon="31.1831774">
<ele>59.549999</ele>
<time>2026-09-01T00:15:08.000Z</time>
</trkpt>
<trkpt lat="59.5298006" lon="31.1831529">
<ele>58.430000</ele>
<time>2026-09-01T00:15:50.000Z</time>
</trkpt>
<trkpt lat="59.5298411" lon="31.1830759">
<ele>56.090000</ele>
<time>2026-09-01T00:16:48.000Z</time>
</trkpt>
<trkpt lat="59.5298726" lon="31.1834124">
<ele>56.099998</ele>
<time>2026-09-01T00:17:04.000Z</time>
</trkpt>
<trkpt lat="59.5298602" lon="31.1836123">
<ele>56.210003</ele>
<time>2026-09-01T00:17:17.000Z</time>
</trkpt>
<trkpt lat="59.5298575" lon="31.1839180">
<ele>55.949997</ele>
<time>2026-09-01T00:17:38.000Z</time>
</trkpt>
<trkpt lat="59.5298203" lon="31.1841194">
<ele>55.639999</ele>
<time>2026-09-01T00:17:57.000Z</time>
</trkpt>
<trkpt lat="59.5298046" lon="31.1842745">
<ele>55.779999</ele>
<time>2026-09-01T00:18:16.000Z</time>
</trkpt>
<trkpt lat="59.5297712" lon="31.1844344">
<ele>52.720001</ele>
<time>2026-09-01T00:18:35.000Z</time>
</trkpt>
<trkpt lat="59.5296898" lon="31.1845989">
<ele>51.369999</ele>
<time>2026-09-01T00:19:03.000Z</time>
</trkpt>
<trkpt lat="59.5296565" lon="31.1847366">
<ele>50.960003</ele>
<time>2026-09-01T00:19:20.000Z</time>
</trkpt>
<trkpt lat="59.5296907" lon="31.1848621">
<ele>51.299999</ele>
<time>2026-09-01T00:19:39.000Z</time>
</trkpt>
<trkpt lat="59.5296706" lon="31.1850799">
<ele>51.599998</ele>
<time>2026-09-01T00:19:59.000Z</time>
</trkpt>
<trkpt lat="59.5296413" lon="31.1853414">
<ele>51.279999</ele>
<time>2026-09-01T00:20:22.000Z</time>
</trkpt>
<trkpt lat="59.5295798" lon="31.1854655">
<ele>52.139999</ele>
<time>2026-09-01T00:20:33.000Z</time>
</trkpt>
<trkpt lat="59.5295785" lon="31.1854939">
<ele>47.719997</ele>
<time>2026-09-01T00:20:42.000Z</time>
</trkpt>
<trkpt lat="59.5295873" lon="31.1855667">
<ele>48.849998</ele>
<time>2026-09-01T00:20:59.000Z</time>
</trkpt>
<trkpt lat="59.5295618" lon="31.1856426">
<ele>46.500000</ele>
<time>2026-09-01T00:21:27.000Z</time>
</trkpt>
<trkpt lat="59.5295587" lon="31.1856553">
<ele>46.380001</ele>
<time>2026-09-01T00:22:07.000Z</time>
</trkpt>
<trkpt lat="59.5295697" lon="31.1856489">
<ele>47.060001</ele>
<time>2026-09-01T00:22:43.000Z</time>
</trkpt>
<trkpt lat="59.5296444" lon="31.1855880">
<ele>44.270000</ele>
<time>2026-09-01T00:23:14.000Z</time>
</trkpt>
<trkpt lat="59.5295685" lon="31.1855737">
<ele>40.239998</ele>
<time>2026-09-01T00:23:40.000Z</time>
</trkpt>
<trkpt lat="59.5295692" lon="31.1856851">
<ele>43.550003</ele>
<time>2026-09-01T00:24:05.000Z</time>
</trkpt>
<trkpt lat="59.5295520" lon="31.1857357">
<ele>44.679996</ele>
<time>2026-09-01T00:24:23.000Z</time>
</trkpt>
<trkpt lat="59.5295256" lon="31.1859311">
<ele>45.760002</ele>
<time>2026-09-01T00:24:37.000Z</time>
</trkpt>
<trkpt lat="59.5295311" lon="31.1860589">
<ele>46.779999</ele>
<time>2026-09-01T00:24:55.000Z</time>
</trkpt>
<trkpt lat="59.5295179" lon="31.1862833">
<ele>46.860001</ele>
<time>2026-09-01T00:25:11.000Z</time>
</trkpt>
<trkpt lat="59.5294863" lon="31.1864857">
<ele>46.980003</ele>
<time>2026-09-01T00:25:29.000Z</time>
</trkpt>
<trkpt lat="59.5294265" lon="31.1866998">
<ele>47.020000</ele>
<time>2026-09-01T00:25:43.000Z</time>
</trkpt>
<trkpt lat="59.5293749" lon="31.1868629">
<ele>48.119999</ele>
<time>2026-09-01T00:26:02.000Z</time>
</trkpt>
<trkpt lat="59.5293562" lon="31.1869438">
<ele>48.709999</ele>
<time>2026-09-01T00:26:15.000Z</time>
</trkpt>
<trkpt lat="59.5293624" lon="31.1871648">
<ele>49.190002</ele>
<time>2026-09-01T00:26:30.000Z</time>
</trkpt>
<trkpt lat="59.5293416" lon="31.1872803">
<ele>50.180000</ele>
<time>2026-09-01T00:26:42.000Z</time>
</trkpt>
<trkpt lat="59.5293360" lon="31.1874473">
<ele>50.660000</ele>
<time>2026-09-01T00:26:57.000Z</time>
</trkpt>
<trkpt lat="59.5293501" lon="31.1877991">
<ele>52.430000</ele>
<time>2026-09-01T00:27:15.000Z</time>
</trkpt>
<trkpt lat="59.5293167" lon="31.1878882">
<ele>53.529999</ele>
<time>2026-09-01T00:27:30.000Z</time>
</trkpt>
<trkpt lat="59.5293568" lon="31.1878302">
<ele>53.529999</ele>
<time>2026-09-01T00:28:13.000Z</time>
</trkpt>
<trkpt lat="59.5293099" lon="31.1878178">
<ele>53.660000</ele>
<time>2026-09-01T00:28:44.000Z</time>
</trkpt>
<trkpt lat="59.5292983" lon="31.1878211">
<ele>46.990002</ele>
<time>2026-09-01T00:29:18.000Z</time>
</trkpt>
<trkpt lat="59.5293622" lon="31.1878080">
<ele>54.830002</ele>
<time>2026-09-01T00:30:28.000Z</time>
</trkpt>
<trkpt lat="59.5293379" lon="31.1878049">
<ele>55.910000</ele>
<time>2026-09-01T00:31:17.000Z</time>
</trkpt>
<trkpt lat="59.5293227" lon="31.1878403">
<ele>54.279999</ele>
<time>2026-09-01T00:32:25.000Z</time>
</trkpt>
<trkpt lat="59.5293189" lon="31.1878735">
<ele>54.500000</ele>
<time>2026-09-01T00:32:53.000Z</time>
</trkpt>
<trkpt lat="59.5293234" lon="31.1879353">
<ele>56.320000</ele>
<time>2026-09-01T00:33:26.000Z</time>
</trkpt>
<trkpt lat="59.5293058" lon="31.1879405">
<ele>55.389999</ele>
<time>2026-09-01T00:33:50.000Z</time>
</trkpt>
<trkpt lat="59.5292911" lon="31.1878364">
<ele>54.180000</ele>
<time>2026-09-01T00:34:20.000Z</time>
</trkpt>
<trkpt lat="59.5292905" lon="31.1878214">
<ele>49.599998</ele>
<time>2026-09-01T00:35:04.000Z</time>
</trkpt>
<trkpt lat="59.5292949" lon="31.1878586">
<ele>49.590000</ele>
<time>2026-09-01T00:35:58.000Z</time>
</trkpt>
<trkpt lat="59.5292987" lon="31.1878532">
<ele>49.169998</ele>
<time>2026-09-01T00:36:43.000Z</time>
</trkpt>
<trkpt lat="59.5293345" lon="31.1878981">
<ele>49.730003</ele>
<time>2026-09-01T00:37:45.000Z</time>
</trkpt>
<trkpt lat="59.5293338" lon="31.1879854">
<ele>49.590000</ele>
<time>2026-09-01T00:38:14.000Z</time>
</trkpt>
<trkpt lat="59.5292985" lon="31.1882016">
<ele>49.889999</ele>
<time>2026-09-01T00:38:34.000Z</time>
</trkpt>
<trkpt lat="59.5292538" lon="31.1883957">
<ele>49.559998</ele>
<time>2026-09-01T00:38:52.000Z</time>
</trkpt>
<trkpt lat="59.5292419" lon="31.1885626">
<ele>50.469997</ele>
<time>2026-09-01T00:39:12.000Z</time>
</trkpt>
<trkpt lat="59.5292107" lon="31.1888185">
<ele>50.290001</ele>
<time>2026-09-01T00:39:26.000Z</time>
</trkpt>
<trkpt lat="59.5292402" lon="31.1889561">
<ele>50.049999</ele>
<time>2026-09-01T00:39:48.000Z</time>
</trkpt>
<trkpt lat="59.5291967" lon="31.1891177">
<ele>50.689999</ele>
<time>2026-09-01T00:40:16.000Z</time>
</trkpt>
<trkpt lat="59.5291449" lon="31.1893085">
<ele>51.430000</ele>
<time>2026-09-01T00:40:32.000Z</time>
</trkpt>
<trkpt lat="59.5291159" lon="31.1894381">
<ele>51.919998</ele>
<time>2026-09-01T00:40:45.000Z</time>
</trkpt>
<trkpt lat="59.5292085" lon="31.1896696">
<ele>50.970001</ele>
<time>2026-09-01T00:41:04.000Z</time>
</trkpt>
<trkpt lat="59.5291760" lon="31.1898902">
<ele>51.030003</ele>
<time>2026-09-01T00:41:21.000Z</time>
</trkpt>
<trkpt lat="59.5291331" lon="31.1900249">
<ele>50.859997</ele>
<time>2026-09-01T00:41:33.000Z</time>
</trkpt>
<trkpt lat="59.5291644" lon="31.1901447">
<ele>51.219997</ele>
<time>2026-09-01T00:41:50.000Z</time>
</trkpt>
<trkpt lat="59.5291488" lon="31.1904465">
<ele>49.840000</ele>
<time>2026-09-01T00:42:11.000Z</time>
</trkpt>
<trkpt lat="59.5291201" lon="31.1909339">
<ele>49.480000</ele>
<time>2026-09-01T00:42:33.000Z</time>
</trkpt>
<trkpt lat="59.5290853" lon="31.1910703">
<ele>49.810001</ele>
<time>2026-09-01T00:42:48.000Z</time>
</trkpt>
<trkpt lat="59.5290903" lon="31.1913078">
<ele>49.670002</ele>
<time>2026-09-01T00:43:08.000Z</time>
</trkpt>
<trkpt lat="59.5290996" lon="31.1915147">
<ele>49.990002</ele>
<time>2026-09-01T00:43:27.000Z</time>
</trkpt>
<trkpt lat="59.5291035" lon="31.1917855">
<ele>50.149998</ele>
<time>2026-09-01T00:43:44.000Z</time>
</trkpt>
<trkpt lat="59.5291231" lon="31.1921185">
<ele>51.689999</ele>
<time>2026-09-01T00:44:01.000Z</time>
</trkpt>
<trkpt lat="59.5291086" lon="31.1921338">
<ele>51.340000</ele>
<time>2026-09-01T00:44:58.000Z</time>
</trkpt>
<trkpt lat="59.5291072" lon="31.1921082">
<ele>51.740002</ele>
<time>2026-09-01T00:45:31.000Z</time>
</trkpt>
<trkpt lat="59.5290932" lon="31.1920793">
<ele>51.239998</ele>
<time>2026-09-01T00:45:56.000Z</time>
</trkpt>
<trkpt lat="59.5290900" lon="31.1920503">
<ele>52.449997</ele>
<time>2026-09-01T00:46:40.000Z</time>
</trkpt>
<trkpt lat="59.5291077" lon="31.1921238">
<ele>51.040001</ele>
<time>2026-09-01T00:47:38.000Z</time>
</trkpt>
<trkpt lat="59.5291519" lon="31.1922141">
<ele>51.420002</ele>
<time>2026-09-01T00:48:10.000Z</time>
</trkpt>
<trkpt lat="59.5291778" lon="31.1924124">
<ele>51.400002</ele>
<time>2026-09-01T00:48:25.000Z</time>
</trkpt>
<trkpt lat="59.5291604" lon="31.1925258">
<ele>52.720001</ele>
<time>2026-09-01T00:48:59.000Z</time>
</trkpt>
<trkpt lat="59.5291791" lon="31.1926523">
<ele>52.459999</ele>
<time>2026-09-01T00:49:15.000Z</time>
</trkpt>
<trkpt lat="59.5291637" lon="31.1928404">
<ele>52.400002</ele>
<time>2026-09-01T00:49:34.000Z</time>
</trkpt>
<trkpt lat="59.5291540" lon="31.1930345">
<ele>52.950001</ele>
<time>2026-09-01T00:50:09.000Z</time>
</trkpt>
<trkpt lat="59.5291417" lon="31.1933561">
<ele>52.149998</ele>
<time>2026-09-01T00:50:33.000Z</time>
</trkpt>
<trkpt lat="59.5291231" lon="31.1935598">
<ele>51.810001</ele>
<time>2026-09-01T00:50:55.000Z</time>
</trkpt>
<trkpt lat="59.5291325" lon="31.1937235">
<ele>49.880001</ele>
<time>2026-09-01T00:51:13.000Z</time>
</trkpt>
<trkpt lat="59.5291201" lon="31.1938622">
<ele>51.319996</ele>
<time>2026-09-01T00:51:40.000Z</time>
</trkpt>
<trkpt lat="59.5290676" lon="31.1938774">
<ele>48.169998</ele>
<time>2026-09-01T00:52:13.000Z</time>
</trkpt>
<trkpt lat="59.5290584" lon="31.1939468">
<ele>50.480000</ele>
<time>2026-09-01T00:52:47.000Z</time>
</trkpt>
<trkpt lat="59.5290625" lon="31.1940578">
<ele>50.320000</ele>
<time>2026-09-01T00:53:33.000Z</time>
</trkpt>
<trkpt lat="59.5291066" lon="31.1942082">
<ele>50.500000</ele>
<time>2026-09-01T00:53:53.000Z</time>
</trkpt>
<trkpt lat="59.5291046" lon="31.1944589">
<ele>48.489998</ele>
<time>2026-09-01T00:54:10.000Z</time>
</trkpt>
<trkpt lat="59.5290865" lon="31.1946193">
<ele>49.510002</ele>
<time>2026-09-01T00:54:28.000Z</time>
</trkpt>
<trkpt lat="59.5290509" lon="31.1947849">
<ele>51.369999</ele>
<time>2026-09-01T00:54:39.000Z</time>
</trkpt>
<trkpt lat="59.5290465" lon="31.1950270">
<ele>50.960003</ele>
<time>2026-09-01T00:54:57.000Z</time>
</trkpt>
<trkpt lat="59.5290872" lon="31.1951341">
<ele>51.400002</ele>
<time>2026-09-01T00:55:12.000Z</time>
</trkpt>
<trkpt lat="59.5291056" lon="31.1953484">
<ele>50.209999</ele>
<time>2026-09-01T00:55:31.000Z</time>
</trkpt>
<trkpt lat="59.5290770" lon="31.1956262">
<ele>49.450001</ele>
<time>2026-09-01T00:55:50.000Z</time>
</trkpt>
<trkpt lat="59.5290377" lon="31.1958116">
<ele>48.730003</ele>
<time>2026-09-01T00:56:05.000Z</time>
</trkpt>
<trkpt lat="59.5290305" lon="31.1958779">
<ele>48.310001</ele>
<time>2026-09-01T00:56:22.000Z</time>
</trkpt>
<trkpt lat="59.5290206" lon="31.1959544">
<ele>48.269997</ele>
<time>2026-09-01T00:56:52.000Z</time>
</trkpt>
<trkpt lat="59.5289930" lon="31.1960224">
<ele>45.909996</ele>
<time>2026-09-01T00:57:17.000Z</time>
</trkpt>
<trkpt lat="59.5289235" lon="31.1960401">
<ele>46.040001</ele>
<time>2026-09-01T00:58:11.000Z</time>
</trkpt>
<trkpt lat="59.5289321" lon="31.1960131">
<ele>45.530003</ele>
<time>2026-09-01T00:58:38.000Z</time>
</trkpt>
<trkpt lat="59.5289574" lon="31.1959945">
<ele>44.240002</ele>
<time>2026-09-01T00:59:33.000Z</time>
</trkpt>
<trkpt lat="59.5289926" lon="31.1960550">
<ele>45.579998</ele>
<time>2026-09-01T01:00:36.000Z</time>
</trkpt>
<trkpt lat="59.5289847" lon="31.1962559">
<ele>44.940002</ele>
<time>2026-09-01T01:01:08.000Z</time>
</trkpt>
<trkpt lat="59.5289611" lon="31.1964750">
<ele>45.509998</ele>
<time>2026-09-01T01:01:27.000Z</time>
</trkpt>
<trkpt lat="59.5289724" lon="31.1967026">
<ele>45.470001</ele>
<time>2026-09-01T01:01:51.000Z</time>
</trkpt>
<trkpt lat="59.5289720" lon="31.1969062">
<ele>45.470001</ele>
<time>2026-09-01T01:02:07.000Z</time>
</trkpt>
<trkpt lat="59.5289712" lon="31.1971306">
<ele>45.620003</ele>
<time>2026-09-01T01:02:25.000Z</time>
</trkpt>
<trkpt lat="59.5289760" lon="31.1974294">
<ele>44.940002</ele>
<time>2026-09-01T01:03:02.000Z</time>
</trkpt>
<trkpt lat="59.5289827" lon="31.1975971">
<ele>44.820000</ele>
<time>2026-09-01T01:03:22.000Z</time>
</trkpt>
<trkpt lat="59.5289658" lon="31.1978309">
<ele>44.420002</ele>
<time>2026-09-01T01:03:40.000Z</time>
</trkpt>
<trkpt lat="59.5289789" lon="31.1981814">
<ele>44.689999</ele>
<time>2026-09-01T01:04:02.000Z</time>
</trkpt>
<trkpt lat="59.5289510" lon="31.1984198">
<ele>45.020000</ele>
<time>2026-09-01T01:04:22.000Z</time>
</trkpt>
<trkpt lat="59.5290196" lon="31.1987709">
<ele>45.730000</ele>
<time>2026-09-01T01:04:43.000Z</time>
</trkpt>
<trkpt lat="59.5289765" lon="31.1990233">
<ele>47.349998</ele>
<time>2026-09-01T01:05:01.000Z</time>
</trkpt>
<trkpt lat="59.5289294" lon="31.1992472">
<ele>47.410000</ele>
<time>2026-09-01T01:05:20.000Z</time>
</trkpt>
<trkpt lat="59.5289145" lon="31.1994981">
<ele>47.549999</ele>
<time>2026-09-01T01:05:32.000Z</time>
</trkpt>
<trkpt lat="59.5288999" lon="31.1997466">
<ele>47.090000</ele>
<time>2026-09-01T01:05:51.000Z</time>
</trkpt>
<trkpt lat="59.5289049" lon="31.2000845">
<ele>47.279999</ele>
<time>2026-09-01T01:06:15.000Z</time>
</trkpt>
<trkpt lat="59.5288714" lon="31.2002054">
<ele>46.439999</ele>
<time>2026-09-01T01:06:46.000Z</time>
</trkpt>
<trkpt lat="59.5288652" lon="31.2001218">
<ele>46.410000</ele>
<time>2026-09-01T01:07:19.000Z</time>
</trkpt>
<trkpt lat="59.5288870" lon="31.2001545">
<ele>45.930000</ele>
<time>2026-09-01T01:07:37.000Z</time>
</trkpt>
<trkpt lat="59.5288785" lon="31.2001252">
<ele>43.139999</ele>
<time>2026-09-01T01:08:16.000Z</time>
</trkpt>
<trkpt lat="59.5289242" lon="31.2001804">
<ele>41.590000</ele>
<time>2026-09-01T01:08:55.000Z</time>
</trkpt>
<trkpt lat="59.5289309" lon="31.2002111">
<ele>44.349998</ele>
<time>2026-09-01T01:09:39.000Z</time>
</trkpt>
<trkpt lat="59.5288795" lon="31.2002013">
<ele>43.539997</ele>
<time>2026-09-01T01:10:23.000Z</time>
</trkpt>
<trkpt lat="59.5288746" lon="31.2002319">
<ele>42.720001</ele>
<time>2026-09-01T01:11:00.000Z</time>
</trkpt>
<trkpt lat="59.5288617" lon="31.2003552">
<ele>42.849998</ele>
<time>2026-09-01T01:11:15.000Z</time>
</trkpt>
<trkpt lat="59.5288661" lon="31.2004711">
<ele>42.549999</ele>
<time>2026-09-01T01:11:31.000Z</time>
</trkpt>
<trkpt lat="59.5289012" lon="31.2007080">
<ele>42.629997</ele>
<time>2026-09-01T01:11:51.000Z</time>
</trkpt>
<trkpt lat="59.5288956" lon="31.2009151">
<ele>44.250000</ele>
<time>2026-09-01T01:12:19.000Z</time>
</trkpt>
<trkpt lat="59.5288802" lon="31.2011127">
<ele>44.480000</ele>
<time>2026-09-01T01:12:43.000Z</time>
</trkpt>
<trkpt lat="59.5288517" lon="31.2013983">
<ele>44.770000</ele>
<time>2026-09-01T01:13:02.000Z</time>
</trkpt>
<trkpt lat="59.5288392" lon="31.2015502">
<ele>45.549999</ele>
<time>2026-09-01T01:13:19.000Z</time>
</trkpt>
<trkpt lat="59.5288412" lon="31.2018403">
<ele>46.419998</ele>
<time>2026-09-01T01:13:41.000Z</time>
</trkpt>
<trkpt lat="59.5288055" lon="31.2021501">
<ele>48.639999</ele>
<time>2026-09-01T01:13:56.000Z</time>
</trkpt>
<trkpt lat="59.5287843" lon="31.2022868">
<ele>50.660000</ele>
<time>2026-09-01T01:14:19.000Z</time>
</trkpt>
<trkpt lat="59.5288081" lon="31.2024412">
<ele>51.640003</ele>
<time>2026-09-01T01:14:37.000Z</time>
</trkpt>
<trkpt lat="59.5287700" lon="31.2027105">
<ele>51.319996</ele>
<time>2026-09-01T01:15:01.000Z</time>
</trkpt>
<trkpt lat="59.5287679" lon="31.2029478">
<ele>49.489998</ele>
<time>2026-09-01T01:15:21.000Z</time>
</trkpt>
<trkpt lat="59.5287103" lon="31.2032117">
<ele>49.660000</ele>
<time>2026-09-01T01:15:47.000Z</time>
</trkpt>
<trkpt lat="59.5286989" lon="31.2033773">
<ele>49.360001</ele>
<time>2026-09-01T01:16:06.000Z</time>
</trkpt>
<trkpt lat="59.5286410" lon="31.2036424">
<ele>50.520000</ele>
<time>2026-09-01T01:16:29.000Z</time>
</trkpt>
<trkpt lat="59.5286031" lon="31.2039077">
<ele>51.959999</ele>
<time>2026-09-01T01:16:46.000Z</time>
</trkpt>
<trkpt lat="59.5286040" lon="31.2041724">
<ele>50.889999</ele>
<time>2026-09-01T01:17:21.000Z</time>
</trkpt>
<trkpt lat="59.5285036" lon="31.2043291">
<ele>51.089996</ele>
<time>2026-09-01T01:17:37.000Z</time>
</trkpt>
<trkpt lat="59.5284801" lon="31.2043967">
<ele>51.580002</ele>
<time>2026-09-01T01:18:00.000Z</time>
</trkpt>
<trkpt lat="59.5284466" lon="31.2043572">
<ele>50.960003</ele>
<time>2026-09-01T01:18:42.000Z</time>
</trkpt>
<trkpt lat="59.5284637" lon="31.2044094">
<ele>51.070000</ele>
<time>2026-09-01T01:19:11.000Z</time>
</trkpt>
<trkpt lat="59.5284155" lon="31.2044443">
<ele>51.640003</ele>
<time>2026-09-01T01:19:21.000Z</time>
</trkpt>
<trkpt lat="59.5283962" lon="31.2044941">
<ele>51.660000</ele>
<time>2026-09-01T01:19:36.000Z</time>
</trkpt>
<trkpt lat="59.5283449" lon="31.2045993">
<ele>51.759998</ele>
<time>2026-09-01T01:19:51.000Z</time>
</trkpt>
<trkpt lat="59.5282644" lon="31.2047370">
<ele>51.710003</ele>
<time>2026-09-01T01:20:09.000Z</time>
</trkpt>
<trkpt lat="59.5282025" lon="31.2047882">
<ele>49.369999</ele>
<time>2026-09-01T01:20:40.000Z</time>
</trkpt>
<trkpt lat="59.5281343" lon="31.2047881">
<ele>49.469997</ele>
<time>2026-09-01T01:20:58.000Z</time>
</trkpt>
<trkpt lat="59.5281273" lon="31.2047576">
<ele>49.900002</ele>
<time>2026-09-01T01:21:20.000Z</time>
</trkpt>
<trkpt lat="59.5280690" lon="31.2047142">
<ele>48.549999</ele>
<time>2026-09-01T01:21:48.000Z</time>
</trkpt>
<trkpt lat="59.5280814" lon="31.2047914">
<ele>48.160000</ele>
<time>2026-09-01T01:22:15.000Z</time>
</trkpt>
<trkpt lat="59.5280752" lon="31.2048473">
<ele>49.239998</ele>
<time>2026-09-01T01:23:06.000Z</time>
</trkpt>
<trkpt lat="59.5281865" lon="31.2047683">
<ele>49.779999</ele>
<time>2026-09-01T01:23:26.000Z</time>
</trkpt>
<trkpt lat="59.5282615" lon="31.2048183">
<ele>50.040001</ele>
<time>2026-09-01T01:23:48.000Z</time>
</trkpt>
<trkpt lat="59.5283648" lon="31.2046780">
<ele>50.759998</ele>
<time>2026-09-01T01:24:10.000Z</time>
</trkpt>
<trkpt lat="59.5284648" lon="31.2046925">
<ele>50.640003</ele>
<time>2026-09-01T01:24:29.000Z</time>
</trkpt>
<trkpt lat="59.5284825" lon="31.2048197">
<ele>51.350002</ele>
<time>2026-09-01T01:24:58.000Z</time>
</trkpt>
<trkpt lat="59.5284967" lon="31.2048184">
<ele>51.180000</ele>
<time>2026-09-01T01:25:39.000Z</time>
</trkpt>
<trkpt lat="59.5285284" lon="31.2047707">
<ele>51.160000</ele>
<time>2026-09-01T01:25:57.000Z</time>
</trkpt>
<trkpt lat="59.5285270" lon="31.2047943">
<ele>53.820000</ele>
<time>2026-09-01T01:26:15.000Z</time>
</trkpt>
<trkpt lat="59.5285309" lon="31.2048064">
<ele>54.509998</ele>
<time>2026-09-01T01:26:47.000Z</time>
</trkpt>
<trkpt lat="59.5284811" lon="31.2049659">
<ele>55.310001</ele>
<time>2026-09-01T01:27:13.000Z</time>
</trkpt>
<trkpt lat="59.5283332" lon="31.2052259">
<ele>55.700001</ele>
<time>2026-09-01T01:27:43.000Z</time>
</trkpt>
<trkpt lat="59.5283026" lon="31.2053985">
<ele>55.619999</ele>
<time>2026-09-01T01:28:00.000Z</time>
</trkpt>
<trkpt lat="59.5282787" lon="31.2057717">
<ele>54.170002</ele>
<time>2026-09-01T01:28:21.000Z</time>
</trkpt>
<trkpt lat="59.5281548" lon="31.2058274">
<ele>53.889999</ele>
<time>2026-09-01T01:28:39.000Z</time>
</trkpt>
<trkpt lat="59.5280760" lon="31.2058976">
<ele>54.430000</ele>
<time>2026-09-01T01:28:51.000Z</time>
</trkpt>
<trkpt lat="59.5279803" lon="31.2060377">
<ele>54.119999</ele>
<time>2026-09-01T01:29:05.000Z</time>
</trkpt>
<trkpt lat="59.5279184" lon="31.2061460">
<ele>54.530003</ele>
<time>2026-09-01T01:29:14.000Z</time>
</trkpt>
<trkpt lat="59.5278297" lon="31.2062707">
<ele>55.189999</ele>
<time>2026-09-01T01:29:25.000Z</time>
</trkpt>
<trkpt lat="59.5278389" lon="31.2063035">
<ele>58.410004</ele>
<time>2026-09-01T01:29:49.000Z</time>
</trkpt>
<trkpt lat="59.5277725" lon="31.2064852">
<ele>58.450001</ele>
<time>2026-09-01T01:30:28.000Z</time>
</trkpt>
<trkpt lat="59.5277196" lon="31.2067059">
<ele>57.650002</ele>
<time>2026-09-01T01:30:50.000Z</time>
</trkpt>
<trkpt lat="59.5276384" lon="31.2069287">
<ele>57.459999</ele>
<time>2026-09-01T01:31:07.000Z</time>
</trkpt>
<trkpt lat="59.5275846" lon="31.2070983">
<ele>56.290001</ele>
<time>2026-09-01T01:31:30.000Z</time>
</trkpt>
<trkpt lat="59.5274894" lon="31.2072655">
<ele>57.169998</ele>
<time>2026-09-01T01:31:52.000Z</time>
</trkpt>
<trkpt lat="59.5274086" lon="31.2073963">
<ele>57.139999</ele>
<time>2026-09-01T01:32:07.000Z</time>
</trkpt>
<trkpt lat="59.5273095" lon="31.2074922">
<ele>56.830002</ele>
<time>2026-09-01T01:32:23.000Z</time>
</trkpt>
<trkpt lat="59.5272315" lon="31.2075824">
<ele>57.150002</ele>
<time>2026-09-01T01:32:39.000Z</time>
</trkpt>
<trkpt lat="59.5271728" lon="31.2077251">
<ele>57.580002</ele>
<time>2026-09-01T01:32:56.000Z</time>
</trkpt>
<trkpt lat="59.5270745" lon="31.2078931">
<ele>57.770000</ele>
<time>2026-09-01T01:33:12.000Z</time>
</trkpt>
<trkpt lat="59.5270357" lon="31.2080688">
<ele>57.559998</ele>
<time>2026-09-01T01:33:31.000Z</time>
</trkpt>
<trkpt lat="59.5269667" lon="31.2082423">
<ele>58.430000</ele>
<time>2026-09-01T01:33:58.000Z</time>
</trkpt>
<trkpt lat="59.5268740" lon="31.2084287">
<ele>58.740002</ele>
<time>2026-09-01T01:34:14.000Z</time>
</trkpt>
<trkpt lat="59.5267831" lon="31.2086263">
<ele>58.360001</ele>
<time>2026-09-01T01:34:30.000Z</time>
</trkpt>
<trkpt lat="59.5267139" lon="31.2087505">
<ele>58.009998</ele>
<time>2026-09-01T01:34:47.000Z</time>
</trkpt>
<trkpt lat="59.5266867" lon="31.2088188">
<ele>56.900002</ele>
<time>2026-09-01T01:35:08.000Z</time>
</trkpt>
<trkpt lat="59.5266197" lon="31.2090383">
<ele>56.619999</ele>
<time>2026-09-01T01:35:34.000Z</time>
</trkpt>
<trkpt lat="59.5265493" lon="31.2091787">
<ele>56.630001</ele>
<time>2026-09-01T01:35:47.000Z</time>
</trkpt>
<trkpt lat="59.5263819" lon="31.2096569">
<ele>56.020000</ele>
<time>2026-09-01T01:36:17.000Z</time>
</trkpt>
<trkpt lat="59.5262560" lon="31.2098746">
<ele>56.169998</ele>
<time>2026-09-01T01:36:33.000Z</time>
</trkpt>
<trkpt lat="59.5261856" lon="31.2101497">
<ele>55.349998</ele>
<time>2026-09-01T01:36:48.000Z</time>
</trkpt>
<trkpt lat="59.5261182" lon="31.2103168">
<ele>53.950001</ele>
<time>2026-09-01T01:37:14.000Z</time>
</trkpt>
<trkpt lat="59.5260343" lon="31.2106183">
<ele>54.240002</ele>
<time>2026-09-01T01:37:31.000Z</time>
</trkpt>
<trkpt lat="59.5259948" lon="31.2108007">
<ele>54.519997</ele>
<time>2026-09-01T01:37:48.000Z</time>
</trkpt>
<trkpt lat="59.5259482" lon="31.2109477">
<ele>54.519997</ele>
<time>2026-09-01T01:38:10.000Z</time>
</trkpt>
<trkpt lat="59.5258411" lon="31.2109961">
<ele>55.010002</ele>
<time>2026-09-01T01:38:30.000Z</time>
</trkpt>
<trkpt lat="59.5257522" lon="31.2111259">
<ele>55.090000</ele>
<time>2026-09-01T01:38:51.000Z</time>
</trkpt>
<trkpt lat="59.5257115" lon="31.2112876">
<ele>54.489998</ele>
<time>2026-09-01T01:39:06.000Z</time>
</trkpt>
<trkpt lat="59.5255865" lon="31.2115840">
<ele>53.829998</ele>
<time>2026-09-01T01:39:28.000Z</time>
</trkpt>
<trkpt lat="59.5255485" lon="31.2116910">
<ele>54.250000</ele>
<time>2026-09-01T01:39:42.000Z</time>
</trkpt>
<trkpt lat="59.5254592" lon="31.2118030">
<ele>53.880001</ele>
<time>2026-09-01T01:39:56.000Z</time>
</trkpt>
<trkpt lat="59.5253881" lon="31.2120750">
<ele>52.989998</ele>
<time>2026-09-01T01:40:25.000Z</time>
</trkpt>
<trkpt lat="59.5253141" lon="31.2121780">
<ele>53.100002</ele>
<time>2026-09-01T01:40:39.000Z</time>
</trkpt>
<trkpt lat="59.5253007" lon="31.2124697">
<ele>52.509998</ele>
<time>2026-09-01T01:41:13.000Z</time>
</trkpt>
<trkpt lat="59.5252511" lon="31.2124660">
<ele>51.699997</ele>
<time>2026-09-01T01:41:28.000Z</time>
</trkpt>
<trkpt lat="59.5252467" lon="31.2125168">
<ele>52.509998</ele>
<time>2026-09-01T01:41:54.000Z</time>
</trkpt>
<trkpt lat="59.5252857" lon="31.2126044">
<ele>51.070000</ele>
<time>2026-09-01T01:42:12.000Z</time>
</trkpt>
<trkpt lat="59.5253674" lon="31.2127895">
<ele>51.340000</ele>
<time>2026-09-01T01:42:26.000Z</time>
</trkpt>
<trkpt lat="59.5254187" lon="31.2129464">
<ele>50.750000</ele>
<time>2026-09-01T01:42:38.000Z</time>
</trkpt>
<trkpt lat="59.5254841" lon="31.2131125">
<ele>50.389999</ele>
<time>2026-09-01T01:42:51.000Z</time>
</trkpt>
<trkpt lat="59.5255852" lon="31.2132230">
<ele>50.750000</ele>
<time>2026-09-01T01:43:08.000Z</time>
</trkpt>
<trkpt lat="59.5256723" lon="31.2134197">
<ele>50.570004</ele>
<time>2026-09-01T01:43:23.000Z</time>
</trkpt>
<trkpt lat="59.5257473" lon="31.2135781">
<ele>50.369999</ele>
<time>2026-09-01T01:43:36.000Z</time>
</trkpt>
<trkpt lat="59.5257653" lon="31.2135856">
<ele>50.320000</ele>
<time>2026-09-01T01:43:38.000Z</time>
</trkpt>
<trkpt lat="59.5258555" lon="31.2136953">
<ele>50.469997</ele>
<time>2026-09-01T01:43:54.000Z</time>
</trkpt>
<trkpt lat="59.5259477" lon="31.2139756">
<ele>50.510002</ele>
<time>2026-09-01T01:44:09.000Z</time>
</trkpt>
<trkpt lat="59.5260011" lon="31.2141166">
<ele>49.910000</ele>
<time>2026-09-01T01:44:18.000Z</time>
</trkpt>
<trkpt lat="59.5260703" lon="31.2144223">
<ele>49.740002</ele>
<time>2026-09-01T01:44:33.000Z</time>
</trkpt>
<trkpt lat="59.5260933" lon="31.2146071">
<ele>49.420002</ele>
<time>2026-09-01T01:44:45.000Z</time>
</trkpt>
<trkpt lat="59.5261263" lon="31.2148556">
<ele>49.250000</ele>
<time>2026-09-01T01:45:00.000Z</time>
</trkpt>
<trkpt lat="59.5262036" lon="31.2150602">
<ele>48.290001</ele>
<time>2026-09-01T01:45:12.000Z</time>
</trkpt>
<trkpt lat="59.5262398" lon="31.2151676">
<ele>47.080002</ele>
<time>2026-09-01T01:45:24.000Z</time>
</trkpt>
<trkpt lat="59.5262809" lon="31.2153246">
<ele>45.449997</ele>
<time>2026-09-01T01:45:35.000Z</time>
</trkpt>
<trkpt lat="59.5262918" lon="31.2153857">
<ele>45.119999</ele>
<time>2026-09-01T01:45:39.000Z</time>
</trkpt>
<trkpt lat="59.5262946" lon="31.2154585">
<ele>45.150002</ele>
<time>2026-09-01T01:45:43.000Z</time>
</trkpt>
<trkpt lat="59.5263471" lon="31.2156427">
<ele>43.910000</ele>
<time>2026-09-01T01:45:54.000Z</time>
</trkpt>
<trkpt lat="59.5263855" lon="31.2158062">
<ele>41.889999</ele>
<time>2026-09-01T01:46:04.000Z</time>
</trkpt>
<trkpt lat="59.5264047" lon="31.2160068">
<ele>43.750000</ele>
<time>2026-09-01T01:46:16.000Z</time>
</trkpt>
<trkpt lat="59.5263664" lon="31.2163594">
<ele>42.859997</ele>
<time>2026-09-01T01:46:30.000Z</time>
</trkpt>
<trkpt lat="59.5263703" lon="31.2163895">
<ele>43.299999</ele>
<time>2026-09-01T01:46:32.000Z</time>
</trkpt>
<trkpt lat="59.5263316" lon="31.2166122">
<ele>44.200001</ele>
<time>2026-09-01T01:46:44.000Z</time>
</trkpt>
<trkpt lat="59.5263640" lon="31.2168183">
<ele>45.920002</ele>
<time>2026-09-01T01:46:57.000Z</time>
</trkpt>
<trkpt lat="59.5263801" lon="31.2170794">
<ele>46.910004</ele>
<time>2026-09-01T01:47:12.000Z</time>
</trkpt>
<trkpt lat="59.5264716" lon="31.2173396">
<ele>47.910000</ele>
<time>2026-09-01T01:47:26.000Z</time>
</trkpt>
<trkpt lat="59.5266067" lon="31.2176228">
<ele>50.149998</ele>
<time>2026-09-01T01:47:42.000Z</time>
</trkpt>
<trkpt lat="59.5266906" lon="31.2178577">
<ele>51.139999</ele>
<time>2026-09-01T01:47:56.000Z</time>
</trkpt>
<trkpt lat="59.5266727" lon="31.2180285">
<ele>50.049999</ele>
<time>2026-09-01T01:48:19.000Z</time>
</trkpt>
<trkpt lat="59.5266992" lon="31.2180045">
<ele>49.459999</ele>
<time>2026-09-01T01:48:41.000Z</time>
</trkpt>
<trkpt lat="59.5266666" lon="31.2180746">
<ele>49.830002</ele>
<time>2026-09-01T01:49:38.000Z</time>
</trkpt>
<trkpt lat="59.5267998" lon="31.2182112">
<ele>49.380001</ele>
<time>2026-09-01T01:49:53.000Z</time>
</trkpt>
<trkpt lat="59.5269600" lon="31.2183633">
<ele>49.910000</ele>
<time>2026-09-01T01:50:08.000Z</time>
</trkpt>
<trkpt lat="59.5270898" lon="31.2185910">
<ele>50.800003</ele>
<time>2026-09-01T01:50:22.000Z</time>
</trkpt>
<trkpt lat="59.5271822" lon="31.2188287">
<ele>49.689999</ele>
<time>2026-09-01T01:50:37.000Z</time>
</trkpt>
<trkpt lat="59.5272297" lon="31.2189020">
<ele>50.740002</ele>
<time>2026-09-01T01:50:42.000Z</time>
</trkpt>
<trkpt lat="59.5273061" lon="31.2192033">
<ele>49.800003</ele>
<time>2026-09-01T01:50:56.000Z</time>
</trkpt>
<trkpt lat="59.5273078" lon="31.2194452">
<ele>50.049999</ele>
<time>2026-09-01T01:51:09.000Z</time>
</trkpt>
<trkpt lat="59.5273542" lon="31.2197585">
<ele>49.430000</ele>
<time>2026-09-01T01:51:26.000Z</time>
</trkpt>
<trkpt lat="59.5273948" lon="31.2198893">
<ele>48.939999</ele>
<time>2026-09-01T01:51:41.000Z</time>
</trkpt>
<trkpt lat="59.5274137" lon="31.2201292">
<ele>47.750000</ele>
<time>2026-09-01T01:51:53.000Z</time>
</trkpt>
<trkpt lat="59.5274420" lon="31.2203762">
<ele>46.519997</ele>
<time>2026-09-01T01:52:06.000Z</time>
</trkpt>
<trkpt lat="59.5274684" lon="31.2205190">
<ele>46.450001</ele>
<time>2026-09-01T01:52:14.000Z</time>
</trkpt>
<trkpt lat="59.5274710" lon="31.2206034">
<ele>46.359997</ele>
<time>2026-09-01T01:52:17.000Z</time>
</trkpt>
<trkpt lat="59.5275272" lon="31.2208694">
<ele>45.950001</ele>
<time>2026-09-01T01:52:31.000Z</time>
</trkpt>
<trkpt lat="59.5275861" lon="31.2211028">
<ele>46.180000</ele>
<time>2026-09-01T01:52:43.000Z</time>
</trkpt>
<trkpt lat="59.5275853" lon="31.2212973">
<ele>45.010002</ele>
<time>2026-09-01T01:52:54.000Z</time>
</trkpt>
<trkpt lat="59.5275707" lon="31.2213335">
<ele>44.189999</ele>
<time>2026-09-01T01:53:11.000Z</time>
</trkpt>
<trkpt lat="59.5275458" lon="31.2213500">
<ele>43.640003</ele>
<time>2026-09-01T01:53:22.000Z</time>
</trkpt>
<trkpt lat="59.5275909" lon="31.2216107">
<ele>42.260002</ele>
<time>2026-09-01T01:53:37.000Z</time>
</trkpt>
<trkpt lat="59.5276333" lon="31.2219016">
<ele>41.939999</ele>
<time>2026-09-01T01:53:53.000Z</time>
</trkpt>
<trkpt lat="59.5276815" lon="31.2221669">
<ele>41.709999</ele>
<time>2026-09-01T01:54:08.000Z</time>
</trkpt>
<trkpt lat="59.5276410" lon="31.2223875">
<ele>41.889999</ele>
<time>2026-09-01T01:54:21.000Z</time>
</trkpt>
<trkpt lat="59.5276306" lon="31.2226387">
<ele>41.849998</ele>
<time>2026-09-01T01:54:34.000Z</time>
</trkpt>
<trkpt lat="59.5277170" lon="31.2229487">
<ele>41.939999</ele>
<time>2026-09-01T01:54:49.000Z</time>
</trkpt>
<trkpt lat="59.5277381" lon="31.2231776">
<ele>42.360001</ele>
<time>2026-09-01T01:55:01.000Z</time>
</trkpt>
<trkpt lat="59.5277821" lon="31.2232805">
<ele>40.520000</ele>
<time>2026-09-01T01:55:13.000Z</time>
</trkpt>
<trkpt lat="59.5277819" lon="31.2233330">
<ele>41.040001</ele>
<time>2026-09-01T01:55:27.000Z</time>
</trkpt>
<trkpt lat="59.5277943" lon="31.2234858">
<ele>40.430000</ele>
<time>2026-09-01T01:55:42.000Z</time>
</trkpt>
<trkpt lat="59.5277887" lon="31.2236511">
<ele>41.029999</ele>
<time>2026-09-01T01:55:53.000Z</time>
</trkpt>
<trkpt lat="59.5277805" lon="31.2239454">
<ele>41.009998</ele>
<time>2026-09-01T01:56:10.000Z</time>
</trkpt>
<trkpt lat="59.5277621" lon="31.2241608">
<ele>40.570000</ele>
<time>2026-09-01T01:56:22.000Z</time>
</trkpt>
<trkpt lat="59.5278136" lon="31.2242401">
<ele>39.250000</ele>
<time>2026-09-01T01:56:37.000Z</time>
</trkpt>
<trkpt lat="59.5278825" lon="31.2243439">
<ele>38.290001</ele>
<time>2026-09-01T01:56:55.000Z</time>
</trkpt>
<trkpt lat="59.5279686" lon="31.2244675">
<ele>38.750000</ele>
<time>2026-09-01T01:57:09.000Z</time>
</trkpt>
<trkpt lat="59.5280437" lon="31.2245673">
<ele>38.850002</ele>
<time>2026-09-01T01:57:26.000Z</time>
</trkpt>
<trkpt lat="59.5281377" lon="31.2244983">
<ele>38.740002</ele>
<time>2026-09-01T01:57:41.000Z</time>
</trkpt>
<trkpt lat="59.5282456" lon="31.2245919">
<ele>38.770000</ele>
<time>2026-09-01T01:57:55.000Z</time>
</trkpt>
<trkpt lat="59.5283316" lon="31.2247093">
<ele>38.639999</ele>
<time>2026-09-01T01:58:11.000Z</time>
</trkpt>
<trkpt lat="59.5284428" lon="31.2246850">
<ele>39.400002</ele>
<time>2026-09-01T01:58:29.000Z</time>
</trkpt>
<trkpt lat="59.5285854" lon="31.2245133">
<ele>39.949997</ele>
<time>2026-09-01T01:58:48.000Z</time>
</trkpt>
<trkpt lat="59.5287834" lon="31.2243786">
<ele>40.869999</ele>
<time>2026-09-01T01:59:06.000Z</time>
</trkpt>
<trkpt lat="59.5290186" lon="31.2244177">
<ele>42.610001</ele>
<time>2026-09-01T01:59:21.000Z</time>
</trkpt>
<trkpt lat="59.5291981" lon="31.2244914">
<ele>44.219997</ele>
<time>2026-09-01T01:59:36.000Z</time>
</trkpt>
<trkpt lat="59.5293230" lon="31.2245317">
<ele>44.340000</ele>
<time>2026-09-01T01:59:47.000Z</time>
</trkpt>
<trkpt lat="59.5294283" lon="31.2246351">
<ele>44.200001</ele>
<time>2026-09-01T02:00:02.000Z</time>
</trkpt>
<trkpt lat="59.5295938" lon="31.2247035">
<ele>44.260002</ele>
<time>2026-09-01T02:00:16.000Z</time>
</trkpt>
<trkpt lat="59.5297037" lon="31.2248319">
<ele>43.899998</ele>
<time>2026-09-01T02:00:39.000Z</time>
</trkpt>
<trkpt lat="59.5299028" lon="31.2250202">
<ele>44.289997</ele>
<time>2026-09-01T02:00:53.000Z</time>
</trkpt>
<trkpt lat="59.5300324" lon="31.2251635">
<ele>47.049999</ele>
<time>2026-09-01T02:01:04.000Z</time>
</trkpt>
<trkpt lat="59.5301175" lon="31.2252619">
<ele>45.509998</ele>
<time>2026-09-01T02:01:18.000Z</time>
</trkpt>
<trkpt lat="59.5302110" lon="31.2254252">
<ele>45.540001</ele>
<time>2026-09-01T02:01:31.000Z</time>
</trkpt>
<trkpt lat="59.5302799" lon="31.2256168">
<ele>45.669998</ele>
<time>2026-09-01T02:01:44.000Z</time>
</trkpt>
<trkpt lat="59.5303354" lon="31.2256020">
<ele>45.250000</ele>
<time>2026-09-01T02:01:59.000Z</time>
</trkpt>
<trkpt lat="59.5304731" lon="31.2258903">
<ele>45.799999</ele>
<time>2026-09-01T02:02:14.000Z</time>
</trkpt>
<trkpt lat="59.5305824" lon="31.2261510">
<ele>45.690002</ele>
<time>2026-09-01T02:02:29.000Z</time>
</trkpt>
<trkpt lat="59.5306813" lon="31.2263540">
<ele>46.279999</ele>
<time>2026-09-01T02:02:41.000Z</time>
</trkpt>
<trkpt lat="59.5308144" lon="31.2265162">
<ele>46.439999</ele>
<time>2026-09-01T02:02:53.000Z</time>
</trkpt>
<trkpt lat="59.5309298" lon="31.2267446">
<ele>46.090000</ele>
<time>2026-09-01T02:03:11.000Z</time>
</trkpt>
<trkpt lat="59.5311129" lon="31.2269782">
<ele>45.110001</ele>
<time>2026-09-01T02:03:28.000Z</time>
</trkpt>
<trkpt lat="59.5312165" lon="31.2270641">
<ele>45.690002</ele>
<time>2026-09-01T02:03:40.000Z</time>
</trkpt>
<trkpt lat="59.5313644" lon="31.2272858">
<ele>44.920002</ele>
<time>2026-09-01T02:03:57.000Z</time>
</trkpt>
<trkpt lat="59.5314877" lon="31.2276910">
<ele>46.250000</ele>
<time>2026-09-01T02:04:19.000Z</time>
</trkpt>
<trkpt lat="59.5315931" lon="31.2279338">
<ele>46.709999</ele>
<time>2026-09-01T02:04:35.000Z</time>
</trkpt>
<trkpt lat="59.5316752" lon="31.2282712">
<ele>46.230000</ele>
<time>2026-09-01T02:04:53.000Z</time>
</trkpt>
<trkpt lat="59.5317821" lon="31.2284659">
<ele>44.720001</ele>
<time>2026-09-01T02:05:04.000Z</time>
</trkpt>
<trkpt lat="59.5318883" lon="31.2287030">
<ele>44.299999</ele>
<time>2026-09-01T02:05:17.000Z</time>
</trkpt>
<trkpt lat="59.5318246" lon="31.2286705">
<ele>42.190002</ele>
<time>2026-09-01T02:05:45.000Z</time>
</trkpt>
<trkpt lat="59.5318328" lon="31.2286322">
<ele>42.450001</ele>
<time>2026-09-01T02:06:18.000Z</time>
</trkpt>
<trkpt lat="59.5318556" lon="31.2286727">
<ele>42.929996</ele>
<time>2026-09-01T02:06:54.000Z</time>
</trkpt>
<trkpt lat="59.5318255" lon="31.2286162">
<ele>42.849998</ele>
<time>2026-09-01T02:07:18.000Z</time>
</trkpt>
<trkpt lat="59.5318508" lon="31.2285980">
<ele>42.820000</ele>
<time>2026-09-01T02:07:37.000Z</time>
</trkpt>
<trkpt lat="59.5317394" lon="31.2286850">
<ele>43.200001</ele>
<time>2026-09-01T02:08:30.000Z</time>
</trkpt>
<trkpt lat="59.5317555" lon="31.2286250">
<ele>42.960003</ele>
<time>2026-09-01T02:09:05.000Z</time>
</trkpt>
<trkpt lat="59.5317446" lon="31.2286395">
<ele>41.750000</ele>
<time>2026-09-01T02:09:16.000Z</time>
</trkpt>
<trkpt lat="59.5317003" lon="31.2287888">
<ele>42.120003</ele>
<time>2026-09-01T02:09:22.000Z</time>
</trkpt>
<trkpt lat="59.5317753" lon="31.2292979">
<ele>42.779999</ele>
<time>2026-09-01T02:09:32.000Z</time>
</trkpt>
<trkpt lat="59.5318214" lon="31.2296209">
<ele>43.110001</ele>
<time>2026-09-01T02:09:37.000Z</time>
</trkpt>
<trkpt lat="59.5318006" lon="31.2299941">
<ele>43.160000</ele>
<time>2026-09-01T02:09:45.000Z</time>
</trkpt>
<trkpt lat="59.5316703" lon="31.2309559">
<ele>42.120003</ele>
<time>2026-09-01T02:10:01.000Z</time>
</trkpt>
<trkpt lat="59.5316219" lon="31.2314140">
<ele>41.750000</ele>
<time>2026-09-01T02:10:07.000Z</time>
</trkpt>
<trkpt lat="59.5316821" lon="31.2317341">
<ele>41.410000</ele>
<time>2026-09-01T02:10:12.000Z</time>
</trkpt>
<trkpt lat="59.5317988" lon="31.2326742">
<ele>41.570004</ele>
<time>2026-09-01T02:10:27.000Z</time>
</trkpt>
<trkpt lat="59.5318549" lon="31.2331502">
<ele>40.590000</ele>
<time>2026-09-01T02:10:40.000Z</time>
</trkpt>
<trkpt lat="59.5318969" lon="31.2332455">
<ele>40.389999</ele>
<time>2026-09-01T02:10:45.000Z</time>
</trkpt>
<trkpt lat="59.5320341" lon="31.2334896">
<ele>39.360001</ele>
<time>2026-09-01T02:10:55.000Z</time>
</trkpt>
<trkpt lat="59.5322478" lon="31.2338652">
<ele>39.570000</ele>
<time>2026-09-01T02:11:08.000Z</time>
</trkpt>
<trkpt lat="59.5324932" lon="31.2341209">
<ele>38.329998</ele>
<time>2026-09-01T02:11:23.000Z</time>
</trkpt>
<trkpt lat="59.5326990" lon="31.2345178">
<ele>37.459999</ele>
<time>2026-09-01T02:11:39.000Z</time>
</trkpt>
<trkpt lat="59.5328404" lon="31.2349844">
<ele>38.250000</ele>
<time>2026-09-01T02:11:50.000Z</time>
</trkpt>
<trkpt lat="59.5330630" lon="31.2356662">
<ele>37.980000</ele>
<time>2026-09-01T02:12:06.000Z</time>
</trkpt>
<trkpt lat="59.5330191" lon="31.2366462">
<ele>38.960003</ele>
<time>2026-09-01T02:12:20.000Z</time>
</trkpt>
<trkpt lat="59.5333444" lon="31.2374227">
<ele>42.070000</ele>
<time>2026-09-01T02:12:34.000Z</time>
</trkpt>
<trkpt lat="59.5334848" lon="31.2379093">
<ele>42.940002</ele>
<time>2026-09-01T02:12:47.000Z</time>
</trkpt>
<trkpt lat="59.5334963" lon="31.2379752">
<ele>43.439999</ele>
<time>2026-09-01T02:13:09.000Z</time>
</trkpt>
<trkpt lat="59.5336366" lon="31.2382093">
<ele>42.970001</ele>
<time>2026-09-01T02:13:42.000Z</time>
</trkpt>
<trkpt lat="59.5340546" lon="31.2391630">
<ele>44.420002</ele>
<time>2026-09-01T02:13:58.000Z</time>
</trkpt>
<trkpt lat="59.5346696" lon="31.2404288">
<ele>44.240002</ele>
<time>2026-09-01T02:14:15.000Z</time>
</trkpt>
<trkpt lat="59.5349170" lon="31.2414925">
<ele>45.349998</ele>
<time>2026-09-01T02:14:29.000Z</time>
</trkpt>
<trkpt lat="59.5350407" lon="31.2421373">
<ele>48.070000</ele>
<time>2026-09-01T02:14:38.000Z</time>
</trkpt>
<trkpt lat="59.5349368" lon="31.2423263">
<ele>49.120003</ele>
<time>2026-09-01T02:14:42.000Z</time>
</trkpt>
<trkpt lat="59.5343500" lon="31.2425266">
<ele>47.690002</ele>
<time>2026-09-01T02:14:58.000Z</time>
</trkpt>
<trkpt lat="59.5338163" lon="31.2434169">
<ele>46.230000</ele>
<time>2026-09-01T02:15:34.000Z</time>
</trkpt>
<trkpt lat="59.5337024" lon="31.2438296">
<ele>46.660000</ele>
<time>2026-09-01T02:15:41.000Z</time>
</trkpt>
<trkpt lat="59.5336992" lon="31.2443278">
<ele>44.710003</ele>
<time>2026-09-01T02:15:49.000Z</time>
</trkpt>
<trkpt lat="59.5337188" lon="31.2447180">
<ele>46.040001</ele>
<time>2026-09-01T02:15:55.000Z</time>
</trkpt>
<trkpt lat="59.5337234" lon="31.2453588">
<ele>50.340000</ele>
<time>2026-09-01T02:16:03.000Z</time>
</trkpt>
<trkpt lat="59.5337912" lon="31.2456224">
<ele>49.800003</ele>
<time>2026-09-01T02:16:07.000Z</time>
</trkpt>
<trkpt lat="59.5338868" lon="31.2463918">
<ele>49.750000</ele>
<time>2026-09-01T02:16:19.000Z</time>
</trkpt>
<trkpt lat="59.5341041" lon="31.2475018">
<ele>49.919998</ele>
<time>2026-09-01T02:16:35.000Z</time>
</trkpt>
<trkpt lat="59.5341094" lon="31.2476861">
<ele>49.859997</ele>
<time>2026-09-01T02:16:37.000Z</time>
</trkpt>
<trkpt lat="59.5341873" lon="31.2486094">
<ele>50.779999</ele>
<time>2026-09-01T02:16:50.000Z</time>
</trkpt>
<trkpt lat="59.5341474" lon="31.2489191">
<ele>52.810001</ele>
<time>2026-09-01T02:16:55.000Z</time>
</trkpt>
<trkpt lat="59.5342591" lon="31.2491086">
<ele>54.610001</ele>
<time>2026-09-01T02:17:00.000Z</time>
</trkpt>
<trkpt lat="59.5350852" lon="31.2491895">
<ele>57.420002</ele>
<time>2026-09-01T02:17:12.000Z</time>
</trkpt>
<trkpt lat="59.5358867" lon="31.2494241">
<ele>58.699997</ele>
<time>2026-09-01T02:17:21.000Z</time>
</trkpt>
<trkpt lat="59.5369829" lon="31.2503669">
<ele>60.750000</ele>
<time>2026-09-01T02:17:31.000Z</time>
</trkpt>
<trkpt lat="59.5386127" lon="31.2521619">
<ele>60.940002</ele>
<time>2026-09-01T02:17:44.000Z</time>
</trkpt>
<trkpt lat="59.5406889" lon="31.2541959">
<ele>57.949997</ele>
<time>2026-09-01T02:18:01.000Z</time>
</trkpt>
<trkpt lat="59.5419305" lon="31.2545406">
<ele>60.119999</ele>
<time>2026-09-01T02:18:10.000Z</time>
</trkpt>
<trkpt lat="59.5437969" lon="31.2548905">
<ele>65.860001</ele>
<time>2026-09-01T02:18:21.000Z</time>
</trkpt>
<trkpt lat="59.5459528" lon="31.2552979">
<ele>69.690002</ele>
<time>2026-09-01T02:18:33.000Z</time>
</trkpt>
<trkpt lat="59.5477984" lon="31.2557796">
<ele>66.290001</ele>
<time>2026-09-01T02:18:43.000Z</time>
</trkpt>
<trkpt lat="59.5492849" lon="31.2570647">
<ele>68.700005</ele>
<time>2026-09-01T02:18:52.000Z</time>
</trkpt>
<trkpt lat="59.5507652" lon="31.2591009">
<ele>68.949997</ele>
<time>2026-09-01T02:19:02.000Z</time>
</trkpt>
<trkpt lat="59.5523070" lon="31.2611685">
<ele>72.300003</ele>
<time>2026-09-01T02:19:12.000Z</time>
</trkpt>
<trkpt lat="59.5536544" lon="31.2619308">
<ele>69.139999</ele>
<time>2026-09-01T02:19:20.000Z</time>
</trkpt>
<trkpt lat="59.5538243" lon="31.2619314">
<ele>69.970001</ele>
<time>2026-09-01T02:19:21.000Z</time>
</trkpt>
<trkpt lat="59.5554530" lon="31.2612208">
<ele>71.180000</ele>
<time>2026-09-01T02:19:30.000Z</time>
</trkpt>
<trkpt lat="59.5570207" lon="31.2594919">
<ele>68.659996</ele>
<time>2026-09-01T02:19:40.000Z</time>
</trkpt>
<trkpt lat="59.5588088" lon="31.2578810">
<ele>61.040001</ele>
<time>2026-09-01T02:19:51.000Z</time>
</trkpt>
<trkpt lat="59.5593350" lon="31.2577618">
<ele>57.779999</ele>
<time>2026-09-01T02:19:54.000Z</time>
</trkpt>
<trkpt lat="59.5617101" lon="31.2577475">
<ele>70.110001</ele>
<time>2026-09-01T02:20:08.000Z</time>
</trkpt>
<trkpt lat="59.5633278" lon="31.2572583">
<ele>71.480003</ele>
<time>2026-09-01T02:20:17.000Z</time>
</trkpt>
<trkpt lat="59.5652184" lon="31.2559631">
<ele>69.800003</ele>
<time>2026-09-01T02:20:28.000Z</time>
</trkpt>
<trkpt lat="59.5661777" lon="31.2540094">
<ele>70.870003</ele>
<time>2026-09-01T02:20:36.000Z</time>
</trkpt>
<trkpt lat="59.5671244" lon="31.2518660">
<ele>70.889999</ele>
<time>2026-09-01T02:20:44.000Z</time>
</trkpt>
<trkpt lat="59.5678400" lon="31.2506465">
<ele>71.260002</ele>
<time>2026-09-01T02:20:49.000Z</time>
</trkpt>
<trkpt lat="59.5692964" lon="31.2498463">
<ele>71.889999</ele>
<time>2026-09-01T02:20:57.000Z</time>
</trkpt>
<trkpt lat="59.5706552" lon="31.2489253">
<ele>67.900002</ele>
<time>2026-09-01T02:21:05.000Z</time>
</trkpt>
<trkpt lat="59.5709716" lon="31.2486731">
<ele>66.059998</ele>
<time>2026-09-01T02:21:07.000Z</time>
</trkpt>
<trkpt lat="59.5719637" lon="31.2470870">
<ele>69.739998</ele>
<time>2026-09-01T02:21:14.000Z</time>
</trkpt>
<trkpt lat="59.5732385" lon="31.2449382">
<ele>78.580002</ele>
<time>2026-09-01T02:21:23.000Z</time>
</trkpt>
<trkpt lat="59.5736368" lon="31.2441874">
<ele>78.360001</ele>
<time>2026-09-01T02:21:26.000Z</time>
</trkpt>
<trkpt lat="59.5737746" lon="31.2439595">
<ele>77.349998</ele>
<time>2026-09-01T02:21:27.000Z</time>
</trkpt>
<trkpt lat="59.5791723" lon="31.2286714">
<ele>61.590000</ele>
<time>2026-09-01T02:22:18.000Z</time>
</trkpt>
<trkpt lat="59.5805425" lon="31.2265242">
<ele>61.110001</ele>
<time>2026-09-01T02:22:28.000Z</time>
</trkpt>
<trkpt lat="59.5808706" lon="31.2257640">
<ele>59.319996</ele>
<time>2026-09-01T02:22:31.000Z</time>
</trkpt>
<trkpt lat="59.5845835" lon="31.2183566">
<ele>60.209999</ele>
<time>2026-09-01T02:23:00.000Z</time>
</trkpt>
<trkpt lat="59.5864922" lon="31.2164959">
<ele>60.790001</ele>
<time>2026-09-01T02:23:12.000Z</time>
</trkpt>
<trkpt lat="59.5871419" lon="31.2159108">
<ele>59.020000</ele>
<time>2026-09-01T02:23:16.000Z</time>
</trkpt>
<trkpt lat="59.5883071" lon="31.2155473">
<ele>71.430000</ele>
<time>2026-09-01T02:23:24.000Z</time>
</trkpt>
<trkpt lat="59.5896966" lon="31.2132449">
<ele>59.100002</ele>
<time>2026-09-01T02:23:38.000Z</time>
</trkpt>
<trkpt lat="59.5900176" lon="31.2127201">
<ele>59.710003</ele>
<time>2026-09-01T02:23:43.000Z</time>
</trkpt>
<trkpt lat="59.5898608" lon="31.2122869">
<ele>63.169998</ele>
<time>2026-09-01T02:23:49.000Z</time>
</trkpt>
<trkpt lat="59.5880756" lon="31.2084143">
<ele>66.909996</ele>
<time>2026-09-01T02:24:09.000Z</time>
</trkpt>
<trkpt lat="59.5864206" lon="31.2053029">
<ele>68.110001</ele>
<time>2026-09-01T02:24:21.000Z</time>
</trkpt>
<trkpt lat="59.5854382" lon="31.2033627">
<ele>69.349998</ele>
<time>2026-09-01T02:24:29.000Z</time>
</trkpt>
<trkpt lat="59.5838778" lon="31.2003591">
<ele>63.300003</ele>
<time>2026-09-01T02:24:41.000Z</time>
</trkpt>
<trkpt lat="59.5825726" lon="31.1976625">
<ele>60.390003</ele>
<time>2026-09-01T02:24:52.000Z</time>
</trkpt>
<trkpt lat="59.5814457" lon="31.1955553">
<ele>59.270000</ele>
<time>2026-09-01T02:25:01.000Z</time>
</trkpt>
<trkpt lat="59.5802414" lon="31.1924879">
<ele>56.220001</ele>
<time>2026-09-01T02:25:13.000Z</time>
</trkpt>
<trkpt lat="59.5795400" lon="31.1895836">
<ele>57.730003</ele>
<time>2026-09-01T02:25:23.000Z</time>
</trkpt>
<trkpt lat="59.5622027" lon="31.0293777">
<ele>55.760002</ele>
<time>2026-09-01T02:32:23.000Z</time>
</trkpt>
<trkpt lat="59.5617391" lon="31.0226610">
<ele>62.110001</ele>
<time>2026-09-01T02:32:45.000Z</time>
</trkpt>
<trkpt lat="59.5615704" lon="31.0213094">
<ele>57.619999</ele>
<time>2026-09-01T02:32:51.000Z</time>
</trkpt>
<trkpt lat="59.5615661" lon="31.0210779">
<ele>56.189999</ele>
<time>2026-09-01T02:32:52.000Z</time>
</trkpt>
<trkpt lat="59.5612624" lon="31.0200834">
<ele>41.559998</ele>
<time>2026-09-01T02:33:08.000Z</time>
</trkpt>
<trkpt lat="59.5607265" lon="31.0182902">
<ele>49.510002</ele>
<time>2026-09-01T02:33:18.000Z</time>
</trkpt>
<trkpt lat="59.5599416" lon="31.0162083">
<ele>54.380001</ele>
<time>2026-09-01T02:33:28.000Z</time>
</trkpt>
<trkpt lat="59.5589600" lon="31.0136555">
<ele>27.389999</ele>
<time>2026-09-01T02:33:42.000Z</time>
</trkpt>
<trkpt lat="59.5590249" lon="31.0127074">
<ele>30.750000</ele>
<time>2026-09-01T02:33:51.000Z</time>
</trkpt>
<trkpt lat="59.5591242" lon="31.0116932">
<ele>35.389999</ele>
<time>2026-09-01T02:33:57.000Z</time>
</trkpt>
<trkpt lat="59.5591370" lon="31.0114919">
<ele>33.930000</ele>
<time>2026-09-01T02:33:59.000Z</time>
</trkpt>
<trkpt lat="59.5591454" lon="31.0110865">
<ele>36.100002</ele>
<time>2026-09-01T02:34:02.000Z</time>
</trkpt>
<trkpt lat="59.5591126" lon="31.0105670">
<ele>37.910000</ele>
<time>2026-09-01T02:34:06.000Z</time>
</trkpt>
<trkpt lat="59.5591003" lon="31.0088221">
<ele>40.000000</ele>
<time>2026-09-01T02:34:15.000Z</time>
</trkpt>
<trkpt lat="59.5588693" lon="31.0033087">
<ele>15.340000</ele>
<time>2026-09-01T02:34:32.000Z</time>
</trkpt>
<trkpt lat="59.5589266" lon="30.9993066">
<ele>34.790001</ele>
<time>2026-09-01T02:34:42.000Z</time>
</trkpt>
<trkpt lat="59.5588393" lon="30.9956635">
<ele>30.810001</ele>
<time>2026-09-01T02:34:51.000Z</time>
</trkpt>
<trkpt lat="59.5587865" lon="30.9875901">
<ele>56.109997</ele>
<time>2026-09-01T02:35:07.000Z</time>
</trkpt>
<trkpt lat="59.5585415" lon="30.9826775">
<ele>49.120003</ele>
<time>2026-09-01T02:35:19.000Z</time>
</trkpt>
<trkpt lat="59.5584214" lon="30.9775472">
<ele>49.570004</ele>
<time>2026-09-01T02:35:32.000Z</time>
</trkpt>
<trkpt lat="59.5582783" lon="30.9727115">
<ele>49.489998</ele>
<time>2026-09-01T02:35:44.000Z</time>
</trkpt>
<trkpt lat="59.5582100" lon="30.9685306">
<ele>47.029999</ele>
<time>2026-09-01T02:35:54.000Z</time>
</trkpt>
<trkpt lat="59.5578391" lon="30.9491161">
<ele>37.009998</ele>
<time>2026-09-01T02:36:41.000Z</time>
</trkpt>
<trkpt lat="59.5583066" lon="30.9365348">
<ele>32.990002</ele>
<time>2026-09-01T02:37:12.000Z</time>
</trkpt>
<trkpt lat="59.5585952" lon="30.9320037">
<ele>26.770000</ele>
<time>2026-09-01T02:37:23.000Z</time>
</trkpt>
<trkpt lat="59.5588285" lon="30.9286267">
<ele>22.969999</ele>
<time>2026-09-01T02:37:31.000Z</time>
</trkpt>
<trkpt lat="59.5588393" lon="30.9283367">
<ele>130.330002</ele>
<time>2026-09-01T02:37:33.000Z</time>
</trkpt>
<trkpt lat="59.5594328" lon="30.9203666">
<ele>172.930008</ele>
<time>2026-09-01T02:37:54.000Z</time>
</trkpt>
<trkpt lat="59.5594514" lon="30.9180925">
<ele>180.170013</ele>
<time>2026-09-01T02:38:01.000Z</time>
</trkpt>
<trkpt lat="59.5598958" lon="30.9144193">
<ele>59.209999</ele>
<time>2026-09-01T02:38:11.000Z</time>
</trkpt>
<trkpt lat="59.5600676" lon="30.9130684">
<ele>-17.590000</ele>
<time>2026-09-01T02:38:14.000Z</time>
</trkpt>
<trkpt lat="59.5596335" lon="30.9090790">
<ele>-22.449999</ele>
<time>2026-09-01T02:38:26.000Z</time>
</trkpt>
<trkpt lat="59.5590031" lon="30.9061109">
<ele>-38.920002</ele>
<time>2026-09-01T02:38:35.000Z</time>
</trkpt>
<trkpt lat="59.5581254" lon="30.9038000">
<ele>11.740000</ele>
<time>2026-09-01T02:38:46.000Z</time>
</trkpt>
<trkpt lat="59.5571616" lon="30.9008847">
<ele>17.400000</ele>
<time>2026-09-01T02:38:59.000Z</time>
</trkpt>
<trkpt lat="59.5560762" lon="30.8974929">
<ele>25.639999</ele>
<time>2026-09-01T02:39:13.000Z</time>
</trkpt>
<trkpt lat="59.5549419" lon="30.8940485">
<ele>31.850000</ele>
<time>2026-09-01T02:39:26.000Z</time>
</trkpt>
<trkpt lat="59.5539513" lon="30.8910570">
<ele>31.750000</ele>
<time>2026-09-01T02:39:37.000Z</time>
</trkpt>
<trkpt lat="59.5528790" lon="30.8877414">
<ele>32.509998</ele>
<time>2026-09-01T02:39:49.000Z</time>
</trkpt>
<trkpt lat="59.5518508" lon="30.8845908">
<ele>31.869999</ele>
<time>2026-09-01T02:40:01.000Z</time>
</trkpt>
<trkpt lat="59.5507646" lon="30.8814039">
<ele>32.100002</ele>
<time>2026-09-01T02:40:13.000Z</time>
</trkpt>
<trkpt lat="59.5413676" lon="30.8757649">
<ele>-29.600000</ele>
<time>2026-09-01T02:43:17.000Z</time>
</trkpt>
<trkpt lat="59.5408251" lon="30.8768119">
<ele>-27.969999</ele>
<time>2026-09-01T02:43:24.000Z</time>
</trkpt>
<trkpt lat="59.5355573" lon="30.8867561">
<ele>-39.869999</ele>
<time>2026-09-01T02:44:14.000Z</time>
</trkpt>
<trkpt lat="59.5339738" lon="30.8897489">
<ele>-8.170000</ele>
<time>2026-09-01T02:44:28.000Z</time>
</trkpt>
<trkpt lat="59.5323937" lon="30.8927722">
<ele>5.650000</ele>
<time>2026-09-01T02:44:42.000Z</time>
</trkpt>
<trkpt lat="59.5309179" lon="30.8955783">
<ele>0.250000</ele>
<time>2026-09-01T02:44:54.000Z</time>
</trkpt>
<trkpt lat="59.5292743" lon="30.8985139">
<ele>-4.230000</ele>
<time>2026-09-01T02:45:06.000Z</time>
</trkpt>
<trkpt lat="59.5237540" lon="30.9089149">
<ele>-6.600000</ele>
<time>2026-09-01T02:45:48.000Z</time>
</trkpt>
<trkpt lat="59.5218363" lon="30.9124732">
<ele>-20.359999</ele>
<time>2026-09-01T02:45:59.000Z</time>
</trkpt>
<trkpt lat="59.5195254" lon="30.9167068">
<ele>-18.389999</ele>
<time>2026-09-01T02:46:11.000Z</time>
</trkpt>
<trkpt lat="59.5128695" lon="30.9290308">
<ele>4.920000</ele>
<time>2026-09-01T02:46:49.000Z</time>
</trkpt>
<trkpt lat="59.5105197" lon="30.9332966">
<ele>-11.180000</ele>
<time>2026-09-01T02:47:02.000Z</time>
</trkpt>
<trkpt lat="59.5081199" lon="30.9375905">
<ele>0.050000</ele>
<time>2026-09-01T02:47:15.000Z</time>
</trkpt>
<trkpt lat="59.5024643" lon="30.9478641">
<ele>3.580000</ele>
<time>2026-09-01T02:47:46.000Z</time>
</trkpt>
<trkpt lat="59.4999759" lon="30.9523584">
<ele>24.600000</ele>
<time>2026-09-01T02:48:00.000Z</time>
</trkpt>
<trkpt lat="59.4995176" lon="30.9532861">
<ele>26.210001</ele>
<time>2026-09-01T02:48:03.000Z</time>
</trkpt>
<trkpt lat="59.4970719" lon="30.9567931">
<ele>49.220001</ele>
<time>2026-09-01T02:48:19.000Z</time>
</trkpt>
<trkpt lat="59.4954569" lon="30.9582543">
<ele>50.650002</ele>
<time>2026-09-01T02:48:29.000Z</time>
</trkpt>
<trkpt lat="59.4939772" lon="30.9596540">
<ele>55.039997</ele>
<time>2026-09-01T02:48:39.000Z</time>
</trkpt>
<trkpt lat="59.4936881" lon="30.9599460">
<ele>54.540001</ele>
<time>2026-09-01T02:48:41.000Z</time>
</trkpt>
<trkpt lat="59.4901499" lon="30.9650070">
<ele>51.959999</ele>
<time>2026-09-01T02:49:06.000Z</time>
</trkpt>
<trkpt lat="59.4898697" lon="30.9661726">
<ele>51.330002</ele>
<time>2026-09-01T02:49:10.000Z</time>
</trkpt>
<trkpt lat="59.4895669" lon="30.9682197">
<ele>49.660000</ele>
<time>2026-09-01T02:49:17.000Z</time>
</trkpt>
<trkpt lat="59.4890011" lon="30.9711762">
<ele>48.570000</ele>
<time>2026-09-01T02:49:28.000Z</time>
</trkpt>
<trkpt lat="59.4881026" lon="30.9736088">
<ele>50.320000</ele>
<time>2026-09-01T02:49:38.000Z</time>
</trkpt>
<trkpt lat="59.4870115" lon="30.9757290">
<ele>44.219997</ele>
<time>2026-09-01T02:49:48.000Z</time>
</trkpt>
<trkpt lat="59.4858237" lon="30.9778942">
<ele>45.480000</ele>
<time>2026-09-01T02:49:58.000Z</time>
</trkpt>
<trkpt lat="59.4844936" lon="30.9803169">
<ele>49.169998</ele>
<time>2026-09-01T02:50:09.000Z</time>
</trkpt>
<trkpt lat="59.4831534" lon="30.9827941">
<ele>54.059998</ele>
<time>2026-09-01T02:50:20.000Z</time>
</trkpt>
<trkpt lat="59.4818001" lon="30.9852601">
<ele>50.889999</ele>
<time>2026-09-01T02:50:31.000Z</time>
</trkpt>
<trkpt lat="59.4800314" lon="30.9885049">
<ele>47.290001</ele>
<time>2026-09-01T02:50:45.000Z</time>
</trkpt>
<trkpt lat="59.4787187" lon="30.9909172">
<ele>47.610001</ele>
<time>2026-09-01T02:50:56.000Z</time>
</trkpt>
<trkpt lat="59.4775359" lon="30.9931238">
<ele>45.449997</ele>
<time>2026-09-01T02:51:06.000Z</time>
</trkpt>
<trkpt lat="59.4764685" lon="30.9951170">
<ele>45.770000</ele>
<time>2026-09-01T02:51:15.000Z</time>
</trkpt>
<trkpt lat="59.4753262" lon="30.9972168">
<ele>45.840000</ele>
<time>2026-09-01T02:51:25.000Z</time>
</trkpt>
<trkpt lat="59.4737984" lon="31.0000131">
<ele>45.869999</ele>
<time>2026-09-01T02:51:38.000Z</time>
</trkpt>
<trkpt lat="59.4722994" lon="31.0027422">
<ele>46.660000</ele>
<time>2026-09-01T02:51:51.000Z</time>
</trkpt>
<trkpt lat="59.4709663" lon="31.0051986">
<ele>48.949997</ele>
<time>2026-09-01T02:52:03.000Z</time>
</trkpt>
<trkpt lat="59.4699312" lon="31.0071364">
<ele>48.779999</ele>
<time>2026-09-01T02:52:12.000Z</time>
</trkpt>
<trkpt lat="59.4685134" lon="31.0099320">
<ele>47.389999</ele>
<time>2026-09-01T02:52:25.000Z</time>
</trkpt>
<trkpt lat="59.4672542" lon="31.0122855">
<ele>47.480000</ele>
<time>2026-09-01T02:52:38.000Z</time>
</trkpt>
<trkpt lat="59.4669919" lon="31.0126986">
<ele>42.230000</ele>
<time>2026-09-01T02:52:42.000Z</time>
</trkpt>
<trkpt lat="59.4671588" lon="31.0133162">
<ele>41.350002</ele>
<time>2026-09-01T02:52:50.000Z</time>
</trkpt>
<trkpt lat="59.4677546" lon="31.0142591">
<ele>36.590000</ele>
<time>2026-09-01T02:53:01.000Z</time>
</trkpt>
<trkpt lat="59.4678477" lon="31.0144702">
<ele>35.240002</ele>
<time>2026-09-01T02:53:04.000Z</time>
</trkpt>
<trkpt lat="59.4681617" lon="31.0146331">
<ele>42.670002</ele>
<time>2026-09-01T02:53:10.000Z</time>
</trkpt>
<trkpt lat="59.4690460" lon="31.0140797">
<ele>49.930000</ele>
<time>2026-09-01T02:53:21.000Z</time>
</trkpt>
<trkpt lat="59.4721543" lon="31.0122626">
<ele>46.639999</ele>
<time>2026-09-01T02:53:52.000Z</time>
</trkpt>
<trkpt lat="59.4723569" lon="31.0121697">
<ele>47.949997</ele>
<time>2026-09-01T02:53:54.000Z</time>
</trkpt>
<trkpt lat="59.4732132" lon="31.0126341">
<ele>43.959999</ele>
<time>2026-09-01T02:54:02.000Z</time>
</trkpt>
<trkpt lat="59.4734281" lon="31.0128650">
<ele>44.470001</ele>
<time>2026-09-01T02:54:04.000Z</time>
</trkpt>
<trkpt lat="59.4744771" lon="31.0148516">
<ele>46.770000</ele>
<time>2026-09-01T02:54:16.000Z</time>
</trkpt>
<trkpt lat="59.4752815" lon="31.0165771">
<ele>48.990002</ele>
<time>2026-09-01T02:54:27.000Z</time>
</trkpt>
<trkpt lat="59.4764221" lon="31.0189811">
<ele>48.799999</ele>
<time>2026-09-01T02:54:42.000Z</time>
</trkpt>
<trkpt lat="59.4770927" lon="31.0202197">
<ele>50.599998</ele>
<time>2026-09-01T02:54:52.000Z</time>
</trkpt>
<trkpt lat="59.4777152" lon="31.0213719">
<ele>49.489998</ele>
<time>2026-09-01T02:55:01.000Z</time>
</trkpt>
<trkpt lat="59.4785673" lon="31.0229922">
<ele>47.790001</ele>
<time>2026-09-01T02:55:13.000Z</time>
</trkpt>
<trkpt lat="59.4791325" lon="31.0240569">
<ele>48.160000</ele>
<time>2026-09-01T02:55:23.000Z</time>
</trkpt>
<trkpt lat="59.4793595" lon="31.0244327">
<ele>48.869999</ele>
<time>2026-09-01T02:55:30.000Z</time>
</trkpt>
<trkpt lat="59.4794630" lon="31.0243030">
<ele>48.360001</ele>
<time>2026-09-01T02:55:34.000Z</time>
</trkpt>
<trkpt lat="59.4795811" lon="31.0240395">
<ele>49.960003</ele>
<time>2026-09-01T02:55:38.000Z</time>
</trkpt>
<trkpt lat="59.4801122" lon="31.0227598">
<ele>50.369999</ele>
<time>2026-09-01T02:55:54.000Z</time>
</trkpt>
<trkpt lat="59.4806865" lon="31.0217546">
<ele>50.889999</ele>
<time>2026-09-01T02:56:07.000Z</time>
</trkpt>
<trkpt lat="59.4808532" lon="31.0215411">
<ele>49.090000</ele>
<time>2026-09-01T02:56:18.000Z</time>
</trkpt>
<trkpt lat="59.4809664" lon="31.0212277">
<ele>47.639999</ele>
<time>2026-09-01T02:56:28.000Z</time>
</trkpt>
<trkpt lat="59.4810618" lon="31.0209614">
<ele>46.820000</ele>
<time>2026-09-01T02:56:39.000Z</time>
</trkpt>
</trkseg>
<trkseg>
<trkpt lat="60.0726945" lon="31.3247070">
<ele>126.800003</ele>
<time>2026-08-22T10:19:14.000Z</time>
</trkpt>
<trkpt lat="60.1149579" lon="31.3892203">
<ele>-85.630005</ele>
<time>2026-08-22T10:19:51.000Z</time>
</trkpt>
<trkpt lat="60.1155198" lon="31.3808462">
<ele>85.989998</ele>
<time>2026-08-22T10:20:02.000Z</time>
</trkpt>
<trkpt lat="60.1151800" lon="31.3777268">
<ele>100.589996</ele>
<time>2026-08-22T10:20:08.000Z</time>
</trkpt>
<trkpt lat="60.1157475" lon="31.3749654">
<ele>94.709999</ele>
<time>2026-08-22T10:20:13.000Z</time>
</trkpt>
<trkpt lat="60.1158554" lon="31.3743693">
<ele>93.730003</ele>
<time>2026-08-22T10:20:14.000Z</time>
</trkpt>
<trkpt lat="60.1158994" lon="31.3718611">
<ele>96.940002</ele>
<time>2026-08-22T10:20:18.000Z</time>
</trkpt>
<trkpt lat="60.1163697" lon="31.3690979">
<ele>95.529999</ele>
<time>2026-08-22T10:20:23.000Z</time>
</trkpt>
<trkpt lat="60.1165312" lon="31.3688353">
<ele>95.540001</ele>
<time>2026-08-22T10:20:24.000Z</time>
</trkpt>
<trkpt lat="60.1179968" lon="31.3718467">
<ele>101.239998</ele>
<time>2026-08-22T10:20:31.000Z</time>
</trkpt>
<trkpt lat="60.1180092" lon="31.3732853">
<ele>103.710007</ele>
<time>2026-08-22T10:20:33.000Z</time>
</trkpt>
<trkpt lat="60.1177124" lon="31.3790567">
<ele>109.220001</ele>
<time>2026-08-22T10:20:41.000Z</time>
</trkpt>
<trkpt lat="60.1177134" lon="31.3802219">
<ele>108.409996</ele>
<time>2026-08-22T10:20:43.000Z</time>
</trkpt>
<trkpt lat="60.1183614" lon="31.3828803">
<ele>106.110001</ele>
<time>2026-08-22T10:20:48.000Z</time>
</trkpt>
<trkpt lat="60.1180963" lon="31.3833792">
<ele>105.820000</ele>
<time>2026-08-22T10:20:49.000Z</time>
</trkpt>
<trkpt lat="60.1186396" lon="31.3869030">
<ele>106.010002</ele>
<time>2026-08-22T10:20:55.000Z</time>
</trkpt>
<trkpt lat="60.1184290" lon="31.3949869">
<ele>109.060005</ele>
<time>2026-08-22T10:21:08.000Z</time>
</trkpt>
<trkpt lat="60.1183673" lon="31.3968532">
<ele>108.860001</ele>
<time>2026-08-22T10:21:11.000Z</time>
</trkpt>
<trkpt lat="60.1174095" lon="31.4021691">
<ele>103.059998</ele>
<time>2026-08-22T10:21:20.000Z</time>
</trkpt>
<trkpt lat="60.1158325" lon="31.3910103">
<ele>-91.189995</ele>
<time>2026-08-22T10:22:50.000Z</time>
</trkpt>
<trkpt lat="60.1167415" lon="31.3980100">
<ele>-15.060000</ele>
<time>2026-08-22T10:23:03.000Z</time>
</trkpt>
<trkpt lat="60.1167978" lon="31.3985353">
<ele>-9.430000</ele>
<time>2026-08-22T10:23:04.000Z</time>
</trkpt>
<trkpt lat="60.1160259" lon="31.4036910">
<ele>0.690000</ele>
<time>2026-08-22T10:23:13.000Z</time>
</trkpt>
<trkpt lat="60.1106614" lon="31.4029793">
<ele>-272.040009</ele>
<time>2026-08-22T10:23:23.000Z</time>
</trkpt>
<trkpt lat="60.1098496" lon="31.3980203">
<ele>-341.240021</ele>
<time>2026-08-22T10:23:31.000Z</time>
</trkpt>
<trkpt lat="60.1096728" lon="31.3941401">
<ele>-328.779999</ele>
<time>2026-08-22T10:23:37.000Z</time>
</trkpt>
<trkpt lat="60.1093154" lon="31.3902918">
<ele>-361.610016</ele>
<time>2026-08-22T10:23:44.000Z</time>
</trkpt>
<trkpt lat="60.1090434" lon="31.3881971">
<ele>-386.629974</ele>
<time>2026-08-22T10:23:48.000Z</time>
</trkpt>
<trkpt lat="60.1083753" lon="31.3844238">
<ele>-409.079987</ele>
<time>2026-08-22T10:23:55.000Z</time>
</trkpt>
<trkpt lat="60.1082655" lon="31.3835511">
<ele>-416.399994</ele>
<time>2026-08-22T10:23:57.000Z</time>
</trkpt>
<trkpt lat="60.1081076" lon="31.3809976">
<ele>-442.029999</ele>
<time>2026-08-22T10:24:02.000Z</time>
</trkpt>
<trkpt lat="60.1076351" lon="31.3787783">
<ele>-456.660004</ele>
<time>2026-08-22T10:24:06.000Z</time>
</trkpt>
<trkpt lat="60.1163188" lon="31.3961736">
<ele>135.199997</ele>
<time>2026-08-22T10:25:17.000Z</time>
</trkpt>
<trkpt lat="60.1159229" lon="31.3929973">
<ele>124.750008</ele>
<time>2026-08-22T10:25:22.000Z</time>
</trkpt>
<trkpt lat="60.1153917" lon="31.3881692">
<ele>120.580002</ele>
<time>2026-08-22T10:25:30.000Z</time>
</trkpt>
<trkpt lat="60.1155064" lon="31.3819787">
<ele>121.629997</ele>
<time>2026-08-22T10:25:40.000Z</time>
</trkpt>
<trkpt lat="60.1155052" lon="31.3801072">
<ele>122.180000</ele>
<time>2026-08-22T10:25:43.000Z</time>
</trkpt>
<trkpt lat="60.1152872" lon="31.3783139">
<ele>123.169998</ele>
<time>2026-08-22T10:25:46.000Z</time>
</trkpt>
<trkpt lat="60.1155054" lon="31.3740051">
<ele>126.570007</ele>
<time>2026-08-22T10:25:53.000Z</time>
</trkpt>
<trkpt lat="60.1151022" lon="31.3641879">
<ele>131.419998</ele>
<time>2026-08-22T10:26:09.000Z</time>
</trkpt>
<trkpt lat="60.1177214" lon="31.3797896">
<ele>128.470001</ele>
<time>2026-08-22T10:26:20.000Z</time>
</trkpt>
<trkpt lat="60.1175997" lon="31.3834049">
<ele>126.079994</ele>
<time>2026-08-22T10:26:26.000Z</time>
</trkpt>
<trkpt lat="60.1172230" lon="31.3860399">
<ele>125.690002</ele>
<time>2026-08-22T10:26:31.000Z</time>
</trkpt>
<trkpt lat="60.1180002" lon="31.3884968">
<ele>127.350006</ele>
<time>2026-08-22T10:26:35.000Z</time>
</trkpt>
<trkpt lat="60.1182062" lon="31.3970745">
<ele>120.699997</ele>
<time>2026-08-22T10:26:49.000Z</time>
</trkpt>
<trkpt lat="60.1176119" lon="31.4011751">
<ele>118.619995</ele>
<time>2026-08-22T10:26:56.000Z</time>
</trkpt>
<trkpt lat="60.1309759" lon="31.3970813">
<ele>626.669983</ele>
<time>2026-08-22T10:27:49.000Z</time>
</trkpt>
<trkpt lat="60.1308171" lon="31.3960613">
<ele>635.549988</ele>
<time>2026-08-22T10:27:52.000Z</time>
</trkpt>
<trkpt lat="60.1309861" lon="31.3947461">
<ele>631.419983</ele>
<time>2026-08-22T10:27:57.000Z</time>
</trkpt>
<trkpt lat="60.1364656" lon="31.4180325">
<ele>539.849976</ele>
<time>2026-08-22T10:27:59.000Z</time>
</trkpt>
<trkpt lat="60.1184060" lon="31.3868126">
<ele>157.140015</ele>
<time>2026-08-22T10:28:26.000Z</time>
</trkpt>
<trkpt lat="60.1183342" lon="31.3937392">
<ele>104.119995</ele>
<time>2026-08-22T10:28:37.000Z</time>
</trkpt>
<trkpt lat="60.1182930" lon="31.3968772">
<ele>103.629997</ele>
<time>2026-08-22T10:28:42.000Z</time>
</trkpt>
<trkpt lat="60.1175291" lon="31.4016344">
<ele>102.570000</ele>
<time>2026-08-22T10:28:50.000Z</time>
</trkpt>
<trkpt lat="60.1171676" lon="31.4039426">
<ele>103.809998</ele>
<time>2026-08-22T10:28:54.000Z</time>
</trkpt>
<trkpt lat="60.1182622" lon="31.4030370">
<ele>104.690002</ele>
<time>2026-08-22T10:28:58.000Z</time>
</trkpt>
<trkpt lat="60.1185372" lon="31.4017817">
<ele>105.650002</ele>
<time>2026-08-22T10:29:01.000Z</time>
</trkpt>
<trkpt lat="60.1180538" lon="31.3990638">
<ele>106.180000</ele>
<time>2026-08-22T10:29:05.000Z</time>
</trkpt>
<trkpt lat="60.1177617" lon="31.3974611">
<ele>106.439995</ele>
<time>2026-08-22T10:29:07.000Z</time>
</trkpt>
<trkpt lat="60.1170521" lon="31.3930003">
<ele>106.760002</ele>
<time>2026-08-22T10:29:13.000Z</time>
</trkpt>
<trkpt lat="60.1167991" lon="31.3914498">
<ele>106.839996</ele>
<time>2026-08-22T10:29:15.000Z</time>
</trkpt>
<trkpt lat="60.1156702" lon="31.3828325">
<ele>107.169998</ele>
<time>2026-08-22T10:29:24.000Z</time>
</trkpt>
<trkpt lat="60.1155796" lon="31.3807373">
<ele>105.529999</ele>
<time>2026-08-22T10:29:27.000Z</time>
</trkpt>
<trkpt lat="60.1151808" lon="31.3777715">
<ele>105.870003</ele>
<time>2026-08-22T10:29:32.000Z</time>
</trkpt>
<trkpt lat="60.1160649" lon="31.3758132">
<ele>104.540001</ele>
<time>2026-08-22T10:29:36.000Z</time>
</trkpt>
<trkpt lat="60.1163673" lon="31.3740597">
<ele>104.239998</ele>
<time>2026-08-22T10:29:39.000Z</time>
</trkpt>
</trkseg>
<trkseg>
<trkpt lat="59.4812020" lon="31.0211862">
<ele>104.350006</ele>
<time>2026-08-31T18:45:20.000Z</time>
</trkpt>
<trkpt lat="59.4811588" lon="31.0211925">
<ele>91.969994</ele>
<time>2026-08-31T18:45:21.000Z</time>
</trkpt>
<trkpt lat="59.4812117" lon="31.0212394">
<ele>108.130005</ele>
<time>2026-08-31T18:45:30.000Z</time>
</trkpt>
<trkpt lat="59.4811488" lon="31.0214143">
<ele>108.920006</ele>
<time>2026-08-31T18:45:51.000Z</time>
</trkpt>
<trkpt lat="59.4811037" lon="31.0214571">
<ele>108.119995</ele>
<time>2026-08-31T18:46:00.000Z</time>
</trkpt>
<trkpt lat="59.4811363" lon="31.0214056">
<ele>107.059998</ele>
<time>2026-08-31T18:46:06.000Z</time>
</trkpt>
<trkpt lat="59.4812281" lon="31.0211664">
<ele>104.810005</ele>
<time>2026-08-31T18:46:19.000Z</time>
</trkpt>
<trkpt lat="59.4812387" lon="31.0211330">
<ele>105.159996</ele>
<time>2026-08-31T18:46:37.000Z</time>
</trkpt>
<trkpt lat="59.4811963" lon="31.0211211">
<ele>104.230003</ele>
<time>2026-08-31T18:47:14.000Z</time>
</trkpt>
<trkpt lat="59.4811586" lon="31.0211142">
<ele>97.020004</ele>
<time>2026-08-31T18:47:36.000Z</time>
</trkpt>
<trkpt lat="59.4810538" lon="31.0213231">
<ele>88.340004</ele>
<time>2026-08-31T18:47:47.000Z</time>
</trkpt>
<trkpt lat="59.4809937" lon="31.0214269">
<ele>84.530006</ele>
<time>2026-08-31T18:48:01.000Z</time>
</trkpt>
<trkpt lat="59.4809517" lon="31.0214932">
<ele>79.660004</ele>
<time>2026-08-31T18:48:21.000Z</time>
</trkpt>
<trkpt lat="59.4809398" lon="31.0214920">
<ele>77.849998</ele>
<time>2026-08-31T18:48:42.000Z</time>
</trkpt>
<trkpt lat="59.4809679" lon="31.0214259">
<ele>77.430000</ele>
<time>2026-08-31T18:48:46.000Z</time>
</trkpt>
<trkpt lat="59.4810029" lon="31.0213495">
<ele>76.900002</ele>
<time>2026-08-31T18:48:51.000Z</time>
</trkpt>
<trkpt lat="59.4809775" lon="31.0214327">
<ele>76.779999</ele>
<time>2026-08-31T18:49:04.000Z</time>
</trkpt>
<trkpt lat="59.4810710" lon="31.0212566">
<ele>76.570000</ele>
<time>2026-08-31T18:49:11.000Z</time>
</trkpt>
<trkpt lat="59.4811042" lon="31.0210455">
<ele>73.029999</ele>
<time>2026-08-31T18:49:19.000Z</time>
</trkpt>
<trkpt lat="59.4811317" lon="31.0209988">
<ele>71.770004</ele>
<time>2026-08-31T18:49:33.000Z</time>
</trkpt>
<trkpt lat="59.4811584" lon="31.0209960">
<ele>71.080002</ele>
<time>2026-08-31T18:49:51.000Z</time>
</trkpt>
<trkpt lat="59.4811479" lon="31.0209829">
<ele>71.599998</ele>
<time>2026-08-31T18:50:13.000Z</time>
</trkpt>
<trkpt lat="59.4811178" lon="31.0209392">
<ele>70.000000</ele>
<time>2026-08-31T18:50:39.000Z</time>
</trkpt>
<trkpt lat="59.4811243" lon="31.0208978">
<ele>68.650002</ele>
<time>2026-08-31T18:51:11.000Z</time>
</trkpt>
<trkpt lat="59.4811314" lon="31.0209170">
<ele>67.870003</ele>
<time>2026-08-31T18:51:40.000Z</time>
</trkpt>
<trkpt lat="59.4811259" lon="31.0208887">
<ele>67.820000</ele>
<time>2026-08-31T18:52:07.000Z</time>
</trkpt>
<trkpt lat="59.4810870" lon="31.0208970">
<ele>67.410004</ele>
<time>2026-08-31T18:52:34.000Z</time>
</trkpt>
<trkpt lat="59.4811383" lon="31.0208648">
<ele>68.190002</ele>
<time>2026-08-31T18:53:05.000Z</time>
</trkpt>
<trkpt lat="59.4811373" lon="31.0208553">
<ele>69.330002</ele>
<time>2026-08-31T18:53:33.000Z</time>
</trkpt>
<trkpt lat="59.4811257" lon="31.0208890">
<ele>69.480003</ele>
<time>2026-08-31T18:54:05.000Z</time>
</trkpt>
<trkpt lat="59.4810736" lon="31.0209282">
<ele>68.529999</ele>
<time>2026-08-31T18:54:33.000Z</time>
</trkpt>
<trkpt lat="59.4811147" lon="31.0209206">
<ele>66.790001</ele>
<time>2026-08-31T18:55:05.000Z</time>
</trkpt>
<trkpt lat="59.4811226" lon="31.0209196">
<ele>65.900002</ele>
<time>2026-08-31T18:55:35.000Z</time>
</trkpt>
<trkpt lat="59.4811158" lon="31.0209589">
<ele>65.559998</ele>
<time>2026-08-31T18:55:47.000Z</time>
</trkpt>
<trkpt lat="59.4810685" lon="31.0210189">
<ele>64.389999</ele>
<time>2026-08-31T18:56:06.000Z</time>
</trkpt>
<trkpt lat="59.4810731" lon="31.0210434">
<ele>64.239998</ele>
<time>2026-08-31T18:56:16.000Z</time>
</trkpt>
<trkpt lat="59.4810793" lon="31.0210856">
<ele>63.809998</ele>
<time>2026-08-31T18:56:35.000Z</time>
</trkpt>
<trkpt lat="59.4810461" lon="31.0212469">
<ele>63.630001</ele>
<time>2026-08-31T18:56:44.000Z</time>
</trkpt>
<trkpt lat="59.4808938" lon="31.0215223">
<ele>63.070000</ele>
<time>2026-08-31T18:56:58.000Z</time>
</trkpt>
<trkpt lat="59.4807990" lon="31.0215793">
<ele>63.129997</ele>
<time>2026-08-31T18:57:08.000Z</time>
</trkpt>
<trkpt lat="59.4807559" lon="31.0216081">
<ele>63.889999</ele>
<time>2026-08-31T18:57:29.000Z</time>
</trkpt>
<trkpt lat="59.4807258" lon="31.0216628">
<ele>63.230000</ele>
<time>2026-08-31T18:57:46.000Z</time>
</trkpt>
<trkpt lat="59.4805811" lon="31.0219902">
<ele>62.500000</ele>
<time>2026-08-31T18:57:54.000Z</time>
</trkpt>
<trkpt lat="59.4801146" lon="31.0228797">
<ele>56.529999</ele>
<time>2026-08-31T18:58:10.000Z</time>
</trkpt>
<trkpt lat="59.4798459" lon="31.0234224">
<ele>52.369999</ele>
<time>2026-08-31T18:58:21.000Z</time>
</trkpt>
<trkpt lat="59.4796150" lon="31.0238197">
<ele>46.920002</ele>
<time>2026-08-31T18:58:30.000Z</time>
</trkpt>
<trkpt lat="59.4794824" lon="31.0240699">
<ele>44.010002</ele>
<time>2026-08-31T18:58:34.000Z</time>
</trkpt>
<trkpt lat="59.4792137" lon="31.0241364">
<ele>40.230000</ele>
<time>2026-08-31T18:58:43.000Z</time>
</trkpt>
<trkpt lat="59.4790937" lon="31.0241534">
<ele>47.509998</ele>
<time>2026-08-31T18:59:00.000Z</time>
</trkpt>
<trkpt lat="59.4789663" lon="31.0239773">
<ele>54.099998</ele>
<time>2026-08-31T18:59:26.000Z</time>
</trkpt>
<trkpt lat="59.4785064" lon="31.0230001">
<ele>53.110001</ele>
<time>2026-08-31T18:59:38.000Z</time>
</trkpt>
<trkpt lat="59.4780929" lon="31.0221934">
<ele>54.410000</ele>
<time>2026-08-31T18:59:47.000Z</time>
</trkpt>
<trkpt lat="59.4778436" lon="31.0216147">
<ele>52.059998</ele>
<time>2026-08-31T18:59:58.000Z</time>
</trkpt>
<trkpt lat="59.4776391" lon="31.0212142">
<ele>58.340000</ele>
<time>2026-08-31T19:00:14.000Z</time>
</trkpt>
<trkpt lat="59.4775578" lon="31.0210868">
<ele>58.560001</ele>
<time>2026-08-31T19:00:16.000Z</time>
</trkpt>
<trkpt lat="59.4771003" lon="31.0201695">
<ele>59.060001</ele>
<time>2026-08-31T19:00:28.000Z</time>
</trkpt>
<trkpt lat="59.4769172" lon="31.0197829">
<ele>60.059998</ele>
<time>2026-08-31T19:00:33.000Z</time>
</trkpt>
<trkpt lat="59.4762681" lon="31.0184910">
<ele>67.510002</ele>
<time>2026-08-31T19:00:46.000Z</time>
</trkpt>
<trkpt lat="59.4755523" lon="31.0170415">
<ele>74.349998</ele>
<time>2026-08-31T19:00:57.000Z</time>
</trkpt>
<trkpt lat="59.4745806" lon="31.0150893">
<ele>71.260002</ele>
<time>2026-08-31T19:01:10.000Z</time>
</trkpt>
<trkpt lat="59.4736774" lon="31.0132673">
<ele>65.389999</ele>
<time>2026-08-31T19:01:22.000Z</time>
</trkpt>
<trkpt lat="59.4734198" lon="31.0128482">
<ele>63.930000</ele>
<time>2026-08-31T19:01:25.000Z</time>
</trkpt>
<trkpt lat="59.4724849" lon="31.0121578">
<ele>63.830002</ele>
<time>2026-08-31T19:01:35.000Z</time>
</trkpt>
<trkpt lat="59.4720794" lon="31.0122584">
<ele>60.219997</ele>
<time>2026-08-31T19:01:39.000Z</time>
</trkpt>
<trkpt lat="59.4706958" lon="31.0130885">
<ele>55.700001</ele>
<time>2026-08-31T19:01:53.000Z</time>
</trkpt>
<trkpt lat="59.4695262" lon="31.0137618">
<ele>56.789997</ele>
<time>2026-08-31T19:02:07.000Z</time>
</trkpt>
<trkpt lat="59.4686413" lon="31.0143018">
<ele>55.020000</ele>
<time>2026-08-31T19:02:21.000Z</time>
</trkpt>
<trkpt lat="59.4681534" lon="31.0145927">
<ele>50.980000</ele>
<time>2026-08-31T19:02:35.000Z</time>
</trkpt>
<trkpt lat="59.4681134" lon="31.0145897">
<ele>56.130001</ele>
<time>2026-08-31T19:02:46.000Z</time>
</trkpt>
<trkpt lat="59.4681115" lon="31.0145549">
<ele>56.820000</ele>
<time>2026-08-31T19:03:10.000Z</time>
</trkpt>
<trkpt lat="59.4681124" lon="31.0145751">
<ele>55.370003</ele>
<time>2026-08-31T19:03:36.000Z</time>
</trkpt>
<trkpt lat="59.4681298" lon="31.0146351">
<ele>55.049999</ele>
<time>2026-08-31T19:04:01.000Z</time>
</trkpt>
<trkpt lat="59.4681381" lon="31.0146161">
<ele>54.739998</ele>
<time>2026-08-31T19:04:19.000Z</time>
</trkpt>
<trkpt lat="59.4680969" lon="31.0145933">
<ele>54.439999</ele>
<time>2026-08-31T19:04:42.000Z</time>
</trkpt>
<trkpt lat="59.4681057" lon="31.0146123">
<ele>52.910000</ele>
<time>2026-08-31T19:05:39.000Z</time>
</trkpt>
<trkpt lat="59.4680621" lon="31.0146019">
<ele>52.609997</ele>
<time>2026-08-31T19:06:12.000Z</time>
</trkpt>
<trkpt lat="59.4680470" lon="31.0145951">
<ele>52.609997</ele>
<time>2026-08-31T19:06:14.000Z</time>
</trkpt>
<trkpt lat="59.4677778" lon="31.0141410">
<ele>52.959999</ele>
<time>2026-08-31T19:06:23.000Z</time>
</trkpt>
<trkpt lat="59.4672422" lon="31.0131579">
<ele>54.090000</ele>
<time>2026-08-31T19:06:33.000Z</time>
</trkpt>
<trkpt lat="59.4671203" lon="31.0128681">
<ele>53.059998</ele>
<time>2026-08-31T19:06:41.000Z</time>
</trkpt>
<trkpt lat="59.4671150" lon="31.0128629">
<ele>53.480000</ele>
<time>2026-08-31T19:06:47.000Z</time>
</trkpt>
<trkpt lat="59.4671465" lon="31.0126601">
<ele>53.160000</ele>
<time>2026-08-31T19:06:51.000Z</time>
</trkpt>
<trkpt lat="59.4676343" lon="31.0117160">
<ele>51.420002</ele>
<time>2026-08-31T19:07:01.000Z</time>
</trkpt>
<trkpt lat="59.4685179" lon="31.0100762">
<ele>49.800003</ele>
<time>2026-08-31T19:07:12.000Z</time>
</trkpt>
<trkpt lat="59.4699809" lon="31.0072933">
<ele>49.510002</ele>
<time>2026-08-31T19:07:28.000Z</time>
</trkpt>
<trkpt lat="59.4714093" lon="31.0046915">
<ele>52.950001</ele>
<time>2026-08-31T19:07:42.000Z</time>
</trkpt>
<trkpt lat="59.4725036" lon="31.0027427">
<ele>54.240002</ele>
<time>2026-08-31T19:07:52.000Z</time>
</trkpt>
<trkpt lat="59.4740213" lon="30.9999609">
<ele>56.280003</ele>
<time>2026-08-31T19:08:05.000Z</time>
</trkpt>
<trkpt lat="59.4756048" lon="30.9970137">
<ele>59.650002</ele>
<time>2026-08-31T19:08:20.000Z</time>
</trkpt>
<trkpt lat="59.4772533" lon="30.9939810">
<ele>59.790001</ele>
<time>2026-08-31T19:08:36.000Z</time>
</trkpt>
<trkpt lat="59.4789278" lon="30.9908861">
<ele>64.419998</ele>
<time>2026-08-31T19:08:52.000Z</time>
</trkpt>
<trkpt lat="59.4805509" lon="30.9878871">
<ele>62.739998</ele>
<time>2026-08-31T19:09:07.000Z</time>
</trkpt>
<trkpt lat="59.4825929" lon="30.9841797">
<ele>62.180000</ele>
<time>2026-08-31T19:09:25.000Z</time>
</trkpt>
<trkpt lat="59.4848669" lon="30.9799858">
<ele>59.820000</ele>
<time>2026-08-31T19:09:45.000Z</time>
</trkpt>
<trkpt lat="59.4866648" lon="30.9767257">
<ele>58.200001</ele>
<time>2026-08-31T19:10:01.000Z</time>
</trkpt>
<trkpt lat="59.4883355" lon="30.9736816">
<ele>59.840000</ele>
<time>2026-08-31T19:10:16.000Z</time>
</trkpt>
<trkpt lat="59.4897684" lon="30.9710553">
<ele>61.500000</ele>
<time>2026-08-31T19:10:29.000Z</time>
</trkpt>
<trkpt lat="59.4910100" lon="30.9688235">
<ele>58.660000</ele>
<time>2026-08-31T19:10:40.000Z</time>
</trkpt>
<trkpt lat="59.4924987" lon="30.9661551">
<ele>52.090000</ele>
<time>2026-08-31T19:10:53.000Z</time>
</trkpt>
<trkpt lat="59.4943460" lon="30.9628159">
<ele>49.610001</ele>
<time>2026-08-31T19:11:09.000Z</time>
</trkpt>
<trkpt lat="59.4958328" lon="30.9601196">
<ele>50.510002</ele>
<time>2026-08-31T19:11:22.000Z</time>
</trkpt>
<trkpt lat="59.4978076" lon="30.9566030">
<ele>44.030003</ele>
<time>2026-08-31T19:11:39.000Z</time>
</trkpt>
<trkpt lat="59.4998127" lon="30.9530829">
<ele>44.980000</ele>
<time>2026-08-31T19:11:56.000Z</time>
</trkpt>
<trkpt lat="59.5015832" lon="30.9499047">
<ele>43.799999</ele>
<time>2026-08-31T19:12:11.000Z</time>
</trkpt>
<trkpt lat="59.5031962" lon="30.9469425">
<ele>45.780003</ele>
<time>2026-08-31T19:12:25.000Z</time>
</trkpt>
<trkpt lat="59.5051236" lon="30.9434379">
<ele>48.470001</ele>
<time>2026-08-31T19:12:41.000Z</time>
</trkpt>
<trkpt lat="59.5069430" lon="30.9400447">
<ele>43.000000</ele>
<time>2026-08-31T19:12:56.000Z</time>
</trkpt>
<trkpt lat="59.5087594" lon="30.9367212">
<ele>39.740002</ele>
<time>2026-08-31T19:13:10.000Z</time>
</trkpt>
<trkpt lat="59.5110994" lon="30.9324656">
<ele>36.080002</ele>
<time>2026-08-31T19:13:27.000Z</time>
</trkpt>
<trkpt lat="59.5132759" lon="30.9284866">
<ele>37.230000</ele>
<time>2026-08-31T19:13:42.000Z</time>
</trkpt>
<trkpt lat="59.5151646" lon="30.9250165">
<ele>41.410000</ele>
<time>2026-08-31T19:13:55.000Z</time>
</trkpt>
<trkpt lat="59.5174930" lon="30.9206945">
<ele>40.590000</ele>
<time>2026-08-31T19:14:11.000Z</time>
</trkpt>
<trkpt lat="59.5198383" lon="30.9163629">
<ele>36.189999</ele>
<time>2026-08-31T19:14:27.000Z</time>
</trkpt>
<trkpt lat="59.5222185" lon="30.9120033">
<ele>40.910000</ele>
<time>2026-08-31T19:14:44.000Z</time>
</trkpt>
<trkpt lat="59.5237097" lon="30.9091843">
<ele>35.470001</ele>
<time>2026-08-31T19:14:57.000Z</time>
</trkpt>
<trkpt lat="59.5254825" lon="30.9058909">
<ele>36.490002</ele>
<time>2026-08-31T19:15:13.000Z</time>
</trkpt>
<trkpt lat="59.5270100" lon="30.9030569">
<ele>38.079998</ele>
<time>2026-08-31T19:15:27.000Z</time>
</trkpt>
<trkpt lat="59.5289194" lon="30.8994996">
<ele>38.180000</ele>
<time>2026-08-31T19:15:44.000Z</time>
</trkpt>
<trkpt lat="59.5302906" lon="30.8969496">
<ele>38.120003</ele>
<time>2026-08-31T19:15:56.000Z</time>
</trkpt>
<trkpt lat="59.5313969" lon="30.8948845">
<ele>39.060001</ele>
<time>2026-08-31T19:16:06.000Z</time>
</trkpt>
<trkpt lat="59.5327233" lon="30.8924805">
<ele>42.900002</ele>
<time>2026-08-31T19:16:18.000Z</time>
</trkpt>
<trkpt lat="59.5341258" lon="30.8899166">
<ele>44.720001</ele>
<time>2026-08-31T19:16:31.000Z</time>
</trkpt>
<trkpt lat="59.5356843" lon="30.8869792">
<ele>41.910000</ele>
<time>2026-08-31T19:16:46.000Z</time>
</trkpt>
<trkpt lat="59.5372722" lon="30.8840815">
<ele>40.139999</ele>
<time>2026-08-31T19:17:01.000Z</time>
</trkpt>
<trkpt lat="59.5387555" lon="30.8813616">
<ele>40.380001</ele>
<time>2026-08-31T19:17:15.000Z</time>
</trkpt>
<trkpt lat="59.5399093" lon="30.8791267">
<ele>40.099998</ele>
<time>2026-08-31T19:17:28.000Z</time>
</trkpt>
<trkpt lat="59.5403588" lon="30.8784021">
<ele>40.849998</ele>
<time>2026-08-31T19:17:36.000Z</time>
</trkpt>
<trkpt lat="59.5404117" lon="30.8783292">
<ele>41.200001</ele>
<time>2026-08-31T19:17:44.000Z</time>
</trkpt>
<trkpt lat="59.5403417" lon="30.8784402">
<ele>41.040001</ele>
<time>2026-08-31T19:18:27.000Z</time>
</trkpt>
<trkpt lat="59.5407810" lon="30.8776888">
<ele>40.629997</ele>
<time>2026-08-31T19:18:38.000Z</time>
</trkpt>
<trkpt lat="59.5415398" lon="30.8762690">
<ele>39.920002</ele>
<time>2026-08-31T19:18:49.000Z</time>
</trkpt>
<trkpt lat="59.5425062" lon="30.8744605">
<ele>38.430000</ele>
<time>2026-08-31T19:19:01.000Z</time>
</trkpt>
<trkpt lat="59.5439525" lon="30.8716764">
<ele>36.320000</ele>
<time>2026-08-31T19:19:19.000Z</time>
</trkpt>
<trkpt lat="59.5449013" lon="30.8699565">
<ele>34.840000</ele>
<time>2026-08-31T19:19:35.000Z</time>
</trkpt>
<trkpt lat="59.5450290" lon="30.8698150">
<ele>34.529999</ele>
<time>2026-08-31T19:19:38.000Z</time>
</trkpt>
<trkpt lat="59.5454292" lon="30.8702100">
<ele>33.770000</ele>
<time>2026-08-31T19:19:45.000Z</time>
</trkpt>
<trkpt lat="59.5463722" lon="30.8718853">
<ele>32.739998</ele>
<time>2026-08-31T19:19:57.000Z</time>
</trkpt>
<trkpt lat="59.5474338" lon="30.8739850">
<ele>31.850000</ele>
<time>2026-08-31T19:20:10.000Z</time>
</trkpt>
<trkpt lat="59.5489518" lon="30.8770374">
<ele>31.280001</ele>
<time>2026-08-31T19:20:29.000Z</time>
</trkpt>
<trkpt lat="59.5500708" lon="30.8798234">
<ele>31.020000</ele>
<time>2026-08-31T19:20:41.000Z</time>
</trkpt>
<trkpt lat="59.5510879" lon="30.8822622">
<ele>31.670000</ele>
<time>2026-08-31T19:20:52.000Z</time>
</trkpt>
<trkpt lat="59.5519918" lon="30.8851655">
<ele>34.240002</ele>
<time>2026-08-31T19:21:03.000Z</time>
</trkpt>
<trkpt lat="59.5532624" lon="30.8890466">
<ele>35.070000</ele>
<time>2026-08-31T19:21:18.000Z</time>
</trkpt>
<trkpt lat="59.5545953" lon="30.8930854">
<ele>35.459999</ele>
<time>2026-08-31T19:21:34.000Z</time>
</trkpt>
<trkpt lat="59.5557609" lon="30.8966575">
<ele>36.110001</ele>
<time>2026-08-31T19:21:48.000Z</time>
</trkpt>
<trkpt lat="59.5568329" lon="30.8999501">
<ele>35.720001</ele>
<time>2026-08-31T19:22:01.000Z</time>
</trkpt>
<trkpt lat="59.5578879" lon="30.9031397">
<ele>32.650002</ele>
<time>2026-08-31T19:22:14.000Z</time>
</trkpt>
<trkpt lat="59.5588982" lon="30.9061542">
<ele>34.039997</ele>
<time>2026-08-31T19:22:27.000Z</time>
</trkpt>
<trkpt lat="59.5598966" lon="30.9092698">
<ele>36.570000</ele>
<time>2026-08-31T19:22:40.000Z</time>
</trkpt>
<trkpt lat="59.5603878" lon="30.9119842">
<ele>37.369999</ele>
<time>2026-08-31T19:22:50.000Z</time>
</trkpt>
<trkpt lat="59.5604282" lon="30.9128287">
<ele>35.849998</ele>
<time>2026-08-31T19:22:53.000Z</time>
</trkpt>
<trkpt lat="59.5601930" lon="30.9161742">
<ele>38.720001</ele>
<time>2026-08-31T19:23:04.000Z</time>
</trkpt>
<trkpt lat="59.5598219" lon="30.9206164">
<ele>41.869999</ele>
<time>2026-08-31T19:23:17.000Z</time>
</trkpt>
<trkpt lat="59.5593497" lon="30.9260388">
<ele>36.509998</ele>
<time>2026-08-31T19:23:33.000Z</time>
</trkpt>
<trkpt lat="59.5589533" lon="30.9305197">
<ele>35.770000</ele>
<time>2026-08-31T19:23:46.000Z</time>
</trkpt>
<trkpt lat="59.5586171" lon="30.9342938">
<ele>33.700001</ele>
<time>2026-08-31T19:23:57.000Z</time>
</trkpt>
<trkpt lat="59.5582223" lon="30.9387415">
<ele>36.299999</ele>
<time>2026-08-31T19:24:10.000Z</time>
</trkpt>
<trkpt lat="59.5578140" lon="30.9432937">
<ele>33.900002</ele>
<time>2026-08-31T19:24:24.000Z</time>
</trkpt>
<trkpt lat="59.5577105" lon="30.9469004">
<ele>34.709999</ele>
<time>2026-08-31T19:24:35.000Z</time>
</trkpt>
<trkpt lat="59.5578135" lon="30.9519359">
<ele>47.160000</ele>
<time>2026-08-31T19:24:50.000Z</time>
</trkpt>
<trkpt lat="59.5579248" lon="30.9563921">
<ele>52.799999</ele>
<time>2026-08-31T19:25:03.000Z</time>
</trkpt>
<trkpt lat="59.5580419" lon="30.9609965">
<ele>52.059998</ele>
<time>2026-08-31T19:25:16.000Z</time>
</trkpt>
<trkpt lat="59.5581674" lon="30.9662546">
<ele>50.660000</ele>
<time>2026-08-31T19:25:31.000Z</time>
</trkpt>
<trkpt lat="59.5582669" lon="30.9711824">
<ele>47.579998</ele>
<time>2026-08-31T19:25:45.000Z</time>
</trkpt>
<trkpt lat="59.5584074" lon="30.9773137">
<ele>41.939999</ele>
<time>2026-08-31T19:26:02.000Z</time>
</trkpt>
<trkpt lat="59.5585663" lon="30.9837853">
<ele>47.080002</ele>
<time>2026-08-31T19:26:19.000Z</time>
</trkpt>
<trkpt lat="59.5587154" lon="30.9901439">
<ele>47.570000</ele>
<time>2026-08-31T19:26:35.000Z</time>
</trkpt>
<trkpt lat="59.5588124" lon="30.9944716">
<ele>48.239998</ele>
<time>2026-08-31T19:26:47.000Z</time>
</trkpt>
<trkpt lat="59.5589574" lon="31.0000703">
<ele>53.369999</ele>
<time>2026-08-31T19:27:03.000Z</time>
</trkpt>
<trkpt lat="59.5591187" lon="31.0064800">
<ele>53.869999</ele>
<time>2026-08-31T19:27:21.000Z</time>
</trkpt>
<trkpt lat="59.5591657" lon="31.0085168">
<ele>57.960003</ele>
<time>2026-08-31T19:27:29.000Z</time>
</trkpt>
<trkpt lat="59.5591517" lon="31.0107387">
<ele>62.080002</ele>
<time>2026-08-31T19:27:41.000Z</time>
</trkpt>
<trkpt lat="59.5590580" lon="31.0123657">
<ele>63.910000</ele>
<time>2026-08-31T19:27:51.000Z</time>
</trkpt>
<trkpt lat="59.5590129" lon="31.0134936">
<ele>63.470001</ele>
<time>2026-08-31T19:28:00.000Z</time>
</trkpt>
<trkpt lat="59.5590620" lon="31.0140879">
<ele>61.620003</ele>
<time>2026-08-31T19:28:04.000Z</time>
</trkpt>
<trkpt lat="59.5592485" lon="31.0147900">
<ele>60.620003</ele>
<time>2026-08-31T19:28:08.000Z</time>
</trkpt>
<trkpt lat="59.5601669" lon="31.0171129">
<ele>56.730000</ele>
<time>2026-08-31T19:28:19.000Z</time>
</trkpt>
<trkpt lat="59.5612106" lon="31.0199665">
<ele>54.059998</ele>
<time>2026-08-31T19:28:32.000Z</time>
</trkpt>
<trkpt lat="59.5614203" lon="31.0214391">
<ele>52.330002</ele>
<time>2026-08-31T19:28:40.000Z</time>
</trkpt>
<trkpt lat="59.5616792" lon="31.0234660">
<ele>53.250000</ele>
<time>2026-08-31T19:28:52.000Z</time>
</trkpt>
<trkpt lat="59.5620712" lon="31.0266946">
<ele>51.079998</ele>
<time>2026-08-31T19:29:08.000Z</time>
</trkpt>
<trkpt lat="59.5624730" lon="31.0299124">
<ele>46.889999</ele>
<time>2026-08-31T19:29:23.000Z</time>
</trkpt>
<trkpt lat="59.5629260" lon="31.0335101">
<ele>47.020000</ele>
<time>2026-08-31T19:29:39.000Z</time>
</trkpt>
<trkpt lat="59.5631031" lon="31.0350754">
<ele>50.640003</ele>
<time>2026-08-31T19:29:48.000Z</time>
</trkpt>
<trkpt lat="59.5633745" lon="31.0372510">
<ele>52.360001</ele>
<time>2026-08-31T19:29:58.000Z</time>
</trkpt>
<trkpt lat="59.5637517" lon="31.0401837">
<ele>50.360001</ele>
<time>2026-08-31T19:30:09.000Z</time>
</trkpt>
<trkpt lat="59.5642323" lon="31.0440283">
<ele>49.099998</ele>
<time>2026-08-31T19:30:23.000Z</time>
</trkpt>
<trkpt lat="59.5647932" lon="31.0484492">
<ele>46.250000</ele>
<time>2026-08-31T19:30:38.000Z</time>
</trkpt>
<trkpt lat="59.5652723" lon="31.0522180">
<ele>48.649998</ele>
<time>2026-08-31T19:30:52.000Z</time>
</trkpt>
<trkpt lat="59.5657313" lon="31.0560505">
<ele>52.030003</ele>
<time>2026-08-31T19:31:06.000Z</time>
</trkpt>
<trkpt lat="59.5663624" lon="31.0610871">
<ele>53.760002</ele>
<time>2026-08-31T19:31:23.000Z</time>
</trkpt>
<trkpt lat="59.5669279" lon="31.0656046">
<ele>52.320004</ele>
<time>2026-08-31T19:31:38.000Z</time>
</trkpt>
<trkpt lat="59.5675275" lon="31.0704734">
<ele>49.329998</ele>
<time>2026-08-31T19:31:53.000Z</time>
</trkpt>
<trkpt lat="59.5681137" lon="31.0749994">
<ele>49.450001</ele>
<time>2026-08-31T19:32:07.000Z</time>
</trkpt>
<trkpt lat="59.5686168" lon="31.0791952">
<ele>52.869999</ele>
<time>2026-08-31T19:32:19.000Z</time>
</trkpt>
<trkpt lat="59.5692259" lon="31.0842649">
<ele>56.750000</ele>
<time>2026-08-31T19:32:33.000Z</time>
</trkpt>
<trkpt lat="59.5699229" lon="31.0897371">
<ele>54.320000</ele>
<time>2026-08-31T19:32:48.000Z</time>
</trkpt>
<trkpt lat="59.5706069" lon="31.0950446">
<ele>48.709999</ele>
<time>2026-08-31T19:33:02.000Z</time>
</trkpt>
<trkpt lat="59.5711452" lon="31.0995276">
<ele>56.980000</ele>
<time>2026-08-31T19:33:14.000Z</time>
</trkpt>
<trkpt lat="59.5719014" lon="31.1056598">
<ele>56.440002</ele>
<time>2026-08-31T19:33:29.000Z</time>
</trkpt>
<trkpt lat="59.5727733" lon="31.1126187">
<ele>55.489998</ele>
<time>2026-08-31T19:33:45.000Z</time>
</trkpt>
<trkpt lat="59.5735743" lon="31.1189374">
<ele>51.609997</ele>
<time>2026-08-31T19:34:00.000Z</time>
</trkpt>
<trkpt lat="59.5743581" lon="31.1251910">
<ele>49.299999</ele>
<time>2026-08-31T19:34:15.000Z</time>
</trkpt>
<trkpt lat="59.5750634" lon="31.1306455">
<ele>45.160000</ele>
<time>2026-08-31T19:34:28.000Z</time>
</trkpt>
<trkpt lat="59.5759175" lon="31.1372284">
<ele>38.010002</ele>
<time>2026-08-31T19:34:44.000Z</time>
</trkpt>
<trkpt lat="59.5766712" lon="31.1431114">
<ele>30.459999</ele>
<time>2026-08-31T19:34:59.000Z</time>
</trkpt>
<trkpt lat="59.5774359" lon="31.1491633">
<ele>23.270000</ele>
<time>2026-08-31T19:35:15.000Z</time>
</trkpt>
<trkpt lat="59.5780721" lon="31.1545347">
<ele>34.149998</ele>
<time>2026-08-31T19:35:29.000Z</time>
</trkpt>
<trkpt lat="59.5786787" lon="31.1594072">
<ele>29.959999</ele>
<time>2026-08-31T19:35:42.000Z</time>
</trkpt>
<trkpt lat="59.5792010" lon="31.1635914">
<ele>25.879999</ele>
<time>2026-08-31T19:35:54.000Z</time>
</trkpt>
<trkpt lat="59.5798643" lon="31.1687518">
<ele>18.969999</ele>
<time>2026-08-31T19:36:10.000Z</time>
</trkpt>
<trkpt lat="59.5799623" lon="31.1696994">
<ele>17.980000</ele>
<time>2026-08-31T19:36:13.000Z</time>
</trkpt>
<trkpt lat="59.5799817" lon="31.1703417">
<ele>20.129999</ele>
<time>2026-08-31T19:36:15.000Z</time>
</trkpt>
<trkpt lat="59.5796887" lon="31.1736373">
<ele>38.920002</ele>
<time>2026-08-31T19:36:25.000Z</time>
</trkpt>
<trkpt lat="59.5791661" lon="31.1785991">
<ele>42.800003</ele>
<time>2026-08-31T19:36:40.000Z</time>
</trkpt>
<trkpt lat="59.5788666" lon="31.1832597">
<ele>46.320000</ele>
<time>2026-08-31T19:36:54.000Z</time>
</trkpt>
<trkpt lat="59.5790170" lon="31.1860968">
<ele>47.279999</ele>
<time>2026-08-31T19:37:03.000Z</time>
</trkpt>
<trkpt lat="59.5794685" lon="31.1892239">
<ele>46.259998</ele>
<time>2026-08-31T19:37:14.000Z</time>
</trkpt>
<trkpt lat="59.5803429" lon="31.1930213">
<ele>49.889999</ele>
<time>2026-08-31T19:37:28.000Z</time>
</trkpt>
<trkpt lat="59.5811802" lon="31.1951659">
<ele>57.150002</ele>
<time>2026-08-31T19:37:37.000Z</time>
</trkpt>
<trkpt lat="59.5824947" lon="31.1976619">
<ele>63.530003</ele>
<time>2026-08-31T19:37:49.000Z</time>
</trkpt>
<trkpt lat="59.5840824" lon="31.2008385">
<ele>65.680000</ele>
<time>2026-08-31T19:38:03.000Z</time>
</trkpt>
<trkpt lat="59.5857952" lon="31.2042770">
<ele>64.209999</ele>
<time>2026-08-31T19:38:17.000Z</time>
</trkpt>
<trkpt lat="59.5874518" lon="31.2076440">
<ele>58.040001</ele>
<time>2026-08-31T19:38:30.000Z</time>
</trkpt>
<trkpt lat="59.5891682" lon="31.2110637">
<ele>57.540001</ele>
<time>2026-08-31T19:38:44.000Z</time>
</trkpt>
<trkpt lat="59.5897430" lon="31.2123415">
<ele>60.430000</ele>
<time>2026-08-31T19:38:51.000Z</time>
</trkpt>
<trkpt lat="59.5898011" lon="31.2124688">
<ele>60.410000</ele>
<time>2026-08-31T19:38:52.000Z</time>
</trkpt>
<trkpt lat="59.5897471" lon="31.2134948">
<ele>61.230003</ele>
<time>2026-08-31T19:39:00.000Z</time>
</trkpt>
<trkpt lat="59.5888994" lon="31.2149505">
<ele>56.310001</ele>
<time>2026-08-31T19:39:09.000Z</time>
</trkpt>
<trkpt lat="59.5876708" lon="31.2162414">
<ele>52.980000</ele>
<time>2026-08-31T19:39:18.000Z</time>
</trkpt>
<trkpt lat="59.5856521" lon="31.2176540">
<ele>46.430000</ele>
<time>2026-08-31T19:39:31.000Z</time>
</trkpt>
<trkpt lat="59.5838996" lon="31.2195227">
<ele>43.360001</ele>
<time>2026-08-31T19:39:43.000Z</time>
</trkpt>
<trkpt lat="59.5826382" lon="31.2216340">
<ele>41.910000</ele>
<time>2026-08-31T19:39:53.000Z</time>
</trkpt>
<trkpt lat="59.5810852" lon="31.2250621">
<ele>44.650002</ele>
<time>2026-08-31T19:40:07.000Z</time>
</trkpt>
<trkpt lat="59.5798139" lon="31.2278728">
<ele>56.099998</ele>
<time>2026-08-31T19:40:18.000Z</time>
</trkpt>
<trkpt lat="59.5783663" lon="31.2303225">
<ele>65.349998</ele>
<time>2026-08-31T19:40:29.000Z</time>
</trkpt>
<trkpt lat="59.5773858" lon="31.2330300">
<ele>69.540001</ele>
<time>2026-08-31T19:40:39.000Z</time>
</trkpt>
<trkpt lat="59.5762615" lon="31.2369567">
<ele>67.180000</ele>
<time>2026-08-31T19:40:52.000Z</time>
</trkpt>
<trkpt lat="59.5753904" lon="31.2400051">
<ele>77.040001</ele>
<time>2026-08-31T19:41:02.000Z</time>
</trkpt>
<trkpt lat="59.5743351" lon="31.2430243">
<ele>84.990005</ele>
<time>2026-08-31T19:41:13.000Z</time>
</trkpt>
<trkpt lat="59.5730822" lon="31.2453241">
<ele>83.180000</ele>
<time>2026-08-31T19:41:24.000Z</time>
</trkpt>
<trkpt lat="59.5716758" lon="31.2475630">
<ele>76.430000</ele>
<time>2026-08-31T19:41:35.000Z</time>
</trkpt>
<trkpt lat="59.5706012" lon="31.2490584">
<ele>72.550003</ele>
<time>2026-08-31T19:41:43.000Z</time>
</trkpt>
<trkpt lat="59.5687499" lon="31.2502590">
<ele>74.180000</ele>
<time>2026-08-31T19:41:55.000Z</time>
</trkpt>
<trkpt lat="59.5672543" lon="31.2515283">
<ele>75.760002</ele>
<time>2026-08-31T19:42:05.000Z</time>
</trkpt>
<trkpt lat="59.5663177" lon="31.2533276">
<ele>71.480003</ele>
<time>2026-08-31T19:42:13.000Z</time>
</trkpt>
<trkpt lat="59.5648855" lon="31.2562397">
<ele>65.980003</ele>
<time>2026-08-31T19:42:25.000Z</time>
</trkpt>
<trkpt lat="59.5633643" lon="31.2572543">
<ele>64.510002</ele>
<time>2026-08-31T19:42:34.000Z</time>
</trkpt>
<trkpt lat="59.5613417" lon="31.2578203">
<ele>69.040001</ele>
<time>2026-08-31T19:42:45.000Z</time>
</trkpt>
<trkpt lat="59.5590265" lon="31.2576236">
<ele>74.720001</ele>
<time>2026-08-31T19:42:57.000Z</time>
</trkpt>
<trkpt lat="59.5585082" lon="31.2577268">
<ele>75.560005</ele>
<time>2026-08-31T19:43:00.000Z</time>
</trkpt>
<trkpt lat="59.5571607" lon="31.2589948">
<ele>74.139999</ele>
<time>2026-08-31T19:43:09.000Z</time>
</trkpt>
<trkpt lat="59.5554622" lon="31.2610320">
<ele>72.980003</ele>
<time>2026-08-31T19:43:21.000Z</time>
</trkpt>
<trkpt lat="59.5541516" lon="31.2617175">
<ele>70.949997</ele>
<time>2026-08-31T19:43:29.000Z</time>
</trkpt>
<trkpt lat="59.5530333" lon="31.2618232">
<ele>70.120003</ele>
<time>2026-08-31T19:43:36.000Z</time>
</trkpt>
<trkpt lat="59.5517489" lon="31.2608308">
<ele>74.239998</ele>
<time>2026-08-31T19:43:45.000Z</time>
</trkpt>
<trkpt lat="59.5503567" lon="31.2587524">
<ele>80.870003</ele>
<time>2026-08-31T19:43:56.000Z</time>
</trkpt>
<trkpt lat="59.5489238" lon="31.2568503">
<ele>83.849998</ele>
<time>2026-08-31T19:44:07.000Z</time>
</trkpt>
<trkpt lat="59.5475808" lon="31.2556420">
<ele>79.690002</ele>
<time>2026-08-31T19:44:17.000Z</time>
</trkpt>
<trkpt lat="59.5461318" lon="31.2552577">
<ele>71.180000</ele>
<time>2026-08-31T19:44:27.000Z</time>
</trkpt>
<trkpt lat="59.5443345" lon="31.2549114">
<ele>67.549995</ele>
<time>2026-08-31T19:44:39.000Z</time>
</trkpt>
<trkpt lat="59.5420172" lon="31.2544496">
<ele>64.430000</ele>
<time>2026-08-31T19:44:55.000Z</time>
</trkpt>
<trkpt lat="59.5405455" lon="31.2540394">
<ele>63.099998</ele>
<time>2026-08-31T19:45:06.000Z</time>
</trkpt>
<trkpt lat="59.5392787" lon="31.2528226">
<ele>62.330002</ele>
<time>2026-08-31T19:45:16.000Z</time>
</trkpt>
<trkpt lat="59.5376842" lon="31.2511180">
<ele>60.270000</ele>
<time>2026-08-31T19:45:30.000Z</time>
</trkpt>
<trkpt lat="59.5365656" lon="31.2499324">
<ele>61.860001</ele>
<time>2026-08-31T19:45:40.000Z</time>
</trkpt>
<trkpt lat="59.5352423" lon="31.2492215">
<ele>60.799999</ele>
<time>2026-08-31T19:45:51.000Z</time>
</trkpt>
<trkpt lat="59.5342111" lon="31.2490777">
<ele>60.149998</ele>
<time>2026-08-31T19:46:00.000Z</time>
</trkpt>
<trkpt lat="59.5340149" lon="31.2486743">
<ele>59.009998</ele>
<time>2026-08-31T19:46:07.000Z</time>
</trkpt>
<trkpt lat="59.5340194" lon="31.2486228">
<ele>58.520000</ele>
<time>2026-08-31T19:46:09.000Z</time>
</trkpt>
<trkpt lat="59.5340274" lon="31.2478421">
<ele>56.779999</ele>
<time>2026-08-31T19:46:21.000Z</time>
</trkpt>
<trkpt lat="59.5340011" lon="31.2475480">
<ele>56.639999</ele>
<time>2026-08-31T19:46:28.000Z</time>
</trkpt>
<trkpt lat="59.5339501" lon="31.2470352">
<ele>55.630001</ele>
<time>2026-08-31T19:46:40.000Z</time>
</trkpt>
<trkpt lat="59.5338560" lon="31.2463145">
<ele>50.019997</ele>
<time>2026-08-31T19:46:53.000Z</time>
</trkpt>
<trkpt lat="59.5336213" lon="31.2451756">
<ele>44.880001</ele>
<time>2026-08-31T19:47:07.000Z</time>
</trkpt>
<trkpt lat="59.5335699" lon="31.2443920">
<ele>43.889999</ele>
<time>2026-08-31T19:47:20.000Z</time>
</trkpt>
<trkpt lat="59.5334894" lon="31.2435070">
<ele>39.489998</ele>
<time>2026-08-31T19:47:35.000Z</time>
</trkpt>
<trkpt lat="59.5335096" lon="31.2429907">
<ele>38.170002</ele>
<time>2026-08-31T19:47:45.000Z</time>
</trkpt>
<trkpt lat="59.5339128" lon="31.2427641">
<ele>40.900002</ele>
<time>2026-08-31T19:47:58.000Z</time>
</trkpt>
<trkpt lat="59.5341123" lon="31.2427054">
<ele>43.919998</ele>
<time>2026-08-31T19:48:03.000Z</time>
</trkpt>
<trkpt lat="59.5346361" lon="31.2424832">
<ele>51.480003</ele>
<time>2026-08-31T19:48:17.000Z</time>
</trkpt>
<trkpt lat="59.5348736" lon="31.2423564">
<ele>49.700001</ele>
<time>2026-08-31T19:48:27.000Z</time>
</trkpt>
<trkpt lat="59.5348512" lon="31.2415786">
<ele>51.110001</ele>
<time>2026-08-31T19:48:39.000Z</time>
</trkpt>
<trkpt lat="59.5347371" lon="31.2406894">
<ele>50.500000</ele>
<time>2026-08-31T19:48:54.000Z</time>
</trkpt>
<trkpt lat="59.5344750" lon="31.2401295">
<ele>48.990002</ele>
<time>2026-08-31T19:49:06.000Z</time>
</trkpt>
<trkpt lat="59.5339757" lon="31.2390604">
<ele>56.239998</ele>
<time>2026-08-31T19:49:22.000Z</time>
</trkpt>
<trkpt lat="59.5336770" lon="31.2382532">
<ele>54.939999</ele>
<time>2026-08-31T19:49:35.000Z</time>
</trkpt>
<trkpt lat="59.5334269" lon="31.2377312">
<ele>53.270000</ele>
<time>2026-08-31T19:49:48.000Z</time>
</trkpt>
<trkpt lat="59.5331488" lon="31.2370240">
<ele>51.190002</ele>
<time>2026-08-31T19:50:00.000Z</time>
</trkpt>
<trkpt lat="59.5329245" lon="31.2365276">
<ele>45.969997</ele>
<time>2026-08-31T19:50:12.000Z</time>
</trkpt>
<trkpt lat="59.5328512" lon="31.2363369">
<ele>42.130001</ele>
<time>2026-08-31T19:50:22.000Z</time>
</trkpt>
<trkpt lat="59.5327557" lon="31.2362404">
<ele>42.810001</ele>
<time>2026-08-31T19:50:52.000Z</time>
</trkpt>
<trkpt lat="59.5327145" lon="31.2360192">
<ele>44.010002</ele>
<time>2026-08-31T19:51:16.000Z</time>
</trkpt>
<trkpt lat="59.5326297" lon="31.2357089">
<ele>42.770000</ele>
<time>2026-08-31T19:51:31.000Z</time>
</trkpt>
<trkpt lat="59.5325220" lon="31.2353819">
<ele>41.820000</ele>
<time>2026-08-31T19:51:53.000Z</time>
</trkpt>
<trkpt lat="59.5324137" lon="31.2351320">
<ele>41.599998</ele>
<time>2026-08-31T19:52:01.000Z</time>
</trkpt>
<trkpt lat="59.5322412" lon="31.2347397">
<ele>40.590000</ele>
<time>2026-08-31T19:52:12.000Z</time>
</trkpt>
<trkpt lat="59.5321347" lon="31.2344559">
<ele>40.080002</ele>
<time>2026-08-31T19:52:20.000Z</time>
</trkpt>
<trkpt lat="59.5320399" lon="31.2341822">
<ele>39.429996</ele>
<time>2026-08-31T19:52:27.000Z</time>
</trkpt>
<trkpt lat="59.5319647" lon="31.2339305">
<ele>38.470001</ele>
<time>2026-08-31T19:52:33.000Z</time>
</trkpt>
<trkpt lat="59.5319473" lon="31.2335540">
<ele>38.610001</ele>
<time>2026-08-31T19:52:46.000Z</time>
</trkpt>
<trkpt lat="59.5319486" lon="31.2334288">
<ele>36.200001</ele>
<time>2026-08-31T19:52:50.000Z</time>
</trkpt>
<trkpt lat="59.5319130" lon="31.2331945">
<ele>34.580002</ele>
<time>2026-08-31T19:52:55.000Z</time>
</trkpt>
<trkpt lat="59.5318953" lon="31.2328846">
<ele>32.230000</ele>
<time>2026-08-31T19:53:02.000Z</time>
</trkpt>
<trkpt lat="59.5316766" lon="31.2319041">
<ele>31.360001</ele>
<time>2026-08-31T19:53:14.000Z</time>
</trkpt>
<trkpt lat="59.5316958" lon="31.2310674">
<ele>27.080000</ele>
<time>2026-08-31T19:53:27.000Z</time>
</trkpt>
<trkpt lat="59.5317698" lon="31.2304948">
<ele>20.860001</ele>
<time>2026-08-31T19:53:37.000Z</time>
</trkpt>
<trkpt lat="59.5317774" lon="31.2300153">
<ele>13.419999</ele>
<time>2026-08-31T19:53:50.000Z</time>
</trkpt>
<trkpt lat="59.5317377" lon="31.2292746">
<ele>3.540000</ele>
<time>2026-08-31T19:54:03.000Z</time>
</trkpt>
<trkpt lat="59.5315974" lon="31.2289592">
<ele>-2.880000</ele>
<time>2026-08-31T19:54:12.000Z</time>
</trkpt>
<trkpt lat="59.5315446" lon="31.2288951">
<ele>-2.780000</ele>
<time>2026-08-31T19:54:14.000Z</time>
</trkpt>
<trkpt lat="59.5315130" lon="31.2288129">
<ele>-2.250000</ele>
<time>2026-08-31T19:54:32.000Z</time>
</trkpt>
<trkpt lat="59.5314853" lon="31.2287283">
<ele>0.320000</ele>
<time>2026-08-31T19:54:59.000Z</time>
</trkpt>
<trkpt lat="59.5314950" lon="31.2287649">
<ele>0.090000</ele>
<time>2026-08-31T19:55:04.000Z</time>
</trkpt>
<trkpt lat="59.5315329" lon="31.2286578">
<ele>6.040000</ele>
<time>2026-08-31T19:55:21.000Z</time>
</trkpt>
<trkpt lat="59.5316204" lon="31.2287643">
<ele>12.219999</ele>
<time>2026-08-31T19:55:36.000Z</time>
</trkpt>
<trkpt lat="59.5316420" lon="31.2287796">
<ele>12.790000</ele>
<time>2026-08-31T19:55:40.000Z</time>
</trkpt>
<trkpt lat="59.5318656" lon="31.2287671">
<ele>17.480000</ele>
<time>2026-08-31T19:56:32.000Z</time>
</trkpt>
<trkpt lat="59.5318598" lon="31.2287052">
<ele>23.280001</ele>
<time>2026-08-31T19:57:03.000Z</time>
</trkpt>
<trkpt lat="59.5318908" lon="31.2287648">
<ele>32.299999</ele>
<time>2026-08-31T19:57:30.000Z</time>
</trkpt>
<trkpt lat="59.5318349" lon="31.2288609">
<ele>40.459999</ele>
<time>2026-08-31T19:57:59.000Z</time>
</trkpt>
<trkpt lat="59.5318384" lon="31.2287889">
<ele>45.090000</ele>
<time>2026-08-31T19:58:27.000Z</time>
</trkpt>
<trkpt lat="59.5318895" lon="31.2286690">
<ele>45.760002</ele>
<time>2026-08-31T19:58:52.000Z</time>
</trkpt>
<trkpt lat="59.5319204" lon="31.2287196">
<ele>46.879997</ele>
<time>2026-08-31T19:59:19.000Z</time>
</trkpt>
<trkpt lat="59.5319062" lon="31.2287352">
<ele>46.730000</ele>
<time>2026-08-31T19:59:23.000Z</time>
</trkpt>
<trkpt lat="59.5319180" lon="31.2287279">
<ele>49.250000</ele>
<time>2026-08-31T19:59:43.000Z</time>
</trkpt>
<trkpt lat="59.5318841" lon="31.2285565">
<ele>48.540001</ele>
<time>2026-08-31T20:00:04.000Z</time>
</trkpt>
<trkpt lat="59.5317905" lon="31.2284096">
<ele>47.770000</ele>
<time>2026-08-31T20:00:26.000Z</time>
</trkpt>
<trkpt lat="59.5317778" lon="31.2283905">
<ele>48.020000</ele>
<time>2026-08-31T20:00:30.000Z</time>
</trkpt>
<trkpt lat="59.5317457" lon="31.2282349">
<ele>47.639999</ele>
<time>2026-08-31T20:00:44.000Z</time>
</trkpt>
<trkpt lat="59.5317050" lon="31.2281321">
<ele>47.579998</ele>
<time>2026-08-31T20:00:52.000Z</time>
</trkpt>
<trkpt lat="59.5315912" lon="31.2278161">
<ele>47.489998</ele>
<time>2026-08-31T20:01:15.000Z</time>
</trkpt>
<trkpt lat="59.5315883" lon="31.2275987">
<ele>46.939999</ele>
<time>2026-08-31T20:01:37.000Z</time>
</trkpt>
<trkpt lat="59.5314871" lon="31.2274548">
<ele>48.849998</ele>
<time>2026-08-31T20:02:05.000Z</time>
</trkpt>
<trkpt lat="59.5314003" lon="31.2273391">
<ele>48.900002</ele>
<time>2026-08-31T20:02:26.000Z</time>
</trkpt>
<trkpt lat="59.5312942" lon="31.2272073">
<ele>48.960003</ele>
<time>2026-08-31T20:02:47.000Z</time>
</trkpt>
<trkpt lat="59.5310777" lon="31.2268472">
<ele>46.620003</ele>
<time>2026-08-31T20:03:09.000Z</time>
</trkpt>
<trkpt lat="59.5308958" lon="31.2265849">
<ele>44.959999</ele>
<time>2026-08-31T20:03:31.000Z</time>
</trkpt>
<trkpt lat="59.5307628" lon="31.2263690">
<ele>44.770000</ele>
<time>2026-08-31T20:03:48.000Z</time>
</trkpt>
<trkpt lat="59.5306181" lon="31.2261320">
<ele>43.550003</ele>
<time>2026-08-31T20:04:07.000Z</time>
</trkpt>
<trkpt lat="59.5304922" lon="31.2258707">
<ele>42.110001</ele>
<time>2026-08-31T20:04:28.000Z</time>
</trkpt>
<trkpt lat="59.5303762" lon="31.2257167">
<ele>42.070000</ele>
<time>2026-08-31T20:04:38.000Z</time>
</trkpt>
<trkpt lat="59.5302907" lon="31.2255519">
<ele>45.139999</ele>
<time>2026-08-31T20:05:00.000Z</time>
</trkpt>
<trkpt lat="59.5301082" lon="31.2252601">
<ele>44.899998</ele>
<time>2026-08-31T20:05:18.000Z</time>
</trkpt>
<trkpt lat="59.5300686" lon="31.2252071">
<ele>44.449997</ele>
<time>2026-08-31T20:05:23.000Z</time>
</trkpt>
<trkpt lat="59.5298868" lon="31.2249957">
<ele>43.689999</ele>
<time>2026-08-31T20:05:39.000Z</time>
</trkpt>
<trkpt lat="59.5298200" lon="31.2249336">
<ele>43.590000</ele>
<time>2026-08-31T20:05:45.000Z</time>
</trkpt>
<trkpt lat="59.5296733" lon="31.2247857">
<ele>41.859997</ele>
<time>2026-08-31T20:06:03.000Z</time>
</trkpt>
<trkpt lat="59.5295163" lon="31.2245676">
<ele>45.889999</ele>
<time>2026-08-31T20:06:26.000Z</time>
</trkpt>
<trkpt lat="59.5294951" lon="31.2245516">
<ele>46.300003</ele>
<time>2026-08-31T20:06:31.000Z</time>
</trkpt>
<trkpt lat="59.5292409" lon="31.2244845">
<ele>44.560001</ele>
<time>2026-08-31T20:06:58.000Z</time>
</trkpt>
<trkpt lat="59.5290024" lon="31.2244307">
<ele>40.619999</ele>
<time>2026-08-31T20:07:21.000Z</time>
</trkpt>
<trkpt lat="59.5288056" lon="31.2244788">
<ele>39.799999</ele>
<time>2026-08-31T20:07:41.000Z</time>
</trkpt>
<trkpt lat="59.5285664" lon="31.2246339">
<ele>42.790001</ele>
<time>2026-08-31T20:08:02.000Z</time>
</trkpt>
<trkpt lat="59.5284920" lon="31.2247068">
<ele>44.189999</ele>
<time>2026-08-31T20:08:22.000Z</time>
</trkpt>
<trkpt lat="59.5284144" lon="31.2247191">
<ele>45.180000</ele>
<time>2026-08-31T20:08:36.000Z</time>
</trkpt>
<trkpt lat="59.5283138" lon="31.2247202">
<ele>48.869999</ele>
<time>2026-08-31T20:08:59.000Z</time>
</trkpt>
<trkpt lat="59.5282980" lon="31.2246945">
<ele>51.710003</ele>
<time>2026-08-31T20:09:24.000Z</time>
</trkpt>
<trkpt lat="59.5282894" lon="31.2246679">
<ele>52.490002</ele>
<time>2026-08-31T20:09:55.000Z</time>
</trkpt>
<trkpt lat="59.5283000" lon="31.2246834">
<ele>54.040001</ele>
<time>2026-08-31T20:10:19.000Z</time>
</trkpt>
<trkpt lat="59.5283369" lon="31.2247103">
<ele>54.620003</ele>
<time>2026-08-31T20:10:47.000Z</time>
</trkpt>
<trkpt lat="59.5282393" lon="31.2246188">
<ele>52.889999</ele>
<time>2026-08-31T20:11:08.000Z</time>
</trkpt>
<trkpt lat="59.5280849" lon="31.2245263">
<ele>47.370003</ele>
<time>2026-08-31T20:11:28.000Z</time>
</trkpt>
<trkpt lat="59.5280228" lon="31.2244608">
<ele>43.970001</ele>
<time>2026-08-31T20:11:47.000Z</time>
</trkpt>
<trkpt lat="59.5279223" lon="31.2243294">
<ele>44.279999</ele>
<time>2026-08-31T20:12:05.000Z</time>
</trkpt>
<trkpt lat="59.5279137" lon="31.2243192">
<ele>44.330002</ele>
<time>2026-08-31T20:12:24.000Z</time>
</trkpt>
<trkpt lat="59.5278810" lon="31.2242564">
<ele>43.070000</ele>
<time>2026-08-31T20:12:40.000Z</time>
</trkpt>
<trkpt lat="59.5278447" lon="31.2242690">
<ele>42.360001</ele>
<time>2026-08-31T20:13:05.000Z</time>
</trkpt>
<trkpt lat="59.5279056" lon="31.2244032">
<ele>40.600002</ele>
<time>2026-08-31T20:13:23.000Z</time>
</trkpt>
<trkpt lat="59.5279427" lon="31.2243659">
<ele>37.279999</ele>
<time>2026-08-31T20:13:55.000Z</time>
</trkpt>
<trkpt lat="59.5278872" lon="31.2243229">
<ele>34.959999</ele>
<time>2026-08-31T20:14:21.000Z</time>
</trkpt>
<trkpt lat="59.5278634" lon="31.2243051">
<ele>36.070000</ele>
<time>2026-08-31T20:14:49.000Z</time>
</trkpt>
<trkpt lat="59.5278497" lon="31.2242665">
<ele>37.060001</ele>
<time>2026-08-31T20:15:15.000Z</time>
</trkpt>
<trkpt lat="59.5278360" lon="31.2241413">
<ele>38.470001</ele>
<time>2026-08-31T20:15:39.000Z</time>
</trkpt>
<trkpt lat="59.5278114" lon="31.2241253">
<ele>38.029999</ele>
<time>2026-08-31T20:15:43.000Z</time>
</trkpt>
<trkpt lat="59.5277538" lon="31.2239543">
<ele>38.980000</ele>
<time>2026-08-31T20:16:00.000Z</time>
</trkpt>
<trkpt lat="59.5277577" lon="31.2239588">
<ele>40.060001</ele>
<time>2026-08-31T20:16:17.000Z</time>
</trkpt>
<trkpt lat="59.5277069" lon="31.2239569">
<ele>41.759998</ele>
<time>2026-08-31T20:16:44.000Z</time>
</trkpt>
<trkpt lat="59.5277737" lon="31.2239848">
<ele>41.090000</ele>
<time>2026-08-31T20:17:09.000Z</time>
</trkpt>
<trkpt lat="59.5277700" lon="31.2238920">
<ele>41.299999</ele>
<time>2026-08-31T20:17:40.000Z</time>
</trkpt>
<trkpt lat="59.5278074" lon="31.2238698">
<ele>43.200001</ele>
<time>2026-08-31T20:18:09.000Z</time>
</trkpt>
<trkpt lat="59.5276913" lon="31.2238490">
<ele>43.400002</ele>
<time>2026-08-31T20:18:35.000Z</time>
</trkpt>
<trkpt lat="59.5277076" lon="31.2238643">
<ele>43.880001</ele>
<time>2026-08-31T20:19:05.000Z</time>
</trkpt>
<trkpt lat="59.5277499" lon="31.2238157">
<ele>44.360001</ele>
<time>2026-08-31T20:19:31.000Z</time>
</trkpt>
<trkpt lat="59.5277866" lon="31.2238458">
<ele>43.750000</ele>
<time>2026-08-31T20:19:59.000Z</time>
</trkpt>
<trkpt lat="59.5277908" lon="31.2238526">
<ele>43.870003</ele>
<time>2026-08-31T20:20:23.000Z</time>
</trkpt>
<trkpt lat="59.5277539" lon="31.2238841">
<ele>43.200001</ele>
<time>2026-08-31T20:20:45.000Z</time>
</trkpt>
<trkpt lat="59.5276869" lon="31.2239745">
<ele>42.629997</ele>
<time>2026-08-31T20:21:06.000Z</time>
</trkpt>
<trkpt lat="59.5276804" lon="31.2240240">
<ele>41.380001</ele>
<time>2026-08-31T20:21:28.000Z</time>
</trkpt>
<trkpt lat="59.5277000" lon="31.2240036">
<ele>41.090000</ele>
<time>2026-08-31T20:21:53.000Z</time>
</trkpt>
<trkpt lat="59.5276649" lon="31.2240005">
<ele>40.960003</ele>
<time>2026-08-31T20:22:06.000Z</time>
</trkpt>
<trkpt lat="59.5276235" lon="31.2239724">
<ele>40.980000</ele>
<time>2026-08-31T20:22:34.000Z</time>
</trkpt>
<trkpt lat="59.5276085" lon="31.2240719">
<ele>40.930000</ele>
<time>2026-08-31T20:22:51.000Z</time>
</trkpt>
<trkpt lat="59.5275935" lon="31.2242235">
<ele>43.980000</ele>
<time>2026-08-31T20:23:15.000Z</time>
</trkpt>
<trkpt lat="59.5275232" lon="31.2241934">
<ele>46.969997</ele>
<time>2026-08-31T20:23:43.000Z</time>
</trkpt>
<trkpt lat="59.5274663" lon="31.2244708">
<ele>46.320000</ele>
<time>2026-08-31T20:24:11.000Z</time>
</trkpt>
<trkpt lat="59.5274288" lon="31.2245920">
<ele>45.939999</ele>
<time>2026-08-31T20:24:26.000Z</time>
</trkpt>
<trkpt lat="59.5274347" lon="31.2247065">
<ele>45.770000</ele>
<time>2026-08-31T20:24:53.000Z</time>
</trkpt>
<trkpt lat="59.5274255" lon="31.2248484">
<ele>46.000000</ele>
<time>2026-08-31T20:25:20.000Z</time>
</trkpt>
<trkpt lat="59.5273641" lon="31.2250533">
<ele>45.519997</ele>
<time>2026-08-31T20:25:48.000Z</time>
</trkpt>
<trkpt lat="59.5272902" lon="31.2252515">
<ele>45.100002</ele>
<time>2026-08-31T20:26:08.000Z</time>
</trkpt>
<trkpt lat="59.5272765" lon="31.2254959">
<ele>43.539997</ele>
<time>2026-08-31T20:26:33.000Z</time>
</trkpt>
<trkpt lat="59.5272894" lon="31.2256626">
<ele>41.810001</ele>
<time>2026-08-31T20:26:49.000Z</time>
</trkpt>
<trkpt lat="59.5272150" lon="31.2256426">
<ele>41.770000</ele>
<time>2026-08-31T20:27:14.000Z</time>
</trkpt>
<trkpt lat="59.5271369" lon="31.2257272">
<ele>42.480000</ele>
<time>2026-08-31T20:27:35.000Z</time>
</trkpt>
<trkpt lat="59.5271165" lon="31.2257650">
<ele>42.290001</ele>
<time>2026-08-31T20:27:48.000Z</time>
</trkpt>
<trkpt lat="59.5270455" lon="31.2258198">
<ele>41.259998</ele>
<time>2026-08-31T20:28:04.000Z</time>
</trkpt>
<trkpt lat="59.5269687" lon="31.2259617">
<ele>43.550003</ele>
<time>2026-08-31T20:28:29.000Z</time>
</trkpt>
<trkpt lat="59.5269732" lon="31.2258977">
<ele>43.230000</ele>
<time>2026-08-31T20:29:01.000Z</time>
</trkpt>
<trkpt lat="59.5269352" lon="31.2259665">
<ele>41.859997</ele>
<time>2026-08-31T20:29:27.000Z</time>
</trkpt>
<trkpt lat="59.5269425" lon="31.2259880">
<ele>42.420002</ele>
<time>2026-08-31T20:29:55.000Z</time>
</trkpt>
<trkpt lat="59.5268693" lon="31.2260261">
<ele>42.779999</ele>
<time>2026-08-31T20:30:24.000Z</time>
</trkpt>
<trkpt lat="59.5269578" lon="31.2261541">
<ele>43.119999</ele>
<time>2026-08-31T20:31:03.000Z</time>
</trkpt>
<trkpt lat="59.5269027" lon="31.2261392">
<ele>43.270000</ele>
<time>2026-08-31T20:31:31.000Z</time>
</trkpt>
<trkpt lat="59.5268769" lon="31.2263148">
<ele>42.699997</ele>
<time>2026-08-31T20:32:01.000Z</time>
</trkpt>
<trkpt lat="59.5268463" lon="31.2263753">
<ele>42.570000</ele>
<time>2026-08-31T20:32:28.000Z</time>
</trkpt>
<trkpt lat="59.5268377" lon="31.2264015">
<ele>42.549999</ele>
<time>2026-08-31T20:32:32.000Z</time>
</trkpt>
<trkpt lat="59.5268154" lon="31.2265680">
<ele>42.940002</ele>
<time>2026-08-31T20:32:56.000Z</time>
</trkpt>
<trkpt lat="59.5268167" lon="31.2266260">
<ele>43.239998</ele>
<time>2026-08-31T20:33:20.000Z</time>
</trkpt>
<trkpt lat="59.5267482" lon="31.2266600">
<ele>46.020000</ele>
<time>2026-08-31T20:33:43.000Z</time>
</trkpt>
<trkpt lat="59.5267914" lon="31.2267151">
<ele>46.059998</ele>
<time>2026-08-31T20:34:09.000Z</time>
</trkpt>
<trkpt lat="59.5267532" lon="31.2268145">
<ele>45.579998</ele>
<time>2026-08-31T20:34:34.000Z</time>
</trkpt>
<trkpt lat="59.5268207" lon="31.2268105">
<ele>44.620003</ele>
<time>2026-08-31T20:34:56.000Z</time>
</trkpt>
<trkpt lat="59.5268144" lon="31.2268962">
<ele>46.340000</ele>
<time>2026-08-31T20:35:19.000Z</time>
</trkpt>
<trkpt lat="59.5267588" lon="31.2269649">
<ele>45.360001</ele>
<time>2026-08-31T20:35:44.000Z</time>
</trkpt>
<trkpt lat="59.5267628" lon="31.2269792">
<ele>45.850002</ele>
<time>2026-08-31T20:36:06.000Z</time>
</trkpt>
<trkpt lat="59.5266483" lon="31.2270329">
<ele>47.930000</ele>
<time>2026-08-31T20:36:31.000Z</time>
</trkpt>
<trkpt lat="59.5265964" lon="31.2270715">
<ele>48.820000</ele>
<time>2026-08-31T20:37:05.000Z</time>
</trkpt>
<trkpt lat="59.5265320" lon="31.2273244">
<ele>47.240002</ele>
<time>2026-08-31T20:37:58.000Z</time>
</trkpt>
<trkpt lat="59.5265213" lon="31.2274440">
<ele>46.980003</ele>
<time>2026-08-31T20:38:14.000Z</time>
</trkpt>
<trkpt lat="59.5264590" lon="31.2276018">
<ele>47.690002</ele>
<time>2026-08-31T20:38:35.000Z</time>
</trkpt>
<trkpt lat="59.5264581" lon="31.2277338">
<ele>45.939999</ele>
<time>2026-08-31T20:38:58.000Z</time>
</trkpt>
<trkpt lat="59.5264746" lon="31.2279234">
<ele>44.349998</ele>
<time>2026-08-31T20:39:22.000Z</time>
</trkpt>
<trkpt lat="59.5264149" lon="31.2280827">
<ele>43.860001</ele>
<time>2026-08-31T20:39:49.000Z</time>
</trkpt>
<trkpt lat="59.5264523" lon="31.2281862">
<ele>43.989998</ele>
<time>2026-08-31T20:40:12.000Z</time>
</trkpt>
<trkpt lat="59.5264070" lon="31.2283030">
<ele>43.950001</ele>
<time>2026-08-31T20:40:23.000Z</time>
</trkpt>
<trkpt lat="59.5263356" lon="31.2283740">
<ele>43.580002</ele>
<time>2026-08-31T20:40:50.000Z</time>
</trkpt>
<trkpt lat="59.5262259" lon="31.2284070">
<ele>45.509998</ele>
<time>2026-08-31T20:41:18.000Z</time>
</trkpt>
<trkpt lat="59.5262739" lon="31.2284834">
<ele>44.010002</ele>
<time>2026-08-31T20:41:44.000Z</time>
</trkpt>
<trkpt lat="59.5262350" lon="31.2284358">
<ele>43.239998</ele>
<time>2026-08-31T20:42:12.000Z</time>
</trkpt>
<trkpt lat="59.5262143" lon="31.2284987">
<ele>44.850002</ele>
<time>2026-08-31T20:42:37.000Z</time>
</trkpt>
<trkpt lat="59.5263207" lon="31.2284266">
<ele>45.650002</ele>
<time>2026-08-31T20:43:03.000Z</time>
</trkpt>
<trkpt lat="59.5262153" lon="31.2284862">
<ele>46.799999</ele>
<time>2026-08-31T20:43:32.000Z</time>
</trkpt>
<trkpt lat="59.5262583" lon="31.2284669">
<ele>43.750000</ele>
<time>2026-08-31T20:43:59.000Z</time>
</trkpt>
<trkpt lat="59.5263007" lon="31.2284492">
<ele>43.139999</ele>
<time>2026-08-31T20:44:21.000Z</time>
</trkpt>
<trkpt lat="59.5262866" lon="31.2284888">
<ele>42.549999</ele>
<time>2026-08-31T20:44:47.000Z</time>
</trkpt>
<trkpt lat="59.5262691" lon="31.2286089">
<ele>43.919998</ele>
<time>2026-08-31T20:45:17.000Z</time>
</trkpt>
<trkpt lat="59.5263109" lon="31.2285557">
<ele>43.340000</ele>
<time>2026-08-31T20:45:51.000Z</time>
</trkpt>
<trkpt lat="59.5263233" lon="31.2284832">
<ele>43.250004</ele>
<time>2026-08-31T20:46:22.000Z</time>
</trkpt>
<trkpt lat="59.5262546" lon="31.2284878">
<ele>42.090000</ele>
<time>2026-08-31T20:46:55.000Z</time>
</trkpt>
<trkpt lat="59.5262393" lon="31.2285856">
<ele>43.520000</ele>
<time>2026-08-31T20:47:15.000Z</time>
</trkpt>
<trkpt lat="59.5261591" lon="31.2285541">
<ele>44.270000</ele>
<time>2026-08-31T20:47:39.000Z</time>
</trkpt>
<trkpt lat="59.5261679" lon="31.2285741">
<ele>44.590000</ele>
<time>2026-08-31T20:48:03.000Z</time>
</trkpt>
<trkpt lat="59.5261100" lon="31.2286057">
<ele>43.619999</ele>
<time>2026-08-31T20:48:24.000Z</time>
</trkpt>
<trkpt lat="59.5260713" lon="31.2286365">
<ele>42.120003</ele>
<time>2026-08-31T20:48:50.000Z</time>
</trkpt>
<trkpt lat="59.5260890" lon="31.2285591">
<ele>40.750000</ele>
<time>2026-08-31T20:49:11.000Z</time>
</trkpt>
<trkpt lat="59.5260604" lon="31.2285637">
<ele>40.900002</ele>
<time>2026-08-31T20:49:27.000Z</time>
</trkpt>
<trkpt lat="59.5259778" lon="31.2286555">
<ele>41.369999</ele>
<time>2026-08-31T20:49:48.000Z</time>
</trkpt>
<trkpt lat="59.5259412" lon="31.2286860">
<ele>41.350002</ele>
<time>2026-08-31T20:50:15.000Z</time>
</trkpt>
<trkpt lat="59.5258561" lon="31.2286676">
<ele>40.580002</ele>
<time>2026-08-31T20:50:39.000Z</time>
</trkpt>
<trkpt lat="59.5258498" lon="31.2286687">
<ele>40.540001</ele>
<time>2026-08-31T20:50:40.000Z</time>
</trkpt>
<trkpt lat="59.5257598" lon="31.2287000">
<ele>41.549999</ele>
<time>2026-08-31T20:51:03.000Z</time>
</trkpt>
<trkpt lat="59.5257562" lon="31.2287563">
<ele>43.439999</ele>
<time>2026-08-31T20:51:26.000Z</time>
</trkpt>
<trkpt lat="59.5257539" lon="31.2288764">
<ele>43.260002</ele>
<time>2026-08-31T20:51:53.000Z</time>
</trkpt>
<trkpt lat="59.5257760" lon="31.2290011">
<ele>42.610001</ele>
<time>2026-08-31T20:52:09.000Z</time>
</trkpt>
<trkpt lat="59.5257540" lon="31.2291603">
<ele>42.399998</ele>
<time>2026-08-31T20:52:30.000Z</time>
</trkpt>
<trkpt lat="59.5257585" lon="31.2290544">
<ele>41.540001</ele>
<time>2026-08-31T20:52:57.000Z</time>
</trkpt>
<trkpt lat="59.5256766" lon="31.2291346">
<ele>41.090000</ele>
<time>2026-08-31T20:53:15.000Z</time>
</trkpt>
<trkpt lat="59.5256224" lon="31.2291812">
<ele>41.220001</ele>
<time>2026-08-31T20:53:29.000Z</time>
</trkpt>
<trkpt lat="59.5256270" lon="31.2293195">
<ele>41.779999</ele>
<time>2026-08-31T20:53:55.000Z</time>
</trkpt>
<trkpt lat="59.5255448" lon="31.2294043">
<ele>42.099998</ele>
<time>2026-08-31T20:54:14.000Z</time>
</trkpt>
<trkpt lat="59.5255267" lon="31.2294956">
<ele>41.820000</ele>
<time>2026-08-31T20:54:25.000Z</time>
</trkpt>
<trkpt lat="59.5254931" lon="31.2297357">
<ele>40.540001</ele>
<time>2026-08-31T20:54:47.000Z</time>
</trkpt>
<trkpt lat="59.5254443" lon="31.2297441">
<ele>39.429996</ele>
<time>2026-08-31T20:55:17.000Z</time>
</trkpt>
<trkpt lat="59.5255116" lon="31.2298244">
<ele>37.529999</ele>
<time>2026-08-31T20:55:47.000Z</time>
</trkpt>
<trkpt lat="59.5254012" lon="31.2298086">
<ele>37.980000</ele>
<time>2026-08-31T20:56:19.000Z</time>
</trkpt>
<trkpt lat="59.5254135" lon="31.2296792">
<ele>38.310001</ele>
<time>2026-08-31T20:56:49.000Z</time>
</trkpt>
<trkpt lat="59.5253882" lon="31.2298588">
<ele>35.470001</ele>
<time>2026-08-31T20:57:22.000Z</time>
</trkpt>
<trkpt lat="59.5253115" lon="31.2300819">
<ele>35.459999</ele>
<time>2026-08-31T20:57:48.000Z</time>
</trkpt>
<trkpt lat="59.5252254" lon="31.2300968">
<ele>36.030003</ele>
<time>2026-08-31T20:58:06.000Z</time>
</trkpt>
<trkpt lat="59.5252495" lon="31.2301457">
<ele>35.439999</ele>
<time>2026-08-31T20:58:43.000Z</time>
</trkpt>
<trkpt lat="59.5252045" lon="31.2301372">
<ele>35.730000</ele>
<time>2026-08-31T20:59:08.000Z</time>
</trkpt>
<trkpt lat="59.5252033" lon="31.2302044">
<ele>38.689999</ele>
<time>2026-08-31T20:59:33.000Z</time>
</trkpt>
<trkpt lat="59.5251040" lon="31.2303139">
<ele>38.400002</ele>
<time>2026-08-31T21:00:00.000Z</time>
</trkpt>
<trkpt lat="59.5250709" lon="31.2305526">
<ele>38.799999</ele>
<time>2026-08-31T21:00:25.000Z</time>
</trkpt>
<trkpt lat="59.5249703" lon="31.2307354">
<ele>41.859997</ele>
<time>2026-08-31T21:00:59.000Z</time>
</trkpt>
<trkpt lat="59.5249486" lon="31.2306713">
<ele>45.400002</ele>
<time>2026-08-31T21:01:27.000Z</time>
</trkpt>
<trkpt lat="59.5250415" lon="31.2306911">
<ele>44.829998</ele>
<time>2026-08-31T21:02:28.000Z</time>
</trkpt>
<trkpt lat="59.5251060" lon="31.2306411">
<ele>47.910000</ele>
<time>2026-08-31T21:03:01.000Z</time>
</trkpt>
<trkpt lat="59.5251224" lon="31.2306157">
<ele>47.730000</ele>
<time>2026-08-31T21:03:32.000Z</time>
</trkpt>
<trkpt lat="59.5250835" lon="31.2306794">
<ele>46.160000</ele>
<time>2026-08-31T21:04:06.000Z</time>
</trkpt>
<trkpt lat="59.5250725" lon="31.2307333">
<ele>48.299999</ele>
<time>2026-08-31T21:04:36.000Z</time>
</trkpt>
<trkpt lat="59.5250416" lon="31.2306614">
<ele>48.900002</ele>
<time>2026-08-31T21:05:04.000Z</time>
</trkpt>
<trkpt lat="59.5250629" lon="31.2306866">
<ele>45.599998</ele>
<time>2026-08-31T21:05:32.000Z</time>
</trkpt>
<trkpt lat="59.5250654" lon="31.2305742">
<ele>40.009998</ele>
<time>2026-08-31T21:06:04.000Z</time>
</trkpt>
<trkpt lat="59.5250770" lon="31.2305043">
<ele>39.410000</ele>
<time>2026-08-31T21:06:35.000Z</time>
</trkpt>
<trkpt lat="59.5250545" lon="31.2305491">
<ele>38.350002</ele>
<time>2026-08-31T21:07:05.000Z</time>
</trkpt>
<trkpt lat="59.5250003" lon="31.2304918">
<ele>38.259998</ele>
<time>2026-08-31T21:07:38.000Z</time>
</trkpt>
<trkpt lat="59.5249004" lon="31.2305997">
<ele>37.750000</ele>
<time>2026-08-31T21:08:09.000Z</time>
</trkpt>
<trkpt lat="59.5248044" lon="31.2306535">
<ele>36.639999</ele>
<time>2026-08-31T21:08:36.000Z</time>
</trkpt>
<trkpt lat="59.5247550" lon="31.2306476">
<ele>36.289997</ele>
<time>2026-08-31T21:08:53.000Z</time>
</trkpt>
<trkpt lat="59.5247168" lon="31.2306775">
<ele>36.130001</ele>
<time>2026-08-31T21:09:04.000Z</time>
</trkpt>
<trkpt lat="59.5246260" lon="31.2307027">
<ele>35.690002</ele>
<time>2026-08-31T21:09:37.000Z</time>
</trkpt>
<trkpt lat="59.5245791" lon="31.2307752">
<ele>35.580002</ele>
<time>2026-08-31T21:10:02.000Z</time>
</trkpt>
<trkpt lat="59.5244998" lon="31.2308110">
<ele>36.169998</ele>
<time>2026-08-31T21:10:25.000Z</time>
</trkpt>
<trkpt lat="59.5244108" lon="31.2309767">
<ele>36.260002</ele>
<time>2026-08-31T21:10:48.000Z</time>
</trkpt>
<trkpt lat="59.5243952" lon="31.2310433">
<ele>35.930000</ele>
<time>2026-08-31T21:10:55.000Z</time>
</trkpt>
<trkpt lat="59.5243044" lon="31.2310835">
<ele>35.669998</ele>
<time>2026-08-31T21:11:02.000Z</time>
</trkpt>
<trkpt lat="59.5242128" lon="31.2311177">
<ele>34.230000</ele>
<time>2026-08-31T21:11:19.000Z</time>
</trkpt>
<trkpt lat="59.5241041" lon="31.2311311">
<ele>33.750000</ele>
<time>2026-08-31T21:11:43.000Z</time>
</trkpt>
<trkpt lat="59.5240192" lon="31.2310757">
<ele>33.239998</ele>
<time>2026-08-31T21:12:08.000Z</time>
</trkpt>
<trkpt lat="59.5239556" lon="31.2311253">
<ele>32.860001</ele>
<time>2026-08-31T21:12:46.000Z</time>
</trkpt>
<trkpt lat="59.5239011" lon="31.2310976">
<ele>32.980000</ele>
<time>2026-08-31T21:13:09.000Z</time>
</trkpt>
<trkpt lat="59.5237495" lon="31.2311461">
<ele>34.639999</ele>
<time>2026-08-31T21:13:38.000Z</time>
</trkpt>
<trkpt lat="59.5236995" lon="31.2311363">
<ele>34.630001</ele>
<time>2026-08-31T21:14:10.000Z</time>
</trkpt>
<trkpt lat="59.5235758" lon="31.2311887">
<ele>34.570000</ele>
<time>2026-08-31T21:14:36.000Z</time>
</trkpt>
<trkpt lat="59.5235447" lon="31.2312487">
<ele>33.630001</ele>
<time>2026-08-31T21:15:01.000Z</time>
</trkpt>
<trkpt lat="59.5233609" lon="31.2312974">
<ele>33.500000</ele>
<time>2026-08-31T21:15:27.000Z</time>
</trkpt>
<trkpt lat="59.5233352" lon="31.2312976">
<ele>31.530001</ele>
<time>2026-08-31T21:16:03.000Z</time>
</trkpt>
<trkpt lat="59.5234012" lon="31.2313641">
<ele>31.639999</ele>
<time>2026-08-31T21:16:35.000Z</time>
</trkpt>
<trkpt lat="59.5233927" lon="31.2313411">
<ele>32.720001</ele>
<time>2026-08-31T21:17:05.000Z</time>
</trkpt>
<trkpt lat="59.5233012" lon="31.2313414">
<ele>32.849998</ele>
<time>2026-08-31T21:17:35.000Z</time>
</trkpt>
<trkpt lat="59.5233556" lon="31.2312894">
<ele>32.590000</ele>
<time>2026-08-31T21:18:21.000Z</time>
</trkpt>
<trkpt lat="59.5232756" lon="31.2311801">
<ele>32.650002</ele>
<time>2026-08-31T21:18:48.000Z</time>
</trkpt>
<trkpt lat="59.5231940" lon="31.2312859">
<ele>33.250000</ele>
<time>2026-08-31T21:19:17.000Z</time>
</trkpt>
<trkpt lat="59.5231816" lon="31.2314348">
<ele>33.740002</ele>
<time>2026-08-31T21:19:47.000Z</time>
</trkpt>
<trkpt lat="59.5229790" lon="31.2316980">
<ele>32.689999</ele>
<time>2026-08-31T21:20:10.000Z</time>
</trkpt>
<trkpt lat="59.5228991" lon="31.2316708">
<ele>32.650002</ele>
<time>2026-08-31T21:20:30.000Z</time>
</trkpt>
<trkpt lat="59.5227750" lon="31.2318778">
<ele>32.820000</ele>
<time>2026-08-31T21:20:53.000Z</time>
</trkpt>
<trkpt lat="59.5227169" lon="31.2320263">
<ele>31.590000</ele>
<time>2026-08-31T21:21:16.000Z</time>
</trkpt>
<trkpt lat="59.5226334" lon="31.2320370">
<ele>29.580000</ele>
<time>2026-08-31T21:21:35.000Z</time>
</trkpt>
<trkpt lat="59.5225864" lon="31.2320050">
<ele>29.360001</ele>
<time>2026-08-31T21:21:59.000Z</time>
</trkpt>
<trkpt lat="59.5225620" lon="31.2320441">
<ele>29.170000</ele>
<time>2026-08-31T21:22:22.000Z</time>
</trkpt>
<trkpt lat="59.5225320" lon="31.2320789">
<ele>29.100000</ele>
<time>2026-08-31T21:22:44.000Z</time>
</trkpt>
<trkpt lat="59.5224864" lon="31.2321178">
<ele>28.900002</ele>
<time>2026-08-31T21:23:10.000Z</time>
</trkpt>
<trkpt lat="59.5224572" lon="31.2320837">
<ele>28.450001</ele>
<time>2026-08-31T21:23:19.000Z</time>
</trkpt>
<trkpt lat="59.5223984" lon="31.2320661">
<ele>28.720001</ele>
<time>2026-08-31T21:23:41.000Z</time>
</trkpt>
<trkpt lat="59.5223801" lon="31.2319740">
<ele>29.290001</ele>
<time>2026-08-31T21:24:09.000Z</time>
</trkpt>
<trkpt lat="59.5223900" lon="31.2319502">
<ele>28.430000</ele>
<time>2026-08-31T21:24:30.000Z</time>
</trkpt>
<trkpt lat="59.5223895" lon="31.2319419">
<ele>28.140001</ele>
<time>2026-08-31T21:24:55.000Z</time>
</trkpt>
<trkpt lat="59.5224544" lon="31.2319982">
<ele>26.639999</ele>
<time>2026-08-31T21:25:32.000Z</time>
</trkpt>
<trkpt lat="59.5223973" lon="31.2319674">
<ele>25.750000</ele>
<time>2026-08-31T21:25:52.000Z</time>
</trkpt>
<trkpt lat="59.5223864" lon="31.2319719">
<ele>25.130001</ele>
<time>2026-08-31T21:25:58.000Z</time>
</trkpt>
<trkpt lat="59.5222799" lon="31.2320029">
<ele>24.530001</ele>
<time>2026-08-31T21:26:21.000Z</time>
</trkpt>
<trkpt lat="59.5221576" lon="31.2320185">
<ele>24.600000</ele>
<time>2026-08-31T21:26:44.000Z</time>
</trkpt>
<trkpt lat="59.5221340" lon="31.2320131">
<ele>23.469999</ele>
<time>2026-08-31T21:27:15.000Z</time>
</trkpt>
<trkpt lat="59.5220173" lon="31.2321421">
<ele>24.940001</ele>
<time>2026-08-31T21:27:35.000Z</time>
</trkpt>
<trkpt lat="59.5219934" lon="31.2323754">
<ele>25.100000</ele>
<time>2026-08-31T21:27:56.000Z</time>
</trkpt>
<trkpt lat="59.5219690" lon="31.2325477">
<ele>26.029999</ele>
<time>2026-08-31T21:28:18.000Z</time>
</trkpt>
<trkpt lat="59.5219344" lon="31.2325431">
<ele>27.120001</ele>
<time>2026-08-31T21:28:44.000Z</time>
</trkpt>
<trkpt lat="59.5219161" lon="31.2325971">
<ele>27.310001</ele>
<time>2026-08-31T21:29:05.000Z</time>
</trkpt>
<trkpt lat="59.5218920" lon="31.2326072">
<ele>27.340000</ele>
<time>2026-08-31T21:29:15.000Z</time>
</trkpt>
<trkpt lat="59.5218513" lon="31.2327156">
<ele>26.320000</ele>
<time>2026-08-31T21:29:38.000Z</time>
</trkpt>
<trkpt lat="59.5218501" lon="31.2327428">
<ele>27.000000</ele>
<time>2026-08-31T21:30:01.000Z</time>
</trkpt>
<trkpt lat="59.5218769" lon="31.2327531">
<ele>26.740000</ele>
<time>2026-08-31T21:30:27.000Z</time>
</trkpt>
<trkpt lat="59.5218342" lon="31.2327308">
<ele>26.940001</ele>
<time>2026-08-31T21:30:55.000Z</time>
</trkpt>
<trkpt lat="59.5218377" lon="31.2327164">
<ele>25.160000</ele>
<time>2026-08-31T21:31:25.000Z</time>
</trkpt>
<trkpt lat="59.5218267" lon="31.2326991">
<ele>26.100000</ele>
<time>2026-08-31T21:31:52.000Z</time>
</trkpt>
<trkpt lat="59.5218680" lon="31.2326578">
<ele>28.690001</ele>
<time>2026-08-31T21:32:27.000Z</time>
</trkpt>
<trkpt lat="59.5218126" lon="31.2327560">
<ele>29.639999</ele>
<time>2026-08-31T21:33:22.000Z</time>
</trkpt>
<trkpt lat="59.5217425" lon="31.2327484">
<ele>35.240002</ele>
<time>2026-08-31T21:33:50.000Z</time>
</trkpt>
<trkpt lat="59.5217511" lon="31.2327614">
<ele>35.430000</ele>
<time>2026-08-31T21:34:18.000Z</time>
</trkpt>
<trkpt lat="59.5216096" lon="31.2328332">
<ele>35.420002</ele>
<time>2026-08-31T21:34:49.000Z</time>
</trkpt>
<trkpt lat="59.5215706" lon="31.2329483">
<ele>34.810001</ele>
<time>2026-08-31T21:35:04.000Z</time>
</trkpt>
<trkpt lat="59.5215140" lon="31.2330920">
<ele>35.389999</ele>
<time>2026-08-31T21:35:27.000Z</time>
</trkpt>
<trkpt lat="59.5214684" lon="31.2331554">
<ele>35.090000</ele>
<time>2026-08-31T21:35:45.000Z</time>
</trkpt>
<trkpt lat="59.5214078" lon="31.2331561">
<ele>34.439999</ele>
<time>2026-08-31T21:36:11.000Z</time>
</trkpt>
<trkpt lat="59.5214179" lon="31.2330960">
<ele>33.919998</ele>
<time>2026-08-31T21:36:37.000Z</time>
</trkpt>
<trkpt lat="59.5213334" lon="31.2330374">
<ele>34.320000</ele>
<time>2026-08-31T21:37:01.000Z</time>
</trkpt>
<trkpt lat="59.5213151" lon="31.2330236">
<ele>33.840000</ele>
<time>2026-08-31T21:37:28.000Z</time>
</trkpt>
<trkpt lat="59.5213207" lon="31.2329671">
<ele>33.950001</ele>
<time>2026-08-31T21:37:53.000Z</time>
</trkpt>
<trkpt lat="59.5212438" lon="31.2329478">
<ele>33.720001</ele>
<time>2026-08-31T21:38:17.000Z</time>
</trkpt>
<trkpt lat="59.5212213" lon="31.2329340">
<ele>33.619999</ele>
<time>2026-08-31T21:38:49.000Z</time>
</trkpt>
<trkpt lat="59.5211917" lon="31.2328830">
<ele>32.799999</ele>
<time>2026-08-31T21:39:09.000Z</time>
</trkpt>
<trkpt lat="59.5211341" lon="31.2328262">
<ele>32.020000</ele>
<time>2026-08-31T21:39:28.000Z</time>
</trkpt>
<trkpt lat="59.5211440" lon="31.2328488">
<ele>30.869999</ele>
<time>2026-08-31T21:39:57.000Z</time>
</trkpt>
<trkpt lat="59.5211458" lon="31.2328314">
<ele>28.980001</ele>
<time>2026-08-31T21:40:24.000Z</time>
</trkpt>
<trkpt lat="59.5210942" lon="31.2328123">
<ele>29.930000</ele>
<time>2026-08-31T21:40:44.000Z</time>
</trkpt>
<trkpt lat="59.5210650" lon="31.2327748">
<ele>29.980000</ele>
<time>2026-08-31T21:41:06.000Z</time>
</trkpt>
<trkpt lat="59.5210517" lon="31.2327273">
<ele>28.800001</ele>
<time>2026-08-31T21:41:29.000Z</time>
</trkpt>
<trkpt lat="59.5210436" lon="31.2326375">
<ele>27.340000</ele>
<time>2026-08-31T21:41:54.000Z</time>
</trkpt>
<trkpt lat="59.5210163" lon="31.2326236">
<ele>28.699999</ele>
<time>2026-08-31T21:42:21.000Z</time>
</trkpt>
<trkpt lat="59.5210103" lon="31.2326302">
<ele>27.350000</ele>
<time>2026-08-31T21:42:50.000Z</time>
</trkpt>
<trkpt lat="59.5209380" lon="31.2326168">
<ele>27.430000</ele>
<time>2026-08-31T21:43:13.000Z</time>
</trkpt>
<trkpt lat="59.5209192" lon="31.2325943">
<ele>28.309999</ele>
<time>2026-08-31T21:43:33.000Z</time>
</trkpt>
<trkpt lat="59.5208734" lon="31.2324727">
<ele>28.980001</ele>
<time>2026-08-31T21:44:00.000Z</time>
</trkpt>
<trkpt lat="59.5209113" lon="31.2324904">
<ele>26.949999</ele>
<time>2026-08-31T21:44:31.000Z</time>
</trkpt>
<trkpt lat="59.5209044" lon="31.2325113">
<ele>27.779999</ele>
<time>2026-08-31T21:45:07.000Z</time>
</trkpt>
<trkpt lat="59.5208931" lon="31.2324982">
<ele>27.369999</ele>
<time>2026-08-31T21:45:37.000Z</time>
</trkpt>
<trkpt lat="59.5208976" lon="31.2326302">
<ele>30.260000</ele>
<time>2026-08-31T21:46:02.000Z</time>
</trkpt>
<trkpt lat="59.5208815" lon="31.2325326">
<ele>32.160000</ele>
<time>2026-08-31T21:46:34.000Z</time>
</trkpt>
<trkpt lat="59.5208562" lon="31.2325369">
<ele>34.020000</ele>
<time>2026-08-31T21:47:00.000Z</time>
</trkpt>
<trkpt lat="59.5208962" lon="31.2324852">
<ele>35.360001</ele>
<time>2026-08-31T21:47:37.000Z</time>
</trkpt>
<trkpt lat="59.5208784" lon="31.2324146">
<ele>34.070000</ele>
<time>2026-08-31T21:47:57.000Z</time>
</trkpt>
<trkpt lat="59.5208808" lon="31.2325218">
<ele>33.070000</ele>
<time>2026-08-31T21:48:34.000Z</time>
</trkpt>
<trkpt lat="59.5209227" lon="31.2325058">
<ele>33.440002</ele>
<time>2026-08-31T21:49:09.000Z</time>
</trkpt>
<trkpt lat="59.5209661" lon="31.2325270">
<ele>34.170002</ele>
<time>2026-08-31T21:49:38.000Z</time>
</trkpt>
<trkpt lat="59.5209893" lon="31.2325510">
<ele>35.040001</ele>
<time>2026-08-31T21:50:33.000Z</time>
</trkpt>
<trkpt lat="59.5208775" lon="31.2324945">
<ele>33.989998</ele>
<time>2026-08-31T21:51:33.000Z</time>
</trkpt>
<trkpt lat="59.5209577" lon="31.2324875">
<ele>32.239998</ele>
<time>2026-08-31T21:53:30.000Z</time>
</trkpt>
<trkpt lat="59.5208617" lon="31.2324785">
<ele>31.289999</ele>
<time>2026-08-31T21:54:09.000Z</time>
</trkpt>
<trkpt lat="59.5208632" lon="31.2324467">
<ele>34.250000</ele>
<time>2026-08-31T21:55:11.000Z</time>
</trkpt>
<trkpt lat="59.5210241" lon="31.2325458">
<ele>38.209999</ele>
<time>2026-08-31T21:55:42.000Z</time>
</trkpt>
<trkpt lat="59.5209811" lon="31.2324848">
<ele>36.370003</ele>
<time>2026-08-31T21:56:06.000Z</time>
</trkpt>
<trkpt lat="59.5209685" lon="31.2324804">
<ele>36.020000</ele>
<time>2026-08-31T21:56:35.000Z</time>
</trkpt>
<trkpt lat="59.5208532" lon="31.2324029">
<ele>32.410000</ele>
<time>2026-08-31T21:57:00.000Z</time>
</trkpt>
<trkpt lat="59.5208852" lon="31.2324673">
<ele>32.410000</ele>
<time>2026-08-31T21:57:28.000Z</time>
</trkpt>
<trkpt lat="59.5209744" lon="31.2325098">
<ele>35.110001</ele>
<time>2026-08-31T21:57:58.000Z</time>
</trkpt>
<trkpt lat="59.5209427" lon="31.2324607">
<ele>36.399998</ele>
<time>2026-08-31T21:58:29.000Z</time>
</trkpt>
<trkpt lat="59.5209800" lon="31.2324588">
<ele>38.529999</ele>
<time>2026-08-31T21:58:56.000Z</time>
</trkpt>
<trkpt lat="59.5209680" lon="31.2326352">
<ele>40.339996</ele>
<time>2026-08-31T21:59:21.000Z</time>
</trkpt>
<trkpt lat="59.5209754" lon="31.2325776">
<ele>42.330002</ele>
<time>2026-08-31T21:59:49.000Z</time>
</trkpt>
<trkpt lat="59.5208954" lon="31.2326542">
<ele>42.880001</ele>
<time>2026-08-31T22:00:14.000Z</time>
</trkpt>
<trkpt lat="59.5208483" lon="31.2327300">
<ele>42.389999</ele>
<time>2026-08-31T22:00:42.000Z</time>
</trkpt>
<trkpt lat="59.5208321" lon="31.2327375">
<ele>42.120003</ele>
<time>2026-08-31T22:00:50.000Z</time>
</trkpt>
<trkpt lat="59.5207605" lon="31.2328071">
<ele>41.290001</ele>
<time>2026-08-31T22:01:24.000Z</time>
</trkpt>
<trkpt lat="59.5207527" lon="31.2331062">
<ele>40.520000</ele>
<time>2026-08-31T22:01:41.000Z</time>
</trkpt>
<trkpt lat="59.5206940" lon="31.2331372">
<ele>40.120003</ele>
<time>2026-08-31T22:02:03.000Z</time>
</trkpt>
<trkpt lat="59.5205765" lon="31.2331399">
<ele>38.310001</ele>
<time>2026-08-31T22:02:15.000Z</time>
</trkpt>
<trkpt lat="59.5204718" lon="31.2332277">
<ele>37.380001</ele>
<time>2026-08-31T22:02:40.000Z</time>
</trkpt>
<trkpt lat="59.5204608" lon="31.2334579">
<ele>35.139999</ele>
<time>2026-08-31T22:02:59.000Z</time>
</trkpt>
<trkpt lat="59.5203948" lon="31.2335818">
<ele>34.160000</ele>
<time>2026-08-31T22:03:17.000Z</time>
</trkpt>
<trkpt lat="59.5203098" lon="31.2336347">
<ele>33.139999</ele>
<time>2026-08-31T22:03:37.000Z</time>
</trkpt>
<trkpt lat="59.5202937" lon="31.2336750">
<ele>33.730000</ele>
<time>2026-08-31T22:03:58.000Z</time>
</trkpt>
<trkpt lat="59.5202820" lon="31.2336142">
<ele>33.239998</ele>
<time>2026-08-31T22:04:30.000Z</time>
</trkpt>
<trkpt lat="59.5202455" lon="31.2335820">
<ele>32.299999</ele>
<time>2026-08-31T22:04:52.000Z</time>
</trkpt>
<trkpt lat="59.5202967" lon="31.2335932">
<ele>32.950001</ele>
<time>2026-08-31T22:05:15.000Z</time>
</trkpt>
<trkpt lat="59.5202439" lon="31.2334876">
<ele>32.710003</ele>
<time>2026-08-31T22:05:39.000Z</time>
</trkpt>
<trkpt lat="59.5202346" lon="31.2335052">
<ele>33.780003</ele>
<time>2026-08-31T22:05:56.000Z</time>
</trkpt>
<trkpt lat="59.5202321" lon="31.2334955">
<ele>35.279999</ele>
<time>2026-08-31T22:06:31.000Z</time>
</trkpt>
<trkpt lat="59.5202179" lon="31.2334983">
<ele>36.410000</ele>
<time>2026-08-31T22:07:00.000Z</time>
</trkpt>
<trkpt lat="59.5202603" lon="31.2334555">
<ele>36.189999</ele>
<time>2026-08-31T22:07:24.000Z</time>
</trkpt>
<trkpt lat="59.5202872" lon="31.2333518">
<ele>35.899998</ele>
<time>2026-08-31T22:07:43.000Z</time>
</trkpt>
<trkpt lat="59.5203149" lon="31.2331822">
<ele>35.910000</ele>
<time>2026-08-31T22:08:11.000Z</time>
</trkpt>
<trkpt lat="59.5203106" lon="31.2330379">
<ele>36.080002</ele>
<time>2026-08-31T22:08:39.000Z</time>
</trkpt>
<trkpt lat="59.5200896" lon="31.2324828">
<ele>35.209999</ele>
<time>2026-08-31T22:09:35.000Z</time>
</trkpt>
<trkpt lat="59.5200503" lon="31.2323080">
<ele>35.380001</ele>
<time>2026-08-31T22:10:05.000Z</time>
</trkpt>
<trkpt lat="59.5199786" lon="31.2320672">
<ele>34.320000</ele>
<time>2026-08-31T22:10:38.000Z</time>
</trkpt>
<trkpt lat="59.5198953" lon="31.2319449">
<ele>33.830002</ele>
<time>2026-08-31T22:11:07.000Z</time>
</trkpt>
<trkpt lat="59.5198706" lon="31.2318180">
<ele>33.770000</ele>
<time>2026-08-31T22:11:19.000Z</time>
</trkpt>
<trkpt lat="59.5197967" lon="31.2316225">
<ele>34.400002</ele>
<time>2026-08-31T22:11:39.000Z</time>
</trkpt>
<trkpt lat="59.5197978" lon="31.2315301">
<ele>34.889999</ele>
<time>2026-08-31T22:12:06.000Z</time>
</trkpt>
<trkpt lat="59.5197987" lon="31.2314654">
<ele>34.910000</ele>
<time>2026-08-31T22:12:18.000Z</time>
</trkpt>
<trkpt lat="59.5198186" lon="31.2313856">
<ele>35.090000</ele>
<time>2026-08-31T22:12:37.000Z</time>
</trkpt>
<trkpt lat="59.5198213" lon="31.2313008">
<ele>34.980000</ele>
<time>2026-08-31T22:12:58.000Z</time>
</trkpt>
<trkpt lat="59.5198308" lon="31.2312151">
<ele>35.599998</ele>
<time>2026-08-31T22:13:24.000Z</time>
</trkpt>
<trkpt lat="59.5198656" lon="31.2311784">
<ele>36.470001</ele>
<time>2026-08-31T22:13:54.000Z</time>
</trkpt>
<trkpt lat="59.5199002" lon="31.2309441">
<ele>36.180000</ele>
<time>2026-08-31T22:14:19.000Z</time>
</trkpt>
<trkpt lat="59.5199398" lon="31.2308154">
<ele>36.059998</ele>
<time>2026-08-31T22:14:47.000Z</time>
</trkpt>
<trkpt lat="59.5200101" lon="31.2303780">
<ele>36.660000</ele>
<time>2026-08-31T22:15:19.000Z</time>
</trkpt>
<trkpt lat="59.5200015" lon="31.2302213">
<ele>36.320000</ele>
<time>2026-08-31T22:15:42.000Z</time>
</trkpt>
<trkpt lat="59.5198853" lon="31.2298123">
<ele>36.619999</ele>
<time>2026-08-31T22:16:18.000Z</time>
</trkpt>
<trkpt lat="59.5197656" lon="31.2296128">
<ele>37.000000</ele>
<time>2026-08-31T22:16:37.000Z</time>
</trkpt>
<trkpt lat="59.5196622" lon="31.2295045">
<ele>37.799999</ele>
<time>2026-08-31T22:17:00.000Z</time>
</trkpt>
<trkpt lat="59.5196425" lon="31.2293124">
<ele>37.989998</ele>
<time>2026-08-31T22:17:21.000Z</time>
</trkpt>
<trkpt lat="59.5196307" lon="31.2292098">
<ele>39.060001</ele>
<time>2026-08-31T22:17:40.000Z</time>
</trkpt>
<trkpt lat="59.5196100" lon="31.2291824">
<ele>37.880001</ele>
<time>2026-08-31T22:18:08.000Z</time>
</trkpt>
<trkpt lat="59.5195610" lon="31.2291481">
<ele>39.619999</ele>
<time>2026-08-31T22:18:37.000Z</time>
</trkpt>
<trkpt lat="59.5195978" lon="31.2292396">
<ele>39.150002</ele>
<time>2026-08-31T22:19:03.000Z</time>
</trkpt>
<trkpt lat="59.5196539" lon="31.2292445">
<ele>39.830002</ele>
<time>2026-08-31T22:19:34.000Z</time>
</trkpt>
<trkpt lat="59.5197213" lon="31.2292749">
<ele>38.820000</ele>
<time>2026-08-31T22:20:06.000Z</time>
</trkpt>
<trkpt lat="59.5196938" lon="31.2292923">
<ele>39.180000</ele>
<time>2026-08-31T22:20:29.000Z</time>
</trkpt>
<trkpt lat="59.5196457" lon="31.2291467">
<ele>38.770000</ele>
<time>2026-08-31T22:20:56.000Z</time>
</trkpt>
<trkpt lat="59.5196840" lon="31.2292391">
<ele>43.699997</ele>
<time>2026-08-31T22:21:23.000Z</time>
</trkpt>
<trkpt lat="59.5196381" lon="31.2292464">
<ele>46.209999</ele>
<time>2026-08-31T22:21:48.000Z</time>
</trkpt>
<trkpt lat="59.5198332" lon="31.2292679">
<ele>44.989998</ele>
<time>2026-08-31T22:22:24.000Z</time>
</trkpt>
<trkpt lat="59.5199115" lon="31.2291481">
<ele>44.820000</ele>
<time>2026-08-31T22:22:56.000Z</time>
</trkpt>
<trkpt lat="59.5200364" lon="31.2290584">
<ele>43.400002</ele>
<time>2026-08-31T22:23:23.000Z</time>
</trkpt>
<trkpt lat="59.5202150" lon="31.2289204">
<ele>43.609997</ele>
<time>2026-08-31T22:23:48.000Z</time>
</trkpt>
<trkpt lat="59.5202898" lon="31.2288684">
<ele>43.509998</ele>
<time>2026-08-31T22:24:24.000Z</time>
</trkpt>
<trkpt lat="59.5204266" lon="31.2290447">
<ele>44.639999</ele>
<time>2026-08-31T22:24:53.000Z</time>
</trkpt>
<trkpt lat="59.5205891" lon="31.2290959">
<ele>45.150002</ele>
<time>2026-08-31T22:25:29.000Z</time>
</trkpt>
<trkpt lat="59.5208008" lon="31.2292991">
<ele>45.530003</ele>
<time>2026-08-31T22:25:50.000Z</time>
</trkpt>
<trkpt lat="59.5208795" lon="31.2293173">
<ele>45.090000</ele>
<time>2026-08-31T22:26:03.000Z</time>
</trkpt>
<trkpt lat="59.5209876" lon="31.2293729">
<ele>44.149998</ele>
<time>2026-08-31T22:26:21.000Z</time>
</trkpt>
<trkpt lat="59.5210577" lon="31.2294398">
<ele>42.500000</ele>
<time>2026-08-31T22:26:36.000Z</time>
</trkpt>
<trkpt lat="59.5213073" lon="31.2294450">
<ele>42.730000</ele>
<time>2026-08-31T22:27:00.000Z</time>
</trkpt>
<trkpt lat="59.5213209" lon="31.2294890">
<ele>42.450001</ele>
<time>2026-08-31T22:27:27.000Z</time>
</trkpt>
<trkpt lat="59.5213439" lon="31.2294812">
<ele>44.070000</ele>
<time>2026-08-31T22:27:59.000Z</time>
</trkpt>
<trkpt lat="59.5213742" lon="31.2294900">
<ele>47.160000</ele>
<time>2026-08-31T22:28:29.000Z</time>
</trkpt>
<trkpt lat="59.5213533" lon="31.2295869">
<ele>48.700001</ele>
<time>2026-08-31T22:29:02.000Z</time>
</trkpt>
<trkpt lat="59.5213753" lon="31.2295719">
<ele>46.639999</ele>
<time>2026-08-31T22:29:30.000Z</time>
</trkpt>
<trkpt lat="59.5214337" lon="31.2295558">
<ele>48.259998</ele>
<time>2026-08-31T22:29:55.000Z</time>
</trkpt>
<trkpt lat="59.5216275" lon="31.2293797">
<ele>46.370003</ele>
<time>2026-08-31T22:30:26.000Z</time>
</trkpt>
<trkpt lat="59.5215909" lon="31.2292840">
<ele>47.540001</ele>
<time>2026-08-31T22:30:47.000Z</time>
</trkpt>
<trkpt lat="59.5216190" lon="31.2293076">
<ele>47.779999</ele>
<time>2026-08-31T22:31:17.000Z</time>
</trkpt>
<trkpt lat="59.5215702" lon="31.2293925">
<ele>48.459999</ele>
<time>2026-08-31T22:31:55.000Z</time>
</trkpt>
<trkpt lat="59.5216130" lon="31.2293784">
<ele>48.719997</ele>
<time>2026-08-31T22:32:29.000Z</time>
</trkpt>
<trkpt lat="59.5216601" lon="31.2295493">
<ele>49.109997</ele>
<time>2026-08-31T22:33:03.000Z</time>
</trkpt>
<trkpt lat="59.5219582" lon="31.2297237">
<ele>46.500000</ele>
<time>2026-08-31T22:33:35.000Z</time>
</trkpt>
<trkpt lat="59.5221137" lon="31.2298389">
<ele>43.480003</ele>
<time>2026-08-31T22:33:54.000Z</time>
</trkpt>
<trkpt lat="59.5221152" lon="31.2298501">
<ele>41.989998</ele>
<time>2026-08-31T22:34:14.000Z</time>
</trkpt>
<trkpt lat="59.5221978" lon="31.2299983">
<ele>39.900002</ele>
<time>2026-08-31T22:34:34.000Z</time>
</trkpt>
<trkpt lat="59.5222806" lon="31.2301896">
<ele>38.529999</ele>
<time>2026-08-31T22:34:52.000Z</time>
</trkpt>
<trkpt lat="59.5223598" lon="31.2302427">
<ele>36.560001</ele>
<time>2026-08-31T22:35:11.000Z</time>
</trkpt>
<trkpt lat="59.5224673" lon="31.2302945">
<ele>37.740002</ele>
<time>2026-08-31T22:35:37.000Z</time>
</trkpt>
<trkpt lat="59.5225043" lon="31.2301837">
<ele>39.080002</ele>
<time>2026-08-31T22:35:55.000Z</time>
</trkpt>
<trkpt lat="59.5225310" lon="31.2301044">
<ele>40.960003</ele>
<time>2026-08-31T22:36:18.000Z</time>
</trkpt>
<trkpt lat="59.5225692" lon="31.2300397">
<ele>41.230000</ele>
<time>2026-08-31T22:36:52.000Z</time>
</trkpt>
<trkpt lat="59.5226418" lon="31.2299316">
<ele>41.139999</ele>
<time>2026-08-31T22:37:07.000Z</time>
</trkpt>
<trkpt lat="59.5226525" lon="31.2299060">
<ele>41.239998</ele>
<time>2026-08-31T22:37:10.000Z</time>
</trkpt>
<trkpt lat="59.5228361" lon="31.2298558">
<ele>41.019997</ele>
<time>2026-08-31T22:37:43.000Z</time>
</trkpt>
<trkpt lat="59.5228930" lon="31.2298231">
<ele>40.310001</ele>
<time>2026-08-31T22:38:03.000Z</time>
</trkpt>
<trkpt lat="59.5228967" lon="31.2298142">
<ele>40.120003</ele>
<time>2026-08-31T22:38:06.000Z</time>
</trkpt>
<trkpt lat="59.5230208" lon="31.2297584">
<ele>39.340000</ele>
<time>2026-08-31T22:38:32.000Z</time>
</trkpt>
<trkpt lat="59.5231155" lon="31.2296555">
<ele>39.830002</ele>
<time>2026-08-31T22:39:00.000Z</time>
</trkpt>
<trkpt lat="59.5231924" lon="31.2297133">
<ele>36.090000</ele>
<time>2026-08-31T22:39:28.000Z</time>
</trkpt>
<trkpt lat="59.5232748" lon="31.2297437">
<ele>39.320000</ele>
<time>2026-08-31T22:39:44.000Z</time>
</trkpt>
<trkpt lat="59.5233680" lon="31.2296143">
<ele>40.269997</ele>
<time>2026-08-31T22:40:08.000Z</time>
</trkpt>
<trkpt lat="59.5234690" lon="31.2294073">
<ele>37.259998</ele>
<time>2026-08-31T22:40:30.000Z</time>
</trkpt>
<trkpt lat="59.5234757" lon="31.2293663">
<ele>36.410000</ele>
<time>2026-08-31T22:40:34.000Z</time>
</trkpt>
<trkpt lat="59.5234984" lon="31.2291573">
<ele>37.079998</ele>
<time>2026-08-31T22:40:53.000Z</time>
</trkpt>
<trkpt lat="59.5236841" lon="31.2290004">
<ele>40.740002</ele>
<time>2026-08-31T22:41:29.000Z</time>
</trkpt>
<trkpt lat="59.5236846" lon="31.2289140">
<ele>43.980000</ele>
<time>2026-08-31T22:42:06.000Z</time>
</trkpt>
<trkpt lat="59.5235543" lon="31.2289407">
<ele>46.150002</ele>
<time>2026-08-31T22:42:34.000Z</time>
</trkpt>
<trkpt lat="59.5236318" lon="31.2288853">
<ele>48.660004</ele>
<time>2026-08-31T22:43:05.000Z</time>
</trkpt>
<trkpt lat="59.5237014" lon="31.2289045">
<ele>49.820000</ele>
<time>2026-08-31T22:43:35.000Z</time>
</trkpt>
<trkpt lat="59.5237355" lon="31.2288741">
<ele>49.660000</ele>
<time>2026-08-31T22:43:56.000Z</time>
</trkpt>
<trkpt lat="59.5238125" lon="31.2289237">
<ele>49.250000</ele>
<time>2026-08-31T22:44:15.000Z</time>
</trkpt>
<trkpt lat="59.5238166" lon="31.2288879">
<ele>48.399998</ele>
<time>2026-08-31T22:44:44.000Z</time>
</trkpt>
<trkpt lat="59.5238578" lon="31.2289556">
<ele>49.150002</ele>
<time>2026-08-31T22:45:11.000Z</time>
</trkpt>
<trkpt lat="59.5238949" lon="31.2288988">
<ele>49.070000</ele>
<time>2026-08-31T22:45:36.000Z</time>
</trkpt>
<trkpt lat="59.5239465" lon="31.2288862">
<ele>47.119999</ele>
<time>2026-08-31T22:46:03.000Z</time>
</trkpt>
<trkpt lat="59.5239436" lon="31.2288851">
<ele>47.130001</ele>
<time>2026-08-31T22:46:05.000Z</time>
</trkpt>
<trkpt lat="59.5239762" lon="31.2287724">
<ele>46.189999</ele>
<time>2026-08-31T22:46:26.000Z</time>
</trkpt>
<trkpt lat="59.5239934" lon="31.2287576">
<ele>45.860001</ele>
<time>2026-08-31T22:46:31.000Z</time>
</trkpt>
<trkpt lat="59.5241195" lon="31.2286115">
<ele>44.289997</ele>
<time>2026-08-31T22:46:59.000Z</time>
</trkpt>
<trkpt lat="59.5241221" lon="31.2284471">
<ele>43.379997</ele>
<time>2026-08-31T22:47:19.000Z</time>
</trkpt>
<trkpt lat="59.5241508" lon="31.2282648">
<ele>43.079998</ele>
<time>2026-08-31T22:47:42.000Z</time>
</trkpt>
<trkpt lat="59.5240079" lon="31.2281241">
<ele>45.129997</ele>
<time>2026-08-31T22:48:07.000Z</time>
</trkpt>
<trkpt lat="59.5241196" lon="31.2278262">
<ele>44.880001</ele>
<time>2026-08-31T22:48:47.000Z</time>
</trkpt>
<trkpt lat="59.5241699" lon="31.2276917">
<ele>45.449997</ele>
<time>2026-08-31T22:49:10.000Z</time>
</trkpt>
<trkpt lat="59.5241616" lon="31.2276439">
<ele>46.820000</ele>
<time>2026-08-31T22:49:38.000Z</time>
</trkpt>
<trkpt lat="59.5241708" lon="31.2276407">
<ele>47.520000</ele>
<time>2026-08-31T22:50:01.000Z</time>
</trkpt>
<trkpt lat="59.5242316" lon="31.2276701">
<ele>47.709999</ele>
<time>2026-08-31T22:50:22.000Z</time>
</trkpt>
<trkpt lat="59.5241956" lon="31.2275467">
<ele>47.509998</ele>
<time>2026-08-31T22:50:42.000Z</time>
</trkpt>
<trkpt lat="59.5242595" lon="31.2274321">
<ele>48.619999</ele>
<time>2026-08-31T22:51:04.000Z</time>
</trkpt>
<trkpt lat="59.5242840" lon="31.2274482">
<ele>47.980003</ele>
<time>2026-08-31T22:51:18.000Z</time>
</trkpt>
<trkpt lat="59.5243486" lon="31.2273615">
<ele>48.700001</ele>
<time>2026-08-31T22:51:43.000Z</time>
</trkpt>
<trkpt lat="59.5243254" lon="31.2272306">
<ele>48.459999</ele>
<time>2026-08-31T22:52:00.000Z</time>
</trkpt>
<trkpt lat="59.5243563" lon="31.2267794">
<ele>48.590000</ele>
<time>2026-08-31T22:52:31.000Z</time>
</trkpt>
<trkpt lat="59.5243162" lon="31.2264881">
<ele>50.040001</ele>
<time>2026-08-31T22:52:51.000Z</time>
</trkpt>
<trkpt lat="59.5243346" lon="31.2263677">
<ele>49.520000</ele>
<time>2026-08-31T22:53:12.000Z</time>
</trkpt>
<trkpt lat="59.5243134" lon="31.2262519">
<ele>50.369999</ele>
<time>2026-08-31T22:53:34.000Z</time>
</trkpt>
<trkpt lat="59.5243185" lon="31.2262212">
<ele>48.649998</ele>
<time>2026-08-31T22:53:56.000Z</time>
</trkpt>
<trkpt lat="59.5243041" lon="31.2260948">
<ele>48.430000</ele>
<time>2026-08-31T22:54:16.000Z</time>
</trkpt>
<trkpt lat="59.5243505" lon="31.2259893">
<ele>48.629997</ele>
<time>2026-08-31T22:54:38.000Z</time>
</trkpt>
<trkpt lat="59.5244502" lon="31.2259775">
<ele>48.009998</ele>
<time>2026-08-31T22:55:12.000Z</time>
</trkpt>
<trkpt lat="59.5244045" lon="31.2258216">
<ele>48.220001</ele>
<time>2026-08-31T22:55:40.000Z</time>
</trkpt>
<trkpt lat="59.5244284" lon="31.2257564">
<ele>48.329998</ele>
<time>2026-08-31T22:56:05.000Z</time>
</trkpt>
<trkpt lat="59.5244465" lon="31.2257534">
<ele>48.339996</ele>
<time>2026-08-31T22:56:10.000Z</time>
</trkpt>
<trkpt lat="59.5244950" lon="31.2257170">
<ele>49.380001</ele>
<time>2026-08-31T22:56:35.000Z</time>
</trkpt>
<trkpt lat="59.5244492" lon="31.2255854">
<ele>49.310001</ele>
<time>2026-08-31T22:57:04.000Z</time>
</trkpt>
<trkpt lat="59.5245016" lon="31.2253868">
<ele>48.109997</ele>
<time>2026-08-31T22:57:27.000Z</time>
</trkpt>
<trkpt lat="59.5245180" lon="31.2251189">
<ele>48.639999</ele>
<time>2026-08-31T22:57:51.000Z</time>
</trkpt>
<trkpt lat="59.5245616" lon="31.2249636">
<ele>47.659996</ele>
<time>2026-08-31T22:58:14.000Z</time>
</trkpt>
<trkpt lat="59.5246044" lon="31.2248750">
<ele>46.700001</ele>
<time>2026-08-31T22:58:32.000Z</time>
</trkpt>
<trkpt lat="59.5246845" lon="31.2244493">
<ele>46.359997</ele>
<time>2026-08-31T22:58:56.000Z</time>
</trkpt>
<trkpt lat="59.5246673" lon="31.2241742">
<ele>46.289997</ele>
<time>2026-08-31T22:59:20.000Z</time>
</trkpt>
<trkpt lat="59.5246959" lon="31.2240655">
<ele>45.980000</ele>
<time>2026-08-31T22:59:30.000Z</time>
</trkpt>
<trkpt lat="59.5246854" lon="31.2239114">
<ele>45.950001</ele>
<time>2026-08-31T22:59:57.000Z</time>
</trkpt>
<trkpt lat="59.5246582" lon="31.2238320">
<ele>46.180000</ele>
<time>2026-08-31T23:00:31.000Z</time>
</trkpt>
<trkpt lat="59.5246216" lon="31.2237553">
<ele>43.100002</ele>
<time>2026-08-31T23:01:17.000Z</time>
</trkpt>
<trkpt lat="59.5246277" lon="31.2238129">
<ele>43.970001</ele>
<time>2026-08-31T23:01:52.000Z</time>
</trkpt>
<trkpt lat="59.5246119" lon="31.2237914">
<ele>45.160000</ele>
<time>2026-08-31T23:02:21.000Z</time>
</trkpt>
<trkpt lat="59.5246435" lon="31.2237577">
<ele>50.500000</ele>
<time>2026-08-31T23:02:53.000Z</time>
</trkpt>
<trkpt lat="59.5246859" lon="31.2237412">
<ele>50.500000</ele>
<time>2026-08-31T23:03:04.000Z</time>
</trkpt>
<trkpt lat="59.5247950" lon="31.2236535">
<ele>50.970001</ele>
<time>2026-08-31T23:03:27.000Z</time>
</trkpt>
<trkpt lat="59.5248553" lon="31.2235329">
<ele>50.859997</ele>
<time>2026-08-31T23:03:42.000Z</time>
</trkpt>
<trkpt lat="59.5249191" lon="31.2230960">
<ele>48.549999</ele>
<time>2026-08-31T23:04:07.000Z</time>
</trkpt>
<trkpt lat="59.5249444" lon="31.2227897">
<ele>44.980000</ele>
<time>2026-08-31T23:04:27.000Z</time>
</trkpt>
<trkpt lat="59.5250830" lon="31.2225529">
<ele>45.170002</ele>
<time>2026-08-31T23:04:56.000Z</time>
</trkpt>
<trkpt lat="59.5251754" lon="31.2223130">
<ele>44.320004</ele>
<time>2026-08-31T23:05:16.000Z</time>
</trkpt>
<trkpt lat="59.5252811" lon="31.2219648">
<ele>43.970001</ele>
<time>2026-08-31T23:05:37.000Z</time>
</trkpt>
<trkpt lat="59.5253885" lon="31.2215907">
<ele>39.070000</ele>
<time>2026-08-31T23:05:59.000Z</time>
</trkpt>
<trkpt lat="59.5254842" lon="31.2214034">
<ele>36.160000</ele>
<time>2026-08-31T23:06:18.000Z</time>
</trkpt>
<trkpt lat="59.5255136" lon="31.2213827">
<ele>35.470001</ele>
<time>2026-08-31T23:06:22.000Z</time>
</trkpt>
<trkpt lat="59.5255849" lon="31.2211097">
<ele>33.939999</ele>
<time>2026-08-31T23:06:40.000Z</time>
</trkpt>
<trkpt lat="59.5256915" lon="31.2209234">
<ele>32.869999</ele>
<time>2026-08-31T23:07:00.000Z</time>
</trkpt>
<trkpt lat="59.5257493" lon="31.2206439">
<ele>37.639999</ele>
<time>2026-08-31T23:07:16.000Z</time>
</trkpt>
<trkpt lat="59.5257375" lon="31.2204829">
<ele>41.200001</ele>
<time>2026-08-31T23:07:41.000Z</time>
</trkpt>
<trkpt lat="59.5257208" lon="31.2203104">
<ele>45.880001</ele>
<time>2026-08-31T23:08:07.000Z</time>
</trkpt>
<trkpt lat="59.5256756" lon="31.2203311">
<ele>47.770000</ele>
<time>2026-08-31T23:08:26.000Z</time>
</trkpt>
<trkpt lat="59.5256654" lon="31.2203180">
<ele>48.130001</ele>
<time>2026-08-31T23:08:45.000Z</time>
</trkpt>
<trkpt lat="59.5256728" lon="31.2203448">
<ele>49.590000</ele>
<time>2026-08-31T23:09:18.000Z</time>
</trkpt>
<trkpt lat="59.5257012" lon="31.2202574">
<ele>50.149998</ele>
<time>2026-08-31T23:09:49.000Z</time>
</trkpt>
<trkpt lat="59.5256429" lon="31.2201310">
<ele>53.500000</ele>
<time>2026-08-31T23:10:19.000Z</time>
</trkpt>
<trkpt lat="59.5254741" lon="31.2194874">
<ele>50.299999</ele>
<time>2026-08-31T23:11:07.000Z</time>
</trkpt>
<trkpt lat="59.5254470" lon="31.2192827">
<ele>48.730003</ele>
<time>2026-08-31T23:11:23.000Z</time>
</trkpt>
<trkpt lat="59.5253992" lon="31.2191140">
<ele>48.619999</ele>
<time>2026-08-31T23:11:43.000Z</time>
</trkpt>
<trkpt lat="59.5253893" lon="31.2183257">
<ele>45.570000</ele>
<time>2026-08-31T23:12:26.000Z</time>
</trkpt>
<trkpt lat="59.5253871" lon="31.2180669">
<ele>45.679996</ele>
<time>2026-08-31T23:12:44.000Z</time>
</trkpt>
<trkpt lat="59.5254124" lon="31.2179581">
<ele>45.419998</ele>
<time>2026-08-31T23:13:08.000Z</time>
</trkpt>
<trkpt lat="59.5254013" lon="31.2179747">
<ele>45.200001</ele>
<time>2026-08-31T23:13:39.000Z</time>
</trkpt>
<trkpt lat="59.5253592" lon="31.2179862">
<ele>46.209999</ele>
<time>2026-08-31T23:14:07.000Z</time>
</trkpt>
<trkpt lat="59.5253426" lon="31.2179778">
<ele>47.690002</ele>
<time>2026-08-31T23:14:38.000Z</time>
</trkpt>
<trkpt lat="59.5253056" lon="31.2177981">
<ele>46.480000</ele>
<time>2026-08-31T23:14:55.000Z</time>
</trkpt>
<trkpt lat="59.5253170" lon="31.2175101">
<ele>46.090000</ele>
<time>2026-08-31T23:15:20.000Z</time>
</trkpt>
<trkpt lat="59.5253072" lon="31.2174385">
<ele>46.000000</ele>
<time>2026-08-31T23:15:30.000Z</time>
</trkpt>
<trkpt lat="59.5253185" lon="31.2170155">
<ele>46.099998</ele>
<time>2026-08-31T23:15:52.000Z</time>
</trkpt>
<trkpt lat="59.5253600" lon="31.2168285">
<ele>46.000000</ele>
<time>2026-08-31T23:16:24.000Z</time>
</trkpt>
<trkpt lat="59.5252483" lon="31.2167864">
<ele>46.010002</ele>
<time>2026-08-31T23:17:19.000Z</time>
</trkpt>
<trkpt lat="59.5250659" lon="31.2157623">
<ele>44.720001</ele>
<time>2026-08-31T23:18:11.000Z</time>
</trkpt>
<trkpt lat="59.5250252" lon="31.2155665">
<ele>46.549999</ele>
<time>2026-08-31T23:18:35.000Z</time>
</trkpt>
<trkpt lat="59.5249552" lon="31.2154495">
<ele>46.530003</ele>
<time>2026-08-31T23:19:06.000Z</time>
</trkpt>
<trkpt lat="59.5249947" lon="31.2154226">
<ele>50.320000</ele>
<time>2026-08-31T23:19:35.000Z</time>
</trkpt>
<trkpt lat="59.5250254" lon="31.2154540">
<ele>52.200001</ele>
<time>2026-08-31T23:19:56.000Z</time>
</trkpt>
<trkpt lat="59.5250008" lon="31.2154728">
<ele>49.789997</ele>
<time>2026-08-31T23:20:23.000Z</time>
</trkpt>
<trkpt lat="59.5249751" lon="31.2153408">
<ele>48.200001</ele>
<time>2026-08-31T23:20:42.000Z</time>
</trkpt>
<trkpt lat="59.5249524" lon="31.2151887">
<ele>46.389999</ele>
<time>2026-08-31T23:21:05.000Z</time>
</trkpt>
<trkpt lat="59.5248801" lon="31.2145567">
<ele>45.259998</ele>
<time>2026-08-31T23:21:46.000Z</time>
</trkpt>
<trkpt lat="59.5249082" lon="31.2143413">
<ele>45.250000</ele>
<time>2026-08-31T23:22:13.000Z</time>
</trkpt>
<trkpt lat="59.5249786" lon="31.2143046">
<ele>47.400002</ele>
<time>2026-08-31T23:22:38.000Z</time>
</trkpt>
<trkpt lat="59.5249476" lon="31.2141325">
<ele>46.980003</ele>
<time>2026-08-31T23:22:51.000Z</time>
</trkpt>
<trkpt lat="59.5248670" lon="31.2139062">
<ele>45.969997</ele>
<time>2026-08-31T23:23:11.000Z</time>
</trkpt>
<trkpt lat="59.5248319" lon="31.2136835">
<ele>46.330002</ele>
<time>2026-08-31T23:23:41.000Z</time>
</trkpt>
<trkpt lat="59.5247522" lon="31.2131639">
<ele>46.439999</ele>
<time>2026-08-31T23:24:12.000Z</time>
</trkpt>
<trkpt lat="59.5247422" lon="31.2131009">
<ele>48.360001</ele>
<time>2026-08-31T23:24:40.000Z</time>
</trkpt>
<trkpt lat="59.5247325" lon="31.2130640">
<ele>48.160000</ele>
<time>2026-08-31T23:24:48.000Z</time>
</trkpt>
<trkpt lat="59.5246365" lon="31.2129324">
<ele>47.930000</ele>
<time>2026-08-31T23:24:54.000Z</time>
</trkpt>
<trkpt lat="59.5244588" lon="31.2127515">
<ele>48.080002</ele>
<time>2026-08-31T23:25:19.000Z</time>
</trkpt>
<trkpt lat="59.5244043" lon="31.2127859">
<ele>48.130001</ele>
<time>2026-08-31T23:25:46.000Z</time>
</trkpt>
<trkpt lat="59.5242495" lon="31.2128820">
<ele>49.329998</ele>
<time>2026-08-31T23:26:10.000Z</time>
</trkpt>
<trkpt lat="59.5240550" lon="31.2128999">
<ele>48.370003</ele>
<time>2026-08-31T23:26:28.000Z</time>
</trkpt>
<trkpt lat="59.5239713" lon="31.2128713">
<ele>46.199997</ele>
<time>2026-08-31T23:26:48.000Z</time>
</trkpt>
<trkpt lat="59.5238731" lon="31.2127767">
<ele>48.009998</ele>
<time>2026-08-31T23:27:04.000Z</time>
</trkpt>
<trkpt lat="59.5238032" lon="31.2127022">
<ele>47.590004</ele>
<time>2026-08-31T23:27:16.000Z</time>
</trkpt>
<trkpt lat="59.5237736" lon="31.2125134">
<ele>47.320000</ele>
<time>2026-08-31T23:27:42.000Z</time>
</trkpt>
<trkpt lat="59.5237118" lon="31.2124910">
<ele>47.110001</ele>
<time>2026-08-31T23:28:11.000Z</time>
</trkpt>
<trkpt lat="59.5237188" lon="31.2124924">
<ele>46.639999</ele>
<time>2026-08-31T23:28:35.000Z</time>
</trkpt>
<trkpt lat="59.5238183" lon="31.2126066">
<ele>42.500000</ele>
<time>2026-08-31T23:29:05.000Z</time>
</trkpt>
<trkpt lat="59.5238597" lon="31.2126719">
<ele>40.910000</ele>
<time>2026-08-31T23:29:37.000Z</time>
</trkpt>
<trkpt lat="59.5238308" lon="31.2125828">
<ele>39.920002</ele>
<time>2026-08-31T23:30:03.000Z</time>
</trkpt>
<trkpt lat="59.5238624" lon="31.2126039">
<ele>38.439999</ele>
<time>2026-08-31T23:30:31.000Z</time>
</trkpt>
<trkpt lat="59.5238508" lon="31.2126163">
<ele>37.830002</ele>
<time>2026-08-31T23:30:59.000Z</time>
</trkpt>
<trkpt lat="59.5238106" lon="31.2126296">
<ele>37.830002</ele>
<time>2026-08-31T23:31:31.000Z</time>
</trkpt>
<trkpt lat="59.5238752" lon="31.2125704">
<ele>36.919998</ele>
<time>2026-08-31T23:32:01.000Z</time>
</trkpt>
<trkpt lat="59.5237846" lon="31.2125434">
<ele>38.259998</ele>
<time>2026-08-31T23:32:39.000Z</time>
</trkpt>
<trkpt lat="59.5237275" lon="31.2124973">
<ele>43.340000</ele>
<time>2026-08-31T23:33:05.000Z</time>
</trkpt>
<trkpt lat="59.5236506" lon="31.2125164">
<ele>42.989998</ele>
<time>2026-08-31T23:33:28.000Z</time>
</trkpt>
<trkpt lat="59.5235840" lon="31.2127484">
<ele>47.279999</ele>
<time>2026-08-31T23:34:01.000Z</time>
</trkpt>
<trkpt lat="59.5235882" lon="31.2126892">
<ele>49.559998</ele>
<time>2026-08-31T23:34:30.000Z</time>
</trkpt>
<trkpt lat="59.5236533" lon="31.2126206">
<ele>50.169998</ele>
<time>2026-08-31T23:34:58.000Z</time>
</trkpt>
<trkpt lat="59.5236778" lon="31.2125669">
<ele>51.230000</ele>
<time>2026-08-31T23:35:30.000Z</time>
</trkpt>
<trkpt lat="59.5236837" lon="31.2128423">
<ele>51.160000</ele>
<time>2026-08-31T23:36:03.000Z</time>
</trkpt>
<trkpt lat="59.5235755" lon="31.2131389">
<ele>51.340000</ele>
<time>2026-08-31T23:36:28.000Z</time>
</trkpt>
<trkpt lat="59.5235007" lon="31.2141498">
<ele>49.859997</ele>
<time>2026-08-31T23:37:14.000Z</time>
</trkpt>
<trkpt lat="59.5235032" lon="31.2146019">
<ele>46.549999</ele>
<time>2026-08-31T23:37:34.000Z</time>
</trkpt>
<trkpt lat="59.5235197" lon="31.2149450">
<ele>41.580002</ele>
<time>2026-08-31T23:37:52.000Z</time>
</trkpt>
<trkpt lat="59.5234716" lon="31.2152981">
<ele>37.880001</ele>
<time>2026-08-31T23:38:14.000Z</time>
</trkpt>
<trkpt lat="59.5234880" lon="31.2154188">
<ele>37.110001</ele>
<time>2026-08-31T23:38:29.000Z</time>
</trkpt>
<trkpt lat="59.5233344" lon="31.2156768">
<ele>38.200001</ele>
<time>2026-08-31T23:39:11.000Z</time>
</trkpt>
<trkpt lat="59.5231572" lon="31.2158235">
<ele>38.649998</ele>
<time>2026-08-31T23:39:42.000Z</time>
</trkpt>
<trkpt lat="59.5233010" lon="31.2160865">
<ele>38.879997</ele>
<time>2026-08-31T23:40:25.000Z</time>
</trkpt>
<trkpt lat="59.5232518" lon="31.2164534">
<ele>38.790001</ele>
<time>2026-08-31T23:40:51.000Z</time>
</trkpt>
<trkpt lat="59.5231618" lon="31.2167473">
<ele>39.169998</ele>
<time>2026-08-31T23:41:11.000Z</time>
</trkpt>
<trkpt lat="59.5230953" lon="31.2175987">
<ele>38.149998</ele>
<time>2026-08-31T23:41:58.000Z</time>
</trkpt>
<trkpt lat="59.5229448" lon="31.2178172">
<ele>38.950001</ele>
<time>2026-08-31T23:42:26.000Z</time>
</trkpt>
<trkpt lat="59.5228200" lon="31.2180683">
<ele>40.430000</ele>
<time>2026-08-31T23:42:53.000Z</time>
</trkpt>
<trkpt lat="59.5226537" lon="31.2180685">
<ele>42.709999</ele>
<time>2026-08-31T23:43:13.000Z</time>
</trkpt>
<trkpt lat="59.5225509" lon="31.2180245">
<ele>40.990002</ele>
<time>2026-08-31T23:43:34.000Z</time>
</trkpt>
<trkpt lat="59.5225006" lon="31.2181311">
<ele>38.750000</ele>
<time>2026-08-31T23:44:05.000Z</time>
</trkpt>
<trkpt lat="59.5224885" lon="31.2181751">
<ele>38.240002</ele>
<time>2026-08-31T23:44:15.000Z</time>
</trkpt>
<trkpt lat="59.5225316" lon="31.2182974">
<ele>38.209999</ele>
<time>2026-08-31T23:44:36.000Z</time>
</trkpt>
<trkpt lat="59.5225260" lon="31.2183584">
<ele>38.170002</ele>
<time>2026-08-31T23:44:42.000Z</time>
</trkpt>
<trkpt lat="59.5224727" lon="31.2186818">
<ele>37.959999</ele>
<time>2026-08-31T23:45:03.000Z</time>
</trkpt>
<trkpt lat="59.5224732" lon="31.2189572">
<ele>38.799999</ele>
<time>2026-08-31T23:45:25.000Z</time>
</trkpt>
<trkpt lat="59.5223621" lon="31.2192865">
<ele>38.630001</ele>
<time>2026-08-31T23:45:46.000Z</time>
</trkpt>
<trkpt lat="59.5223635" lon="31.2194560">
<ele>38.960003</ele>
<time>2026-08-31T23:46:04.000Z</time>
</trkpt>
<trkpt lat="59.5223394" lon="31.2196617">
<ele>38.939999</ele>
<time>2026-08-31T23:46:24.000Z</time>
</trkpt>
<trkpt lat="59.5223066" lon="31.2200580">
<ele>38.570000</ele>
<time>2026-08-31T23:46:45.000Z</time>
</trkpt>
<trkpt lat="59.5222585" lon="31.2204238">
<ele>38.020000</ele>
<time>2026-08-31T23:47:16.000Z</time>
</trkpt>
<trkpt lat="59.5222039" lon="31.2206022">
<ele>40.050003</ele>
<time>2026-08-31T23:47:37.000Z</time>
</trkpt>
<trkpt lat="59.5221642" lon="31.2205651">
<ele>40.169998</ele>
<time>2026-08-31T23:48:02.000Z</time>
</trkpt>
<trkpt lat="59.5221878" lon="31.2205499">
<ele>40.310001</ele>
<time>2026-08-31T23:48:32.000Z</time>
</trkpt>
<trkpt lat="59.5221790" lon="31.2205439">
<ele>40.160000</ele>
<time>2026-08-31T23:49:12.000Z</time>
</trkpt>
<trkpt lat="59.5222732" lon="31.2205912">
<ele>40.719997</ele>
<time>2026-08-31T23:50:01.000Z</time>
</trkpt>
<trkpt lat="59.5222356" lon="31.2205808">
<ele>41.169998</ele>
<time>2026-08-31T23:50:30.000Z</time>
</trkpt>
<trkpt lat="59.5221957" lon="31.2205933">
<ele>42.670002</ele>
<time>2026-08-31T23:51:00.000Z</time>
</trkpt>
<trkpt lat="59.5221808" lon="31.2209668">
<ele>42.120003</ele>
<time>2026-08-31T23:51:25.000Z</time>
</trkpt>
<trkpt lat="59.5221948" lon="31.2210760">
<ele>41.869999</ele>
<time>2026-08-31T23:51:54.000Z</time>
</trkpt>
<trkpt lat="59.5222108" lon="31.2213211">
<ele>41.700001</ele>
<time>2026-08-31T23:52:07.000Z</time>
</trkpt>
<trkpt lat="59.5219559" lon="31.2216814">
<ele>40.830002</ele>
<time>2026-08-31T23:52:49.000Z</time>
</trkpt>
<trkpt lat="59.5218541" lon="31.2222933">
<ele>40.689999</ele>
<time>2026-08-31T23:53:28.000Z</time>
</trkpt>
<trkpt lat="59.5218214" lon="31.2225861">
<ele>40.540001</ele>
<time>2026-08-31T23:54:05.000Z</time>
</trkpt>
<trkpt lat="59.5219005" lon="31.2228398">
<ele>39.869999</ele>
<time>2026-08-31T23:54:49.000Z</time>
</trkpt>
<trkpt lat="59.5219815" lon="31.2231051">
<ele>38.369999</ele>
<time>2026-08-31T23:55:05.000Z</time>
</trkpt>
<trkpt lat="59.5219767" lon="31.2232334">
<ele>38.090000</ele>
<time>2026-08-31T23:55:32.000Z</time>
</trkpt>
<trkpt lat="59.5219896" lon="31.2232958">
<ele>40.670002</ele>
<time>2026-08-31T23:55:56.000Z</time>
</trkpt>
<trkpt lat="59.5218997" lon="31.2233458">
<ele>42.290001</ele>
<time>2026-08-31T23:56:27.000Z</time>
</trkpt>
<trkpt lat="59.5219115" lon="31.2232387">
<ele>44.200001</ele>
<time>2026-08-31T23:56:59.000Z</time>
</trkpt>
<trkpt lat="59.5219627" lon="31.2233247">
<ele>42.849998</ele>
<time>2026-08-31T23:57:24.000Z</time>
</trkpt>
<trkpt lat="59.5219099" lon="31.2232655">
<ele>45.250000</ele>
<time>2026-08-31T23:57:50.000Z</time>
</trkpt>
<trkpt lat="59.5218205" lon="31.2232834">
<ele>44.799999</ele>
<time>2026-08-31T23:58:40.000Z</time>
</trkpt>
<trkpt lat="59.5215707" lon="31.2237354">
<ele>44.869999</ele>
<time>2026-08-31T23:59:25.000Z</time>
</trkpt>
<trkpt lat="59.5214617" lon="31.2238880">
<ele>44.620003</ele>
<time>2026-08-31T23:59:41.000Z</time>
</trkpt>
<trkpt lat="59.5213597" lon="31.2238928">
<ele>44.810001</ele>
<time>2026-09-01T00:00:08.000Z</time>
</trkpt>
<trkpt lat="59.5210872" lon="31.2239227">
<ele>45.560001</ele>
<time>2026-09-01T00:00:35.000Z</time>
</trkpt>
<trkpt lat="59.5209375" lon="31.2240319">
<ele>44.700001</ele>
<time>2026-09-01T00:01:06.000Z</time>
</trkpt>
<trkpt lat="59.5208194" lon="31.2241982">
<ele>42.180000</ele>
<time>2026-09-01T00:01:39.000Z</time>
</trkpt>
<trkpt lat="59.5206512" lon="31.2243002">
<ele>42.139999</ele>
<time>2026-09-01T00:02:07.000Z</time>
</trkpt>
<trkpt lat="59.5205753" lon="31.2244990">
<ele>42.030003</ele>
<time>2026-09-01T00:02:31.000Z</time>
</trkpt>
<trkpt lat="59.5205449" lon="31.2244174">
<ele>41.820000</ele>
<time>2026-09-01T00:02:56.000Z</time>
</trkpt>
<trkpt lat="59.5205862" lon="31.2245253">
<ele>42.520000</ele>
<time>2026-09-01T00:03:15.000Z</time>
</trkpt>
<trkpt lat="59.5205233" lon="31.2246086">
<ele>42.249996</ele>
<time>2026-09-01T00:03:41.000Z</time>
</trkpt>
<trkpt lat="59.5204211" lon="31.2248414">
<ele>42.040001</ele>
<time>2026-09-01T00:03:56.000Z</time>
</trkpt>
<trkpt lat="59.5203076" lon="31.2249959">
<ele>42.290001</ele>
<time>2026-09-01T00:04:03.000Z</time>
</trkpt>
<trkpt lat="59.5199909" lon="31.2251334">
<ele>41.770000</ele>
<time>2026-09-01T00:04:48.000Z</time>
</trkpt>
<trkpt lat="59.5197484" lon="31.2256525">
<ele>40.960003</ele>
<time>2026-09-01T00:05:26.000Z</time>
</trkpt>
<trkpt lat="59.5196297" lon="31.2257555">
<ele>40.510002</ele>
<time>2026-09-01T00:05:51.000Z</time>
</trkpt>
<trkpt lat="59.5197015" lon="31.2256722">
<ele>41.060001</ele>
<time>2026-09-01T00:06:10.000Z</time>
</trkpt>
<trkpt lat="59.5197975" lon="31.2256685">
<ele>40.820000</ele>
<time>2026-09-01T00:06:18.000Z</time>
</trkpt>
<trkpt lat="59.5198719" lon="31.2256596">
<ele>39.029999</ele>
<time>2026-09-01T00:06:30.000Z</time>
</trkpt>
<trkpt lat="59.5198430" lon="31.2256258">
<ele>40.869999</ele>
<time>2026-09-01T00:07:41.000Z</time>
</trkpt>
<trkpt lat="59.5197219" lon="31.2256178">
<ele>43.219997</ele>
<time>2026-09-01T00:08:18.000Z</time>
</trkpt>
<trkpt lat="59.5197484" lon="31.2255229">
<ele>42.790001</ele>
<time>2026-09-01T00:08:41.000Z</time>
</trkpt>
<trkpt lat="59.5198730" lon="31.2256622">
<ele>42.800003</ele>
<time>2026-09-01T00:09:26.000Z</time>
</trkpt>
<trkpt lat="59.5198306" lon="31.2256143">
<ele>43.490002</ele>
<time>2026-09-01T00:10:00.000Z</time>
</trkpt>
<trkpt lat="59.5199549" lon="31.2256169">
<ele>43.520000</ele>
<time>2026-09-01T00:10:43.000Z</time>
</trkpt>
<trkpt lat="59.5199108" lon="31.2256299">
<ele>44.599998</ele>
<time>2026-09-01T00:11:06.000Z</time>
</trkpt>
<trkpt lat="59.5199718" lon="31.2256557">
<ele>44.180000</ele>
<time>2026-09-01T00:11:34.000Z</time>
</trkpt>
<trkpt lat="59.5198837" lon="31.2256281">
<ele>44.480000</ele>
<time>2026-09-01T00:12:09.000Z</time>
</trkpt>
<trkpt lat="59.5198737" lon="31.2255309">
<ele>45.519997</ele>
<time>2026-09-01T00:12:38.000Z</time>
</trkpt>
<trkpt lat="59.5199260" lon="31.2255249">
<ele>47.879997</ele>
<time>2026-09-01T00:13:07.000Z</time>
</trkpt>
<trkpt lat="59.5200090" lon="31.2254421">
<ele>47.900002</ele>
<time>2026-09-01T00:13:24.000Z</time>
</trkpt>
<trkpt lat="59.5200781" lon="31.2253694">
<ele>47.590004</ele>
<time>2026-09-01T00:13:48.000Z</time>
</trkpt>
<trkpt lat="59.5200880" lon="31.2253114">
<ele>48.139999</ele>
<time>2026-09-01T00:14:11.000Z</time>
</trkpt>
<trkpt lat="59.5200206" lon="31.2252975">
<ele>48.489998</ele>
<time>2026-09-01T00:14:19.000Z</time>
</trkpt>
<trkpt lat="59.5199120" lon="31.2252756">
<ele>49.169998</ele>
<time>2026-09-01T00:14:39.000Z</time>
</trkpt>
<trkpt lat="59.5198797" lon="31.2254159">
<ele>49.250000</ele>
<time>2026-09-01T00:15:05.000Z</time>
</trkpt>
<trkpt lat="59.5198219" lon="31.2253894">
<ele>49.849998</ele>
<time>2026-09-01T00:15:36.000Z</time>
</trkpt>
<trkpt lat="59.5198345" lon="31.2252949">
<ele>49.990002</ele>
<time>2026-09-01T00:16:05.000Z</time>
</trkpt>
<trkpt lat="59.5198695" lon="31.2253687">
<ele>51.119999</ele>
<time>2026-09-01T00:16:38.000Z</time>
</trkpt>
<trkpt lat="59.5198734" lon="31.2253178">
<ele>51.389999</ele>
<time>2026-09-01T00:17:17.000Z</time>
</trkpt>
<trkpt lat="59.5197942" lon="31.2253667">
<ele>53.119999</ele>
<time>2026-09-01T00:17:36.000Z</time>
</trkpt>
<trkpt lat="59.5197818" lon="31.2252666">
<ele>52.630001</ele>
<time>2026-09-01T00:18:14.000Z</time>
</trkpt>
<trkpt lat="59.5197574" lon="31.2252060">
<ele>52.110001</ele>
<time>2026-09-01T00:18:40.000Z</time>
</trkpt>
<trkpt lat="59.5197679" lon="31.2252018">
<ele>50.220001</ele>
<time>2026-09-01T00:19:14.000Z</time>
</trkpt>
<trkpt lat="59.5198440" lon="31.2251194">
<ele>50.290001</ele>
<time>2026-09-01T00:19:41.000Z</time>
</trkpt>
<trkpt lat="59.5199011" lon="31.2249282">
<ele>50.299999</ele>
<time>2026-09-01T00:19:56.000Z</time>
</trkpt>
<trkpt lat="59.5197628" lon="31.2246902">
<ele>49.150002</ele>
<time>2026-09-01T00:20:20.000Z</time>
</trkpt>
<trkpt lat="59.5197055" lon="31.2245538">
<ele>48.639999</ele>
<time>2026-09-01T00:20:34.000Z</time>
</trkpt>
<trkpt lat="59.5197518" lon="31.2243305">
<ele>48.410000</ele>
<time>2026-09-01T00:20:59.000Z</time>
</trkpt>
<trkpt lat="59.5197909" lon="31.2242711">
<ele>49.029999</ele>
<time>2026-09-01T00:21:20.000Z</time>
</trkpt>
<trkpt lat="59.5196632" lon="31.2241763">
<ele>48.639999</ele>
<time>2026-09-01T00:21:48.000Z</time>
</trkpt>
<trkpt lat="59.5196578" lon="31.2241323">
<ele>45.660000</ele>
<time>2026-09-01T00:22:22.000Z</time>
</trkpt>
<trkpt lat="59.5198581" lon="31.2241292">
<ele>45.750000</ele>
<time>2026-09-01T00:23:15.000Z</time>
</trkpt>
<trkpt lat="59.5199497" lon="31.2241753">
<ele>50.650002</ele>
<time>2026-09-01T00:24:54.000Z</time>
</trkpt>
<trkpt lat="59.5198287" lon="31.2240182">
<ele>52.620003</ele>
<time>2026-09-01T00:25:38.000Z</time>
</trkpt>
<trkpt lat="59.5198704" lon="31.2240628">
<ele>59.439999</ele>
<time>2026-09-01T00:26:29.000Z</time>
</trkpt>
<trkpt lat="59.5198818" lon="31.2241950">
<ele>62.419998</ele>
<time>2026-09-01T00:27:01.000Z</time>
</trkpt>
<trkpt lat="59.5198737" lon="31.2240558">
<ele>62.160000</ele>
<time>2026-09-01T00:27:33.000Z</time>
</trkpt>
<trkpt lat="59.5199518" lon="31.2240135">
<ele>64.810005</ele>
<time>2026-09-01T00:28:13.000Z</time>
</trkpt>
<trkpt lat="59.5201238" lon="31.2240395">
<ele>66.909996</ele>
<time>2026-09-01T00:28:39.000Z</time>
</trkpt>
<trkpt lat="59.5200072" lon="31.2241632">
<ele>65.849998</ele>
<time>2026-09-01T00:29:27.000Z</time>
</trkpt>
<trkpt lat="59.5200159" lon="31.2241478">
<ele>64.669998</ele>
<time>2026-09-01T00:29:44.000Z</time>
</trkpt>
<trkpt lat="59.5199502" lon="31.2239272">
<ele>65.220001</ele>
<time>2026-09-01T00:30:12.000Z</time>
</trkpt>
<trkpt lat="59.5198704" lon="31.2239104">
<ele>63.259998</ele>
<time>2026-09-01T00:30:36.000Z</time>
</trkpt>
<trkpt lat="59.5198587" lon="31.2238329">
<ele>60.650002</ele>
<time>2026-09-01T00:31:13.000Z</time>
</trkpt>
<trkpt lat="59.5199005" lon="31.2237673">
<ele>59.769997</ele>
<time>2026-09-01T00:31:27.000Z</time>
</trkpt>
<trkpt lat="59.5198750" lon="31.2236644">
<ele>60.100002</ele>
<time>2026-09-01T00:31:47.000Z</time>
</trkpt>
<trkpt lat="59.5199044" lon="31.2235732">
<ele>60.490002</ele>
<time>2026-09-01T00:32:06.000Z</time>
</trkpt>
<trkpt lat="59.5199976" lon="31.2235694">
<ele>59.849998</ele>
<time>2026-09-01T00:32:23.000Z</time>
</trkpt>
<trkpt lat="59.5200142" lon="31.2235618">
<ele>60.349998</ele>
<time>2026-09-01T00:32:32.000Z</time>
</trkpt>
<trkpt lat="59.5200660" lon="31.2233593">
<ele>59.699997</ele>
<time>2026-09-01T00:32:54.000Z</time>
</trkpt>
<trkpt lat="59.5200896" lon="31.2233398">
<ele>59.089996</ele>
<time>2026-09-01T00:32:57.000Z</time>
</trkpt>
<trkpt lat="59.5200841" lon="31.2229893">
<ele>59.360001</ele>
<time>2026-09-01T00:33:32.000Z</time>
</trkpt>
<trkpt lat="59.5200570" lon="31.2225731">
<ele>59.599998</ele>
<time>2026-09-01T00:34:33.000Z</time>
</trkpt>
<trkpt lat="59.5200496" lon="31.2224465">
<ele>60.119999</ele>
<time>2026-09-01T00:34:51.000Z</time>
</trkpt>
<trkpt lat="59.5199890" lon="31.2222118">
<ele>59.459999</ele>
<time>2026-09-01T00:35:34.000Z</time>
</trkpt>
<trkpt lat="59.5199694" lon="31.2220748">
<ele>59.030003</ele>
<time>2026-09-01T00:35:55.000Z</time>
</trkpt>
<trkpt lat="59.5199326" lon="31.2219433">
<ele>58.660000</ele>
<time>2026-09-01T00:36:12.000Z</time>
</trkpt>
<trkpt lat="59.5197656" lon="31.2218073">
<ele>55.220001</ele>
<time>2026-09-01T00:36:49.000Z</time>
</trkpt>
<trkpt lat="59.5198585" lon="31.2216880">
<ele>54.579998</ele>
<time>2026-09-01T00:37:27.000Z</time>
</trkpt>
<trkpt lat="59.5199271" lon="31.2217306">
<ele>58.929996</ele>
<time>2026-09-01T00:37:58.000Z</time>
</trkpt>
<trkpt lat="59.5200463" lon="31.2214493">
<ele>60.200001</ele>
<time>2026-09-01T00:38:27.000Z</time>
</trkpt>
<trkpt lat="59.5199636" lon="31.2213975">
<ele>58.340000</ele>
<time>2026-09-01T00:38:56.000Z</time>
</trkpt>
<trkpt lat="59.5198792" lon="31.2213464">
<ele>57.139999</ele>
<time>2026-09-01T00:39:15.000Z</time>
</trkpt>
<trkpt lat="59.5199111" lon="31.2212223">
<ele>56.540001</ele>
<time>2026-09-01T00:39:33.000Z</time>
</trkpt>
<trkpt lat="59.5199744" lon="31.2211676">
<ele>55.590004</ele>
<time>2026-09-01T00:39:56.000Z</time>
</trkpt>
<trkpt lat="59.5199539" lon="31.2210402">
<ele>54.930000</ele>
<time>2026-09-01T00:40:20.000Z</time>
</trkpt>
<trkpt lat="59.5199196" lon="31.2210838">
<ele>54.570000</ele>
<time>2026-09-01T00:40:31.000Z</time>
</trkpt>
<trkpt lat="59.5198776" lon="31.2210327">
<ele>55.489998</ele>
<time>2026-09-01T00:40:56.000Z</time>
</trkpt>
<trkpt lat="59.5198460" lon="31.2209820">
<ele>56.009998</ele>
<time>2026-09-01T00:41:20.000Z</time>
</trkpt>
<trkpt lat="59.5198744" lon="31.2208990">
<ele>55.680000</ele>
<time>2026-09-01T00:41:39.000Z</time>
</trkpt>
<trkpt lat="59.5197849" lon="31.2209092">
<ele>53.690002</ele>
<time>2026-09-01T00:42:05.000Z</time>
</trkpt>
<trkpt lat="59.5197917" lon="31.2208678">
<ele>53.419998</ele>
<time>2026-09-01T00:42:35.000Z</time>
</trkpt>
<trkpt lat="59.5198872" lon="31.2206362">
<ele>53.540001</ele>
<time>2026-09-01T00:43:00.000Z</time>
</trkpt>
<trkpt lat="59.5200113" lon="31.2202510">
<ele>52.720001</ele>
<time>2026-09-01T00:43:26.000Z</time>
</trkpt>
<trkpt lat="59.5200932" lon="31.2201757">
<ele>51.599998</ele>
<time>2026-09-01T00:43:44.000Z</time>
</trkpt>
<trkpt lat="59.5201915" lon="31.2200167">
<ele>50.539997</ele>
<time>2026-09-01T00:44:06.000Z</time>
</trkpt>
<trkpt lat="59.5202321" lon="31.2200087">
<ele>50.320000</ele>
<time>2026-09-01T00:44:10.000Z</time>
</trkpt>
<trkpt lat="59.5203667" lon="31.2198549">
<ele>50.539997</ele>
<time>2026-09-01T00:44:30.000Z</time>
</trkpt>
<trkpt lat="59.5204214" lon="31.2197726">
<ele>52.550003</ele>
<time>2026-09-01T00:44:49.000Z</time>
</trkpt>
<trkpt lat="59.5204646" lon="31.2196621">
<ele>53.150002</ele>
<time>2026-09-01T00:45:11.000Z</time>
</trkpt>
<trkpt lat="59.5205069" lon="31.2196339">
<ele>53.360001</ele>
<time>2026-09-01T00:45:21.000Z</time>
</trkpt>
<trkpt lat="59.5205477" lon="31.2195666">
<ele>52.139999</ele>
<time>2026-09-01T00:45:40.000Z</time>
</trkpt>
<trkpt lat="59.5206246" lon="31.2194045">
<ele>52.410000</ele>
<time>2026-09-01T00:46:13.000Z</time>
</trkpt>
<trkpt lat="59.5206857" lon="31.2192932">
<ele>51.820000</ele>
<time>2026-09-01T00:46:30.000Z</time>
</trkpt>
<trkpt lat="59.5206904" lon="31.2192698">
<ele>51.790001</ele>
<time>2026-09-01T00:46:32.000Z</time>
</trkpt>
<trkpt lat="59.5206927" lon="31.2189485">
<ele>51.929996</ele>
<time>2026-09-01T00:46:59.000Z</time>
</trkpt>
<trkpt lat="59.5206905" lon="31.2188179">
<ele>51.740002</ele>
<time>2026-09-01T00:47:14.000Z</time>
</trkpt>
<trkpt lat="59.5206361" lon="31.2186431">
<ele>51.849998</ele>
<time>2026-09-01T00:47:19.000Z</time>
</trkpt>
<trkpt lat="59.5205316" lon="31.2184786">
<ele>53.260002</ele>
<time>2026-09-01T00:47:45.000Z</time>
</trkpt>
<trkpt lat="59.5206001" lon="31.2185419">
<ele>52.420002</ele>
<time>2026-09-01T00:48:32.000Z</time>
</trkpt>
<trkpt lat="59.5206977" lon="31.2186194">
<ele>50.410004</ele>
<time>2026-09-01T00:48:57.000Z</time>
</trkpt>
<trkpt lat="59.5206532" lon="31.2184448">
<ele>51.799999</ele>
<time>2026-09-01T00:49:25.000Z</time>
</trkpt>
<trkpt lat="59.5206052" lon="31.2182989">
<ele>53.200001</ele>
<time>2026-09-01T00:49:47.000Z</time>
</trkpt>
<trkpt lat="59.5205884" lon="31.2182467">
<ele>53.439999</ele>
<time>2026-09-01T00:50:13.000Z</time>
</trkpt>
<trkpt lat="59.5206324" lon="31.2180784">
<ele>53.040001</ele>
<time>2026-09-01T00:50:39.000Z</time>
</trkpt>
<trkpt lat="59.5206703" lon="31.2179244">
<ele>52.660000</ele>
<time>2026-09-01T00:50:58.000Z</time>
</trkpt>
<trkpt lat="59.5207396" lon="31.2178354">
<ele>53.760002</ele>
<time>2026-09-01T00:51:22.000Z</time>
</trkpt>
<trkpt lat="59.5207765" lon="31.2175908">
<ele>54.259998</ele>
<time>2026-09-01T00:51:43.000Z</time>
</trkpt>
<trkpt lat="59.5208473" lon="31.2174695">
<ele>53.690002</ele>
<time>2026-09-01T00:51:58.000Z</time>
</trkpt>
<trkpt lat="59.5209579" lon="31.2172743">
<ele>55.830002</ele>
<time>2026-09-01T00:52:23.000Z</time>
</trkpt>
<trkpt lat="59.5209554" lon="31.2171329">
<ele>56.000000</ele>
<time>2026-09-01T00:52:37.000Z</time>
</trkpt>
<trkpt lat="59.5209972" lon="31.2169566">
<ele>54.730000</ele>
<time>2026-09-01T00:52:58.000Z</time>
</trkpt>
<trkpt lat="59.5211515" lon="31.2168405">
<ele>53.750000</ele>
<time>2026-09-01T00:53:15.000Z</time>
</trkpt>
<trkpt lat="59.5211630" lon="31.2166278">
<ele>55.320000</ele>
<time>2026-09-01T00:53:36.000Z</time>
</trkpt>
<trkpt lat="59.5211602" lon="31.2166163">
<ele>55.320000</ele>
<time>2026-09-01T00:53:37.000Z</time>
</trkpt>
<trkpt lat="59.5211857" lon="31.2164566">
<ele>54.790001</ele>
<time>2026-09-01T00:53:59.000Z</time>
</trkpt>
<trkpt lat="59.5211981" lon="31.2162238">
<ele>55.119999</ele>
<time>2026-09-01T00:54:22.000Z</time>
</trkpt>
<trkpt lat="59.5211940" lon="31.2160373">
<ele>53.959999</ele>
<time>2026-09-01T00:54:39.000Z</time>
</trkpt>
<trkpt lat="59.5211888" lon="31.2159887">
<ele>53.909996</ele>
<time>2026-09-01T00:54:46.000Z</time>
</trkpt>
<trkpt lat="59.5211883" lon="31.2159374">
<ele>53.700001</ele>
<time>2026-09-01T00:54:50.000Z</time>
</trkpt>
<trkpt lat="59.5211682" lon="31.2157590">
<ele>52.750000</ele>
<time>2026-09-01T00:55:17.000Z</time>
</trkpt>
<trkpt lat="59.5211519" lon="31.2155966">
<ele>52.449997</ele>
<time>2026-09-01T00:55:34.000Z</time>
</trkpt>
<trkpt lat="59.5211084" lon="31.2155421">
<ele>52.270000</ele>
<time>2026-09-01T00:56:17.000Z</time>
</trkpt>
<trkpt lat="59.5211059" lon="31.2154973">
<ele>52.739998</ele>
<time>2026-09-01T00:56:48.000Z</time>
</trkpt>
<trkpt lat="59.5210819" lon="31.2156084">
<ele>54.300003</ele>
<time>2026-09-01T00:57:27.000Z</time>
</trkpt>
<trkpt lat="59.5211338" lon="31.2154611">
<ele>54.450001</ele>
<time>2026-09-01T00:57:51.000Z</time>
</trkpt>
<trkpt lat="59.5211551" lon="31.2154232">
<ele>53.549999</ele>
<time>2026-09-01T00:57:56.000Z</time>
</trkpt>
<trkpt lat="59.5212799" lon="31.2151949">
<ele>54.579998</ele>
<time>2026-09-01T00:58:31.000Z</time>
</trkpt>
<trkpt lat="59.5213105" lon="31.2152090">
<ele>55.000000</ele>
<time>2026-09-01T00:58:58.000Z</time>
</trkpt>
<trkpt lat="59.5212415" lon="31.2148019">
<ele>54.489998</ele>
<time>2026-09-01T00:59:33.000Z</time>
</trkpt>
<trkpt lat="59.5212010" lon="31.2146770">
<ele>53.289997</ele>
<time>2026-09-01T00:59:56.000Z</time>
</trkpt>
<trkpt lat="59.5212230" lon="31.2144785">
<ele>53.430000</ele>
<time>2026-09-01T01:00:20.000Z</time>
</trkpt>
<trkpt lat="59.5212335" lon="31.2143161">
<ele>54.090000</ele>
<time>2026-09-01T01:00:48.000Z</time>
</trkpt>
<trkpt lat="59.5214561" lon="31.2140713">
<ele>53.720001</ele>
<time>2026-09-01T01:01:36.000Z</time>
</trkpt>
<trkpt lat="59.5215355" lon="31.2137495">
<ele>52.689999</ele>
<time>2026-09-01T01:02:00.000Z</time>
</trkpt>
<trkpt lat="59.5215911" lon="31.2136763">
<ele>52.250000</ele>
<time>2026-09-01T01:02:08.000Z</time>
</trkpt>
<trkpt lat="59.5216233" lon="31.2133976">
<ele>53.100002</ele>
<time>2026-09-01T01:02:30.000Z</time>
</trkpt>
<trkpt lat="59.5215855" lon="31.2131923">
<ele>53.310001</ele>
<time>2026-09-01T01:02:45.000Z</time>
</trkpt>
<trkpt lat="59.5215171" lon="31.2129691">
<ele>53.330002</ele>
<time>2026-09-01T01:03:06.000Z</time>
</trkpt>
<trkpt lat="59.5214909" lon="31.2127101">
<ele>53.400002</ele>
<time>2026-09-01T01:03:23.000Z</time>
</trkpt>
<trkpt lat="59.5215314" lon="31.2125396">
<ele>55.010002</ele>
<time>2026-09-01T01:03:41.000Z</time>
</trkpt>
<trkpt lat="59.5215857" lon="31.2123812">
<ele>55.300003</ele>
<time>2026-09-01T01:03:57.000Z</time>
</trkpt>
<trkpt lat="59.5216633" lon="31.2124027">
<ele>56.380001</ele>
<time>2026-09-01T01:04:24.000Z</time>
</trkpt>
<trkpt lat="59.5216826" lon="31.2123077">
<ele>56.600002</ele>
<time>2026-09-01T01:04:50.000Z</time>
</trkpt>
<trkpt lat="59.5217769" lon="31.2120312">
<ele>58.040001</ele>
<time>2026-09-01T01:05:33.000Z</time>
</trkpt>
<trkpt lat="59.5218415" lon="31.2120877">
<ele>58.049999</ele>
<time>2026-09-01T01:05:50.000Z</time>
</trkpt>
<trkpt lat="59.5218518" lon="31.2120893">
<ele>58.090000</ele>
<time>2026-09-01T01:05:53.000Z</time>
</trkpt>
<trkpt lat="59.5219544" lon="31.2120874">
<ele>57.689999</ele>
<time>2026-09-01T01:06:13.000Z</time>
</trkpt>
<trkpt lat="59.5219847" lon="31.2120658">
<ele>57.469997</ele>
<time>2026-09-01T01:06:17.000Z</time>
</trkpt>
<trkpt lat="59.5221301" lon="31.2118741">
<ele>56.259998</ele>
<time>2026-09-01T01:06:34.000Z</time>
</trkpt>
<trkpt lat="59.5221441" lon="31.2116410">
<ele>54.920002</ele>
<time>2026-09-01T01:06:47.000Z</time>
</trkpt>
<trkpt lat="59.5222113" lon="31.2113928">
<ele>55.809998</ele>
<time>2026-09-01T01:07:09.000Z</time>
</trkpt>
<trkpt lat="59.5222424" lon="31.2112297">
<ele>55.579998</ele>
<time>2026-09-01T01:07:28.000Z</time>
</trkpt>
<trkpt lat="59.5222331" lon="31.2111227">
<ele>54.700001</ele>
<time>2026-09-01T01:07:45.000Z</time>
</trkpt>
<trkpt lat="59.5222276" lon="31.2111074">
<ele>54.610001</ele>
<time>2026-09-01T01:07:48.000Z</time>
</trkpt>
<trkpt lat="59.5221779" lon="31.2109354">
<ele>53.739998</ele>
<time>2026-09-01T01:08:10.000Z</time>
</trkpt>
<trkpt lat="59.5222279" lon="31.2108237">
<ele>54.430000</ele>
<time>2026-09-01T01:08:20.000Z</time>
</trkpt>
<trkpt lat="59.5223361" lon="31.2108422">
<ele>54.180000</ele>
<time>2026-09-01T01:08:34.000Z</time>
</trkpt>
<trkpt lat="59.5225298" lon="31.2109675">
<ele>52.839996</ele>
<time>2026-09-01T01:08:53.000Z</time>
</trkpt>
<trkpt lat="59.5226319" lon="31.2110699">
<ele>52.570000</ele>
<time>2026-09-01T01:09:06.000Z</time>
</trkpt>
<trkpt lat="59.5227606" lon="31.2111685">
<ele>53.189999</ele>
<time>2026-09-01T01:09:23.000Z</time>
</trkpt>
<trkpt lat="59.5229527" lon="31.2112185">
<ele>52.750000</ele>
<time>2026-09-01T01:09:39.000Z</time>
</trkpt>
<trkpt lat="59.5230338" lon="31.2111877">
<ele>52.439999</ele>
<time>2026-09-01T01:09:47.000Z</time>
</trkpt>
<trkpt lat="59.5232107" lon="31.2111062">
<ele>52.360001</ele>
<time>2026-09-01T01:10:03.000Z</time>
</trkpt>
<trkpt lat="59.5234412" lon="31.2111887">
<ele>50.599998</ele>
<time>2026-09-01T01:10:20.000Z</time>
</trkpt>
<trkpt lat="59.5236424" lon="31.2114086">
<ele>50.430000</ele>
<time>2026-09-01T01:10:43.000Z</time>
</trkpt>
<trkpt lat="59.5236535" lon="31.2114367">
<ele>50.759998</ele>
<time>2026-09-01T01:10:46.000Z</time>
</trkpt>
<trkpt lat="59.5236230" lon="31.2114926">
<ele>53.579998</ele>
<time>2026-09-01T01:11:14.000Z</time>
</trkpt>
<trkpt lat="59.5236114" lon="31.2115959">
<ele>53.360001</ele>
<time>2026-09-01T01:11:42.000Z</time>
</trkpt>
<trkpt lat="59.5236848" lon="31.2117573">
<ele>53.209999</ele>
<time>2026-09-01T01:11:55.000Z</time>
</trkpt>
<trkpt lat="59.5237654" lon="31.2119966">
<ele>52.639999</ele>
<time>2026-09-01T01:12:08.000Z</time>
</trkpt>
<trkpt lat="59.5238811" lon="31.2124066">
<ele>49.950001</ele>
<time>2026-09-01T01:12:30.000Z</time>
</trkpt>
<trkpt lat="59.5239554" lon="31.2126557">
<ele>46.980003</ele>
<time>2026-09-01T01:12:42.000Z</time>
</trkpt>
<trkpt lat="59.5240539" lon="31.2128371">
<ele>44.299999</ele>
<time>2026-09-01T01:12:58.000Z</time>
</trkpt>
<trkpt lat="59.5241841" lon="31.2128521">
<ele>45.739998</ele>
<time>2026-09-01T01:13:23.000Z</time>
</trkpt>
<trkpt lat="59.5243170" lon="31.2128469">
<ele>46.349998</ele>
<time>2026-09-01T01:13:41.000Z</time>
</trkpt>
<trkpt lat="59.5244588" lon="31.2127461">
<ele>44.860001</ele>
<time>2026-09-01T01:13:57.000Z</time>
</trkpt>
<trkpt lat="59.5245407" lon="31.2125651">
<ele>42.629997</ele>
<time>2026-09-01T01:14:12.000Z</time>
</trkpt>
<trkpt lat="59.5246961" lon="31.2122789">
<ele>41.009998</ele>
<time>2026-09-01T01:14:31.000Z</time>
</trkpt>
<trkpt lat="59.5247677" lon="31.2121596">
<ele>41.489998</ele>
<time>2026-09-01T01:14:45.000Z</time>
</trkpt>
<trkpt lat="59.5249219" lon="31.2122589">
<ele>40.510002</ele>
<time>2026-09-01T01:15:01.000Z</time>
</trkpt>
<trkpt lat="59.5249608" lon="31.2122707">
<ele>40.130001</ele>
<time>2026-09-01T01:15:04.000Z</time>
</trkpt>
<trkpt lat="59.5250756" lon="31.2123461">
<ele>38.099998</ele>
<time>2026-09-01T01:15:17.000Z</time>
</trkpt>
<trkpt lat="59.5252012" lon="31.2125378">
<ele>35.690002</ele>
<time>2026-09-01T01:15:30.000Z</time>
</trkpt>
<trkpt lat="59.5253888" lon="31.2127734">
<ele>35.779999</ele>
<time>2026-09-01T01:15:52.000Z</time>
</trkpt>
<trkpt lat="59.5255599" lon="31.2130153">
<ele>36.220001</ele>
<time>2026-09-01T01:16:14.000Z</time>
</trkpt>
<trkpt lat="59.5256773" lon="31.2133183">
<ele>34.959999</ele>
<time>2026-09-01T01:16:32.000Z</time>
</trkpt>
<trkpt lat="59.5257765" lon="31.2136578">
<ele>32.990002</ele>
<time>2026-09-01T01:16:51.000Z</time>
</trkpt>
<trkpt lat="59.5259605" lon="31.2139003">
<ele>33.369999</ele>
<time>2026-09-01T01:17:13.000Z</time>
</trkpt>
<trkpt lat="59.5260470" lon="31.2140462">
<ele>33.230000</ele>
<time>2026-09-01T01:17:26.000Z</time>
</trkpt>
<trkpt lat="59.5261152" lon="31.2143579">
<ele>31.960001</ele>
<time>2026-09-01T01:17:42.000Z</time>
</trkpt>
<trkpt lat="59.5262056" lon="31.2147076">
<ele>31.439999</ele>
<time>2026-09-01T01:18:03.000Z</time>
</trkpt>
<trkpt lat="59.5262599" lon="31.2150290">
<ele>31.280001</ele>
<time>2026-09-01T01:18:23.000Z</time>
</trkpt>
<trkpt lat="59.5263130" lon="31.2152735">
<ele>32.490002</ele>
<time>2026-09-01T01:18:39.000Z</time>
</trkpt>
<trkpt lat="59.5263623" lon="31.2156131">
<ele>32.720001</ele>
<time>2026-09-01T01:19:01.000Z</time>
</trkpt>
<trkpt lat="59.5264379" lon="31.2159850">
<ele>31.420000</ele>
<time>2026-09-01T01:19:19.000Z</time>
</trkpt>
<trkpt lat="59.5264268" lon="31.2164139">
<ele>31.480000</ele>
<time>2026-09-01T01:19:39.000Z</time>
</trkpt>
<trkpt lat="59.5264262" lon="31.2168915">
<ele>28.190001</ele>
<time>2026-09-01T01:20:00.000Z</time>
</trkpt>
<trkpt lat="59.5265393" lon="31.2172986">
<ele>25.790001</ele>
<time>2026-09-01T01:20:22.000Z</time>
</trkpt>
<trkpt lat="59.5266410" lon="31.2177254">
<ele>27.720001</ele>
<time>2026-09-01T01:20:43.000Z</time>
</trkpt>
<trkpt lat="59.5266476" lon="31.2179492">
<ele>30.320000</ele>
<time>2026-09-01T01:21:07.000Z</time>
</trkpt>
<trkpt lat="59.5267711" lon="31.2181385">
<ele>29.490000</ele>
<time>2026-09-01T01:21:21.000Z</time>
</trkpt>
<trkpt lat="59.5269257" lon="31.2183704">
<ele>28.490000</ele>
<time>2026-09-01T01:21:39.000Z</time>
</trkpt>
<trkpt lat="59.5271511" lon="31.2187780">
<ele>27.230001</ele>
<time>2026-09-01T01:22:09.000Z</time>
</trkpt>
<trkpt lat="59.5272980" lon="31.2190366">
<ele>29.910000</ele>
<time>2026-09-01T01:22:30.000Z</time>
</trkpt>
<trkpt lat="59.5273591" lon="31.2194667">
<ele>31.960001</ele>
<time>2026-09-01T01:22:53.000Z</time>
</trkpt>
<trkpt lat="59.5274207" lon="31.2199491">
<ele>32.080002</ele>
<time>2026-09-01T01:23:20.000Z</time>
</trkpt>
<trkpt lat="59.5274663" lon="31.2202755">
<ele>31.259998</ele>
<time>2026-09-01T01:23:39.000Z</time>
</trkpt>
<trkpt lat="59.5275241" lon="31.2206275">
<ele>33.970001</ele>
<time>2026-09-01T01:23:58.000Z</time>
</trkpt>
<trkpt lat="59.5275296" lon="31.2209792">
<ele>36.169998</ele>
<time>2026-09-01T01:24:16.000Z</time>
</trkpt>
<trkpt lat="59.5275639" lon="31.2214632">
<ele>36.270000</ele>
<time>2026-09-01T01:24:37.000Z</time>
</trkpt>
<trkpt lat="59.5276012" lon="31.2218514">
<ele>36.270000</ele>
<time>2026-09-01T01:24:57.000Z</time>
</trkpt>
<trkpt lat="59.5276139" lon="31.2222125">
<ele>35.930000</ele>
<time>2026-09-01T01:25:18.000Z</time>
</trkpt>
<trkpt lat="59.5276361" lon="31.2225639">
<ele>36.869999</ele>
<time>2026-09-01T01:25:32.000Z</time>
</trkpt>
<trkpt lat="59.5276984" lon="31.2227444">
<ele>37.270000</ele>
<time>2026-09-01T01:25:45.000Z</time>
</trkpt>
<trkpt lat="59.5277634" lon="31.2230445">
<ele>35.939999</ele>
<time>2026-09-01T01:26:04.000Z</time>
</trkpt>
<trkpt lat="59.5277827" lon="31.2232996">
<ele>35.020000</ele>
<time>2026-09-01T01:26:22.000Z</time>
</trkpt>
<trkpt lat="59.5277546" lon="31.2234901">
<ele>36.600002</ele>
<time>2026-09-01T01:26:41.000Z</time>
</trkpt>
<trkpt lat="59.5277455" lon="31.2235458">
<ele>37.849998</ele>
<time>2026-09-01T01:26:59.000Z</time>
</trkpt>
<trkpt lat="59.5277704" lon="31.2237650">
<ele>38.189999</ele>
<time>2026-09-01T01:27:22.000Z</time>
</trkpt>
<trkpt lat="59.5277747" lon="31.2239678">
<ele>38.410000</ele>
<time>2026-09-01T01:27:39.000Z</time>
</trkpt>
<trkpt lat="59.5277821" lon="31.2240912">
<ele>38.489998</ele>
<time>2026-09-01T01:27:51.000Z</time>
</trkpt>
<trkpt lat="59.5278273" lon="31.2242765">
<ele>39.279999</ele>
<time>2026-09-01T01:28:09.000Z</time>
</trkpt>
<trkpt lat="59.5278703" lon="31.2242769">
<ele>39.680000</ele>
<time>2026-09-01T01:28:29.000Z</time>
</trkpt>
<trkpt lat="59.5278463" lon="31.2243192">
<ele>40.459999</ele>
<time>2026-09-01T01:28:43.000Z</time>
</trkpt>
<trkpt lat="59.5278596" lon="31.2243229">
<ele>40.689999</ele>
<time>2026-09-01T01:28:45.000Z</time>
</trkpt>
<trkpt lat="59.5278484" lon="31.2243394">
<ele>40.489998</ele>
<time>2026-09-01T01:28:54.000Z</time>
</trkpt>
<trkpt lat="59.5278253" lon="31.2243289">
<ele>40.350002</ele>
<time>2026-09-01T01:29:13.000Z</time>
</trkpt>
<trkpt lat="59.5278122" lon="31.2243447">
<ele>40.299999</ele>
<time>2026-09-01T01:29:30.000Z</time>
</trkpt>
<trkpt lat="59.5278238" lon="31.2243709">
<ele>39.619999</ele>
<time>2026-09-01T01:29:56.000Z</time>
</trkpt>
<trkpt lat="59.5278488" lon="31.2243281">
<ele>38.910000</ele>
<time>2026-09-01T01:30:14.000Z</time>
</trkpt>
<trkpt lat="59.5278547" lon="31.2242953">
<ele>39.480000</ele>
<time>2026-09-01T01:30:34.000Z</time>
</trkpt>
<trkpt lat="59.5278188" lon="31.2242841">
<ele>39.849998</ele>
<time>2026-09-01T01:30:51.000Z</time>
</trkpt>
<trkpt lat="59.5278291" lon="31.2243105">
<ele>39.949997</ele>
<time>2026-09-01T01:31:15.000Z</time>
</trkpt>
<trkpt lat="59.5278975" lon="31.2243420">
<ele>39.400002</ele>
<time>2026-09-01T01:31:42.000Z</time>
</trkpt>
<trkpt lat="59.5278902" lon="31.2243157">
<ele>39.189999</ele>
<time>2026-09-01T01:32:08.000Z</time>
</trkpt>
<trkpt lat="59.5278705" lon="31.2243165">
<ele>39.790001</ele>
<time>2026-09-01T01:32:34.000Z</time>
</trkpt>
<trkpt lat="59.5279311" lon="31.2243881">
<ele>39.110001</ele>
<time>2026-09-01T01:32:56.000Z</time>
</trkpt>
<trkpt lat="59.5280159" lon="31.2244430">
<ele>39.090000</ele>
<time>2026-09-01T01:33:14.000Z</time>
</trkpt>
<trkpt lat="59.5280914" lon="31.2245085">
<ele>38.439999</ele>
<time>2026-09-01T01:33:32.000Z</time>
</trkpt>
<trkpt lat="59.5282247" lon="31.2245409">
<ele>36.760002</ele>
<time>2026-09-01T01:33:54.000Z</time>
</trkpt>
<trkpt lat="59.5283052" lon="31.2245878">
<ele>39.799999</ele>
<time>2026-09-01T01:34:16.000Z</time>
</trkpt>
<trkpt lat="59.5283971" lon="31.2246541">
<ele>39.869999</ele>
<time>2026-09-01T01:34:31.000Z</time>
</trkpt>
<trkpt lat="59.5284766" lon="31.2246846">
<ele>39.429996</ele>
<time>2026-09-01T01:34:48.000Z</time>
</trkpt>
<trkpt lat="59.5285080" lon="31.2246894">
<ele>39.360001</ele>
<time>2026-09-01T01:34:57.000Z</time>
</trkpt>
<trkpt lat="59.5287088" lon="31.2245807">
<ele>37.820000</ele>
<time>2026-09-01T01:35:21.000Z</time>
</trkpt>
<trkpt lat="59.5288959" lon="31.2245109">
<ele>37.670002</ele>
<time>2026-09-01T01:35:39.000Z</time>
</trkpt>
<trkpt lat="59.5291409" lon="31.2244906">
<ele>36.430000</ele>
<time>2026-09-01T01:36:03.000Z</time>
</trkpt>
<trkpt lat="59.5292480" lon="31.2245355">
<ele>32.910000</ele>
<time>2026-09-01T01:36:19.000Z</time>
</trkpt>
<trkpt lat="59.5294573" lon="31.2245985">
<ele>34.720001</ele>
<time>2026-09-01T01:36:40.000Z</time>
</trkpt>
<trkpt lat="59.5296703" lon="31.2247911">
<ele>38.259998</ele>
<time>2026-09-01T01:37:01.000Z</time>
</trkpt>
<trkpt lat="59.5298913" lon="31.2248880">
<ele>37.520000</ele>
<time>2026-09-01T01:37:23.000Z</time>
</trkpt>
<trkpt lat="59.5300576" lon="31.2251039">
<ele>34.850002</ele>
<time>2026-09-01T01:37:41.000Z</time>
</trkpt>
<trkpt lat="59.5302563" lon="31.2254102">
<ele>34.500000</ele>
<time>2026-09-01T01:38:01.000Z</time>
</trkpt>
<trkpt lat="59.5303472" lon="31.2255168">
<ele>33.369999</ele>
<time>2026-09-01T01:38:19.000Z</time>
</trkpt>
<trkpt lat="59.5305247" lon="31.2257214">
<ele>34.090000</ele>
<time>2026-09-01T01:38:39.000Z</time>
</trkpt>
<trkpt lat="59.5306814" lon="31.2259887">
<ele>32.860001</ele>
<time>2026-09-01T01:38:59.000Z</time>
</trkpt>
<trkpt lat="59.5307979" lon="31.2263765">
<ele>32.579998</ele>
<time>2026-09-01T01:39:20.000Z</time>
</trkpt>
<trkpt lat="59.5309704" lon="31.2266033">
<ele>29.539999</ele>
<time>2026-09-01T01:39:42.000Z</time>
</trkpt>
<trkpt lat="59.5311350" lon="31.2269352">
<ele>29.090002</ele>
<time>2026-09-01T01:40:02.000Z</time>
</trkpt>
<trkpt lat="59.5313051" lon="31.2271849">
<ele>28.730000</ele>
<time>2026-09-01T01:40:23.000Z</time>
</trkpt>
<trkpt lat="59.5314272" lon="31.2274068">
<ele>30.750000</ele>
<time>2026-09-01T01:40:43.000Z</time>
</trkpt>
<trkpt lat="59.5314354" lon="31.2274192">
<ele>31.690001</ele>
<time>2026-09-01T01:40:52.000Z</time>
</trkpt>
<trkpt lat="59.5315253" lon="31.2276667">
<ele>31.179998</ele>
<time>2026-09-01T01:41:13.000Z</time>
</trkpt>
<trkpt lat="59.5315430" lon="31.2278453">
<ele>34.430000</ele>
<time>2026-09-01T01:41:36.000Z</time>
</trkpt>
<trkpt lat="59.5315661" lon="31.2280298">
<ele>36.430000</ele>
<time>2026-09-01T01:41:58.000Z</time>
</trkpt>
<trkpt lat="59.5315915" lon="31.2279027">
<ele>40.430000</ele>
<time>2026-09-01T01:42:33.000Z</time>
</trkpt>
<trkpt lat="59.5316022" lon="31.2278868">
<ele>44.720001</ele>
<time>2026-09-01T01:43:04.000Z</time>
</trkpt>
<trkpt lat="59.5316845" lon="31.2280792">
<ele>44.669998</ele>
<time>2026-09-01T01:43:28.000Z</time>
</trkpt>
<trkpt lat="59.5317725" lon="31.2282548">
<ele>41.619999</ele>
<time>2026-09-01T01:43:43.000Z</time>
</trkpt>
<trkpt lat="59.5318494" lon="31.2284673">
<ele>41.320000</ele>
<time>2026-09-01T01:44:11.000Z</time>
</trkpt>
<trkpt lat="59.5318887" lon="31.2286893">
<ele>43.160000</ele>
<time>2026-09-01T01:44:31.000Z</time>
</trkpt>
<trkpt lat="59.5319074" lon="31.2290068">
<ele>43.320004</ele>
<time>2026-09-01T01:44:51.000Z</time>
</trkpt>
<trkpt lat="59.5319161" lon="31.2290881">
<ele>43.529999</ele>
<time>2026-09-01T01:44:59.000Z</time>
</trkpt>
<trkpt lat="59.5318422" lon="31.2291987">
<ele>48.649998</ele>
<time>2026-09-01T01:45:34.000Z</time>
</trkpt>
<trkpt lat="59.5318439" lon="31.2292880">
<ele>49.190002</ele>
<time>2026-09-01T01:46:01.000Z</time>
</trkpt>
<trkpt lat="59.5318834" lon="31.2292927">
<ele>49.099998</ele>
<time>2026-09-01T01:46:24.000Z</time>
</trkpt>
<trkpt lat="59.5318711" lon="31.2292017">
<ele>48.610001</ele>
<time>2026-09-01T01:46:50.000Z</time>
</trkpt>
<trkpt lat="59.5318473" lon="31.2290790">
<ele>49.009998</ele>
<time>2026-09-01T01:47:14.000Z</time>
</trkpt>
<trkpt lat="59.5318548" lon="31.2290672">
<ele>48.890003</ele>
<time>2026-09-01T01:47:16.000Z</time>
</trkpt>
<trkpt lat="59.5318441" lon="31.2289833">
<ele>50.800003</ele>
<time>2026-09-01T01:47:42.000Z</time>
</trkpt>
<trkpt lat="59.5318323" lon="31.2290822">
<ele>51.630001</ele>
<time>2026-09-01T01:48:04.000Z</time>
</trkpt>
<trkpt lat="59.5318638" lon="31.2291068">
<ele>51.959999</ele>
<time>2026-09-01T01:48:08.000Z</time>
</trkpt>
<trkpt lat="59.5319585" lon="31.2291306">
<ele>51.650002</ele>
<time>2026-09-01T01:48:43.000Z</time>
</trkpt>
<trkpt lat="59.5318707" lon="31.2291527">
<ele>53.209999</ele>
<time>2026-09-01T01:49:13.000Z</time>
</trkpt>
<trkpt lat="59.5320711" lon="31.2290974">
<ele>53.540001</ele>
<time>2026-09-01T01:49:52.000Z</time>
</trkpt>
<trkpt lat="59.5321505" lon="31.2291870">
<ele>53.809998</ele>
<time>2026-09-01T01:50:33.000Z</time>
</trkpt>
<trkpt lat="59.5322011" lon="31.2290120">
<ele>52.299999</ele>
<time>2026-09-01T01:51:40.000Z</time>
</trkpt>
<trkpt lat="59.5319830" lon="31.2291709">
<ele>54.910004</ele>
<time>2026-09-01T01:52:27.000Z</time>
</trkpt>
<trkpt lat="59.5319194" lon="31.2291703">
<ele>57.510002</ele>
<time>2026-09-01T01:53:25.000Z</time>
</trkpt>
<trkpt lat="59.5318598" lon="31.2292751">
<ele>57.890003</ele>
<time>2026-09-01T01:53:58.000Z</time>
</trkpt>
<trkpt lat="59.5318728" lon="31.2292555">
<ele>55.889999</ele>
<time>2026-09-01T01:54:28.000Z</time>
</trkpt>
<trkpt lat="59.5318502" lon="31.2292239">
<ele>56.080002</ele>
<time>2026-09-01T01:54:58.000Z</time>
</trkpt>
<trkpt lat="59.5318233" lon="31.2292020">
<ele>54.279999</ele>
<time>2026-09-01T01:55:29.000Z</time>
</trkpt>
<trkpt lat="59.5318463" lon="31.2292091">
<ele>55.150002</ele>
<time>2026-09-01T01:56:06.000Z</time>
</trkpt>
<trkpt lat="59.5318320" lon="31.2292640">
<ele>52.950001</ele>
<time>2026-09-01T01:56:34.000Z</time>
</trkpt>
<trkpt lat="59.5318409" lon="31.2292582">
<ele>52.500000</ele>
<time>2026-09-01T01:57:12.000Z</time>
</trkpt>
<trkpt lat="59.5318297" lon="31.2293309">
<ele>53.739998</ele>
<time>2026-09-01T01:57:42.000Z</time>
</trkpt>
<trkpt lat="59.5319028" lon="31.2292618">
<ele>54.160000</ele>
<time>2026-09-01T01:58:16.000Z</time>
</trkpt>
<trkpt lat="59.5318968" lon="31.2291766">
<ele>55.889999</ele>
<time>2026-09-01T01:58:46.000Z</time>
</trkpt>
<trkpt lat="59.5318857" lon="31.2292155">
<ele>53.219997</ele>
<time>2026-09-01T01:59:17.000Z</time>
</trkpt>
<trkpt lat="59.5318483" lon="31.2293062">
<ele>50.779999</ele>
<time>2026-09-01T01:59:49.000Z</time>
</trkpt>
<trkpt lat="59.5318857" lon="31.2292428">
<ele>49.610001</ele>
<time>2026-09-01T02:00:06.000Z</time>
</trkpt>
<trkpt lat="59.5319116" lon="31.2292311">
<ele>52.030003</ele>
<time>2026-09-01T02:00:10.000Z</time>
</trkpt>
<trkpt lat="59.5319162" lon="31.2292015">
<ele>53.730000</ele>
<time>2026-09-01T02:00:24.000Z</time>
</trkpt>
<trkpt lat="59.5319560" lon="31.2291861">
<ele>53.920002</ele>
<time>2026-09-01T02:00:51.000Z</time>
</trkpt>
<trkpt lat="59.5319516" lon="31.2291837">
<ele>53.959999</ele>
<time>2026-09-01T02:01:25.000Z</time>
</trkpt>
<trkpt lat="59.5319140" lon="31.2291812">
<ele>53.990002</ele>
<time>2026-09-01T02:01:57.000Z</time>
</trkpt>
<trkpt lat="59.5318949" lon="31.2291424">
<ele>54.809998</ele>
<time>2026-09-01T02:02:28.000Z</time>
</trkpt>
<trkpt lat="59.5318800" lon="31.2291456">
<ele>54.990002</ele>
<time>2026-09-01T02:02:57.000Z</time>
</trkpt>
<trkpt lat="59.5318777" lon="31.2289318">
<ele>52.360001</ele>
<time>2026-09-01T02:03:26.000Z</time>
</trkpt>
<trkpt lat="59.5318691" lon="31.2286944">
<ele>49.719997</ele>
<time>2026-09-01T02:03:46.000Z</time>
</trkpt>
<trkpt lat="59.5318648" lon="31.2286831">
<ele>49.220001</ele>
<time>2026-09-01T02:04:15.000Z</time>
</trkpt>
<trkpt lat="59.5318259" lon="31.2288052">
<ele>48.489998</ele>
<time>2026-09-01T02:04:50.000Z</time>
</trkpt>
<trkpt lat="59.5318218" lon="31.2287290">
<ele>47.349998</ele>
<time>2026-09-01T02:05:20.000Z</time>
</trkpt>
<trkpt lat="59.5318253" lon="31.2285582">
<ele>47.419998</ele>
<time>2026-09-01T02:05:54.000Z</time>
</trkpt>
<trkpt lat="59.5320079" lon="31.2285598">
<ele>47.900002</ele>
<time>2026-09-01T02:06:36.000Z</time>
</trkpt>
<trkpt lat="59.5320065" lon="31.2285037">
<ele>47.649998</ele>
<time>2026-09-01T02:07:12.000Z</time>
</trkpt>
<trkpt lat="59.5318660" lon="31.2286706">
<ele>47.840000</ele>
<time>2026-09-01T02:07:53.000Z</time>
</trkpt>
<trkpt lat="59.5317282" lon="31.2287388">
<ele>49.919998</ele>
<time>2026-09-01T02:08:45.000Z</time>
</trkpt>
<trkpt lat="59.5318150" lon="31.2286660">
<ele>50.270000</ele>
<time>2026-09-01T02:09:12.000Z</time>
</trkpt>
<trkpt lat="59.5318709" lon="31.2287844">
<ele>50.249996</ele>
<time>2026-09-01T02:09:21.000Z</time>
</trkpt>
<trkpt lat="59.5319028" lon="31.2290483">
<ele>50.299999</ele>
<time>2026-09-01T02:09:27.000Z</time>
</trkpt>
<trkpt lat="59.5318774" lon="31.2292849">
<ele>50.090000</ele>
<time>2026-09-01T02:09:31.000Z</time>
</trkpt>
<trkpt lat="59.5318782" lon="31.2300943">
<ele>50.000000</ele>
<time>2026-09-01T02:09:48.000Z</time>
</trkpt>
<trkpt lat="59.5318924" lon="31.2307292">
<ele>49.459999</ele>
<time>2026-09-01T02:10:01.000Z</time>
</trkpt>
<trkpt lat="59.5318598" lon="31.2318731">
<ele>43.849998</ele>
<time>2026-09-01T02:10:17.000Z</time>
</trkpt>
<trkpt lat="59.5319269" lon="31.2325726">
<ele>40.430000</ele>
<time>2026-09-01T02:10:30.000Z</time>
</trkpt>
<trkpt lat="59.5320012" lon="31.2330705">
<ele>37.959999</ele>
<time>2026-09-01T02:10:43.000Z</time>
</trkpt>
<trkpt lat="59.5319396" lon="31.2340049">
<ele>31.850000</ele>
<time>2026-09-01T02:10:59.000Z</time>
</trkpt>
<trkpt lat="59.5320127" lon="31.2342131">
<ele>29.870001</ele>
<time>2026-09-01T02:11:06.000Z</time>
</trkpt>
<trkpt lat="59.5320950" lon="31.2346537">
<ele>22.740000</ele>
<time>2026-09-01T02:11:19.000Z</time>
</trkpt>
<trkpt lat="59.5322475" lon="31.2350215">
<ele>17.830000</ele>
<time>2026-09-01T02:11:31.000Z</time>
</trkpt>
<trkpt lat="59.5323497" lon="31.2353273">
<ele>14.360001</ele>
<time>2026-09-01T02:11:39.000Z</time>
</trkpt>
<trkpt lat="59.5325305" lon="31.2358466">
<ele>9.230000</ele>
<time>2026-09-01T02:11:53.000Z</time>
</trkpt>
<trkpt lat="59.5326958" lon="31.2363919">
<ele>4.270000</ele>
<time>2026-09-01T02:12:08.000Z</time>
</trkpt>
<trkpt lat="59.5329877" lon="31.2369929">
<ele>6.020000</ele>
<time>2026-09-01T02:12:22.000Z</time>
</trkpt>
<trkpt lat="59.5333120" lon="31.2378476">
<ele>16.389999</ele>
<time>2026-09-01T02:12:38.000Z</time>
</trkpt>
<trkpt lat="59.5334342" lon="31.2380637">
<ele>18.380001</ele>
<time>2026-09-01T02:12:49.000Z</time>
</trkpt>
<trkpt lat="59.5334555" lon="31.2380153">
<ele>24.850000</ele>
<time>2026-09-01T02:13:20.000Z</time>
</trkpt>
<trkpt lat="59.5336039" lon="31.2383168">
<ele>27.570002</ele>
<time>2026-09-01T02:13:40.000Z</time>
</trkpt>
<trkpt lat="59.5339978" lon="31.2393274">
<ele>28.170000</ele>
<time>2026-09-01T02:13:56.000Z</time>
</trkpt>
<trkpt lat="59.5344390" lon="31.2402098">
<ele>28.490000</ele>
<time>2026-09-01T02:14:09.000Z</time>
</trkpt>
<trkpt lat="59.5346055" lon="31.2405447">
<ele>29.440001</ele>
<time>2026-09-01T02:14:14.000Z</time>
</trkpt>
<trkpt lat="59.5347705" lon="31.2415890">
<ele>37.220001</ele>
<time>2026-09-01T02:14:28.000Z</time>
</trkpt>
<trkpt lat="59.5348115" lon="31.2423377">
<ele>42.260002</ele>
<time>2026-09-01T02:14:39.000Z</time>
</trkpt>
<trkpt lat="59.5345063" lon="31.2425502">
<ele>51.079998</ele>
<time>2026-09-01T02:14:50.000Z</time>
</trkpt>
<trkpt lat="59.5340151" lon="31.2426984">
<ele>55.959999</ele>
<time>2026-09-01T02:15:04.000Z</time>
</trkpt>
<trkpt lat="59.5336041" lon="31.2428159">
<ele>55.779999</ele>
<time>2026-09-01T02:15:16.000Z</time>
</trkpt>
<trkpt lat="59.5335802" lon="31.2429860">
<ele>55.559998</ele>
<time>2026-09-01T02:15:20.000Z</time>
</trkpt>
<trkpt lat="59.5335921" lon="31.2437508">
<ele>58.079998</ele>
<time>2026-09-01T02:15:35.000Z</time>
</trkpt>
<trkpt lat="59.5336079" lon="31.2444987">
<ele>57.329998</ele>
<time>2026-09-01T02:15:49.000Z</time>
</trkpt>
<trkpt lat="59.5337674" lon="31.2455992">
<ele>58.849998</ele>
<time>2026-09-01T02:16:05.000Z</time>
</trkpt>
<trkpt lat="59.5337860" lon="31.2456692">
<ele>58.590000</ele>
<time>2026-09-01T02:16:06.000Z</time>
</trkpt>
<trkpt lat="59.5338793" lon="31.2466823">
<ele>50.340000</ele>
<time>2026-09-01T02:16:21.000Z</time>
</trkpt>
<trkpt lat="59.5340323" lon="31.2475185">
<ele>51.389999</ele>
<time>2026-09-01T02:16:34.000Z</time>
</trkpt>
<trkpt lat="59.5340643" lon="31.2476613">
<ele>52.090000</ele>
<time>2026-09-01T02:16:36.000Z</time>
</trkpt>
<trkpt lat="59.5340873" lon="31.2478413">
<ele>53.100002</ele>
<time>2026-09-01T02:16:38.000Z</time>
</trkpt>
<trkpt lat="59.5340808" lon="31.2489768">
<ele>62.040001</ele>
<time>2026-09-01T02:16:53.000Z</time>
</trkpt>
<trkpt lat="59.5342179" lon="31.2491553">
<ele>62.080002</ele>
<time>2026-09-01T02:16:58.000Z</time>
</trkpt>
<trkpt lat="59.5348587" lon="31.2491977">
<ele>58.329998</ele>
<time>2026-09-01T02:17:08.000Z</time>
</trkpt>
<trkpt lat="59.5356672" lon="31.2493889">
<ele>58.280003</ele>
<time>2026-09-01T02:17:19.000Z</time>
</trkpt>
<trkpt lat="59.5367884" lon="31.2501193">
<ele>58.270000</ele>
<time>2026-09-01T02:17:29.000Z</time>
</trkpt>
<trkpt lat="59.5380931" lon="31.2514811">
<ele>54.990002</ele>
<time>2026-09-01T02:17:40.000Z</time>
</trkpt>
<trkpt lat="59.5399859" lon="31.2535784">
<ele>54.040001</ele>
<time>2026-09-01T02:17:56.000Z</time>
</trkpt>
<trkpt lat="59.5412357" lon="31.2543825">
<ele>52.299999</ele>
<time>2026-09-01T02:18:06.000Z</time>
</trkpt>
<trkpt lat="59.5430107" lon="31.2547729">
<ele>55.559998</ele>
<time>2026-09-01T02:18:17.000Z</time>
</trkpt>
<trkpt lat="59.5450266" lon="31.2551187">
<ele>55.739998</ele>
<time>2026-09-01T02:18:28.000Z</time>
</trkpt>
<trkpt lat="59.5476241" lon="31.2556591">
<ele>53.969997</ele>
<time>2026-09-01T02:18:42.000Z</time>
</trkpt>
<trkpt lat="59.5489309" lon="31.2568010">
<ele>55.020000</ele>
<time>2026-09-01T02:18:50.000Z</time>
</trkpt>
<trkpt lat="59.5504492" lon="31.2588058">
<ele>63.649998</ele>
<time>2026-09-01T02:19:00.000Z</time>
</trkpt>
<trkpt lat="59.5525831" lon="31.2616520">
<ele>62.799999</ele>
<time>2026-09-01T02:19:14.000Z</time>
</trkpt>
<trkpt lat="59.5540291" lon="31.2618644">
<ele>60.000000</ele>
<time>2026-09-01T02:19:22.000Z</time>
</trkpt>
<trkpt lat="59.5551329" lon="31.2614355">
<ele>60.349998</ele>
<time>2026-09-01T02:19:28.000Z</time>
</trkpt>
<trkpt lat="59.5566828" lon="31.2597937">
<ele>62.000000</ele>
<time>2026-09-01T02:19:38.000Z</time>
</trkpt>
<trkpt lat="59.5585292" lon="31.2577786">
<ele>62.259998</ele>
<time>2026-09-01T02:19:50.000Z</time>
</trkpt>
<trkpt lat="59.5599038" lon="31.2576466">
<ele>62.189999</ele>
<time>2026-09-01T02:19:58.000Z</time>
</trkpt>
<trkpt lat="59.5624087" lon="31.2576736">
<ele>60.850002</ele>
<time>2026-09-01T02:20:12.000Z</time>
</trkpt>
<trkpt lat="59.5643821" lon="31.2567212">
<ele>59.769997</ele>
<time>2026-09-01T02:20:23.000Z</time>
</trkpt>
</trkseg>
<trkseg>
<trkpt lat="60.1171416" lon="31.4046417">
<ele>105.410004</ele>
<time>2026-08-22T09:21:14.000Z</time>
</trkpt>
<trkpt lat="60.1170971" lon="31.4047771">
<ele>106.050003</ele>
<time>2026-08-22T09:21:15.000Z</time>
</trkpt>
<trkpt lat="60.1167141" lon="31.3996256">
<ele>108.349998</ele>
<time>2026-08-22T09:21:18.000Z</time>
</trkpt>
<trkpt lat="60.1163595" lon="31.3970521">
<ele>107.470001</ele>
<time>2026-08-22T09:21:21.000Z</time>
</trkpt>
<trkpt lat="60.1160469" lon="31.3944956">
<ele>107.389999</ele>
<time>2026-08-22T09:21:24.000Z</time>
</trkpt>
<trkpt lat="60.1153382" lon="31.3880332">
<ele>107.619995</ele>
<time>2026-08-22T09:21:34.000Z</time>
</trkpt>
<trkpt lat="60.1154354" lon="31.3836558">
<ele>105.769997</ele>
<time>2026-08-22T09:21:41.000Z</time>
</trkpt>
<trkpt lat="60.1155177" lon="31.3811651">
<ele>105.330002</ele>
<time>2026-08-22T09:21:45.000Z</time>
</trkpt>
<trkpt lat="60.1152297" lon="31.3787883">
<ele>107.440002</ele>
<time>2026-08-22T09:21:49.000Z</time>
</trkpt>
<trkpt lat="60.1151175" lon="31.3770266">
<ele>107.639999</ele>
<time>2026-08-22T09:21:52.000Z</time>
</trkpt>
<trkpt lat="60.1158080" lon="31.3747729">
<ele>106.190002</ele>
<time>2026-08-22T09:21:56.000Z</time>
</trkpt>
<trkpt lat="60.1158953" lon="31.3717752">
<ele>103.059998</ele>
<time>2026-08-22T09:22:01.000Z</time>
</trkpt>
<trkpt lat="60.1158613" lon="31.3699484">
<ele>102.169998</ele>
<time>2026-08-22T09:22:04.000Z</time>
</trkpt>
<trkpt lat="60.1159590" lon="31.3694181">
<ele>101.630005</ele>
<time>2026-08-22T09:22:05.000Z</time>
</trkpt>
<trkpt lat="60.1185668" lon="31.3716121">
<ele>97.650002</ele>
<time>2026-08-22T09:22:13.000Z</time>
</trkpt>
<trkpt lat="60.1192161" lon="31.3730821">
<ele>98.669998</ele>
<time>2026-08-22T09:22:16.000Z</time>
</trkpt>
<trkpt lat="60.1184709" lon="31.3762829">
<ele>96.389992</ele>
<time>2026-08-22T09:22:20.000Z</time>
</trkpt>
<trkpt lat="60.1178507" lon="31.3803730">
<ele>92.820000</ele>
<time>2026-08-22T09:22:26.000Z</time>
</trkpt>
<trkpt lat="60.1182081" lon="31.3839831">
<ele>90.460007</ele>
<time>2026-08-22T09:22:32.000Z</time>
</trkpt>
<trkpt lat="60.1186079" lon="31.3875142">
<ele>89.440002</ele>
<time>2026-08-22T09:22:38.000Z</time>
</trkpt>
<trkpt lat="60.1186485" lon="31.3893167">
<ele>89.779999</ele>
<time>2026-08-22T09:22:41.000Z</time>
</trkpt>
<trkpt lat="60.1182730" lon="31.3968129">
<ele>97.279999</ele>
<time>2026-08-22T09:22:53.000Z</time>
</trkpt>
<trkpt lat="60.1176849" lon="31.4003368">
<ele>104.060005</ele>
<time>2026-08-22T09:22:59.000Z</time>
</trkpt>
<trkpt lat="60.1165202" lon="31.4058042">
<ele>105.910004</ele>
<time>2026-08-22T09:23:09.000Z</time>
</trkpt>
<trkpt lat="60.1161476" lon="31.3956313">
<ele>83.579994</ele>
<time>2026-08-22T09:23:15.000Z</time>
</trkpt>
<trkpt lat="60.1160246" lon="31.3941836">
<ele>88.050003</ele>
<time>2026-08-22T09:23:17.000Z</time>
</trkpt>
<trkpt lat="60.1153334" lon="31.3880489">
<ele>94.740005</ele>
<time>2026-08-22T09:23:27.000Z</time>
</trkpt>
<trkpt lat="60.1154284" lon="31.3836535">
<ele>97.780006</ele>
<time>2026-08-22T09:23:34.000Z</time>
</trkpt>
<trkpt lat="60.1155196" lon="31.3811132">
<ele>99.589996</ele>
<time>2026-08-22T09:23:38.000Z</time>
</trkpt>
<trkpt lat="60.1153301" lon="31.3792768">
<ele>102.750000</ele>
<time>2026-08-22T09:23:41.000Z</time>
</trkpt>
<trkpt lat="60.1151986" lon="31.3775224">
<ele>102.960007</ele>
<time>2026-08-22T09:23:44.000Z</time>
</trkpt>
<trkpt lat="60.1158116" lon="31.3752793">
<ele>101.209999</ele>
<time>2026-08-22T09:23:48.000Z</time>
</trkpt>
<trkpt lat="60.1159690" lon="31.3747043">
<ele>100.189995</ele>
<time>2026-08-22T09:23:49.000Z</time>
</trkpt>
<trkpt lat="60.1159072" lon="31.3716787">
<ele>100.470001</ele>
<time>2026-08-22T09:23:54.000Z</time>
</trkpt>
<trkpt lat="60.1158534" lon="31.3698431">
<ele>99.409996</ele>
<time>2026-08-22T09:23:57.000Z</time>
</trkpt>
<trkpt lat="60.1159844" lon="31.3693452">
<ele>98.979996</ele>
<time>2026-08-22T09:23:58.000Z</time>
</trkpt>
<trkpt lat="60.1185084" lon="31.3714117">
<ele>95.060005</ele>
<time>2026-08-22T09:24:06.000Z</time>
</trkpt>
<trkpt lat="60.1187971" lon="31.3722997">
<ele>95.139999</ele>
<time>2026-08-22T09:24:07.000Z</time>
</trkpt>
<trkpt lat="60.1184938" lon="31.3751850">
<ele>88.279999</ele>
<time>2026-08-22T09:24:11.000Z</time>
</trkpt>
<trkpt lat="60.1182633" lon="31.3759778">
<ele>88.030006</ele>
<time>2026-08-22T09:24:12.000Z</time>
</trkpt>
<trkpt lat="60.1177239" lon="31.3823739">
<ele>87.410004</ele>
<time>2026-08-22T09:24:22.000Z</time>
</trkpt>
<trkpt lat="60.1176740" lon="31.3846290">
<ele>86.650002</ele>
<time>2026-08-22T09:24:26.000Z</time>
</trkpt>
<trkpt lat="60.1182802" lon="31.3875489">
<ele>90.110001</ele>
<time>2026-08-22T09:24:31.000Z</time>
</trkpt>
<trkpt lat="60.1182757" lon="31.3944053">
<ele>95.919998</ele>
<time>2026-08-22T09:24:42.000Z</time>
</trkpt>
<trkpt lat="60.1182520" lon="31.3968917">
<ele>98.629997</ele>
<time>2026-08-22T09:24:46.000Z</time>
</trkpt>
<trkpt lat="60.1173982" lon="31.4022067">
<ele>99.439995</ele>
<time>2026-08-22T09:24:55.000Z</time>
</trkpt>
<trkpt lat="60.1169529" lon="31.4047878">
<ele>100.990005</ele>
<time>2026-08-22T09:25:00.000Z</time>
</trkpt>
<trkpt lat="60.1161912" lon="31.4001443">
<ele>104.239998</ele>
<time>2026-08-22T09:25:04.000Z</time>
</trkpt>
<trkpt lat="60.1161705" lon="31.3963564">
<ele>103.079994</ele>
<time>2026-08-22T09:25:07.000Z</time>
</trkpt>
<trkpt lat="60.1160923" lon="31.3953433">
<ele>103.290001</ele>
<time>2026-08-22T09:25:08.000Z</time>
</trkpt>
<trkpt lat="60.1154163" lon="31.3884119">
<ele>106.310005</ele>
<time>2026-08-22T09:25:19.000Z</time>
</trkpt>
<trkpt lat="60.1155022" lon="31.3834032">
<ele>106.269997</ele>
<time>2026-08-22T09:25:27.000Z</time>
</trkpt>
<trkpt lat="60.1155815" lon="31.3796988">
<ele>106.409996</ele>
<time>2026-08-22T09:25:33.000Z</time>
</trkpt>
<trkpt lat="60.1149901" lon="31.3749863">
<ele>107.430000</ele>
<time>2026-08-22T09:25:41.000Z</time>
</trkpt>
<trkpt lat="60.1155068" lon="31.3703473">
<ele>106.809998</ele>
<time>2026-08-22T09:25:49.000Z</time>
</trkpt>
<trkpt lat="60.1156030" lon="31.3692998">
<ele>107.389999</ele>
<time>2026-08-22T09:25:51.000Z</time>
</trkpt>
<trkpt lat="60.1179736" lon="31.3687627">
<ele>108.279999</ele>
<time>2026-08-22T09:25:56.000Z</time>
</trkpt>
<trkpt lat="60.1187792" lon="31.3709438">
<ele>108.849998</ele>
<time>2026-08-22T09:25:58.000Z</time>
</trkpt>
<trkpt lat="60.1186259" lon="31.3724524">
<ele>108.760002</ele>
<time>2026-08-22T09:26:00.000Z</time>
</trkpt>
<trkpt lat="60.1180770" lon="31.3752541">
<ele>109.619995</ele>
<time>2026-08-22T09:26:03.000Z</time>
</trkpt>
<trkpt lat="60.1175917" lon="31.3804885">
<ele>108.519997</ele>
<time>2026-08-22T09:26:11.000Z</time>
</trkpt>
<trkpt lat="60.1180747" lon="31.3826437">
<ele>106.029999</ele>
<time>2026-08-22T09:26:15.000Z</time>
</trkpt>
<trkpt lat="60.1182614" lon="31.3835875">
<ele>106.869995</ele>
<time>2026-08-22T09:26:17.000Z</time>
</trkpt>
<trkpt lat="60.1181859" lon="31.3851567">
<ele>106.099998</ele>
<time>2026-08-22T09:26:20.000Z</time>
</trkpt>
<trkpt lat="60.1183412" lon="31.3869253">
<ele>105.240005</ele>
<time>2026-08-22T09:26:23.000Z</time>
</trkpt>
<trkpt lat="60.1183427" lon="31.3907051">
<ele>107.750000</ele>
<time>2026-08-22T09:26:29.000Z</time>
</trkpt>
<trkpt lat="60.1182765" lon="31.3975472">
<ele>110.290001</ele>
<time>2026-08-22T09:26:40.000Z</time>
</trkpt>
<trkpt lat="60.1175271" lon="31.4016987">
<ele>110.150002</ele>
<time>2026-08-22T09:26:47.000Z</time>
</trkpt>
<trkpt lat="60.1174152" lon="31.4022925">
<ele>109.769997</ele>
<time>2026-08-22T09:26:48.000Z</time>
</trkpt>
<trkpt lat="60.1171111" lon="31.4047576">
<ele>109.250000</ele>
<time>2026-08-22T09:26:53.000Z</time>
</trkpt>
<trkpt lat="60.1166760" lon="31.4012206">
<ele>111.650002</ele>
<time>2026-08-22T09:26:57.000Z</time>
</trkpt>
<trkpt lat="60.1165333" lon="31.3974538">
<ele>111.370003</ele>
<time>2026-08-22T09:26:58.000Z</time>
</trkpt>
<trkpt lat="60.1162355" lon="31.3958872">
<ele>111.360001</ele>
<time>2026-08-22T09:27:00.000Z</time>
</trkpt>
<trkpt lat="60.1155096" lon="31.3895769">
<ele>112.489998</ele>
<time>2026-08-22T09:27:10.000Z</time>
</trkpt>
<trkpt lat="60.1152342" lon="31.3864951">
<ele>113.040001</ele>
<time>2026-08-22T09:27:15.000Z</time>
</trkpt>
<trkpt lat="60.1155203" lon="31.3814438">
<ele>111.119995</ele>
<time>2026-08-22T09:27:23.000Z</time>
</trkpt>
<trkpt lat="60.1152740" lon="31.3790290">
<ele>113.310005</ele>
<time>2026-08-22T09:27:27.000Z</time>
</trkpt>
<trkpt lat="60.1157529" lon="31.3768358">
<ele>112.349998</ele>
<time>2026-08-22T09:27:31.000Z</time>
</trkpt>
<trkpt lat="60.1164019" lon="31.3727526">
<ele>113.559998</ele>
<time>2026-08-22T09:27:38.000Z</time>
</trkpt>
<trkpt lat="60.1163261" lon="31.3703059">
<ele>114.979996</ele>
<time>2026-08-22T09:27:42.000Z</time>
</trkpt>
<trkpt lat="60.1163800" lon="31.3680870">
<ele>115.869995</ele>
<time>2026-08-22T09:27:46.000Z</time>
</trkpt>
<trkpt lat="60.1187472" lon="31.3703472">
<ele>117.029999</ele>
<time>2026-08-22T09:27:51.000Z</time>
</trkpt>
<trkpt lat="60.1190153" lon="31.3708009">
<ele>117.269997</ele>
<time>2026-08-22T09:27:52.000Z</time>
</trkpt>
<trkpt lat="60.1195884" lon="31.3720226">
<ele>118.700005</ele>
<time>2026-08-22T09:27:57.000Z</time>
</trkpt>
<trkpt lat="60.1178014" lon="31.3784820">
<ele>118.889999</ele>
<time>2026-08-22T09:28:01.000Z</time>
</trkpt>
<trkpt lat="60.1176925" lon="31.3810331">
<ele>119.389999</ele>
<time>2026-08-22T09:28:05.000Z</time>
</trkpt>
<trkpt lat="60.1179240" lon="31.3837302">
<ele>119.049995</ele>
<time>2026-08-22T09:28:10.000Z</time>
</trkpt>
<trkpt lat="60.1184561" lon="31.3871965">
<ele>118.029999</ele>
<time>2026-08-22T09:28:16.000Z</time>
</trkpt>
<trkpt lat="60.1183905" lon="31.3908219">
<ele>118.190002</ele>
<time>2026-08-22T09:28:22.000Z</time>
</trkpt>
<trkpt lat="60.1182502" lon="31.3970671">
<ele>112.779999</ele>
<time>2026-08-22T09:28:32.000Z</time>
</trkpt>
<trkpt lat="60.1173535" lon="31.4023884">
<ele>110.320000</ele>
<time>2026-08-22T09:28:41.000Z</time>
</trkpt>
<trkpt lat="60.1172580" lon="31.4034693">
<ele>109.909996</ele>
<time>2026-08-22T09:28:43.000Z</time>
</trkpt>
<trkpt lat="60.1167839" lon="31.4028118">
<ele>107.290001</ele>
<time>2026-08-22T09:28:47.000Z</time>
</trkpt>
<trkpt lat="60.1165399" lon="31.4018469">
<ele>97.239998</ele>
<time>2026-08-22T09:28:48.000Z</time>
</trkpt>
<trkpt lat="60.1156971" lon="31.3905745">
<ele>110.120003</ele>
<time>2026-08-22T09:29:01.000Z</time>
</trkpt>
<trkpt lat="60.1154260" lon="31.3881207">
<ele>108.510002</ele>
<time>2026-08-22T09:29:05.000Z</time>
</trkpt>
<trkpt lat="60.1155669" lon="31.3806570">
<ele>104.279999</ele>
<time>2026-08-22T09:29:17.000Z</time>
</trkpt>
<trkpt lat="60.1153169" lon="31.3788748">
<ele>106.070000</ele>
<time>2026-08-22T09:29:20.000Z</time>
</trkpt>
<trkpt lat="60.1153356" lon="31.3771814">
<ele>107.750000</ele>
<time>2026-08-22T09:29:23.000Z</time>
</trkpt>
<trkpt lat="60.1160979" lon="31.3743189">
<ele>109.730003</ele>
<time>2026-08-22T09:29:28.000Z</time>
</trkpt>
<trkpt lat="60.1159368" lon="31.3712782">
<ele>111.290001</ele>
<time>2026-08-22T09:29:33.000Z</time>
</trkpt>
<trkpt lat="60.1160146" lon="31.3695575">
<ele>111.580002</ele>
<time>2026-08-22T09:29:36.000Z</time>
</trkpt>
<trkpt lat="60.1182843" lon="31.3714662">
<ele>111.269997</ele>
<time>2026-08-22T09:29:43.000Z</time>
</trkpt>
<trkpt lat="60.1190340" lon="31.3728503">
<ele>111.940002</ele>
<time>2026-08-22T09:29:46.000Z</time>
</trkpt>
<trkpt lat="60.1192940" lon="31.3737826">
<ele>112.139999</ele>
<time>2026-08-22T09:29:48.000Z</time>
</trkpt>
<trkpt lat="60.1187436" lon="31.3766852">
<ele>112.290001</ele>
<time>2026-08-22T09:29:52.000Z</time>
</trkpt>
<trkpt lat="60.1177921" lon="31.3804326">
<ele>106.160004</ele>
<time>2026-08-22T09:29:57.000Z</time>
</trkpt>
<trkpt lat="60.1183026" lon="31.3820510">
<ele>105.130005</ele>
<time>2026-08-22T09:30:00.000Z</time>
</trkpt>
<trkpt lat="60.1183195" lon="31.3843097">
<ele>105.180000</ele>
<time>2026-08-22T09:30:04.000Z</time>
</trkpt>
<trkpt lat="60.1183393" lon="31.3848885">
<ele>105.309998</ele>
<time>2026-08-22T09:30:05.000Z</time>
</trkpt>
<trkpt lat="60.1184541" lon="31.3872098">
<ele>102.510002</ele>
<time>2026-08-22T09:30:09.000Z</time>
</trkpt>
<trkpt lat="60.1182450" lon="31.3966006">
<ele>98.290001</ele>
<time>2026-08-22T09:30:24.000Z</time>
</trkpt>
<trkpt lat="60.1182285" lon="31.3972212">
<ele>98.479996</ele>
<time>2026-08-22T09:30:25.000Z</time>
</trkpt>
<trkpt lat="60.1170613" lon="31.4042420">
<ele>99.340004</ele>
<time>2026-08-22T09:30:37.000Z</time>
</trkpt>
<trkpt lat="60.1169507" lon="31.4048224">
<ele>100.639999</ele>
<time>2026-08-22T09:30:40.000Z</time>
</trkpt>
<trkpt lat="60.1169051" lon="31.4043101">
<ele>101.099998</ele>
<time>2026-08-22T09:30:41.000Z</time>
</trkpt>
<trkpt lat="60.1160981" lon="31.3940878">
<ele>105.199997</ele>
<time>2026-08-22T09:30:48.000Z</time>
</trkpt>
<trkpt lat="60.1154119" lon="31.3880091">
<ele>105.959999</ele>
<time>2026-08-22T09:30:58.000Z</time>
</trkpt>
<trkpt lat="60.1154908" lon="31.3830447">
<ele>106.820000</ele>
<time>2026-08-22T09:31:06.000Z</time>
</trkpt>
<trkpt lat="60.1155504" lon="31.3805405">
<ele>106.920006</ele>
<time>2026-08-22T09:31:10.000Z</time>
</trkpt>
<trkpt lat="60.1151181" lon="31.3765124">
<ele>109.849998</ele>
<time>2026-08-22T09:31:17.000Z</time>
</trkpt>
<trkpt lat="60.1160792" lon="31.3736329">
<ele>110.059998</ele>
<time>2026-08-22T09:31:22.000Z</time>
</trkpt>
<trkpt lat="60.1162084" lon="31.3724344">
<ele>110.620003</ele>
<time>2026-08-22T09:31:24.000Z</time>
</trkpt>
<trkpt lat="60.1160092" lon="31.3712353">
<ele>109.440002</ele>
<time>2026-08-22T09:31:26.000Z</time>
</trkpt>
<trkpt lat="60.1162673" lon="31.3696220">
<ele>109.690002</ele>
<time>2026-08-22T09:31:29.000Z</time>
</trkpt>
<trkpt lat="60.1180317" lon="31.3690147">
<ele>112.779999</ele>
<time>2026-08-22T09:31:34.000Z</time>
</trkpt>
<trkpt lat="60.1187976" lon="31.3712652">
<ele>112.720001</ele>
<time>2026-08-22T09:31:37.000Z</time>
</trkpt>
<trkpt lat="60.1188405" lon="31.3732191">
<ele>115.849998</ele>
<time>2026-08-22T09:31:40.000Z</time>
</trkpt>
<trkpt lat="60.1181160" lon="31.3766101">
<ele>115.110001</ele>
<time>2026-08-22T09:31:44.000Z</time>
</trkpt>
<trkpt lat="60.1176225" lon="31.3814007">
<ele>113.860001</ele>
<time>2026-08-22T09:31:51.000Z</time>
</trkpt>
<trkpt lat="60.1183293" lon="31.3832877">
<ele>113.040001</ele>
<time>2026-08-22T09:31:55.000Z</time>
</trkpt>
<trkpt lat="60.1187113" lon="31.3870701">
<ele>111.050003</ele>
<time>2026-08-22T09:32:02.000Z</time>
</trkpt>
<trkpt lat="60.1188037" lon="31.3876535">
<ele>111.309998</ele>
<time>2026-08-22T09:32:03.000Z</time>
</trkpt>
<trkpt lat="60.1183576" lon="31.3928369">
<ele>105.989998</ele>
<time>2026-08-22T09:32:11.000Z</time>
</trkpt>
<trkpt lat="60.1182747" lon="31.3966209">
<ele>105.349998</ele>
<time>2026-08-22T09:32:17.000Z</time>
</trkpt>
<trkpt lat="60.1177755" lon="31.4002001">
<ele>105.700005</ele>
<time>2026-08-22T09:32:23.000Z</time>
</trkpt>
<trkpt lat="60.1172662" lon="31.4031493">
<ele>106.310005</ele>
<time>2026-08-22T09:32:28.000Z</time>
</trkpt>
<trkpt lat="60.1167548" lon="31.3989622">
<ele>113.589996</ele>
<time>2026-08-22T09:32:33.000Z</time>
</trkpt>
<trkpt lat="60.1163048" lon="31.3958494">
<ele>110.500000</ele>
<time>2026-08-22T09:32:38.000Z</time>
</trkpt>
<trkpt lat="60.1154023" lon="31.3879259">
<ele>108.699997</ele>
<time>2026-08-22T09:32:51.000Z</time>
</trkpt>
<trkpt lat="60.1154376" lon="31.3835789">
<ele>106.860001</ele>
<time>2026-08-22T09:32:58.000Z</time>
</trkpt>
<trkpt lat="60.1155155" lon="31.3810506">
<ele>106.970001</ele>
<time>2026-08-22T09:33:02.000Z</time>
</trkpt>
<trkpt lat="60.1150613" lon="31.3769810">
<ele>104.889999</ele>
<time>2026-08-22T09:33:09.000Z</time>
</trkpt>
<trkpt lat="60.1158040" lon="31.3740883">
<ele>103.300003</ele>
<time>2026-08-22T09:33:14.000Z</time>
</trkpt>
<trkpt lat="60.1158851" lon="31.3735053">
<ele>103.169998</ele>
<time>2026-08-22T09:33:15.000Z</time>
</trkpt>
<trkpt lat="60.1159809" lon="31.3711750">
<ele>102.239998</ele>
<time>2026-08-22T09:33:19.000Z</time>
</trkpt>
<trkpt lat="60.1161878" lon="31.3700971">
<ele>101.600006</ele>
<time>2026-08-22T09:33:21.000Z</time>
</trkpt>
<trkpt lat="60.1168997" lon="31.3687348">
<ele>101.519997</ele>
<time>2026-08-22T09:33:24.000Z</time>
</trkpt>
<trkpt lat="60.1183703" lon="31.3692429">
<ele>101.849998</ele>
<time>2026-08-22T09:33:28.000Z</time>
</trkpt>
<trkpt lat="60.1188874" lon="31.3721879">
<ele>101.310005</ele>
<time>2026-08-22T09:33:30.000Z</time>
</trkpt>
<trkpt lat="60.1188443" lon="31.3752047">
<ele>105.629997</ele>
<time>2026-08-22T09:33:35.000Z</time>
</trkpt>
<trkpt lat="60.1182344" lon="31.3769018">
<ele>103.339996</ele>
<time>2026-08-22T09:33:37.000Z</time>
</trkpt>
<trkpt lat="60.1176296" lon="31.3809727">
<ele>102.950005</ele>
<time>2026-08-22T09:33:43.000Z</time>
</trkpt>
<trkpt lat="60.1178691" lon="31.3832644">
<ele>99.779999</ele>
<time>2026-08-22T09:33:47.000Z</time>
</trkpt>
<trkpt lat="60.1178281" lon="31.3853631">
<ele>98.129997</ele>
<time>2026-08-22T09:33:51.000Z</time>
</trkpt>
<trkpt lat="60.1181398" lon="31.3871578">
<ele>96.110001</ele>
<time>2026-08-22T09:33:54.000Z</time>
</trkpt>
<trkpt lat="60.1182787" lon="31.3908365">
<ele>100.629997</ele>
<time>2026-08-22T09:34:00.000Z</time>
</trkpt>
<trkpt lat="60.1182452" lon="31.3968679">
<ele>105.560005</ele>
<time>2026-08-22T09:34:10.000Z</time>
</trkpt>
<trkpt lat="60.1174054" lon="31.4021827">
<ele>105.120003</ele>
<time>2026-08-22T09:34:19.000Z</time>
</trkpt>
<trkpt lat="60.1170792" lon="31.4042774">
<ele>107.290001</ele>
<time>2026-08-22T09:34:23.000Z</time>
</trkpt>
<trkpt lat="60.1166756" lon="31.3994339">
<ele>112.420006</ele>
<time>2026-08-22T09:34:27.000Z</time>
</trkpt>
<trkpt lat="60.1164641" lon="31.3972284">
<ele>112.529999</ele>
<time>2026-08-22T09:34:30.000Z</time>
</trkpt>
<trkpt lat="60.1163059" lon="31.3956501">
<ele>112.369995</ele>
<time>2026-08-22T09:34:32.000Z</time>
</trkpt>
<trkpt lat="60.1153898" lon="31.3878473">
<ele>109.820007</ele>
<time>2026-08-22T09:34:44.000Z</time>
</trkpt>
<trkpt lat="60.1155481" lon="31.3809841">
<ele>108.360001</ele>
<time>2026-08-22T09:34:55.000Z</time>
</trkpt>
<trkpt lat="60.1152048" lon="31.3779995">
<ele>110.110008</ele>
<time>2026-08-22T09:35:00.000Z</time>
</trkpt>
<trkpt lat="60.1151602" lon="31.3769163">
<ele>110.369995</ele>
<time>2026-08-22T09:35:02.000Z</time>
</trkpt>
<trkpt lat="60.1159789" lon="31.3739985">
<ele>112.260002</ele>
<time>2026-08-22T09:35:07.000Z</time>
</trkpt>
<trkpt lat="60.1162271" lon="31.3721728">
<ele>113.330002</ele>
<time>2026-08-22T09:35:10.000Z</time>
</trkpt>
<trkpt lat="60.1161327" lon="31.3703801">
<ele>115.579994</ele>
<time>2026-08-22T09:35:13.000Z</time>
</trkpt>
<trkpt lat="60.1164072" lon="31.3687720">
<ele>117.029999</ele>
<time>2026-08-22T09:35:16.000Z</time>
</trkpt>
<trkpt lat="60.1181981" lon="31.3693572">
<ele>118.190002</ele>
<time>2026-08-22T09:35:20.000Z</time>
</trkpt>
<trkpt lat="60.1190755" lon="31.3716037">
<ele>119.639999</ele>
<time>2026-08-22T09:35:23.000Z</time>
</trkpt>
<trkpt lat="60.1186715" lon="31.3743882">
<ele>122.549995</ele>
<time>2026-08-22T09:35:27.000Z</time>
</trkpt>
<trkpt lat="60.1179968" lon="31.3770876">
<ele>122.770004</ele>
<time>2026-08-22T09:35:30.000Z</time>
</trkpt>
<trkpt lat="60.1176460" lon="31.3809950">
<ele>118.570000</ele>
<time>2026-08-22T09:35:36.000Z</time>
</trkpt>
<trkpt lat="60.1180829" lon="31.3831460">
<ele>116.279999</ele>
<time>2026-08-22T09:35:40.000Z</time>
</trkpt>
<trkpt lat="60.1180573" lon="31.3852502">
<ele>115.669998</ele>
<time>2026-08-22T09:35:44.000Z</time>
</trkpt>
<trkpt lat="60.1183509" lon="31.3869930">
<ele>114.629997</ele>
<time>2026-08-22T09:35:47.000Z</time>
</trkpt>
<trkpt lat="60.1183786" lon="31.3906912">
<ele>111.889999</ele>
<time>2026-08-22T09:35:53.000Z</time>
</trkpt>
<trkpt lat="60.1182575" lon="31.3969241">
<ele>106.680000</ele>
<time>2026-08-22T09:36:03.000Z</time>
</trkpt>
<trkpt lat="60.1172944" lon="31.4028385">
<ele>107.530006</ele>
<time>2026-08-22T09:36:13.000Z</time>
</trkpt>
<trkpt lat="60.1170399" lon="31.4044328">
<ele>109.629997</ele>
<time>2026-08-22T09:36:16.000Z</time>
</trkpt>
<trkpt lat="60.1161198" lon="31.4024474">
<ele>115.250000</ele>
<time>2026-08-22T09:36:20.000Z</time>
</trkpt>
<trkpt lat="60.1158113" lon="31.3977443">
<ele>116.440002</ele>
<time>2026-08-22T09:36:24.000Z</time>
</trkpt>
<trkpt lat="60.1160511" lon="31.3945907">
<ele>115.660004</ele>
<time>2026-08-22T09:36:26.000Z</time>
</trkpt>
<trkpt lat="60.1153743" lon="31.3877623">
<ele>112.180000</ele>
<time>2026-08-22T09:36:37.000Z</time>
</trkpt>
<trkpt lat="60.1155713" lon="31.3808739">
<ele>110.110008</ele>
<time>2026-08-22T09:36:48.000Z</time>
</trkpt>
<trkpt lat="60.1153183" lon="31.3784677">
<ele>110.239998</ele>
<time>2026-08-22T09:36:52.000Z</time>
</trkpt>
<trkpt lat="60.1152015" lon="31.3767146">
<ele>108.940002</ele>
<time>2026-08-22T09:36:55.000Z</time>
</trkpt>
<trkpt lat="60.1159733" lon="31.3744990">
<ele>109.559998</ele>
<time>2026-08-22T09:36:59.000Z</time>
</trkpt>
<trkpt lat="60.1161853" lon="31.3727198">
<ele>109.060005</ele>
<time>2026-08-22T09:37:02.000Z</time>
</trkpt>
<trkpt lat="60.1160720" lon="31.3714999">
<ele>109.489998</ele>
<time>2026-08-22T09:37:04.000Z</time>
</trkpt>
<trkpt lat="60.1167426" lon="31.3689803">
<ele>108.500000</ele>
<time>2026-08-22T09:37:09.000Z</time>
</trkpt>
<trkpt lat="60.1179315" lon="31.3687042">
<ele>106.839996</ele>
<time>2026-08-22T09:37:12.000Z</time>
</trkpt>
<trkpt lat="60.1189943" lon="31.3729073">
<ele>107.530006</ele>
<time>2026-08-22T09:37:18.000Z</time>
</trkpt>
<trkpt lat="60.1180803" lon="31.3759055">
<ele>105.189995</ele>
<time>2026-08-22T09:37:21.000Z</time>
</trkpt>
<trkpt lat="60.1179746" lon="31.3766355">
<ele>104.889999</ele>
<time>2026-08-22T09:37:22.000Z</time>
</trkpt>
<trkpt lat="60.1175907" lon="31.3812279">
<ele>105.639999</ele>
<time>2026-08-22T09:37:29.000Z</time>
</trkpt>
<trkpt lat="60.1183374" lon="31.3835980">
<ele>99.450005</ele>
<time>2026-08-22T09:37:34.000Z</time>
</trkpt>
<trkpt lat="60.1184983" lon="31.3870966">
<ele>95.050003</ele>
<time>2026-08-22T09:37:40.000Z</time>
</trkpt>
<trkpt lat="60.1182621" lon="31.3957954">
<ele>98.649994</ele>
<time>2026-08-22T09:37:54.000Z</time>
</trkpt>
<trkpt lat="60.1182485" lon="31.3970368">
<ele>99.409996</ele>
<time>2026-08-22T09:37:56.000Z</time>
</trkpt>
<trkpt lat="60.1173618" lon="31.4023389">
<ele>101.719994</ele>
<time>2026-08-22T09:38:05.000Z</time>
</trkpt>
<trkpt lat="60.1168293" lon="31.4004254">
<ele>105.300003</ele>
<time>2026-08-22T09:38:11.000Z</time>
</trkpt>
<trkpt lat="60.1166432" lon="31.3981553">
<ele>106.250000</ele>
<time>2026-08-22T09:38:14.000Z</time>
</trkpt>
<trkpt lat="60.1163491" lon="31.3953552">
<ele>106.559998</ele>
<time>2026-08-22T09:38:18.000Z</time>
</trkpt>
<trkpt lat="60.1156230" lon="31.3900438">
<ele>109.019997</ele>
<time>2026-08-22T09:38:26.000Z</time>
</trkpt>
<trkpt lat="60.1154205" lon="31.3882078">
<ele>109.009995</ele>
<time>2026-08-22T09:38:29.000Z</time>
</trkpt>
<trkpt lat="60.1155141" lon="31.3832107">
<ele>107.739998</ele>
<time>2026-08-22T09:38:37.000Z</time>
</trkpt>
<trkpt lat="60.1155707" lon="31.3807372">
<ele>105.710007</ele>
<time>2026-08-22T09:38:41.000Z</time>
</trkpt>
<trkpt lat="60.1152313" lon="31.3778400">
<ele>106.040001</ele>
<time>2026-08-22T09:38:46.000Z</time>
</trkpt>
<trkpt lat="60.1159224" lon="31.3750327">
<ele>103.560005</ele>
<time>2026-08-22T09:38:51.000Z</time>
</trkpt>
<trkpt lat="60.1162334" lon="31.3725992">
<ele>103.160004</ele>
<time>2026-08-22T09:38:55.000Z</time>
</trkpt>
<trkpt lat="60.1160414" lon="31.3713849">
<ele>102.900002</ele>
<time>2026-08-22T09:38:57.000Z</time>
</trkpt>
<trkpt lat="60.1163332" lon="31.3698106">
<ele>102.120003</ele>
<time>2026-08-22T09:39:00.000Z</time>
</trkpt>
<trkpt lat="60.1183866" lon="31.3714339">
<ele>102.929993</ele>
<time>2026-08-22T09:39:08.000Z</time>
</trkpt>
<trkpt lat="60.1189766" lon="31.3726898">
<ele>104.209999</ele>
<time>2026-08-22T09:39:11.000Z</time>
</trkpt>
<trkpt lat="60.1185466" lon="31.3755186">
<ele>105.270004</ele>
<time>2026-08-22T09:39:15.000Z</time>
</trkpt>
<trkpt lat="60.1183981" lon="31.3762959">
<ele>105.169998</ele>
<time>2026-08-22T09:39:16.000Z</time>
</trkpt>
<trkpt lat="60.1178556" lon="31.3806544">
<ele>104.680000</ele>
<time>2026-08-22T09:39:22.000Z</time>
</trkpt>
<trkpt lat="60.1175291" lon="31.3831112">
<ele>102.029999</ele>
<time>2026-08-22T09:39:26.000Z</time>
</trkpt>
<trkpt lat="60.1170012" lon="31.3851413">
<ele>102.269997</ele>
<time>2026-08-22T09:39:30.000Z</time>
</trkpt>
<trkpt lat="60.1180423" lon="31.3877163">
<ele>102.009995</ele>
<time>2026-08-22T09:39:34.000Z</time>
</trkpt>
<trkpt lat="60.1181311" lon="31.3945927">
<ele>96.760002</ele>
<time>2026-08-22T09:39:45.000Z</time>
</trkpt>
<trkpt lat="60.1181000" lon="31.3970953">
<ele>93.039993</ele>
<time>2026-08-22T09:39:49.000Z</time>
</trkpt>
<trkpt lat="60.1170284" lon="31.4043258">
<ele>94.070000</ele>
<time>2026-08-22T09:40:03.000Z</time>
</trkpt>
<trkpt lat="60.1162683" lon="31.3962473">
<ele>112.209999</ele>
<time>2026-08-22T09:40:09.000Z</time>
</trkpt>
<trkpt lat="60.1156119" lon="31.3899019">
<ele>107.760002</ele>
<time>2026-08-22T09:40:19.000Z</time>
</trkpt>
<trkpt lat="60.1153558" lon="31.3874530">
<ele>108.180000</ele>
<time>2026-08-22T09:40:23.000Z</time>
</trkpt>
<trkpt lat="60.1154979" lon="31.3812123">
<ele>102.060005</ele>
<time>2026-08-22T09:40:33.000Z</time>
</trkpt>
<trkpt lat="60.1150219" lon="31.3777517">
<ele>105.229996</ele>
<time>2026-08-22T09:40:39.000Z</time>
</trkpt>
<trkpt lat="60.1155694" lon="31.3755080">
<ele>102.729996</ele>
<time>2026-08-22T09:40:43.000Z</time>
</trkpt>
<trkpt lat="60.1161150" lon="31.3725013">
<ele>100.449997</ele>
<time>2026-08-22T09:40:48.000Z</time>
</trkpt>
<trkpt lat="60.1161725" lon="31.3701514">
<ele>100.339996</ele>
<time>2026-08-22T09:40:52.000Z</time>
</trkpt>
<trkpt lat="60.1174680" lon="31.3684853">
<ele>101.559998</ele>
<time>2026-08-22T09:40:57.000Z</time>
</trkpt>
<trkpt lat="60.1185781" lon="31.3710544">
<ele>101.379997</ele>
<time>2026-08-22T09:41:00.000Z</time>
</trkpt>
<trkpt lat="60.1190743" lon="31.3734904">
<ele>102.090004</ele>
<time>2026-08-22T09:41:04.000Z</time>
</trkpt>
<trkpt lat="60.1182912" lon="31.3759098">
<ele>97.720001</ele>
<time>2026-08-22T09:41:07.000Z</time>
</trkpt>
<trkpt lat="60.1181299" lon="31.3765977">
<ele>97.930000</ele>
<time>2026-08-22T09:41:08.000Z</time>
</trkpt>
<trkpt lat="60.1177436" lon="31.3805784">
<ele>97.899994</ele>
<time>2026-08-22T09:41:14.000Z</time>
</trkpt>
<trkpt lat="60.1184579" lon="31.3827007">
<ele>94.089996</ele>
<time>2026-08-22T09:41:18.000Z</time>
</trkpt>
<trkpt lat="60.1184099" lon="31.3850092">
<ele>94.809998</ele>
<time>2026-08-22T09:41:22.000Z</time>
</trkpt>
<trkpt lat="60.1184248" lon="31.3873092">
<ele>96.219994</ele>
<time>2026-08-22T09:41:26.000Z</time>
</trkpt>
<trkpt lat="60.1182697" lon="31.3959699">
<ele>102.149994</ele>
<time>2026-08-22T09:41:40.000Z</time>
</trkpt>
<trkpt lat="60.1182631" lon="31.3965925">
<ele>102.279999</ele>
<time>2026-08-22T09:41:41.000Z</time>
</trkpt>
<trkpt lat="60.1177251" lon="31.4001784">
<ele>102.870003</ele>
<time>2026-08-22T09:41:47.000Z</time>
</trkpt>
<trkpt lat="60.1168640" lon="31.4048111">
<ele>105.130005</ele>
<time>2026-08-22T09:41:55.000Z</time>
</trkpt>
<trkpt lat="60.1160303" lon="31.4052700">
<ele>107.120003</ele>
<time>2026-08-22T09:42:00.000Z</time>
</trkpt>
<trkpt lat="60.1152519" lon="31.4004893">
<ele>108.719994</ele>
<time>2026-08-22T09:42:03.000Z</time>
</trkpt>
<trkpt lat="60.1154645" lon="31.3962745">
<ele>108.630005</ele>
<time>2026-08-22T09:42:06.000Z</time>
</trkpt>
<trkpt lat="60.1153965" lon="31.3879711">
<ele>109.120003</ele>
<time>2026-08-22T09:42:15.000Z</time>
</trkpt>
<trkpt lat="60.1155695" lon="31.3811228">
<ele>108.300003</ele>
<time>2026-08-22T09:42:26.000Z</time>
</trkpt>
<trkpt lat="60.1152064" lon="31.3781377">
<ele>112.139999</ele>
<time>2026-08-22T09:42:31.000Z</time>
</trkpt>
<trkpt lat="60.1150883" lon="31.3770024">
<ele>113.630005</ele>
<time>2026-08-22T09:42:33.000Z</time>
</trkpt>
<trkpt lat="60.1157110" lon="31.3747905">
<ele>117.059998</ele>
<time>2026-08-22T09:42:37.000Z</time>
</trkpt>
<trkpt lat="60.1162526" lon="31.3710714">
<ele>116.659996</ele>
<time>2026-08-22T09:42:43.000Z</time>
</trkpt>
<trkpt lat="60.1163691" lon="31.3705305">
<ele>117.849998</ele>
<time>2026-08-22T09:42:44.000Z</time>
</trkpt>
<trkpt lat="60.1168044" lon="31.3696245">
<ele>118.129997</ele>
<time>2026-08-22T09:42:46.000Z</time>
</trkpt>
<trkpt lat="60.1186701" lon="31.3704850">
<ele>119.730003</ele>
<time>2026-08-22T09:42:53.000Z</time>
</trkpt>
<trkpt lat="60.1190923" lon="31.3712904">
<ele>119.300003</ele>
<time>2026-08-22T09:42:55.000Z</time>
</trkpt>
<trkpt lat="60.1188093" lon="31.3736819">
<ele>115.330002</ele>
<time>2026-08-22T09:42:59.000Z</time>
</trkpt>
<trkpt lat="60.1186717" lon="31.3743831">
<ele>114.470001</ele>
<time>2026-08-22T09:43:00.000Z</time>
</trkpt>
<trkpt lat="60.1180438" lon="31.3798028">
<ele>110.459999</ele>
<time>2026-08-22T09:43:08.000Z</time>
</trkpt>
<trkpt lat="60.1180032" lon="31.3828989">
<ele>104.800003</ele>
<time>2026-08-22T09:43:12.000Z</time>
</trkpt>
<trkpt lat="60.1182795" lon="31.3861795">
<ele>102.629997</ele>
<time>2026-08-22T09:43:17.000Z</time>
</trkpt>
<trkpt lat="60.1183703" lon="31.3867645">
<ele>102.990005</ele>
<time>2026-08-22T09:43:18.000Z</time>
</trkpt>
<trkpt lat="60.1184323" lon="31.3898250">
<ele>101.740005</ele>
<time>2026-08-22T09:43:23.000Z</time>
</trkpt>
<trkpt lat="60.1183214" lon="31.3966293">
<ele>101.910004</ele>
<time>2026-08-22T09:43:34.000Z</time>
</trkpt>
<trkpt lat="60.1176191" lon="31.4014181">
<ele>103.059998</ele>
<time>2026-08-22T09:43:42.000Z</time>
</trkpt>
<trkpt lat="60.1171210" lon="31.4053860">
<ele>107.550003</ele>
<time>2026-08-22T09:43:50.000Z</time>
</trkpt>
<trkpt lat="60.1170896" lon="31.4050256">
<ele>108.979996</ele>
<time>2026-08-22T09:43:51.000Z</time>
</trkpt>
<trkpt lat="60.1163144" lon="31.3967322">
<ele>109.469994</ele>
<time>2026-08-22T09:43:57.000Z</time>
</trkpt>
<trkpt lat="60.1159783" lon="31.3931101">
<ele>107.359993</ele>
<time>2026-08-22T09:44:00.000Z</time>
</trkpt>
<trkpt lat="60.1153814" lon="31.3880656">
<ele>111.220001</ele>
<time>2026-08-22T09:44:08.000Z</time>
</trkpt>
<trkpt lat="60.1155456" lon="31.3810528">
<ele>111.389999</ele>
<time>2026-08-22T09:44:19.000Z</time>
</trkpt>
<trkpt lat="60.1155577" lon="31.3804306">
<ele>111.540001</ele>
<time>2026-08-22T09:44:20.000Z</time>
</trkpt>
<trkpt lat="60.1152338" lon="31.3774904">
<ele>112.959999</ele>
<time>2026-08-22T09:44:25.000Z</time>
</trkpt>
<trkpt lat="60.1160103" lon="31.3752156">
<ele>112.979996</ele>
<time>2026-08-22T09:44:29.000Z</time>
</trkpt>
<trkpt lat="60.1161569" lon="31.3746255">
<ele>112.779999</ele>
<time>2026-08-22T09:44:30.000Z</time>
</trkpt>
<trkpt lat="60.1161081" lon="31.3722517">
<ele>112.779999</ele>
<time>2026-08-22T09:44:34.000Z</time>
</trkpt>
<trkpt lat="60.1159366" lon="31.3705447">
<ele>112.300003</ele>
<time>2026-08-22T09:44:37.000Z</time>
</trkpt>
<trkpt lat="60.1162807" lon="31.3691285">
<ele>112.189995</ele>
<time>2026-08-22T09:44:40.000Z</time>
</trkpt>
<trkpt lat="60.1168377" lon="31.3698639">
<ele>115.409996</ele>
<time>2026-08-22T09:44:41.000Z</time>
</trkpt>
<trkpt lat="60.1192272" lon="31.3733319">
<ele>110.750000</ele>
<time>2026-08-22T09:44:49.000Z</time>
</trkpt>
<trkpt lat="60.1185818" lon="31.3760493">
<ele>108.779999</ele>
<time>2026-08-22T09:44:53.000Z</time>
</trkpt>
<trkpt lat="60.1178799" lon="31.3795213">
<ele>105.959999</ele>
<time>2026-08-22T09:44:58.000Z</time>
</trkpt>
<trkpt lat="60.1181570" lon="31.3831592">
<ele>102.200005</ele>
<time>2026-08-22T09:45:04.000Z</time>
</trkpt>
<trkpt lat="60.1183536" lon="31.3858524">
<ele>98.620003</ele>
<time>2026-08-22T09:45:09.000Z</time>
</trkpt>
<trkpt lat="60.1185703" lon="31.3875590">
<ele>97.170006</ele>
<time>2026-08-22T09:45:12.000Z</time>
</trkpt>
<trkpt lat="60.1183785" lon="31.3924848">
<ele>96.910004</ele>
<time>2026-08-22T09:45:20.000Z</time>
</trkpt>
<trkpt lat="60.1182984" lon="31.3968318">
<ele>98.419998</ele>
<time>2026-08-22T09:45:27.000Z</time>
</trkpt>
<trkpt lat="60.1176417" lon="31.4009646">
<ele>98.270004</ele>
<time>2026-08-22T09:45:34.000Z</time>
</trkpt>
<trkpt lat="60.1169643" lon="31.4048302">
<ele>103.509995</ele>
<time>2026-08-22T09:45:42.000Z</time>
</trkpt>
<trkpt lat="60.1169471" lon="31.4039210">
<ele>104.660004</ele>
<time>2026-08-22T09:45:43.000Z</time>
</trkpt>
<trkpt lat="60.1166839" lon="31.3995547">
<ele>106.200005</ele>
<time>2026-08-22T09:45:46.000Z</time>
</trkpt>
<trkpt lat="60.1163014" lon="31.3965745">
<ele>106.389999</ele>
<time>2026-08-22T09:45:49.000Z</time>
</trkpt>
<trkpt lat="60.1155783" lon="31.3896567">
<ele>104.320007</ele>
<time>2026-08-22T09:45:58.000Z</time>
</trkpt>
<trkpt lat="60.1153834" lon="31.3877977">
<ele>103.360001</ele>
<time>2026-08-22T09:46:01.000Z</time>
</trkpt>
<trkpt lat="60.1154888" lon="31.3827881">
<ele>102.169998</ele>
<time>2026-08-22T09:46:09.000Z</time>
</trkpt>
<trkpt lat="60.1155360" lon="31.3809253">
<ele>101.470001</ele>
<time>2026-08-22T09:46:12.000Z</time>
</trkpt>
<trkpt lat="60.1150798" lon="31.3774465">
<ele>104.449997</ele>
<time>2026-08-22T09:46:18.000Z</time>
</trkpt>
<trkpt lat="60.1157739" lon="31.3752078">
<ele>103.940002</ele>
<time>2026-08-22T09:46:22.000Z</time>
</trkpt>
<trkpt lat="60.1161790" lon="31.3721030">
<ele>106.770004</ele>
<time>2026-08-22T09:46:27.000Z</time>
</trkpt>
<trkpt lat="60.1161625" lon="31.3702874">
<ele>108.950005</ele>
<time>2026-08-22T09:46:30.000Z</time>
</trkpt>
<trkpt lat="60.1164948" lon="31.3693155">
<ele>109.629997</ele>
<time>2026-08-22T09:46:32.000Z</time>
</trkpt>
<trkpt lat="60.1189139" lon="31.3713929">
<ele>108.480003</ele>
<time>2026-08-22T09:46:41.000Z</time>
</trkpt>
<trkpt lat="60.1188727" lon="31.3733931">
<ele>107.240005</ele>
<time>2026-08-22T09:46:45.000Z</time>
</trkpt>
<trkpt lat="60.1185004" lon="31.3748507">
<ele>107.730003</ele>
<time>2026-08-22T09:46:47.000Z</time>
</trkpt>
<trkpt lat="60.1179468" lon="31.3802874">
<ele>109.440002</ele>
<time>2026-08-22T09:46:54.000Z</time>
</trkpt>
<trkpt lat="60.1175996" lon="31.3844086">
<ele>108.809998</ele>
<time>2026-08-22T09:46:59.000Z</time>
</trkpt>
<trkpt lat="60.1176951" lon="31.3856917">
<ele>108.020004</ele>
<time>2026-08-22T09:47:01.000Z</time>
</trkpt>
<trkpt lat="60.1181440" lon="31.3872111">
<ele>110.180000</ele>
<time>2026-08-22T09:47:04.000Z</time>
</trkpt>
<trkpt lat="60.1182757" lon="31.3919882">
<ele>113.379997</ele>
<time>2026-08-22T09:47:12.000Z</time>
</trkpt>
<trkpt lat="60.1182582" lon="31.3969425">
<ele>111.380005</ele>
<time>2026-08-22T09:47:20.000Z</time>
</trkpt>
<trkpt lat="60.1174457" lon="31.4022718">
<ele>107.099998</ele>
<time>2026-08-22T09:47:29.000Z</time>
</trkpt>
<trkpt lat="60.1169981" lon="31.4045039">
<ele>110.570007</ele>
<time>2026-08-22T09:47:33.000Z</time>
</trkpt>
<trkpt lat="60.1159691" lon="31.4040632">
<ele>114.870003</ele>
<time>2026-08-22T09:47:37.000Z</time>
</trkpt>
<trkpt lat="60.1157611" lon="31.4007365">
<ele>113.620003</ele>
<time>2026-08-22T09:47:40.000Z</time>
</trkpt>
<trkpt lat="60.1157249" lon="31.3974917">
<ele>113.379997</ele>
<time>2026-08-22T09:47:43.000Z</time>
</trkpt>
<trkpt lat="60.1153633" lon="31.3877228">
<ele>110.709999</ele>
<time>2026-08-22T09:47:54.000Z</time>
</trkpt>
<trkpt lat="60.1155887" lon="31.3801998">
<ele>108.729996</ele>
<time>2026-08-22T09:48:06.000Z</time>
</trkpt>
<trkpt lat="60.1152175" lon="31.3778612">
<ele>110.510002</ele>
<time>2026-08-22T09:48:10.000Z</time>
</trkpt>
<trkpt lat="60.1157581" lon="31.3756085">
<ele>111.940002</ele>
<time>2026-08-22T09:48:14.000Z</time>
</trkpt>
<trkpt lat="60.1160961" lon="31.3744063">
<ele>113.449997</ele>
<time>2026-08-22T09:48:16.000Z</time>
</trkpt>
<trkpt lat="60.1162609" lon="31.3725271">
<ele>114.620003</ele>
<time>2026-08-22T09:48:19.000Z</time>
</trkpt>
<trkpt lat="60.1160312" lon="31.3702033">
<ele>116.169998</ele>
<time>2026-08-22T09:48:23.000Z</time>
</trkpt>
<trkpt lat="60.1172541" lon="31.3687106">
<ele>118.040001</ele>
<time>2026-08-22T09:48:27.000Z</time>
</trkpt>
<trkpt lat="60.1182550" lon="31.3698257">
<ele>119.519997</ele>
<time>2026-08-22T09:48:30.000Z</time>
</trkpt>
<trkpt lat="60.1191858" lon="31.3717030">
<ele>122.129997</ele>
<time>2026-08-22T09:48:34.000Z</time>
</trkpt>
<trkpt lat="60.1183155" lon="31.3751147">
<ele>121.459999</ele>
<time>2026-08-22T09:48:38.000Z</time>
</trkpt>
<trkpt lat="60.1176472" lon="31.3805376">
<ele>119.209999</ele>
<time>2026-08-22T09:48:45.000Z</time>
</trkpt>
<trkpt lat="60.1180502" lon="31.3828371">
<ele>117.020004</ele>
<time>2026-08-22T09:48:49.000Z</time>
</trkpt>
<trkpt lat="60.1182231" lon="31.3837918">
<ele>116.840004</ele>
<time>2026-08-22T09:48:51.000Z</time>
</trkpt>
<trkpt lat="60.1188140" lon="31.3871625">
<ele>117.029999</ele>
<time>2026-08-22T09:48:57.000Z</time>
</trkpt>
<trkpt lat="60.1184629" lon="31.3914970">
<ele>114.330002</ele>
<time>2026-08-22T09:49:04.000Z</time>
</trkpt>
<trkpt lat="60.1182836" lon="31.3970984">
<ele>111.400002</ele>
<time>2026-08-22T09:49:13.000Z</time>
</trkpt>
<trkpt lat="60.1171327" lon="31.4036014">
<ele>106.729996</ele>
<time>2026-08-22T09:49:24.000Z</time>
</trkpt>
<trkpt lat="60.1168758" lon="31.4046392">
<ele>107.599998</ele>
<time>2026-08-22T09:49:26.000Z</time>
</trkpt>
<trkpt lat="60.1158756" lon="31.4034161">
<ele>109.639999</ele>
<time>2026-08-22T09:49:30.000Z</time>
</trkpt>
<trkpt lat="60.1153672" lon="31.4013145">
<ele>107.279999</ele>
<time>2026-08-22T09:49:34.000Z</time>
</trkpt>
<trkpt lat="60.1153103" lon="31.3983361">
<ele>105.449997</ele>
<time>2026-08-22T09:49:37.000Z</time>
</trkpt>
<trkpt lat="60.1154042" lon="31.3955788">
<ele>104.209999</ele>
<time>2026-08-22T09:49:39.000Z</time>
</trkpt>
<trkpt lat="60.1153944" lon="31.3881801">
<ele>101.109993</ele>
<time>2026-08-22T09:49:46.000Z</time>
</trkpt>
<trkpt lat="60.1154156" lon="31.3844605">
<ele>101.000000</ele>
<time>2026-08-22T09:49:52.000Z</time>
</trkpt>
<trkpt lat="60.1155294" lon="31.3807265">
<ele>103.989998</ele>
<time>2026-08-22T09:49:58.000Z</time>
</trkpt>
<trkpt lat="60.1151442" lon="31.3778259">
<ele>105.870003</ele>
<time>2026-08-22T09:50:03.000Z</time>
</trkpt>
<trkpt lat="60.1156664" lon="31.3756642">
<ele>107.489998</ele>
<time>2026-08-22T09:50:07.000Z</time>
</trkpt>
<trkpt lat="60.1160799" lon="31.3725800">
<ele>108.920006</ele>
<time>2026-08-22T09:50:12.000Z</time>
</trkpt>
<trkpt lat="60.1159413" lon="31.3703078">
<ele>109.410004</ele>
<time>2026-08-22T09:50:16.000Z</time>
</trkpt>
<trkpt lat="60.1164818" lon="31.3693805">
<ele>110.290001</ele>
<time>2026-08-22T09:50:18.000Z</time>
</trkpt>
<trkpt lat="60.1180240" lon="31.3692651">
<ele>120.899994</ele>
<time>2026-08-22T09:50:23.000Z</time>
</trkpt>
<trkpt lat="60.1185365" lon="31.3718997">
<ele>120.409996</ele>
<time>2026-08-22T09:50:25.000Z</time>
</trkpt>
<trkpt lat="60.1182446" lon="31.3753526">
<ele>124.419998</ele>
<time>2026-08-22T09:50:30.000Z</time>
</trkpt>
<trkpt lat="60.1180887" lon="31.3761781">
<ele>124.290001</ele>
<time>2026-08-22T09:50:31.000Z</time>
</trkpt>
<trkpt lat="60.1176649" lon="31.3794284">
<ele>111.769997</ele>
<time>2026-08-22T09:50:36.000Z</time>
</trkpt>
<trkpt lat="60.1176411" lon="31.3806095">
<ele>109.639999</ele>
<time>2026-08-22T09:50:38.000Z</time>
</trkpt>
<trkpt lat="60.1181805" lon="31.3833166">
<ele>104.439995</ele>
<time>2026-08-22T09:50:43.000Z</time>
</trkpt>
<trkpt lat="60.1183477" lon="31.3861404">
<ele>97.400002</ele>
<time>2026-08-22T09:50:48.000Z</time>
</trkpt>
<trkpt lat="60.1185034" lon="31.3872714">
<ele>96.040001</ele>
<time>2026-08-22T09:50:50.000Z</time>
</trkpt>
<trkpt lat="60.1184246" lon="31.3903293">
<ele>94.979996</ele>
<time>2026-08-22T09:50:55.000Z</time>
</trkpt>
<trkpt lat="60.1183149" lon="31.3971244">
<ele>97.589996</ele>
<time>2026-08-22T09:51:06.000Z</time>
</trkpt>
<trkpt lat="60.1169313" lon="31.4045310">
<ele>101.740005</ele>
<time>2026-08-22T09:51:19.000Z</time>
</trkpt>
<trkpt lat="60.1165948" lon="31.4050342">
<ele>103.420006</ele>
<time>2026-08-22T09:51:21.000Z</time>
</trkpt>
<trkpt lat="60.1164088" lon="31.4050527">
<ele>104.129997</ele>
<time>2026-08-22T09:51:22.000Z</time>
</trkpt>
<trkpt lat="60.1160841" lon="31.3958747">
<ele>103.450005</ele>
<time>2026-08-22T09:51:27.000Z</time>
</trkpt>
<trkpt lat="60.1159307" lon="31.3929756">
<ele>105.139999</ele>
<time>2026-08-22T09:51:31.000Z</time>
</trkpt>
<trkpt lat="60.1153909" lon="31.3880463">
<ele>106.230003</ele>
<time>2026-08-22T09:51:39.000Z</time>
</trkpt>
<trkpt lat="60.1154096" lon="31.3843207">
<ele>106.879997</ele>
<time>2026-08-22T09:51:45.000Z</time>
</trkpt>
<trkpt lat="60.1155089" lon="31.3812168">
<ele>106.620003</ele>
<time>2026-08-22T09:51:50.000Z</time>
</trkpt>
<trkpt lat="60.1151755" lon="31.3782281">
<ele>108.429993</ele>
<time>2026-08-22T09:51:55.000Z</time>
</trkpt>
<trkpt lat="60.1150707" lon="31.3771379">
<ele>108.709999</ele>
<time>2026-08-22T09:51:57.000Z</time>
</trkpt>
<trkpt lat="60.1157276" lon="31.3748885">
<ele>110.290001</ele>
<time>2026-08-22T09:52:01.000Z</time>
</trkpt>
<trkpt lat="60.1158372" lon="31.3724450">
<ele>111.520004</ele>
<time>2026-08-22T09:52:05.000Z</time>
</trkpt>
<trkpt lat="60.1157302" lon="31.3700281">
<ele>113.279999</ele>
<time>2026-08-22T09:52:09.000Z</time>
</trkpt>
<trkpt lat="60.1158164" lon="31.3694910">
<ele>113.559998</ele>
<time>2026-08-22T09:52:10.000Z</time>
</trkpt>
<trkpt lat="60.1163719" lon="31.3664297">
<ele>117.719994</ele>
<time>2026-08-22T09:52:16.000Z</time>
</trkpt>
<trkpt lat="60.1177960" lon="31.3636043">
<ele>118.769997</ele>
<time>2026-08-22T09:52:20.000Z</time>
</trkpt>
<trkpt lat="60.1178732" lon="31.3756029">
<ele>102.469994</ele>
<time>2026-08-22T09:52:25.000Z</time>
</trkpt>
<trkpt lat="60.1175540" lon="31.3773969">
<ele>99.320000</ele>
<time>2026-08-22T09:52:30.000Z</time>
</trkpt>
<trkpt lat="60.1175322" lon="31.3825667">
<ele>84.779999</ele>
<time>2026-08-22T09:52:37.000Z</time>
</trkpt>
<trkpt lat="60.1169175" lon="31.3851208">
<ele>83.080002</ele>
<time>2026-08-22T09:52:43.000Z</time>
</trkpt>
<trkpt lat="60.1174801" lon="31.3865235">
<ele>82.760002</ele>
<time>2026-08-22T09:52:47.000Z</time>
</trkpt>
<trkpt lat="60.1176496" lon="31.3901174">
<ele>83.370003</ele>
<time>2026-08-22T09:52:54.000Z</time>
</trkpt>
<trkpt lat="60.1178955" lon="31.3978792">
<ele>84.709999</ele>
<time>2026-08-22T09:53:01.000Z</time>
</trkpt>
<trkpt lat="60.1168117" lon="31.4055184">
<ele>90.119995</ele>
<time>2026-08-22T09:53:13.000Z</time>
</trkpt>
<trkpt lat="60.1162446" lon="31.4077103">
<ele>93.459999</ele>
<time>2026-08-22T09:53:18.000Z</time>
</trkpt>
<trkpt lat="60.1145394" lon="31.3842642">
<ele>94.829994</ele>
<time>2026-08-22T09:54:00.000Z</time>
</trkpt>
<trkpt lat="60.1153095" lon="31.3796114">
<ele>93.540001</ele>
<time>2026-08-22T09:54:06.000Z</time>
</trkpt>
<trkpt lat="60.1174105" lon="31.3762598">
<ele>94.010002</ele>
<time>2026-08-22T09:54:12.000Z</time>
</trkpt>
<trkpt lat="60.1187138" lon="31.3743500">
<ele>93.009995</ele>
<time>2026-08-22T09:54:17.000Z</time>
</trkpt>
<trkpt lat="60.1180718" lon="31.3745593">
<ele>85.239998</ele>
<time>2026-08-22T09:54:27.000Z</time>
</trkpt>
<trkpt lat="60.1181939" lon="31.3744274">
<ele>84.479996</ele>
<time>2026-08-22T09:54:30.000Z</time>
</trkpt>
<trkpt lat="60.1108947" lon="31.3831212">
<ele>91.029999</ele>
<time>2026-08-22T09:54:38.000Z</time>
</trkpt>
<trkpt lat="60.1065509" lon="31.3870407">
<ele>81.080002</ele>
<time>2026-08-22T09:54:48.000Z</time>
</trkpt>
<trkpt lat="60.1027080" lon="31.3904676">
<ele>71.139999</ele>
<time>2026-08-22T09:54:57.000Z</time>
</trkpt>
<trkpt lat="60.1022611" lon="31.3908413">
<ele>69.529999</ele>
<time>2026-08-22T09:54:58.000Z</time>
</trkpt>
<trkpt lat="60.1157663" lon="31.3931899">
<ele>85.540001</ele>
<time>2026-08-22T09:55:17.000Z</time>
</trkpt>
<trkpt lat="60.1154478" lon="31.3898776">
<ele>84.849998</ele>
<time>2026-08-22T09:55:22.000Z</time>
</trkpt>
<trkpt lat="60.1151947" lon="31.3848830">
<ele>85.040001</ele>
<time>2026-08-22T09:55:30.000Z</time>
</trkpt>
<trkpt lat="60.1153243" lon="31.3811785">
<ele>85.800003</ele>
<time>2026-08-22T09:55:36.000Z</time>
</trkpt>
<trkpt lat="60.1150541" lon="31.3776482">
<ele>91.489998</ele>
<time>2026-08-22T09:55:42.000Z</time>
</trkpt>
<trkpt lat="60.1151076" lon="31.3770282">
<ele>95.370003</ele>
<time>2026-08-22T09:55:43.000Z</time>
</trkpt>
<trkpt lat="60.1156596" lon="31.3740831">
<ele>104.919998</ele>
<time>2026-08-22T09:55:48.000Z</time>
</trkpt>
<trkpt lat="60.1157047" lon="31.3728340">
<ele>112.379997</ele>
<time>2026-08-22T09:55:50.000Z</time>
</trkpt>
<trkpt lat="60.1156485" lon="31.3685115">
<ele>115.690002</ele>
<time>2026-08-22T09:55:58.000Z</time>
</trkpt>
<trkpt lat="60.1177778" lon="31.3684188">
<ele>140.339996</ele>
<time>2026-08-22T09:56:02.000Z</time>
</trkpt>
<trkpt lat="60.1192978" lon="31.3709254">
<ele>114.820000</ele>
<time>2026-08-22T09:56:07.000Z</time>
</trkpt>
<trkpt lat="60.1192165" lon="31.3734438">
<ele>113.989998</ele>
<time>2026-08-22T09:56:11.000Z</time>
</trkpt>
<trkpt lat="60.1183657" lon="31.3760945">
<ele>104.070000</ele>
<time>2026-08-22T09:56:14.000Z</time>
</trkpt>
<trkpt lat="60.1176974" lon="31.3831654">
<ele>103.209999</ele>
<time>2026-08-22T09:56:21.000Z</time>
</trkpt>
<trkpt lat="60.1176437" lon="31.3844431">
<ele>106.129997</ele>
<time>2026-08-22T09:56:23.000Z</time>
</trkpt>
<trkpt lat="60.1177728" lon="31.3855069">
<ele>101.730003</ele>
<time>2026-08-22T09:56:25.000Z</time>
</trkpt>
<trkpt lat="60.1183946" lon="31.3881091">
<ele>102.650002</ele>
<time>2026-08-22T09:56:30.000Z</time>
</trkpt>
<trkpt lat="60.1183968" lon="31.3954077">
<ele>105.580002</ele>
<time>2026-08-22T09:56:42.000Z</time>
</trkpt>
<trkpt lat="60.1183306" lon="31.3978851">
<ele>106.610001</ele>
<time>2026-08-22T09:56:46.000Z</time>
</trkpt>
<trkpt lat="60.1175971" lon="31.4020415">
<ele>110.959999</ele>
<time>2026-08-22T09:56:53.000Z</time>
</trkpt>
<trkpt lat="60.1165835" lon="31.4060694">
<ele>112.420006</ele>
<time>2026-08-22T09:57:00.000Z</time>
</trkpt>
<trkpt lat="60.1164672" lon="31.4065699">
<ele>113.269997</ele>
<time>2026-08-22T09:57:01.000Z</time>
</trkpt>
<trkpt lat="60.1160329" lon="31.4069478">
<ele>120.279999</ele>
<time>2026-08-22T09:57:04.000Z</time>
</trkpt>
<trkpt lat="60.1155317" lon="31.3976070">
<ele>123.530006</ele>
<time>2026-08-22T09:57:09.000Z</time>
</trkpt>
<trkpt lat="60.1155469" lon="31.3896203">
<ele>119.139999</ele>
<time>2026-08-22T09:57:15.000Z</time>
</trkpt>
<trkpt lat="60.1153351" lon="31.3871430">
<ele>117.740005</ele>
<time>2026-08-22T09:57:19.000Z</time>
</trkpt>
<trkpt lat="60.1155581" lon="31.3796459">
<ele>111.580002</ele>
<time>2026-08-22T09:57:31.000Z</time>
</trkpt>
<trkpt lat="60.1151512" lon="31.3768958">
<ele>111.699997</ele>
<time>2026-08-22T09:57:36.000Z</time>
</trkpt>
<trkpt lat="60.1157738" lon="31.3745701">
<ele>112.300003</ele>
<time>2026-08-22T09:57:40.000Z</time>
</trkpt>
<trkpt lat="60.1158532" lon="31.3708756">
<ele>114.199997</ele>
<time>2026-08-22T09:57:46.000Z</time>
</trkpt>
<trkpt lat="60.1158487" lon="31.3696667">
<ele>114.790001</ele>
<time>2026-08-22T09:57:48.000Z</time>
</trkpt>
<trkpt lat="60.1158879" lon="31.3689879">
<ele>114.979996</ele>
<time>2026-08-22T09:57:49.000Z</time>
</trkpt>
<trkpt lat="60.1131976" lon="31.3642649">
<ele>111.319992</ele>
<time>2026-08-22T09:57:51.000Z</time>
</trkpt>
<trkpt lat="60.0893620" lon="31.3598552">
<ele>60.899998</ele>
<time>2026-08-22T09:58:03.000Z</time>
</trkpt>
<trkpt lat="60.0872452" lon="31.3615790">
<ele>55.400002</ele>
<time>2026-08-22T09:58:08.000Z</time>
</trkpt>
<trkpt lat="60.0867837" lon="31.3616375">
<ele>56.520000</ele>
<time>2026-08-22T09:58:09.000Z</time>
</trkpt>
<trkpt lat="60.0845627" lon="31.3654984">
<ele>-67.169998</ele>
<time>2026-08-22T09:58:14.000Z</time>
</trkpt>
<trkpt lat="60.1181507" lon="31.3912775">
<ele>102.610001</ele>
<time>2026-08-22T09:58:28.000Z</time>
</trkpt>
<trkpt lat="60.1181557" lon="31.3969026">
<ele>102.729996</ele>
<time>2026-08-22T09:58:37.000Z</time>
</trkpt>
<trkpt lat="60.1180042" lon="31.3987429">
<ele>103.040001</ele>
<time>2026-08-22T09:58:40.000Z</time>
</trkpt>
<trkpt lat="60.1171790" lon="31.4034238">
<ele>104.180000</ele>
<time>2026-08-22T09:58:48.000Z</time>
</trkpt>
<trkpt lat="60.1164777" lon="31.3978678">
<ele>107.329994</ele>
<time>2026-08-22T09:58:54.000Z</time>
</trkpt>
<trkpt lat="60.1152340" lon="31.3878410">
<ele>88.950005</ele>
<time>2026-08-22T09:59:10.000Z</time>
</trkpt>
<trkpt lat="60.1153517" lon="31.3839519">
<ele>81.980003</ele>
<time>2026-08-22T09:59:17.000Z</time>
</trkpt>
<trkpt lat="60.1154280" lon="31.3796351">
<ele>84.360001</ele>
<time>2026-08-22T09:59:24.000Z</time>
</trkpt>
<trkpt lat="60.1152048" lon="31.3780015">
<ele>84.430000</ele>
<time>2026-08-22T09:59:27.000Z</time>
</trkpt>
<trkpt lat="60.1157498" lon="31.3757611">
<ele>82.659996</ele>
<time>2026-08-22T09:59:31.000Z</time>
</trkpt>
<trkpt lat="60.1160775" lon="31.3739637">
<ele>84.210007</ele>
<time>2026-08-22T09:59:34.000Z</time>
</trkpt>
<trkpt lat="60.1161591" lon="31.3716732">
<ele>87.699997</ele>
<time>2026-08-22T09:59:38.000Z</time>
</trkpt>
<trkpt lat="60.1163955" lon="31.3700873">
<ele>89.449997</ele>
<time>2026-08-22T09:59:41.000Z</time>
</trkpt>
<trkpt lat="60.1178798" lon="31.3707395">
<ele>93.650002</ele>
<time>2026-08-22T09:59:47.000Z</time>
</trkpt>
<trkpt lat="60.1179876" lon="31.3831059">
<ele>95.060005</ele>
<time>2026-08-22T10:00:02.000Z</time>
</trkpt>
<trkpt lat="60.1182660" lon="31.3849753">
<ele>75.470001</ele>
<time>2026-08-22T10:00:08.000Z</time>
</trkpt>
<trkpt lat="60.1187400" lon="31.3852541">
<ele>68.309998</ele>
<time>2026-08-22T10:00:11.000Z</time>
</trkpt>
<trkpt lat="60.1186246" lon="31.3871663">
<ele>59.180000</ele>
<time>2026-08-22T10:00:14.000Z</time>
</trkpt>
<trkpt lat="60.1184890" lon="31.3903943">
<ele>46.040001</ele>
<time>2026-08-22T10:00:19.000Z</time>
</trkpt>
<trkpt lat="60.1181761" lon="31.3971777">
<ele>89.279999</ele>
<time>2026-08-22T10:00:30.000Z</time>
</trkpt>
<trkpt lat="60.1172287" lon="31.4030645">
<ele>86.909996</ele>
<time>2026-08-22T10:00:40.000Z</time>
</trkpt>
<trkpt lat="60.1165773" lon="31.4057066">
<ele>96.779999</ele>
<time>2026-08-22T10:00:45.000Z</time>
</trkpt>
<trkpt lat="60.1157919" lon="31.4067159">
<ele>106.050003</ele>
<time>2026-08-22T10:00:49.000Z</time>
</trkpt>
<trkpt lat="60.1150357" lon="31.4055627">
<ele>108.370003</ele>
<time>2026-08-22T10:00:54.000Z</time>
</trkpt>
<trkpt lat="60.1147710" lon="31.4039004">
<ele>109.739998</ele>
<time>2026-08-22T10:00:57.000Z</time>
</trkpt>
<trkpt lat="60.1155475" lon="31.3856241">
<ele>111.709999</ele>
<time>2026-08-22T10:01:07.000Z</time>
</trkpt>
<trkpt lat="60.1156612" lon="31.3819419">
<ele>111.570000</ele>
<time>2026-08-22T10:01:13.000Z</time>
</trkpt>
<trkpt lat="60.1156370" lon="31.3777041">
<ele>110.740005</ele>
<time>2026-08-22T10:01:20.000Z</time>
</trkpt>
<trkpt lat="60.1161633" lon="31.3750108">
<ele>107.610001</ele>
<time>2026-08-22T10:01:25.000Z</time>
</trkpt>
<trkpt lat="60.1162628" lon="31.3743899">
<ele>107.049995</ele>
<time>2026-08-22T10:01:26.000Z</time>
</trkpt>
<trkpt lat="60.1160850" lon="31.3719744">
<ele>106.780006</ele>
<time>2026-08-22T10:01:30.000Z</time>
</trkpt>
<trkpt lat="60.1160097" lon="31.3701220">
<ele>107.120003</ele>
<time>2026-08-22T10:01:33.000Z</time>
</trkpt>
<trkpt lat="60.1169241" lon="31.3686287">
<ele>110.220001</ele>
<time>2026-08-22T10:01:36.000Z</time>
</trkpt>
<trkpt lat="60.1178051" lon="31.3674370">
<ele>111.269997</ele>
<time>2026-08-22T10:01:40.000Z</time>
</trkpt>
<trkpt lat="60.1184905" lon="31.3728509">
<ele>111.009995</ele>
<time>2026-08-22T10:01:45.000Z</time>
</trkpt>
<trkpt lat="60.1181784" lon="31.3750755">
<ele>110.910004</ele>
<time>2026-08-22T10:01:47.000Z</time>
</trkpt>
<trkpt lat="60.1177202" lon="31.3800241">
<ele>109.290001</ele>
<time>2026-08-22T10:01:54.000Z</time>
</trkpt>
<trkpt lat="60.1184781" lon="31.3826414">
<ele>106.089996</ele>
<time>2026-08-22T10:01:59.000Z</time>
</trkpt>
<trkpt lat="60.1187484" lon="31.3837460">
<ele>105.300003</ele>
<time>2026-08-22T10:02:01.000Z</time>
</trkpt>
<trkpt lat="60.1192627" lon="31.3884404">
<ele>101.740005</ele>
<time>2026-08-22T10:02:09.000Z</time>
</trkpt>
<trkpt lat="60.1185830" lon="31.3922634">
<ele>98.690002</ele>
<time>2026-08-22T10:02:15.000Z</time>
</trkpt>
<trkpt lat="60.1183133" lon="31.3972170">
<ele>99.050003</ele>
<time>2026-08-22T10:02:23.000Z</time>
</trkpt>
<trkpt lat="60.1176467" lon="31.4013364">
<ele>99.489998</ele>
<time>2026-08-22T10:02:30.000Z</time>
</trkpt>
<trkpt lat="60.1166534" lon="31.4054988">
<ele>105.240005</ele>
<time>2026-08-22T10:02:38.000Z</time>
</trkpt>
<trkpt lat="60.1165281" lon="31.4057502">
<ele>106.250000</ele>
<time>2026-08-22T10:02:39.000Z</time>
</trkpt>
<trkpt lat="60.1163881" lon="31.4053355">
<ele>107.830002</ele>
<time>2026-08-22T10:02:40.000Z</time>
</trkpt>
<trkpt lat="60.1159317" lon="31.3995338">
<ele>109.179993</ele>
<time>2026-08-22T10:02:44.000Z</time>
</trkpt>
<trkpt lat="60.1157762" lon="31.3956089">
<ele>108.130005</ele>
<time>2026-08-22T10:02:48.000Z</time>
</trkpt>
<trkpt lat="60.1156099" lon="31.3899055">
<ele>103.930000</ele>
<time>2026-08-22T10:02:53.000Z</time>
</trkpt>
<trkpt lat="60.1154237" lon="31.3879825">
<ele>103.110001</ele>
<time>2026-08-22T10:02:56.000Z</time>
</trkpt>
<trkpt lat="60.1154783" lon="31.3836354">
<ele>103.680000</ele>
<time>2026-08-22T10:03:03.000Z</time>
</trkpt>
<trkpt lat="60.1155422" lon="31.3811310">
<ele>103.620003</ele>
<time>2026-08-22T10:03:07.000Z</time>
</trkpt>
<trkpt lat="60.1149932" lon="31.3772595">
<ele>104.759995</ele>
<time>2026-08-22T10:03:14.000Z</time>
</trkpt>
<trkpt lat="60.1150783" lon="31.3756978">
<ele>105.550003</ele>
<time>2026-08-22T10:03:17.000Z</time>
</trkpt>
<trkpt lat="60.1162142" lon="31.3710385">
<ele>109.029999</ele>
<time>2026-08-22T10:03:24.000Z</time>
</trkpt>
<trkpt lat="60.1163898" lon="31.3699710">
<ele>109.479996</ele>
<time>2026-08-22T10:03:26.000Z</time>
</trkpt>
<trkpt lat="60.1170592" lon="31.3685895">
<ele>110.180000</ele>
<time>2026-08-22T10:03:29.000Z</time>
</trkpt>
<trkpt lat="60.1184584" lon="31.3699727">
<ele>108.610001</ele>
<time>2026-08-22T10:03:33.000Z</time>
</trkpt>
<trkpt lat="60.1186958" lon="31.3711855">
<ele>108.770004</ele>
<time>2026-08-22T10:03:34.000Z</time>
</trkpt>
<trkpt lat="60.1196180" lon="31.3743023">
<ele>108.160004</ele>
<time>2026-08-22T10:03:41.000Z</time>
</trkpt>
<trkpt lat="60.1199029" lon="31.3760921">
<ele>108.040001</ele>
<time>2026-08-22T10:03:45.000Z</time>
</trkpt>
<trkpt lat="60.1180300" lon="31.3806477">
<ele>109.690002</ele>
<time>2026-08-22T10:03:48.000Z</time>
</trkpt>
<trkpt lat="60.1180287" lon="31.3812846">
<ele>109.619995</ele>
<time>2026-08-22T10:03:49.000Z</time>
</trkpt>
<trkpt lat="60.1181845" lon="31.3828040">
<ele>109.870003</ele>
<time>2026-08-22T10:03:52.000Z</time>
</trkpt>
<trkpt lat="60.1176033" lon="31.3852494">
<ele>108.119995</ele>
<time>2026-08-22T10:03:57.000Z</time>
</trkpt>
<trkpt lat="60.1178433" lon="31.3870256">
<ele>106.809998</ele>
<time>2026-08-22T10:04:00.000Z</time>
</trkpt>
<trkpt lat="60.1182355" lon="31.3941097">
<ele>106.830002</ele>
<time>2026-08-22T10:04:11.000Z</time>
</trkpt>
<trkpt lat="60.1181087" lon="31.3984524">
<ele>107.530006</ele>
<time>2026-08-22T10:04:18.000Z</time>
</trkpt>
<trkpt lat="60.1160125" lon="31.4075913">
<ele>113.030006</ele>
<time>2026-08-22T10:04:35.000Z</time>
</trkpt>
<trkpt lat="60.1154431" lon="31.3872521">
<ele>116.670006</ele>
<time>2026-08-22T10:04:50.000Z</time>
</trkpt>
<trkpt lat="60.1156804" lon="31.3810596">
<ele>115.940002</ele>
<time>2026-08-22T10:05:00.000Z</time>
</trkpt>
<trkpt lat="60.1153218" lon="31.3781456">
<ele>119.219994</ele>
<time>2026-08-22T10:05:05.000Z</time>
</trkpt>
<trkpt lat="60.1152111" lon="31.3770780">
<ele>119.599998</ele>
<time>2026-08-22T10:05:07.000Z</time>
</trkpt>
<trkpt lat="60.1157813" lon="31.3741932">
<ele>122.089996</ele>
<time>2026-08-22T10:05:12.000Z</time>
</trkpt>
<trkpt lat="60.1162493" lon="31.3723841">
<ele>123.900002</ele>
<time>2026-08-22T10:05:15.000Z</time>
</trkpt>
<trkpt lat="60.1163470" lon="31.3706200">
<ele>124.719994</ele>
<time>2026-08-22T10:05:18.000Z</time>
</trkpt>
<trkpt lat="60.1166666" lon="31.3697723">
<ele>124.770004</ele>
<time>2026-08-22T10:05:20.000Z</time>
</trkpt>
<trkpt lat="60.1194416" lon="31.3730337">
<ele>122.289993</ele>
<time>2026-08-22T10:05:30.000Z</time>
</trkpt>
<trkpt lat="60.1190697" lon="31.3749066">
<ele>123.120003</ele>
<time>2026-08-22T10:05:33.000Z</time>
</trkpt>
<trkpt lat="60.1181407" lon="31.3776481">
<ele>122.430000</ele>
<time>2026-08-22T10:05:36.000Z</time>
</trkpt>
<trkpt lat="60.1178696" lon="31.3801620">
<ele>123.159996</ele>
<time>2026-08-22T10:05:40.000Z</time>
</trkpt>
<trkpt lat="60.1185724" lon="31.3850981">
<ele>122.549995</ele>
<time>2026-08-22T10:05:49.000Z</time>
</trkpt>
<trkpt lat="60.1189236" lon="31.3874342">
<ele>122.760002</ele>
<time>2026-08-22T10:05:53.000Z</time>
</trkpt>
<trkpt lat="60.1189311" lon="31.3892368">
<ele>123.470001</ele>
<time>2026-08-22T10:05:56.000Z</time>
</trkpt>
<trkpt lat="60.1184444" lon="31.3966040">
<ele>122.170006</ele>
<time>2026-08-22T10:06:08.000Z</time>
</trkpt>
<trkpt lat="60.1176941" lon="31.4013694">
<ele>120.630005</ele>
<time>2026-08-22T10:06:16.000Z</time>
</trkpt>
<trkpt lat="60.1165289" lon="31.4063046">
<ele>125.260002</ele>
<time>2026-08-22T10:06:25.000Z</time>
</trkpt>
<trkpt lat="60.1164619" lon="31.4062315">
<ele>126.139999</ele>
<time>2026-08-22T10:06:26.000Z</time>
</trkpt>
<trkpt lat="60.1165072" lon="31.4035207">
<ele>126.839996</ele>
<time>2026-08-22T10:06:27.000Z</time>
</trkpt>
<trkpt lat="60.1161062" lon="31.3942468">
<ele>127.640007</ele>
<time>2026-08-22T10:06:33.000Z</time>
</trkpt>
<trkpt lat="60.1160424" lon="31.3917912">
<ele>128.830002</ele>
<time>2026-08-22T10:06:36.000Z</time>
</trkpt>
<trkpt lat="60.1159670" lon="31.3908932">
<ele>128.330002</ele>
<time>2026-08-22T10:06:37.000Z</time>
</trkpt>
<trkpt lat="60.1156232" lon="31.3875501">
<ele>122.749992</ele>
<time>2026-08-22T10:06:42.000Z</time>
</trkpt>
<trkpt lat="60.1157110" lon="31.3825936">
<ele>120.269997</ele>
<time>2026-08-22T10:06:50.000Z</time>
</trkpt>
<trkpt lat="60.1157630" lon="31.3807364">
<ele>119.309998</ele>
<time>2026-08-22T10:06:53.000Z</time>
</trkpt>
<trkpt lat="60.1157004" lon="31.3795223">
<ele>118.960007</ele>
<time>2026-08-22T10:06:55.000Z</time>
</trkpt>
<trkpt lat="60.1155836" lon="31.3789395">
<ele>118.789993</ele>
<time>2026-08-22T10:06:56.000Z</time>
</trkpt>
<trkpt lat="60.1162249" lon="31.3751748">
<ele>111.309998</ele>
<time>2026-08-22T10:07:03.000Z</time>
</trkpt>
<trkpt lat="60.1163305" lon="31.3745812">
<ele>111.110001</ele>
<time>2026-08-22T10:07:04.000Z</time>
</trkpt>
<trkpt lat="60.1164013" lon="31.3722051">
<ele>110.199997</ele>
<time>2026-08-22T10:07:08.000Z</time>
</trkpt>
<trkpt lat="60.1167458" lon="31.3655947">
<ele>108.950005</ele>
<time>2026-08-22T10:07:21.000Z</time>
</trkpt>
<trkpt lat="60.1181976" lon="31.3761233">
<ele>139.220001</ele>
<time>2026-08-22T10:07:27.000Z</time>
</trkpt>
<trkpt lat="60.1178903" lon="31.3795425">
<ele>134.489990</ele>
<time>2026-08-22T10:07:32.000Z</time>
</trkpt>
<trkpt lat="60.1181154" lon="31.3824677">
<ele>126.610001</ele>
<time>2026-08-22T10:07:37.000Z</time>
</trkpt>
<trkpt lat="60.1183831" lon="31.3849372">
<ele>126.829994</ele>
<time>2026-08-22T10:07:42.000Z</time>
</trkpt>
<trkpt lat="60.1187853" lon="31.3872786">
<ele>126.829994</ele>
<time>2026-08-22T10:07:46.000Z</time>
</trkpt>
<trkpt lat="60.1189133" lon="31.3884594">
<ele>126.890007</ele>
<time>2026-08-22T10:07:48.000Z</time>
</trkpt>
<trkpt lat="60.1186374" lon="31.3935129">
<ele>126.470001</ele>
<time>2026-08-22T10:07:56.000Z</time>
</trkpt>
<trkpt lat="60.1185786" lon="31.3966467">
<ele>125.779999</ele>
<time>2026-08-22T10:08:01.000Z</time>
</trkpt>
<trkpt lat="60.1178923" lon="31.4002878">
<ele>124.779999</ele>
<time>2026-08-22T10:08:07.000Z</time>
</trkpt>
<trkpt lat="60.1175502" lon="31.4020799">
<ele>123.449997</ele>
<time>2026-08-22T10:08:10.000Z</time>
</trkpt>
<trkpt lat="60.1162385" lon="31.3961709">
<ele>118.510002</ele>
<time>2026-08-22T10:08:22.000Z</time>
</trkpt>
<trkpt lat="60.1161566" lon="31.3946481">
<ele>116.809998</ele>
<time>2026-08-22T10:08:24.000Z</time>
</trkpt>
<trkpt lat="60.1154627" lon="31.3884211">
<ele>110.720001</ele>
<time>2026-08-22T10:08:34.000Z</time>
</trkpt>
<trkpt lat="60.1155104" lon="31.3828031">
<ele>109.680000</ele>
<time>2026-08-22T10:08:43.000Z</time>
</trkpt>
<trkpt lat="60.1155941" lon="31.3808811">
<ele>109.220001</ele>
<time>2026-08-22T10:08:46.000Z</time>
</trkpt>
<trkpt lat="60.1151864" lon="31.3774532">
<ele>111.110001</ele>
<time>2026-08-22T10:08:52.000Z</time>
</trkpt>
<trkpt lat="60.1158556" lon="31.3751751">
<ele>111.159996</ele>
<time>2026-08-22T10:08:56.000Z</time>
</trkpt>
<trkpt lat="60.1161492" lon="31.3722028">
<ele>110.959999</ele>
<time>2026-08-22T10:09:01.000Z</time>
</trkpt>
<trkpt lat="60.1160953" lon="31.3709859">
<ele>111.209999</ele>
<time>2026-08-22T10:09:03.000Z</time>
</trkpt>
<trkpt lat="60.1161959" lon="31.3697901">
<ele>110.859993</ele>
<time>2026-08-22T10:09:05.000Z</time>
</trkpt>
<trkpt lat="60.1189537" lon="31.3704053">
<ele>102.439995</ele>
<time>2026-08-22T10:09:12.000Z</time>
</trkpt>
<trkpt lat="60.1185784" lon="31.3740238">
<ele>100.599998</ele>
<time>2026-08-22T10:09:17.000Z</time>
</trkpt>
<trkpt lat="60.1184841" lon="31.3747628">
<ele>100.449997</ele>
<time>2026-08-22T10:09:18.000Z</time>
</trkpt>
<trkpt lat="60.1178627" lon="31.3790921">
<ele>97.320007</ele>
<time>2026-08-22T10:09:24.000Z</time>
</trkpt>
<trkpt lat="60.1176108" lon="31.3838151">
<ele>94.610001</ele>
<time>2026-08-22T10:09:32.000Z</time>
</trkpt>
<trkpt lat="60.1176132" lon="31.3850070">
<ele>93.720001</ele>
<time>2026-08-22T10:09:34.000Z</time>
</trkpt>
<trkpt lat="60.1183805" lon="31.3883306">
<ele>92.089996</ele>
<time>2026-08-22T10:09:40.000Z</time>
</trkpt>
<trkpt lat="60.1183683" lon="31.3933199">
<ele>92.050003</ele>
<time>2026-08-22T10:09:48.000Z</time>
</trkpt>
<trkpt lat="60.1183376" lon="31.3965026">
<ele>94.779999</ele>
<time>2026-08-22T10:09:53.000Z</time>
</trkpt>
<trkpt lat="60.1178343" lon="31.4000735">
<ele>96.250008</ele>
<time>2026-08-22T10:09:59.000Z</time>
</trkpt>
<trkpt lat="60.1168726" lon="31.4052594">
<ele>99.409996</ele>
<time>2026-08-22T10:10:08.000Z</time>
</trkpt>
<trkpt lat="60.1160349" lon="31.4063993">
<ele>102.320000</ele>
<time>2026-08-22T10:10:11.000Z</time>
</trkpt>
<trkpt lat="60.1159601" lon="31.3925895">
<ele>102.970001</ele>
<time>2026-08-22T10:10:20.000Z</time>
</trkpt>
<trkpt lat="60.1159019" lon="31.3919348">
<ele>102.690002</ele>
<time>2026-08-22T10:10:21.000Z</time>
</trkpt>
<trkpt lat="60.1154260" lon="31.3876424">
<ele>100.580002</ele>
<time>2026-08-22T10:10:28.000Z</time>
</trkpt>
<trkpt lat="60.1155565" lon="31.3807760">
<ele>102.060005</ele>
<time>2026-08-22T10:10:39.000Z</time>
</trkpt>
<trkpt lat="60.1151305" lon="31.3772617">
<ele>101.480003</ele>
<time>2026-08-22T10:10:45.000Z</time>
</trkpt>
<trkpt lat="60.1150629" lon="31.3767008">
<ele>101.320000</ele>
<time>2026-08-22T10:10:46.000Z</time>
</trkpt>
<trkpt lat="60.1153906" lon="31.3735169">
<ele>101.399994</ele>
<time>2026-08-22T10:10:51.000Z</time>
</trkpt>
<trkpt lat="60.1180388" lon="31.3972826">
<ele>90.899994</ele>
<time>2026-08-22T10:13:40.000Z</time>
</trkpt>
<trkpt lat="60.1173323" lon="31.4019254">
<ele>99.889999</ele>
<time>2026-08-22T10:13:48.000Z</time>
</trkpt>
<trkpt lat="60.1165817" lon="31.3977027">
<ele>106.729996</ele>
<time>2026-08-22T10:13:57.000Z</time>
</trkpt>
<trkpt lat="60.1156364" lon="31.3898045">
<ele>106.129997</ele>
<time>2026-08-22T10:14:10.000Z</time>
</trkpt>
<trkpt lat="60.1154599" lon="31.3879503">
<ele>106.400002</ele>
<time>2026-08-22T10:14:13.000Z</time>
</trkpt>
<trkpt lat="60.1155886" lon="31.3823356">
<ele>105.270004</ele>
<time>2026-08-22T10:14:22.000Z</time>
</trkpt>
<trkpt lat="60.1155913" lon="31.3781758">
<ele>106.360001</ele>
<time>2026-08-22T10:14:29.000Z</time>
</trkpt>
<trkpt lat="60.1160813" lon="31.3760163">
<ele>106.790001</ele>
<time>2026-08-22T10:14:33.000Z</time>
</trkpt>
<trkpt lat="60.1164209" lon="31.3742283">
<ele>108.220001</ele>
<time>2026-08-22T10:14:36.000Z</time>
</trkpt>
<trkpt lat="60.1162588" lon="31.3717625">
<ele>109.700005</ele>
<time>2026-08-22T10:14:40.000Z</time>
</trkpt>
<trkpt lat="60.1165142" lon="31.3696416">
<ele>109.320000</ele>
<time>2026-08-22T10:14:44.000Z</time>
</trkpt>
<trkpt lat="60.1170871" lon="31.3672985">
<ele>108.199997</ele>
<time>2026-08-22T10:14:49.000Z</time>
</trkpt>
<trkpt lat="60.1182767" lon="31.3743597">
<ele>117.890007</ele>
<time>2026-08-22T10:14:55.000Z</time>
</trkpt>
<trkpt lat="60.1180871" lon="31.3757548">
<ele>116.430000</ele>
<time>2026-08-22T10:14:57.000Z</time>
</trkpt>
<trkpt lat="60.1177548" lon="31.3795119">
<ele>116.930000</ele>
<time>2026-08-22T10:15:03.000Z</time>
</trkpt>
<trkpt lat="60.1180944" lon="31.3816622">
<ele>118.439995</ele>
<time>2026-08-22T10:15:07.000Z</time>
</trkpt>
<trkpt lat="60.1184624" lon="31.3848791">
<ele>117.099998</ele>
<time>2026-08-22T10:15:13.000Z</time>
</trkpt>
<trkpt lat="60.1186404" lon="31.3872577">
<ele>116.540001</ele>
<time>2026-08-22T10:15:17.000Z</time>
</trkpt>
<trkpt lat="60.1184183" lon="31.3947613">
<ele>113.349998</ele>
<time>2026-08-22T10:15:29.000Z</time>
</trkpt>
<trkpt lat="60.1183686" lon="31.3966287">
<ele>112.529999</ele>
<time>2026-08-22T10:15:32.000Z</time>
</trkpt>
<trkpt lat="60.1179283" lon="31.3995981">
<ele>112.829994</ele>
<time>2026-08-22T10:15:37.000Z</time>
</trkpt>
<trkpt lat="60.1164024" lon="31.4051682">
<ele>116.570000</ele>
<time>2026-08-22T10:15:47.000Z</time>
</trkpt>
<trkpt lat="60.1155993" lon="31.4067690">
<ele>120.950005</ele>
<time>2026-08-22T10:15:51.000Z</time>
</trkpt>
<trkpt lat="60.1327982" lon="31.3846431">
<ele>790.179993</ele>
<time>2026-08-22T10:16:17.000Z</time>
</trkpt>
<trkpt lat="60.1290464" lon="31.3832452">
<ele>558.570007</ele>
<time>2026-08-22T10:16:24.000Z</time>
</trkpt>
<trkpt lat="60.1161144" lon="31.3710115">
<ele>115.409996</ele>
<time>2026-08-22T10:16:34.000Z</time>
</trkpt>
<trkpt lat="60.1165750" lon="31.3666992">
<ele>110.180000</ele>
<time>2026-08-22T10:16:41.000Z</time>
</trkpt>
<trkpt lat="60.1154327" lon="31.3779780">
<ele>114.540001</ele>
<time>2026-08-22T10:18:15.000Z</time>
</trkpt>
<trkpt lat="60.1159394" lon="31.3763879">
<ele>111.350006</ele>
<time>2026-08-22T10:18:18.000Z</time>
</trkpt>
<trkpt lat="60.1163086" lon="31.3746240">
<ele>108.389999</ele>
<time>2026-08-22T10:18:21.000Z</time>
</trkpt>
<trkpt lat="60.1161368" lon="31.3709340">
<ele>105.969994</ele>
<time>2026-08-22T10:18:27.000Z</time>
</trkpt>
<trkpt lat="60.1164807" lon="31.3692160">
<ele>103.689995</ele>
<time>2026-08-22T10:18:30.000Z</time>
</trkpt>
<trkpt lat="60.1185091" lon="31.3716101">
<ele>98.649994</ele>
<time>2026-08-22T10:18:36.000Z</time>
</trkpt>
<trkpt lat="60.1183689" lon="31.3739950">
<ele>106.340004</ele>
<time>2026-08-22T10:18:40.000Z</time>
</trkpt>
<trkpt lat="60.1178663" lon="31.3784863">
<ele>109.779999</ele>
<time>2026-08-22T10:18:47.000Z</time>
</trkpt>
<trkpt lat="60.1177191" lon="31.3797807">
<ele>110.059998</ele>
<time>2026-08-22T10:18:49.000Z</time>
</trkpt>
<trkpt lat="60.1181267" lon="31.3824382">
<ele>112.500000</ele>
<time>2026-08-22T10:18:54.000Z</time>
</trkpt>
<trkpt lat="60.1179781" lon="31.3840119">
<ele>115.809998</ele>
<time>2026-08-22T10:18:57.000Z</time>
</trkpt>
<trkpt lat="60.1183881" lon="31.3869511">
<ele>115.879997</ele>
<time>2026-08-22T10:19:02.000Z</time>
</trkpt>
<trkpt lat="60.1183305" lon="31.3900436">
<ele>110.629997</ele>
<time>2026-08-22T10:19:07.000Z</time>
</trkpt>
<trkpt lat="60.1182720" lon="31.3968972">
<ele>108.310005</ele>
<time>2026-08-22T10:19:18.000Z</time>
</trkpt>
<trkpt lat="60.1175638" lon="31.4010089">
<ele>103.190002</ele>
<time>2026-08-22T10:19:25.000Z</time>
</trkpt>
<trkpt lat="60.1166263" lon="31.4058283">
<ele>107.760002</ele>
<time>2026-08-22T10:19:35.000Z</time>
</trkpt>
<trkpt lat="60.1160315" lon="31.4077048">
<ele>108.729996</ele>
<time>2026-08-22T10:19:39.000Z</time>
</trkpt>
<trkpt lat="60.1140827" lon="31.3849801">
<ele>111.520004</ele>
<time>2026-08-22T10:20:03.000Z</time>
</trkpt>
<trkpt lat="60.1146281" lon="31.3820542">
<ele>112.019997</ele>
<time>2026-08-22T10:20:05.000Z</time>
</trkpt>
<trkpt lat="60.1151350" lon="31.3771270">
<ele>114.620003</ele>
<time>2026-08-22T10:20:10.000Z</time>
</trkpt>
<trkpt lat="60.1159451" lon="31.3745859">
<ele>116.470001</ele>
<time>2026-08-22T10:20:14.000Z</time>
</trkpt>
<trkpt lat="60.1159590" lon="31.3714554">
<ele>121.110001</ele>
<time>2026-08-22T10:20:19.000Z</time>
</trkpt>
<trkpt lat="60.1164184" lon="31.3679576">
<ele>122.409996</ele>
<time>2026-08-22T10:20:25.000Z</time>
</trkpt>
<trkpt lat="60.1158321" lon="31.3699158">
<ele>149.900009</ele>
<time>2026-08-22T10:20:29.000Z</time>
</trkpt>
<trkpt lat="60.1176651" lon="31.3775415">
<ele>92.280006</ele>
<time>2026-08-22T10:20:38.000Z</time>
</trkpt>
<trkpt lat="60.1182046" lon="31.3870320">
<ele>91.329994</ele>
<time>2026-08-22T10:20:55.000Z</time>
</trkpt>
<trkpt lat="60.1187682" lon="31.3898223">
<ele>127.200005</ele>
<time>2026-08-22T10:21:00.000Z</time>
</trkpt>
<trkpt lat="60.1229499" lon="31.4077036">
<ele>1450.459961</ele>
<time>2026-08-22T10:21:10.000Z</time>
</trkpt>
<trkpt lat="60.1160920" lon="31.3955307">
<ele>80.720001</ele>
<time>2026-08-22T10:21:32.000Z</time>
</trkpt>
<trkpt lat="60.1159782" lon="31.3942991">
<ele>74.690002</ele>
<time>2026-08-22T10:21:34.000Z</time>
</trkpt>
<trkpt lat="60.1152556" lon="31.3868671">
<ele>87.629997</ele>
<time>2026-08-22T10:21:46.000Z</time>
</trkpt>
<trkpt lat="60.1154368" lon="31.3824676">
<ele>86.750000</ele>
<time>2026-08-22T10:21:53.000Z</time>
</trkpt>
<trkpt lat="60.1154714" lon="31.3812201">
<ele>86.769997</ele>
<time>2026-08-22T10:21:55.000Z</time>
</trkpt>
<trkpt lat="60.1151932" lon="31.3775860">
<ele>87.880005</ele>
<time>2026-08-22T10:22:01.000Z</time>
</trkpt>
<trkpt lat="60.1157018" lon="31.3754622">
<ele>88.940002</ele>
<time>2026-08-22T10:22:05.000Z</time>
</trkpt>
<trkpt lat="60.1159761" lon="31.3743222">
<ele>88.940002</ele>
<time>2026-08-22T10:22:07.000Z</time>
</trkpt>
<trkpt lat="60.1160686" lon="31.3731027">
<ele>88.889999</ele>
<time>2026-08-22T10:22:09.000Z</time>
</trkpt>
<trkpt lat="60.1160588" lon="31.3718555">
<ele>88.909996</ele>
<time>2026-08-22T10:22:11.000Z</time>
</trkpt>
<trkpt lat="60.1146978" lon="31.3700325">
<ele>88.619995</ele>
<time>2026-08-22T10:22:15.000Z</time>
</trkpt>
<trkpt lat="60.1176560" lon="31.3916430">
<ele>-30.039999</ele>
<time>2026-08-22T10:22:55.000Z</time>
</trkpt>
<trkpt lat="60.1191515" lon="31.3930236">
<ele>98.669998</ele>
<time>2026-08-22T10:22:58.000Z</time>
</trkpt>
<trkpt lat="60.1186981" lon="31.3943074">
<ele>115.579994</ele>
<time>2026-08-22T10:23:00.000Z</time>
</trkpt>
<trkpt lat="60.1187982" lon="31.3955149">
<ele>140.520004</ele>
<time>2026-08-22T10:23:02.000Z</time>
</trkpt>
<trkpt lat="60.1191190" lon="31.3984740">
<ele>200.509995</ele>
<time>2026-08-22T10:23:06.000Z</time>
</trkpt>
<trkpt lat="60.1187969" lon="31.3998223">
<ele>219.570007</ele>
<time>2026-08-22T10:23:08.000Z</time>
</trkpt>
<trkpt lat="60.1183893" lon="31.4009482">
<ele>155.279999</ele>
<time>2026-08-22T10:23:10.000Z</time>
</trkpt>
<trkpt lat="60.1179944" lon="31.4015062">
<ele>135.870010</ele>
<time>2026-08-22T10:23:12.000Z</time>
</trkpt>
<trkpt lat="60.1177751" lon="31.4022055">
<ele>119.180000</ele>
<time>2026-08-22T10:23:13.000Z</time>
</trkpt>
<trkpt lat="60.1168645" lon="31.4027418">
<ele>152.739990</ele>
<time>2026-08-22T10:23:17.000Z</time>
</trkpt>
<trkpt lat="60.1163125" lon="31.3992504">
<ele>118.970001</ele>
<time>2026-08-22T10:23:20.000Z</time>
</trkpt>
<trkpt lat="60.1154310" lon="31.3953361">
<ele>64.010002</ele>
<time>2026-08-22T10:23:26.000Z</time>
</trkpt>
<trkpt lat="60.1153877" lon="31.3947052">
<ele>66.159996</ele>
<time>2026-08-22T10:23:27.000Z</time>
</trkpt>
<trkpt lat="60.1152069" lon="31.3880474">
<ele>87.150002</ele>
<time>2026-08-22T10:23:37.000Z</time>
</trkpt>
<trkpt lat="60.1153975" lon="31.3823912">
<ele>86.210007</ele>
<time>2026-08-22T10:23:46.000Z</time>
</trkpt>
<trkpt lat="60.1154423" lon="31.3805276">
<ele>85.689995</ele>
<time>2026-08-22T10:23:49.000Z</time>
</trkpt>
<trkpt lat="60.1150536" lon="31.3776563">
<ele>88.630005</ele>
<time>2026-08-22T10:23:54.000Z</time>
</trkpt>
<trkpt lat="60.1156445" lon="31.3754497">
<ele>90.099998</ele>
<time>2026-08-22T10:23:58.000Z</time>
</trkpt>
<trkpt lat="60.1157840" lon="31.3748454">
<ele>89.730003</ele>
<time>2026-08-22T10:23:59.000Z</time>
</trkpt>
<trkpt lat="60.1157884" lon="31.3717597">
<ele>91.339996</ele>
<time>2026-08-22T10:24:04.000Z</time>
</trkpt>
<trkpt lat="60.1151962" lon="31.3707763">
<ele>85.270004</ele>
<time>2026-08-22T10:24:06.000Z</time>
</trkpt>
<trkpt lat="60.1179011" lon="31.3765599">
<ele>104.340004</ele>
<time>2026-08-22T10:24:23.000Z</time>
</trkpt>
<trkpt lat="60.1176120" lon="31.3793847">
<ele>99.750008</ele>
<time>2026-08-22T10:24:27.000Z</time>
</trkpt>
<trkpt lat="60.1177156" lon="31.3805297">
<ele>92.770004</ele>
<time>2026-08-22T10:24:28.000Z</time>
</trkpt>
<trkpt lat="60.1178482" lon="31.3853517">
<ele>84.139999</ele>
<time>2026-08-22T10:24:38.000Z</time>
</trkpt>
<trkpt lat="60.1180928" lon="31.3871350">
<ele>83.229996</ele>
<time>2026-08-22T10:24:41.000Z</time>
</trkpt>
<trkpt lat="60.1180673" lon="31.3908626">
<ele>78.529999</ele>
<time>2026-08-22T10:24:47.000Z</time>
</trkpt>
<trkpt lat="60.1181353" lon="31.3965367">
<ele>90.450005</ele>
<time>2026-08-22T10:24:56.000Z</time>
</trkpt>
<trkpt lat="60.1176567" lon="31.4001363">
<ele>97.419998</ele>
<time>2026-08-22T10:25:02.000Z</time>
</trkpt>
<trkpt lat="60.1172789" lon="31.4025142">
<ele>100.430000</ele>
<time>2026-08-22T10:25:06.000Z</time>
</trkpt>
<trkpt lat="60.1168010" lon="31.3988429">
<ele>117.209999</ele>
<time>2026-08-22T10:25:12.000Z</time>
</trkpt>
<trkpt lat="60.1158975" lon="31.3916233">
<ele>115.699997</ele>
<time>2026-08-22T10:25:24.000Z</time>
</trkpt>
<trkpt lat="60.1155035" lon="31.3879861">
<ele>115.930000</ele>
<time>2026-08-22T10:25:30.000Z</time>
</trkpt>
<trkpt lat="60.1155493" lon="31.3836428">
<ele>113.550003</ele>
<time>2026-08-22T10:25:37.000Z</time>
</trkpt>
<trkpt lat="60.1156206" lon="31.3811472">
<ele>113.269997</ele>
<time>2026-08-22T10:25:41.000Z</time>
</trkpt>
<trkpt lat="60.1151349" lon="31.3776333">
<ele>111.269997</ele>
<time>2026-08-22T10:25:47.000Z</time>
</trkpt>
<trkpt lat="60.1150676" lon="31.3771071">
<ele>110.409996</ele>
<time>2026-08-22T10:25:48.000Z</time>
</trkpt>
<trkpt lat="60.1159191" lon="31.3747908">
<ele>112.519997</ele>
<time>2026-08-22T10:25:52.000Z</time>
</trkpt>
<trkpt lat="60.1160062" lon="31.3741939">
<ele>112.379997</ele>
<time>2026-08-22T10:25:53.000Z</time>
</trkpt>
<trkpt lat="60.1159131" lon="31.3711520">
<ele>116.169998</ele>
<time>2026-08-22T10:25:58.000Z</time>
</trkpt>
<trkpt lat="60.1160511" lon="31.3677759">
<ele>116.189995</ele>
<time>2026-08-22T10:26:04.000Z</time>
</trkpt>
<trkpt lat="60.1159850" lon="31.3675487">
<ele>116.349998</ele>
<time>2026-08-22T10:26:05.000Z</time>
</trkpt>
<trkpt lat="60.1159339" lon="31.3686966">
<ele>116.700005</ele>
<time>2026-08-22T10:26:08.000Z</time>
</trkpt>
<trkpt lat="60.1166615" lon="31.3672665">
<ele>117.659996</ele>
<time>2026-08-22T10:26:10.000Z</time>
</trkpt>
<trkpt lat="60.1189746" lon="31.3702898">
<ele>116.440002</ele>
<time>2026-08-22T10:26:11.000Z</time>
</trkpt>
<trkpt lat="60.1186190" lon="31.3759993">
<ele>100.120003</ele>
<time>2026-08-22T10:26:17.000Z</time>
</trkpt>
<trkpt lat="60.1179927" lon="31.3801726">
<ele>112.750000</ele>
<time>2026-08-22T10:26:22.000Z</time>
</trkpt>
<trkpt lat="60.1181161" lon="31.3831402">
<ele>116.990005</ele>
<time>2026-08-22T10:26:27.000Z</time>
</trkpt>
<trkpt lat="60.1183718" lon="31.3905468">
<ele>118.810005</ele>
<time>2026-08-22T10:26:39.000Z</time>
</trkpt>
<trkpt lat="60.1183746" lon="31.3968082">
<ele>133.740005</ele>
<time>2026-08-22T10:26:49.000Z</time>
</trkpt>
<trkpt lat="60.1178041" lon="31.4003444">
<ele>127.989998</ele>
<time>2026-08-22T10:26:55.000Z</time>
</trkpt>
<trkpt lat="60.1173950" lon="31.4027128">
<ele>126.349998</ele>
<time>2026-08-22T10:26:59.000Z</time>
</trkpt>
<trkpt lat="60.1160476" lon="31.3943975">
<ele>70.389999</ele>
<time>2026-08-22T10:27:12.000Z</time>
</trkpt>
<trkpt lat="60.1153598" lon="31.3872349">
<ele>99.170006</ele>
<time>2026-08-22T10:27:24.000Z</time>
</trkpt>
<trkpt lat="60.1155714" lon="31.3809702">
<ele>101.320000</ele>
<time>2026-08-22T10:27:34.000Z</time>
</trkpt>
<trkpt lat="60.1154213" lon="31.3780504">
<ele>102.879997</ele>
<time>2026-08-22T10:27:39.000Z</time>
</trkpt>
<trkpt lat="60.1156244" lon="31.3775327">
<ele>102.550003</ele>
<time>2026-08-22T10:27:40.000Z</time>
</trkpt>
<trkpt lat="60.1163180" lon="31.3740469">
<ele>99.370003</ele>
<time>2026-08-22T10:27:46.000Z</time>
</trkpt>
<trkpt lat="60.1159764" lon="31.3703854">
<ele>101.760002</ele>
<time>2026-08-22T10:27:52.000Z</time>
</trkpt>
<trkpt lat="60.1158323" lon="31.3681151">
<ele>101.320000</ele>
<time>2026-08-22T10:27:56.000Z</time>
</trkpt>
<trkpt lat="60.1332364" lon="31.3957040">
<ele>1538.789917</ele>
<time>2026-08-22T10:28:48.000Z</time>
</trkpt>
<trkpt lat="60.1335481" lon="31.3966940">
<ele>1547.439941</ele>
<time>2026-08-22T10:28:51.000Z</time>
</trkpt>
<trkpt lat="60.1338996" lon="31.3981770">
<ele>1554.699951</ele>
<time>2026-08-22T10:28:55.000Z</time>
</trkpt>
<trkpt lat="60.1350731" lon="31.3982893">
<ele>1564.679932</ele>
<time>2026-08-22T10:28:59.000Z</time>
</trkpt>
<trkpt lat="60.1353913" lon="31.3982652">
<ele>1565.559937</ele>
<time>2026-08-22T10:29:00.000Z</time>
</trkpt>
<trkpt lat="60.1364379" lon="31.3990744">
<ele>1571.089966</ele>
<time>2026-08-22T10:29:04.000Z</time>
</trkpt>
<trkpt lat="60.1367343" lon="31.3988620">
<ele>1583.650024</ele>
<time>2026-08-22T10:29:05.000Z</time>
</trkpt>
</trkseg>
<trkseg>
<trkpt lat="59.5514844" lon="31.1134009">
<ele>45.899998</ele>
<time>2026-08-31T19:33:21.000Z</time>
</trkpt>
<trkpt lat="59.5515344" lon="31.1133579">
<ele>47.230000</ele>
<time>2026-08-31T19:34:03.000Z</time>
</trkpt>
<trkpt lat="59.5514743" lon="31.1134207">
<ele>51.350002</ele>
<time>2026-08-31T19:34:51.000Z</time>
</trkpt>
<trkpt lat="59.5515258" lon="31.1134229">
<ele>54.279999</ele>
<time>2026-08-31T19:35:24.000Z</time>
</trkpt>
<trkpt lat="59.5514863" lon="31.1135088">
<ele>57.420002</ele>
<time>2026-08-31T19:36:03.000Z</time>
</trkpt>
<trkpt lat="59.5515030" lon="31.1134926">
<ele>57.050003</ele>
<time>2026-08-31T19:36:34.000Z</time>
</trkpt>
<trkpt lat="59.5514822" lon="31.1135081">
<ele>57.190002</ele>
<time>2026-08-31T19:37:01.000Z</time>
</trkpt>
<trkpt lat="59.5515057" lon="31.1134466">
<ele>57.549999</ele>
<time>2026-08-31T19:37:29.000Z</time>
</trkpt>
<trkpt lat="59.5515088" lon="31.1134257">
<ele>55.830002</ele>
<time>2026-08-31T19:37:55.000Z</time>
</trkpt>
<trkpt lat="59.5515319" lon="31.1133594">
<ele>58.790001</ele>
<time>2026-08-31T19:38:43.000Z</time>
</trkpt>
<trkpt lat="59.5515203" lon="31.1133632">
<ele>59.480003</ele>
<time>2026-08-31T19:39:05.000Z</time>
</trkpt>
<trkpt lat="59.5515079" lon="31.1134492">
<ele>59.650002</ele>
<time>2026-08-31T19:39:12.000Z</time>
</trkpt>
<trkpt lat="59.5515443" lon="31.1134549">
<ele>57.139999</ele>
<time>2026-08-31T19:39:22.000Z</time>
</trkpt>
<trkpt lat="59.5516015" lon="31.1134596">
<ele>55.459999</ele>
<time>2026-08-31T19:39:40.000Z</time>
</trkpt>
<trkpt lat="59.5515728" lon="31.1133446">
<ele>54.139999</ele>
<time>2026-08-31T19:40:02.000Z</time>
</trkpt>
<trkpt lat="59.5516447" lon="31.1131670">
<ele>55.600002</ele>
<time>2026-08-31T19:40:07.000Z</time>
</trkpt>
<trkpt lat="59.5517462" lon="31.1129862">
<ele>55.290001</ele>
<time>2026-08-31T19:40:10.000Z</time>
</trkpt>
<trkpt lat="59.5518899" lon="31.1127650">
<ele>54.889999</ele>
<time>2026-08-31T19:40:13.000Z</time>
</trkpt>
<trkpt lat="59.5520442" lon="31.1122786">
<ele>54.620003</ele>
<time>2026-08-31T19:40:17.000Z</time>
</trkpt>
<trkpt lat="59.5521723" lon="31.1116982">
<ele>55.450001</ele>
<time>2026-08-31T19:40:21.000Z</time>
</trkpt>
<trkpt lat="59.5522903" lon="31.1108513">
<ele>53.809998</ele>
<time>2026-08-31T19:40:27.000Z</time>
</trkpt>
<trkpt lat="59.5523690" lon="31.1101892">
<ele>51.910000</ele>
<time>2026-08-31T19:40:31.000Z</time>
</trkpt>
<trkpt lat="59.5525909" lon="31.1092523">
<ele>50.459999</ele>
<time>2026-08-31T19:40:37.000Z</time>
</trkpt>
<trkpt lat="59.5532526" lon="31.1079203">
<ele>49.619999</ele>
<time>2026-08-31T19:40:46.000Z</time>
</trkpt>
<trkpt lat="59.5541306" lon="31.1064595">
<ele>57.740002</ele>
<time>2026-08-31T19:40:58.000Z</time>
</trkpt>
<trkpt lat="59.5543096" lon="31.1061160">
<ele>58.730000</ele>
<time>2026-08-31T19:41:02.000Z</time>
</trkpt>
<trkpt lat="59.5549040" lon="31.1051006">
<ele>61.270000</ele>
<time>2026-08-31T19:41:14.000Z</time>
</trkpt>
<trkpt lat="59.5555986" lon="31.1044376">
<ele>64.479996</ele>
<time>2026-08-31T19:41:25.000Z</time>
</trkpt>
<trkpt lat="59.5565127" lon="31.1038094">
<ele>65.730003</ele>
<time>2026-08-31T19:41:36.000Z</time>
</trkpt>
<trkpt lat="59.5572012" lon="31.1033807">
<ele>64.910004</ele>
<time>2026-08-31T19:41:45.000Z</time>
</trkpt>
<trkpt lat="59.5573643" lon="31.1032188">
<ele>64.230003</ele>
<time>2026-08-31T19:41:49.000Z</time>
</trkpt>
<trkpt lat="59.5578199" lon="31.1024201">
<ele>61.209999</ele>
<time>2026-08-31T19:42:00.000Z</time>
</trkpt>
<trkpt lat="59.5579810" lon="31.1020863">
<ele>59.689999</ele>
<time>2026-08-31T19:42:04.000Z</time>
</trkpt>
<trkpt lat="59.5582312" lon="31.1017023">
<ele>58.290001</ele>
<time>2026-08-31T19:42:10.000Z</time>
</trkpt>
<trkpt lat="59.5586028" lon="31.1014409">
<ele>57.980000</ele>
<time>2026-08-31T19:42:17.000Z</time>
</trkpt>
<trkpt lat="59.5590171" lon="31.1012505">
<ele>59.730000</ele>
<time>2026-08-31T19:42:23.000Z</time>
</trkpt>
<trkpt lat="59.5591243" lon="31.1012042">
<ele>59.669998</ele>
<time>2026-08-31T19:42:25.000Z</time>
</trkpt>
<trkpt lat="59.5598029" lon="31.1008283">
<ele>60.369999</ele>
<time>2026-08-31T19:42:36.000Z</time>
</trkpt>
<trkpt lat="59.5600807" lon="31.1005361">
<ele>59.400002</ele>
<time>2026-08-31T19:42:40.000Z</time>
</trkpt>
<trkpt lat="59.5603063" lon="31.1001217">
<ele>59.040001</ele>
<time>2026-08-31T19:42:44.000Z</time>
</trkpt>
<trkpt lat="59.5605044" lon="31.0997724">
<ele>60.270000</ele>
<time>2026-08-31T19:42:48.000Z</time>
</trkpt>
<trkpt lat="59.5609869" lon="31.0989726">
<ele>57.440002</ele>
<time>2026-08-31T19:42:57.000Z</time>
</trkpt>
<trkpt lat="59.5616639" lon="31.0981873">
<ele>52.209999</ele>
<time>2026-08-31T19:43:08.000Z</time>
</trkpt>
<trkpt lat="59.5617781" lon="31.0980048">
<ele>51.009998</ele>
<time>2026-08-31T19:43:10.000Z</time>
</trkpt>
<trkpt lat="59.5620345" lon="31.0974205">
<ele>47.639999</ele>
<time>2026-08-31T19:43:15.000Z</time>
</trkpt>
<trkpt lat="59.5620824" lon="31.0969673">
<ele>45.639999</ele>
<time>2026-08-31T19:43:19.000Z</time>
</trkpt>
<trkpt lat="59.5621089" lon="31.0965628">
<ele>44.869999</ele>
<time>2026-08-31T19:43:28.000Z</time>
</trkpt>
<trkpt lat="59.5621895" lon="31.0962701">
<ele>51.989998</ele>
<time>2026-08-31T19:43:54.000Z</time>
</trkpt>
<trkpt lat="59.5622236" lon="31.0960221">
<ele>52.630001</ele>
<time>2026-08-31T19:43:57.000Z</time>
</trkpt>
<trkpt lat="59.5623676" lon="31.0956701">
<ele>53.540001</ele>
<time>2026-08-31T19:44:01.000Z</time>
</trkpt>
<trkpt lat="59.5626137" lon="31.0953071">
<ele>54.289997</ele>
<time>2026-08-31T19:44:06.000Z</time>
</trkpt>
<trkpt lat="59.5630655" lon="31.0949281">
<ele>54.199997</ele>
<time>2026-08-31T19:44:13.000Z</time>
</trkpt>
<trkpt lat="59.5633605" lon="31.0945037">
<ele>53.750000</ele>
<time>2026-08-31T19:44:18.000Z</time>
</trkpt>
<trkpt lat="59.5639060" lon="31.0934482">
<ele>53.540001</ele>
<time>2026-08-31T19:44:29.000Z</time>
</trkpt>
<trkpt lat="59.5640728" lon="31.0930504">
<ele>52.320004</ele>
<time>2026-08-31T19:44:33.000Z</time>
</trkpt>
<trkpt lat="59.5641608" lon="31.0927769">
<ele>51.350002</ele>
<time>2026-08-31T19:44:36.000Z</time>
</trkpt>
<trkpt lat="59.5646224" lon="31.0915687">
<ele>43.509998</ele>
<time>2026-08-31T19:44:48.000Z</time>
</trkpt>
<trkpt lat="59.5648410" lon="31.0910667">
<ele>39.840000</ele>
<time>2026-08-31T19:44:53.000Z</time>
</trkpt>
<trkpt lat="59.5649785" lon="31.0907441">
<ele>37.770000</ele>
<time>2026-08-31T19:44:56.000Z</time>
</trkpt>
<trkpt lat="59.5650717" lon="31.0905651">
<ele>36.150002</ele>
<time>2026-08-31T19:44:58.000Z</time>
</trkpt>
<trkpt lat="59.5651585" lon="31.0903953">
<ele>34.459999</ele>
<time>2026-08-31T19:45:00.000Z</time>
</trkpt>
<trkpt lat="59.5656548" lon="31.0891625">
<ele>28.370001</ele>
<time>2026-08-31T19:45:11.000Z</time>
</trkpt>
<trkpt lat="59.5658270" lon="31.0885898">
<ele>27.300001</ele>
<time>2026-08-31T19:45:15.000Z</time>
</trkpt>
<trkpt lat="59.5659006" lon="31.0882581">
<ele>26.949999</ele>
<time>2026-08-31T19:45:17.000Z</time>
</trkpt>
<trkpt lat="59.5661264" lon="31.0866503">
<ele>24.410000</ele>
<time>2026-08-31T19:45:27.000Z</time>
</trkpt>
<trkpt lat="59.5663107" lon="31.0862198">
<ele>21.170000</ele>
<time>2026-08-31T19:45:31.000Z</time>
</trkpt>
<trkpt lat="59.5665669" lon="31.0852248">
<ele>14.930000</ele>
<time>2026-08-31T19:45:42.000Z</time>
</trkpt>
<trkpt lat="59.5666294" lon="31.0849970">
<ele>25.570000</ele>
<time>2026-08-31T19:46:02.000Z</time>
</trkpt>
<trkpt lat="59.5667103" lon="31.0848138">
<ele>26.639999</ele>
<time>2026-08-31T19:46:12.000Z</time>
</trkpt>
<trkpt lat="59.5668218" lon="31.0848229">
<ele>33.170002</ele>
<time>2026-08-31T19:46:29.000Z</time>
</trkpt>
<trkpt lat="59.5668940" lon="31.0846201">
<ele>33.360001</ele>
<time>2026-08-31T19:46:33.000Z</time>
</trkpt>
<trkpt lat="59.5674793" lon="31.0835220">
<ele>40.299999</ele>
<time>2026-08-31T19:46:47.000Z</time>
</trkpt>
<trkpt lat="59.5676128" lon="31.0834324">
<ele>40.779999</ele>
<time>2026-08-31T19:46:51.000Z</time>
</trkpt>
<trkpt lat="59.5678112" lon="31.0830821">
<ele>44.020000</ele>
<time>2026-08-31T19:46:57.000Z</time>
</trkpt>
<trkpt lat="59.5686627" lon="31.0824363">
<ele>46.470001</ele>
<time>2026-08-31T19:47:09.000Z</time>
</trkpt>
<trkpt lat="59.5689024" lon="31.0823840">
<ele>47.849998</ele>
<time>2026-08-31T19:47:14.000Z</time>
</trkpt>
<trkpt lat="59.5690033" lon="31.0826315">
<ele>50.329998</ele>
<time>2026-08-31T19:47:18.000Z</time>
</trkpt>
<trkpt lat="59.5692183" lon="31.0842564">
<ele>55.119999</ele>
<time>2026-08-31T19:47:27.000Z</time>
</trkpt>
<trkpt lat="59.5696047" lon="31.0871823">
<ele>54.939999</ele>
<time>2026-08-31T19:47:37.000Z</time>
</trkpt>
<trkpt lat="59.5701454" lon="31.0912013">
<ele>50.169998</ele>
<time>2026-08-31T19:47:48.000Z</time>
</trkpt>
<trkpt lat="59.5707893" lon="31.0965378">
<ele>55.119999</ele>
<time>2026-08-31T19:48:01.000Z</time>
</trkpt>
<trkpt lat="59.5716563" lon="31.1036102">
<ele>58.340000</ele>
<time>2026-08-31T19:48:18.000Z</time>
</trkpt>
<trkpt lat="59.5727346" lon="31.1121447">
<ele>55.129997</ele>
<time>2026-08-31T19:48:38.000Z</time>
</trkpt>
<trkpt lat="59.5733720" lon="31.1174500">
<ele>58.350002</ele>
<time>2026-08-31T19:48:50.000Z</time>
</trkpt>
<trkpt lat="59.5742528" lon="31.1244718">
<ele>58.490002</ele>
<time>2026-08-31T19:49:06.000Z</time>
</trkpt>
<trkpt lat="59.5753091" lon="31.1330316">
<ele>59.560001</ele>
<time>2026-08-31T19:49:25.000Z</time>
</trkpt>
<trkpt lat="59.5762280" lon="31.1404582">
<ele>60.590000</ele>
<time>2026-08-31T19:49:41.000Z</time>
</trkpt>
<trkpt lat="59.5771546" lon="31.1477905">
<ele>54.969997</ele>
<time>2026-08-31T19:49:57.000Z</time>
</trkpt>
<trkpt lat="59.5780333" lon="31.1548588">
<ele>52.149998</ele>
<time>2026-08-31T19:50:13.000Z</time>
</trkpt>
<trkpt lat="59.5789376" lon="31.1622215">
<ele>57.910000</ele>
<time>2026-08-31T19:50:30.000Z</time>
</trkpt>
<trkpt lat="59.5795649" lon="31.1672410">
<ele>56.269997</ele>
<time>2026-08-31T19:50:42.000Z</time>
</trkpt>
<trkpt lat="59.5799002" lon="31.1705256">
<ele>57.099998</ele>
<time>2026-08-31T19:50:51.000Z</time>
</trkpt>
<trkpt lat="59.5797343" lon="31.1730593">
<ele>58.220001</ele>
<time>2026-08-31T19:50:59.000Z</time>
</trkpt>
<trkpt lat="59.5792587" lon="31.1777890">
<ele>59.860001</ele>
<time>2026-08-31T19:51:12.000Z</time>
</trkpt>
<trkpt lat="59.5788865" lon="31.1826176">
<ele>62.400002</ele>
<time>2026-08-31T19:51:24.000Z</time>
</trkpt>
<trkpt lat="59.5790313" lon="31.1861595">
<ele>64.709999</ele>
<time>2026-08-31T19:51:33.000Z</time>
</trkpt>
<trkpt lat="59.5797044" lon="31.1904948">
<ele>64.629997</ele>
<time>2026-08-31T19:51:45.000Z</time>
</trkpt>
<trkpt lat="59.5807347" lon="31.1943291">
<ele>62.419998</ele>
<time>2026-08-31T19:51:57.000Z</time>
</trkpt>
<trkpt lat="59.5819298" lon="31.1966438">
<ele>67.650002</ele>
<time>2026-08-31T19:52:07.000Z</time>
</trkpt>
<trkpt lat="59.5833164" lon="31.1994002">
<ele>69.610001</ele>
<time>2026-08-31T19:52:21.000Z</time>
</trkpt>
<trkpt lat="59.5844783" lon="31.2017438">
<ele>70.690002</ele>
<time>2026-08-31T19:52:32.000Z</time>
</trkpt>
<trkpt lat="59.5847362" lon="31.2022792">
<ele>71.090004</ele>
<time>2026-08-31T19:52:36.000Z</time>
</trkpt>
<trkpt lat="59.5847179" lon="31.2026746">
<ele>70.049995</ele>
<time>2026-08-31T19:52:42.000Z</time>
</trkpt>
<trkpt lat="59.5844956" lon="31.2029570">
<ele>71.989998</ele>
<time>2026-08-31T19:52:53.000Z</time>
</trkpt>
<trkpt lat="59.5844062" lon="31.2031202">
<ele>72.330002</ele>
<time>2026-08-31T19:53:00.000Z</time>
</trkpt>
<trkpt lat="59.5842793" lon="31.2031663">
<ele>73.059998</ele>
<time>2026-08-31T19:53:19.000Z</time>
</trkpt>
<trkpt lat="59.5840736" lon="31.2032148">
<ele>72.220001</ele>
<time>2026-08-31T19:53:36.000Z</time>
</trkpt>
<trkpt lat="59.5839665" lon="31.2032263">
<ele>71.309998</ele>
<time>2026-08-31T19:53:46.000Z</time>
</trkpt>
<trkpt lat="59.5839075" lon="31.2031746">
<ele>71.559998</ele>
<time>2026-08-31T19:54:05.000Z</time>
</trkpt>
<trkpt lat="59.5839672" lon="31.2031460">
<ele>72.590004</ele>
<time>2026-08-31T19:54:19.000Z</time>
</trkpt>
<trkpt lat="59.5838823" lon="31.2032474">
<ele>73.599998</ele>
<time>2026-08-31T19:54:39.000Z</time>
</trkpt>
<trkpt lat="59.5838756" lon="31.2032674">
<ele>73.660004</ele>
<time>2026-08-31T19:54:40.000Z</time>
</trkpt>
<trkpt lat="59.5837568" lon="31.2034386">
<ele>74.190002</ele>
<time>2026-08-31T19:54:52.000Z</time>
</trkpt>
<trkpt lat="59.5836800" lon="31.2034294">
<ele>75.400002</ele>
<time>2026-08-31T19:55:12.000Z</time>
</trkpt>
<trkpt lat="59.5837158" lon="31.2034804">
<ele>76.839996</ele>
<time>2026-08-31T19:55:40.000Z</time>
</trkpt>
<trkpt lat="59.5837007" lon="31.2034940">
<ele>77.150002</ele>
<time>2026-08-31T19:56:04.000Z</time>
</trkpt>
<trkpt lat="59.5836630" lon="31.2034378">
<ele>76.900002</ele>
<time>2026-08-31T19:56:30.000Z</time>
</trkpt>
<trkpt lat="59.5837027" lon="31.2033588">
<ele>76.500000</ele>
<time>2026-08-31T19:56:50.000Z</time>
</trkpt>
<trkpt lat="59.5836929" lon="31.2032271">
<ele>74.709999</ele>
<time>2026-08-31T19:57:17.000Z</time>
</trkpt>
<trkpt lat="59.5837188" lon="31.2033235">
<ele>73.739998</ele>
<time>2026-08-31T19:57:41.000Z</time>
</trkpt>
<trkpt lat="59.5837887" lon="31.2033422">
<ele>73.570000</ele>
<time>2026-08-31T19:58:07.000Z</time>
</trkpt>
<trkpt lat="59.5838178" lon="31.2033762">
<ele>73.599998</ele>
<time>2026-08-31T19:58:27.000Z</time>
</trkpt>
<trkpt lat="59.5837157" lon="31.2033144">
<ele>72.629997</ele>
<time>2026-08-31T19:58:55.000Z</time>
</trkpt>
<trkpt lat="59.5837225" lon="31.2033967">
<ele>72.709999</ele>
<time>2026-08-31T19:59:14.000Z</time>
</trkpt>
<trkpt lat="59.5837131" lon="31.2034223">
<ele>72.919998</ele>
<time>2026-08-31T19:59:41.000Z</time>
</trkpt>
<trkpt lat="59.5836765" lon="31.2033801">
<ele>71.339996</ele>
<time>2026-08-31T20:00:07.000Z</time>
</trkpt>
<trkpt lat="59.5836707" lon="31.2033823">
<ele>71.119995</ele>
<time>2026-08-31T20:00:36.000Z</time>
</trkpt>
<trkpt lat="59.5836955" lon="31.2034081">
<ele>71.309998</ele>
<time>2026-08-31T20:01:07.000Z</time>
</trkpt>
<trkpt lat="59.5837197" lon="31.2034321">
<ele>71.930000</ele>
<time>2026-08-31T20:01:36.000Z</time>
</trkpt>
<trkpt lat="59.5837208" lon="31.2034164">
<ele>70.990005</ele>
<time>2026-08-31T20:02:05.000Z</time>
</trkpt>
<trkpt lat="59.5837247" lon="31.2033963">
<ele>73.320000</ele>
<time>2026-08-31T20:02:36.000Z</time>
</trkpt>
<trkpt lat="59.5837164" lon="31.2034499">
<ele>75.449997</ele>
<time>2026-08-31T20:03:06.000Z</time>
</trkpt>
<trkpt lat="59.5836706" lon="31.2034354">
<ele>73.559998</ele>
<time>2026-08-31T20:03:31.000Z</time>
</trkpt>
<trkpt lat="59.5836435" lon="31.2034292">
<ele>72.669998</ele>
<time>2026-08-31T20:03:59.000Z</time>
</trkpt>
<trkpt lat="59.5837102" lon="31.2035094">
<ele>73.760002</ele>
<time>2026-08-31T20:04:28.000Z</time>
</trkpt>
<trkpt lat="59.5837143" lon="31.2033818">
<ele>74.629997</ele>
<time>2026-08-31T20:04:53.000Z</time>
</trkpt>
<trkpt lat="59.5836722" lon="31.2031879">
<ele>73.690002</ele>
<time>2026-08-31T20:05:15.000Z</time>
</trkpt>
<trkpt lat="59.5836644" lon="31.2031784">
<ele>72.959999</ele>
<time>2026-08-31T20:05:40.000Z</time>
</trkpt>
<trkpt lat="59.5836470" lon="31.2031390">
<ele>71.599998</ele>
<time>2026-08-31T20:06:08.000Z</time>
</trkpt>
<trkpt lat="59.5836297" lon="31.2030944">
<ele>69.879997</ele>
<time>2026-08-31T20:06:35.000Z</time>
</trkpt>
<trkpt lat="59.5835703" lon="31.2031378">
<ele>70.339996</ele>
<time>2026-08-31T20:06:55.000Z</time>
</trkpt>
<trkpt lat="59.5834789" lon="31.2032433">
<ele>70.040001</ele>
<time>2026-08-31T20:07:15.000Z</time>
</trkpt>
<trkpt lat="59.5833270" lon="31.2033077">
<ele>70.029999</ele>
<time>2026-08-31T20:07:36.000Z</time>
</trkpt>
<trkpt lat="59.5832381" lon="31.2034200">
<ele>69.849998</ele>
<time>2026-08-31T20:07:52.000Z</time>
</trkpt>
<trkpt lat="59.5831004" lon="31.2036417">
<ele>69.770004</ele>
<time>2026-08-31T20:08:11.000Z</time>
</trkpt>
<trkpt lat="59.5829507" lon="31.2038439">
<ele>69.779999</ele>
<time>2026-08-31T20:08:31.000Z</time>
</trkpt>
<trkpt lat="59.5828118" lon="31.2040495">
<ele>70.750000</ele>
<time>2026-08-31T20:08:50.000Z</time>
</trkpt>
<trkpt lat="59.5827149" lon="31.2041752">
<ele>71.370003</ele>
<time>2026-08-31T20:09:14.000Z</time>
</trkpt>
<trkpt lat="59.5825745" lon="31.2043493">
<ele>72.599998</ele>
<time>2026-08-31T20:09:29.000Z</time>
</trkpt>
<trkpt lat="59.5824606" lon="31.2044736">
<ele>73.680000</ele>
<time>2026-08-31T20:09:42.000Z</time>
</trkpt>
<trkpt lat="59.5822961" lon="31.2046196">
<ele>74.430000</ele>
<time>2026-08-31T20:09:58.000Z</time>
</trkpt>
<trkpt lat="59.5821353" lon="31.2048079">
<ele>74.159996</ele>
<time>2026-08-31T20:10:16.000Z</time>
</trkpt>
<trkpt lat="59.5820213" lon="31.2049592">
<ele>72.889999</ele>
<time>2026-08-31T20:10:30.000Z</time>
</trkpt>
<trkpt lat="59.5819899" lon="31.2050165">
<ele>70.349998</ele>
<time>2026-08-31T20:10:48.000Z</time>
</trkpt>
<trkpt lat="59.5818636" lon="31.2052145">
<ele>70.169998</ele>
<time>2026-08-31T20:11:10.000Z</time>
</trkpt>
<trkpt lat="59.5818198" lon="31.2052315">
<ele>70.139999</ele>
<time>2026-08-31T20:11:15.000Z</time>
</trkpt>
<trkpt lat="59.5816770" lon="31.2053306">
<ele>71.430000</ele>
<time>2026-08-31T20:11:31.000Z</time>
</trkpt>
<trkpt lat="59.5815945" lon="31.2053886">
<ele>71.339996</ele>
<time>2026-08-31T20:11:40.000Z</time>
</trkpt>
<trkpt lat="59.5815525" lon="31.2054099">
<ele>71.000000</ele>
<time>2026-08-31T20:11:44.000Z</time>
</trkpt>
<trkpt lat="59.5815193" lon="31.2054808">
<ele>70.419998</ele>
<time>2026-08-31T20:11:49.000Z</time>
</trkpt>
<trkpt lat="59.5813984" lon="31.2056179">
<ele>69.230003</ele>
<time>2026-08-31T20:12:02.000Z</time>
</trkpt>
<trkpt lat="59.5812867" lon="31.2057428">
<ele>69.180000</ele>
<time>2026-08-31T20:12:13.000Z</time>
</trkpt>
<trkpt lat="59.5812453" lon="31.2058022">
<ele>68.800003</ele>
<time>2026-08-31T20:12:17.000Z</time>
</trkpt>
<trkpt lat="59.5811938" lon="31.2058528">
<ele>68.279999</ele>
<time>2026-08-31T20:12:22.000Z</time>
</trkpt>
<trkpt lat="59.5810870" lon="31.2059703">
<ele>68.529999</ele>
<time>2026-08-31T20:12:35.000Z</time>
</trkpt>
<trkpt lat="59.5809343" lon="31.2061795">
<ele>69.209999</ele>
<time>2026-08-31T20:12:52.000Z</time>
</trkpt>
<trkpt lat="59.5809084" lon="31.2062122">
<ele>69.379997</ele>
<time>2026-08-31T20:12:55.000Z</time>
</trkpt>
<trkpt lat="59.5808885" lon="31.2062428">
<ele>69.790001</ele>
<time>2026-08-31T20:12:57.000Z</time>
</trkpt>
<trkpt lat="59.5807537" lon="31.2064120">
<ele>69.849998</ele>
<time>2026-08-31T20:13:13.000Z</time>
</trkpt>
<trkpt lat="59.5806541" lon="31.2065433">
<ele>69.260002</ele>
<time>2026-08-31T20:13:25.000Z</time>
</trkpt>
<trkpt lat="59.5805429" lon="31.2066733">
<ele>68.519997</ele>
<time>2026-08-31T20:13:38.000Z</time>
</trkpt>
<trkpt lat="59.5804106" lon="31.2068200">
<ele>68.790001</ele>
<time>2026-08-31T20:13:54.000Z</time>
</trkpt>
<trkpt lat="59.5802948" lon="31.2070929">
<ele>69.659996</ele>
<time>2026-08-31T20:14:15.000Z</time>
</trkpt>
<trkpt lat="59.5801308" lon="31.2073679">
<ele>69.879997</ele>
<time>2026-08-31T20:14:37.000Z</time>
</trkpt>
<trkpt lat="59.5799844" lon="31.2075462">
<ele>70.480003</ele>
<time>2026-08-31T20:14:53.000Z</time>
</trkpt>
<trkpt lat="59.5799011" lon="31.2076216">
<ele>70.410004</ele>
<time>2026-08-31T20:15:02.000Z</time>
</trkpt>
<trkpt lat="59.5797531" lon="31.2078217">
<ele>71.670006</ele>
<time>2026-08-31T20:15:19.000Z</time>
</trkpt>
<trkpt lat="59.5795362" lon="31.2080411">
<ele>72.339996</ele>
<time>2026-08-31T20:15:43.000Z</time>
</trkpt>
<trkpt lat="59.5793442" lon="31.2082468">
<ele>72.089996</ele>
<time>2026-08-31T20:16:06.000Z</time>
</trkpt>
<trkpt lat="59.5792671" lon="31.2083383">
<ele>71.900002</ele>
<time>2026-08-31T20:16:15.000Z</time>
</trkpt>
<trkpt lat="59.5792440" lon="31.2083705">
<ele>71.870003</ele>
<time>2026-08-31T20:16:18.000Z</time>
</trkpt>
<trkpt lat="59.5790967" lon="31.2084807">
<ele>71.629997</ele>
<time>2026-08-31T20:16:34.000Z</time>
</trkpt>
<trkpt lat="59.5789162" lon="31.2086899">
<ele>71.620003</ele>
<time>2026-08-31T20:16:56.000Z</time>
</trkpt>
<trkpt lat="59.5787119" lon="31.2088251">
<ele>69.059998</ele>
<time>2026-08-31T20:17:20.000Z</time>
</trkpt>
<trkpt lat="59.5785611" lon="31.2088971">
<ele>68.229996</ele>
<time>2026-08-31T20:17:41.000Z</time>
</trkpt>
<trkpt lat="59.5784965" lon="31.2089425">
<ele>69.720001</ele>
<time>2026-08-31T20:18:07.000Z</time>
</trkpt>
<trkpt lat="59.5784329" lon="31.2090091">
<ele>69.620003</ele>
<time>2026-08-31T20:18:25.000Z</time>
</trkpt>
<trkpt lat="59.5783998" lon="31.2089871">
<ele>69.180000</ele>
<time>2026-08-31T20:18:50.000Z</time>
</trkpt>
<trkpt lat="59.5784052" lon="31.2089446">
<ele>68.209999</ele>
<time>2026-08-31T20:19:24.000Z</time>
</trkpt>
<trkpt lat="59.5784189" lon="31.2089417">
<ele>67.709999</ele>
<time>2026-08-31T20:19:53.000Z</time>
</trkpt>
<trkpt lat="59.5784103" lon="31.2089085">
<ele>67.889999</ele>
<time>2026-08-31T20:20:21.000Z</time>
</trkpt>
<trkpt lat="59.5783941" lon="31.2090404">
<ele>68.940002</ele>
<time>2026-08-31T20:20:43.000Z</time>
</trkpt>
<trkpt lat="59.5783051" lon="31.2091310">
<ele>67.930000</ele>
<time>2026-08-31T20:21:05.000Z</time>
</trkpt>
<trkpt lat="59.5782666" lon="31.2093105">
<ele>65.629997</ele>
<time>2026-08-31T20:21:28.000Z</time>
</trkpt>
<trkpt lat="59.5781328" lon="31.2094870">
<ele>62.270000</ele>
<time>2026-08-31T20:21:51.000Z</time>
</trkpt>
<trkpt lat="59.5779746" lon="31.2097080">
<ele>61.119999</ele>
<time>2026-08-31T20:22:15.000Z</time>
</trkpt>
<trkpt lat="59.5779464" lon="31.2097297">
<ele>60.730000</ele>
<time>2026-08-31T20:22:20.000Z</time>
</trkpt>
<trkpt lat="59.5777890" lon="31.2098915">
<ele>61.250000</ele>
<time>2026-08-31T20:22:40.000Z</time>
</trkpt>
<trkpt lat="59.5777239" lon="31.2099328">
<ele>60.250000</ele>
<time>2026-08-31T20:22:53.000Z</time>
</trkpt>
<trkpt lat="59.5776691" lon="31.2099494">
<ele>63.889999</ele>
<time>2026-08-31T20:23:22.000Z</time>
</trkpt>
<trkpt lat="59.5776854" lon="31.2100037">
<ele>66.410004</ele>
<time>2026-08-31T20:23:56.000Z</time>
</trkpt>
<trkpt lat="59.5776446" lon="31.2099765">
<ele>67.169998</ele>
<time>2026-08-31T20:24:29.000Z</time>
</trkpt>
<trkpt lat="59.5776856" lon="31.2099751">
<ele>68.860001</ele>
<time>2026-08-31T20:24:59.000Z</time>
</trkpt>
<trkpt lat="59.5776865" lon="31.2098395">
<ele>71.099998</ele>
<time>2026-08-31T20:25:37.000Z</time>
</trkpt>
<trkpt lat="59.5776596" lon="31.2099165">
<ele>71.380005</ele>
<time>2026-08-31T20:26:06.000Z</time>
</trkpt>
<trkpt lat="59.5776809" lon="31.2099476">
<ele>73.810005</ele>
<time>2026-08-31T20:26:44.000Z</time>
</trkpt>
<trkpt lat="59.5776774" lon="31.2099416">
<ele>77.340004</ele>
<time>2026-08-31T20:27:16.000Z</time>
</trkpt>
<trkpt lat="59.5777120" lon="31.2099953">
<ele>82.010002</ele>
<time>2026-08-31T20:27:46.000Z</time>
</trkpt>
<trkpt lat="59.5777710" lon="31.2099945">
<ele>85.409996</ele>
<time>2026-08-31T20:28:18.000Z</time>
</trkpt>
<trkpt lat="59.5777355" lon="31.2099543">
<ele>81.950005</ele>
<time>2026-08-31T20:28:56.000Z</time>
</trkpt>
<trkpt lat="59.5777074" lon="31.2099757">
<ele>82.220001</ele>
<time>2026-08-31T20:29:33.000Z</time>
</trkpt>
<trkpt lat="59.5777505" lon="31.2100051">
<ele>81.690002</ele>
<time>2026-08-31T20:30:04.000Z</time>
</trkpt>
<trkpt lat="59.5778067" lon="31.2099848">
<ele>83.150002</ele>
<time>2026-08-31T20:30:31.000Z</time>
</trkpt>
<trkpt lat="59.5777620" lon="31.2100389">
<ele>83.940002</ele>
<time>2026-08-31T20:31:06.000Z</time>
</trkpt>
<trkpt lat="59.5777344" lon="31.2100500">
<ele>82.430000</ele>
<time>2026-08-31T20:31:38.000Z</time>
</trkpt>
<trkpt lat="59.5777208" lon="31.2100799">
<ele>83.330002</ele>
<time>2026-08-31T20:32:12.000Z</time>
</trkpt>
<trkpt lat="59.5777171" lon="31.2100490">
<ele>82.959999</ele>
<time>2026-08-31T20:32:45.000Z</time>
</trkpt>
<trkpt lat="59.5777847" lon="31.2101117">
<ele>82.410004</ele>
<time>2026-08-31T20:33:49.000Z</time>
</trkpt>
<trkpt lat="59.5777251" lon="31.2099760">
<ele>79.290001</ele>
<time>2026-08-31T20:36:22.000Z</time>
</trkpt>
<trkpt lat="59.5776470" lon="31.2099587">
<ele>78.740005</ele>
<time>2026-08-31T20:36:46.000Z</time>
</trkpt>
<trkpt lat="59.5775388" lon="31.2099463">
<ele>75.720001</ele>
<time>2026-08-31T20:37:10.000Z</time>
</trkpt>
<trkpt lat="59.5773787" lon="31.2100236">
<ele>73.750000</ele>
<time>2026-08-31T20:37:31.000Z</time>
</trkpt>
<trkpt lat="59.5771781" lon="31.2101175">
<ele>70.900002</ele>
<time>2026-08-31T20:37:53.000Z</time>
</trkpt>
<trkpt lat="59.5770530" lon="31.2100697">
<ele>68.449997</ele>
<time>2026-08-31T20:38:12.000Z</time>
</trkpt>
<trkpt lat="59.5768184" lon="31.2101046">
<ele>67.470001</ele>
<time>2026-08-31T20:38:38.000Z</time>
</trkpt>
<trkpt lat="59.5766151" lon="31.2100570">
<ele>67.260002</ele>
<time>2026-08-31T20:39:01.000Z</time>
</trkpt>
<trkpt lat="59.5764221" lon="31.2100203">
<ele>66.449997</ele>
<time>2026-08-31T20:39:26.000Z</time>
</trkpt>
<trkpt lat="59.5761983" lon="31.2100251">
<ele>66.340004</ele>
<time>2026-08-31T20:39:49.000Z</time>
</trkpt>
<trkpt lat="59.5761048" lon="31.2100818">
<ele>66.459999</ele>
<time>2026-08-31T20:40:10.000Z</time>
</trkpt>
<trkpt lat="59.5759650" lon="31.2100403">
<ele>66.500000</ele>
<time>2026-08-31T20:40:28.000Z</time>
</trkpt>
<trkpt lat="59.5759081" lon="31.2099058">
<ele>65.939995</ele>
<time>2026-08-31T20:40:50.000Z</time>
</trkpt>
<trkpt lat="59.5757860" lon="31.2096291">
<ele>63.750000</ele>
<time>2026-08-31T20:41:12.000Z</time>
</trkpt>
<trkpt lat="59.5757426" lon="31.2095887">
<ele>63.509998</ele>
<time>2026-08-31T20:41:17.000Z</time>
</trkpt>
<trkpt lat="59.5756348" lon="31.2095054">
<ele>64.239998</ele>
<time>2026-08-31T20:41:34.000Z</time>
</trkpt>
<trkpt lat="59.5755082" lon="31.2094735">
<ele>67.489998</ele>
<time>2026-08-31T20:41:56.000Z</time>
</trkpt>
<trkpt lat="59.5754464" lon="31.2092389">
<ele>68.639999</ele>
<time>2026-08-31T20:42:15.000Z</time>
</trkpt>
<trkpt lat="59.5755205" lon="31.2089897">
<ele>69.410004</ele>
<time>2026-08-31T20:42:34.000Z</time>
</trkpt>
<trkpt lat="59.5753762" lon="31.2088338">
<ele>70.669998</ele>
<time>2026-08-31T20:42:54.000Z</time>
</trkpt>
<trkpt lat="59.5752507" lon="31.2087897">
<ele>71.160004</ele>
<time>2026-08-31T20:43:13.000Z</time>
</trkpt>
<trkpt lat="59.5752317" lon="31.2087843">
<ele>70.720001</ele>
<time>2026-08-31T20:43:46.000Z</time>
</trkpt>
<trkpt lat="59.5752372" lon="31.2087710">
<ele>70.000000</ele>
<time>2026-08-31T20:44:14.000Z</time>
</trkpt>
<trkpt lat="59.5752140" lon="31.2087681">
<ele>70.529999</ele>
<time>2026-08-31T20:44:39.000Z</time>
</trkpt>
<trkpt lat="59.5752007" lon="31.2087698">
<ele>70.510002</ele>
<time>2026-08-31T20:45:08.000Z</time>
</trkpt>
<trkpt lat="59.5751245" lon="31.2087043">
<ele>70.949997</ele>
<time>2026-08-31T20:45:39.000Z</time>
</trkpt>
<trkpt lat="59.5749784" lon="31.2085160">
<ele>71.029999</ele>
<time>2026-08-31T20:46:01.000Z</time>
</trkpt>
<trkpt lat="59.5749556" lon="31.2085169">
<ele>68.970001</ele>
<time>2026-08-31T20:46:25.000Z</time>
</trkpt>
<trkpt lat="59.5748025" lon="31.2086281">
<ele>65.720001</ele>
<time>2026-08-31T20:46:43.000Z</time>
</trkpt>
<trkpt lat="59.5747671" lon="31.2086681">
<ele>64.980003</ele>
<time>2026-08-31T20:46:47.000Z</time>
</trkpt>
<trkpt lat="59.5747350" lon="31.2086855">
<ele>64.419998</ele>
<time>2026-08-31T20:46:50.000Z</time>
</trkpt>
<trkpt lat="59.5746038" lon="31.2087962">
<ele>63.959999</ele>
<time>2026-08-31T20:47:05.000Z</time>
</trkpt>
<trkpt lat="59.5745402" lon="31.2088101">
<ele>66.029999</ele>
<time>2026-08-31T20:47:20.000Z</time>
</trkpt>
<trkpt lat="59.5744938" lon="31.2089976">
<ele>66.909996</ele>
<time>2026-08-31T20:47:37.000Z</time>
</trkpt>
<trkpt lat="59.5743528" lon="31.2092757">
<ele>68.369995</ele>
<time>2026-08-31T20:47:53.000Z</time>
</trkpt>
<trkpt lat="59.5742191" lon="31.2094285">
<ele>68.279999</ele>
<time>2026-08-31T20:48:06.000Z</time>
</trkpt>
<trkpt lat="59.5740843" lon="31.2094672">
<ele>67.529999</ele>
<time>2026-08-31T20:48:21.000Z</time>
</trkpt>
<trkpt lat="59.5738597" lon="31.2095221">
<ele>66.590004</ele>
<time>2026-08-31T20:48:39.000Z</time>
</trkpt>
<trkpt lat="59.5736580" lon="31.2096438">
<ele>66.559998</ele>
<time>2026-08-31T20:48:55.000Z</time>
</trkpt>
<trkpt lat="59.5735531" lon="31.2098134">
<ele>65.779999</ele>
<time>2026-08-31T20:49:07.000Z</time>
</trkpt>
<trkpt lat="59.5734739" lon="31.2100532">
<ele>62.950001</ele>
<time>2026-08-31T20:49:21.000Z</time>
</trkpt>
<trkpt lat="59.5734411" lon="31.2101374">
<ele>62.340000</ele>
<time>2026-08-31T20:49:27.000Z</time>
</trkpt>
<trkpt lat="59.5733519" lon="31.2103206">
<ele>59.330002</ele>
<time>2026-08-31T20:49:39.000Z</time>
</trkpt>
<trkpt lat="59.5733432" lon="31.2103817">
<ele>56.869999</ele>
<time>2026-08-31T20:50:04.000Z</time>
</trkpt>
<trkpt lat="59.5733260" lon="31.2103988">
<ele>54.209999</ele>
<time>2026-08-31T20:50:34.000Z</time>
</trkpt>
<trkpt lat="59.5733133" lon="31.2103646">
<ele>52.820000</ele>
<time>2026-08-31T20:51:02.000Z</time>
</trkpt>
<trkpt lat="59.5733006" lon="31.2103794">
<ele>52.570000</ele>
<time>2026-08-31T20:51:26.000Z</time>
</trkpt>
<trkpt lat="59.5733091" lon="31.2103735">
<ele>50.730000</ele>
<time>2026-08-31T20:51:59.000Z</time>
</trkpt>
<trkpt lat="59.5733079" lon="31.2103506">
<ele>49.399998</ele>
<time>2026-08-31T20:52:39.000Z</time>
</trkpt>
<trkpt lat="59.5732930" lon="31.2103483">
<ele>49.730003</ele>
<time>2026-08-31T20:53:04.000Z</time>
</trkpt>
<trkpt lat="59.5733046" lon="31.2103501">
<ele>51.089996</ele>
<time>2026-08-31T20:53:28.000Z</time>
</trkpt>
<trkpt lat="59.5732280" lon="31.2105040">
<ele>52.049999</ele>
<time>2026-08-31T20:53:55.000Z</time>
</trkpt>
<trkpt lat="59.5730848" lon="31.2107462">
<ele>51.160000</ele>
<time>2026-08-31T20:54:17.000Z</time>
</trkpt>
<trkpt lat="59.5728886" lon="31.2110408">
<ele>49.360001</ele>
<time>2026-08-31T20:54:40.000Z</time>
</trkpt>
<trkpt lat="59.5727530" lon="31.2113020">
<ele>49.190002</ele>
<time>2026-08-31T20:54:59.000Z</time>
</trkpt>
<trkpt lat="59.5726321" lon="31.2114623">
<ele>48.719997</ele>
<time>2026-08-31T20:55:21.000Z</time>
</trkpt>
<trkpt lat="59.5724846" lon="31.2116040">
<ele>47.380001</ele>
<time>2026-08-31T20:55:44.000Z</time>
</trkpt>
<trkpt lat="59.5725050" lon="31.2116862">
<ele>48.099998</ele>
<time>2026-08-31T20:56:14.000Z</time>
</trkpt>
<trkpt lat="59.5724067" lon="31.2116866">
<ele>53.260002</ele>
<time>2026-08-31T20:56:44.000Z</time>
</trkpt>
<trkpt lat="59.5725120" lon="31.2117829">
<ele>57.540001</ele>
<time>2026-08-31T20:57:12.000Z</time>
</trkpt>
<trkpt lat="59.5724833" lon="31.2117740">
<ele>58.750000</ele>
<time>2026-08-31T20:57:42.000Z</time>
</trkpt>
<trkpt lat="59.5723399" lon="31.2118525">
<ele>60.970001</ele>
<time>2026-08-31T20:58:08.000Z</time>
</trkpt>
<trkpt lat="59.5721913" lon="31.2120786">
<ele>62.240002</ele>
<time>2026-08-31T20:58:29.000Z</time>
</trkpt>
<trkpt lat="59.5721495" lon="31.2122320">
<ele>63.980003</ele>
<time>2026-08-31T20:58:52.000Z</time>
</trkpt>
<trkpt lat="59.5719724" lon="31.2124786">
<ele>63.600002</ele>
<time>2026-08-31T20:59:17.000Z</time>
</trkpt>
<trkpt lat="59.5718155" lon="31.2125339">
<ele>61.780003</ele>
<time>2026-08-31T20:59:37.000Z</time>
</trkpt>
<trkpt lat="59.5716251" lon="31.2125334">
<ele>58.190002</ele>
<time>2026-08-31T20:59:59.000Z</time>
</trkpt>
<trkpt lat="59.5713713" lon="31.2125844">
<ele>55.949997</ele>
<time>2026-08-31T21:00:20.000Z</time>
</trkpt>
<trkpt lat="59.5711932" lon="31.2127630">
<ele>53.279999</ele>
<time>2026-08-31T21:00:40.000Z</time>
</trkpt>
<trkpt lat="59.5709794" lon="31.2129588">
<ele>54.340000</ele>
<time>2026-08-31T21:00:59.000Z</time>
</trkpt>
<trkpt lat="59.5708222" lon="31.2130207">
<ele>52.529999</ele>
<time>2026-08-31T21:01:25.000Z</time>
</trkpt>
<trkpt lat="59.5706514" lon="31.2130562">
<ele>51.389999</ele>
<time>2026-08-31T21:01:43.000Z</time>
</trkpt>
<trkpt lat="59.5705585" lon="31.2130632">
<ele>51.049999</ele>
<time>2026-08-31T21:01:57.000Z</time>
</trkpt>
<trkpt lat="59.5705371" lon="31.2130559">
<ele>50.940002</ele>
<time>2026-08-31T21:02:01.000Z</time>
</trkpt>
<trkpt lat="59.5703894" lon="31.2131295">
<ele>51.410000</ele>
<time>2026-08-31T21:02:19.000Z</time>
</trkpt>
<trkpt lat="59.5703740" lon="31.2131480">
<ele>52.070000</ele>
<time>2026-08-31T21:02:25.000Z</time>
</trkpt>
<trkpt lat="59.5702823" lon="31.2130665">
<ele>54.450001</ele>
<time>2026-08-31T21:02:45.000Z</time>
</trkpt>
<trkpt lat="59.5701287" lon="31.2130616">
<ele>57.009998</ele>
<time>2026-08-31T21:03:06.000Z</time>
</trkpt>
<trkpt lat="59.5699803" lon="31.2129827">
<ele>57.270000</ele>
<time>2026-08-31T21:03:25.000Z</time>
</trkpt>
<trkpt lat="59.5699275" lon="31.2129344">
<ele>57.190002</ele>
<time>2026-08-31T21:03:38.000Z</time>
</trkpt>
<trkpt lat="59.5698771" lon="31.2129205">
<ele>59.710003</ele>
<time>2026-08-31T21:04:03.000Z</time>
</trkpt>
<trkpt lat="59.5699148" lon="31.2128908">
<ele>60.189999</ele>
<time>2026-08-31T21:04:34.000Z</time>
</trkpt>
<trkpt lat="59.5699257" lon="31.2129023">
<ele>60.500000</ele>
<time>2026-08-31T21:04:59.000Z</time>
</trkpt>
<trkpt lat="59.5698681" lon="31.2128272">
<ele>60.590000</ele>
<time>2026-08-31T21:05:22.000Z</time>
</trkpt>
<trkpt lat="59.5697766" lon="31.2127041">
<ele>60.079998</ele>
<time>2026-08-31T21:05:37.000Z</time>
</trkpt>
<trkpt lat="59.5696695" lon="31.2123895">
<ele>59.430000</ele>
<time>2026-08-31T21:05:59.000Z</time>
</trkpt>
<trkpt lat="59.5696049" lon="31.2121544">
<ele>57.980000</ele>
<time>2026-08-31T21:06:15.000Z</time>
</trkpt>
<trkpt lat="59.5695250" lon="31.2118899">
<ele>55.579998</ele>
<time>2026-08-31T21:06:33.000Z</time>
</trkpt>
<trkpt lat="59.5694407" lon="31.2116640">
<ele>52.639999</ele>
<time>2026-08-31T21:06:50.000Z</time>
</trkpt>
<trkpt lat="59.5692358" lon="31.2113786">
<ele>50.510002</ele>
<time>2026-08-31T21:07:12.000Z</time>
</trkpt>
<trkpt lat="59.5690902" lon="31.2111527">
<ele>49.150002</ele>
<time>2026-08-31T21:07:28.000Z</time>
</trkpt>
<trkpt lat="59.5689022" lon="31.2109467">
<ele>47.559998</ele>
<time>2026-08-31T21:07:46.000Z</time>
</trkpt>
<trkpt lat="59.5688527" lon="31.2108975">
<ele>47.220001</ele>
<time>2026-08-31T21:07:51.000Z</time>
</trkpt>
<trkpt lat="59.5687287" lon="31.2107837">
<ele>45.150002</ele>
<time>2026-08-31T21:08:04.000Z</time>
</trkpt>
<trkpt lat="59.5685874" lon="31.2105236">
<ele>44.340000</ele>
<time>2026-08-31T21:08:22.000Z</time>
</trkpt>
<trkpt lat="59.5685035" lon="31.2104304">
<ele>43.570000</ele>
<time>2026-08-31T21:08:39.000Z</time>
</trkpt>
<trkpt lat="59.5684948" lon="31.2103427">
<ele>46.359997</ele>
<time>2026-08-31T21:09:02.000Z</time>
</trkpt>
<trkpt lat="59.5684707" lon="31.2103741">
<ele>49.009998</ele>
<time>2026-08-31T21:09:28.000Z</time>
</trkpt>
<trkpt lat="59.5684609" lon="31.2103611">
<ele>51.599998</ele>
<time>2026-08-31T21:10:01.000Z</time>
</trkpt>
<trkpt lat="59.5684811" lon="31.2102198">
<ele>56.029999</ele>
<time>2026-08-31T21:10:36.000Z</time>
</trkpt>
<trkpt lat="59.5684180" lon="31.2100756">
<ele>55.230000</ele>
<time>2026-08-31T21:11:03.000Z</time>
</trkpt>
<trkpt lat="59.5682495" lon="31.2097737">
<ele>55.459999</ele>
<time>2026-08-31T21:11:29.000Z</time>
</trkpt>
<trkpt lat="59.5680684" lon="31.2095875">
<ele>55.500000</ele>
<time>2026-08-31T21:11:48.000Z</time>
</trkpt>
<trkpt lat="59.5679200" lon="31.2094631">
<ele>54.630001</ele>
<time>2026-08-31T21:12:04.000Z</time>
</trkpt>
<trkpt lat="59.5677444" lon="31.2092925">
<ele>51.139999</ele>
<time>2026-08-31T21:12:24.000Z</time>
</trkpt>
<trkpt lat="59.5676617" lon="31.2091929">
<ele>49.250000</ele>
<time>2026-08-31T21:12:43.000Z</time>
</trkpt>
<trkpt lat="59.5676784" lon="31.2091703">
<ele>48.919998</ele>
<time>2026-08-31T21:13:01.000Z</time>
</trkpt>
<trkpt lat="59.5675985" lon="31.2091132">
<ele>48.130001</ele>
<time>2026-08-31T21:13:16.000Z</time>
</trkpt>
<trkpt lat="59.5674978" lon="31.2090401">
<ele>47.230000</ele>
<time>2026-08-31T21:13:31.000Z</time>
</trkpt>
<trkpt lat="59.5675251" lon="31.2089915">
<ele>47.020000</ele>
<time>2026-08-31T21:13:56.000Z</time>
</trkpt>
<trkpt lat="59.5675688" lon="31.2090038">
<ele>45.909996</ele>
<time>2026-08-31T21:14:27.000Z</time>
</trkpt>
<trkpt lat="59.5675633" lon="31.2089380">
<ele>46.770000</ele>
<time>2026-08-31T21:14:57.000Z</time>
</trkpt>
<trkpt lat="59.5675658" lon="31.2089554">
<ele>46.359997</ele>
<time>2026-08-31T21:15:27.000Z</time>
</trkpt>
<trkpt lat="59.5675106" lon="31.2089133">
<ele>46.349998</ele>
<time>2026-08-31T21:15:48.000Z</time>
</trkpt>
<trkpt lat="59.5673414" lon="31.2087430">
<ele>43.999996</ele>
<time>2026-08-31T21:16:08.000Z</time>
</trkpt>
<trkpt lat="59.5671829" lon="31.2085272">
<ele>42.480000</ele>
<time>2026-08-31T21:16:27.000Z</time>
</trkpt>
<trkpt lat="59.5670508" lon="31.2083646">
<ele>40.869999</ele>
<time>2026-08-31T21:16:49.000Z</time>
</trkpt>
<trkpt lat="59.5669589" lon="31.2082789">
<ele>37.490002</ele>
<time>2026-08-31T21:17:11.000Z</time>
</trkpt>
<trkpt lat="59.5667471" lon="31.2082129">
<ele>34.510002</ele>
<time>2026-08-31T21:17:34.000Z</time>
</trkpt>
<trkpt lat="59.5665877" lon="31.2081876">
<ele>32.730000</ele>
<time>2026-08-31T21:17:50.000Z</time>
</trkpt>
<trkpt lat="59.5665248" lon="31.2081882">
<ele>31.990002</ele>
<time>2026-08-31T21:17:56.000Z</time>
</trkpt>
<trkpt lat="59.5663575" lon="31.2082465">
<ele>30.510000</ele>
<time>2026-08-31T21:18:14.000Z</time>
</trkpt>
<trkpt lat="59.5663469" lon="31.2082807">
<ele>30.459999</ele>
<time>2026-08-31T21:18:39.000Z</time>
</trkpt>
<trkpt lat="59.5663061" lon="31.2082750">
<ele>30.709999</ele>
<time>2026-08-31T21:19:02.000Z</time>
</trkpt>
<trkpt lat="59.5662572" lon="31.2082956">
<ele>31.580000</ele>
<time>2026-08-31T21:19:25.000Z</time>
</trkpt>
<trkpt lat="59.5661523" lon="31.2083622">
<ele>31.430000</ele>
<time>2026-08-31T21:19:46.000Z</time>
</trkpt>
<trkpt lat="59.5659762" lon="31.2084803">
<ele>30.960001</ele>
<time>2026-08-31T21:20:04.000Z</time>
</trkpt>
<trkpt lat="59.5658914" lon="31.2085744">
<ele>31.430000</ele>
<time>2026-08-31T21:20:24.000Z</time>
</trkpt>
<trkpt lat="59.5658285" lon="31.2086168">
<ele>31.510000</ele>
<time>2026-08-31T21:20:44.000Z</time>
</trkpt>
<trkpt lat="59.5657386" lon="31.2086570">
<ele>31.559999</ele>
<time>2026-08-31T21:21:05.000Z</time>
</trkpt>
<trkpt lat="59.5657395" lon="31.2085987">
<ele>32.840000</ele>
<time>2026-08-31T21:21:27.000Z</time>
</trkpt>
<trkpt lat="59.5657224" lon="31.2085868">
<ele>29.980000</ele>
<time>2026-08-31T21:21:57.000Z</time>
</trkpt>
<trkpt lat="59.5657474" lon="31.2086736">
<ele>28.790001</ele>
<time>2026-08-31T21:22:26.000Z</time>
</trkpt>
<trkpt lat="59.5657014" lon="31.2085463">
<ele>27.840000</ele>
<time>2026-08-31T21:23:08.000Z</time>
</trkpt>
<trkpt lat="59.5656625" lon="31.2086062">
<ele>25.900000</ele>
<time>2026-08-31T21:23:40.000Z</time>
</trkpt>
<trkpt lat="59.5656182" lon="31.2086572">
<ele>26.510000</ele>
<time>2026-08-31T21:24:06.000Z</time>
</trkpt>
<trkpt lat="59.5656105" lon="31.2087819">
<ele>30.280001</ele>
<time>2026-08-31T21:24:37.000Z</time>
</trkpt>
<trkpt lat="59.5654930" lon="31.2087555">
<ele>32.290001</ele>
<time>2026-08-31T21:24:57.000Z</time>
</trkpt>
<trkpt lat="59.5654960" lon="31.2087956">
<ele>32.370003</ele>
<time>2026-08-31T21:25:13.000Z</time>
</trkpt>
<trkpt lat="59.5652503" lon="31.2087236">
<ele>31.880001</ele>
<time>2026-08-31T21:25:43.000Z</time>
</trkpt>
<trkpt lat="59.5651089" lon="31.2087124">
<ele>32.340000</ele>
<time>2026-08-31T21:26:02.000Z</time>
</trkpt>
<trkpt lat="59.5648634" lon="31.2086957">
<ele>32.629997</ele>
<time>2026-08-31T21:26:25.000Z</time>
</trkpt>
<trkpt lat="59.5647035" lon="31.2086658">
<ele>32.320000</ele>
<time>2026-08-31T21:26:41.000Z</time>
</trkpt>
<trkpt lat="59.5644986" lon="31.2086991">
<ele>31.040001</ele>
<time>2026-08-31T21:27:01.000Z</time>
</trkpt>
<trkpt lat="59.5642435" lon="31.2086947">
<ele>28.779999</ele>
<time>2026-08-31T21:27:24.000Z</time>
</trkpt>
<trkpt lat="59.5639708" lon="31.2086929">
<ele>26.660000</ele>
<time>2026-08-31T21:27:47.000Z</time>
</trkpt>
<trkpt lat="59.5638039" lon="31.2086852">
<ele>27.789999</ele>
<time>2026-08-31T21:28:08.000Z</time>
</trkpt>
<trkpt lat="59.5637248" lon="31.2086604">
<ele>29.740002</ele>
<time>2026-08-31T21:28:35.000Z</time>
</trkpt>
<trkpt lat="59.5637842" lon="31.2086169">
<ele>32.760002</ele>
<time>2026-08-31T21:29:06.000Z</time>
</trkpt>
<trkpt lat="59.5637816" lon="31.2084915">
<ele>34.799999</ele>
<time>2026-08-31T21:29:35.000Z</time>
</trkpt>
<trkpt lat="59.5637061" lon="31.2086056">
<ele>36.910000</ele>
<time>2026-08-31T21:30:01.000Z</time>
</trkpt>
<trkpt lat="59.5637493" lon="31.2086937">
<ele>37.510002</ele>
<time>2026-08-31T21:30:31.000Z</time>
</trkpt>
<trkpt lat="59.5637949" lon="31.2086355">
<ele>42.919998</ele>
<time>2026-08-31T21:31:02.000Z</time>
</trkpt>
<trkpt lat="59.5635521" lon="31.2086535">
<ele>41.500000</ele>
<time>2026-08-31T21:31:24.000Z</time>
</trkpt>
<trkpt lat="59.5632689" lon="31.2086572">
<ele>40.250000</ele>
<time>2026-08-31T21:31:49.000Z</time>
</trkpt>
<trkpt lat="59.5630714" lon="31.2086644">
<ele>38.410000</ele>
<time>2026-08-31T21:32:08.000Z</time>
</trkpt>
<trkpt lat="59.5631261" lon="31.2086083">
<ele>37.700001</ele>
<time>2026-08-31T21:32:23.000Z</time>
</trkpt>
<trkpt lat="59.5631398" lon="31.2085539">
<ele>36.330002</ele>
<time>2026-08-31T21:32:46.000Z</time>
</trkpt>
<trkpt lat="59.5629421" lon="31.2086510">
<ele>34.540001</ele>
<time>2026-08-31T21:33:07.000Z</time>
</trkpt>
<trkpt lat="59.5627140" lon="31.2086614">
<ele>33.130001</ele>
<time>2026-08-31T21:33:28.000Z</time>
</trkpt>
<trkpt lat="59.5625595" lon="31.2086594">
<ele>32.209999</ele>
<time>2026-08-31T21:33:45.000Z</time>
</trkpt>
<trkpt lat="59.5625295" lon="31.2086415">
<ele>33.459999</ele>
<time>2026-08-31T21:34:06.000Z</time>
</trkpt>
<trkpt lat="59.5625446" lon="31.2086068">
<ele>34.470001</ele>
<time>2026-08-31T21:34:36.000Z</time>
</trkpt>
<trkpt lat="59.5625459" lon="31.2087354">
<ele>36.049999</ele>
<time>2026-08-31T21:35:03.000Z</time>
</trkpt>
<trkpt lat="59.5624938" lon="31.2087689">
<ele>34.439999</ele>
<time>2026-08-31T21:35:37.000Z</time>
</trkpt>
<trkpt lat="59.5624495" lon="31.2087117">
<ele>32.660000</ele>
<time>2026-08-31T21:36:08.000Z</time>
</trkpt>
<trkpt lat="59.5624131" lon="31.2087162">
<ele>34.950001</ele>
<time>2026-08-31T21:36:32.000Z</time>
</trkpt>
<trkpt lat="59.5624705" lon="31.2088064">
<ele>37.100002</ele>
<time>2026-08-31T21:37:01.000Z</time>
</trkpt>
<trkpt lat="59.5623625" lon="31.2087977">
<ele>39.000000</ele>
<time>2026-08-31T21:37:28.000Z</time>
</trkpt>
<trkpt lat="59.5622195" lon="31.2086976">
<ele>38.270000</ele>
<time>2026-08-31T21:37:43.000Z</time>
</trkpt>
<trkpt lat="59.5621720" lon="31.2086935">
<ele>38.099998</ele>
<time>2026-08-31T21:38:02.000Z</time>
</trkpt>
<trkpt lat="59.5620468" lon="31.2086799">
<ele>35.970001</ele>
<time>2026-08-31T21:38:22.000Z</time>
</trkpt>
<trkpt lat="59.5618460" lon="31.2086465">
<ele>34.770000</ele>
<time>2026-08-31T21:38:40.000Z</time>
</trkpt>
<trkpt lat="59.5616076" lon="31.2086647">
<ele>35.070000</ele>
<time>2026-08-31T21:39:00.000Z</time>
</trkpt>
<trkpt lat="59.5615816" lon="31.2086676">
<ele>33.309998</ele>
<time>2026-08-31T21:39:22.000Z</time>
</trkpt>
<trkpt lat="59.5615110" lon="31.2086217">
<ele>31.170000</ele>
<time>2026-08-31T21:39:52.000Z</time>
</trkpt>
<trkpt lat="59.5615423" lon="31.2086292">
<ele>33.619999</ele>
<time>2026-08-31T21:40:21.000Z</time>
</trkpt>
<trkpt lat="59.5615656" lon="31.2085565">
<ele>35.150002</ele>
<time>2026-08-31T21:40:51.000Z</time>
</trkpt>
<trkpt lat="59.5615531" lon="31.2086572">
<ele>36.650002</ele>
<time>2026-08-31T21:41:18.000Z</time>
</trkpt>
<trkpt lat="59.5615720" lon="31.2085360">
<ele>35.230000</ele>
<time>2026-08-31T21:41:49.000Z</time>
</trkpt>
<trkpt lat="59.5614957" lon="31.2086262">
<ele>37.579998</ele>
<time>2026-08-31T21:42:18.000Z</time>
</trkpt>
<trkpt lat="59.5613102" lon="31.2086521">
<ele>33.989998</ele>
<time>2026-08-31T21:42:41.000Z</time>
</trkpt>
<trkpt lat="59.5610517" lon="31.2086376">
<ele>31.730000</ele>
<time>2026-08-31T21:43:06.000Z</time>
</trkpt>
<trkpt lat="59.5608560" lon="31.2086405">
<ele>28.560001</ele>
<time>2026-08-31T21:43:28.000Z</time>
</trkpt>
<trkpt lat="59.5606858" lon="31.2086401">
<ele>28.410000</ele>
<time>2026-08-31T21:43:46.000Z</time>
</trkpt>
<trkpt lat="59.5605084" lon="31.2086508">
<ele>28.270000</ele>
<time>2026-08-31T21:43:59.000Z</time>
</trkpt>
<trkpt lat="59.5603507" lon="31.2085641">
<ele>28.980001</ele>
<time>2026-08-31T21:44:20.000Z</time>
</trkpt>
<trkpt lat="59.5603259" lon="31.2085622">
<ele>28.859999</ele>
<time>2026-08-31T21:44:43.000Z</time>
</trkpt>
<trkpt lat="59.5603180" lon="31.2085749">
<ele>30.930000</ele>
<time>2026-08-31T21:45:11.000Z</time>
</trkpt>
<trkpt lat="59.5603182" lon="31.2085547">
<ele>31.010000</ele>
<time>2026-08-31T21:45:39.000Z</time>
</trkpt>
<trkpt lat="59.5603333" lon="31.2086386">
<ele>36.139999</ele>
<time>2026-08-31T21:46:07.000Z</time>
</trkpt>
<trkpt lat="59.5603623" lon="31.2085894">
<ele>38.389999</ele>
<time>2026-08-31T21:46:33.000Z</time>
</trkpt>
<trkpt lat="59.5603762" lon="31.2084903">
<ele>42.750000</ele>
<time>2026-08-31T21:47:05.000Z</time>
</trkpt>
<trkpt lat="59.5603162" lon="31.2085109">
<ele>44.500000</ele>
<time>2026-08-31T21:47:28.000Z</time>
</trkpt>
<trkpt lat="59.5602789" lon="31.2085453">
<ele>45.709999</ele>
<time>2026-08-31T21:47:57.000Z</time>
</trkpt>
<trkpt lat="59.5602105" lon="31.2085832">
<ele>44.940002</ele>
<time>2026-08-31T21:48:26.000Z</time>
</trkpt>
<trkpt lat="59.5602398" lon="31.2085476">
<ele>43.529999</ele>
<time>2026-08-31T21:48:57.000Z</time>
</trkpt>
<trkpt lat="59.5601856" lon="31.2084636">
<ele>44.289997</ele>
<time>2026-08-31T21:49:28.000Z</time>
</trkpt>
<trkpt lat="59.5600227" lon="31.2085479">
<ele>43.469997</ele>
<time>2026-08-31T21:49:48.000Z</time>
</trkpt>
<trkpt lat="59.5599064" lon="31.2085556">
<ele>43.139999</ele>
<time>2026-08-31T21:50:02.000Z</time>
</trkpt>
<trkpt lat="59.5597439" lon="31.2086029">
<ele>41.050003</ele>
<time>2026-08-31T21:50:24.000Z</time>
</trkpt>
<trkpt lat="59.5595207" lon="31.2085537">
<ele>40.450001</ele>
<time>2026-08-31T21:50:44.000Z</time>
</trkpt>
<trkpt lat="59.5593926" lon="31.2085272">
<ele>39.630001</ele>
<time>2026-08-31T21:51:07.000Z</time>
</trkpt>
<trkpt lat="59.5592977" lon="31.2085048">
<ele>38.020000</ele>
<time>2026-08-31T21:51:22.000Z</time>
</trkpt>
<trkpt lat="59.5591839" lon="31.2085124">
<ele>36.619999</ele>
<time>2026-08-31T21:51:36.000Z</time>
</trkpt>
<trkpt lat="59.5589785" lon="31.2083998">
<ele>33.950001</ele>
<time>2026-08-31T21:51:56.000Z</time>
</trkpt>
<trkpt lat="59.5588416" lon="31.2083283">
<ele>34.099998</ele>
<time>2026-08-31T21:52:06.000Z</time>
</trkpt>
<trkpt lat="59.5586708" lon="31.2082745">
<ele>31.599998</ele>
<time>2026-08-31T21:52:33.000Z</time>
</trkpt>
<trkpt lat="59.5586386" lon="31.2082398">
<ele>33.689999</ele>
<time>2026-08-31T21:53:03.000Z</time>
</trkpt>
<trkpt lat="59.5586340" lon="31.2082388">
<ele>35.450001</ele>
<time>2026-08-31T21:53:33.000Z</time>
</trkpt>
<trkpt lat="59.5586459" lon="31.2082428">
<ele>32.180000</ele>
<time>2026-08-31T21:54:15.000Z</time>
</trkpt>
<trkpt lat="59.5586870" lon="31.2082548">
<ele>35.150002</ele>
<time>2026-08-31T21:54:48.000Z</time>
</trkpt>
<trkpt lat="59.5586540" lon="31.2082270">
<ele>35.470001</ele>
<time>2026-08-31T21:55:28.000Z</time>
</trkpt>
<trkpt lat="59.5586392" lon="31.2082128">
<ele>35.669998</ele>
<time>2026-08-31T21:55:49.000Z</time>
</trkpt>
<trkpt lat="59.5586510" lon="31.2082216">
<ele>37.889999</ele>
<time>2026-08-31T21:56:20.000Z</time>
</trkpt>
<trkpt lat="59.5586431" lon="31.2081510">
<ele>43.110001</ele>
<time>2026-08-31T21:56:56.000Z</time>
</trkpt>
<trkpt lat="59.5585008" lon="31.2081296">
<ele>43.989998</ele>
<time>2026-08-31T21:57:19.000Z</time>
</trkpt>
<trkpt lat="59.5583674" lon="31.2079196">
<ele>42.919998</ele>
<time>2026-08-31T21:57:40.000Z</time>
</trkpt>
<trkpt lat="59.5582815" lon="31.2077041">
<ele>41.800003</ele>
<time>2026-08-31T21:58:01.000Z</time>
</trkpt>
<trkpt lat="59.5582044" lon="31.2075026">
<ele>40.980000</ele>
<time>2026-08-31T21:58:17.000Z</time>
</trkpt>
<trkpt lat="59.5580546" lon="31.2072952">
<ele>40.290001</ele>
<time>2026-08-31T21:58:33.000Z</time>
</trkpt>
<trkpt lat="59.5578888" lon="31.2071732">
<ele>38.570000</ele>
<time>2026-08-31T21:58:41.000Z</time>
</trkpt>
<trkpt lat="59.5577905" lon="31.2071254">
<ele>40.670002</ele>
<time>2026-08-31T21:59:09.000Z</time>
</trkpt>
<trkpt lat="59.5577586" lon="31.2069564">
<ele>42.290001</ele>
<time>2026-08-31T21:59:40.000Z</time>
</trkpt>
<trkpt lat="59.5577429" lon="31.2070067">
<ele>44.149998</ele>
<time>2026-08-31T22:00:11.000Z</time>
</trkpt>
<trkpt lat="59.5578179" lon="31.2070934">
<ele>45.660000</ele>
<time>2026-08-31T22:00:43.000Z</time>
</trkpt>
<trkpt lat="59.5577932" lon="31.2069876">
<ele>47.869999</ele>
<time>2026-08-31T22:01:10.000Z</time>
</trkpt>
<trkpt lat="59.5576624" lon="31.2069884">
<ele>46.570000</ele>
<time>2026-08-31T22:01:30.000Z</time>
</trkpt>
<trkpt lat="59.5575384" lon="31.2070431">
<ele>45.049999</ele>
<time>2026-08-31T22:01:48.000Z</time>
</trkpt>
<trkpt lat="59.5575008" lon="31.2070251">
<ele>44.869999</ele>
<time>2026-08-31T22:01:53.000Z</time>
</trkpt>
<trkpt lat="59.5573448" lon="31.2070140">
<ele>43.829998</ele>
<time>2026-08-31T22:02:15.000Z</time>
</trkpt>
<trkpt lat="59.5573381" lon="31.2070206">
<ele>43.790001</ele>
<time>2026-08-31T22:02:16.000Z</time>
</trkpt>
<trkpt lat="59.5572319" lon="31.2070535">
<ele>41.329998</ele>
<time>2026-08-31T22:02:40.000Z</time>
</trkpt>
<trkpt lat="59.5571866" lon="31.2070649">
<ele>39.610001</ele>
<time>2026-08-31T22:03:06.000Z</time>
</trkpt>
<trkpt lat="59.5570395" lon="31.2070900">
<ele>40.459999</ele>
<time>2026-08-31T22:03:26.000Z</time>
</trkpt>
<trkpt lat="59.5569246" lon="31.2071844">
<ele>38.799999</ele>
<time>2026-08-31T22:03:50.000Z</time>
</trkpt>
<trkpt lat="59.5569114" lon="31.2072274">
<ele>38.580002</ele>
<time>2026-08-31T22:03:58.000Z</time>
</trkpt>
<trkpt lat="59.5566196" lon="31.2071846">
<ele>37.639999</ele>
<time>2026-08-31T22:04:23.000Z</time>
</trkpt>
<trkpt lat="59.5564300" lon="31.2071074">
<ele>35.010002</ele>
<time>2026-08-31T22:04:40.000Z</time>
</trkpt>
<trkpt lat="59.5563596" lon="31.2071050">
<ele>33.680000</ele>
<time>2026-08-31T22:04:52.000Z</time>
</trkpt>
<trkpt lat="59.5562481" lon="31.2071084">
<ele>35.820000</ele>
<time>2026-08-31T22:05:16.000Z</time>
</trkpt>
<trkpt lat="59.5561591" lon="31.2070519">
<ele>36.270000</ele>
<time>2026-08-31T22:05:40.000Z</time>
</trkpt>
<trkpt lat="59.5561137" lon="31.2070391">
<ele>38.320000</ele>
<time>2026-08-31T22:06:07.000Z</time>
</trkpt>
<trkpt lat="59.5561019" lon="31.2070449">
<ele>38.689999</ele>
<time>2026-08-31T22:06:35.000Z</time>
</trkpt>
<trkpt lat="59.5560467" lon="31.2070156">
<ele>40.619999</ele>
<time>2026-08-31T22:07:09.000Z</time>
</trkpt>
<trkpt lat="59.5560346" lon="31.2070492">
<ele>43.570000</ele>
<time>2026-08-31T22:07:40.000Z</time>
</trkpt>
<trkpt lat="59.5560443" lon="31.2070652">
<ele>44.920002</ele>
<time>2026-08-31T22:07:56.000Z</time>
</trkpt>
<trkpt lat="59.5560719" lon="31.2071386">
<ele>44.869999</ele>
<time>2026-08-31T22:08:17.000Z</time>
</trkpt>
<trkpt lat="59.5561545" lon="31.2071068">
<ele>44.620003</ele>
<time>2026-08-31T22:08:39.000Z</time>
</trkpt>
<trkpt lat="59.5560740" lon="31.2071309">
<ele>42.980000</ele>
<time>2026-08-31T22:09:04.000Z</time>
</trkpt>
<trkpt lat="59.5560615" lon="31.2071356">
<ele>42.560001</ele>
<time>2026-08-31T22:09:08.000Z</time>
</trkpt>
<trkpt lat="59.5560226" lon="31.2070854">
<ele>41.980000</ele>
<time>2026-08-31T22:09:39.000Z</time>
</trkpt>
<trkpt lat="59.5560907" lon="31.2071457">
<ele>42.539997</ele>
<time>2026-08-31T22:10:03.000Z</time>
</trkpt>
<trkpt lat="59.5560135" lon="31.2071368">
<ele>43.660000</ele>
<time>2026-08-31T22:10:25.000Z</time>
</trkpt>
<trkpt lat="59.5559535" lon="31.2071002">
<ele>43.020000</ele>
<time>2026-08-31T22:10:35.000Z</time>
</trkpt>
<trkpt lat="59.5558755" lon="31.2069804">
<ele>43.790001</ele>
<time>2026-08-31T22:10:57.000Z</time>
</trkpt>
<trkpt lat="59.5557611" lon="31.2069538">
<ele>42.510002</ele>
<time>2026-08-31T22:11:16.000Z</time>
</trkpt>
<trkpt lat="59.5556339" lon="31.2068913">
<ele>41.950001</ele>
<time>2026-08-31T22:11:39.000Z</time>
</trkpt>
<trkpt lat="59.5555597" lon="31.2068753">
<ele>41.250000</ele>
<time>2026-08-31T22:11:52.000Z</time>
</trkpt>
<trkpt lat="59.5555773" lon="31.2067707">
<ele>40.510002</ele>
<time>2026-08-31T22:12:13.000Z</time>
</trkpt>
<trkpt lat="59.5555467" lon="31.2066292">
<ele>40.239998</ele>
<time>2026-08-31T22:12:31.000Z</time>
</trkpt>
<trkpt lat="59.5555269" lon="31.2065892">
<ele>40.389999</ele>
<time>2026-08-31T22:12:39.000Z</time>
</trkpt>
<trkpt lat="59.5555761" lon="31.2065808">
<ele>39.970001</ele>
<time>2026-08-31T22:12:56.000Z</time>
</trkpt>
<trkpt lat="59.5556293" lon="31.2066888">
<ele>38.820000</ele>
<time>2026-08-31T22:13:14.000Z</time>
</trkpt>
<trkpt lat="59.5556139" lon="31.2067509">
<ele>38.570000</ele>
<time>2026-08-31T22:13:19.000Z</time>
</trkpt>
<trkpt lat="59.5555441" lon="31.2068312">
<ele>37.720001</ele>
<time>2026-08-31T22:13:32.000Z</time>
</trkpt>
<trkpt lat="59.5554562" lon="31.2068855">
<ele>37.330002</ele>
<time>2026-08-31T22:13:59.000Z</time>
</trkpt>
<trkpt lat="59.5553862" lon="31.2069622">
<ele>39.080002</ele>
<time>2026-08-31T22:14:19.000Z</time>
</trkpt>
<trkpt lat="59.5553082" lon="31.2069559">
<ele>41.000000</ele>
<time>2026-08-31T22:14:43.000Z</time>
</trkpt>
<trkpt lat="59.5552805" lon="31.2069407">
<ele>41.099998</ele>
<time>2026-08-31T22:15:08.000Z</time>
</trkpt>
<trkpt lat="59.5552343" lon="31.2069288">
<ele>40.919998</ele>
<time>2026-08-31T22:15:25.000Z</time>
</trkpt>
<trkpt lat="59.5551941" lon="31.2068770">
<ele>40.310001</ele>
<time>2026-08-31T22:15:37.000Z</time>
</trkpt>
<trkpt lat="59.5550611" lon="31.2067971">
<ele>38.879997</ele>
<time>2026-08-31T22:16:01.000Z</time>
</trkpt>
<trkpt lat="59.5549452" lon="31.2066934">
<ele>37.340000</ele>
<time>2026-08-31T22:16:26.000Z</time>
</trkpt>
<trkpt lat="59.5548030" lon="31.2065508">
<ele>36.370003</ele>
<time>2026-08-31T22:16:47.000Z</time>
</trkpt>
<trkpt lat="59.5545563" lon="31.2064655">
<ele>35.829998</ele>
<time>2026-08-31T22:17:09.000Z</time>
</trkpt>
<trkpt lat="59.5545158" lon="31.2064669">
<ele>35.650002</ele>
<time>2026-08-31T22:17:16.000Z</time>
</trkpt>
<trkpt lat="59.5544424" lon="31.2063313">
<ele>34.160000</ele>
<time>2026-08-31T22:17:40.000Z</time>
</trkpt>
<trkpt lat="59.5542816" lon="31.2062433">
<ele>36.700001</ele>
<time>2026-08-31T22:17:51.000Z</time>
</trkpt>
<trkpt lat="59.5541269" lon="31.2060695">
<ele>41.040001</ele>
<time>2026-08-31T22:18:22.000Z</time>
</trkpt>
<trkpt lat="59.5540696" lon="31.2060976">
<ele>43.270000</ele>
<time>2026-08-31T22:18:49.000Z</time>
</trkpt>
<trkpt lat="59.5540092" lon="31.2059566">
<ele>41.399998</ele>
<time>2026-08-31T22:19:24.000Z</time>
</trkpt>
<trkpt lat="59.5540403" lon="31.2060017">
<ele>43.459999</ele>
<time>2026-08-31T22:19:55.000Z</time>
</trkpt>
<trkpt lat="59.5539433" lon="31.2059699">
<ele>43.899998</ele>
<time>2026-08-31T22:20:18.000Z</time>
</trkpt>
<trkpt lat="59.5538050" lon="31.2057964">
<ele>41.680000</ele>
<time>2026-08-31T22:20:38.000Z</time>
</trkpt>
<trkpt lat="59.5537159" lon="31.2057309">
<ele>38.230000</ele>
<time>2026-08-31T22:21:01.000Z</time>
</trkpt>
<trkpt lat="59.5536547" lon="31.2056558">
<ele>37.750000</ele>
<time>2026-08-31T22:21:21.000Z</time>
</trkpt>
<trkpt lat="59.5535271" lon="31.2056289">
<ele>36.680000</ele>
<time>2026-08-31T22:21:39.000Z</time>
</trkpt>
<trkpt lat="59.5534144" lon="31.2055897">
<ele>35.570000</ele>
<time>2026-08-31T22:22:03.000Z</time>
</trkpt>
<trkpt lat="59.5533955" lon="31.2055196">
<ele>40.139999</ele>
<time>2026-08-31T22:22:34.000Z</time>
</trkpt>
<trkpt lat="59.5533958" lon="31.2055021">
<ele>39.990002</ele>
<time>2026-08-31T22:23:05.000Z</time>
</trkpt>
<trkpt lat="59.5533871" lon="31.2054642">
<ele>41.380001</ele>
<time>2026-08-31T22:23:35.000Z</time>
</trkpt>
<trkpt lat="59.5532962" lon="31.2054431">
<ele>41.529999</ele>
<time>2026-08-31T22:24:01.000Z</time>
</trkpt>
<trkpt lat="59.5531772" lon="31.2053525">
<ele>40.980000</ele>
<time>2026-08-31T22:24:22.000Z</time>
</trkpt>
<trkpt lat="59.5529690" lon="31.2051628">
<ele>39.860001</ele>
<time>2026-08-31T22:24:46.000Z</time>
</trkpt>
<trkpt lat="59.5527865" lon="31.2050685">
<ele>38.099998</ele>
<time>2026-08-31T22:25:08.000Z</time>
</trkpt>
<trkpt lat="59.5526140" lon="31.2049612">
<ele>35.240002</ele>
<time>2026-08-31T22:25:30.000Z</time>
</trkpt>
<trkpt lat="59.5524317" lon="31.2048345">
<ele>34.889999</ele>
<time>2026-08-31T22:25:52.000Z</time>
</trkpt>
<trkpt lat="59.5524018" lon="31.2048002">
<ele>34.709999</ele>
<time>2026-08-31T22:26:00.000Z</time>
</trkpt>
<trkpt lat="59.5524026" lon="31.2048525">
<ele>36.330002</ele>
<time>2026-08-31T22:26:29.000Z</time>
</trkpt>
<trkpt lat="59.5523696" lon="31.2048138">
<ele>37.330002</ele>
<time>2026-08-31T22:26:51.000Z</time>
</trkpt>
<trkpt lat="59.5523027" lon="31.2047708">
<ele>37.670002</ele>
<time>2026-08-31T22:27:25.000Z</time>
</trkpt>
<trkpt lat="59.5522421" lon="31.2048265">
<ele>38.230000</ele>
<time>2026-08-31T22:28:00.000Z</time>
</trkpt>
<trkpt lat="59.5522465" lon="31.2048299">
<ele>38.489998</ele>
<time>2026-08-31T22:28:38.000Z</time>
</trkpt>
<trkpt lat="59.5522635" lon="31.2048092">
<ele>38.570000</ele>
<time>2026-08-31T22:29:12.000Z</time>
</trkpt>
<trkpt lat="59.5521867" lon="31.2048736">
<ele>39.570000</ele>
<time>2026-08-31T22:29:52.000Z</time>
</trkpt>
<trkpt lat="59.5522485" lon="31.2050264">
<ele>40.060001</ele>
<time>2026-08-31T22:30:24.000Z</time>
</trkpt>
<trkpt lat="59.5522512" lon="31.2049117">
<ele>41.220001</ele>
<time>2026-08-31T22:30:52.000Z</time>
</trkpt>
<trkpt lat="59.5522596" lon="31.2049071">
<ele>40.700001</ele>
<time>2026-08-31T22:31:45.000Z</time>
</trkpt>
<trkpt lat="59.5521847" lon="31.2049417">
<ele>40.239998</ele>
<time>2026-08-31T22:32:52.000Z</time>
</trkpt>
<trkpt lat="59.5522428" lon="31.2049451">
<ele>42.009998</ele>
<time>2026-08-31T22:33:35.000Z</time>
</trkpt>
<trkpt lat="59.5522190" lon="31.2049066">
<ele>41.280003</ele>
<time>2026-08-31T22:34:18.000Z</time>
</trkpt>
<trkpt lat="59.5522109" lon="31.2049554">
<ele>41.559998</ele>
<time>2026-08-31T22:34:50.000Z</time>
</trkpt>
<trkpt lat="59.5522080" lon="31.2049011">
<ele>41.019997</ele>
<time>2026-08-31T22:35:15.000Z</time>
</trkpt>
<trkpt lat="59.5522022" lon="31.2048726">
<ele>41.880001</ele>
<time>2026-08-31T22:35:47.000Z</time>
</trkpt>
<trkpt lat="59.5522356" lon="31.2047503">
<ele>42.389999</ele>
<time>2026-08-31T22:36:26.000Z</time>
</trkpt>
<trkpt lat="59.5522642" lon="31.2047729">
<ele>45.480000</ele>
<time>2026-08-31T22:36:56.000Z</time>
</trkpt>
<trkpt lat="59.5522808" lon="31.2048469">
<ele>47.400002</ele>
<time>2026-08-31T22:37:19.000Z</time>
</trkpt>
<trkpt lat="59.5523013" lon="31.2049977">
<ele>47.169998</ele>
<time>2026-08-31T22:37:36.000Z</time>
</trkpt>
<trkpt lat="59.5523098" lon="31.2052185">
<ele>46.119999</ele>
<time>2026-08-31T22:37:58.000Z</time>
</trkpt>
<trkpt lat="59.5523286" lon="31.2053302">
<ele>46.000000</ele>
<time>2026-08-31T22:38:20.000Z</time>
</trkpt>
<trkpt lat="59.5523540" lon="31.2053916">
<ele>47.559998</ele>
<time>2026-08-31T22:38:40.000Z</time>
</trkpt>
<trkpt lat="59.5523590" lon="31.2054554">
<ele>47.970001</ele>
<time>2026-08-31T22:39:04.000Z</time>
</trkpt>
<trkpt lat="59.5523856" lon="31.2055256">
<ele>48.329998</ele>
<time>2026-08-31T22:39:27.000Z</time>
</trkpt>
<trkpt lat="59.5524004" lon="31.2055947">
<ele>47.630001</ele>
<time>2026-08-31T22:39:45.000Z</time>
</trkpt>
<trkpt lat="59.5524054" lon="31.2055989">
<ele>47.500000</ele>
<time>2026-08-31T22:40:12.000Z</time>
</trkpt>
<trkpt lat="59.5524113" lon="31.2056103">
<ele>47.320000</ele>
<time>2026-08-31T22:40:44.000Z</time>
</trkpt>
<trkpt lat="59.5524538" lon="31.2057264">
<ele>47.540001</ele>
<time>2026-08-31T22:41:07.000Z</time>
</trkpt>
<trkpt lat="59.5524876" lon="31.2057975">
<ele>48.779999</ele>
<time>2026-08-31T22:41:34.000Z</time>
</trkpt>
<trkpt lat="59.5525263" lon="31.2058628">
<ele>49.320000</ele>
<time>2026-08-31T22:41:56.000Z</time>
</trkpt>
<trkpt lat="59.5525968" lon="31.2058939">
<ele>49.280003</ele>
<time>2026-08-31T22:42:19.000Z</time>
</trkpt>
<trkpt lat="59.5526256" lon="31.2059452">
<ele>49.230000</ele>
<time>2026-08-31T22:42:44.000Z</time>
</trkpt>
<trkpt lat="59.5526280" lon="31.2061145">
<ele>47.700001</ele>
<time>2026-08-31T22:43:10.000Z</time>
</trkpt>
<trkpt lat="59.5526546" lon="31.2062951">
<ele>47.189999</ele>
<time>2026-08-31T22:43:31.000Z</time>
</trkpt>
<trkpt lat="59.5526021" lon="31.2063639">
<ele>46.519997</ele>
<time>2026-08-31T22:43:50.000Z</time>
</trkpt>
<trkpt lat="59.5525583" lon="31.2065148">
<ele>45.959999</ele>
<time>2026-08-31T22:44:10.000Z</time>
</trkpt>
<trkpt lat="59.5525196" lon="31.2066273">
<ele>44.920002</ele>
<time>2026-08-31T22:44:29.000Z</time>
</trkpt>
<trkpt lat="59.5525014" lon="31.2066655">
<ele>44.420002</ele>
<time>2026-08-31T22:44:52.000Z</time>
</trkpt>
<trkpt lat="59.5525082" lon="31.2066228">
<ele>43.910000</ele>
<time>2026-08-31T22:45:14.000Z</time>
</trkpt>
<trkpt lat="59.5525194" lon="31.2065696">
<ele>44.369999</ele>
<time>2026-08-31T22:45:46.000Z</time>
</trkpt>
<trkpt lat="59.5524775" lon="31.2066214">
<ele>43.030003</ele>
<time>2026-08-31T22:46:09.000Z</time>
</trkpt>
<trkpt lat="59.5524372" lon="31.2066404">
<ele>42.640003</ele>
<time>2026-08-31T22:46:38.000Z</time>
</trkpt>
<trkpt lat="59.5524149" lon="31.2066087">
<ele>43.870003</ele>
<time>2026-08-31T22:47:09.000Z</time>
</trkpt>
<trkpt lat="59.5524517" lon="31.2065709">
<ele>44.340000</ele>
<time>2026-08-31T22:47:36.000Z</time>
</trkpt>
<trkpt lat="59.5525098" lon="31.2065009">
<ele>44.650002</ele>
<time>2026-08-31T22:47:52.000Z</time>
</trkpt>
<trkpt lat="59.5525309" lon="31.2065044">
<ele>44.160004</ele>
<time>2026-08-31T22:48:10.000Z</time>
</trkpt>
<trkpt lat="59.5525213" lon="31.2066690">
<ele>43.820000</ele>
<time>2026-08-31T22:48:35.000Z</time>
</trkpt>
<trkpt lat="59.5524359" lon="31.2067033">
<ele>43.669998</ele>
<time>2026-08-31T22:49:07.000Z</time>
</trkpt>
<trkpt lat="59.5524348" lon="31.2066805">
<ele>43.799999</ele>
<time>2026-08-31T22:49:37.000Z</time>
</trkpt>
<trkpt lat="59.5524079" lon="31.2066904">
<ele>44.330002</ele>
<time>2026-08-31T22:50:02.000Z</time>
</trkpt>
<trkpt lat="59.5524238" lon="31.2066479">
<ele>44.240002</ele>
<time>2026-08-31T22:50:29.000Z</time>
</trkpt>
<trkpt lat="59.5524260" lon="31.2066233">
<ele>44.200001</ele>
<time>2026-08-31T22:50:55.000Z</time>
</trkpt>
<trkpt lat="59.5524623" lon="31.2066568">
<ele>45.340000</ele>
<time>2026-08-31T22:51:26.000Z</time>
</trkpt>
<trkpt lat="59.5523990" lon="31.2066585">
<ele>45.780003</ele>
<time>2026-08-31T22:51:51.000Z</time>
</trkpt>
<trkpt lat="59.5523130" lon="31.2067116">
<ele>45.380001</ele>
<time>2026-08-31T22:52:11.000Z</time>
</trkpt>
<trkpt lat="59.5522423" lon="31.2067792">
<ele>43.590000</ele>
<time>2026-08-31T22:52:25.000Z</time>
</trkpt>
<trkpt lat="59.5521804" lon="31.2068397">
<ele>42.249996</ele>
<time>2026-08-31T22:52:44.000Z</time>
</trkpt>
<trkpt lat="59.5521250" lon="31.2069115">
<ele>42.000000</ele>
<time>2026-08-31T22:53:04.000Z</time>
</trkpt>
<trkpt lat="59.5521057" lon="31.2069549">
<ele>41.650002</ele>
<time>2026-08-31T22:53:27.000Z</time>
</trkpt>
<trkpt lat="59.5521052" lon="31.2069706">
<ele>41.570004</ele>
<time>2026-08-31T22:53:31.000Z</time>
</trkpt>
<trkpt lat="59.5520766" lon="31.2070501">
<ele>42.929996</ele>
<time>2026-08-31T22:53:50.000Z</time>
</trkpt>
<trkpt lat="59.5520786" lon="31.2071538">
<ele>43.320004</ele>
<time>2026-08-31T22:54:08.000Z</time>
</trkpt>
<trkpt lat="59.5520497" lon="31.2072929">
<ele>42.459999</ele>
<time>2026-08-31T22:54:34.000Z</time>
</trkpt>
<trkpt lat="59.5520669" lon="31.2073037">
<ele>42.450001</ele>
<time>2026-08-31T22:55:04.000Z</time>
</trkpt>
<trkpt lat="59.5519902" lon="31.2072379">
<ele>41.709999</ele>
<time>2026-08-31T22:55:34.000Z</time>
</trkpt>
<trkpt lat="59.5520384" lon="31.2072519">
<ele>41.869999</ele>
<time>2026-08-31T22:55:53.000Z</time>
</trkpt>
<trkpt lat="59.5520528" lon="31.2072692">
<ele>41.459999</ele>
<time>2026-08-31T22:56:33.000Z</time>
</trkpt>
<trkpt lat="59.5519524" lon="31.2072186">
<ele>40.489998</ele>
<time>2026-08-31T22:57:05.000Z</time>
</trkpt>
<trkpt lat="59.5520352" lon="31.2072188">
<ele>41.650002</ele>
<time>2026-08-31T22:57:33.000Z</time>
</trkpt>
<trkpt lat="59.5520528" lon="31.2073788">
<ele>42.149998</ele>
<time>2026-08-31T22:57:52.000Z</time>
</trkpt>
<trkpt lat="59.5521257" lon="31.2075223">
<ele>41.639999</ele>
<time>2026-08-31T22:58:16.000Z</time>
</trkpt>
<trkpt lat="59.5521773" lon="31.2076353">
<ele>41.670002</ele>
<time>2026-08-31T22:58:36.000Z</time>
</trkpt>
<trkpt lat="59.5522145" lon="31.2077008">
<ele>42.849998</ele>
<time>2026-08-31T22:58:55.000Z</time>
</trkpt>
<trkpt lat="59.5522717" lon="31.2077977">
<ele>43.340000</ele>
<time>2026-08-31T22:59:18.000Z</time>
</trkpt>
<trkpt lat="59.5523558" lon="31.2078678">
<ele>42.870003</ele>
<time>2026-08-31T22:59:38.000Z</time>
</trkpt>
<trkpt lat="59.5524160" lon="31.2078952">
<ele>43.299999</ele>
<time>2026-08-31T23:00:01.000Z</time>
</trkpt>
<trkpt lat="59.5524377" lon="31.2079308">
<ele>44.590000</ele>
<time>2026-08-31T23:00:17.000Z</time>
</trkpt>
<trkpt lat="59.5524779" lon="31.2080018">
<ele>44.940002</ele>
<time>2026-08-31T23:00:36.000Z</time>
</trkpt>
<trkpt lat="59.5524994" lon="31.2081275">
<ele>44.189999</ele>
<time>2026-08-31T23:00:58.000Z</time>
</trkpt>
<trkpt lat="59.5525374" lon="31.2083119">
<ele>44.130001</ele>
<time>2026-08-31T23:01:18.000Z</time>
</trkpt>
<trkpt lat="59.5525534" lon="31.2084319">
<ele>44.340000</ele>
<time>2026-08-31T23:01:35.000Z</time>
</trkpt>
<trkpt lat="59.5525136" lon="31.2087775">
<ele>44.940002</ele>
<time>2026-08-31T23:01:52.000Z</time>
</trkpt>
<trkpt lat="59.5524836" lon="31.2089647">
<ele>46.760002</ele>
<time>2026-08-31T23:02:22.000Z</time>
</trkpt>
<trkpt lat="59.5524215" lon="31.2090984">
<ele>48.210003</ele>
<time>2026-08-31T23:02:30.000Z</time>
</trkpt>
<trkpt lat="59.5523591" lon="31.2091361">
<ele>51.290001</ele>
<time>2026-08-31T23:02:59.000Z</time>
</trkpt>
<trkpt lat="59.5523595" lon="31.2091362">
<ele>55.659996</ele>
<time>2026-08-31T23:03:32.000Z</time>
</trkpt>
<trkpt lat="59.5523839" lon="31.2091473">
<ele>60.480000</ele>
<time>2026-08-31T23:04:05.000Z</time>
</trkpt>
<trkpt lat="59.5523818" lon="31.2091594">
<ele>58.779999</ele>
<time>2026-08-31T23:04:35.000Z</time>
</trkpt>
<trkpt lat="59.5523887" lon="31.2091543">
<ele>59.580002</ele>
<time>2026-08-31T23:05:01.000Z</time>
</trkpt>
<trkpt lat="59.5523819" lon="31.2091530">
<ele>60.820000</ele>
<time>2026-08-31T23:05:26.000Z</time>
</trkpt>
<trkpt lat="59.5523603" lon="31.2092911">
<ele>60.560001</ele>
<time>2026-08-31T23:05:45.000Z</time>
</trkpt>
<trkpt lat="59.5523626" lon="31.2093082">
<ele>60.340000</ele>
<time>2026-08-31T23:05:53.000Z</time>
</trkpt>
<trkpt lat="59.5523548" lon="31.2094496">
<ele>59.360001</ele>
<time>2026-08-31T23:06:16.000Z</time>
</trkpt>
<trkpt lat="59.5522585" lon="31.2096030">
<ele>59.849998</ele>
<time>2026-08-31T23:06:36.000Z</time>
</trkpt>
<trkpt lat="59.5521898" lon="31.2097425">
<ele>59.340000</ele>
<time>2026-08-31T23:06:57.000Z</time>
</trkpt>
<trkpt lat="59.5521402" lon="31.2098702">
<ele>58.169998</ele>
<time>2026-08-31T23:07:15.000Z</time>
</trkpt>
<trkpt lat="59.5521336" lon="31.2098867">
<ele>55.500000</ele>
<time>2026-08-31T23:07:49.000Z</time>
</trkpt>
<trkpt lat="59.5520849" lon="31.2099280">
<ele>54.480000</ele>
<time>2026-08-31T23:08:12.000Z</time>
</trkpt>
<trkpt lat="59.5520798" lon="31.2099718">
<ele>54.470001</ele>
<time>2026-08-31T23:08:38.000Z</time>
</trkpt>
<trkpt lat="59.5520829" lon="31.2101166">
<ele>54.010002</ele>
<time>2026-08-31T23:09:00.000Z</time>
</trkpt>
<trkpt lat="59.5520672" lon="31.2101343">
<ele>53.599998</ele>
<time>2026-08-31T23:09:07.000Z</time>
</trkpt>
<trkpt lat="59.5520360" lon="31.2102447">
<ele>52.349998</ele>
<time>2026-08-31T23:09:28.000Z</time>
</trkpt>
<trkpt lat="59.5519447" lon="31.2103132">
<ele>52.320004</ele>
<time>2026-08-31T23:09:47.000Z</time>
</trkpt>
<trkpt lat="59.5518821" lon="31.2103750">
<ele>51.980000</ele>
<time>2026-08-31T23:10:15.000Z</time>
</trkpt>
<trkpt lat="59.5518359" lon="31.2103310">
<ele>50.820000</ele>
<time>2026-08-31T23:10:37.000Z</time>
</trkpt>
<trkpt lat="59.5518300" lon="31.2103130">
<ele>50.779999</ele>
<time>2026-08-31T23:10:40.000Z</time>
</trkpt>
<trkpt lat="59.5517839" lon="31.2103324">
<ele>50.549999</ele>
<time>2026-08-31T23:11:01.000Z</time>
</trkpt>
<trkpt lat="59.5518160" lon="31.2102460">
<ele>49.930000</ele>
<time>2026-08-31T23:11:27.000Z</time>
</trkpt>
<trkpt lat="59.5517719" lon="31.2102855">
<ele>49.510002</ele>
<time>2026-08-31T23:11:49.000Z</time>
</trkpt>
<trkpt lat="59.5517265" lon="31.2102182">
<ele>48.700001</ele>
<time>2026-08-31T23:12:10.000Z</time>
</trkpt>
<trkpt lat="59.5516467" lon="31.2103498">
<ele>47.579998</ele>
<time>2026-08-31T23:12:33.000Z</time>
</trkpt>
<trkpt lat="59.5516009" lon="31.2104516">
<ele>47.310001</ele>
<time>2026-08-31T23:12:51.000Z</time>
</trkpt>
<trkpt lat="59.5515557" lon="31.2104023">
<ele>46.820000</ele>
<time>2026-08-31T23:13:14.000Z</time>
</trkpt>
<trkpt lat="59.5515131" lon="31.2104576">
<ele>46.540001</ele>
<time>2026-08-31T23:13:36.000Z</time>
</trkpt>
<trkpt lat="59.5515540" lon="31.2103753">
<ele>45.950001</ele>
<time>2026-08-31T23:14:14.000Z</time>
</trkpt>
<trkpt lat="59.5515784" lon="31.2102829">
<ele>45.969997</ele>
<time>2026-08-31T23:14:43.000Z</time>
</trkpt>
<trkpt lat="59.5515488" lon="31.2103037">
<ele>47.480000</ele>
<time>2026-08-31T23:15:04.000Z</time>
</trkpt>
<trkpt lat="59.5514848" lon="31.2104138">
<ele>45.820000</ele>
<time>2026-08-31T23:16:25.000Z</time>
</trkpt>
<trkpt lat="59.5514138" lon="31.2103578">
<ele>46.480000</ele>
<time>2026-08-31T23:17:03.000Z</time>
</trkpt>
<trkpt lat="59.5515066" lon="31.2103747">
<ele>45.470001</ele>
<time>2026-08-31T23:17:34.000Z</time>
</trkpt>
<trkpt lat="59.5515519" lon="31.2103310">
<ele>45.990002</ele>
<time>2026-08-31T23:18:10.000Z</time>
</trkpt>
<trkpt lat="59.5514991" lon="31.2103460">
<ele>44.090000</ele>
<time>2026-08-31T23:19:08.000Z</time>
</trkpt>
<trkpt lat="59.5515015" lon="31.2104439">
<ele>44.270000</ele>
<time>2026-08-31T23:19:38.000Z</time>
</trkpt>
<trkpt lat="59.5515381" lon="31.2103762">
<ele>45.219997</ele>
<time>2026-08-31T23:20:07.000Z</time>
</trkpt>
<trkpt lat="59.5514967" lon="31.2103175">
<ele>45.519997</ele>
<time>2026-08-31T23:20:38.000Z</time>
</trkpt>
<trkpt lat="59.5514980" lon="31.2102653">
<ele>45.400002</ele>
<time>2026-08-31T23:21:01.000Z</time>
</trkpt>
<trkpt lat="59.5514715" lon="31.2103014">
<ele>44.200001</ele>
<time>2026-08-31T23:21:34.000Z</time>
</trkpt>
<trkpt lat="59.5514514" lon="31.2103163">
<ele>42.699997</ele>
<time>2026-08-31T23:22:07.000Z</time>
</trkpt>
<trkpt lat="59.5514667" lon="31.2101863">
<ele>42.800003</ele>
<time>2026-08-31T23:22:42.000Z</time>
</trkpt>
<trkpt lat="59.5514709" lon="31.2102271">
<ele>43.810001</ele>
<time>2026-08-31T23:23:07.000Z</time>
</trkpt>
<trkpt lat="59.5514385" lon="31.2102979">
<ele>43.279999</ele>
<time>2026-08-31T23:23:34.000Z</time>
</trkpt>
<trkpt lat="59.5513839" lon="31.2104019">
<ele>44.040001</ele>
<time>2026-08-31T23:23:57.000Z</time>
</trkpt>
<trkpt lat="59.5513475" lon="31.2104242">
<ele>43.820000</ele>
<time>2026-08-31T23:24:22.000Z</time>
</trkpt>
<trkpt lat="59.5513498" lon="31.2104195">
<ele>44.449997</ele>
<time>2026-08-31T23:24:48.000Z</time>
</trkpt>
<trkpt lat="59.5513360" lon="31.2105416">
<ele>44.810001</ele>
<time>2026-08-31T23:25:10.000Z</time>
</trkpt>
<trkpt lat="59.5513049" lon="31.2105598">
<ele>44.689999</ele>
<time>2026-08-31T23:25:25.000Z</time>
</trkpt>
<trkpt lat="59.5512917" lon="31.2105974">
<ele>44.430000</ele>
<time>2026-08-31T23:25:49.000Z</time>
</trkpt>
<trkpt lat="59.5512547" lon="31.2106952">
<ele>44.920002</ele>
<time>2026-08-31T23:26:18.000Z</time>
</trkpt>
<trkpt lat="59.5512843" lon="31.2107168">
<ele>43.520000</ele>
<time>2026-08-31T23:26:44.000Z</time>
</trkpt>
<trkpt lat="59.5512396" lon="31.2107184">
<ele>43.860001</ele>
<time>2026-08-31T23:27:09.000Z</time>
</trkpt>
<trkpt lat="59.5511727" lon="31.2107081">
<ele>44.349998</ele>
<time>2026-08-31T23:27:36.000Z</time>
</trkpt>
<trkpt lat="59.5511309" lon="31.2107166">
<ele>44.049999</ele>
<time>2026-08-31T23:28:03.000Z</time>
</trkpt>
<trkpt lat="59.5511017" lon="31.2108285">
<ele>45.029999</ele>
<time>2026-08-31T23:28:25.000Z</time>
</trkpt>
<trkpt lat="59.5511100" lon="31.2108113">
<ele>44.910000</ele>
<time>2026-08-31T23:28:50.000Z</time>
</trkpt>
<trkpt lat="59.5510832" lon="31.2107523">
<ele>43.970001</ele>
<time>2026-08-31T23:29:18.000Z</time>
</trkpt>
<trkpt lat="59.5510463" lon="31.2108739">
<ele>43.870003</ele>
<time>2026-08-31T23:29:44.000Z</time>
</trkpt>
<trkpt lat="59.5510338" lon="31.2109500">
<ele>44.449997</ele>
<time>2026-08-31T23:30:06.000Z</time>
</trkpt>
<trkpt lat="59.5509852" lon="31.2110028">
<ele>44.639999</ele>
<time>2026-08-31T23:30:30.000Z</time>
</trkpt>
<trkpt lat="59.5509707" lon="31.2111032">
<ele>44.490002</ele>
<time>2026-08-31T23:30:47.000Z</time>
</trkpt>
<trkpt lat="59.5509692" lon="31.2111349">
<ele>44.059998</ele>
<time>2026-08-31T23:31:18.000Z</time>
</trkpt>
<trkpt lat="59.5509238" lon="31.2112434">
<ele>43.110001</ele>
<time>2026-08-31T23:31:42.000Z</time>
</trkpt>
<trkpt lat="59.5509662" lon="31.2113604">
<ele>42.820000</ele>
<time>2026-08-31T23:32:07.000Z</time>
</trkpt>
<trkpt lat="59.5509328" lon="31.2113959">
<ele>43.590000</ele>
<time>2026-08-31T23:32:28.000Z</time>
</trkpt>
<trkpt lat="59.5509340" lon="31.2113622">
<ele>44.100002</ele>
<time>2026-08-31T23:32:51.000Z</time>
</trkpt>
<trkpt lat="59.5509526" lon="31.2113556">
<ele>45.500000</ele>
<time>2026-08-31T23:33:18.000Z</time>
</trkpt>
<trkpt lat="59.5509033" lon="31.2113257">
<ele>46.010002</ele>
<time>2026-08-31T23:33:39.000Z</time>
</trkpt>
<trkpt lat="59.5508873" lon="31.2114340">
<ele>45.340000</ele>
<time>2026-08-31T23:34:04.000Z</time>
</trkpt>
<trkpt lat="59.5508947" lon="31.2114615">
<ele>45.669998</ele>
<time>2026-08-31T23:34:31.000Z</time>
</trkpt>
<trkpt lat="59.5508765" lon="31.2115511">
<ele>45.570000</ele>
<time>2026-08-31T23:35:00.000Z</time>
</trkpt>
<trkpt lat="59.5509274" lon="31.2115522">
<ele>45.400002</ele>
<time>2026-08-31T23:35:27.000Z</time>
</trkpt>
<trkpt lat="59.5509800" lon="31.2115859">
<ele>45.410000</ele>
<time>2026-08-31T23:35:43.000Z</time>
</trkpt>
<trkpt lat="59.5509795" lon="31.2116112">
<ele>45.470001</ele>
<time>2026-08-31T23:36:00.000Z</time>
</trkpt>
<trkpt lat="59.5509480" lon="31.2116461">
<ele>45.180000</ele>
<time>2026-08-31T23:36:14.000Z</time>
</trkpt>
<trkpt lat="59.5510608" lon="31.2117047">
<ele>44.390003</ele>
<time>2026-08-31T23:36:49.000Z</time>
</trkpt>
<trkpt lat="59.5511101" lon="31.2119171">
<ele>44.959999</ele>
<time>2026-08-31T23:37:20.000Z</time>
</trkpt>
<trkpt lat="59.5511626" lon="31.2119034">
<ele>41.709999</ele>
<time>2026-08-31T23:37:57.000Z</time>
</trkpt>
<trkpt lat="59.5511683" lon="31.2119259">
<ele>41.580002</ele>
<time>2026-08-31T23:38:25.000Z</time>
</trkpt>
<trkpt lat="59.5511719" lon="31.2119259">
<ele>38.920002</ele>
<time>2026-08-31T23:38:58.000Z</time>
</trkpt>
<trkpt lat="59.5510915" lon="31.2119992">
<ele>38.270000</ele>
<time>2026-08-31T23:39:29.000Z</time>
</trkpt>
<trkpt lat="59.5511082" lon="31.2120828">
<ele>38.670002</ele>
<time>2026-08-31T23:39:59.000Z</time>
</trkpt>
<trkpt lat="59.5510939" lon="31.2121821">
<ele>38.270000</ele>
<time>2026-08-31T23:40:20.000Z</time>
</trkpt>
<trkpt lat="59.5511243" lon="31.2124040">
<ele>37.670002</ele>
<time>2026-08-31T23:40:36.000Z</time>
</trkpt>
<trkpt lat="59.5511175" lon="31.2124928">
<ele>38.120003</ele>
<time>2026-08-31T23:41:00.000Z</time>
</trkpt>
<trkpt lat="59.5510431" lon="31.2125625">
<ele>38.410000</ele>
<time>2026-08-31T23:41:41.000Z</time>
</trkpt>
<trkpt lat="59.5510167" lon="31.2126191">
<ele>38.470001</ele>
<time>2026-08-31T23:41:51.000Z</time>
</trkpt>
<trkpt lat="59.5509581" lon="31.2127972">
<ele>38.560001</ele>
<time>2026-08-31T23:42:09.000Z</time>
</trkpt>
<trkpt lat="59.5509076" lon="31.2128956">
<ele>38.149998</ele>
<time>2026-08-31T23:42:37.000Z</time>
</trkpt>
<trkpt lat="59.5508568" lon="31.2128885">
<ele>39.489998</ele>
<time>2026-08-31T23:42:59.000Z</time>
</trkpt>
<trkpt lat="59.5507963" lon="31.2129180">
<ele>42.110001</ele>
<time>2026-08-31T23:43:28.000Z</time>
</trkpt>
<trkpt lat="59.5507573" lon="31.2127905">
<ele>43.190002</ele>
<time>2026-08-31T23:43:58.000Z</time>
</trkpt>
<trkpt lat="59.5507490" lon="31.2127744">
<ele>43.209999</ele>
<time>2026-08-31T23:44:02.000Z</time>
</trkpt>
<trkpt lat="59.5506862" lon="31.2126330">
<ele>46.029999</ele>
<time>2026-08-31T23:44:18.000Z</time>
</trkpt>
<trkpt lat="59.5506083" lon="31.2126616">
<ele>46.589996</ele>
<time>2026-08-31T23:44:45.000Z</time>
</trkpt>
<trkpt lat="59.5505317" lon="31.2127075">
<ele>46.020000</ele>
<time>2026-08-31T23:45:01.000Z</time>
</trkpt>
<trkpt lat="59.5504689" lon="31.2127285">
<ele>46.380001</ele>
<time>2026-08-31T23:45:18.000Z</time>
</trkpt>
<trkpt lat="59.5503631" lon="31.2128220">
<ele>47.760002</ele>
<time>2026-08-31T23:45:37.000Z</time>
</trkpt>
<trkpt lat="59.5502415" lon="31.2128160">
<ele>48.050003</ele>
<time>2026-08-31T23:46:00.000Z</time>
</trkpt>
<trkpt lat="59.5501331" lon="31.2126624">
<ele>52.560001</ele>
<time>2026-08-31T23:46:39.000Z</time>
</trkpt>
<trkpt lat="59.5501184" lon="31.2126249">
<ele>52.270000</ele>
<time>2026-08-31T23:47:10.000Z</time>
</trkpt>
<trkpt lat="59.5500308" lon="31.2125667">
<ele>52.459999</ele>
<time>2026-08-31T23:47:31.000Z</time>
</trkpt>
<trkpt lat="59.5499854" lon="31.2125322">
<ele>51.919998</ele>
<time>2026-08-31T23:47:55.000Z</time>
</trkpt>
<trkpt lat="59.5499202" lon="31.2124814">
<ele>51.020000</ele>
<time>2026-08-31T23:48:19.000Z</time>
</trkpt>
<trkpt lat="59.5498513" lon="31.2124287">
<ele>50.420002</ele>
<time>2026-08-31T23:48:46.000Z</time>
</trkpt>
<trkpt lat="59.5498236" lon="31.2123635">
<ele>49.540001</ele>
<time>2026-08-31T23:49:09.000Z</time>
</trkpt>
<trkpt lat="59.5497965" lon="31.2122921">
<ele>49.380001</ele>
<time>2026-08-31T23:49:34.000Z</time>
</trkpt>
<trkpt lat="59.5497646" lon="31.2123245">
<ele>48.830002</ele>
<time>2026-08-31T23:49:53.000Z</time>
</trkpt>
<trkpt lat="59.5496496" lon="31.2123743">
<ele>47.949997</ele>
<time>2026-08-31T23:50:15.000Z</time>
</trkpt>
<trkpt lat="59.5496546" lon="31.2123075">
<ele>46.790001</ele>
<time>2026-08-31T23:50:38.000Z</time>
</trkpt>
<trkpt lat="59.5495871" lon="31.2121775">
<ele>46.509998</ele>
<time>2026-08-31T23:50:57.000Z</time>
</trkpt>
<trkpt lat="59.5495026" lon="31.2121156">
<ele>45.040001</ele>
<time>2026-08-31T23:51:22.000Z</time>
</trkpt>
<trkpt lat="59.5495022" lon="31.2119942">
<ele>45.119999</ele>
<time>2026-08-31T23:51:47.000Z</time>
</trkpt>
<trkpt lat="59.5494492" lon="31.2120234">
<ele>45.410000</ele>
<time>2026-08-31T23:52:10.000Z</time>
</trkpt>
<trkpt lat="59.5494260" lon="31.2119702">
<ele>45.780003</ele>
<time>2026-08-31T23:52:32.000Z</time>
</trkpt>
<trkpt lat="59.5494419" lon="31.2120176">
<ele>50.099998</ele>
<time>2026-08-31T23:53:04.000Z</time>
</trkpt>
<trkpt lat="59.5494554" lon="31.2120379">
<ele>51.929996</ele>
<time>2026-08-31T23:53:32.000Z</time>
</trkpt>
<trkpt lat="59.5494957" lon="31.2119750">
<ele>52.630001</ele>
<time>2026-08-31T23:54:16.000Z</time>
</trkpt>
<trkpt lat="59.5494839" lon="31.2119254">
<ele>53.160000</ele>
<time>2026-08-31T23:54:45.000Z</time>
</trkpt>
<trkpt lat="59.5494175" lon="31.2119267">
<ele>52.730000</ele>
<time>2026-08-31T23:54:56.000Z</time>
</trkpt>
<trkpt lat="59.5493329" lon="31.2118672">
<ele>52.110001</ele>
<time>2026-08-31T23:55:13.000Z</time>
</trkpt>
<trkpt lat="59.5492324" lon="31.2118254">
<ele>51.089996</ele>
<time>2026-08-31T23:55:34.000Z</time>
</trkpt>
<trkpt lat="59.5491819" lon="31.2118043">
<ele>50.130001</ele>
<time>2026-08-31T23:55:49.000Z</time>
</trkpt>
<trkpt lat="59.5490598" lon="31.2117396">
<ele>49.580002</ele>
<time>2026-08-31T23:56:07.000Z</time>
</trkpt>
<trkpt lat="59.5488978" lon="31.2116937">
<ele>48.680000</ele>
<time>2026-08-31T23:56:32.000Z</time>
</trkpt>
<trkpt lat="59.5487985" lon="31.2116158">
<ele>47.680000</ele>
<time>2026-08-31T23:56:51.000Z</time>
</trkpt>
<trkpt lat="59.5487345" lon="31.2116130">
<ele>46.730000</ele>
<time>2026-08-31T23:57:08.000Z</time>
</trkpt>
<trkpt lat="59.5486559" lon="31.2116861">
<ele>46.509998</ele>
<time>2026-08-31T23:57:32.000Z</time>
</trkpt>
<trkpt lat="59.5485881" lon="31.2116807">
<ele>45.599998</ele>
<time>2026-08-31T23:57:58.000Z</time>
</trkpt>
<trkpt lat="59.5485031" lon="31.2115748">
<ele>46.639999</ele>
<time>2026-08-31T23:58:21.000Z</time>
</trkpt>
<trkpt lat="59.5484016" lon="31.2115048">
<ele>47.240002</ele>
<time>2026-08-31T23:58:40.000Z</time>
</trkpt>
<trkpt lat="59.5483723" lon="31.2114521">
<ele>47.429996</ele>
<time>2026-08-31T23:58:47.000Z</time>
</trkpt>
<trkpt lat="59.5482941" lon="31.2114280">
<ele>46.189999</ele>
<time>2026-08-31T23:59:11.000Z</time>
</trkpt>
<trkpt lat="59.5482957" lon="31.2114313">
<ele>45.799999</ele>
<time>2026-08-31T23:59:18.000Z</time>
</trkpt>
<trkpt lat="59.5481883" lon="31.2113578">
<ele>45.209999</ele>
<time>2026-08-31T23:59:38.000Z</time>
</trkpt>
<trkpt lat="59.5480991" lon="31.2111466">
<ele>44.810001</ele>
<time>2026-08-31T23:59:59.000Z</time>
</trkpt>
<trkpt lat="59.5479731" lon="31.2110342">
<ele>43.759998</ele>
<time>2026-09-01T00:00:21.000Z</time>
</trkpt>
<trkpt lat="59.5479027" lon="31.2110003">
<ele>42.480000</ele>
<time>2026-09-01T00:00:41.000Z</time>
</trkpt>
<trkpt lat="59.5478715" lon="31.2109882">
<ele>40.890003</ele>
<time>2026-09-01T00:01:14.000Z</time>
</trkpt>
<trkpt lat="59.5477804" lon="31.2110591">
<ele>40.680000</ele>
<time>2026-09-01T00:01:34.000Z</time>
</trkpt>
<trkpt lat="59.5476987" lon="31.2110640">
<ele>40.510002</ele>
<time>2026-09-01T00:01:52.000Z</time>
</trkpt>
<trkpt lat="59.5476361" lon="31.2110486">
<ele>40.580002</ele>
<time>2026-09-01T00:02:11.000Z</time>
</trkpt>
<trkpt lat="59.5476355" lon="31.2110864">
<ele>40.619999</ele>
<time>2026-09-01T00:02:17.000Z</time>
</trkpt>
<trkpt lat="59.5475140" lon="31.2112810">
<ele>39.809998</ele>
<time>2026-09-01T00:02:38.000Z</time>
</trkpt>
<trkpt lat="59.5474942" lon="31.2112712">
<ele>40.000000</ele>
<time>2026-09-01T00:03:01.000Z</time>
</trkpt>
<trkpt lat="59.5474782" lon="31.2111396">
<ele>42.090000</ele>
<time>2026-09-01T00:03:33.000Z</time>
</trkpt>
<trkpt lat="59.5474761" lon="31.2111858">
<ele>42.689999</ele>
<time>2026-09-01T00:04:02.000Z</time>
</trkpt>
<trkpt lat="59.5474831" lon="31.2112043">
<ele>42.810001</ele>
<time>2026-09-01T00:04:28.000Z</time>
</trkpt>
<trkpt lat="59.5474327" lon="31.2113723">
<ele>43.959999</ele>
<time>2026-09-01T00:04:49.000Z</time>
</trkpt>
<trkpt lat="59.5473565" lon="31.2114573">
<ele>44.650002</ele>
<time>2026-09-01T00:05:10.000Z</time>
</trkpt>
<trkpt lat="59.5472596" lon="31.2115769">
<ele>44.910000</ele>
<time>2026-09-01T00:05:32.000Z</time>
</trkpt>
<trkpt lat="59.5472263" lon="31.2116254">
<ele>44.860001</ele>
<time>2026-09-01T00:05:38.000Z</time>
</trkpt>
<trkpt lat="59.5471458" lon="31.2116530">
<ele>42.149998</ele>
<time>2026-09-01T00:06:10.000Z</time>
</trkpt>
<trkpt lat="59.5471014" lon="31.2116797">
<ele>41.410000</ele>
<time>2026-09-01T00:06:29.000Z</time>
</trkpt>
<trkpt lat="59.5469927" lon="31.2116690">
<ele>41.440002</ele>
<time>2026-09-01T00:06:51.000Z</time>
</trkpt>
<trkpt lat="59.5468956" lon="31.2117098">
<ele>41.580002</ele>
<time>2026-09-01T00:07:11.000Z</time>
</trkpt>
<trkpt lat="59.5468114" lon="31.2117773">
<ele>41.629997</ele>
<time>2026-09-01T00:07:37.000Z</time>
</trkpt>
<trkpt lat="59.5467285" lon="31.2118320">
<ele>41.720001</ele>
<time>2026-09-01T00:08:06.000Z</time>
</trkpt>
<trkpt lat="59.5466826" lon="31.2118523">
<ele>42.529999</ele>
<time>2026-09-01T00:08:36.000Z</time>
</trkpt>
<trkpt lat="59.5467146" lon="31.2118501">
<ele>43.190002</ele>
<time>2026-09-01T00:09:08.000Z</time>
</trkpt>
<trkpt lat="59.5467409" lon="31.2118126">
<ele>43.480003</ele>
<time>2026-09-01T00:09:44.000Z</time>
</trkpt>
<trkpt lat="59.5467780" lon="31.2117316">
<ele>43.799999</ele>
<time>2026-09-01T00:10:32.000Z</time>
</trkpt>
<trkpt lat="59.5468364" lon="31.2117442">
<ele>44.170002</ele>
<time>2026-09-01T00:11:10.000Z</time>
</trkpt>
<trkpt lat="59.5468064" lon="31.2118554">
<ele>44.710003</ele>
<time>2026-09-01T00:12:37.000Z</time>
</trkpt>
<trkpt lat="59.5467474" lon="31.2119279">
<ele>45.939999</ele>
<time>2026-09-01T00:13:05.000Z</time>
</trkpt>
<trkpt lat="59.5468671" lon="31.2118622">
<ele>46.460003</ele>
<time>2026-09-01T00:13:38.000Z</time>
</trkpt>
<trkpt lat="59.5468795" lon="31.2117922">
<ele>47.130001</ele>
<time>2026-09-01T00:14:13.000Z</time>
</trkpt>
<trkpt lat="59.5468403" lon="31.2118451">
<ele>48.070000</ele>
<time>2026-09-01T00:14:44.000Z</time>
</trkpt>
<trkpt lat="59.5468657" lon="31.2118723">
<ele>48.070000</ele>
<time>2026-09-01T00:15:17.000Z</time>
</trkpt>
<trkpt lat="59.5467825" lon="31.2118439">
<ele>49.220001</ele>
<time>2026-09-01T00:16:05.000Z</time>
</trkpt>
<trkpt lat="59.5467422" lon="31.2118933">
<ele>49.299999</ele>
<time>2026-09-01T00:16:34.000Z</time>
</trkpt>
<trkpt lat="59.5466402" lon="31.2118756">
<ele>50.699997</ele>
<time>2026-09-01T00:16:58.000Z</time>
</trkpt>
<trkpt lat="59.5465635" lon="31.2119471">
<ele>52.330002</ele>
<time>2026-09-01T00:17:21.000Z</time>
</trkpt>
<trkpt lat="59.5464890" lon="31.2119723">
<ele>52.609997</ele>
<time>2026-09-01T00:17:40.000Z</time>
</trkpt>
<trkpt lat="59.5463630" lon="31.2119947">
<ele>52.650002</ele>
<time>2026-09-01T00:18:13.000Z</time>
</trkpt>
<trkpt lat="59.5463216" lon="31.2119794">
<ele>52.750000</ele>
<time>2026-09-01T00:18:35.000Z</time>
</trkpt>
<trkpt lat="59.5461723" lon="31.2118492">
<ele>52.880001</ele>
<time>2026-09-01T00:19:02.000Z</time>
</trkpt>
<trkpt lat="59.5461487" lon="31.2118318">
<ele>52.889999</ele>
<time>2026-09-01T00:19:08.000Z</time>
</trkpt>
<trkpt lat="59.5460807" lon="31.2117941">
<ele>53.270000</ele>
<time>2026-09-01T00:19:27.000Z</time>
</trkpt>
<trkpt lat="59.5460756" lon="31.2117975">
<ele>53.439999</ele>
<time>2026-09-01T00:19:34.000Z</time>
</trkpt>
<trkpt lat="59.5459506" lon="31.2118199">
<ele>54.059998</ele>
<time>2026-09-01T00:19:55.000Z</time>
</trkpt>
<trkpt lat="59.5458576" lon="31.2118811">
<ele>53.750000</ele>
<time>2026-09-01T00:20:11.000Z</time>
</trkpt>
<trkpt lat="59.5457631" lon="31.2119775">
<ele>53.829998</ele>
<time>2026-09-01T00:20:30.000Z</time>
</trkpt>
<trkpt lat="59.5456850" lon="31.2121492">
<ele>53.850002</ele>
<time>2026-09-01T00:20:50.000Z</time>
</trkpt>
<trkpt lat="59.5456648" lon="31.2121988">
<ele>53.770000</ele>
<time>2026-09-01T00:21:01.000Z</time>
</trkpt>
<trkpt lat="59.5455884" lon="31.2123227">
<ele>53.369999</ele>
<time>2026-09-01T00:21:23.000Z</time>
</trkpt>
<trkpt lat="59.5455774" lon="31.2123696">
<ele>53.460003</ele>
<time>2026-09-01T00:21:37.000Z</time>
</trkpt>
<trkpt lat="59.5454620" lon="31.2124795">
<ele>53.430000</ele>
<time>2026-09-01T00:22:08.000Z</time>
</trkpt>
<trkpt lat="59.5454445" lon="31.2125865">
<ele>53.909996</ele>
<time>2026-09-01T00:22:28.000Z</time>
</trkpt>
<trkpt lat="59.5454137" lon="31.2126290">
<ele>54.020000</ele>
<time>2026-09-01T00:22:46.000Z</time>
</trkpt>
<trkpt lat="59.5454305" lon="31.2126630">
<ele>53.709999</ele>
<time>2026-09-01T00:23:12.000Z</time>
</trkpt>
<trkpt lat="59.5454657" lon="31.2125598">
<ele>53.349998</ele>
<time>2026-09-01T00:23:37.000Z</time>
</trkpt>
<trkpt lat="59.5454814" lon="31.2125600">
<ele>53.010002</ele>
<time>2026-09-01T00:24:07.000Z</time>
</trkpt>
<trkpt lat="59.5454405" lon="31.2124516">
<ele>53.760002</ele>
<time>2026-09-01T00:24:37.000Z</time>
</trkpt>
<trkpt lat="59.5454612" lon="31.2124177">
<ele>54.969997</ele>
<time>2026-09-01T00:25:21.000Z</time>
</trkpt>
<trkpt lat="59.5452795" lon="31.2123844">
<ele>55.230000</ele>
<time>2026-09-01T00:26:04.000Z</time>
</trkpt>
<trkpt lat="59.5452044" lon="31.2124253">
<ele>54.099998</ele>
<time>2026-09-01T00:26:32.000Z</time>
</trkpt>
<trkpt lat="59.5451361" lon="31.2125304">
<ele>54.389999</ele>
<time>2026-09-01T00:27:01.000Z</time>
</trkpt>
<trkpt lat="59.5450908" lon="31.2125380">
<ele>54.860001</ele>
<time>2026-09-01T00:27:26.000Z</time>
</trkpt>
<trkpt lat="59.5450071" lon="31.2125439">
<ele>54.489998</ele>
<time>2026-09-01T00:27:47.000Z</time>
</trkpt>
<trkpt lat="59.5449634" lon="31.2126599">
<ele>54.779999</ele>
<time>2026-09-01T00:28:20.000Z</time>
</trkpt>
<trkpt lat="59.5448782" lon="31.2126718">
<ele>54.600002</ele>
<time>2026-09-01T00:28:52.000Z</time>
</trkpt>
<trkpt lat="59.5447587" lon="31.2126099">
<ele>54.630001</ele>
<time>2026-09-01T00:29:20.000Z</time>
</trkpt>
<trkpt lat="59.5446871" lon="31.2125220">
<ele>54.739998</ele>
<time>2026-09-01T00:29:39.000Z</time>
</trkpt>
<trkpt lat="59.5446670" lon="31.2125055">
<ele>54.470001</ele>
<time>2026-09-01T00:29:45.000Z</time>
</trkpt>
<trkpt lat="59.5446330" lon="31.2124017">
<ele>53.930000</ele>
<time>2026-09-01T00:30:06.000Z</time>
</trkpt>
<trkpt lat="59.5445695" lon="31.2123525">
<ele>53.439999</ele>
<time>2026-09-01T00:30:30.000Z</time>
</trkpt>
<trkpt lat="59.5444894" lon="31.2122880">
<ele>52.490002</ele>
<time>2026-09-01T00:30:53.000Z</time>
</trkpt>
<trkpt lat="59.5444096" lon="31.2122855">
<ele>51.849998</ele>
<time>2026-09-01T00:31:09.000Z</time>
</trkpt>
<trkpt lat="59.5443217" lon="31.2123104">
<ele>51.810001</ele>
<time>2026-09-01T00:31:26.000Z</time>
</trkpt>
<trkpt lat="59.5442777" lon="31.2122868">
<ele>51.689999</ele>
<time>2026-09-01T00:31:43.000Z</time>
</trkpt>
<trkpt lat="59.5441884" lon="31.2121568">
<ele>53.590000</ele>
<time>2026-09-01T00:32:11.000Z</time>
</trkpt>
<trkpt lat="59.5441899" lon="31.2120897">
<ele>53.920002</ele>
<time>2026-09-01T00:32:46.000Z</time>
</trkpt>
<trkpt lat="59.5442226" lon="31.2121742">
<ele>55.090000</ele>
<time>2026-09-01T00:33:15.000Z</time>
</trkpt>
<trkpt lat="59.5442741" lon="31.2121813">
<ele>54.340000</ele>
<time>2026-09-01T00:33:47.000Z</time>
</trkpt>
<trkpt lat="59.5441693" lon="31.2121730">
<ele>51.899998</ele>
<time>2026-09-01T00:34:04.000Z</time>
</trkpt>
<trkpt lat="59.5440952" lon="31.2121326">
<ele>50.759998</ele>
<time>2026-09-01T00:34:24.000Z</time>
</trkpt>
<trkpt lat="59.5440590" lon="31.2120349">
<ele>51.030003</ele>
<time>2026-09-01T00:34:40.000Z</time>
</trkpt>
<trkpt lat="59.5440600" lon="31.2119599">
<ele>50.970001</ele>
<time>2026-09-01T00:35:06.000Z</time>
</trkpt>
<trkpt lat="59.5440208" lon="31.2118809">
<ele>53.260002</ele>
<time>2026-09-01T00:35:35.000Z</time>
</trkpt>
<trkpt lat="59.5440589" lon="31.2119033">
<ele>53.010002</ele>
<time>2026-09-01T00:35:56.000Z</time>
</trkpt>
<trkpt lat="59.5440822" lon="31.2118399">
<ele>52.880001</ele>
<time>2026-09-01T00:36:24.000Z</time>
</trkpt>
<trkpt lat="59.5440859" lon="31.2117019">
<ele>52.650002</ele>
<time>2026-09-01T00:36:46.000Z</time>
</trkpt>
<trkpt lat="59.5440883" lon="31.2116213">
<ele>52.340000</ele>
<time>2026-09-01T00:36:54.000Z</time>
</trkpt>
<trkpt lat="59.5441309" lon="31.2112770">
<ele>51.270000</ele>
<time>2026-09-01T00:37:12.000Z</time>
</trkpt>
<trkpt lat="59.5441442" lon="31.2109392">
<ele>50.019997</ele>
<time>2026-09-01T00:37:36.000Z</time>
</trkpt>
<trkpt lat="59.5441379" lon="31.2106534">
<ele>48.610001</ele>
<time>2026-09-01T00:37:58.000Z</time>
</trkpt>
<trkpt lat="59.5441031" lon="31.2104177">
<ele>47.809998</ele>
<time>2026-09-01T00:38:18.000Z</time>
</trkpt>
<trkpt lat="59.5439775" lon="31.2102783">
<ele>46.660000</ele>
<time>2026-09-01T00:38:36.000Z</time>
</trkpt>
<trkpt lat="59.5438841" lon="31.2102354">
<ele>47.680000</ele>
<time>2026-09-01T00:38:58.000Z</time>
</trkpt>
<trkpt lat="59.5438107" lon="31.2101375">
<ele>47.520000</ele>
<time>2026-09-01T00:39:12.000Z</time>
</trkpt>
<trkpt lat="59.5437124" lon="31.2099574">
<ele>47.090000</ele>
<time>2026-09-01T00:39:32.000Z</time>
</trkpt>
<trkpt lat="59.5436981" lon="31.2099420">
<ele>46.809998</ele>
<time>2026-09-01T00:39:34.000Z</time>
</trkpt>
<trkpt lat="59.5436066" lon="31.2098266">
<ele>45.869999</ele>
<time>2026-09-01T00:39:48.000Z</time>
</trkpt>
<trkpt lat="59.5434460" lon="31.2096399">
<ele>46.400002</ele>
<time>2026-09-01T00:40:08.000Z</time>
</trkpt>
<trkpt lat="59.5432954" lon="31.2094766">
<ele>45.509998</ele>
<time>2026-09-01T00:40:31.000Z</time>
</trkpt>
<trkpt lat="59.5431824" lon="31.2092886">
<ele>44.739998</ele>
<time>2026-09-01T00:40:52.000Z</time>
</trkpt>
<trkpt lat="59.5431611" lon="31.2091585">
<ele>45.690002</ele>
<time>2026-09-01T00:41:11.000Z</time>
</trkpt>
<trkpt lat="59.5430328" lon="31.2090638">
<ele>46.939999</ele>
<time>2026-09-01T00:41:29.000Z</time>
</trkpt>
<trkpt lat="59.5429765" lon="31.2090582">
<ele>47.799999</ele>
<time>2026-09-01T00:41:47.000Z</time>
</trkpt>
<trkpt lat="59.5429087" lon="31.2089187">
<ele>48.680000</ele>
<time>2026-09-01T00:42:09.000Z</time>
</trkpt>
<trkpt lat="59.5428638" lon="31.2086577">
<ele>47.930000</ele>
<time>2026-09-01T00:42:32.000Z</time>
</trkpt>
<trkpt lat="59.5428627" lon="31.2085296">
<ele>48.350002</ele>
<time>2026-09-01T00:43:01.000Z</time>
</trkpt>
<trkpt lat="59.5428108" lon="31.2084265">
<ele>48.610001</ele>
<time>2026-09-01T00:43:29.000Z</time>
</trkpt>
<trkpt lat="59.5428100" lon="31.2084587">
<ele>49.469997</ele>
<time>2026-09-01T00:43:59.000Z</time>
</trkpt>
<trkpt lat="59.5428343" lon="31.2085744">
<ele>48.849998</ele>
<time>2026-09-01T00:44:27.000Z</time>
</trkpt>
<trkpt lat="59.5427895" lon="31.2085250">
<ele>51.699997</ele>
<time>2026-09-01T00:44:57.000Z</time>
</trkpt>
<trkpt lat="59.5427998" lon="31.2085022">
<ele>51.820000</ele>
<time>2026-09-01T00:45:25.000Z</time>
</trkpt>
<trkpt lat="59.5428855" lon="31.2083047">
<ele>51.260002</ele>
<time>2026-09-01T00:45:43.000Z</time>
</trkpt>
<trkpt lat="59.5429193" lon="31.2082641">
<ele>51.889999</ele>
<time>2026-09-01T00:46:00.000Z</time>
</trkpt>
<trkpt lat="59.5428909" lon="31.2082274">
<ele>53.100002</ele>
<time>2026-09-01T00:46:31.000Z</time>
</trkpt>
<trkpt lat="59.5427942" lon="31.2081546">
<ele>54.700001</ele>
<time>2026-09-01T00:47:02.000Z</time>
</trkpt>
<trkpt lat="59.5428421" lon="31.2082299">
<ele>55.230000</ele>
<time>2026-09-01T00:47:30.000Z</time>
</trkpt>
<trkpt lat="59.5428970" lon="31.2081927">
<ele>55.990002</ele>
<time>2026-09-01T00:48:05.000Z</time>
</trkpt>
<trkpt lat="59.5429737" lon="31.2082232">
<ele>54.899998</ele>
<time>2026-09-01T00:48:34.000Z</time>
</trkpt>
<trkpt lat="59.5430076" lon="31.2082960">
<ele>54.400002</ele>
<time>2026-09-01T00:48:49.000Z</time>
</trkpt>
<trkpt lat="59.5428693" lon="31.2081249">
<ele>56.489998</ele>
<time>2026-09-01T00:49:23.000Z</time>
</trkpt>
<trkpt lat="59.5428976" lon="31.2081608">
<ele>57.770000</ele>
<time>2026-09-01T00:49:50.000Z</time>
</trkpt>
<trkpt lat="59.5428876" lon="31.2082087">
<ele>58.380001</ele>
<time>2026-09-01T00:50:18.000Z</time>
</trkpt>
<trkpt lat="59.5429774" lon="31.2081849">
<ele>57.880001</ele>
<time>2026-09-01T00:50:33.000Z</time>
</trkpt>
<trkpt lat="59.5429864" lon="31.2081904">
<ele>57.859997</ele>
<time>2026-09-01T00:50:34.000Z</time>
</trkpt>
<trkpt lat="59.5431027" lon="31.2081274">
<ele>56.779999</ele>
<time>2026-09-01T00:50:52.000Z</time>
</trkpt>
<trkpt lat="59.5432648" lon="31.2079760">
<ele>55.049999</ele>
<time>2026-09-01T00:51:10.000Z</time>
</trkpt>
<trkpt lat="59.5434204" lon="31.2078897">
<ele>53.840000</ele>
<time>2026-09-01T00:51:27.000Z</time>
</trkpt>
<trkpt lat="59.5435720" lon="31.2077491">
<ele>51.769997</ele>
<time>2026-09-01T00:51:51.000Z</time>
</trkpt>
<trkpt lat="59.5437903" lon="31.2074371">
<ele>47.169998</ele>
<time>2026-09-01T00:52:18.000Z</time>
</trkpt>
<trkpt lat="59.5440063" lon="31.2070092">
<ele>40.849998</ele>
<time>2026-09-01T00:52:46.000Z</time>
</trkpt>
<trkpt lat="59.5440769" lon="31.2064985">
<ele>36.410000</ele>
<time>2026-09-01T00:53:13.000Z</time>
</trkpt>
<trkpt lat="59.5440783" lon="31.2064453">
<ele>35.770000</ele>
<time>2026-09-01T00:53:16.000Z</time>
</trkpt>
<trkpt lat="59.5441184" lon="31.2061857">
<ele>34.290001</ele>
<time>2026-09-01T00:53:32.000Z</time>
</trkpt>
<trkpt lat="59.5441962" lon="31.2058237">
<ele>33.840000</ele>
<time>2026-09-01T00:53:50.000Z</time>
</trkpt>
<trkpt lat="59.5442225" lon="31.2057973">
<ele>40.499996</ele>
<time>2026-09-01T00:54:20.000Z</time>
</trkpt>
<trkpt lat="59.5442412" lon="31.2055680">
<ele>43.260002</ele>
<time>2026-09-01T00:54:39.000Z</time>
</trkpt>
<trkpt lat="59.5442465" lon="31.2055386">
<ele>49.510002</ele>
<time>2026-09-01T00:55:06.000Z</time>
</trkpt>
<trkpt lat="59.5442853" lon="31.2053287">
<ele>51.340000</ele>
<time>2026-09-01T00:55:29.000Z</time>
</trkpt>
<trkpt lat="59.5443869" lon="31.2050345">
<ele>48.399998</ele>
<time>2026-09-01T00:55:50.000Z</time>
</trkpt>
<trkpt lat="59.5444179" lon="31.2048699">
<ele>44.920002</ele>
<time>2026-09-01T00:56:07.000Z</time>
</trkpt>
<trkpt lat="59.5445526" lon="31.2045603">
<ele>41.720001</ele>
<time>2026-09-01T00:56:31.000Z</time>
</trkpt>
<trkpt lat="59.5445890" lon="31.2044681">
<ele>40.810001</ele>
<time>2026-09-01T00:56:39.000Z</time>
</trkpt>
<trkpt lat="59.5446867" lon="31.2043728">
<ele>40.139999</ele>
<time>2026-09-01T00:56:57.000Z</time>
</trkpt>
<trkpt lat="59.5447101" lon="31.2043209">
<ele>40.090000</ele>
<time>2026-09-01T00:57:02.000Z</time>
</trkpt>
<trkpt lat="59.5448807" lon="31.2043018">
<ele>40.120003</ele>
<time>2026-09-01T00:57:23.000Z</time>
</trkpt>
<trkpt lat="59.5449390" lon="31.2042529">
<ele>40.189999</ele>
<time>2026-09-01T00:57:29.000Z</time>
</trkpt>
<trkpt lat="59.5449866" lon="31.2042179">
<ele>40.890003</ele>
<time>2026-09-01T00:58:01.000Z</time>
</trkpt>
<trkpt lat="59.5450120" lon="31.2042018">
<ele>45.180000</ele>
<time>2026-09-01T00:58:27.000Z</time>
</trkpt>
<trkpt lat="59.5450312" lon="31.2042480">
<ele>45.709999</ele>
<time>2026-09-01T00:58:57.000Z</time>
</trkpt>
<trkpt lat="59.5449641" lon="31.2043196">
<ele>48.339996</ele>
<time>2026-09-01T00:59:27.000Z</time>
</trkpt>
<trkpt lat="59.5450804" lon="31.2043289">
<ele>50.340000</ele>
<time>2026-09-01T00:59:52.000Z</time>
</trkpt>
<trkpt lat="59.5451669" lon="31.2043742">
<ele>50.520000</ele>
<time>2026-09-01T01:00:10.000Z</time>
</trkpt>
<trkpt lat="59.5452502" lon="31.2044377">
<ele>50.599998</ele>
<time>2026-09-01T01:00:23.000Z</time>
</trkpt>
<trkpt lat="59.5453479" lon="31.2044686">
<ele>49.770000</ele>
<time>2026-09-01T01:00:37.000Z</time>
</trkpt>
<trkpt lat="59.5454334" lon="31.2045555">
<ele>47.790001</ele>
<time>2026-09-01T01:00:53.000Z</time>
</trkpt>
<trkpt lat="59.5456868" lon="31.2046688">
<ele>46.150002</ele>
<time>2026-09-01T01:01:12.000Z</time>
</trkpt>
<trkpt lat="59.5459368" lon="31.2048204">
<ele>47.049999</ele>
<time>2026-09-01T01:01:30.000Z</time>
</trkpt>
<trkpt lat="59.5460844" lon="31.2049886">
<ele>46.240002</ele>
<time>2026-09-01T01:01:52.000Z</time>
</trkpt>
<trkpt lat="59.5462033" lon="31.2051360">
<ele>46.090000</ele>
<time>2026-09-01T01:02:13.000Z</time>
</trkpt>
<trkpt lat="59.5462002" lon="31.2051505">
<ele>47.520000</ele>
<time>2026-09-01T01:02:37.000Z</time>
</trkpt>
<trkpt lat="59.5462126" lon="31.2051369">
<ele>47.770000</ele>
<time>2026-09-01T01:03:03.000Z</time>
</trkpt>
<trkpt lat="59.5462118" lon="31.2051925">
<ele>48.520000</ele>
<time>2026-09-01T01:03:24.000Z</time>
</trkpt>
<trkpt lat="59.5463055" lon="31.2052036">
<ele>50.889999</ele>
<time>2026-09-01T01:03:53.000Z</time>
</trkpt>
<trkpt lat="59.5462787" lon="31.2051887">
<ele>51.780003</ele>
<time>2026-09-01T01:04:21.000Z</time>
</trkpt>
<trkpt lat="59.5463167" lon="31.2051855">
<ele>53.349998</ele>
<time>2026-09-01T01:04:46.000Z</time>
</trkpt>
<trkpt lat="59.5464319" lon="31.2052755">
<ele>53.490002</ele>
<time>2026-09-01T01:05:08.000Z</time>
</trkpt>
<trkpt lat="59.5466317" lon="31.2053702">
<ele>49.380001</ele>
<time>2026-09-01T01:05:33.000Z</time>
</trkpt>
<trkpt lat="59.5467713" lon="31.2054761">
<ele>45.899998</ele>
<time>2026-09-01T01:05:49.000Z</time>
</trkpt>
<trkpt lat="59.5469572" lon="31.2055715">
<ele>42.629997</ele>
<time>2026-09-01T01:06:05.000Z</time>
</trkpt>
<trkpt lat="59.5470671" lon="31.2057704">
<ele>39.470001</ele>
<time>2026-09-01T01:06:19.000Z</time>
</trkpt>
<trkpt lat="59.5471750" lon="31.2059517">
<ele>37.119999</ele>
<time>2026-09-01T01:06:35.000Z</time>
</trkpt>
<trkpt lat="59.5473267" lon="31.2062882">
<ele>34.230000</ele>
<time>2026-09-01T01:06:59.000Z</time>
</trkpt>
<trkpt lat="59.5474970" lon="31.2063498">
<ele>34.419998</ele>
<time>2026-09-01T01:07:18.000Z</time>
</trkpt>
<trkpt lat="59.5476253" lon="31.2062978">
<ele>35.049999</ele>
<time>2026-09-01T01:07:33.000Z</time>
</trkpt>
<trkpt lat="59.5477368" lon="31.2062970">
<ele>34.320000</ele>
<time>2026-09-01T01:07:51.000Z</time>
</trkpt>
<trkpt lat="59.5479374" lon="31.2062393">
<ele>35.190002</ele>
<time>2026-09-01T01:08:08.000Z</time>
</trkpt>
<trkpt lat="59.5480504" lon="31.2061257">
<ele>34.010002</ele>
<time>2026-09-01T01:08:29.000Z</time>
</trkpt>
<trkpt lat="59.5481279" lon="31.2060589">
<ele>34.879997</ele>
<time>2026-09-01T01:08:35.000Z</time>
</trkpt>
<trkpt lat="59.5482572" lon="31.2059845">
<ele>33.400002</ele>
<time>2026-09-01T01:08:55.000Z</time>
</trkpt>
<trkpt lat="59.5483830" lon="31.2058641">
<ele>31.449999</ele>
<time>2026-09-01T01:09:15.000Z</time>
</trkpt>
<trkpt lat="59.5487526" lon="31.2058108">
<ele>34.120003</ele>
<time>2026-09-01T01:09:34.000Z</time>
</trkpt>
<trkpt lat="59.5489168" lon="31.2058087">
<ele>34.010002</ele>
<time>2026-09-01T01:09:54.000Z</time>
</trkpt>
<trkpt lat="59.5490240" lon="31.2057533">
<ele>31.559999</ele>
<time>2026-09-01T01:10:12.000Z</time>
</trkpt>
<trkpt lat="59.5492057" lon="31.2057023">
<ele>36.660000</ele>
<time>2026-09-01T01:10:24.000Z</time>
</trkpt>
<trkpt lat="59.5493686" lon="31.2056654">
<ele>37.480000</ele>
<time>2026-09-01T01:10:46.000Z</time>
</trkpt>
<trkpt lat="59.5496079" lon="31.2056580">
<ele>42.490002</ele>
<time>2026-09-01T01:11:06.000Z</time>
</trkpt>
<trkpt lat="59.5497864" lon="31.2057140">
<ele>43.170002</ele>
<time>2026-09-01T01:11:26.000Z</time>
</trkpt>
<trkpt lat="59.5498747" lon="31.2058164">
<ele>42.629997</ele>
<time>2026-09-01T01:11:33.000Z</time>
</trkpt>
<trkpt lat="59.5499683" lon="31.2059251">
<ele>41.559998</ele>
<time>2026-09-01T01:11:49.000Z</time>
</trkpt>
<trkpt lat="59.5501457" lon="31.2058741">
<ele>46.119999</ele>
<time>2026-09-01T01:12:11.000Z</time>
</trkpt>
<trkpt lat="59.5501794" lon="31.2058999">
<ele>49.689999</ele>
<time>2026-09-01T01:12:38.000Z</time>
</trkpt>
<trkpt lat="59.5501479" lon="31.2059197">
<ele>53.029999</ele>
<time>2026-09-01T01:13:07.000Z</time>
</trkpt>
<trkpt lat="59.5501938" lon="31.2059709">
<ele>54.450001</ele>
<time>2026-09-01T01:13:39.000Z</time>
</trkpt>
<trkpt lat="59.5502276" lon="31.2059208">
<ele>53.430000</ele>
<time>2026-09-01T01:14:12.000Z</time>
</trkpt>
<trkpt lat="59.5502216" lon="31.2059368">
<ele>53.059998</ele>
<time>2026-09-01T01:14:44.000Z</time>
</trkpt>
<trkpt lat="59.5504058" lon="31.2058297">
<ele>51.299999</ele>
<time>2026-09-01T01:15:09.000Z</time>
</trkpt>
<trkpt lat="59.5505658" lon="31.2057324">
<ele>47.199997</ele>
<time>2026-09-01T01:15:29.000Z</time>
</trkpt>
<trkpt lat="59.5507068" lon="31.2056324">
<ele>45.129997</ele>
<time>2026-09-01T01:15:43.000Z</time>
</trkpt>
<trkpt lat="59.5508511" lon="31.2055237">
<ele>41.489998</ele>
<time>2026-09-01T01:15:59.000Z</time>
</trkpt>
<trkpt lat="59.5510236" lon="31.2054622">
<ele>34.020000</ele>
<time>2026-09-01T01:16:23.000Z</time>
</trkpt>
<trkpt lat="59.5510950" lon="31.2053894">
<ele>29.100000</ele>
<time>2026-09-01T01:16:38.000Z</time>
</trkpt>
<trkpt lat="59.5511116" lon="31.2053990">
<ele>28.530001</ele>
<time>2026-09-01T01:16:41.000Z</time>
</trkpt>
<trkpt lat="59.5511880" lon="31.2054280">
<ele>31.530001</ele>
<time>2026-09-01T01:17:02.000Z</time>
</trkpt>
<trkpt lat="59.5512331" lon="31.2053791">
<ele>35.400002</ele>
<time>2026-09-01T01:17:40.000Z</time>
</trkpt>
<trkpt lat="59.5512205" lon="31.2052959">
<ele>37.689999</ele>
<time>2026-09-01T01:18:30.000Z</time>
</trkpt>
<trkpt lat="59.5512194" lon="31.2052181">
<ele>38.670002</ele>
<time>2026-09-01T01:18:59.000Z</time>
</trkpt>
<trkpt lat="59.5511607" lon="31.2051538">
<ele>41.299999</ele>
<time>2026-09-01T01:19:35.000Z</time>
</trkpt>
<trkpt lat="59.5511816" lon="31.2050950">
<ele>42.580002</ele>
<time>2026-09-01T01:20:01.000Z</time>
</trkpt>
<trkpt lat="59.5511960" lon="31.2051674">
<ele>44.839996</ele>
<time>2026-09-01T01:20:31.000Z</time>
</trkpt>
<trkpt lat="59.5512020" lon="31.2052291">
<ele>47.230000</ele>
<time>2026-09-01T01:21:06.000Z</time>
</trkpt>
<trkpt lat="59.5512069" lon="31.2052473">
<ele>48.960003</ele>
<time>2026-09-01T01:21:32.000Z</time>
</trkpt>
<trkpt lat="59.5512319" lon="31.2052391">
<ele>47.540001</ele>
<time>2026-09-01T01:21:57.000Z</time>
</trkpt>
<trkpt lat="59.5513412" lon="31.2051813">
<ele>45.829998</ele>
<time>2026-09-01T01:22:07.000Z</time>
</trkpt>
<trkpt lat="59.5514483" lon="31.2050894">
<ele>42.520000</ele>
<time>2026-09-01T01:22:22.000Z</time>
</trkpt>
<trkpt lat="59.5515545" lon="31.2050027">
<ele>39.619999</ele>
<time>2026-09-01T01:22:37.000Z</time>
</trkpt>
<trkpt lat="59.5516198" lon="31.2049291">
<ele>37.400002</ele>
<time>2026-09-01T01:22:44.000Z</time>
</trkpt>
<trkpt lat="59.5517705" lon="31.2048679">
<ele>35.820000</ele>
<time>2026-09-01T01:23:02.000Z</time>
</trkpt>
<trkpt lat="59.5518939" lon="31.2047495">
<ele>35.869999</ele>
<time>2026-09-01T01:23:21.000Z</time>
</trkpt>
<trkpt lat="59.5519220" lon="31.2046927">
<ele>37.910000</ele>
<time>2026-09-01T01:23:48.000Z</time>
</trkpt>
<trkpt lat="59.5519966" lon="31.2047313">
<ele>36.629997</ele>
<time>2026-09-01T01:24:20.000Z</time>
</trkpt>
<trkpt lat="59.5520502" lon="31.2047069">
<ele>37.469997</ele>
<time>2026-09-01T01:24:41.000Z</time>
</trkpt>
<trkpt lat="59.5521543" lon="31.2047188">
<ele>38.079998</ele>
<time>2026-09-01T01:24:58.000Z</time>
</trkpt>
<trkpt lat="59.5522461" lon="31.2047872">
<ele>38.120003</ele>
<time>2026-09-01T01:25:12.000Z</time>
</trkpt>
<trkpt lat="59.5523866" lon="31.2048880">
<ele>38.180000</ele>
<time>2026-09-01T01:25:24.000Z</time>
</trkpt>
<trkpt lat="59.5525167" lon="31.2049740">
<ele>38.610001</ele>
<time>2026-09-01T01:25:37.000Z</time>
</trkpt>
<trkpt lat="59.5526799" lon="31.2050916">
<ele>38.860001</ele>
<time>2026-09-01T01:25:55.000Z</time>
</trkpt>
<trkpt lat="59.5528397" lon="31.2051543">
<ele>37.599998</ele>
<time>2026-09-01T01:26:10.000Z</time>
</trkpt>
<trkpt lat="59.5530466" lon="31.2053917">
<ele>37.730000</ele>
<time>2026-09-01T01:26:35.000Z</time>
</trkpt>
<trkpt lat="59.5531291" lon="31.2054674">
<ele>37.919998</ele>
<time>2026-09-01T01:26:47.000Z</time>
</trkpt>
<trkpt lat="59.5533054" lon="31.2055730">
<ele>38.380001</ele>
<time>2026-09-01T01:27:03.000Z</time>
</trkpt>
<trkpt lat="59.5534366" lon="31.2057320">
<ele>38.010002</ele>
<time>2026-09-01T01:27:19.000Z</time>
</trkpt>
<trkpt lat="59.5535262" lon="31.2058103">
<ele>38.120003</ele>
<time>2026-09-01T01:27:30.000Z</time>
</trkpt>
<trkpt lat="59.5537204" lon="31.2058837">
<ele>36.820000</ele>
<time>2026-09-01T01:27:51.000Z</time>
</trkpt>
<trkpt lat="59.5538632" lon="31.2059486">
<ele>36.040001</ele>
<time>2026-09-01T01:28:05.000Z</time>
</trkpt>
<trkpt lat="59.5540398" lon="31.2061093">
<ele>35.250000</ele>
<time>2026-09-01T01:28:25.000Z</time>
</trkpt>
<trkpt lat="59.5541570" lon="31.2062255">
<ele>35.920002</ele>
<time>2026-09-01T01:28:44.000Z</time>
</trkpt>
<trkpt lat="59.5542730" lon="31.2063995">
<ele>38.560001</ele>
<time>2026-09-01T01:29:00.000Z</time>
</trkpt>
<trkpt lat="59.5544067" lon="31.2064464">
<ele>39.639999</ele>
<time>2026-09-01T01:29:17.000Z</time>
</trkpt>
<trkpt lat="59.5545120" lon="31.2065262">
<ele>39.530003</ele>
<time>2026-09-01T01:29:34.000Z</time>
</trkpt>
<trkpt lat="59.5546550" lon="31.2065845">
<ele>38.240002</ele>
<time>2026-09-01T01:29:49.000Z</time>
</trkpt>
<trkpt lat="59.5548910" lon="31.2067448">
<ele>37.780003</ele>
<time>2026-09-01T01:30:18.000Z</time>
</trkpt>
<trkpt lat="59.5550467" lon="31.2068843">
<ele>38.480000</ele>
<time>2026-09-01T01:30:39.000Z</time>
</trkpt>
<trkpt lat="59.5552164" lon="31.2069678">
<ele>37.060001</ele>
<time>2026-09-01T01:30:52.000Z</time>
</trkpt>
<trkpt lat="59.5552293" lon="31.2069618">
<ele>36.639999</ele>
<time>2026-09-01T01:30:54.000Z</time>
</trkpt>
<trkpt lat="59.5553793" lon="31.2069457">
<ele>32.610001</ele>
<time>2026-09-01T01:31:12.000Z</time>
</trkpt>
<trkpt lat="59.5554660" lon="31.2069311">
<ele>31.070000</ele>
<time>2026-09-01T01:31:24.000Z</time>
</trkpt>
<trkpt lat="59.5555908" lon="31.2069397">
<ele>30.700001</ele>
<time>2026-09-01T01:31:41.000Z</time>
</trkpt>
<trkpt lat="59.5558530" lon="31.2071439">
<ele>31.510000</ele>
<time>2026-09-01T01:31:59.000Z</time>
</trkpt>
<trkpt lat="59.5558624" lon="31.2071498">
<ele>31.519999</ele>
<time>2026-09-01T01:32:00.000Z</time>
</trkpt>
<trkpt lat="59.5559908" lon="31.2071685">
<ele>33.670002</ele>
<time>2026-09-01T01:32:18.000Z</time>
</trkpt>
<trkpt lat="59.5561199" lon="31.2071581">
<ele>38.759998</ele>
<time>2026-09-01T01:32:39.000Z</time>
</trkpt>
<trkpt lat="59.5562477" lon="31.2071891">
<ele>42.670002</ele>
<time>2026-09-01T01:32:59.000Z</time>
</trkpt>
<trkpt lat="59.5563844" lon="31.2071971">
<ele>41.340004</ele>
<time>2026-09-01T01:33:18.000Z</time>
</trkpt>
<trkpt lat="59.5566542" lon="31.2072151">
<ele>36.560001</ele>
<time>2026-09-01T01:33:39.000Z</time>
</trkpt>
<trkpt lat="59.5568035" lon="31.2071843">
<ele>33.079998</ele>
<time>2026-09-01T01:33:55.000Z</time>
</trkpt>
<trkpt lat="59.5570235" lon="31.2071065">
<ele>30.780001</ele>
<time>2026-09-01T01:34:18.000Z</time>
</trkpt>
<trkpt lat="59.5571073" lon="31.2070784">
<ele>34.079998</ele>
<time>2026-09-01T01:34:36.000Z</time>
</trkpt>
<trkpt lat="59.5573379" lon="31.2071152">
<ele>30.600000</ele>
<time>2026-09-01T01:34:55.000Z</time>
</trkpt>
<trkpt lat="59.5574981" lon="31.2070859">
<ele>28.760000</ele>
<time>2026-09-01T01:35:08.000Z</time>
</trkpt>
<trkpt lat="59.5577318" lon="31.2072659">
<ele>28.260000</ele>
<time>2026-09-01T01:35:29.000Z</time>
</trkpt>
<trkpt lat="59.5579747" lon="31.2075201">
<ele>30.690001</ele>
<time>2026-09-01T01:35:50.000Z</time>
</trkpt>
<trkpt lat="59.5581255" lon="31.2077186">
<ele>33.649998</ele>
<time>2026-09-01T01:36:05.000Z</time>
</trkpt>
<trkpt lat="59.5582821" lon="31.2079176">
<ele>32.450001</ele>
<time>2026-09-01T01:36:22.000Z</time>
</trkpt>
<trkpt lat="59.5584771" lon="31.2080769">
<ele>31.990002</ele>
<time>2026-09-01T01:36:40.000Z</time>
</trkpt>
<trkpt lat="59.5585969" lon="31.2081649">
<ele>31.099998</ele>
<time>2026-09-01T01:36:51.000Z</time>
</trkpt>
<trkpt lat="59.5587416" lon="31.2083011">
<ele>29.670000</ele>
<time>2026-09-01T01:37:07.000Z</time>
</trkpt>
<trkpt lat="59.5588338" lon="31.2083532">
<ele>28.059999</ele>
<time>2026-09-01T01:37:17.000Z</time>
</trkpt>
<trkpt lat="59.5589331" lon="31.2083786">
<ele>27.500000</ele>
<time>2026-09-01T01:37:29.000Z</time>
</trkpt>
<trkpt lat="59.5589991" lon="31.2084138">
<ele>27.869999</ele>
<time>2026-09-01T01:37:36.000Z</time>
</trkpt>
<trkpt lat="59.5591256" lon="31.2084835">
<ele>28.460001</ele>
<time>2026-09-01T01:37:48.000Z</time>
</trkpt>
<trkpt lat="59.5593833" lon="31.2086275">
<ele>35.610001</ele>
<time>2026-09-01T01:38:03.000Z</time>
</trkpt>
<trkpt lat="59.5596945" lon="31.2086624">
<ele>42.009998</ele>
<time>2026-09-01T01:38:26.000Z</time>
</trkpt>
<trkpt lat="59.5599274" lon="31.2086606">
<ele>41.520000</ele>
<time>2026-09-01T01:38:44.000Z</time>
</trkpt>
<trkpt lat="59.5602000" lon="31.2086665">
<ele>41.859997</ele>
<time>2026-09-01T01:39:04.000Z</time>
</trkpt>
<trkpt lat="59.5603797" lon="31.2086615">
<ele>43.420002</ele>
<time>2026-09-01T01:39:19.000Z</time>
</trkpt>
<trkpt lat="59.5606145" lon="31.2086650">
<ele>46.600002</ele>
<time>2026-09-01T01:39:39.000Z</time>
</trkpt>
<trkpt lat="59.5608105" lon="31.2086690">
<ele>46.310001</ele>
<time>2026-09-01T01:39:55.000Z</time>
</trkpt>
<trkpt lat="59.5610294" lon="31.2086691">
<ele>45.480000</ele>
<time>2026-09-01T01:40:16.000Z</time>
</trkpt>
<trkpt lat="59.5612557" lon="31.2086635">
<ele>43.810001</ele>
<time>2026-09-01T01:40:37.000Z</time>
</trkpt>
<trkpt lat="59.5613893" lon="31.2086652">
<ele>42.919998</ele>
<time>2026-09-01T01:40:50.000Z</time>
</trkpt>
<trkpt lat="59.5616472" lon="31.2086526">
<ele>42.619999</ele>
<time>2026-09-01T01:41:12.000Z</time>
</trkpt>
<trkpt lat="59.5619465" lon="31.2086616">
<ele>47.090000</ele>
<time>2026-09-01T01:41:35.000Z</time>
</trkpt>
<trkpt lat="59.5621700" lon="31.2086411">
<ele>48.080002</ele>
<time>2026-09-01T01:41:53.000Z</time>
</trkpt>
<trkpt lat="59.5623379" lon="31.2086583">
<ele>48.329998</ele>
<time>2026-09-01T01:42:06.000Z</time>
</trkpt>
<trkpt lat="59.5625719" lon="31.2086620">
<ele>51.110001</ele>
<time>2026-09-01T01:42:24.000Z</time>
</trkpt>
<trkpt lat="59.5628292" lon="31.2086393">
<ele>49.139999</ele>
<time>2026-09-01T01:42:44.000Z</time>
</trkpt>
<trkpt lat="59.5629889" lon="31.2086532">
<ele>49.919998</ele>
<time>2026-09-01T01:42:59.000Z</time>
</trkpt>
<trkpt lat="59.5631291" lon="31.2086889">
<ele>48.169998</ele>
<time>2026-09-01T01:43:11.000Z</time>
</trkpt>
<trkpt lat="59.5633569" lon="31.2086563">
<ele>48.139999</ele>
<time>2026-09-01T01:43:31.000Z</time>
</trkpt>
<trkpt lat="59.5635809" lon="31.2086664">
<ele>49.399998</ele>
<time>2026-09-01T01:43:50.000Z</time>
</trkpt>
<trkpt lat="59.5637819" lon="31.2086635">
<ele>50.380001</ele>
<time>2026-09-01T01:44:04.000Z</time>
</trkpt>
<trkpt lat="59.5638936" lon="31.2086906">
<ele>49.689999</ele>
<time>2026-09-01T01:44:14.000Z</time>
</trkpt>
<trkpt lat="59.5641427" lon="31.2086935">
<ele>52.230000</ele>
<time>2026-09-01T01:44:33.000Z</time>
</trkpt>
<trkpt lat="59.5642686" lon="31.2086975">
<ele>54.739998</ele>
<time>2026-09-01T01:44:42.000Z</time>
</trkpt>
<trkpt lat="59.5643851" lon="31.2086738">
<ele>53.310001</ele>
<time>2026-09-01T01:44:54.000Z</time>
</trkpt>
<trkpt lat="59.5645452" lon="31.2086591">
<ele>51.550003</ele>
<time>2026-09-01T01:45:06.000Z</time>
</trkpt>
<trkpt lat="59.5647213" lon="31.2086644">
<ele>52.459999</ele>
<time>2026-09-01T01:45:19.000Z</time>
</trkpt>
<trkpt lat="59.5649220" lon="31.2086846">
<ele>50.329998</ele>
<time>2026-09-01T01:45:35.000Z</time>
</trkpt>
<trkpt lat="59.5650608" lon="31.2087034">
<ele>47.099998</ele>
<time>2026-09-01T01:45:50.000Z</time>
</trkpt>
<trkpt lat="59.5652621" lon="31.2087356">
<ele>41.060001</ele>
<time>2026-09-01T01:46:08.000Z</time>
</trkpt>
<trkpt lat="59.5654182" lon="31.2087075">
<ele>38.950001</ele>
<time>2026-09-01T01:46:20.000Z</time>
</trkpt>
<trkpt lat="59.5654311" lon="31.2087097">
<ele>38.860001</ele>
<time>2026-09-01T01:46:21.000Z</time>
</trkpt>
<trkpt lat="59.5656413" lon="31.2086341">
<ele>37.110001</ele>
<time>2026-09-01T01:46:38.000Z</time>
</trkpt>
<trkpt lat="59.5657593" lon="31.2085963">
<ele>34.139999</ele>
<time>2026-09-01T01:46:53.000Z</time>
</trkpt>
<trkpt lat="59.5657850" lon="31.2085957">
<ele>34.379997</ele>
<time>2026-09-01T01:47:02.000Z</time>
</trkpt>
<trkpt lat="59.5659169" lon="31.2085482">
<ele>32.250000</ele>
<time>2026-09-01T01:47:18.000Z</time>
</trkpt>
<trkpt lat="59.5660237" lon="31.2084577">
<ele>30.650000</ele>
<time>2026-09-01T01:47:37.000Z</time>
</trkpt>
<trkpt lat="59.5661914" lon="31.2083079">
<ele>27.020000</ele>
<time>2026-09-01T01:47:52.000Z</time>
</trkpt>
<trkpt lat="59.5663977" lon="31.2081904">
<ele>28.770000</ele>
<time>2026-09-01T01:48:09.000Z</time>
</trkpt>
<trkpt lat="59.5665543" lon="31.2081750">
<ele>30.650000</ele>
<time>2026-09-01T01:48:22.000Z</time>
</trkpt>
<trkpt lat="59.5666779" lon="31.2082198">
<ele>31.519999</ele>
<time>2026-09-01T01:48:33.000Z</time>
</trkpt>
<trkpt lat="59.5667888" lon="31.2082269">
<ele>32.279999</ele>
<time>2026-09-01T01:48:43.000Z</time>
</trkpt>
<trkpt lat="59.5669033" lon="31.2082950">
<ele>33.279999</ele>
<time>2026-09-01T01:48:54.000Z</time>
</trkpt>
<trkpt lat="59.5670192" lon="31.2084364">
<ele>36.420002</ele>
<time>2026-09-01T01:49:06.000Z</time>
</trkpt>
<trkpt lat="59.5671932" lon="31.2086399">
<ele>38.329998</ele>
<time>2026-09-01T01:49:24.000Z</time>
</trkpt>
<trkpt lat="59.5673538" lon="31.2088593">
<ele>38.879997</ele>
<time>2026-09-01T01:49:42.000Z</time>
</trkpt>
<trkpt lat="59.5674915" lon="31.2090313">
<ele>38.189999</ele>
<time>2026-09-01T01:49:57.000Z</time>
</trkpt>
<trkpt lat="59.5676993" lon="31.2093112">
<ele>37.889999</ele>
<time>2026-09-01T01:50:19.000Z</time>
</trkpt>
<trkpt lat="59.5679563" lon="31.2095536">
<ele>39.429996</ele>
<time>2026-09-01T01:50:41.000Z</time>
</trkpt>
<trkpt lat="59.5681156" lon="31.2096849">
<ele>42.079998</ele>
<time>2026-09-01T01:50:57.000Z</time>
</trkpt>
<trkpt lat="59.5682396" lon="31.2098706">
<ele>43.980000</ele>
<time>2026-09-01T01:51:10.000Z</time>
</trkpt>
<trkpt lat="59.5682898" lon="31.2099314">
<ele>44.490002</ele>
<time>2026-09-01T01:51:15.000Z</time>
</trkpt>
<trkpt lat="59.5684194" lon="31.2101974">
<ele>47.329998</ele>
<time>2026-09-01T01:51:30.000Z</time>
</trkpt>
<trkpt lat="59.5684627" lon="31.2102867">
<ele>48.520000</ele>
<time>2026-09-01T01:51:35.000Z</time>
</trkpt>
<trkpt lat="59.5685121" lon="31.2103893">
<ele>49.800003</ele>
<time>2026-09-01T01:51:41.000Z</time>
</trkpt>
<trkpt lat="59.5686253" lon="31.2106614">
<ele>52.899998</ele>
<time>2026-09-01T01:51:57.000Z</time>
</trkpt>
<trkpt lat="59.5686984" lon="31.2107551">
<ele>53.840000</ele>
<time>2026-09-01T01:52:04.000Z</time>
</trkpt>
<trkpt lat="59.5688572" lon="31.2109166">
<ele>53.770000</ele>
<time>2026-09-01T01:52:19.000Z</time>
</trkpt>
<trkpt lat="59.5689772" lon="31.2110642">
<ele>51.970001</ele>
<time>2026-09-01T01:52:31.000Z</time>
</trkpt>
<trkpt lat="59.5691920" lon="31.2113584">
<ele>50.280003</ele>
<time>2026-09-01T01:52:50.000Z</time>
</trkpt>
<trkpt lat="59.5693447" lon="31.2116283">
<ele>48.339996</ele>
<time>2026-09-01T01:53:06.000Z</time>
</trkpt>
<trkpt lat="59.5693555" lon="31.2116467">
<ele>48.299999</ele>
<time>2026-09-01T01:53:07.000Z</time>
</trkpt>
<trkpt lat="59.5693729" lon="31.2116841">
<ele>48.029999</ele>
<time>2026-09-01T01:53:09.000Z</time>
</trkpt>
<trkpt lat="59.5694458" lon="31.2119135">
<ele>44.720001</ele>
<time>2026-09-01T01:53:24.000Z</time>
</trkpt>
<trkpt lat="59.5695977" lon="31.2123007">
<ele>48.470001</ele>
<time>2026-09-01T01:53:41.000Z</time>
</trkpt>
<trkpt lat="59.5697092" lon="31.2126526">
<ele>50.889999</ele>
<time>2026-09-01T01:53:58.000Z</time>
</trkpt>
<trkpt lat="59.5698066" lon="31.2128289">
<ele>50.940002</ele>
<time>2026-09-01T01:54:11.000Z</time>
</trkpt>
<trkpt lat="59.5699802" lon="31.2129978">
<ele>49.440002</ele>
<time>2026-09-01T01:54:30.000Z</time>
</trkpt>
<trkpt lat="59.5702264" lon="31.2130760">
<ele>46.220001</ele>
<time>2026-09-01T01:54:51.000Z</time>
</trkpt>
<trkpt lat="59.5703407" lon="31.2130241">
<ele>44.910000</ele>
<time>2026-09-01T01:55:07.000Z</time>
</trkpt>
<trkpt lat="59.5705025" lon="31.2130259">
<ele>45.460003</ele>
<time>2026-09-01T01:55:22.000Z</time>
</trkpt>
<trkpt lat="59.5706182" lon="31.2130341">
<ele>45.630001</ele>
<time>2026-09-01T01:55:31.000Z</time>
</trkpt>
<trkpt lat="59.5707798" lon="31.2129616">
<ele>45.570000</ele>
<time>2026-09-01T01:55:50.000Z</time>
</trkpt>
<trkpt lat="59.5709074" lon="31.2128780">
<ele>45.780003</ele>
<time>2026-09-01T01:55:59.000Z</time>
</trkpt>
<trkpt lat="59.5711609" lon="31.2127055">
<ele>52.860001</ele>
<time>2026-09-01T01:56:19.000Z</time>
</trkpt>
<trkpt lat="59.5712974" lon="31.2125923">
<ele>53.509998</ele>
<time>2026-09-01T01:56:35.000Z</time>
</trkpt>
<trkpt lat="59.5714494" lon="31.2124956">
<ele>54.349998</ele>
<time>2026-09-01T01:56:47.000Z</time>
</trkpt>
<trkpt lat="59.5715181" lon="31.2125179">
<ele>55.400002</ele>
<time>2026-09-01T01:56:52.000Z</time>
</trkpt>
<trkpt lat="59.5717448" lon="31.2125229">
<ele>55.440002</ele>
<time>2026-09-01T01:57:10.000Z</time>
</trkpt>
<trkpt lat="59.5719528" lon="31.2124289">
<ele>54.410000</ele>
<time>2026-09-01T01:57:25.000Z</time>
</trkpt>
<trkpt lat="59.5720397" lon="31.2123768">
<ele>53.780003</ele>
<time>2026-09-01T01:57:32.000Z</time>
</trkpt>
<trkpt lat="59.5721549" lon="31.2122289">
<ele>51.980000</ele>
<time>2026-09-01T01:57:44.000Z</time>
</trkpt>
<trkpt lat="59.5723423" lon="31.2118715">
<ele>52.059998</ele>
<time>2026-09-01T01:58:03.000Z</time>
</trkpt>
<trkpt lat="59.5724081" lon="31.2117548">
<ele>50.430000</ele>
<time>2026-09-01T01:58:10.000Z</time>
</trkpt>
<trkpt lat="59.5725344" lon="31.2115431">
<ele>45.209999</ele>
<time>2026-09-01T01:58:25.000Z</time>
</trkpt>
<trkpt lat="59.5726118" lon="31.2114288">
<ele>42.169998</ele>
<time>2026-09-01T01:58:34.000Z</time>
</trkpt>
<trkpt lat="59.5727450" lon="31.2112302">
<ele>38.130001</ele>
<time>2026-09-01T01:58:48.000Z</time>
</trkpt>
<trkpt lat="59.5728070" lon="31.2111613">
<ele>38.040001</ele>
<time>2026-09-01T01:58:54.000Z</time>
</trkpt>
<trkpt lat="59.5729626" lon="31.2108016">
<ele>40.890003</ele>
<time>2026-09-01T01:59:13.000Z</time>
</trkpt>
<trkpt lat="59.5731492" lon="31.2105461">
<ele>43.769997</ele>
<time>2026-09-01T01:59:32.000Z</time>
</trkpt>
<trkpt lat="59.5733513" lon="31.2102687">
<ele>48.670002</ele>
<time>2026-09-01T01:59:52.000Z</time>
</trkpt>
<trkpt lat="59.5735263" lon="31.2098845">
<ele>52.459999</ele>
<time>2026-09-01T02:00:13.000Z</time>
</trkpt>
<trkpt lat="59.5737468" lon="31.2095974">
<ele>56.930000</ele>
<time>2026-09-01T02:00:35.000Z</time>
</trkpt>
<trkpt lat="59.5739650" lon="31.2094695">
<ele>59.669998</ele>
<time>2026-09-01T02:00:55.000Z</time>
</trkpt>
<trkpt lat="59.5742164" lon="31.2093765">
<ele>61.149998</ele>
<time>2026-09-01T02:01:16.000Z</time>
</trkpt>
<trkpt lat="59.5744018" lon="31.2092214">
<ele>62.920002</ele>
<time>2026-09-01T02:01:33.000Z</time>
</trkpt>
<trkpt lat="59.5744096" lon="31.2091999">
<ele>62.930000</ele>
<time>2026-09-01T02:01:56.000Z</time>
</trkpt>
<trkpt lat="59.5745474" lon="31.2091002">
<ele>64.650002</ele>
<time>2026-09-01T02:02:15.000Z</time>
</trkpt>
<trkpt lat="59.5747743" lon="31.2088992">
<ele>64.690002</ele>
<time>2026-09-01T02:02:35.000Z</time>
</trkpt>
<trkpt lat="59.5748055" lon="31.2088636">
<ele>63.900002</ele>
<time>2026-09-01T02:02:39.000Z</time>
</trkpt>
<trkpt lat="59.5749909" lon="31.2087855">
<ele>62.830002</ele>
<time>2026-09-01T02:02:56.000Z</time>
</trkpt>
<trkpt lat="59.5751550" lon="31.2087901">
<ele>62.509998</ele>
<time>2026-09-01T02:03:10.000Z</time>
</trkpt>
<trkpt lat="59.5754491" lon="31.2089070">
<ele>64.720001</ele>
<time>2026-09-01T02:03:34.000Z</time>
</trkpt>
<trkpt lat="59.5756158" lon="31.2090634">
<ele>62.980003</ele>
<time>2026-09-01T02:03:49.000Z</time>
</trkpt>
<trkpt lat="59.5758300" lon="31.2091346">
<ele>63.250000</ele>
<time>2026-09-01T02:04:07.000Z</time>
</trkpt>
<trkpt lat="59.5760264" lon="31.2091558">
<ele>63.690002</ele>
<time>2026-09-01T02:04:23.000Z</time>
</trkpt>
<trkpt lat="59.5762372" lon="31.2091755">
<ele>64.010002</ele>
<time>2026-09-01T02:04:39.000Z</time>
</trkpt>
<trkpt lat="59.5764908" lon="31.2091146">
<ele>63.540001</ele>
<time>2026-09-01T02:04:59.000Z</time>
</trkpt>
<trkpt lat="59.5766123" lon="31.2090721">
<ele>60.260002</ele>
<time>2026-09-01T02:05:13.000Z</time>
</trkpt>
<trkpt lat="59.5767828" lon="31.2089551">
<ele>57.719997</ele>
<time>2026-09-01T02:05:30.000Z</time>
</trkpt>
<trkpt lat="59.5768543" lon="31.2089073">
<ele>57.040001</ele>
<time>2026-09-01T02:05:36.000Z</time>
</trkpt>
<trkpt lat="59.5770448" lon="31.2088277">
<ele>56.639999</ele>
<time>2026-09-01T02:05:52.000Z</time>
</trkpt>
<trkpt lat="59.5771780" lon="31.2087237">
<ele>56.559998</ele>
<time>2026-09-01T02:06:03.000Z</time>
</trkpt>
<trkpt lat="59.5772740" lon="31.2085673">
<ele>57.290001</ele>
<time>2026-09-01T02:06:13.000Z</time>
</trkpt>
<trkpt lat="59.5774103" lon="31.2084138">
<ele>58.529999</ele>
<time>2026-09-01T02:06:25.000Z</time>
</trkpt>
<trkpt lat="59.5774412" lon="31.2083877">
<ele>58.689999</ele>
<time>2026-09-01T02:06:28.000Z</time>
</trkpt>
<trkpt lat="59.5776234" lon="31.2084226">
<ele>58.160000</ele>
<time>2026-09-01T02:06:45.000Z</time>
</trkpt>
<trkpt lat="59.5777976" lon="31.2085422">
<ele>57.820000</ele>
<time>2026-09-01T02:07:00.000Z</time>
</trkpt>
<trkpt lat="59.5779763" lon="31.2086693">
<ele>57.849998</ele>
<time>2026-09-01T02:07:16.000Z</time>
</trkpt>
<trkpt lat="59.5781154" lon="31.2087892">
<ele>56.320000</ele>
<time>2026-09-01T02:07:29.000Z</time>
</trkpt>
<trkpt lat="59.5781842" lon="31.2088549">
<ele>55.389999</ele>
<time>2026-09-01T02:07:36.000Z</time>
</trkpt>
<trkpt lat="59.5783105" lon="31.2090465">
<ele>57.020000</ele>
<time>2026-09-01T02:07:55.000Z</time>
</trkpt>
<trkpt lat="59.5783832" lon="31.2090744">
<ele>55.509998</ele>
<time>2026-09-01T02:08:06.000Z</time>
</trkpt>
<trkpt lat="59.5784752" lon="31.2090240">
<ele>55.739998</ele>
<time>2026-09-01T02:08:13.000Z</time>
</trkpt>
<trkpt lat="59.5786609" lon="31.2088107">
<ele>57.169998</ele>
<time>2026-09-01T02:08:30.000Z</time>
</trkpt>
<trkpt lat="59.5787563" lon="31.2087641">
<ele>56.119999</ele>
<time>2026-09-01T02:08:41.000Z</time>
</trkpt>
<trkpt lat="59.5788472" lon="31.2086780">
<ele>55.269997</ele>
<time>2026-09-01T02:08:53.000Z</time>
</trkpt>
<trkpt lat="59.5790358" lon="31.2085041">
<ele>54.910004</ele>
<time>2026-09-01T02:09:11.000Z</time>
</trkpt>
<trkpt lat="59.5791986" lon="31.2083288">
<ele>54.779999</ele>
<time>2026-09-01T02:09:26.000Z</time>
</trkpt>
<trkpt lat="59.5793119" lon="31.2081845">
<ele>53.760002</ele>
<time>2026-09-01T02:09:38.000Z</time>
</trkpt>
<trkpt lat="59.5794706" lon="31.2080494">
<ele>53.990002</ele>
<time>2026-09-01T02:09:53.000Z</time>
</trkpt>
<trkpt lat="59.5797404" lon="31.2077944">
<ele>59.250004</ele>
<time>2026-09-01T02:10:14.000Z</time>
</trkpt>
<trkpt lat="59.5799959" lon="31.2075193">
<ele>60.459999</ele>
<time>2026-09-01T02:10:38.000Z</time>
</trkpt>
<trkpt lat="59.5802110" lon="31.2072437">
<ele>63.110001</ele>
<time>2026-09-01T02:10:58.000Z</time>
</trkpt>
<trkpt lat="59.5803921" lon="31.2067959">
<ele>61.020000</ele>
<time>2026-09-01T02:11:22.000Z</time>
</trkpt>
<trkpt lat="59.5805969" lon="31.2065620">
<ele>61.180000</ele>
<time>2026-09-01T02:11:42.000Z</time>
</trkpt>
<trkpt lat="59.5808325" lon="31.2063009">
<ele>64.000000</ele>
<time>2026-09-01T02:12:05.000Z</time>
</trkpt>
<trkpt lat="59.5810950" lon="31.2061658">
<ele>65.259995</ele>
<time>2026-09-01T02:12:29.000Z</time>
</trkpt>
<trkpt lat="59.5813506" lon="31.2059589">
<ele>65.430000</ele>
<time>2026-09-01T02:12:52.000Z</time>
</trkpt>
<trkpt lat="59.5815997" lon="31.2056942">
<ele>65.580002</ele>
<time>2026-09-01T02:13:15.000Z</time>
</trkpt>
<trkpt lat="59.5818044" lon="31.2054255">
<ele>64.849998</ele>
<time>2026-09-01T02:13:36.000Z</time>
</trkpt>
<trkpt lat="59.5819752" lon="31.2049959">
<ele>62.489998</ele>
<time>2026-09-01T02:13:59.000Z</time>
</trkpt>
<trkpt lat="59.5822377" lon="31.2046871">
<ele>64.650002</ele>
<time>2026-09-01T02:14:25.000Z</time>
</trkpt>
<trkpt lat="59.5824253" lon="31.2044826">
<ele>64.459999</ele>
<time>2026-09-01T02:14:44.000Z</time>
</trkpt>
<trkpt lat="59.5826224" lon="31.2042832">
<ele>64.580002</ele>
<time>2026-09-01T02:15:02.000Z</time>
</trkpt>
<trkpt lat="59.5827916" lon="31.2040599">
<ele>63.750000</ele>
<time>2026-09-01T02:15:18.000Z</time>
</trkpt>
<trkpt lat="59.5829594" lon="31.2038210">
<ele>62.779999</ele>
<time>2026-09-01T02:15:34.000Z</time>
</trkpt>
<trkpt lat="59.5831069" lon="31.2036031">
<ele>62.230003</ele>
<time>2026-09-01T02:15:50.000Z</time>
</trkpt>
<trkpt lat="59.5832191" lon="31.2034336">
<ele>62.790001</ele>
<time>2026-09-01T02:16:01.000Z</time>
</trkpt>
<trkpt lat="59.5832765" lon="31.2033533">
<ele>62.519997</ele>
<time>2026-09-01T02:16:07.000Z</time>
</trkpt>
<trkpt lat="59.5833282" lon="31.2032962">
<ele>62.289997</ele>
<time>2026-09-01T02:16:12.000Z</time>
</trkpt>
<trkpt lat="59.5834790" lon="31.2032306">
<ele>60.110001</ele>
<time>2026-09-01T02:16:27.000Z</time>
</trkpt>
<trkpt lat="59.5836066" lon="31.2031024">
<ele>63.690002</ele>
<time>2026-09-01T02:16:41.000Z</time>
</trkpt>
<trkpt lat="59.5837197" lon="31.2033511">
<ele>64.980003</ele>
<time>2026-09-01T02:17:01.000Z</time>
</trkpt>
<trkpt lat="59.5837286" lon="31.2034349">
<ele>65.459999</ele>
<time>2026-09-01T02:17:20.000Z</time>
</trkpt>
<trkpt lat="59.5836972" lon="31.2034305">
<ele>66.360001</ele>
<time>2026-09-01T02:17:42.000Z</time>
</trkpt>
<trkpt lat="59.5837000" lon="31.2033762">
<ele>68.389999</ele>
<time>2026-09-01T02:18:03.000Z</time>
</trkpt>
<trkpt lat="59.5836950" lon="31.2033772">
<ele>68.610001</ele>
<time>2026-09-01T02:18:36.000Z</time>
</trkpt>
<trkpt lat="59.5837004" lon="31.2033844">
<ele>68.139999</ele>
<time>2026-09-01T02:19:02.000Z</time>
</trkpt>
<trkpt lat="59.5837121" lon="31.2033857">
<ele>69.540001</ele>
<time>2026-09-01T02:19:27.000Z</time>
</trkpt>
<trkpt lat="59.5836945" lon="31.2033653">
<ele>71.139999</ele>
<time>2026-09-01T02:19:54.000Z</time>
</trkpt>
<trkpt lat="59.5836976" lon="31.2034093">
<ele>72.479996</ele>
<time>2026-09-01T02:20:30.000Z</time>
</trkpt>
<trkpt lat="59.5837074" lon="31.2034114">
<ele>73.309998</ele>
<time>2026-09-01T02:20:57.000Z</time>
</trkpt>
<trkpt lat="59.5837331" lon="31.2033767">
<ele>72.980003</ele>
<time>2026-09-01T02:21:29.000Z</time>
</trkpt>
<trkpt lat="59.5837235" lon="31.2034376">
<ele>73.110001</ele>
<time>2026-09-01T02:21:46.000Z</time>
</trkpt>
<trkpt lat="59.5837252" lon="31.2034222">
<ele>72.660004</ele>
<time>2026-09-01T02:22:16.000Z</time>
</trkpt>
<trkpt lat="59.5837308" lon="31.2033580">
<ele>72.750000</ele>
<time>2026-09-01T02:22:48.000Z</time>
</trkpt>
<trkpt lat="59.5837036" lon="31.2034227">
<ele>71.400002</ele>
<time>2026-09-01T02:23:18.000Z</time>
</trkpt>
<trkpt lat="59.5836861" lon="31.2034479">
<ele>70.300003</ele>
<time>2026-09-01T02:23:45.000Z</time>
</trkpt>
<trkpt lat="59.5836888" lon="31.2034153">
<ele>71.360001</ele>
<time>2026-09-01T02:24:14.000Z</time>
</trkpt>
<trkpt lat="59.5837623" lon="31.2034849">
<ele>71.820000</ele>
<time>2026-09-01T02:24:34.000Z</time>
</trkpt>
<trkpt lat="59.5837868" lon="31.2034307">
<ele>71.910004</ele>
<time>2026-09-01T02:24:39.000Z</time>
</trkpt>
<trkpt lat="59.5838830" lon="31.2032833">
<ele>71.919998</ele>
<time>2026-09-01T02:24:48.000Z</time>
</trkpt>
<trkpt lat="59.5839832" lon="31.2032294">
<ele>71.199997</ele>
<time>2026-09-01T02:24:55.000Z</time>
</trkpt>
<trkpt lat="59.5840460" lon="31.2031451">
<ele>71.060005</ele>
<time>2026-09-01T02:25:06.000Z</time>
</trkpt>
<trkpt lat="59.5842739" lon="31.2030785">
<ele>69.339996</ele>
<time>2026-09-01T02:25:34.000Z</time>
</trkpt>
<trkpt lat="59.5846683" lon="31.2025803">
<ele>68.459999</ele>
<time>2026-09-01T02:25:46.000Z</time>
</trkpt>
<trkpt lat="59.5847756" lon="31.2023945">
<ele>68.029999</ele>
<time>2026-09-01T02:25:52.000Z</time>
</trkpt>
<trkpt lat="59.5846867" lon="31.2021287">
<ele>67.000000</ele>
<time>2026-09-01T02:25:56.000Z</time>
</trkpt>
<trkpt lat="59.5841054" lon="31.2009574">
<ele>62.980003</ele>
<time>2026-09-01T02:26:05.000Z</time>
</trkpt>
<trkpt lat="59.5830794" lon="31.1988763">
<ele>57.540001</ele>
<time>2026-09-01T02:26:15.000Z</time>
</trkpt>
<trkpt lat="59.5814213" lon="31.1955190">
<ele>49.730003</ele>
<time>2026-09-01T02:26:29.000Z</time>
</trkpt>
<trkpt lat="59.5801435" lon="31.1922793">
<ele>45.279999</ele>
<time>2026-09-01T02:26:42.000Z</time>
</trkpt>
<trkpt lat="59.5792331" lon="31.1879315">
<ele>49.549999</ele>
<time>2026-09-01T02:26:56.000Z</time>
</trkpt>
<trkpt lat="59.5787997" lon="31.1842476">
<ele>48.109997</ele>
<time>2026-09-01T02:27:07.000Z</time>
</trkpt>
<trkpt lat="59.5788950" lon="31.1810583">
<ele>44.639999</ele>
<time>2026-09-01T02:27:16.000Z</time>
</trkpt>
<trkpt lat="59.5793127" lon="31.1767031">
<ele>41.459999</ele>
<time>2026-09-01T02:27:28.000Z</time>
</trkpt>
<trkpt lat="59.5798467" lon="31.1714455">
<ele>41.209999</ele>
<time>2026-09-01T02:27:42.000Z</time>
</trkpt>
<trkpt lat="59.5798172" lon="31.1687587">
<ele>43.350002</ele>
<time>2026-09-01T02:27:49.000Z</time>
</trkpt>
<trkpt lat="59.5791664" lon="31.1634914">
<ele>42.580002</ele>
<time>2026-09-01T02:28:02.000Z</time>
</trkpt>
<trkpt lat="59.5784464" lon="31.1579275">
<ele>43.020000</ele>
<time>2026-09-01T02:28:15.000Z</time>
</trkpt>
<trkpt lat="59.5776548" lon="31.1515227">
<ele>42.180000</ele>
<time>2026-09-01T02:28:29.000Z</time>
</trkpt>
<trkpt lat="59.5766592" lon="31.1433593">
<ele>43.880001</ele>
<time>2026-09-01T02:28:46.000Z</time>
</trkpt>
<trkpt lat="59.5756091" lon="31.1349777">
<ele>43.130001</ele>
<time>2026-09-01T02:29:03.000Z</time>
</trkpt>
<trkpt lat="59.5745882" lon="31.1269307">
<ele>43.290001</ele>
<time>2026-09-01T02:29:19.000Z</time>
</trkpt>
<trkpt lat="59.5736751" lon="31.1198237">
<ele>48.629997</ele>
<time>2026-09-01T02:29:33.000Z</time>
</trkpt>
<trkpt lat="59.5726354" lon="31.1116599">
<ele>47.370003</ele>
<time>2026-09-01T02:29:49.000Z</time>
</trkpt>
<trkpt lat="59.5718178" lon="31.1050187">
<ele>46.300003</ele>
<time>2026-09-01T02:30:02.000Z</time>
</trkpt>
<trkpt lat="59.5709500" lon="31.0979649">
<ele>47.610001</ele>
<time>2026-09-01T02:30:16.000Z</time>
</trkpt>
<trkpt lat="59.5699651" lon="31.0900595">
<ele>48.680000</ele>
<time>2026-09-01T02:30:32.000Z</time>
</trkpt>
<trkpt lat="59.5690342" lon="31.0826113">
<ele>49.239998</ele>
<time>2026-09-01T02:30:47.000Z</time>
</trkpt>
<trkpt lat="59.5679572" lon="31.0739762">
<ele>48.350002</ele>
<time>2026-09-01T02:31:04.000Z</time>
</trkpt>
<trkpt lat="59.5670617" lon="31.0667172">
<ele>58.320000</ele>
<time>2026-09-01T02:31:18.000Z</time>
</trkpt>
<trkpt lat="59.5661155" lon="31.0590448">
<ele>62.620003</ele>
<time>2026-09-01T02:31:33.000Z</time>
</trkpt>
<trkpt lat="59.5652671" lon="31.0521329">
<ele>51.899998</ele>
<time>2026-09-01T02:31:46.000Z</time>
</trkpt>
<trkpt lat="59.5644649" lon="31.0459289">
<ele>45.829998</ele>
<time>2026-09-01T02:31:57.000Z</time>
</trkpt>
<trkpt lat="59.5638039" lon="31.0406268">
<ele>48.150002</ele>
<time>2026-09-01T02:32:08.000Z</time>
</trkpt>
<trkpt lat="59.5632966" lon="31.0366055">
<ele>51.089996</ele>
<time>2026-09-01T02:32:18.000Z</time>
</trkpt>
<trkpt lat="59.5630649" lon="31.0347894">
<ele>52.400002</ele>
<time>2026-09-01T02:32:25.000Z</time>
</trkpt>
<trkpt lat="59.5630195" lon="31.0344725">
<ele>55.060001</ele>
<time>2026-09-01T02:32:30.000Z</time>
</trkpt>
<trkpt lat="59.5629440" lon="31.0337387">
<ele>56.590000</ele>
<time>2026-09-01T02:32:37.000Z</time>
</trkpt>
<trkpt lat="59.5627162" lon="31.0318819">
<ele>55.000000</ele>
<time>2026-09-01T02:32:45.000Z</time>
</trkpt>
<trkpt lat="59.5623274" lon="31.0286572">
<ele>52.299999</ele>
<time>2026-09-01T02:32:55.000Z</time>
</trkpt>
<trkpt lat="59.5618511" lon="31.0248777">
<ele>49.399998</ele>
<time>2026-09-01T02:33:07.000Z</time>
</trkpt>
<trkpt lat="59.5613349" lon="31.0210367">
<ele>47.049999</ele>
<time>2026-09-01T02:33:22.000Z</time>
</trkpt>
<trkpt lat="59.5612124" lon="31.0200690">
<ele>47.959999</ele>
<time>2026-09-01T02:33:27.000Z</time>
</trkpt>
<trkpt lat="59.5610134" lon="31.0192304">
<ele>48.119999</ele>
<time>2026-09-01T02:33:31.000Z</time>
</trkpt>
<trkpt lat="59.5600059" lon="31.0165501">
<ele>45.790001</ele>
<time>2026-09-01T02:33:44.000Z</time>
</trkpt>
<trkpt lat="59.5592060" lon="31.0144757">
<ele>48.610001</ele>
<time>2026-09-01T02:33:54.000Z</time>
</trkpt>
<trkpt lat="59.5589867" lon="31.0130027">
<ele>51.500000</ele>
<time>2026-09-01T02:34:01.000Z</time>
</trkpt>
<trkpt lat="59.5591454" lon="31.0096150">
<ele>53.289997</ele>
<time>2026-09-01T02:34:15.000Z</time>
</trkpt>
<trkpt lat="59.5590788" lon="31.0056853">
<ele>46.579998</ele>
<time>2026-09-01T02:34:28.000Z</time>
</trkpt>
<trkpt lat="59.5589468" lon="31.0007172">
<ele>45.029999</ele>
<time>2026-09-01T02:34:42.000Z</time>
</trkpt>
<trkpt lat="59.5588238" lon="30.9946625">
<ele>38.889999</ele>
<time>2026-09-01T02:34:58.000Z</time>
</trkpt>
<trkpt lat="59.5587161" lon="30.9888050">
<ele>33.239998</ele>
<time>2026-09-01T02:35:12.000Z</time>
</trkpt>
<trkpt lat="59.5585543" lon="30.9828931">
<ele>29.680000</ele>
<time>2026-09-01T02:35:26.000Z</time>
</trkpt>
<trkpt lat="59.5584205" lon="30.9775398">
<ele>25.769999</ele>
<time>2026-09-01T02:35:39.000Z</time>
</trkpt>
<trkpt lat="59.5582606" lon="30.9720180">
<ele>21.580000</ele>
<time>2026-09-01T02:35:52.000Z</time>
</trkpt>
<trkpt lat="59.5581706" lon="30.9655469">
<ele>18.040001</ele>
<time>2026-09-01T02:36:07.000Z</time>
</trkpt>
<trkpt lat="59.5579203" lon="30.9592577">
<ele>14.559999</ele>
<time>2026-09-01T02:36:22.000Z</time>
</trkpt>
<trkpt lat="59.5577416" lon="30.9533716">
<ele>9.740001</ele>
<time>2026-09-01T02:36:36.000Z</time>
</trkpt>
<trkpt lat="59.5576455" lon="30.9478261">
<ele>6.670000</ele>
<time>2026-09-01T02:36:49.000Z</time>
</trkpt>
<trkpt lat="59.5577023" lon="30.9424750">
<ele>2.200000</ele>
<time>2026-09-01T02:37:01.000Z</time>
</trkpt>
<trkpt lat="59.5581927" lon="30.9363617">
<ele>-2.580000</ele>
<time>2026-09-01T02:37:15.000Z</time>
</trkpt>
<trkpt lat="59.5587028" lon="30.9308390">
<ele>-4.270000</ele>
<time>2026-09-01T02:37:28.000Z</time>
</trkpt>
<trkpt lat="59.5592729" lon="30.9244055">
<ele>-5.760000</ele>
<time>2026-09-01T02:37:43.000Z</time>
</trkpt>
<trkpt lat="59.5597446" lon="30.9193642">
<ele>-6.160000</ele>
<time>2026-09-01T02:37:56.000Z</time>
</trkpt>
<trkpt lat="59.5601923" lon="30.9152580">
<ele>-3.560000</ele>
<time>2026-09-01T02:38:08.000Z</time>
</trkpt>
<trkpt lat="59.5603407" lon="30.9130154">
<ele>-2.930000</ele>
<time>2026-09-01T02:38:15.000Z</time>
</trkpt>
<trkpt lat="59.5600446" lon="30.9100724">
<ele>-0.140000</ele>
<time>2026-09-01T02:38:24.000Z</time>
</trkpt>
<trkpt lat="59.5593224" lon="30.9074154">
<ele>3.950000</ele>
<time>2026-09-01T02:38:33.000Z</time>
</trkpt>
<trkpt lat="59.5581174" lon="30.9037451">
<ele>11.460000</ele>
<time>2026-09-01T02:38:48.000Z</time>
</trkpt>
<trkpt lat="59.5571450" lon="30.9007680">
<ele>14.950000</ele>
<time>2026-09-01T02:39:01.000Z</time>
</trkpt>
<trkpt lat="59.5560577" lon="30.8974634">
<ele>16.260000</ele>
<time>2026-09-01T02:39:15.000Z</time>
</trkpt>
<trkpt lat="59.5545644" lon="30.8928894">
<ele>25.470001</ele>
<time>2026-09-01T02:39:32.000Z</time>
</trkpt>
<trkpt lat="59.5532888" lon="30.8889642">
<ele>28.240000</ele>
<time>2026-09-01T02:39:46.000Z</time>
</trkpt>
<trkpt lat="59.5519165" lon="30.8847196">
<ele>29.530001</ele>
<time>2026-09-01T02:40:02.000Z</time>
</trkpt>
<trkpt lat="59.5507299" lon="30.8812742">
<ele>27.820000</ele>
<time>2026-09-01T02:40:15.000Z</time>
</trkpt>
<trkpt lat="59.5490877" lon="30.8777120">
<ele>25.219999</ele>
<time>2026-09-01T02:40:30.000Z</time>
</trkpt>
<trkpt lat="59.5474377" lon="30.8740612">
<ele>22.730001</ele>
<time>2026-09-01T02:40:47.000Z</time>
</trkpt>
<trkpt lat="59.5460647" lon="30.8714327">
<ele>20.580000</ele>
<time>2026-09-01T02:41:05.000Z</time>
</trkpt>
<trkpt lat="59.5455469" lon="30.8702353">
<ele>18.900000</ele>
<time>2026-09-01T02:41:14.000Z</time>
</trkpt>
<trkpt lat="59.5454933" lon="30.8701775">
<ele>16.750000</ele>
<time>2026-09-01T02:41:22.000Z</time>
</trkpt>
<trkpt lat="59.5455222" lon="30.8702061">
<ele>16.150000</ele>
<time>2026-09-01T02:42:17.000Z</time>
</trkpt>
<trkpt lat="59.5453266" lon="30.8698734">
<ele>16.350000</ele>
<time>2026-09-01T02:42:26.000Z</time>
</trkpt>
<trkpt lat="59.5452615" lon="30.8698345">
<ele>16.170000</ele>
<time>2026-09-01T02:42:33.000Z</time>
</trkpt>
<trkpt lat="59.5450554" lon="30.8698352">
<ele>16.219999</ele>
<time>2026-09-01T02:42:37.000Z</time>
</trkpt>
<trkpt lat="59.5443123" lon="30.8710622">
<ele>16.619999</ele>
<time>2026-09-01T02:42:46.000Z</time>
</trkpt>
<trkpt lat="59.5429032" lon="30.8734741">
<ele>24.190001</ele>
<time>2026-09-01T02:42:58.000Z</time>
</trkpt>
<trkpt lat="59.5413764" lon="30.8762831">
<ele>31.809999</ele>
<time>2026-09-01T02:43:13.000Z</time>
</trkpt>
<trkpt lat="59.5408397" lon="30.8772576">
<ele>32.900002</ele>
<time>2026-09-01T02:43:21.000Z</time>
</trkpt>
<trkpt lat="59.5400885" lon="30.8786382">
<ele>33.680000</ele>
<time>2026-09-01T02:43:29.000Z</time>
</trkpt>
<trkpt lat="59.5388352" lon="30.8809120">
<ele>33.079998</ele>
<time>2026-09-01T02:43:40.000Z</time>
</trkpt>
<trkpt lat="59.5372482" lon="30.8838266">
<ele>30.280001</ele>
<time>2026-09-01T02:43:52.000Z</time>
</trkpt>
<trkpt lat="59.5351378" lon="30.8877495">
<ele>30.230000</ele>
<time>2026-09-01T02:44:07.000Z</time>
</trkpt>
<trkpt lat="59.5335268" lon="30.8906553">
<ele>30.990000</ele>
<time>2026-09-01T02:44:19.000Z</time>
</trkpt>
<trkpt lat="59.5316156" lon="30.8941506">
<ele>30.750000</ele>
<time>2026-09-01T02:44:33.000Z</time>
</trkpt>
<trkpt lat="59.5295326" lon="30.8980325">
<ele>30.940001</ele>
<time>2026-09-01T02:44:48.000Z</time>
</trkpt>
<trkpt lat="59.5276365" lon="30.9015766">
<ele>27.700001</ele>
<time>2026-09-01T02:45:02.000Z</time>
</trkpt>
<trkpt lat="59.5255805" lon="30.9054692">
<ele>31.280001</ele>
<time>2026-09-01T02:45:17.000Z</time>
</trkpt>
<trkpt lat="59.5236591" lon="30.9090461">
<ele>31.259998</ele>
<time>2026-09-01T02:45:30.000Z</time>
</trkpt>
<trkpt lat="59.5213589" lon="30.9133672">
<ele>31.880001</ele>
<time>2026-09-01T02:45:44.000Z</time>
</trkpt>
<trkpt lat="59.5191998" lon="30.9173759">
<ele>32.370003</ele>
<time>2026-09-01T02:45:56.000Z</time>
</trkpt>
<trkpt lat="59.5165148" lon="30.9223152">
<ele>28.680000</ele>
<time>2026-09-01T02:46:10.000Z</time>
</trkpt>
<trkpt lat="59.5136093" lon="30.9277161">
<ele>32.430000</ele>
<time>2026-09-01T02:46:25.000Z</time>
</trkpt>
<trkpt lat="59.5109035" lon="30.9326830">
<ele>28.940001</ele>
<time>2026-09-01T02:46:39.000Z</time>
</trkpt>
<trkpt lat="59.5082049" lon="30.9375385">
<ele>34.350002</ele>
<time>2026-09-01T02:46:53.000Z</time>
</trkpt>
<trkpt lat="59.5055720" lon="30.9423469">
<ele>40.879997</ele>
<time>2026-09-01T02:47:07.000Z</time>
</trkpt>
<trkpt lat="59.5028034" lon="30.9473456">
<ele>43.810001</ele>
<time>2026-09-01T02:47:22.000Z</time>
</trkpt>
<trkpt lat="59.5005781" lon="30.9513314">
<ele>38.000000</ele>
<time>2026-09-01T02:47:34.000Z</time>
</trkpt>
<trkpt lat="59.4982257" lon="30.9554130">
<ele>43.030003</ele>
<time>2026-09-01T02:47:47.000Z</time>
</trkpt>
<trkpt lat="59.4966551" lon="30.9571716">
<ele>37.700001</ele>
<time>2026-09-01T02:47:55.000Z</time>
</trkpt>
<trkpt lat="59.4936959" lon="30.9600279">
<ele>47.610001</ele>
<time>2026-09-01T02:48:09.000Z</time>
</trkpt>
<trkpt lat="59.4912364" lon="30.9625326">
<ele>52.869999</ele>
<time>2026-09-01T02:48:21.000Z</time>
</trkpt>
<trkpt lat="59.4901880" lon="30.9646692">
<ele>52.579998</ele>
<time>2026-09-01T02:48:28.000Z</time>
</trkpt>
<trkpt lat="59.4895860" lon="30.9683130">
<ele>49.480000</ele>
<time>2026-09-01T02:48:37.000Z</time>
</trkpt>
<trkpt lat="59.4888470" lon="30.9717415">
<ele>51.119999</ele>
<time>2026-09-01T02:48:46.000Z</time>
</trkpt>
<trkpt lat="59.4877058" lon="30.9744830">
<ele>50.200001</ele>
<time>2026-09-01T02:48:55.000Z</time>
</trkpt>
<trkpt lat="59.4868244" lon="30.9761081">
<ele>51.190002</ele>
<time>2026-09-01T02:49:02.000Z</time>
</trkpt>
<trkpt lat="59.4854275" lon="30.9786130">
<ele>52.860001</ele>
<time>2026-09-01T02:49:15.000Z</time>
</trkpt>
<trkpt lat="59.4836532" lon="30.9818809">
<ele>47.489998</ele>
<time>2026-09-01T02:49:30.000Z</time>
</trkpt>
<trkpt lat="59.4820521" lon="30.9848165">
<ele>48.210003</ele>
<time>2026-09-01T02:49:44.000Z</time>
</trkpt>
<trkpt lat="59.4804208" lon="30.9878024">
<ele>48.109997</ele>
<time>2026-09-01T02:49:57.000Z</time>
</trkpt>
<trkpt lat="59.4783758" lon="30.9915944">
<ele>48.549999</ele>
<time>2026-09-01T02:50:12.000Z</time>
</trkpt>
<trkpt lat="59.4765382" lon="30.9950170">
<ele>49.800003</ele>
<time>2026-09-01T02:50:26.000Z</time>
</trkpt>
<trkpt lat="59.4753799" lon="30.9971321">
<ele>48.310001</ele>
<time>2026-09-01T02:50:36.000Z</time>
</trkpt>
<trkpt lat="59.4737917" lon="31.0000526">
<ele>45.540001</ele>
<time>2026-09-01T02:50:52.000Z</time>
</trkpt>
<trkpt lat="59.4722265" lon="31.0029423">
<ele>43.720001</ele>
<time>2026-09-01T02:51:07.000Z</time>
</trkpt>
<trkpt lat="59.4708829" lon="31.0053296">
<ele>41.919998</ele>
<time>2026-09-01T02:51:18.000Z</time>
</trkpt>
<trkpt lat="59.4693167" lon="31.0083401">
<ele>43.560001</ele>
<time>2026-09-01T02:51:31.000Z</time>
</trkpt>
<trkpt lat="59.4674665" lon="31.0119055">
<ele>49.250000</ele>
<time>2026-09-01T02:51:47.000Z</time>
</trkpt>
<trkpt lat="59.4669137" lon="31.0129899">
<ele>47.199997</ele>
<time>2026-09-01T02:51:54.000Z</time>
</trkpt>
<trkpt lat="59.4674582" lon="31.0138804">
<ele>46.419998</ele>
<time>2026-09-01T02:52:02.000Z</time>
</trkpt>
<trkpt lat="59.4679354" lon="31.0147182">
<ele>46.730000</ele>
<time>2026-09-01T02:52:10.000Z</time>
</trkpt>
<trkpt lat="59.4681886" lon="31.0147226">
<ele>46.549999</ele>
<time>2026-09-01T02:52:14.000Z</time>
</trkpt>
<trkpt lat="59.4692605" lon="31.0140362">
<ele>48.520000</ele>
<time>2026-09-01T02:52:24.000Z</time>
</trkpt>
<trkpt lat="59.4709035" lon="31.0130977">
<ele>50.309998</ele>
<time>2026-09-01T02:52:35.000Z</time>
</trkpt>
<trkpt lat="59.4722837" lon="31.0123304">
<ele>52.130001</ele>
<time>2026-09-01T02:52:44.000Z</time>
</trkpt>
<trkpt lat="59.4732214" lon="31.0126299">
<ele>52.400002</ele>
<time>2026-09-01T02:52:51.000Z</time>
</trkpt>
<trkpt lat="59.4742299" lon="31.0144155">
<ele>50.369999</ele>
<time>2026-09-01T02:53:00.000Z</time>
</trkpt>
<trkpt lat="59.4756393" lon="31.0172674">
<ele>52.689999</ele>
<time>2026-09-01T02:53:13.000Z</time>
</trkpt>
<trkpt lat="59.4770253" lon="31.0200875">
<ele>50.950001</ele>
<time>2026-09-01T02:53:26.000Z</time>
</trkpt>
<trkpt lat="59.4781079" lon="31.0222731">
<ele>50.880001</ele>
<time>2026-09-01T02:53:38.000Z</time>
</trkpt>
<trkpt lat="59.4789545" lon="31.0241113">
<ele>50.329998</ele>
<time>2026-09-01T02:53:48.000Z</time>
</trkpt>
<trkpt lat="59.4792143" lon="31.0245736">
<ele>52.250000</ele>
<time>2026-09-01T02:53:52.000Z</time>
</trkpt>
<trkpt lat="59.4796699" lon="31.0241763">
<ele>52.500000</ele>
<time>2026-09-01T02:53:59.000Z</time>
</trkpt>
<trkpt lat="59.4806286" lon="31.0223527">
<ele>54.389999</ele>
<time>2026-09-01T02:54:12.000Z</time>
</trkpt>
<trkpt lat="59.4808624" lon="31.0218931">
<ele>56.269997</ele>
<time>2026-09-01T02:54:16.000Z</time>
</trkpt>
<trkpt lat="59.4810294" lon="31.0217919">
<ele>58.249996</ele>
<time>2026-09-01T02:54:22.000Z</time>
</trkpt>
<trkpt lat="59.4809157" lon="31.0216481">
<ele>55.879997</ele>
<time>2026-09-01T02:54:43.000Z</time>
</trkpt>
<trkpt lat="59.4808772" lon="31.0216308">
<ele>56.380001</ele>
<time>2026-09-01T02:55:14.000Z</time>
</trkpt>
<trkpt lat="59.4809013" lon="31.0216005">
<ele>58.520000</ele>
<time>2026-09-01T02:55:42.000Z</time>
</trkpt>
</trkseg>
<trkseg>
<trkpt lat="59.0974529" lon="31.2335171">
<ele>-29.500000</ele>
<time>2026-08-28T00:29:16.000Z</time>
</trkpt>
<trkpt lat="59.0974473" lon="31.2335170">
<ele>-29.530001</ele>
<time>2026-08-28T00:29:17.000Z</time>
</trkpt>
</trkseg>
<trkseg>
<trkpt lat="59.4810949" lon="31.0210588">
<ele>72.889999</ele>
<time>2026-08-31T19:36:01.000Z</time>
</trkpt>
<trkpt lat="59.4810618" lon="31.0209575">
<ele>68.369995</ele>
<time>2026-08-31T19:36:59.000Z</time>
</trkpt>
<trkpt lat="59.4810755" lon="31.0209870">
<ele>67.320000</ele>
<time>2026-08-31T19:37:13.000Z</time>
</trkpt>
<trkpt lat="59.4810972" lon="31.0209978">
<ele>66.239998</ele>
<time>2026-08-31T19:37:33.000Z</time>
</trkpt>
<trkpt lat="59.4811018" lon="31.0210526">
<ele>65.470001</ele>
<time>2026-08-31T19:38:07.000Z</time>
</trkpt>
<trkpt lat="59.4811162" lon="31.0210058">
<ele>64.690002</ele>
<time>2026-08-31T19:38:37.000Z</time>
</trkpt>
<trkpt lat="59.4811311" lon="31.0210449">
<ele>64.060005</ele>
<time>2026-08-31T19:39:09.000Z</time>
</trkpt>
<trkpt lat="59.4811410" lon="31.0210564">
<ele>63.320000</ele>
<time>2026-08-31T19:39:35.000Z</time>
</trkpt>
<trkpt lat="59.4811165" lon="31.0210475">
<ele>65.559998</ele>
<time>2026-08-31T19:40:06.000Z</time>
</trkpt>
<trkpt lat="59.4811103" lon="31.0210123">
<ele>64.470001</ele>
<time>2026-08-31T19:40:29.000Z</time>
</trkpt>
<trkpt lat="59.4811245" lon="31.0210131">
<ele>64.879997</ele>
<time>2026-08-31T19:40:53.000Z</time>
</trkpt>
<trkpt lat="59.4811119" lon="31.0210517">
<ele>64.599998</ele>
<time>2026-08-31T19:41:05.000Z</time>
</trkpt>
<trkpt lat="59.4810900" lon="31.0211385">
<ele>63.329998</ele>
<time>2026-08-31T19:41:14.000Z</time>
</trkpt>
<trkpt lat="59.4810746" lon="31.0211092">
<ele>63.450001</ele>
<time>2026-08-31T19:41:43.000Z</time>
</trkpt>
<trkpt lat="59.4810751" lon="31.0211195">
<ele>63.959999</ele>
<time>2026-08-31T19:42:27.000Z</time>
</trkpt>
<trkpt lat="59.4810632" lon="31.0211429">
<ele>62.779999</ele>
<time>2026-08-31T19:43:09.000Z</time>
</trkpt>
<trkpt lat="59.4810798" lon="31.0211407">
<ele>63.930000</ele>
<time>2026-08-31T19:43:41.000Z</time>
</trkpt>
<trkpt lat="59.4810799" lon="31.0211665">
<ele>61.110001</ele>
<time>2026-08-31T19:44:36.000Z</time>
</trkpt>
<trkpt lat="59.4810769" lon="31.0211611">
<ele>60.030003</ele>
<time>2026-08-31T19:44:58.000Z</time>
</trkpt>
<trkpt lat="59.4810530" lon="31.0211060">
<ele>60.070000</ele>
<time>2026-08-31T19:45:11.000Z</time>
</trkpt>
<trkpt lat="59.4811124" lon="31.0210418">
<ele>58.929996</ele>
<time>2026-08-31T19:45:25.000Z</time>
</trkpt>
<trkpt lat="59.4811331" lon="31.0210254">
<ele>58.130001</ele>
<time>2026-08-31T19:45:36.000Z</time>
</trkpt>
<trkpt lat="59.4810709" lon="31.0210818">
<ele>57.549999</ele>
<time>2026-08-31T19:45:47.000Z</time>
</trkpt>
<trkpt lat="59.4810000" lon="31.0212596">
<ele>57.700001</ele>
<time>2026-08-31T19:46:01.000Z</time>
</trkpt>
<trkpt lat="59.4809706" lon="31.0213284">
<ele>57.849998</ele>
<time>2026-08-31T19:46:06.000Z</time>
</trkpt>
<trkpt lat="59.4808731" lon="31.0215210">
<ele>57.009998</ele>
<time>2026-08-31T19:46:20.000Z</time>
</trkpt>
<trkpt lat="59.4808416" lon="31.0215316">
<ele>56.419998</ele>
<time>2026-08-31T19:46:25.000Z</time>
</trkpt>
<trkpt lat="59.4807907" lon="31.0215584">
<ele>55.279999</ele>
<time>2026-08-31T19:46:29.000Z</time>
</trkpt>
<trkpt lat="59.4807600" lon="31.0217065">
<ele>50.500000</ele>
<time>2026-08-31T19:46:40.000Z</time>
</trkpt>
<trkpt lat="59.4807616" lon="31.0216954">
<ele>50.950001</ele>
<time>2026-08-31T19:46:44.000Z</time>
</trkpt>
<trkpt lat="59.4807735" lon="31.0216763">
<ele>50.660000</ele>
<time>2026-08-31T19:46:49.000Z</time>
</trkpt>
<trkpt lat="59.4807494" lon="31.0216120">
<ele>49.919998</ele>
<time>2026-08-31T19:47:05.000Z</time>
</trkpt>
<trkpt lat="59.4807519" lon="31.0216371">
<ele>49.980000</ele>
<time>2026-08-31T19:47:09.000Z</time>
</trkpt>
<trkpt lat="59.4807564" lon="31.0216793">
<ele>49.840000</ele>
<time>2026-08-31T19:47:11.000Z</time>
</trkpt>
<trkpt lat="59.4807451" lon="31.0217208">
<ele>50.650002</ele>
<time>2026-08-31T19:47:21.000Z</time>
</trkpt>
<trkpt lat="59.4807378" lon="31.0216535">
<ele>51.250004</ele>
<time>2026-08-31T19:47:32.000Z</time>
</trkpt>
<trkpt lat="59.4807655" lon="31.0216349">
<ele>51.389999</ele>
<time>2026-08-31T19:47:36.000Z</time>
</trkpt>
<trkpt lat="59.4807824" lon="31.0217010">
<ele>51.469997</ele>
<time>2026-08-31T19:47:40.000Z</time>
</trkpt>
<trkpt lat="59.4807491" lon="31.0216815">
<ele>52.100002</ele>
<time>2026-08-31T19:47:51.000Z</time>
</trkpt>
<trkpt lat="59.4807326" lon="31.0216949">
<ele>53.059998</ele>
<time>2026-08-31T19:48:18.000Z</time>
</trkpt>
<trkpt lat="59.4807370" lon="31.0216345">
<ele>53.560001</ele>
<time>2026-08-31T19:48:48.000Z</time>
</trkpt>
<trkpt lat="59.4807022" lon="31.0216349">
<ele>53.029999</ele>
<time>2026-08-31T19:49:17.000Z</time>
</trkpt>
<trkpt lat="59.4806993" lon="31.0216026">
<ele>53.460003</ele>
<time>2026-08-31T19:49:56.000Z</time>
</trkpt>
<trkpt lat="59.4807638" lon="31.0216831">
<ele>55.410000</ele>
<time>2026-08-31T19:50:28.000Z</time>
</trkpt>
<trkpt lat="59.4807562" lon="31.0216465">
<ele>54.160000</ele>
<time>2026-08-31T19:50:55.000Z</time>
</trkpt>
<trkpt lat="59.4808093" lon="31.0217128">
<ele>53.189999</ele>
<time>2026-08-31T19:51:24.000Z</time>
</trkpt>
<trkpt lat="59.4807473" lon="31.0216883">
<ele>53.529999</ele>
<time>2026-08-31T19:51:55.000Z</time>
</trkpt>
<trkpt lat="59.4807877" lon="31.0217112">
<ele>54.209999</ele>
<time>2026-08-31T19:52:26.000Z</time>
</trkpt>
<trkpt lat="59.4808092" lon="31.0217460">
<ele>54.250000</ele>
<time>2026-08-31T19:52:54.000Z</time>
</trkpt>
<trkpt lat="59.4807893" lon="31.0217318">
<ele>54.139999</ele>
<time>2026-08-31T19:53:25.000Z</time>
</trkpt>
<trkpt lat="59.4808302" lon="31.0217559">
<ele>54.920002</ele>
<time>2026-08-31T19:53:57.000Z</time>
</trkpt>
<trkpt lat="59.4807902" lon="31.0217538">
<ele>55.099998</ele>
<time>2026-08-31T19:54:30.000Z</time>
</trkpt>
<trkpt lat="59.4807886" lon="31.0217282">
<ele>55.029999</ele>
<time>2026-08-31T19:55:08.000Z</time>
</trkpt>
<trkpt lat="59.4807954" lon="31.0217505">
<ele>56.419998</ele>
<time>2026-08-31T19:55:36.000Z</time>
</trkpt>
<trkpt lat="59.4807603" lon="31.0217179">
<ele>55.659996</ele>
<time>2026-08-31T19:56:06.000Z</time>
</trkpt>
<trkpt lat="59.4807747" lon="31.0217325">
<ele>55.489998</ele>
<time>2026-08-31T19:56:39.000Z</time>
</trkpt>
<trkpt lat="59.4807593" lon="31.0216913">
<ele>54.760002</ele>
<time>2026-08-31T19:57:03.000Z</time>
</trkpt>
<trkpt lat="59.4807458" lon="31.0217050">
<ele>54.349998</ele>
<time>2026-08-31T19:57:19.000Z</time>
</trkpt>
<trkpt lat="59.4803760" lon="31.0222373">
<ele>53.180000</ele>
<time>2026-08-31T19:57:27.000Z</time>
</trkpt>
<trkpt lat="59.4795685" lon="31.0238527">
<ele>51.640003</ele>
<time>2026-08-31T19:57:40.000Z</time>
</trkpt>
<trkpt lat="59.4793640" lon="31.0242457">
<ele>51.989998</ele>
<time>2026-08-31T19:57:44.000Z</time>
</trkpt>
<trkpt lat="59.4790579" lon="31.0242409">
<ele>53.070000</ele>
<time>2026-08-31T19:57:52.000Z</time>
</trkpt>
<trkpt lat="59.4790158" lon="31.0241700">
<ele>53.100002</ele>
<time>2026-08-31T19:57:53.000Z</time>
</trkpt>
<trkpt lat="59.4784959" lon="31.0230762">
<ele>54.910004</ele>
<time>2026-08-31T19:58:03.000Z</time>
</trkpt>
<trkpt lat="59.4774304" lon="31.0208233">
<ele>59.549999</ele>
<time>2026-08-31T19:58:19.000Z</time>
</trkpt>
<trkpt lat="59.4769428" lon="31.0199236">
<ele>62.199997</ele>
<time>2026-08-31T19:58:28.000Z</time>
</trkpt>
<trkpt lat="59.4765565" lon="31.0192419">
<ele>62.980003</ele>
<time>2026-08-31T19:58:37.000Z</time>
</trkpt>
<trkpt lat="59.4759132" lon="31.0179171">
<ele>64.169998</ele>
<time>2026-08-31T19:58:46.000Z</time>
</trkpt>
<trkpt lat="59.4751625" lon="31.0163038">
<ele>65.790001</ele>
<time>2026-08-31T19:58:56.000Z</time>
</trkpt>
<trkpt lat="59.4739300" lon="31.0138422">
<ele>61.880001</ele>
<time>2026-08-31T19:59:12.000Z</time>
</trkpt>
<trkpt lat="59.4732303" lon="31.0126374">
<ele>57.500000</ele>
<time>2026-08-31T19:59:21.000Z</time>
</trkpt>
<trkpt lat="59.4727623" lon="31.0122859">
<ele>53.880001</ele>
<time>2026-08-31T19:59:27.000Z</time>
</trkpt>
<trkpt lat="59.4723819" lon="31.0121678">
<ele>50.810001</ele>
<time>2026-08-31T19:59:32.000Z</time>
</trkpt>
<trkpt lat="59.4712849" lon="31.0127122">
<ele>51.360001</ele>
<time>2026-08-31T19:59:44.000Z</time>
</trkpt>
<trkpt lat="59.4701996" lon="31.0133405">
<ele>55.600002</ele>
<time>2026-08-31T19:59:56.000Z</time>
</trkpt>
<trkpt lat="59.4690538" lon="31.0140700">
<ele>57.160000</ele>
<time>2026-08-31T20:00:09.000Z</time>
</trkpt>
<trkpt lat="59.4685804" lon="31.0143478">
<ele>58.970001</ele>
<time>2026-08-31T20:00:17.000Z</time>
</trkpt>
<trkpt lat="59.4681085" lon="31.0146600">
<ele>57.430000</ele>
<time>2026-08-31T20:00:27.000Z</time>
</trkpt>
<trkpt lat="59.4679254" lon="31.0145191">
<ele>55.959999</ele>
<time>2026-08-31T20:00:32.000Z</time>
</trkpt>
<trkpt lat="59.4673293" lon="31.0132995">
<ele>54.410000</ele>
<time>2026-08-31T20:00:47.000Z</time>
</trkpt>
<trkpt lat="59.4671671" lon="31.0129819">
<ele>54.530003</ele>
<time>2026-08-31T20:00:51.000Z</time>
</trkpt>
<trkpt lat="59.4672715" lon="31.0123574">
<ele>48.350002</ele>
<time>2026-08-31T20:00:58.000Z</time>
</trkpt>
<trkpt lat="59.4680521" lon="31.0108499">
<ele>44.930000</ele>
<time>2026-08-31T20:01:07.000Z</time>
</trkpt>
<trkpt lat="59.4696746" lon="31.0077256">
<ele>43.299999</ele>
<time>2026-08-31T20:01:21.000Z</time>
</trkpt>
<trkpt lat="59.4716105" lon="31.0041596">
<ele>47.020000</ele>
<time>2026-08-31T20:01:37.000Z</time>
</trkpt>
<trkpt lat="59.4738963" lon="31.0000997">
<ele>60.780003</ele>
<time>2026-08-31T20:01:55.000Z</time>
</trkpt>
<trkpt lat="59.4757577" lon="30.9967342">
<ele>67.589996</ele>
<time>2026-08-31T20:02:11.000Z</time>
</trkpt>
<trkpt lat="59.4779877" lon="30.9926767">
<ele>68.070000</ele>
<time>2026-08-31T20:02:30.000Z</time>
</trkpt>
<trkpt lat="59.4797079" lon="30.9893370">
<ele>60.079998</ele>
<time>2026-08-31T20:02:46.000Z</time>
</trkpt>
<trkpt lat="59.4819584" lon="30.9851908">
<ele>51.260002</ele>
<time>2026-08-31T20:03:05.000Z</time>
</trkpt>
<trkpt lat="59.4841516" lon="30.9813835">
<ele>49.759998</ele>
<time>2026-08-31T20:03:22.000Z</time>
</trkpt>
<trkpt lat="59.4861920" lon="30.9776647">
<ele>58.450001</ele>
<time>2026-08-31T20:03:38.000Z</time>
</trkpt>
<trkpt lat="59.4879077" lon="30.9746830">
<ele>66.610001</ele>
<time>2026-08-31T20:03:52.000Z</time>
</trkpt>
<trkpt lat="59.4896543" lon="30.9714314">
<ele>68.010002</ele>
<time>2026-08-31T20:04:07.000Z</time>
</trkpt>
<trkpt lat="59.4912680" lon="30.9684381">
<ele>67.760002</ele>
<time>2026-08-31T20:04:19.000Z</time>
</trkpt>
<trkpt lat="59.4929060" lon="30.9653663">
<ele>62.349998</ele>
<time>2026-08-31T20:04:28.000Z</time>
</trkpt>
<trkpt lat="59.4952481" lon="30.9610638">
<ele>56.770000</ele>
<time>2026-08-31T20:04:40.000Z</time>
</trkpt>
<trkpt lat="59.4977674" lon="30.9565913">
<ele>52.309998</ele>
<time>2026-08-31T20:04:54.000Z</time>
</trkpt>
<trkpt lat="59.5009644" lon="30.9508733">
<ele>51.480003</ele>
<time>2026-08-31T20:05:13.000Z</time>
</trkpt>
<trkpt lat="59.5043236" lon="30.9447701">
<ele>50.130001</ele>
<time>2026-08-31T20:05:33.000Z</time>
</trkpt>
<trkpt lat="59.5072964" lon="30.9393620">
<ele>44.250000</ele>
<time>2026-08-31T20:05:49.000Z</time>
</trkpt>
<trkpt lat="59.5098084" lon="30.9347439">
<ele>39.970001</ele>
<time>2026-08-31T20:06:02.000Z</time>
</trkpt>
<trkpt lat="59.5129503" lon="30.9289033">
<ele>37.549999</ele>
<time>2026-08-31T20:06:18.000Z</time>
</trkpt>
<trkpt lat="59.5158216" lon="30.9237474">
<ele>37.330002</ele>
<time>2026-08-31T20:06:33.000Z</time>
</trkpt>
<trkpt lat="59.5185713" lon="30.9187581">
<ele>33.079998</ele>
<time>2026-08-31T20:06:48.000Z</time>
</trkpt>
<trkpt lat="59.5216014" lon="30.9133323">
<ele>30.290001</ele>
<time>2026-08-31T20:07:04.000Z</time>
</trkpt>
<trkpt lat="59.5238198" lon="30.9093847">
<ele>29.440001</ele>
<time>2026-08-31T20:07:17.000Z</time>
</trkpt>
<trkpt lat="59.5263230" lon="30.9045840">
<ele>25.590000</ele>
<time>2026-08-31T20:07:33.000Z</time>
</trkpt>
<trkpt lat="59.5276817" lon="30.9018975">
<ele>25.459999</ele>
<time>2026-08-31T20:07:44.000Z</time>
</trkpt>
<trkpt lat="59.5293690" lon="30.8987665">
<ele>23.829998</ele>
<time>2026-08-31T20:07:58.000Z</time>
</trkpt>
<trkpt lat="59.5312543" lon="30.8952835">
<ele>22.050001</ele>
<time>2026-08-31T20:08:13.000Z</time>
</trkpt>
<trkpt lat="59.5328107" lon="30.8923175">
<ele>18.900000</ele>
<time>2026-08-31T20:08:27.000Z</time>
</trkpt>
<trkpt lat="59.5344297" lon="30.8893173">
<ele>15.690001</ele>
<time>2026-08-31T20:08:41.000Z</time>
</trkpt>
<trkpt lat="59.5361521" lon="30.8860755">
<ele>15.719999</ele>
<time>2026-08-31T20:08:55.000Z</time>
</trkpt>
<trkpt lat="59.5375022" lon="30.8835388">
<ele>22.910000</ele>
<time>2026-08-31T20:09:07.000Z</time>
</trkpt>
<trkpt lat="59.5389127" lon="30.8810015">
<ele>27.179998</ele>
<time>2026-08-31T20:09:19.000Z</time>
</trkpt>
<trkpt lat="59.5400099" lon="30.8791080">
<ele>28.779999</ele>
<time>2026-08-31T20:09:30.000Z</time>
</trkpt>
<trkpt lat="59.5405679" lon="30.8781719">
<ele>30.189999</ele>
<time>2026-08-31T20:09:39.000Z</time>
</trkpt>
<trkpt lat="59.5405644" lon="30.8782140">
<ele>32.169998</ele>
<time>2026-08-31T20:09:46.000Z</time>
</trkpt>
<trkpt lat="59.5405905" lon="30.8781321">
<ele>33.119999</ele>
<time>2026-08-31T20:09:51.000Z</time>
</trkpt>
<trkpt lat="59.5410327" lon="30.8772026">
<ele>33.369999</ele>
<time>2026-08-31T20:09:59.000Z</time>
</trkpt>
<trkpt lat="59.5420881" lon="30.8752471">
<ele>33.380001</ele>
<time>2026-08-31T20:10:09.000Z</time>
</trkpt>
<trkpt lat="59.5435594" lon="30.8727156">
<ele>32.739998</ele>
<time>2026-08-31T20:10:21.000Z</time>
</trkpt>
<trkpt lat="59.5445717" lon="30.8708282">
<ele>32.860001</ele>
<time>2026-08-31T20:10:33.000Z</time>
</trkpt>
<trkpt lat="59.5452549" lon="30.8699015">
<ele>32.820000</ele>
<time>2026-08-31T20:10:43.000Z</time>
</trkpt>
<trkpt lat="59.5453625" lon="30.8698549">
<ele>32.930000</ele>
<time>2026-08-31T20:10:52.000Z</time>
</trkpt>
<trkpt lat="59.5452223" lon="30.8699345">
<ele>33.250000</ele>
<time>2026-08-31T20:11:04.000Z</time>
</trkpt>
<trkpt lat="59.5453646" lon="30.8699523">
<ele>33.180000</ele>
<time>2026-08-31T20:11:18.000Z</time>
</trkpt>
<trkpt lat="59.5459965" lon="30.8713243">
<ele>32.579998</ele>
<time>2026-08-31T20:11:26.000Z</time>
</trkpt>
<trkpt lat="59.5471411" lon="30.8738201">
<ele>32.340000</ele>
<time>2026-08-31T20:11:36.000Z</time>
</trkpt>
<trkpt lat="59.5487750" lon="30.8772908">
<ele>31.969999</ele>
<time>2026-08-31T20:11:49.000Z</time>
</trkpt>
<trkpt lat="59.5506837" lon="30.8816350">
<ele>31.500000</ele>
<time>2026-08-31T20:12:04.000Z</time>
</trkpt>
<trkpt lat="59.5515833" lon="30.8840816">
<ele>31.400000</ele>
<time>2026-08-31T20:12:14.000Z</time>
</trkpt>
<trkpt lat="59.5522366" lon="30.8861545">
<ele>31.709999</ele>
<time>2026-08-31T20:12:23.000Z</time>
</trkpt>
<trkpt lat="59.5532777" lon="30.8894315">
<ele>31.960001</ele>
<time>2026-08-31T20:12:33.000Z</time>
</trkpt>
<trkpt lat="59.5549732" lon="30.8945545">
<ele>32.760002</ele>
<time>2026-08-31T20:12:47.000Z</time>
</trkpt>
<trkpt lat="59.5565246" lon="30.8993368">
<ele>32.779999</ele>
<time>2026-08-31T20:13:01.000Z</time>
</trkpt>
<trkpt lat="59.5578162" lon="30.9034509">
<ele>32.020000</ele>
<time>2026-08-31T20:13:15.000Z</time>
</trkpt>
<trkpt lat="59.5590804" lon="30.9070715">
<ele>33.009998</ele>
<time>2026-08-31T20:13:29.000Z</time>
</trkpt>
<trkpt lat="59.5600197" lon="30.9102550">
<ele>33.529999</ele>
<time>2026-08-31T20:13:40.000Z</time>
</trkpt>
<trkpt lat="59.5603302" lon="30.9122618">
<ele>32.080002</ele>
<time>2026-08-31T20:13:46.000Z</time>
</trkpt>
<trkpt lat="59.5603378" lon="30.9136055">
<ele>31.190001</ele>
<time>2026-08-31T20:13:50.000Z</time>
</trkpt>
<trkpt lat="59.5600247" lon="30.9175016">
<ele>29.870001</ele>
<time>2026-08-31T20:14:00.000Z</time>
</trkpt>
<trkpt lat="59.5594756" lon="30.9233118">
<ele>28.359999</ele>
<time>2026-08-31T20:14:13.000Z</time>
</trkpt>
<trkpt lat="59.5586596" lon="30.9320289">
<ele>27.029999</ele>
<time>2026-08-31T20:14:31.000Z</time>
</trkpt>
<trkpt lat="59.5580687" lon="30.9388591">
<ele>26.320000</ele>
<time>2026-08-31T20:14:45.000Z</time>
</trkpt>
<trkpt lat="59.5574646" lon="30.9455560">
<ele>27.580000</ele>
<time>2026-08-31T20:14:59.000Z</time>
</trkpt>
<trkpt lat="59.5575897" lon="30.9503509">
<ele>27.310001</ele>
<time>2026-08-31T20:15:09.000Z</time>
</trkpt>
<trkpt lat="59.5578158" lon="30.9569297">
<ele>28.049999</ele>
<time>2026-08-31T20:15:23.000Z</time>
</trkpt>
<trkpt lat="59.5579607" lon="30.9637571">
<ele>34.240002</ele>
<time>2026-08-31T20:15:38.000Z</time>
</trkpt>
<trkpt lat="59.5581852" lon="30.9700741">
<ele>41.450001</ele>
<time>2026-08-31T20:15:52.000Z</time>
</trkpt>
<trkpt lat="59.5582964" lon="30.9765073">
<ele>44.630001</ele>
<time>2026-08-31T20:16:07.000Z</time>
</trkpt>
<trkpt lat="59.5585164" lon="30.9833332">
<ele>38.970001</ele>
<time>2026-08-31T20:16:22.000Z</time>
</trkpt>
<trkpt lat="59.5586759" lon="30.9901845">
<ele>37.189999</ele>
<time>2026-08-31T20:16:36.000Z</time>
</trkpt>
<trkpt lat="59.5588569" lon="30.9969262">
<ele>38.259998</ele>
<time>2026-08-31T20:16:50.000Z</time>
</trkpt>
<trkpt lat="59.5590336" lon="31.0033949">
<ele>47.220001</ele>
<time>2026-08-31T20:17:04.000Z</time>
</trkpt>
<trkpt lat="59.5591611" lon="31.0080380">
<ele>51.209999</ele>
<time>2026-08-31T20:17:16.000Z</time>
</trkpt>
<trkpt lat="59.5591418" lon="31.0113496">
<ele>56.160000</ele>
<time>2026-08-31T20:17:28.000Z</time>
</trkpt>
<trkpt lat="59.5590435" lon="31.0125043">
<ele>59.669998</ele>
<time>2026-08-31T20:17:35.000Z</time>
</trkpt>
<trkpt lat="59.5590020" lon="31.0137591">
<ele>60.149998</ele>
<time>2026-08-31T20:17:44.000Z</time>
</trkpt>
<trkpt lat="59.5590077" lon="31.0138773">
<ele>59.820000</ele>
<time>2026-08-31T20:17:45.000Z</time>
</trkpt>
<trkpt lat="59.5590668" lon="31.0143512">
<ele>59.539997</ele>
<time>2026-08-31T20:17:49.000Z</time>
</trkpt>
<trkpt lat="59.5595654" lon="31.0157114">
<ele>53.880001</ele>
<time>2026-08-31T20:17:56.000Z</time>
</trkpt>
<trkpt lat="59.5608327" lon="31.0188750">
<ele>48.320000</ele>
<time>2026-08-31T20:18:09.000Z</time>
</trkpt>
<trkpt lat="59.5613326" lon="31.0207350">
<ele>48.629997</ele>
<time>2026-08-31T20:18:17.000Z</time>
</trkpt>
<trkpt lat="59.5614335" lon="31.0215899">
<ele>50.169998</ele>
<time>2026-08-31T20:18:23.000Z</time>
</trkpt>
<trkpt lat="59.5616226" lon="31.0231338">
<ele>51.570000</ele>
<time>2026-08-31T20:18:32.000Z</time>
</trkpt>
<trkpt lat="59.5618927" lon="31.0254318">
<ele>51.910000</ele>
<time>2026-08-31T20:18:40.000Z</time>
</trkpt>
<trkpt lat="59.5624239" lon="31.0297715">
<ele>48.820000</ele>
<time>2026-08-31T20:18:52.000Z</time>
</trkpt>
<trkpt lat="59.5629021" lon="31.0336405">
<ele>48.689999</ele>
<time>2026-08-31T20:19:03.000Z</time>
</trkpt>
<trkpt lat="59.5630259" lon="31.0345388">
<ele>48.480000</ele>
<time>2026-08-31T20:19:09.000Z</time>
</trkpt>
<trkpt lat="59.5631491" lon="31.0355098">
<ele>49.050003</ele>
<time>2026-08-31T20:19:17.000Z</time>
</trkpt>
<trkpt lat="59.5633947" lon="31.0376303">
<ele>47.849998</ele>
<time>2026-08-31T20:19:25.000Z</time>
</trkpt>
<trkpt lat="59.5638586" lon="31.0412829">
<ele>47.090000</ele>
<time>2026-08-31T20:19:35.000Z</time>
</trkpt>
<trkpt lat="59.5644973" lon="31.0464260">
<ele>45.990002</ele>
<time>2026-08-31T20:19:48.000Z</time>
</trkpt>
<trkpt lat="59.5652073" lon="31.0523065">
<ele>41.480000</ele>
<time>2026-08-31T20:20:03.000Z</time>
</trkpt>
<trkpt lat="59.5657019" lon="31.0562996">
<ele>46.720001</ele>
<time>2026-08-31T20:20:15.000Z</time>
</trkpt>
<trkpt lat="59.5664074" lon="31.0618294">
<ele>50.770000</ele>
<time>2026-08-31T20:20:32.000Z</time>
</trkpt>
<trkpt lat="59.5669891" lon="31.0666199">
<ele>51.319996</ele>
<time>2026-08-31T20:20:46.000Z</time>
</trkpt>
<trkpt lat="59.5676246" lon="31.0716151">
<ele>49.610001</ele>
<time>2026-08-31T20:20:59.000Z</time>
</trkpt>
<trkpt lat="59.5684992" lon="31.0784259">
<ele>53.119999</ele>
<time>2026-08-31T20:21:15.000Z</time>
</trkpt>
<trkpt lat="59.5692783" lon="31.0846038">
<ele>56.709999</ele>
<time>2026-08-31T20:21:29.000Z</time>
</trkpt>
<trkpt lat="59.5700602" lon="31.0909002">
<ele>53.750000</ele>
<time>2026-08-31T20:21:44.000Z</time>
</trkpt>
<trkpt lat="59.5707837" lon="31.0966687">
<ele>56.639999</ele>
<time>2026-08-31T20:21:57.000Z</time>
</trkpt>
<trkpt lat="59.5715219" lon="31.1026847">
<ele>56.220001</ele>
<time>2026-08-31T20:22:11.000Z</time>
</trkpt>
<trkpt lat="59.5724547" lon="31.1101690">
<ele>54.730000</ele>
<time>2026-08-31T20:22:28.000Z</time>
</trkpt>
<trkpt lat="59.5733907" lon="31.1177336">
<ele>54.199997</ele>
<time>2026-08-31T20:22:44.000Z</time>
</trkpt>
<trkpt lat="59.5743423" lon="31.1252248">
<ele>53.690002</ele>
<time>2026-08-31T20:22:59.000Z</time>
</trkpt>
<trkpt lat="59.5750739" lon="31.1311673">
<ele>54.380001</ele>
<time>2026-08-31T20:23:11.000Z</time>
</trkpt>
<trkpt lat="59.5758661" lon="31.1375590">
<ele>53.909996</ele>
<time>2026-08-31T20:23:24.000Z</time>
</trkpt>
<trkpt lat="59.5765940" lon="31.1435319">
<ele>55.459999</ele>
<time>2026-08-31T20:23:36.000Z</time>
</trkpt>
<trkpt lat="59.5774335" lon="31.1503529">
<ele>48.450001</ele>
<time>2026-08-31T20:23:50.000Z</time>
</trkpt>
<trkpt lat="59.5781872" lon="31.1564451">
<ele>45.889999</ele>
<time>2026-08-31T20:24:03.000Z</time>
</trkpt>
<trkpt lat="59.5787290" lon="31.1607677">
<ele>50.919998</ele>
<time>2026-08-31T20:24:14.000Z</time>
</trkpt>
<trkpt lat="59.5793557" lon="31.1657664">
<ele>48.189999</ele>
<time>2026-08-31T20:24:28.000Z</time>
</trkpt>
<trkpt lat="59.5798456" lon="31.1698564">
<ele>48.849998</ele>
<time>2026-08-31T20:24:40.000Z</time>
</trkpt>
<trkpt lat="59.5798125" lon="31.1719408">
<ele>49.150002</ele>
<time>2026-08-31T20:24:48.000Z</time>
</trkpt>
<trkpt lat="59.5794254" lon="31.1753565">
<ele>47.349998</ele>
<time>2026-08-31T20:24:59.000Z</time>
</trkpt>
<trkpt lat="59.5790333" lon="31.1791374">
<ele>45.920002</ele>
<time>2026-08-31T20:25:09.000Z</time>
</trkpt>
<trkpt lat="59.5788164" lon="31.1822810">
<ele>45.570000</ele>
<time>2026-08-31T20:25:19.000Z</time>
</trkpt>
<trkpt lat="59.5789179" lon="31.1858389">
<ele>48.869999</ele>
<time>2026-08-31T20:25:30.000Z</time>
</trkpt>
<trkpt lat="59.5794610" lon="31.1894267">
<ele>48.570000</ele>
<time>2026-08-31T20:25:41.000Z</time>
</trkpt>
<trkpt lat="59.5801818" lon="31.1928318">
<ele>45.930000</ele>
<time>2026-08-31T20:25:52.000Z</time>
</trkpt>
<trkpt lat="59.5811298" lon="31.1952905">
<ele>47.300003</ele>
<time>2026-08-31T20:26:01.000Z</time>
</trkpt>
<trkpt lat="59.5824227" lon="31.1977133">
<ele>54.110001</ele>
<time>2026-08-31T20:26:12.000Z</time>
</trkpt>
<trkpt lat="59.5838406" lon="31.2005033">
<ele>61.400002</ele>
<time>2026-08-31T20:26:24.000Z</time>
</trkpt>
<trkpt lat="59.5855068" lon="31.2038332">
<ele>59.730000</ele>
<time>2026-08-31T20:26:36.000Z</time>
</trkpt>
<trkpt lat="59.5871689" lon="31.2071094">
<ele>58.680000</ele>
<time>2026-08-31T20:26:48.000Z</time>
</trkpt>
<trkpt lat="59.5885741" lon="31.2099528">
<ele>60.680000</ele>
<time>2026-08-31T20:26:59.000Z</time>
</trkpt>
<trkpt lat="59.5894167" lon="31.2117502">
<ele>59.650002</ele>
<time>2026-08-31T20:27:08.000Z</time>
</trkpt>
<trkpt lat="59.5897547" lon="31.2124827">
<ele>61.020000</ele>
<time>2026-08-31T20:27:13.000Z</time>
</trkpt>
<trkpt lat="59.5897886" lon="31.2131613">
<ele>61.620003</ele>
<time>2026-08-31T20:27:19.000Z</time>
</trkpt>
<trkpt lat="59.5897443" lon="31.2132611">
<ele>61.860001</ele>
<time>2026-08-31T20:27:20.000Z</time>
</trkpt>
<trkpt lat="59.5891030" lon="31.2146059">
<ele>61.570000</ele>
<time>2026-08-31T20:27:29.000Z</time>
</trkpt>
<trkpt lat="59.5881343" lon="31.2159485">
<ele>61.869999</ele>
<time>2026-08-31T20:27:37.000Z</time>
</trkpt>
<trkpt lat="59.5863866" lon="31.2172654">
<ele>61.899998</ele>
<time>2026-08-31T20:27:48.000Z</time>
</trkpt>
<trkpt lat="59.5843887" lon="31.2189568">
<ele>60.110001</ele>
<time>2026-08-31T20:27:58.000Z</time>
</trkpt>
<trkpt lat="59.5827429" lon="31.2212861">
<ele>59.880001</ele>
<time>2026-08-31T20:28:07.000Z</time>
</trkpt>
<trkpt lat="59.5813210" lon="31.2242300">
<ele>61.029999</ele>
<time>2026-08-31T20:28:16.000Z</time>
</trkpt>
<trkpt lat="59.5796578" lon="31.2279703">
<ele>60.839996</ele>
<time>2026-08-31T20:28:28.000Z</time>
</trkpt>
<trkpt lat="59.5783628" lon="31.2301592">
<ele>63.129997</ele>
<time>2026-08-31T20:28:38.000Z</time>
</trkpt>
<trkpt lat="59.5773431" lon="31.2328078">
<ele>64.110001</ele>
<time>2026-08-31T20:28:47.000Z</time>
</trkpt>
<trkpt lat="59.5762194" lon="31.2368397">
<ele>63.300003</ele>
<time>2026-08-31T20:28:58.000Z</time>
</trkpt>
<trkpt lat="59.5747239" lon="31.2420347">
<ele>70.870003</ele>
<time>2026-08-31T20:29:12.000Z</time>
</trkpt>
<trkpt lat="59.5735143" lon="31.2446854">
<ele>74.200005</ele>
<time>2026-08-31T20:29:21.000Z</time>
</trkpt>
<trkpt lat="59.5713183" lon="31.2482268">
<ele>74.580002</ele>
<time>2026-08-31T20:29:34.000Z</time>
</trkpt>
<trkpt lat="59.5698545" lon="31.2498054">
<ele>76.959999</ele>
<time>2026-08-31T20:29:42.000Z</time>
</trkpt>
<trkpt lat="59.5679186" lon="31.2509013">
<ele>78.110001</ele>
<time>2026-08-31T20:29:51.000Z</time>
</trkpt>
<trkpt lat="59.5665481" lon="31.2525873">
<ele>74.619995</ele>
<time>2026-08-31T20:29:59.000Z</time>
</trkpt>
<trkpt lat="59.5652836" lon="31.2553989">
<ele>73.220001</ele>
<time>2026-08-31T20:30:08.000Z</time>
</trkpt>
<trkpt lat="59.5648334" lon="31.2561584">
<ele>72.320000</ele>
<time>2026-08-31T20:30:11.000Z</time>
</trkpt>
<trkpt lat="59.5641250" lon="31.2567908">
<ele>72.840004</ele>
<time>2026-08-31T20:30:15.000Z</time>
</trkpt>
<trkpt lat="59.5617888" lon="31.2577856">
<ele>74.669998</ele>
<time>2026-08-31T20:30:28.000Z</time>
</trkpt>
<trkpt lat="59.5600096" lon="31.2576576">
<ele>76.199997</ele>
<time>2026-08-31T20:30:37.000Z</time>
</trkpt>
<trkpt lat="59.5580962" lon="31.2578330">
<ele>73.540001</ele>
<time>2026-08-31T20:30:47.000Z</time>
</trkpt>
<trkpt lat="59.5569165" lon="31.2590082">
<ele>71.509995</ele>
<time>2026-08-31T20:30:54.000Z</time>
</trkpt>
<trkpt lat="59.5550065" lon="31.2611772">
<ele>66.769997</ele>
<time>2026-08-31T20:31:06.000Z</time>
</trkpt>
<trkpt lat="59.5535527" lon="31.2618066">
<ele>66.110001</ele>
<time>2026-08-31T20:31:15.000Z</time>
</trkpt>
<trkpt lat="59.5523025" lon="31.2614575">
<ele>68.400002</ele>
<time>2026-08-31T20:31:22.000Z</time>
</trkpt>
<trkpt lat="59.5510018" lon="31.2597394">
<ele>71.119995</ele>
<time>2026-08-31T20:31:31.000Z</time>
</trkpt>
<trkpt lat="59.5493202" lon="31.2573692">
<ele>71.599998</ele>
<time>2026-08-31T20:31:43.000Z</time>
</trkpt>
<trkpt lat="59.5476701" lon="31.2557580">
<ele>68.199997</ele>
<time>2026-08-31T20:31:53.000Z</time>
</trkpt>
<trkpt lat="59.5462384" lon="31.2552636">
<ele>65.790001</ele>
<time>2026-08-31T20:32:01.000Z</time>
</trkpt>
<trkpt lat="59.5436557" lon="31.2547661">
<ele>64.849998</ele>
<time>2026-08-31T20:32:15.000Z</time>
</trkpt>
<trkpt lat="59.5418268" lon="31.2543896">
<ele>70.529999</ele>
<time>2026-08-31T20:32:26.000Z</time>
</trkpt>
<trkpt lat="59.5404162" lon="31.2539095">
<ele>69.099998</ele>
<time>2026-08-31T20:32:37.000Z</time>
</trkpt>
<trkpt lat="59.5393841" lon="31.2529066">
<ele>63.440002</ele>
<time>2026-08-31T20:32:46.000Z</time>
</trkpt>
<trkpt lat="59.5379962" lon="31.2513845">
<ele>61.940002</ele>
<time>2026-08-31T20:32:56.000Z</time>
</trkpt>
<trkpt lat="59.5365887" lon="31.2498931">
<ele>62.170002</ele>
<time>2026-08-31T20:33:07.000Z</time>
</trkpt>
<trkpt lat="59.5353353" lon="31.2491756">
<ele>58.650002</ele>
<time>2026-08-31T20:33:16.000Z</time>
</trkpt>
<trkpt lat="59.5337474" lon="31.2491046">
<ele>57.980000</ele>
<time>2026-08-31T20:33:26.000Z</time>
</trkpt>
<trkpt lat="59.5327739" lon="31.2496204">
<ele>59.500000</ele>
<time>2026-08-31T20:33:33.000Z</time>
</trkpt>
<trkpt lat="59.5322985" lon="31.2500196">
<ele>55.700001</ele>
<time>2026-08-31T20:33:42.000Z</time>
</trkpt>
<trkpt lat="59.5322631" lon="31.2500654">
<ele>56.280003</ele>
<time>2026-08-31T20:33:44.000Z</time>
</trkpt>
<trkpt lat="59.5322823" lon="31.2500758">
<ele>56.000000</ele>
<time>2026-08-31T20:33:53.000Z</time>
</trkpt>
<trkpt lat="59.5323237" lon="31.2500851">
<ele>55.549999</ele>
<time>2026-08-31T20:33:57.000Z</time>
</trkpt>
<trkpt lat="59.5328283" lon="31.2496861">
<ele>53.799999</ele>
<time>2026-08-31T20:34:06.000Z</time>
</trkpt>
<trkpt lat="59.5337454" lon="31.2492019">
<ele>50.309998</ele>
<time>2026-08-31T20:34:18.000Z</time>
</trkpt>
<trkpt lat="59.5339988" lon="31.2491435">
<ele>49.709999</ele>
<time>2026-08-31T20:34:22.000Z</time>
</trkpt>
<trkpt lat="59.5340847" lon="31.2488770">
<ele>54.579998</ele>
<time>2026-08-31T20:34:27.000Z</time>
</trkpt>
<trkpt lat="59.5340519" lon="31.2482621">
<ele>55.150002</ele>
<time>2026-08-31T20:34:37.000Z</time>
</trkpt>
<trkpt lat="59.5340335" lon="31.2479814">
<ele>53.610001</ele>
<time>2026-08-31T20:34:40.000Z</time>
</trkpt>
<trkpt lat="59.5339824" lon="31.2470149">
<ele>53.119999</ele>
<time>2026-08-31T20:34:52.000Z</time>
</trkpt>
<trkpt lat="59.5339467" lon="31.2464678">
<ele>55.259998</ele>
<time>2026-08-31T20:35:03.000Z</time>
</trkpt>
<trkpt lat="59.5338679" lon="31.2459778">
<ele>56.960003</ele>
<time>2026-08-31T20:35:12.000Z</time>
</trkpt>
<trkpt lat="59.5336473" lon="31.2449300">
<ele>55.790001</ele>
<time>2026-08-31T20:35:28.000Z</time>
</trkpt>
<trkpt lat="59.5335979" lon="31.2442544">
<ele>55.060001</ele>
<time>2026-08-31T20:35:44.000Z</time>
</trkpt>
<trkpt lat="59.5335785" lon="31.2437120">
<ele>53.519997</ele>
<time>2026-08-31T20:35:58.000Z</time>
</trkpt>
<trkpt lat="59.5335856" lon="31.2433194">
<ele>53.739998</ele>
<time>2026-08-31T20:36:10.000Z</time>
</trkpt>
<trkpt lat="59.5335739" lon="31.2428625">
<ele>50.200001</ele>
<time>2026-08-31T20:36:22.000Z</time>
</trkpt>
<trkpt lat="59.5335626" lon="31.2427839">
<ele>49.549999</ele>
<time>2026-08-31T20:36:32.000Z</time>
</trkpt>
<trkpt lat="59.5337203" lon="31.2426987">
<ele>49.580002</ele>
<time>2026-08-31T20:36:40.000Z</time>
</trkpt>
<trkpt lat="59.5344773" lon="31.2425718">
<ele>50.120003</ele>
<time>2026-08-31T20:36:56.000Z</time>
</trkpt>
<trkpt lat="59.5348391" lon="31.2424468">
<ele>52.299999</ele>
<time>2026-08-31T20:37:07.000Z</time>
</trkpt>
<trkpt lat="59.5348809" lon="31.2421914">
<ele>52.680000</ele>
<time>2026-08-31T20:37:14.000Z</time>
</trkpt>
<trkpt lat="59.5348662" lon="31.2420231">
<ele>52.509998</ele>
<time>2026-08-31T20:37:16.000Z</time>
</trkpt>
<trkpt lat="59.5348040" lon="31.2409768">
<ele>48.130001</ele>
<time>2026-08-31T20:37:31.000Z</time>
</trkpt>
<trkpt lat="59.5346962" lon="31.2405066">
<ele>44.880001</ele>
<time>2026-08-31T20:37:42.000Z</time>
</trkpt>
<trkpt lat="59.5345700" lon="31.2402547">
<ele>44.459999</ele>
<time>2026-08-31T20:37:54.000Z</time>
</trkpt>
<trkpt lat="59.5341115" lon="31.2393964">
<ele>47.570000</ele>
<time>2026-08-31T20:38:07.000Z</time>
</trkpt>
<trkpt lat="59.5338416" lon="31.2387226">
<ele>48.440002</ele>
<time>2026-08-31T20:38:17.000Z</time>
</trkpt>
<trkpt lat="59.5334947" lon="31.2378805">
<ele>48.700001</ele>
<time>2026-08-31T20:38:31.000Z</time>
</trkpt>
<trkpt lat="59.5333160" lon="31.2374871">
<ele>48.080002</ele>
<time>2026-08-31T20:38:42.000Z</time>
</trkpt>
<trkpt lat="59.5332409" lon="31.2372751">
<ele>47.400002</ele>
<time>2026-08-31T20:38:54.000Z</time>
</trkpt>
<trkpt lat="59.5330459" lon="31.2367487">
<ele>44.110001</ele>
<time>2026-08-31T20:39:05.000Z</time>
</trkpt>
<trkpt lat="59.5329630" lon="31.2365386">
<ele>40.419998</ele>
<time>2026-08-31T20:39:20.000Z</time>
</trkpt>
<trkpt lat="59.5329404" lon="31.2365251">
<ele>40.480000</ele>
<time>2026-08-31T20:39:40.000Z</time>
</trkpt>
<trkpt lat="59.5328950" lon="31.2365366">
<ele>39.279999</ele>
<time>2026-08-31T20:40:04.000Z</time>
</trkpt>
<trkpt lat="59.5329259" lon="31.2365856">
<ele>37.180000</ele>
<time>2026-08-31T20:40:26.000Z</time>
</trkpt>
<trkpt lat="59.5329576" lon="31.2366349">
<ele>36.910000</ele>
<time>2026-08-31T20:40:56.000Z</time>
</trkpt>
<trkpt lat="59.5329567" lon="31.2365946">
<ele>37.279999</ele>
<time>2026-08-31T20:41:22.000Z</time>
</trkpt>
<trkpt lat="59.5329808" lon="31.2365765">
<ele>36.579998</ele>
<time>2026-08-31T20:41:54.000Z</time>
</trkpt>
<trkpt lat="59.5329350" lon="31.2366382">
<ele>35.980000</ele>
<time>2026-08-31T20:42:29.000Z</time>
</trkpt>
<trkpt lat="59.5329652" lon="31.2366262">
<ele>37.970001</ele>
<time>2026-08-31T20:43:01.000Z</time>
</trkpt>
<trkpt lat="59.5329277" lon="31.2365972">
<ele>41.360001</ele>
<time>2026-08-31T20:43:17.000Z</time>
</trkpt>
<trkpt lat="59.5329565" lon="31.2366001">
<ele>40.740002</ele>
<time>2026-08-31T20:43:28.000Z</time>
</trkpt>
<trkpt lat="59.5329518" lon="31.2365729">
<ele>42.469997</ele>
<time>2026-08-31T20:43:41.000Z</time>
</trkpt>
<trkpt lat="59.5329512" lon="31.2366127">
<ele>42.169998</ele>
<time>2026-08-31T20:44:01.000Z</time>
</trkpt>
<trkpt lat="59.5329526" lon="31.2366518">
<ele>42.399998</ele>
<time>2026-08-31T20:44:20.000Z</time>
</trkpt>
<trkpt lat="59.5329538" lon="31.2366510">
<ele>42.000000</ele>
<time>2026-08-31T20:44:32.000Z</time>
</trkpt>
<trkpt lat="59.5329813" lon="31.2366110">
<ele>41.549999</ele>
<time>2026-08-31T20:44:54.000Z</time>
</trkpt>
<trkpt lat="59.5330212" lon="31.2365839">
<ele>42.320000</ele>
<time>2026-08-31T20:45:15.000Z</time>
</trkpt>
<trkpt lat="59.5330223" lon="31.2365706">
<ele>43.480003</ele>
<time>2026-08-31T20:45:36.000Z</time>
</trkpt>
<trkpt lat="59.5330066" lon="31.2365832">
<ele>43.239998</ele>
<time>2026-08-31T20:45:52.000Z</time>
</trkpt>
<trkpt lat="59.5329870" lon="31.2365853">
<ele>43.219997</ele>
<time>2026-08-31T20:46:14.000Z</time>
</trkpt>
<trkpt lat="59.5329590" lon="31.2365918">
<ele>43.079998</ele>
<time>2026-08-31T20:46:42.000Z</time>
</trkpt>
<trkpt lat="59.5329446" lon="31.2366427">
<ele>43.500000</ele>
<time>2026-08-31T20:47:10.000Z</time>
</trkpt>
<trkpt lat="59.5329870" lon="31.2365900">
<ele>44.650002</ele>
<time>2026-08-31T20:47:33.000Z</time>
</trkpt>
<trkpt lat="59.5330101" lon="31.2365598">
<ele>48.970001</ele>
<time>2026-08-31T20:47:57.000Z</time>
</trkpt>
<trkpt lat="59.5329932" lon="31.2365022">
<ele>47.370003</ele>
<time>2026-08-31T20:48:29.000Z</time>
</trkpt>
<trkpt lat="59.5329604" lon="31.2365770">
<ele>47.820004</ele>
<time>2026-08-31T20:48:53.000Z</time>
</trkpt>
<trkpt lat="59.5329673" lon="31.2366186">
<ele>47.370003</ele>
<time>2026-08-31T20:49:18.000Z</time>
</trkpt>
<trkpt lat="59.5329916" lon="31.2366508">
<ele>47.400002</ele>
<time>2026-08-31T20:49:43.000Z</time>
</trkpt>
<trkpt lat="59.5330045" lon="31.2366538">
<ele>47.189999</ele>
<time>2026-08-31T20:50:09.000Z</time>
</trkpt>
<trkpt lat="59.5329969" lon="31.2365996">
<ele>45.880001</ele>
<time>2026-08-31T20:50:31.000Z</time>
</trkpt>
<trkpt lat="59.5329869" lon="31.2365425">
<ele>44.340000</ele>
<time>2026-08-31T20:50:53.000Z</time>
</trkpt>
<trkpt lat="59.5329715" lon="31.2365383">
<ele>44.180000</ele>
<time>2026-08-31T20:51:14.000Z</time>
</trkpt>
<trkpt lat="59.5329679" lon="31.2365285">
<ele>43.720001</ele>
<time>2026-08-31T20:51:43.000Z</time>
</trkpt>
<trkpt lat="59.5329559" lon="31.2365696">
<ele>43.360001</ele>
<time>2026-08-31T20:52:08.000Z</time>
</trkpt>
<trkpt lat="59.5329541" lon="31.2365288">
<ele>43.640003</ele>
<time>2026-08-31T20:52:29.000Z</time>
</trkpt>
<trkpt lat="59.5329064" lon="31.2364588">
<ele>42.490002</ele>
<time>2026-08-31T20:52:46.000Z</time>
</trkpt>
<trkpt lat="59.5328772" lon="31.2364707">
<ele>42.360001</ele>
<time>2026-08-31T20:53:07.000Z</time>
</trkpt>
<trkpt lat="59.5328701" lon="31.2364998">
<ele>42.340000</ele>
<time>2026-08-31T20:53:39.000Z</time>
</trkpt>
<trkpt lat="59.5328157" lon="31.2363656">
<ele>41.230000</ele>
<time>2026-08-31T20:54:02.000Z</time>
</trkpt>
<trkpt lat="59.5327747" lon="31.2362119">
<ele>41.309998</ele>
<time>2026-08-31T20:54:21.000Z</time>
</trkpt>
<trkpt lat="59.5327155" lon="31.2360605">
<ele>39.310001</ele>
<time>2026-08-31T20:54:45.000Z</time>
</trkpt>
<trkpt lat="59.5326793" lon="31.2359515">
<ele>37.959999</ele>
<time>2026-08-31T20:55:02.000Z</time>
</trkpt>
<trkpt lat="59.5326202" lon="31.2358972">
<ele>38.320000</ele>
<time>2026-08-31T20:55:21.000Z</time>
</trkpt>
<trkpt lat="59.5325375" lon="31.2356522">
<ele>37.170002</ele>
<time>2026-08-31T20:55:37.000Z</time>
</trkpt>
<trkpt lat="59.5324316" lon="31.2353871">
<ele>33.220001</ele>
<time>2026-08-31T20:55:55.000Z</time>
</trkpt>
<trkpt lat="59.5323682" lon="31.2352059">
<ele>31.639999</ele>
<time>2026-08-31T20:56:10.000Z</time>
</trkpt>
<trkpt lat="59.5322630" lon="31.2349467">
<ele>29.809999</ele>
<time>2026-08-31T20:56:29.000Z</time>
</trkpt>
<trkpt lat="59.5321906" lon="31.2347492">
<ele>28.040001</ele>
<time>2026-08-31T20:56:43.000Z</time>
</trkpt>
<trkpt lat="59.5321541" lon="31.2346984">
<ele>27.730000</ele>
<time>2026-08-31T20:57:00.000Z</time>
</trkpt>
<trkpt lat="59.5320777" lon="31.2345558">
<ele>27.840000</ele>
<time>2026-08-31T20:57:17.000Z</time>
</trkpt>
<trkpt lat="59.5320209" lon="31.2344062">
<ele>26.260000</ele>
<time>2026-08-31T20:57:35.000Z</time>
</trkpt>
<trkpt lat="59.5320150" lon="31.2343004">
<ele>27.289999</ele>
<time>2026-08-31T20:57:52.000Z</time>
</trkpt>
<trkpt lat="59.5320157" lon="31.2342295">
<ele>27.230001</ele>
<time>2026-08-31T20:58:04.000Z</time>
</trkpt>
<trkpt lat="59.5319235" lon="31.2340871">
<ele>27.139999</ele>
<time>2026-08-31T20:58:20.000Z</time>
</trkpt>
<trkpt lat="59.5318702" lon="31.2338610">
<ele>26.090000</ele>
<time>2026-08-31T20:58:39.000Z</time>
</trkpt>
<trkpt lat="59.5318437" lon="31.2336393">
<ele>28.110001</ele>
<time>2026-08-31T20:59:00.000Z</time>
</trkpt>
<trkpt lat="59.5318226" lon="31.2333705">
<ele>28.549999</ele>
<time>2026-08-31T20:59:16.000Z</time>
</trkpt>
<trkpt lat="59.5317884" lon="31.2331630">
<ele>28.460001</ele>
<time>2026-08-31T20:59:29.000Z</time>
</trkpt>
<trkpt lat="59.5318092" lon="31.2331633">
<ele>28.400000</ele>
<time>2026-08-31T20:59:46.000Z</time>
</trkpt>
<trkpt lat="59.5318068" lon="31.2330415">
<ele>28.530001</ele>
<time>2026-08-31T21:00:03.000Z</time>
</trkpt>
<trkpt lat="59.5317639" lon="31.2328209">
<ele>28.460001</ele>
<time>2026-08-31T21:00:22.000Z</time>
</trkpt>
<trkpt lat="59.5317324" lon="31.2325029">
<ele>28.279999</ele>
<time>2026-08-31T21:00:39.000Z</time>
</trkpt>
<trkpt lat="59.5317027" lon="31.2321394">
<ele>27.350000</ele>
<time>2026-08-31T21:00:59.000Z</time>
</trkpt>
<trkpt lat="59.5316659" lon="31.2316210">
<ele>28.910000</ele>
<time>2026-08-31T21:01:17.000Z</time>
</trkpt>
<trkpt lat="59.5316608" lon="31.2314751">
<ele>29.700001</ele>
<time>2026-08-31T21:01:23.000Z</time>
</trkpt>
<trkpt lat="59.5316740" lon="31.2312399">
<ele>32.459999</ele>
<time>2026-08-31T21:01:35.000Z</time>
</trkpt>
<trkpt lat="59.5316754" lon="31.2311283">
<ele>32.860001</ele>
<time>2026-08-31T21:01:40.000Z</time>
</trkpt>
<trkpt lat="59.5316853" lon="31.2310834">
<ele>33.389999</ele>
<time>2026-08-31T21:01:42.000Z</time>
</trkpt>
<trkpt lat="59.5316941" lon="31.2310348">
<ele>33.830002</ele>
<time>2026-08-31T21:01:44.000Z</time>
</trkpt>
<trkpt lat="59.5317018" lon="31.2309382">
<ele>34.660000</ele>
<time>2026-08-31T21:01:48.000Z</time>
</trkpt>
<trkpt lat="59.5317707" lon="31.2305796">
<ele>37.560001</ele>
<time>2026-08-31T21:02:03.000Z</time>
</trkpt>
<trkpt lat="59.5318084" lon="31.2303365">
<ele>36.990002</ele>
<time>2026-08-31T21:02:18.000Z</time>
</trkpt>
<trkpt lat="59.5318147" lon="31.2301202">
<ele>38.480000</ele>
<time>2026-08-31T21:02:35.000Z</time>
</trkpt>
<trkpt lat="59.5318298" lon="31.2300005">
<ele>38.580002</ele>
<time>2026-08-31T21:02:41.000Z</time>
</trkpt>
<trkpt lat="59.5318370" lon="31.2296910">
<ele>37.459999</ele>
<time>2026-08-31T21:02:55.000Z</time>
</trkpt>
<trkpt lat="59.5318335" lon="31.2293036">
<ele>37.070000</ele>
<time>2026-08-31T21:03:13.000Z</time>
</trkpt>
<trkpt lat="59.5318541" lon="31.2291392">
<ele>37.510002</ele>
<time>2026-08-31T21:03:28.000Z</time>
</trkpt>
<trkpt lat="59.5318538" lon="31.2292198">
<ele>39.790001</ele>
<time>2026-08-31T21:03:42.000Z</time>
</trkpt>
<trkpt lat="59.5318660" lon="31.2289744">
<ele>39.670002</ele>
<time>2026-08-31T21:03:54.000Z</time>
</trkpt>
<trkpt lat="59.5318478" lon="31.2288034">
<ele>38.049999</ele>
<time>2026-08-31T21:04:11.000Z</time>
</trkpt>
<trkpt lat="59.5318164" lon="31.2286291">
<ele>37.950001</ele>
<time>2026-08-31T21:04:33.000Z</time>
</trkpt>
<trkpt lat="59.5318753" lon="31.2283592">
<ele>39.570000</ele>
<time>2026-08-31T21:04:47.000Z</time>
</trkpt>
<trkpt lat="59.5319100" lon="31.2280951">
<ele>38.540001</ele>
<time>2026-08-31T21:05:03.000Z</time>
</trkpt>
<trkpt lat="59.5319137" lon="31.2280414">
<ele>38.220001</ele>
<time>2026-08-31T21:05:06.000Z</time>
</trkpt>
<trkpt lat="59.5319662" lon="31.2278067">
<ele>36.770000</ele>
<time>2026-08-31T21:05:24.000Z</time>
</trkpt>
<trkpt lat="59.5320269" lon="31.2276247">
<ele>36.760002</ele>
<time>2026-08-31T21:05:41.000Z</time>
</trkpt>
<trkpt lat="59.5321520" lon="31.2274962">
<ele>36.959999</ele>
<time>2026-08-31T21:06:03.000Z</time>
</trkpt>
<trkpt lat="59.5322317" lon="31.2274527">
<ele>36.959999</ele>
<time>2026-08-31T21:06:21.000Z</time>
</trkpt>
<trkpt lat="59.5323623" lon="31.2273597">
<ele>35.049999</ele>
<time>2026-08-31T21:06:39.000Z</time>
</trkpt>
<trkpt lat="59.5324752" lon="31.2272065">
<ele>32.869999</ele>
<time>2026-08-31T21:06:56.000Z</time>
</trkpt>
<trkpt lat="59.5326195" lon="31.2271047">
<ele>30.670000</ele>
<time>2026-08-31T21:07:18.000Z</time>
</trkpt>
<trkpt lat="59.5327382" lon="31.2269907">
<ele>32.139999</ele>
<time>2026-08-31T21:07:38.000Z</time>
</trkpt>
<trkpt lat="59.5328518" lon="31.2268815">
<ele>32.119999</ele>
<time>2026-08-31T21:07:57.000Z</time>
</trkpt>
<trkpt lat="59.5329083" lon="31.2266690">
<ele>30.620001</ele>
<time>2026-08-31T21:08:17.000Z</time>
</trkpt>
<trkpt lat="59.5329538" lon="31.2264633">
<ele>30.690001</ele>
<time>2026-08-31T21:08:32.000Z</time>
</trkpt>
<trkpt lat="59.5330048" lon="31.2262711">
<ele>30.580000</ele>
<time>2026-08-31T21:08:49.000Z</time>
</trkpt>
<trkpt lat="59.5329833" lon="31.2262363">
<ele>31.580000</ele>
<time>2026-08-31T21:09:13.000Z</time>
</trkpt>
<trkpt lat="59.5329814" lon="31.2262492">
<ele>31.430000</ele>
<time>2026-08-31T21:09:31.000Z</time>
</trkpt>
<trkpt lat="59.5329897" lon="31.2263286">
<ele>32.959999</ele>
<time>2026-08-31T21:09:58.000Z</time>
</trkpt>
<trkpt lat="59.5329947" lon="31.2263304">
<ele>33.070000</ele>
<time>2026-08-31T21:09:59.000Z</time>
</trkpt>
<trkpt lat="59.5330313" lon="31.2263319">
<ele>34.810001</ele>
<time>2026-08-31T21:10:25.000Z</time>
</trkpt>
<trkpt lat="59.5330750" lon="31.2263104">
<ele>35.810001</ele>
<time>2026-08-31T21:10:53.000Z</time>
</trkpt>
<trkpt lat="59.5329770" lon="31.2261884">
<ele>35.700001</ele>
<time>2026-08-31T21:11:06.000Z</time>
</trkpt>
<trkpt lat="59.5329289" lon="31.2262355">
<ele>36.689999</ele>
<time>2026-08-31T21:11:33.000Z</time>
</trkpt>
<trkpt lat="59.5330072" lon="31.2263045">
<ele>39.440002</ele>
<time>2026-08-31T21:11:58.000Z</time>
</trkpt>
<trkpt lat="59.5330026" lon="31.2262622">
<ele>40.050003</ele>
<time>2026-08-31T21:12:25.000Z</time>
</trkpt>
<trkpt lat="59.5329459" lon="31.2262750">
<ele>40.990002</ele>
<time>2026-08-31T21:12:50.000Z</time>
</trkpt>
<trkpt lat="59.5329784" lon="31.2262438">
<ele>41.070000</ele>
<time>2026-08-31T21:13:12.000Z</time>
</trkpt>
<trkpt lat="59.5330531" lon="31.2261261">
<ele>40.930000</ele>
<time>2026-08-31T21:13:22.000Z</time>
</trkpt>
<trkpt lat="59.5332170" lon="31.2260085">
<ele>38.299999</ele>
<time>2026-08-31T21:13:37.000Z</time>
</trkpt>
<trkpt lat="59.5334008" lon="31.2259095">
<ele>34.360001</ele>
<time>2026-08-31T21:13:52.000Z</time>
</trkpt>
<trkpt lat="59.5334320" lon="31.2258892">
<ele>33.419998</ele>
<time>2026-08-31T21:13:55.000Z</time>
</trkpt>
<trkpt lat="59.5335477" lon="31.2257390">
<ele>28.129999</ele>
<time>2026-08-31T21:14:09.000Z</time>
</trkpt>
<trkpt lat="59.5335837" lon="31.2256711">
<ele>25.539999</ele>
<time>2026-08-31T21:14:28.000Z</time>
</trkpt>
<trkpt lat="59.5336436" lon="31.2257552">
<ele>25.130001</ele>
<time>2026-08-31T21:14:44.000Z</time>
</trkpt>
<trkpt lat="59.5337058" lon="31.2256731">
<ele>24.080000</ele>
<time>2026-08-31T21:15:01.000Z</time>
</trkpt>
<trkpt lat="59.5336911" lon="31.2255615">
<ele>24.030001</ele>
<time>2026-08-31T21:15:21.000Z</time>
</trkpt>
<trkpt lat="59.5337173" lon="31.2255791">
<ele>24.370001</ele>
<time>2026-08-31T21:15:40.000Z</time>
</trkpt>
<trkpt lat="59.5337842" lon="31.2253886">
<ele>25.970001</ele>
<time>2026-08-31T21:16:00.000Z</time>
</trkpt>
<trkpt lat="59.5337921" lon="31.2253699">
<ele>26.200001</ele>
<time>2026-08-31T21:16:01.000Z</time>
</trkpt>
<trkpt lat="59.5338796" lon="31.2252693">
<ele>27.049999</ele>
<time>2026-08-31T21:16:10.000Z</time>
</trkpt>
<trkpt lat="59.5339255" lon="31.2250663">
<ele>26.090000</ele>
<time>2026-08-31T21:16:26.000Z</time>
</trkpt>
<trkpt lat="59.5340113" lon="31.2249658">
<ele>24.359999</ele>
<time>2026-08-31T21:16:39.000Z</time>
</trkpt>
<trkpt lat="59.5340714" lon="31.2248231">
<ele>22.540001</ele>
<time>2026-08-31T21:16:51.000Z</time>
</trkpt>
<trkpt lat="59.5341747" lon="31.2246969">
<ele>20.290001</ele>
<time>2026-08-31T21:17:09.000Z</time>
</trkpt>
<trkpt lat="59.5342574" lon="31.2245431">
<ele>16.789999</ele>
<time>2026-08-31T21:17:24.000Z</time>
</trkpt>
<trkpt lat="59.5343730" lon="31.2243362">
<ele>16.490000</ele>
<time>2026-08-31T21:17:41.000Z</time>
</trkpt>
<trkpt lat="59.5343891" lon="31.2243045">
<ele>16.700001</ele>
<time>2026-08-31T21:17:43.000Z</time>
</trkpt>
<trkpt lat="59.5344545" lon="31.2242014">
<ele>17.580000</ele>
<time>2026-08-31T21:17:50.000Z</time>
</trkpt>
<trkpt lat="59.5345219" lon="31.2241356">
<ele>17.049999</ele>
<time>2026-08-31T21:18:10.000Z</time>
</trkpt>
<trkpt lat="59.5345425" lon="31.2241550">
<ele>18.580000</ele>
<time>2026-08-31T21:18:32.000Z</time>
</trkpt>
<trkpt lat="59.5345328" lon="31.2241204">
<ele>21.349998</ele>
<time>2026-08-31T21:18:48.000Z</time>
</trkpt>
<trkpt lat="59.5345126" lon="31.2240919">
<ele>23.000000</ele>
<time>2026-08-31T21:19:11.000Z</time>
</trkpt>
<trkpt lat="59.5345358" lon="31.2241222">
<ele>25.999998</ele>
<time>2026-08-31T21:19:36.000Z</time>
</trkpt>
<trkpt lat="59.5345266" lon="31.2240418">
<ele>29.230000</ele>
<time>2026-08-31T21:20:03.000Z</time>
</trkpt>
<trkpt lat="59.5345809" lon="31.2239810">
<ele>30.369999</ele>
<time>2026-08-31T21:20:29.000Z</time>
</trkpt>
<trkpt lat="59.5345375" lon="31.2239839">
<ele>29.210001</ele>
<time>2026-08-31T21:20:58.000Z</time>
</trkpt>
<trkpt lat="59.5345230" lon="31.2239964">
<ele>29.910000</ele>
<time>2026-08-31T21:21:24.000Z</time>
</trkpt>
<trkpt lat="59.5345457" lon="31.2240521">
<ele>30.440001</ele>
<time>2026-08-31T21:21:48.000Z</time>
</trkpt>
<trkpt lat="59.5345570" lon="31.2240510">
<ele>30.299999</ele>
<time>2026-08-31T21:22:16.000Z</time>
</trkpt>
<trkpt lat="59.5345913" lon="31.2240126">
<ele>29.930000</ele>
<time>2026-08-31T21:22:41.000Z</time>
</trkpt>
<trkpt lat="59.5346040" lon="31.2239250">
<ele>29.009998</ele>
<time>2026-08-31T21:23:01.000Z</time>
</trkpt>
<trkpt lat="59.5346365" lon="31.2237801">
<ele>28.820000</ele>
<time>2026-08-31T21:23:11.000Z</time>
</trkpt>
<trkpt lat="59.5346697" lon="31.2237049">
<ele>28.920000</ele>
<time>2026-08-31T21:23:15.000Z</time>
</trkpt>
<trkpt lat="59.5346999" lon="31.2236514">
<ele>28.929998</ele>
<time>2026-08-31T21:23:19.000Z</time>
</trkpt>
<trkpt lat="59.5347868" lon="31.2234765">
<ele>26.799999</ele>
<time>2026-08-31T21:23:33.000Z</time>
</trkpt>
<trkpt lat="59.5348573" lon="31.2232225">
<ele>21.490000</ele>
<time>2026-08-31T21:23:51.000Z</time>
</trkpt>
<trkpt lat="59.5349386" lon="31.2230416">
<ele>18.730000</ele>
<time>2026-08-31T21:24:06.000Z</time>
</trkpt>
<trkpt lat="59.5350275" lon="31.2227755">
<ele>18.309999</ele>
<time>2026-08-31T21:24:23.000Z</time>
</trkpt>
<trkpt lat="59.5351066" lon="31.2226324">
<ele>17.949999</ele>
<time>2026-08-31T21:24:34.000Z</time>
</trkpt>
<trkpt lat="59.5351488" lon="31.2224215">
<ele>18.860001</ele>
<time>2026-08-31T21:24:44.000Z</time>
</trkpt>
<trkpt lat="59.5351603" lon="31.2223868">
<ele>18.879999</ele>
<time>2026-08-31T21:24:46.000Z</time>
</trkpt>
<trkpt lat="59.5352539" lon="31.2220945">
<ele>20.140001</ele>
<time>2026-08-31T21:25:01.000Z</time>
</trkpt>
<trkpt lat="59.5352984" lon="31.2219355">
<ele>20.690001</ele>
<time>2026-08-31T21:25:08.000Z</time>
</trkpt>
<trkpt lat="59.5353435" lon="31.2218292">
<ele>20.990000</ele>
<time>2026-08-31T21:25:14.000Z</time>
</trkpt>
<trkpt lat="59.5353993" lon="31.2217284">
<ele>20.400000</ele>
<time>2026-08-31T21:25:27.000Z</time>
</trkpt>
<trkpt lat="59.5354062" lon="31.2217092">
<ele>20.879999</ele>
<time>2026-08-31T21:25:46.000Z</time>
</trkpt>
<trkpt lat="59.5354170" lon="31.2217454">
<ele>20.190001</ele>
<time>2026-08-31T21:26:14.000Z</time>
</trkpt>
<trkpt lat="59.5353584" lon="31.2217112">
<ele>22.639999</ele>
<time>2026-08-31T21:26:40.000Z</time>
</trkpt>
<trkpt lat="59.5354683" lon="31.2217353">
<ele>22.880001</ele>
<time>2026-08-31T21:27:07.000Z</time>
</trkpt>
<trkpt lat="59.5355197" lon="31.2216336">
<ele>23.300001</ele>
<time>2026-08-31T21:27:31.000Z</time>
</trkpt>
<trkpt lat="59.5355270" lon="31.2213537">
<ele>25.219999</ele>
<time>2026-08-31T21:27:47.000Z</time>
</trkpt>
<trkpt lat="59.5355626" lon="31.2210339">
<ele>20.290001</ele>
<time>2026-08-31T21:28:06.000Z</time>
</trkpt>
<trkpt lat="59.5355621" lon="31.2209642">
<ele>20.010000</ele>
<time>2026-08-31T21:28:09.000Z</time>
</trkpt>
<trkpt lat="59.5355633" lon="31.2206178">
<ele>16.760000</ele>
<time>2026-08-31T21:28:25.000Z</time>
</trkpt>
<trkpt lat="59.5355348" lon="31.2205788">
<ele>17.100000</ele>
<time>2026-08-31T21:28:29.000Z</time>
</trkpt>
<trkpt lat="59.5355495" lon="31.2203353">
<ele>16.820000</ele>
<time>2026-08-31T21:28:52.000Z</time>
</trkpt>
<trkpt lat="59.5355875" lon="31.2200540">
<ele>16.990000</ele>
<time>2026-08-31T21:29:09.000Z</time>
</trkpt>
<trkpt lat="59.5356220" lon="31.2198417">
<ele>17.010000</ele>
<time>2026-08-31T21:29:22.000Z</time>
</trkpt>
<trkpt lat="59.5356609" lon="31.2196154">
<ele>16.670000</ele>
<time>2026-08-31T21:29:36.000Z</time>
</trkpt>
<trkpt lat="59.5357571" lon="31.2194220">
<ele>16.270000</ele>
<time>2026-08-31T21:29:51.000Z</time>
</trkpt>
<trkpt lat="59.5357998" lon="31.2193751">
<ele>16.450001</ele>
<time>2026-08-31T21:30:05.000Z</time>
</trkpt>
<trkpt lat="59.5358650" lon="31.2193943">
<ele>17.370001</ele>
<time>2026-08-31T21:30:24.000Z</time>
</trkpt>
<trkpt lat="59.5358952" lon="31.2192472">
<ele>16.830000</ele>
<time>2026-08-31T21:30:42.000Z</time>
</trkpt>
<trkpt lat="59.5359177" lon="31.2191703">
<ele>15.220000</ele>
<time>2026-08-31T21:30:59.000Z</time>
</trkpt>
<trkpt lat="59.5359269" lon="31.2191878">
<ele>15.929999</ele>
<time>2026-08-31T21:31:20.000Z</time>
</trkpt>
<trkpt lat="59.5359639" lon="31.2191782">
<ele>16.559999</ele>
<time>2026-08-31T21:31:46.000Z</time>
</trkpt>
<trkpt lat="59.5359830" lon="31.2191936">
<ele>17.790001</ele>
<time>2026-08-31T21:32:08.000Z</time>
</trkpt>
<trkpt lat="59.5360097" lon="31.2192378">
<ele>20.279999</ele>
<time>2026-08-31T21:32:30.000Z</time>
</trkpt>
<trkpt lat="59.5359692" lon="31.2192389">
<ele>21.769999</ele>
<time>2026-08-31T21:32:54.000Z</time>
</trkpt>
<trkpt lat="59.5359398" lon="31.2192489">
<ele>22.130001</ele>
<time>2026-08-31T21:33:17.000Z</time>
</trkpt>
<trkpt lat="59.5359609" lon="31.2192163">
<ele>21.290001</ele>
<time>2026-08-31T21:33:39.000Z</time>
</trkpt>
<trkpt lat="59.5359458" lon="31.2191444">
<ele>21.670000</ele>
<time>2026-08-31T21:34:05.000Z</time>
</trkpt>
<trkpt lat="59.5359362" lon="31.2191396">
<ele>24.570000</ele>
<time>2026-08-31T21:34:50.000Z</time>
</trkpt>
<trkpt lat="59.5359155" lon="31.2191636">
<ele>24.799999</ele>
<time>2026-08-31T21:35:17.000Z</time>
</trkpt>
<trkpt lat="59.5359184" lon="31.2191458">
<ele>23.330000</ele>
<time>2026-08-31T21:35:43.000Z</time>
</trkpt>
<trkpt lat="59.5359246" lon="31.2191371">
<ele>24.549999</ele>
<time>2026-08-31T21:36:11.000Z</time>
</trkpt>
<trkpt lat="59.5359443" lon="31.2191682">
<ele>25.070000</ele>
<time>2026-08-31T21:36:42.000Z</time>
</trkpt>
<trkpt lat="59.5359409" lon="31.2191018">
<ele>27.150002</ele>
<time>2026-08-31T21:37:09.000Z</time>
</trkpt>
<trkpt lat="59.5359303" lon="31.2190984">
<ele>26.830000</ele>
<time>2026-08-31T21:37:30.000Z</time>
</trkpt>
<trkpt lat="59.5359488" lon="31.2192022">
<ele>26.639999</ele>
<time>2026-08-31T21:37:48.000Z</time>
</trkpt>
<trkpt lat="59.5359021" lon="31.2191937">
<ele>28.439999</ele>
<time>2026-08-31T21:38:16.000Z</time>
</trkpt>
<trkpt lat="59.5359336" lon="31.2191319">
<ele>26.289999</ele>
<time>2026-08-31T21:38:43.000Z</time>
</trkpt>
<trkpt lat="59.5360516" lon="31.2189897">
<ele>25.090000</ele>
<time>2026-08-31T21:39:00.000Z</time>
</trkpt>
<trkpt lat="59.5360711" lon="31.2189139">
<ele>24.400000</ele>
<time>2026-08-31T21:39:05.000Z</time>
</trkpt>
<trkpt lat="59.5361684" lon="31.2186989">
<ele>22.709999</ele>
<time>2026-08-31T21:39:20.000Z</time>
</trkpt>
<trkpt lat="59.5362909" lon="31.2184598">
<ele>21.230000</ele>
<time>2026-08-31T21:39:37.000Z</time>
</trkpt>
<trkpt lat="59.5364046" lon="31.2182831">
<ele>19.629999</ele>
<time>2026-08-31T21:39:49.000Z</time>
</trkpt>
<trkpt lat="59.5364423" lon="31.2181814">
<ele>18.199999</ele>
<time>2026-08-31T21:39:59.000Z</time>
</trkpt>
<trkpt lat="59.5364342" lon="31.2181331">
<ele>19.460001</ele>
<time>2026-08-31T21:40:13.000Z</time>
</trkpt>
<trkpt lat="59.5364477" lon="31.2181477">
<ele>21.920000</ele>
<time>2026-08-31T21:40:32.000Z</time>
</trkpt>
<trkpt lat="59.5364324" lon="31.2181327">
<ele>26.639999</ele>
<time>2026-08-31T21:40:52.000Z</time>
</trkpt>
<trkpt lat="59.5364633" lon="31.2181101">
<ele>27.700001</ele>
<time>2026-08-31T21:41:11.000Z</time>
</trkpt>
<trkpt lat="59.5364779" lon="31.2180881">
<ele>27.869999</ele>
<time>2026-08-31T21:41:33.000Z</time>
</trkpt>
<trkpt lat="59.5364551" lon="31.2181203">
<ele>28.490000</ele>
<time>2026-08-31T21:41:55.000Z</time>
</trkpt>
<trkpt lat="59.5364469" lon="31.2181145">
<ele>28.230000</ele>
<time>2026-08-31T21:42:14.000Z</time>
</trkpt>
<trkpt lat="59.5364418" lon="31.2180873">
<ele>27.500000</ele>
<time>2026-08-31T21:42:29.000Z</time>
</trkpt>
<trkpt lat="59.5364499" lon="31.2181086">
<ele>27.990002</ele>
<time>2026-08-31T21:42:46.000Z</time>
</trkpt>
<trkpt lat="59.5364690" lon="31.2180508">
<ele>28.150000</ele>
<time>2026-08-31T21:43:15.000Z</time>
</trkpt>
<trkpt lat="59.5364850" lon="31.2179967">
<ele>27.469999</ele>
<time>2026-08-31T21:43:37.000Z</time>
</trkpt>
<trkpt lat="59.5365612" lon="31.2178824">
<ele>25.999998</ele>
<time>2026-08-31T21:43:46.000Z</time>
</trkpt>
<trkpt lat="59.5365996" lon="31.2178210">
<ele>25.780001</ele>
<time>2026-08-31T21:43:50.000Z</time>
</trkpt>
<trkpt lat="59.5367077" lon="31.2176022">
<ele>24.059999</ele>
<time>2026-08-31T21:44:06.000Z</time>
</trkpt>
<trkpt lat="59.5367380" lon="31.2175274">
<ele>23.320000</ele>
<time>2026-08-31T21:44:12.000Z</time>
</trkpt>
<trkpt lat="59.5367985" lon="31.2173786">
<ele>20.119999</ele>
<time>2026-08-31T21:44:27.000Z</time>
</trkpt>
<trkpt lat="59.5368018" lon="31.2173166">
<ele>19.760000</ele>
<time>2026-08-31T21:44:33.000Z</time>
</trkpt>
<trkpt lat="59.5367994" lon="31.2171890">
<ele>20.290001</ele>
<time>2026-08-31T21:44:41.000Z</time>
</trkpt>
<trkpt lat="59.5368144" lon="31.2171315">
<ele>20.119999</ele>
<time>2026-08-31T21:44:44.000Z</time>
</trkpt>
<trkpt lat="59.5368196" lon="31.2170935">
<ele>19.870001</ele>
<time>2026-08-31T21:44:46.000Z</time>
</trkpt>
<trkpt lat="59.5369134" lon="31.2168014">
<ele>18.950001</ele>
<time>2026-08-31T21:45:02.000Z</time>
</trkpt>
<trkpt lat="59.5369702" lon="31.2165860">
<ele>19.049999</ele>
<time>2026-08-31T21:45:13.000Z</time>
</trkpt>
<trkpt lat="59.5370596" lon="31.2163389">
<ele>15.740000</ele>
<time>2026-08-31T21:45:27.000Z</time>
</trkpt>
<trkpt lat="59.5371129" lon="31.2162226">
<ele>15.480000</ele>
<time>2026-08-31T21:45:42.000Z</time>
</trkpt>
<trkpt lat="59.5371484" lon="31.2161106">
<ele>18.520000</ele>
<time>2026-08-31T21:45:54.000Z</time>
</trkpt>
<trkpt lat="59.5371865" lon="31.2159901">
<ele>19.709999</ele>
<time>2026-08-31T21:46:10.000Z</time>
</trkpt>
<trkpt lat="59.5372518" lon="31.2158541">
<ele>19.510000</ele>
<time>2026-08-31T21:46:25.000Z</time>
</trkpt>
<trkpt lat="59.5372167" lon="31.2157540">
<ele>21.930000</ele>
<time>2026-08-31T21:46:47.000Z</time>
</trkpt>
<trkpt lat="59.5372419" lon="31.2157613">
<ele>24.140001</ele>
<time>2026-08-31T21:47:14.000Z</time>
</trkpt>
<trkpt lat="59.5372485" lon="31.2157769">
<ele>26.920000</ele>
<time>2026-08-31T21:47:33.000Z</time>
</trkpt>
<trkpt lat="59.5372498" lon="31.2157920">
<ele>26.980000</ele>
<time>2026-08-31T21:47:52.000Z</time>
</trkpt>
<trkpt lat="59.5372548" lon="31.2158258">
<ele>27.430000</ele>
<time>2026-08-31T21:48:19.000Z</time>
</trkpt>
<trkpt lat="59.5372927" lon="31.2157246">
<ele>27.000000</ele>
<time>2026-08-31T21:48:40.000Z</time>
</trkpt>
<trkpt lat="59.5372974" lon="31.2157131">
<ele>26.850000</ele>
<time>2026-08-31T21:48:41.000Z</time>
</trkpt>
<trkpt lat="59.5374311" lon="31.2156059">
<ele>25.879999</ele>
<time>2026-08-31T21:48:56.000Z</time>
</trkpt>
<trkpt lat="59.5375319" lon="31.2154415">
<ele>23.400000</ele>
<time>2026-08-31T21:49:08.000Z</time>
</trkpt>
<trkpt lat="59.5375378" lon="31.2154218">
<ele>23.099998</ele>
<time>2026-08-31T21:49:09.000Z</time>
</trkpt>
<trkpt lat="59.5376055" lon="31.2152339">
<ele>20.150000</ele>
<time>2026-08-31T21:49:23.000Z</time>
</trkpt>
<trkpt lat="59.5376129" lon="31.2151266">
<ele>22.690001</ele>
<time>2026-08-31T21:49:36.000Z</time>
</trkpt>
<trkpt lat="59.5376180" lon="31.2151143">
<ele>22.419998</ele>
<time>2026-08-31T21:49:37.000Z</time>
</trkpt>
<trkpt lat="59.5376485" lon="31.2150461">
<ele>22.550001</ele>
<time>2026-08-31T21:49:41.000Z</time>
</trkpt>
<trkpt lat="59.5377369" lon="31.2148532">
<ele>21.429998</ele>
<time>2026-08-31T21:49:54.000Z</time>
</trkpt>
<trkpt lat="59.5377538" lon="31.2147893">
<ele>22.240000</ele>
<time>2026-08-31T21:50:05.000Z</time>
</trkpt>
<trkpt lat="59.5378292" lon="31.2146354">
<ele>23.500000</ele>
<time>2026-08-31T21:50:15.000Z</time>
</trkpt>
<trkpt lat="59.5379368" lon="31.2143876">
<ele>24.520000</ele>
<time>2026-08-31T21:50:29.000Z</time>
</trkpt>
<trkpt lat="59.5379698" lon="31.2142923">
<ele>23.690001</ele>
<time>2026-08-31T21:50:34.000Z</time>
</trkpt>
<trkpt lat="59.5379987" lon="31.2141238">
<ele>23.090000</ele>
<time>2026-08-31T21:50:41.000Z</time>
</trkpt>
<trkpt lat="59.5380181" lon="31.2140652">
<ele>22.860001</ele>
<time>2026-08-31T21:50:44.000Z</time>
</trkpt>
<trkpt lat="59.5380493" lon="31.2139202">
<ele>23.809999</ele>
<time>2026-08-31T21:50:52.000Z</time>
</trkpt>
<trkpt lat="59.5380852" lon="31.2138370">
<ele>23.660000</ele>
<time>2026-08-31T21:50:57.000Z</time>
</trkpt>
<trkpt lat="59.5381727" lon="31.2136213">
<ele>24.950001</ele>
<time>2026-08-31T21:51:13.000Z</time>
</trkpt>
<trkpt lat="59.5382164" lon="31.2135793">
<ele>25.290001</ele>
<time>2026-08-31T21:51:28.000Z</time>
</trkpt>
<trkpt lat="59.5381985" lon="31.2135184">
<ele>25.830000</ele>
<time>2026-08-31T21:51:43.000Z</time>
</trkpt>
<trkpt lat="59.5381842" lon="31.2135410">
<ele>29.920000</ele>
<time>2026-08-31T21:52:06.000Z</time>
</trkpt>
<trkpt lat="59.5382081" lon="31.2135598">
<ele>32.030003</ele>
<time>2026-08-31T21:52:29.000Z</time>
</trkpt>
<trkpt lat="59.5382813" lon="31.2135937">
<ele>33.750000</ele>
<time>2026-08-31T21:52:51.000Z</time>
</trkpt>
<trkpt lat="59.5382211" lon="31.2135841">
<ele>38.200001</ele>
<time>2026-08-31T21:53:23.000Z</time>
</trkpt>
<trkpt lat="59.5382386" lon="31.2135748">
<ele>39.570000</ele>
<time>2026-08-31T21:53:52.000Z</time>
</trkpt>
<trkpt lat="59.5382647" lon="31.2134511">
<ele>42.510002</ele>
<time>2026-08-31T21:54:16.000Z</time>
</trkpt>
<trkpt lat="59.5382897" lon="31.2134337">
<ele>41.880001</ele>
<time>2026-08-31T21:54:33.000Z</time>
</trkpt>
<trkpt lat="59.5383825" lon="31.2132387">
<ele>41.580002</ele>
<time>2026-08-31T21:54:52.000Z</time>
</trkpt>
<trkpt lat="59.5384395" lon="31.2130783">
<ele>41.459999</ele>
<time>2026-08-31T21:55:00.000Z</time>
</trkpt>
<trkpt lat="59.5384576" lon="31.2130632">
<ele>41.420002</ele>
<time>2026-08-31T21:55:02.000Z</time>
</trkpt>
<trkpt lat="59.5385171" lon="31.2129230">
<ele>41.070000</ele>
<time>2026-08-31T21:55:09.000Z</time>
</trkpt>
<trkpt lat="59.5385567" lon="31.2128214">
<ele>41.169998</ele>
<time>2026-08-31T21:55:15.000Z</time>
</trkpt>
<trkpt lat="59.5385776" lon="31.2127348">
<ele>40.649998</ele>
<time>2026-08-31T21:55:19.000Z</time>
</trkpt>
<trkpt lat="59.5386256" lon="31.2126491">
<ele>39.949997</ele>
<time>2026-08-31T21:55:25.000Z</time>
</trkpt>
<trkpt lat="59.5387021" lon="31.2123740">
<ele>38.910000</ele>
<time>2026-08-31T21:55:39.000Z</time>
</trkpt>
<trkpt lat="59.5387180" lon="31.2122916">
<ele>37.750000</ele>
<time>2026-08-31T21:55:49.000Z</time>
</trkpt>
<trkpt lat="59.5387467" lon="31.2120720">
<ele>36.730000</ele>
<time>2026-08-31T21:56:05.000Z</time>
</trkpt>
<trkpt lat="59.5387663" lon="31.2118762">
<ele>35.760002</ele>
<time>2026-08-31T21:56:19.000Z</time>
</trkpt>
<trkpt lat="59.5387757" lon="31.2116654">
<ele>32.810001</ele>
<time>2026-08-31T21:56:29.000Z</time>
</trkpt>
<trkpt lat="59.5387706" lon="31.2115074">
<ele>31.209999</ele>
<time>2026-08-31T21:56:42.000Z</time>
</trkpt>
<trkpt lat="59.5387975" lon="31.2113332">
<ele>31.610001</ele>
<time>2026-08-31T21:56:58.000Z</time>
</trkpt>
<trkpt lat="59.5388003" lon="31.2111054">
<ele>30.299999</ele>
<time>2026-08-31T21:57:15.000Z</time>
</trkpt>
<trkpt lat="59.5388351" lon="31.2111027">
<ele>29.700001</ele>
<time>2026-08-31T21:57:36.000Z</time>
</trkpt>
<trkpt lat="59.5387887" lon="31.2110483">
<ele>31.010000</ele>
<time>2026-08-31T21:58:05.000Z</time>
</trkpt>
<trkpt lat="59.5388164" lon="31.2110345">
<ele>32.299999</ele>
<time>2026-08-31T21:58:24.000Z</time>
</trkpt>
<trkpt lat="59.5388251" lon="31.2110326">
<ele>32.840000</ele>
<time>2026-08-31T21:58:25.000Z</time>
</trkpt>
<trkpt lat="59.5388681" lon="31.2110622">
<ele>36.420002</ele>
<time>2026-08-31T21:58:51.000Z</time>
</trkpt>
<trkpt lat="59.5388509" lon="31.2111026">
<ele>36.730000</ele>
<time>2026-08-31T21:59:14.000Z</time>
</trkpt>
<trkpt lat="59.5388366" lon="31.2111447">
<ele>35.520000</ele>
<time>2026-08-31T21:59:32.000Z</time>
</trkpt>
<trkpt lat="59.5388373" lon="31.2112068">
<ele>34.610001</ele>
<time>2026-08-31T21:59:54.000Z</time>
</trkpt>
<trkpt lat="59.5387928" lon="31.2111487">
<ele>34.379997</ele>
<time>2026-08-31T22:00:21.000Z</time>
</trkpt>
<trkpt lat="59.5388012" lon="31.2110580">
<ele>34.320000</ele>
<time>2026-08-31T22:00:35.000Z</time>
</trkpt>
<trkpt lat="59.5388002" lon="31.2110572">
<ele>34.290001</ele>
<time>2026-08-31T22:00:38.000Z</time>
</trkpt>
<trkpt lat="59.5388218" lon="31.2109565">
<ele>35.000000</ele>
<time>2026-08-31T22:00:50.000Z</time>
</trkpt>
<trkpt lat="59.5388660" lon="31.2108347">
<ele>34.010002</ele>
<time>2026-08-31T22:01:07.000Z</time>
</trkpt>
<trkpt lat="59.5389065" lon="31.2105537">
<ele>29.949999</ele>
<time>2026-08-31T22:01:23.000Z</time>
</trkpt>
<trkpt lat="59.5389271" lon="31.2103731">
<ele>28.150000</ele>
<time>2026-08-31T22:01:30.000Z</time>
</trkpt>
<trkpt lat="59.5389460" lon="31.2100586">
<ele>28.699999</ele>
<time>2026-08-31T22:01:40.000Z</time>
</trkpt>
<trkpt lat="59.5389282" lon="31.2098410">
<ele>31.110001</ele>
<time>2026-08-31T22:02:00.000Z</time>
</trkpt>
<trkpt lat="59.5389029" lon="31.2097707">
<ele>34.049999</ele>
<time>2026-08-31T22:02:17.000Z</time>
</trkpt>
<trkpt lat="59.5389109" lon="31.2096408">
<ele>35.430000</ele>
<time>2026-08-31T22:02:31.000Z</time>
</trkpt>
<trkpt lat="59.5389564" lon="31.2094928">
<ele>36.330002</ele>
<time>2026-08-31T22:02:37.000Z</time>
</trkpt>
<trkpt lat="59.5390182" lon="31.2092196">
<ele>36.009998</ele>
<time>2026-08-31T22:02:49.000Z</time>
</trkpt>
<trkpt lat="59.5390356" lon="31.2090081">
<ele>35.580002</ele>
<time>2026-08-31T22:02:59.000Z</time>
</trkpt>
<trkpt lat="59.5390895" lon="31.2085765">
<ele>35.340000</ele>
<time>2026-08-31T22:03:15.000Z</time>
</trkpt>
<trkpt lat="59.5390435" lon="31.2082643">
<ele>31.120001</ele>
<time>2026-08-31T22:03:30.000Z</time>
</trkpt>
<trkpt lat="59.5390467" lon="31.2082251">
<ele>30.910000</ele>
<time>2026-08-31T22:03:32.000Z</time>
</trkpt>
<trkpt lat="59.5389980" lon="31.2079145">
<ele>25.379999</ele>
<time>2026-08-31T22:03:49.000Z</time>
</trkpt>
<trkpt lat="59.5389704" lon="31.2078519">
<ele>24.940001</ele>
<time>2026-08-31T22:04:00.000Z</time>
</trkpt>
<trkpt lat="59.5390414" lon="31.2076341">
<ele>23.219999</ele>
<time>2026-08-31T22:04:17.000Z</time>
</trkpt>
<trkpt lat="59.5390446" lon="31.2075556">
<ele>22.090000</ele>
<time>2026-08-31T22:04:20.000Z</time>
</trkpt>
<trkpt lat="59.5390272" lon="31.2074214">
<ele>22.070000</ele>
<time>2026-08-31T22:04:25.000Z</time>
</trkpt>
<trkpt lat="59.5390214" lon="31.2072686">
<ele>19.789999</ele>
<time>2026-08-31T22:04:31.000Z</time>
</trkpt>
<trkpt lat="59.5389710" lon="31.2070142">
<ele>14.940000</ele>
<time>2026-08-31T22:04:39.000Z</time>
</trkpt>
<trkpt lat="59.5389688" lon="31.2068429">
<ele>13.620000</ele>
<time>2026-08-31T22:04:44.000Z</time>
</trkpt>
<trkpt lat="59.5389866" lon="31.2067144">
<ele>15.110000</ele>
<time>2026-08-31T22:04:58.000Z</time>
</trkpt>
<trkpt lat="59.5389967" lon="31.2066686">
<ele>18.740000</ele>
<time>2026-08-31T22:05:17.000Z</time>
</trkpt>
<trkpt lat="59.5390304" lon="31.2066221">
<ele>22.360001</ele>
<time>2026-08-31T22:05:42.000Z</time>
</trkpt>
<trkpt lat="59.5390363" lon="31.2066052">
<ele>24.929998</ele>
<time>2026-08-31T22:06:10.000Z</time>
</trkpt>
<trkpt lat="59.5390109" lon="31.2065679">
<ele>26.709999</ele>
<time>2026-08-31T22:06:34.000Z</time>
</trkpt>
<trkpt lat="59.5390145" lon="31.2065872">
<ele>28.710001</ele>
<time>2026-08-31T22:06:55.000Z</time>
</trkpt>
<trkpt lat="59.5390239" lon="31.2065984">
<ele>32.260002</ele>
<time>2026-08-31T22:07:25.000Z</time>
</trkpt>
<trkpt lat="59.5390332" lon="31.2065221">
<ele>33.290001</ele>
<time>2026-08-31T22:07:43.000Z</time>
</trkpt>
<trkpt lat="59.5390114" lon="31.2063568">
<ele>35.939999</ele>
<time>2026-08-31T22:07:57.000Z</time>
</trkpt>
<trkpt lat="59.5389708" lon="31.2060127">
<ele>36.020000</ele>
<time>2026-08-31T22:08:15.000Z</time>
</trkpt>
<trkpt lat="59.5389640" lon="31.2059912">
<ele>36.209999</ele>
<time>2026-08-31T22:08:16.000Z</time>
</trkpt>
<trkpt lat="59.5389373" lon="31.2058803">
<ele>36.700001</ele>
<time>2026-08-31T22:08:20.000Z</time>
</trkpt>
<trkpt lat="59.5389473" lon="31.2057978">
<ele>36.200001</ele>
<time>2026-08-31T22:08:23.000Z</time>
</trkpt>
<trkpt lat="59.5389503" lon="31.2055718">
<ele>40.799999</ele>
<time>2026-08-31T22:08:35.000Z</time>
</trkpt>
<trkpt lat="59.5389564" lon="31.2055527">
<ele>41.040001</ele>
<time>2026-08-31T22:08:36.000Z</time>
</trkpt>
<trkpt lat="59.5389939" lon="31.2054559">
<ele>41.869999</ele>
<time>2026-08-31T22:08:41.000Z</time>
</trkpt>
<trkpt lat="59.5390050" lon="31.2053554">
<ele>41.880001</ele>
<time>2026-08-31T22:08:57.000Z</time>
</trkpt>
<trkpt lat="59.5390212" lon="31.2053298">
<ele>42.490002</ele>
<time>2026-08-31T22:09:03.000Z</time>
</trkpt>
<trkpt lat="59.5390700" lon="31.2052377">
<ele>42.340000</ele>
<time>2026-08-31T22:09:20.000Z</time>
</trkpt>
<trkpt lat="59.5390821" lon="31.2051908">
<ele>41.529999</ele>
<time>2026-08-31T22:09:36.000Z</time>
</trkpt>
<trkpt lat="59.5390235" lon="31.2050902">
<ele>42.599998</ele>
<time>2026-08-31T22:10:00.000Z</time>
</trkpt>
<trkpt lat="59.5389916" lon="31.2050452">
<ele>43.369999</ele>
<time>2026-08-31T22:10:06.000Z</time>
</trkpt>
<trkpt lat="59.5389143" lon="31.2048225">
<ele>44.320004</ele>
<time>2026-08-31T22:10:22.000Z</time>
</trkpt>
<trkpt lat="59.5388990" lon="31.2047426">
<ele>44.369999</ele>
<time>2026-08-31T22:10:26.000Z</time>
</trkpt>
<trkpt lat="59.5388865" lon="31.2046415">
<ele>44.459999</ele>
<time>2026-08-31T22:10:33.000Z</time>
</trkpt>
<trkpt lat="59.5388726" lon="31.2045873">
<ele>44.720001</ele>
<time>2026-08-31T22:10:37.000Z</time>
</trkpt>
<trkpt lat="59.5388758" lon="31.2043494">
<ele>44.219997</ele>
<time>2026-08-31T22:10:51.000Z</time>
</trkpt>
<trkpt lat="59.5389022" lon="31.2041607">
<ele>44.090000</ele>
<time>2026-08-31T22:11:07.000Z</time>
</trkpt>
<trkpt lat="59.5389100" lon="31.2039667">
<ele>44.810001</ele>
<time>2026-08-31T22:11:22.000Z</time>
</trkpt>
<trkpt lat="59.5389026" lon="31.2037386">
<ele>43.500000</ele>
<time>2026-08-31T22:11:37.000Z</time>
</trkpt>
<trkpt lat="59.5389208" lon="31.2035879">
<ele>43.200001</ele>
<time>2026-08-31T22:11:46.000Z</time>
</trkpt>
<trkpt lat="59.5389366" lon="31.2035161">
<ele>42.699997</ele>
<time>2026-08-31T22:11:49.000Z</time>
</trkpt>
<trkpt lat="59.5389637" lon="31.2031767">
<ele>36.070000</ele>
<time>2026-08-31T22:12:05.000Z</time>
</trkpt>
<trkpt lat="59.5389589" lon="31.2029470">
<ele>33.250000</ele>
<time>2026-08-31T22:12:15.000Z</time>
</trkpt>
<trkpt lat="59.5389614" lon="31.2029251">
<ele>32.549999</ele>
<time>2026-08-31T22:12:16.000Z</time>
</trkpt>
<trkpt lat="59.5389881" lon="31.2026437">
<ele>28.450001</ele>
<time>2026-08-31T22:12:29.000Z</time>
</trkpt>
<trkpt lat="59.5390271" lon="31.2022205">
<ele>24.180000</ele>
<time>2026-08-31T22:12:44.000Z</time>
</trkpt>
<trkpt lat="59.5390135" lon="31.2018230">
<ele>26.270000</ele>
<time>2026-08-31T22:13:03.000Z</time>
</trkpt>
<trkpt lat="59.5390130" lon="31.2017135">
<ele>31.020000</ele>
<time>2026-08-31T22:13:15.000Z</time>
</trkpt>
<trkpt lat="59.5389782" lon="31.2015346">
<ele>33.790001</ele>
<time>2026-08-31T22:13:26.000Z</time>
</trkpt>
<trkpt lat="59.5389832" lon="31.2013137">
<ele>34.930000</ele>
<time>2026-08-31T22:13:42.000Z</time>
</trkpt>
<trkpt lat="59.5389994" lon="31.2010140">
<ele>35.580002</ele>
<time>2026-08-31T22:14:00.000Z</time>
</trkpt>
<trkpt lat="59.5390143" lon="31.2009519">
<ele>35.549999</ele>
<time>2026-08-31T22:14:03.000Z</time>
</trkpt>
<trkpt lat="59.5389769" lon="31.2007045">
<ele>37.060001</ele>
<time>2026-08-31T22:14:16.000Z</time>
</trkpt>
<trkpt lat="59.5389934" lon="31.2007165">
<ele>36.570000</ele>
<time>2026-08-31T22:14:30.000Z</time>
</trkpt>
<trkpt lat="59.5389927" lon="31.2007749">
<ele>36.200001</ele>
<time>2026-08-31T22:14:48.000Z</time>
</trkpt>
<trkpt lat="59.5389595" lon="31.2007903">
<ele>37.799999</ele>
<time>2026-08-31T22:15:14.000Z</time>
</trkpt>
<trkpt lat="59.5390029" lon="31.2007863">
<ele>41.880001</ele>
<time>2026-08-31T22:15:41.000Z</time>
</trkpt>
<trkpt lat="59.5389747" lon="31.2008104">
<ele>44.110001</ele>
<time>2026-08-31T22:16:07.000Z</time>
</trkpt>
<trkpt lat="59.5389930" lon="31.2005792">
<ele>45.760002</ele>
<time>2026-08-31T22:16:29.000Z</time>
</trkpt>
<trkpt lat="59.5390011" lon="31.2004480">
<ele>45.470001</ele>
<time>2026-08-31T22:16:37.000Z</time>
</trkpt>
<trkpt lat="59.5390049" lon="31.2004024">
<ele>44.030003</ele>
<time>2026-08-31T22:16:49.000Z</time>
</trkpt>
<trkpt lat="59.5389752" lon="31.2002543">
<ele>44.989998</ele>
<time>2026-08-31T22:17:02.000Z</time>
</trkpt>
<trkpt lat="59.5389481" lon="31.1999687">
<ele>43.829998</ele>
<time>2026-08-31T22:17:19.000Z</time>
</trkpt>
<trkpt lat="59.5389160" lon="31.1997852">
<ele>45.419998</ele>
<time>2026-08-31T22:17:34.000Z</time>
</trkpt>
<trkpt lat="59.5388881" lon="31.1997241">
<ele>46.230000</ele>
<time>2026-08-31T22:17:47.000Z</time>
</trkpt>
<trkpt lat="59.5388648" lon="31.1995238">
<ele>46.790001</ele>
<time>2026-08-31T22:18:03.000Z</time>
</trkpt>
<trkpt lat="59.5389431" lon="31.1993178">
<ele>47.849998</ele>
<time>2026-08-31T22:18:19.000Z</time>
</trkpt>
<trkpt lat="59.5389336" lon="31.1991714">
<ele>47.049999</ele>
<time>2026-08-31T22:18:30.000Z</time>
</trkpt>
<trkpt lat="59.5389158" lon="31.1990320">
<ele>46.709999</ele>
<time>2026-08-31T22:18:45.000Z</time>
</trkpt>
<trkpt lat="59.5389223" lon="31.1988488">
<ele>46.500000</ele>
<time>2026-08-31T22:19:02.000Z</time>
</trkpt>
<trkpt lat="59.5389435" lon="31.1986976">
<ele>47.570000</ele>
<time>2026-08-31T22:19:17.000Z</time>
</trkpt>
<trkpt lat="59.5389877" lon="31.1984867">
<ele>47.230000</ele>
<time>2026-08-31T22:19:35.000Z</time>
</trkpt>
<trkpt lat="59.5389955" lon="31.1983704">
<ele>46.969997</ele>
<time>2026-08-31T22:19:47.000Z</time>
</trkpt>
<trkpt lat="59.5389700" lon="31.1983890">
<ele>45.519997</ele>
<time>2026-08-31T22:20:13.000Z</time>
</trkpt>
<trkpt lat="59.5389441" lon="31.1983976">
<ele>43.260002</ele>
<time>2026-08-31T22:20:40.000Z</time>
</trkpt>
<trkpt lat="59.5389348" lon="31.1984254">
<ele>44.170002</ele>
<time>2026-08-31T22:21:09.000Z</time>
</trkpt>
<trkpt lat="59.5388779" lon="31.1983794">
<ele>44.750000</ele>
<time>2026-08-31T22:21:37.000Z</time>
</trkpt>
<trkpt lat="59.5389023" lon="31.1981996">
<ele>46.080002</ele>
<time>2026-08-31T22:21:54.000Z</time>
</trkpt>
<trkpt lat="59.5390108" lon="31.1979327">
<ele>45.639999</ele>
<time>2026-08-31T22:22:10.000Z</time>
</trkpt>
<trkpt lat="59.5390184" lon="31.1979121">
<ele>45.189999</ele>
<time>2026-08-31T22:22:11.000Z</time>
</trkpt>
<trkpt lat="59.5390835" lon="31.1975642">
<ele>41.670002</ele>
<time>2026-08-31T22:22:28.000Z</time>
</trkpt>
<trkpt lat="59.5391088" lon="31.1974361">
<ele>39.570000</ele>
<time>2026-08-31T22:22:33.000Z</time>
</trkpt>
<trkpt lat="59.5391231" lon="31.1973071">
<ele>35.740002</ele>
<time>2026-08-31T22:22:46.000Z</time>
</trkpt>
<trkpt lat="59.5391037" lon="31.1970872">
<ele>33.250000</ele>
<time>2026-08-31T22:22:57.000Z</time>
</trkpt>
<trkpt lat="59.5391451" lon="31.1968897">
<ele>35.630001</ele>
<time>2026-08-31T22:23:19.000Z</time>
</trkpt>
<trkpt lat="59.5391381" lon="31.1967466">
<ele>42.610001</ele>
<time>2026-08-31T22:23:35.000Z</time>
</trkpt>
<trkpt lat="59.5391061" lon="31.1967014">
<ele>43.660000</ele>
<time>2026-08-31T22:23:41.000Z</time>
</trkpt>
<trkpt lat="59.5390780" lon="31.1964615">
<ele>44.710003</ele>
<time>2026-08-31T22:23:55.000Z</time>
</trkpt>
<trkpt lat="59.5390382" lon="31.1964170">
<ele>47.140003</ele>
<time>2026-08-31T22:24:12.000Z</time>
</trkpt>
<trkpt lat="59.5390783" lon="31.1964071">
<ele>49.290001</ele>
<time>2026-08-31T22:24:27.000Z</time>
</trkpt>
<trkpt lat="59.5390837" lon="31.1963785">
<ele>52.720001</ele>
<time>2026-08-31T22:24:52.000Z</time>
</trkpt>
<trkpt lat="59.5390924" lon="31.1963877">
<ele>54.220001</ele>
<time>2026-08-31T22:25:12.000Z</time>
</trkpt>
<trkpt lat="59.5391619" lon="31.1963120">
<ele>52.940002</ele>
<time>2026-08-31T22:25:40.000Z</time>
</trkpt>
<trkpt lat="59.5391844" lon="31.1961526">
<ele>53.909996</ele>
<time>2026-08-31T22:26:00.000Z</time>
</trkpt>
<trkpt lat="59.5392269" lon="31.1960924">
<ele>54.860001</ele>
<time>2026-08-31T22:26:12.000Z</time>
</trkpt>
<trkpt lat="59.5392440" lon="31.1960192">
<ele>54.799999</ele>
<time>2026-08-31T22:26:27.000Z</time>
</trkpt>
<trkpt lat="59.5392335" lon="31.1961106">
<ele>54.430000</ele>
<time>2026-08-31T22:26:43.000Z</time>
</trkpt>
<trkpt lat="59.5392052" lon="31.1961394">
<ele>54.690002</ele>
<time>2026-08-31T22:27:06.000Z</time>
</trkpt>
<trkpt lat="59.5391360" lon="31.1963470">
<ele>53.119999</ele>
<time>2026-08-31T22:27:22.000Z</time>
</trkpt>
<trkpt lat="59.5390808" lon="31.1965288">
<ele>48.919998</ele>
<time>2026-08-31T22:27:30.000Z</time>
</trkpt>
<trkpt lat="59.5389805" lon="31.1963612">
<ele>51.309998</ele>
<time>2026-08-31T22:27:47.000Z</time>
</trkpt>
<trkpt lat="59.5389659" lon="31.1963211">
<ele>50.699997</ele>
<time>2026-08-31T22:28:12.000Z</time>
</trkpt>
<trkpt lat="59.5389840" lon="31.1963576">
<ele>53.029999</ele>
<time>2026-08-31T22:28:34.000Z</time>
</trkpt>
<trkpt lat="59.5390128" lon="31.1964218">
<ele>55.809998</ele>
<time>2026-08-31T22:28:55.000Z</time>
</trkpt>
<trkpt lat="59.5389504" lon="31.1964120">
<ele>62.080002</ele>
<time>2026-08-31T22:29:22.000Z</time>
</trkpt>
<trkpt lat="59.5389823" lon="31.1963851">
<ele>60.829998</ele>
<time>2026-08-31T22:29:49.000Z</time>
</trkpt>
<trkpt lat="59.5390617" lon="31.1963532">
<ele>59.780003</ele>
<time>2026-08-31T22:30:17.000Z</time>
</trkpt>
<trkpt lat="59.5390296" lon="31.1963228">
<ele>59.040001</ele>
<time>2026-08-31T22:30:33.000Z</time>
</trkpt>
<trkpt lat="59.5389929" lon="31.1962995">
<ele>58.610001</ele>
<time>2026-08-31T22:30:38.000Z</time>
</trkpt>
<trkpt lat="59.5388854" lon="31.1962506">
<ele>57.689999</ele>
<time>2026-08-31T22:30:57.000Z</time>
</trkpt>
<trkpt lat="59.5388728" lon="31.1962888">
<ele>57.779999</ele>
<time>2026-08-31T22:31:19.000Z</time>
</trkpt>
<trkpt lat="59.5389550" lon="31.1963303">
<ele>57.179996</ele>
<time>2026-08-31T22:31:28.000Z</time>
</trkpt>
<trkpt lat="59.5390826" lon="31.1963975">
<ele>55.470001</ele>
<time>2026-08-31T22:31:41.000Z</time>
</trkpt>
<trkpt lat="59.5390767" lon="31.1964164">
<ele>57.000000</ele>
<time>2026-08-31T22:31:59.000Z</time>
</trkpt>
<trkpt lat="59.5391003" lon="31.1964144">
<ele>58.130001</ele>
<time>2026-08-31T22:32:22.000Z</time>
</trkpt>
<trkpt lat="59.5391538" lon="31.1964227">
<ele>57.320000</ele>
<time>2026-08-31T22:32:40.000Z</time>
</trkpt>
<trkpt lat="59.5392036" lon="31.1963072">
<ele>56.960003</ele>
<time>2026-08-31T22:32:54.000Z</time>
</trkpt>
<trkpt lat="59.5392559" lon="31.1961700">
<ele>56.750000</ele>
<time>2026-08-31T22:33:19.000Z</time>
</trkpt>
<trkpt lat="59.5393484" lon="31.1961645">
<ele>55.790001</ele>
<time>2026-08-31T22:33:42.000Z</time>
</trkpt>
<trkpt lat="59.5394782" lon="31.1962339">
<ele>53.660000</ele>
<time>2026-08-31T22:34:00.000Z</time>
</trkpt>
<trkpt lat="59.5395815" lon="31.1962986">
<ele>50.989998</ele>
<time>2026-08-31T22:34:17.000Z</time>
</trkpt>
<trkpt lat="59.5396341" lon="31.1963217">
<ele>49.680000</ele>
<time>2026-08-31T22:34:25.000Z</time>
</trkpt>
<trkpt lat="59.5397080" lon="31.1963892">
<ele>50.750000</ele>
<time>2026-08-31T22:34:43.000Z</time>
</trkpt>
<trkpt lat="59.5397528" lon="31.1964108">
<ele>52.309998</ele>
<time>2026-08-31T22:34:57.000Z</time>
</trkpt>
<trkpt lat="59.5398059" lon="31.1964007">
<ele>53.380001</ele>
<time>2026-08-31T22:35:15.000Z</time>
</trkpt>
<trkpt lat="59.5398859" lon="31.1964758">
<ele>54.199997</ele>
<time>2026-08-31T22:35:33.000Z</time>
</trkpt>
<trkpt lat="59.5399673" lon="31.1964348">
<ele>54.170002</ele>
<time>2026-08-31T22:35:53.000Z</time>
</trkpt>
<trkpt lat="59.5400198" lon="31.1964265">
<ele>54.430000</ele>
<time>2026-08-31T22:36:12.000Z</time>
</trkpt>
<trkpt lat="59.5401169" lon="31.1965868">
<ele>53.299999</ele>
<time>2026-08-31T22:36:29.000Z</time>
</trkpt>
<trkpt lat="59.5401446" lon="31.1965962">
<ele>52.790001</ele>
<time>2026-08-31T22:36:50.000Z</time>
</trkpt>
<trkpt lat="59.5401646" lon="31.1966102">
<ele>52.189999</ele>
<time>2026-08-31T22:37:15.000Z</time>
</trkpt>
<trkpt lat="59.5401783" lon="31.1966332">
<ele>51.919998</ele>
<time>2026-08-31T22:37:40.000Z</time>
</trkpt>
<trkpt lat="59.5401819" lon="31.1967068">
<ele>51.940002</ele>
<time>2026-08-31T22:38:05.000Z</time>
</trkpt>
<trkpt lat="59.5401911" lon="31.1966020">
<ele>52.509998</ele>
<time>2026-08-31T22:38:32.000Z</time>
</trkpt>
<trkpt lat="59.5402023" lon="31.1965764">
<ele>54.080002</ele>
<time>2026-08-31T22:38:58.000Z</time>
</trkpt>
<trkpt lat="59.5402627" lon="31.1967043">
<ele>54.649998</ele>
<time>2026-08-31T22:39:14.000Z</time>
</trkpt>
<trkpt lat="59.5403102" lon="31.1967551">
<ele>55.360001</ele>
<time>2026-08-31T22:39:36.000Z</time>
</trkpt>
<trkpt lat="59.5403436" lon="31.1967895">
<ele>55.849998</ele>
<time>2026-08-31T22:39:51.000Z</time>
</trkpt>
<trkpt lat="59.5404286" lon="31.1968096">
<ele>54.790001</ele>
<time>2026-08-31T22:40:08.000Z</time>
</trkpt>
<trkpt lat="59.5404714" lon="31.1967703">
<ele>55.279999</ele>
<time>2026-08-31T22:40:24.000Z</time>
</trkpt>
<trkpt lat="59.5405066" lon="31.1968461">
<ele>55.310001</ele>
<time>2026-08-31T22:40:43.000Z</time>
</trkpt>
<trkpt lat="59.5405079" lon="31.1968294">
<ele>55.459999</ele>
<time>2026-08-31T22:41:06.000Z</time>
</trkpt>
<trkpt lat="59.5405263" lon="31.1967679">
<ele>55.180000</ele>
<time>2026-08-31T22:41:27.000Z</time>
</trkpt>
<trkpt lat="59.5405382" lon="31.1966943">
<ele>55.279999</ele>
<time>2026-08-31T22:41:47.000Z</time>
</trkpt>
<trkpt lat="59.5405940" lon="31.1966907">
<ele>54.530003</ele>
<time>2026-08-31T22:42:03.000Z</time>
</trkpt>
<trkpt lat="59.5406622" lon="31.1966534">
<ele>53.080002</ele>
<time>2026-08-31T22:42:18.000Z</time>
</trkpt>
<trkpt lat="59.5407042" lon="31.1966378">
<ele>52.490002</ele>
<time>2026-08-31T22:42:38.000Z</time>
</trkpt>
<trkpt lat="59.5407569" lon="31.1967249">
<ele>52.340000</ele>
<time>2026-08-31T22:42:58.000Z</time>
</trkpt>
<trkpt lat="59.5408087" lon="31.1968718">
<ele>52.139999</ele>
<time>2026-08-31T22:43:16.000Z</time>
</trkpt>
<trkpt lat="59.5408716" lon="31.1969511">
<ele>51.020000</ele>
<time>2026-08-31T22:43:33.000Z</time>
</trkpt>
<trkpt lat="59.5409274" lon="31.1969273">
<ele>51.230000</ele>
<time>2026-08-31T22:43:50.000Z</time>
</trkpt>
<trkpt lat="59.5410338" lon="31.1969664">
<ele>49.540001</ele>
<time>2026-08-31T22:44:07.000Z</time>
</trkpt>
<trkpt lat="59.5410902" lon="31.1970670">
<ele>48.879997</ele>
<time>2026-08-31T22:44:22.000Z</time>
</trkpt>
<trkpt lat="59.5410773" lon="31.1970593">
<ele>49.610001</ele>
<time>2026-08-31T22:44:48.000Z</time>
</trkpt>
<trkpt lat="59.5411044" lon="31.1970671">
<ele>49.599998</ele>
<time>2026-08-31T22:45:03.000Z</time>
</trkpt>
<trkpt lat="59.5411866" lon="31.1971367">
<ele>49.440002</ele>
<time>2026-08-31T22:45:22.000Z</time>
</trkpt>
<trkpt lat="59.5412321" lon="31.1971074">
<ele>48.660004</ele>
<time>2026-08-31T22:45:42.000Z</time>
</trkpt>
<trkpt lat="59.5412853" lon="31.1970703">
<ele>48.849998</ele>
<time>2026-08-31T22:46:04.000Z</time>
</trkpt>
<trkpt lat="59.5413039" lon="31.1970381">
<ele>49.290001</ele>
<time>2026-08-31T22:46:29.000Z</time>
</trkpt>
<trkpt lat="59.5413109" lon="31.1970279">
<ele>48.029999</ele>
<time>2026-08-31T22:46:52.000Z</time>
</trkpt>
<trkpt lat="59.5412554" lon="31.1969724">
<ele>46.509998</ele>
<time>2026-08-31T22:47:23.000Z</time>
</trkpt>
<trkpt lat="59.5412654" lon="31.1969608">
<ele>46.419998</ele>
<time>2026-08-31T22:47:41.000Z</time>
</trkpt>
<trkpt lat="59.5413254" lon="31.1968524">
<ele>46.930000</ele>
<time>2026-08-31T22:48:02.000Z</time>
</trkpt>
<trkpt lat="59.5413463" lon="31.1968131">
<ele>47.320000</ele>
<time>2026-08-31T22:48:22.000Z</time>
</trkpt>
<trkpt lat="59.5413849" lon="31.1967052">
<ele>47.290001</ele>
<time>2026-08-31T22:48:38.000Z</time>
</trkpt>
<trkpt lat="59.5414406" lon="31.1966081">
<ele>47.930000</ele>
<time>2026-08-31T22:49:00.000Z</time>
</trkpt>
<trkpt lat="59.5414590" lon="31.1966094">
<ele>47.459999</ele>
<time>2026-08-31T22:49:25.000Z</time>
</trkpt>
<trkpt lat="59.5414841" lon="31.1965830">
<ele>47.600002</ele>
<time>2026-08-31T22:49:44.000Z</time>
</trkpt>
<trkpt lat="59.5415103" lon="31.1966495">
<ele>47.440002</ele>
<time>2026-08-31T22:50:04.000Z</time>
</trkpt>
<trkpt lat="59.5415337" lon="31.1967321">
<ele>47.240002</ele>
<time>2026-08-31T22:50:24.000Z</time>
</trkpt>
<trkpt lat="59.5415118" lon="31.1969025">
<ele>48.350002</ele>
<time>2026-08-31T22:50:49.000Z</time>
</trkpt>
<trkpt lat="59.5414844" lon="31.1968899">
<ele>48.949997</ele>
<time>2026-08-31T22:51:09.000Z</time>
</trkpt>
<trkpt lat="59.5414751" lon="31.1968915">
<ele>48.830002</ele>
<time>2026-08-31T22:51:30.000Z</time>
</trkpt>
<trkpt lat="59.5414964" lon="31.1969492">
<ele>50.599998</ele>
<time>2026-08-31T22:51:55.000Z</time>
</trkpt>
<trkpt lat="59.5415191" lon="31.1970414">
<ele>51.139999</ele>
<time>2026-08-31T22:52:16.000Z</time>
</trkpt>
<trkpt lat="59.5415693" lon="31.1970631">
<ele>50.480000</ele>
<time>2026-08-31T22:52:38.000Z</time>
</trkpt>
<trkpt lat="59.5415695" lon="31.1971164">
<ele>52.289997</ele>
<time>2026-08-31T22:53:07.000Z</time>
</trkpt>
<trkpt lat="59.5415752" lon="31.1972974">
<ele>52.650002</ele>
<time>2026-08-31T22:53:27.000Z</time>
</trkpt>
<trkpt lat="59.5415999" lon="31.1974593">
<ele>54.040001</ele>
<time>2026-08-31T22:53:51.000Z</time>
</trkpt>
<trkpt lat="59.5416240" lon="31.1974885">
<ele>53.920002</ele>
<time>2026-08-31T22:54:11.000Z</time>
</trkpt>
<trkpt lat="59.5416809" lon="31.1976021">
<ele>53.590000</ele>
<time>2026-08-31T22:54:32.000Z</time>
</trkpt>
<trkpt lat="59.5416587" lon="31.1977500">
<ele>53.189999</ele>
<time>2026-08-31T22:54:55.000Z</time>
</trkpt>
<trkpt lat="59.5416183" lon="31.1977606">
<ele>52.340000</ele>
<time>2026-08-31T22:55:23.000Z</time>
</trkpt>
<trkpt lat="59.5416621" lon="31.1977614">
<ele>52.349998</ele>
<time>2026-08-31T22:55:43.000Z</time>
</trkpt>
<trkpt lat="59.5416662" lon="31.1977578">
<ele>52.309998</ele>
<time>2026-08-31T22:55:45.000Z</time>
</trkpt>
<trkpt lat="59.5417254" lon="31.1978569">
<ele>51.970001</ele>
<time>2026-08-31T22:56:05.000Z</time>
</trkpt>
<trkpt lat="59.5418040" lon="31.1978423">
<ele>54.320000</ele>
<time>2026-08-31T22:56:26.000Z</time>
</trkpt>
<trkpt lat="59.5418794" lon="31.1977485">
<ele>54.059998</ele>
<time>2026-08-31T22:56:46.000Z</time>
</trkpt>
<trkpt lat="59.5419106" lon="31.1975862">
<ele>53.790001</ele>
<time>2026-08-31T22:57:05.000Z</time>
</trkpt>
<trkpt lat="59.5419501" lon="31.1975645">
<ele>52.880001</ele>
<time>2026-08-31T22:57:23.000Z</time>
</trkpt>
<trkpt lat="59.5420003" lon="31.1975651">
<ele>53.730000</ele>
<time>2026-08-31T22:57:51.000Z</time>
</trkpt>
<trkpt lat="59.5419786" lon="31.1975232">
<ele>52.989998</ele>
<time>2026-08-31T22:58:20.000Z</time>
</trkpt>
<trkpt lat="59.5420450" lon="31.1975410">
<ele>53.160000</ele>
<time>2026-08-31T22:58:48.000Z</time>
</trkpt>
<trkpt lat="59.5420419" lon="31.1975764">
<ele>52.100002</ele>
<time>2026-08-31T22:59:16.000Z</time>
</trkpt>
<trkpt lat="59.5420410" lon="31.1976073">
<ele>52.529999</ele>
<time>2026-08-31T22:59:37.000Z</time>
</trkpt>
<trkpt lat="59.5420589" lon="31.1976837">
<ele>52.340000</ele>
<time>2026-08-31T22:59:57.000Z</time>
</trkpt>
<trkpt lat="59.5421014" lon="31.1977237">
<ele>53.959999</ele>
<time>2026-08-31T23:00:19.000Z</time>
</trkpt>
<trkpt lat="59.5421008" lon="31.1977352">
<ele>54.199997</ele>
<time>2026-08-31T23:00:47.000Z</time>
</trkpt>
<trkpt lat="59.5420973" lon="31.1977572">
<ele>54.579998</ele>
<time>2026-08-31T23:00:59.000Z</time>
</trkpt>
<trkpt lat="59.5420744" lon="31.1977460">
<ele>54.289997</ele>
<time>2026-08-31T23:01:09.000Z</time>
</trkpt>
<trkpt lat="59.5420863" lon="31.1976618">
<ele>55.230000</ele>
<time>2026-08-31T23:01:31.000Z</time>
</trkpt>
<trkpt lat="59.5420889" lon="31.1977342">
<ele>54.920002</ele>
<time>2026-08-31T23:01:55.000Z</time>
</trkpt>
<trkpt lat="59.5420775" lon="31.1978652">
<ele>54.320000</ele>
<time>2026-08-31T23:02:25.000Z</time>
</trkpt>
<trkpt lat="59.5420840" lon="31.1980814">
<ele>53.590000</ele>
<time>2026-08-31T23:02:44.000Z</time>
</trkpt>
<trkpt lat="59.5421228" lon="31.1980878">
<ele>54.279999</ele>
<time>2026-08-31T23:03:11.000Z</time>
</trkpt>
<trkpt lat="59.5421509" lon="31.1981808">
<ele>54.579998</ele>
<time>2026-08-31T23:03:31.000Z</time>
</trkpt>
<trkpt lat="59.5421286" lon="31.1982518">
<ele>54.840000</ele>
<time>2026-08-31T23:03:48.000Z</time>
</trkpt>
<trkpt lat="59.5421512" lon="31.1983171">
<ele>56.220001</ele>
<time>2026-08-31T23:04:09.000Z</time>
</trkpt>
<trkpt lat="59.5421860" lon="31.1983454">
<ele>56.310001</ele>
<time>2026-08-31T23:04:24.000Z</time>
</trkpt>
<trkpt lat="59.5422407" lon="31.1983966">
<ele>53.519997</ele>
<time>2026-08-31T23:04:40.000Z</time>
</trkpt>
<trkpt lat="59.5422795" lon="31.1984291">
<ele>52.620003</ele>
<time>2026-08-31T23:05:02.000Z</time>
</trkpt>
<trkpt lat="59.5422845" lon="31.1985575">
<ele>51.780003</ele>
<time>2026-08-31T23:05:25.000Z</time>
</trkpt>
<trkpt lat="59.5423111" lon="31.1985890">
<ele>51.759998</ele>
<time>2026-08-31T23:05:28.000Z</time>
</trkpt>
<trkpt lat="59.5423223" lon="31.1987092">
<ele>51.699997</ele>
<time>2026-08-31T23:05:47.000Z</time>
</trkpt>
<trkpt lat="59.5423289" lon="31.1987353">
<ele>54.920002</ele>
<time>2026-08-31T23:06:10.000Z</time>
</trkpt>
<trkpt lat="59.5423282" lon="31.1987770">
<ele>55.389999</ele>
<time>2026-08-31T23:06:34.000Z</time>
</trkpt>
<trkpt lat="59.5423810" lon="31.1987128">
<ele>55.410000</ele>
<time>2026-08-31T23:07:01.000Z</time>
</trkpt>
<trkpt lat="59.5423819" lon="31.1987077">
<ele>55.400002</ele>
<time>2026-08-31T23:07:03.000Z</time>
</trkpt>
<trkpt lat="59.5424057" lon="31.1986543">
<ele>55.959999</ele>
<time>2026-08-31T23:07:31.000Z</time>
</trkpt>
<trkpt lat="59.5424124" lon="31.1986617">
<ele>56.529999</ele>
<time>2026-08-31T23:07:57.000Z</time>
</trkpt>
<trkpt lat="59.5424409" lon="31.1987746">
<ele>56.520000</ele>
<time>2026-08-31T23:08:16.000Z</time>
</trkpt>
<trkpt lat="59.5424121" lon="31.1989611">
<ele>55.590004</ele>
<time>2026-08-31T23:08:35.000Z</time>
</trkpt>
<trkpt lat="59.5423520" lon="31.1990274">
<ele>55.300003</ele>
<time>2026-08-31T23:08:55.000Z</time>
</trkpt>
<trkpt lat="59.5423886" lon="31.1991264">
<ele>54.579998</ele>
<time>2026-08-31T23:09:14.000Z</time>
</trkpt>
<trkpt lat="59.5423998" lon="31.1993105">
<ele>53.899998</ele>
<time>2026-08-31T23:09:34.000Z</time>
</trkpt>
<trkpt lat="59.5424108" lon="31.1995167">
<ele>53.289997</ele>
<time>2026-08-31T23:09:52.000Z</time>
</trkpt>
<trkpt lat="59.5424448" lon="31.1995460">
<ele>52.689999</ele>
<time>2026-08-31T23:10:15.000Z</time>
</trkpt>
<trkpt lat="59.5424517" lon="31.1995967">
<ele>50.720001</ele>
<time>2026-08-31T23:10:39.000Z</time>
</trkpt>
<trkpt lat="59.5424406" lon="31.1996313">
<ele>48.890003</ele>
<time>2026-08-31T23:11:07.000Z</time>
</trkpt>
<trkpt lat="59.5424698" lon="31.1997396">
<ele>49.350002</ele>
<time>2026-08-31T23:11:31.000Z</time>
</trkpt>
<trkpt lat="59.5424728" lon="31.1998612">
<ele>50.070000</ele>
<time>2026-08-31T23:11:47.000Z</time>
</trkpt>
<trkpt lat="59.5425017" lon="31.1999267">
<ele>49.150002</ele>
<time>2026-08-31T23:12:05.000Z</time>
</trkpt>
<trkpt lat="59.5425841" lon="31.1999189">
<ele>47.290001</ele>
<time>2026-08-31T23:12:27.000Z</time>
</trkpt>
<trkpt lat="59.5426185" lon="31.1998974">
<ele>47.189999</ele>
<time>2026-08-31T23:12:50.000Z</time>
</trkpt>
<trkpt lat="59.5426323" lon="31.1998420">
<ele>46.850002</ele>
<time>2026-08-31T23:13:18.000Z</time>
</trkpt>
<trkpt lat="59.5426050" lon="31.1998582">
<ele>47.210003</ele>
<time>2026-08-31T23:13:45.000Z</time>
</trkpt>
<trkpt lat="59.5426108" lon="31.1999410">
<ele>48.849998</ele>
<time>2026-08-31T23:14:10.000Z</time>
</trkpt>
<trkpt lat="59.5426170" lon="31.2000193">
<ele>50.290001</ele>
<time>2026-08-31T23:14:38.000Z</time>
</trkpt>
<trkpt lat="59.5425768" lon="31.1999794">
<ele>50.290001</ele>
<time>2026-08-31T23:14:59.000Z</time>
</trkpt>
<trkpt lat="59.5425686" lon="31.2000210">
<ele>50.369999</ele>
<time>2026-08-31T23:15:21.000Z</time>
</trkpt>
<trkpt lat="59.5426279" lon="31.2000978">
<ele>50.290001</ele>
<time>2026-08-31T23:15:50.000Z</time>
</trkpt>
<trkpt lat="59.5425933" lon="31.2000998">
<ele>51.270000</ele>
<time>2026-08-31T23:16:09.000Z</time>
</trkpt>
<trkpt lat="59.5425773" lon="31.2000734">
<ele>52.049999</ele>
<time>2026-08-31T23:16:34.000Z</time>
</trkpt>
<trkpt lat="59.5426039" lon="31.2001779">
<ele>52.340000</ele>
<time>2026-08-31T23:16:55.000Z</time>
</trkpt>
<trkpt lat="59.5425714" lon="31.2002785">
<ele>51.680000</ele>
<time>2026-08-31T23:17:17.000Z</time>
</trkpt>
<trkpt lat="59.5425068" lon="31.2004403">
<ele>50.570004</ele>
<time>2026-08-31T23:17:36.000Z</time>
</trkpt>
<trkpt lat="59.5424736" lon="31.2005163">
<ele>50.450001</ele>
<time>2026-08-31T23:17:50.000Z</time>
</trkpt>
<trkpt lat="59.5424656" lon="31.2005568">
<ele>50.380001</ele>
<time>2026-08-31T23:17:54.000Z</time>
</trkpt>
<trkpt lat="59.5424472" lon="31.2006538">
<ele>51.500000</ele>
<time>2026-08-31T23:18:13.000Z</time>
</trkpt>
<trkpt lat="59.5425074" lon="31.2008815">
<ele>50.049999</ele>
<time>2026-08-31T23:18:37.000Z</time>
</trkpt>
<trkpt lat="59.5425404" lon="31.2011060">
<ele>48.419998</ele>
<time>2026-08-31T23:18:54.000Z</time>
</trkpt>
<trkpt lat="59.5425781" lon="31.2012659">
<ele>47.300003</ele>
<time>2026-08-31T23:19:11.000Z</time>
</trkpt>
<trkpt lat="59.5426284" lon="31.2014673">
<ele>46.830002</ele>
<time>2026-08-31T23:19:30.000Z</time>
</trkpt>
<trkpt lat="59.5426903" lon="31.2016830">
<ele>44.590000</ele>
<time>2026-08-31T23:19:49.000Z</time>
</trkpt>
<trkpt lat="59.5427359" lon="31.2018502">
<ele>42.580002</ele>
<time>2026-08-31T23:20:11.000Z</time>
</trkpt>
<trkpt lat="59.5427600" lon="31.2018926">
<ele>42.660000</ele>
<time>2026-08-31T23:20:18.000Z</time>
</trkpt>
<trkpt lat="59.5427825" lon="31.2019914">
<ele>44.170002</ele>
<time>2026-08-31T23:20:44.000Z</time>
</trkpt>
<trkpt lat="59.5427407" lon="31.2019677">
<ele>45.340000</ele>
<time>2026-08-31T23:21:11.000Z</time>
</trkpt>
<trkpt lat="59.5427255" lon="31.2019794">
<ele>45.330002</ele>
<time>2026-08-31T23:21:33.000Z</time>
</trkpt>
<trkpt lat="59.5427062" lon="31.2020248">
<ele>46.680000</ele>
<time>2026-08-31T23:21:56.000Z</time>
</trkpt>
<trkpt lat="59.5427390" lon="31.2020558">
<ele>48.230000</ele>
<time>2026-08-31T23:22:21.000Z</time>
</trkpt>
<trkpt lat="59.5427243" lon="31.2021499">
<ele>48.489998</ele>
<time>2026-08-31T23:22:51.000Z</time>
</trkpt>
<trkpt lat="59.5427547" lon="31.2022324">
<ele>48.410000</ele>
<time>2026-08-31T23:23:06.000Z</time>
</trkpt>
<trkpt lat="59.5427681" lon="31.2023550">
<ele>48.970001</ele>
<time>2026-08-31T23:23:21.000Z</time>
</trkpt>
<trkpt lat="59.5427624" lon="31.2024837">
<ele>49.930000</ele>
<time>2026-08-31T23:23:37.000Z</time>
</trkpt>
<trkpt lat="59.5426986" lon="31.2026008">
<ele>51.110001</ele>
<time>2026-08-31T23:23:55.000Z</time>
</trkpt>
<trkpt lat="59.5426443" lon="31.2026655">
<ele>51.529999</ele>
<time>2026-08-31T23:24:18.000Z</time>
</trkpt>
<trkpt lat="59.5425933" lon="31.2027047">
<ele>51.439999</ele>
<time>2026-08-31T23:24:36.000Z</time>
</trkpt>
<trkpt lat="59.5425836" lon="31.2027478">
<ele>52.309998</ele>
<time>2026-08-31T23:24:53.000Z</time>
</trkpt>
<trkpt lat="59.5425989" lon="31.2027109">
<ele>53.230003</ele>
<time>2026-08-31T23:25:19.000Z</time>
</trkpt>
<trkpt lat="59.5426563" lon="31.2025675">
<ele>53.860001</ele>
<time>2026-08-31T23:25:38.000Z</time>
</trkpt>
<trkpt lat="59.5427263" lon="31.2024753">
<ele>54.419998</ele>
<time>2026-08-31T23:25:54.000Z</time>
</trkpt>
<trkpt lat="59.5428050" lon="31.2024004">
<ele>52.919998</ele>
<time>2026-08-31T23:26:11.000Z</time>
</trkpt>
<trkpt lat="59.5428361" lon="31.2024398">
<ele>52.400002</ele>
<time>2026-08-31T23:26:33.000Z</time>
</trkpt>
<trkpt lat="59.5428766" lon="31.2025952">
<ele>51.410000</ele>
<time>2026-08-31T23:26:54.000Z</time>
</trkpt>
<trkpt lat="59.5428908" lon="31.2027850">
<ele>51.780003</ele>
<time>2026-08-31T23:27:13.000Z</time>
</trkpt>
<trkpt lat="59.5429364" lon="31.2028988">
<ele>50.870003</ele>
<time>2026-08-31T23:27:36.000Z</time>
</trkpt>
<trkpt lat="59.5429644" lon="31.2030614">
<ele>50.220001</ele>
<time>2026-08-31T23:27:54.000Z</time>
</trkpt>
<trkpt lat="59.5430502" lon="31.2032114">
<ele>47.329998</ele>
<time>2026-08-31T23:28:14.000Z</time>
</trkpt>
<trkpt lat="59.5430932" lon="31.2033324">
<ele>46.850002</ele>
<time>2026-08-31T23:28:34.000Z</time>
</trkpt>
<trkpt lat="59.5431493" lon="31.2034285">
<ele>48.070000</ele>
<time>2026-08-31T23:28:53.000Z</time>
</trkpt>
<trkpt lat="59.5431913" lon="31.2034997">
<ele>48.810001</ele>
<time>2026-08-31T23:29:13.000Z</time>
</trkpt>
<trkpt lat="59.5432472" lon="31.2035468">
<ele>48.960003</ele>
<time>2026-08-31T23:29:31.000Z</time>
</trkpt>
<trkpt lat="59.5432778" lon="31.2036787">
<ele>49.740002</ele>
<time>2026-08-31T23:29:56.000Z</time>
</trkpt>
<trkpt lat="59.5433422" lon="31.2038912">
<ele>49.280003</ele>
<time>2026-08-31T23:30:19.000Z</time>
</trkpt>
<trkpt lat="59.5434093" lon="31.2039605">
<ele>47.980003</ele>
<time>2026-08-31T23:30:40.000Z</time>
</trkpt>
<trkpt lat="59.5434469" lon="31.2039946">
<ele>47.579998</ele>
<time>2026-08-31T23:30:56.000Z</time>
</trkpt>
<trkpt lat="59.5434689" lon="31.2040326">
<ele>47.329998</ele>
<time>2026-08-31T23:31:13.000Z</time>
</trkpt>
<trkpt lat="59.5435173" lon="31.2040277">
<ele>46.560001</ele>
<time>2026-08-31T23:31:32.000Z</time>
</trkpt>
<trkpt lat="59.5435360" lon="31.2040200">
<ele>46.370003</ele>
<time>2026-08-31T23:31:49.000Z</time>
</trkpt>
<trkpt lat="59.5435314" lon="31.2039701">
<ele>44.839996</ele>
<time>2026-08-31T23:32:09.000Z</time>
</trkpt>
<trkpt lat="59.5435382" lon="31.2039133">
<ele>43.410000</ele>
<time>2026-08-31T23:32:29.000Z</time>
</trkpt>
<trkpt lat="59.5435464" lon="31.2038712">
<ele>43.239998</ele>
<time>2026-08-31T23:32:53.000Z</time>
</trkpt>
<trkpt lat="59.5435590" lon="31.2038434">
<ele>45.129997</ele>
<time>2026-08-31T23:33:22.000Z</time>
</trkpt>
<trkpt lat="59.5435362" lon="31.2038803">
<ele>44.509998</ele>
<time>2026-08-31T23:33:47.000Z</time>
</trkpt>
<trkpt lat="59.5435545" lon="31.2039183">
<ele>44.059998</ele>
<time>2026-08-31T23:34:11.000Z</time>
</trkpt>
<trkpt lat="59.5435459" lon="31.2039107">
<ele>44.189999</ele>
<time>2026-08-31T23:34:30.000Z</time>
</trkpt>
<trkpt lat="59.5435372" lon="31.2039097">
<ele>43.730000</ele>
<time>2026-08-31T23:34:58.000Z</time>
</trkpt>
<trkpt lat="59.5435316" lon="31.2039195">
<ele>42.980000</ele>
<time>2026-08-31T23:35:36.000Z</time>
</trkpt>
<trkpt lat="59.5435388" lon="31.2039234">
<ele>42.900002</ele>
<time>2026-08-31T23:35:58.000Z</time>
</trkpt>
<trkpt lat="59.5435444" lon="31.2039432">
<ele>42.580002</ele>
<time>2026-08-31T23:36:25.000Z</time>
</trkpt>
<trkpt lat="59.5435024" lon="31.2038238">
<ele>41.889999</ele>
<time>2026-08-31T23:36:46.000Z</time>
</trkpt>
<trkpt lat="59.5435201" lon="31.2038734">
<ele>40.960003</ele>
<time>2026-08-31T23:37:06.000Z</time>
</trkpt>
<trkpt lat="59.5435362" lon="31.2040580">
<ele>41.410000</ele>
<time>2026-08-31T23:37:28.000Z</time>
</trkpt>
<trkpt lat="59.5435910" lon="31.2040780">
<ele>40.990002</ele>
<time>2026-08-31T23:37:47.000Z</time>
</trkpt>
<trkpt lat="59.5436186" lon="31.2040501">
<ele>40.619999</ele>
<time>2026-08-31T23:38:07.000Z</time>
</trkpt>
<trkpt lat="59.5437477" lon="31.2040915">
<ele>40.389999</ele>
<time>2026-08-31T23:38:24.000Z</time>
</trkpt>
<trkpt lat="59.5437648" lon="31.2040771">
<ele>40.750000</ele>
<time>2026-08-31T23:38:42.000Z</time>
</trkpt>
<trkpt lat="59.5438065" lon="31.2040824">
<ele>40.450001</ele>
<time>2026-08-31T23:38:55.000Z</time>
</trkpt>
<trkpt lat="59.5438124" lon="31.2039477">
<ele>39.700001</ele>
<time>2026-08-31T23:39:16.000Z</time>
</trkpt>
<trkpt lat="59.5438460" lon="31.2039629">
<ele>39.189999</ele>
<time>2026-08-31T23:39:30.000Z</time>
</trkpt>
<trkpt lat="59.5439081" lon="31.2040181">
<ele>37.750000</ele>
<time>2026-08-31T23:39:49.000Z</time>
</trkpt>
<trkpt lat="59.5439382" lon="31.2039719">
<ele>38.920002</ele>
<time>2026-08-31T23:40:13.000Z</time>
</trkpt>
<trkpt lat="59.5439263" lon="31.2039019">
<ele>38.120003</ele>
<time>2026-08-31T23:40:27.000Z</time>
</trkpt>
<trkpt lat="59.5439227" lon="31.2037903">
<ele>37.670002</ele>
<time>2026-08-31T23:40:36.000Z</time>
</trkpt>
<trkpt lat="59.5438851" lon="31.2035719">
<ele>41.200001</ele>
<time>2026-08-31T23:40:53.000Z</time>
</trkpt>
<trkpt lat="59.5438500" lon="31.2034953">
<ele>41.830002</ele>
<time>2026-08-31T23:41:06.000Z</time>
</trkpt>
<trkpt lat="59.5438789" lon="31.2034073">
<ele>42.309998</ele>
<time>2026-08-31T23:41:34.000Z</time>
</trkpt>
<trkpt lat="59.5439665" lon="31.2033209">
<ele>42.290001</ele>
<time>2026-08-31T23:41:50.000Z</time>
</trkpt>
<trkpt lat="59.5440302" lon="31.2032763">
<ele>42.009998</ele>
<time>2026-08-31T23:42:03.000Z</time>
</trkpt>
<trkpt lat="59.5441233" lon="31.2031871">
<ele>40.399998</ele>
<time>2026-08-31T23:42:19.000Z</time>
</trkpt>
<trkpt lat="59.5441876" lon="31.2031090">
<ele>39.770000</ele>
<time>2026-08-31T23:42:35.000Z</time>
</trkpt>
<trkpt lat="59.5441955" lon="31.2029482">
<ele>35.279999</ele>
<time>2026-08-31T23:42:58.000Z</time>
</trkpt>
<trkpt lat="59.5441871" lon="31.2029474">
<ele>36.100002</ele>
<time>2026-08-31T23:43:09.000Z</time>
</trkpt>
<trkpt lat="59.5442666" lon="31.2029926">
<ele>37.270000</ele>
<time>2026-08-31T23:43:32.000Z</time>
</trkpt>
<trkpt lat="59.5443436" lon="31.2029065">
<ele>40.649998</ele>
<time>2026-08-31T23:43:50.000Z</time>
</trkpt>
<trkpt lat="59.5443189" lon="31.2026274">
<ele>40.849998</ele>
<time>2026-08-31T23:44:10.000Z</time>
</trkpt>
<trkpt lat="59.5442990" lon="31.2025691">
<ele>40.450001</ele>
<time>2026-08-31T23:44:15.000Z</time>
</trkpt>
<trkpt lat="59.5442973" lon="31.2024398">
<ele>40.169998</ele>
<time>2026-08-31T23:44:28.000Z</time>
</trkpt>
<trkpt lat="59.5442974" lon="31.2022953">
<ele>42.190002</ele>
<time>2026-08-31T23:44:43.000Z</time>
</trkpt>
<trkpt lat="59.5443054" lon="31.2021045">
<ele>43.400002</ele>
<time>2026-08-31T23:44:58.000Z</time>
</trkpt>
<trkpt lat="59.5442929" lon="31.2020967">
<ele>44.599998</ele>
<time>2026-08-31T23:45:31.000Z</time>
</trkpt>
<trkpt lat="59.5443320" lon="31.2020467">
<ele>44.529999</ele>
<time>2026-08-31T23:45:54.000Z</time>
</trkpt>
<trkpt lat="59.5443011" lon="31.2021457">
<ele>42.139999</ele>
<time>2026-08-31T23:46:24.000Z</time>
</trkpt>
<trkpt lat="59.5442987" lon="31.2021095">
<ele>41.179996</ele>
<time>2026-08-31T23:46:53.000Z</time>
</trkpt>
<trkpt lat="59.5443693" lon="31.2021115">
<ele>40.949997</ele>
<time>2026-08-31T23:47:20.000Z</time>
</trkpt>
<trkpt lat="59.5444434" lon="31.2022208">
<ele>40.499996</ele>
<time>2026-08-31T23:47:38.000Z</time>
</trkpt>
<trkpt lat="59.5444499" lon="31.2022271">
<ele>40.459999</ele>
<time>2026-08-31T23:47:42.000Z</time>
</trkpt>
<trkpt lat="59.5445217" lon="31.2023683">
<ele>39.760002</ele>
<time>2026-08-31T23:48:00.000Z</time>
</trkpt>
<trkpt lat="59.5445557" lon="31.2024163">
<ele>39.320000</ele>
<time>2026-08-31T23:48:20.000Z</time>
</trkpt>
<trkpt lat="59.5446318" lon="31.2024064">
<ele>40.430000</ele>
<time>2026-08-31T23:48:38.000Z</time>
</trkpt>
<trkpt lat="59.5446651" lon="31.2024448">
<ele>40.239998</ele>
<time>2026-08-31T23:48:53.000Z</time>
</trkpt>
<trkpt lat="59.5446899" lon="31.2024257">
<ele>43.279999</ele>
<time>2026-08-31T23:49:25.000Z</time>
</trkpt>
<trkpt lat="59.5446641" lon="31.2022518">
<ele>43.759998</ele>
<time>2026-08-31T23:49:42.000Z</time>
</trkpt>
<trkpt lat="59.5446484" lon="31.2020384">
<ele>43.389999</ele>
<time>2026-08-31T23:50:03.000Z</time>
</trkpt>
<trkpt lat="59.5446282" lon="31.2019748">
<ele>43.529999</ele>
<time>2026-08-31T23:50:19.000Z</time>
</trkpt>
<trkpt lat="59.5446964" lon="31.2019431">
<ele>43.439999</ele>
<time>2026-08-31T23:50:47.000Z</time>
</trkpt>
<trkpt lat="59.5446934" lon="31.2019391">
<ele>43.360001</ele>
<time>2026-08-31T23:50:48.000Z</time>
</trkpt>
<trkpt lat="59.5446366" lon="31.2018409">
<ele>48.029999</ele>
<time>2026-08-31T23:51:11.000Z</time>
</trkpt>
<trkpt lat="59.5446402" lon="31.2018378">
<ele>50.009998</ele>
<time>2026-08-31T23:51:35.000Z</time>
</trkpt>
<trkpt lat="59.5447316" lon="31.2017983">
<ele>50.619999</ele>
<time>2026-08-31T23:51:56.000Z</time>
</trkpt>
<trkpt lat="59.5447677" lon="31.2016709">
<ele>50.580002</ele>
<time>2026-08-31T23:52:13.000Z</time>
</trkpt>
<trkpt lat="59.5447772" lon="31.2014059">
<ele>50.539997</ele>
<time>2026-08-31T23:52:31.000Z</time>
</trkpt>
<trkpt lat="59.5448212" lon="31.2012401">
<ele>51.299999</ele>
<time>2026-08-31T23:52:49.000Z</time>
</trkpt>
<trkpt lat="59.5449216" lon="31.2011691">
<ele>51.260002</ele>
<time>2026-08-31T23:53:09.000Z</time>
</trkpt>
<trkpt lat="59.5450099" lon="31.2011124">
<ele>50.940002</ele>
<time>2026-08-31T23:53:30.000Z</time>
</trkpt>
<trkpt lat="59.5450720" lon="31.2010700">
<ele>51.000000</ele>
<time>2026-08-31T23:53:44.000Z</time>
</trkpt>
<trkpt lat="59.5451079" lon="31.2008680">
<ele>52.020000</ele>
<time>2026-08-31T23:54:02.000Z</time>
</trkpt>
<trkpt lat="59.5451322" lon="31.2007519">
<ele>51.889999</ele>
<time>2026-08-31T23:54:21.000Z</time>
</trkpt>
<trkpt lat="59.5451218" lon="31.2006638">
<ele>51.529999</ele>
<time>2026-08-31T23:54:30.000Z</time>
</trkpt>
<trkpt lat="59.5451563" lon="31.2003504">
<ele>50.520000</ele>
<time>2026-08-31T23:54:48.000Z</time>
</trkpt>
<trkpt lat="59.5452503" lon="31.2002406">
<ele>50.149998</ele>
<time>2026-08-31T23:55:05.000Z</time>
</trkpt>
<trkpt lat="59.5453030" lon="31.2001997">
<ele>49.310001</ele>
<time>2026-08-31T23:55:24.000Z</time>
</trkpt>
<trkpt lat="59.5453213" lon="31.2001250">
<ele>48.580002</ele>
<time>2026-08-31T23:55:46.000Z</time>
</trkpt>
<trkpt lat="59.5453941" lon="31.2000285">
<ele>48.619999</ele>
<time>2026-08-31T23:56:08.000Z</time>
</trkpt>
<trkpt lat="59.5454446" lon="31.2000117">
<ele>46.889999</ele>
<time>2026-08-31T23:56:26.000Z</time>
</trkpt>
<trkpt lat="59.5454918" lon="31.1999129">
<ele>45.590000</ele>
<time>2026-08-31T23:56:44.000Z</time>
</trkpt>
<trkpt lat="59.5455447" lon="31.1998436">
<ele>44.010002</ele>
<time>2026-08-31T23:57:04.000Z</time>
</trkpt>
<trkpt lat="59.5455684" lon="31.1998342">
<ele>41.910000</ele>
<time>2026-08-31T23:57:26.000Z</time>
</trkpt>
<trkpt lat="59.5454684" lon="31.1998246">
<ele>41.469997</ele>
<time>2026-08-31T23:57:55.000Z</time>
</trkpt>
<trkpt lat="59.5455405" lon="31.1998091">
<ele>42.049999</ele>
<time>2026-08-31T23:58:17.000Z</time>
</trkpt>
<trkpt lat="59.5455259" lon="31.1997917">
<ele>42.689999</ele>
<time>2026-08-31T23:58:26.000Z</time>
</trkpt>
<trkpt lat="59.5454762" lon="31.1997570">
<ele>44.620003</ele>
<time>2026-08-31T23:58:54.000Z</time>
</trkpt>
<trkpt lat="59.5455973" lon="31.1997433">
<ele>43.689999</ele>
<time>2026-08-31T23:59:20.000Z</time>
</trkpt>
<trkpt lat="59.5456668" lon="31.1997615">
<ele>42.810001</ele>
<time>2026-08-31T23:59:53.000Z</time>
</trkpt>
<trkpt lat="59.5457399" lon="31.1997107">
<ele>42.689999</ele>
<time>2026-09-01T00:00:09.000Z</time>
</trkpt>
<trkpt lat="59.5458410" lon="31.1995460">
<ele>42.139999</ele>
<time>2026-09-01T00:00:26.000Z</time>
</trkpt>
<trkpt lat="59.5459091" lon="31.1995164">
<ele>41.670002</ele>
<time>2026-09-01T00:00:42.000Z</time>
</trkpt>
<trkpt lat="59.5459714" lon="31.1993512">
<ele>41.050003</ele>
<time>2026-09-01T00:01:00.000Z</time>
</trkpt>
<trkpt lat="59.5459820" lon="31.1991134">
<ele>37.790001</ele>
<time>2026-09-01T00:01:20.000Z</time>
</trkpt>
<trkpt lat="59.5460543" lon="31.1991176">
<ele>37.709999</ele>
<time>2026-09-01T00:01:35.000Z</time>
</trkpt>
<trkpt lat="59.5461109" lon="31.1991499">
<ele>37.299999</ele>
<time>2026-09-01T00:01:44.000Z</time>
</trkpt>
<trkpt lat="59.5461462" lon="31.1992007">
<ele>39.670002</ele>
<time>2026-09-01T00:02:01.000Z</time>
</trkpt>
<trkpt lat="59.5460975" lon="31.1992036">
<ele>38.410000</ele>
<time>2026-09-01T00:02:33.000Z</time>
</trkpt>
<trkpt lat="59.5461327" lon="31.1991941">
<ele>38.439999</ele>
<time>2026-09-01T00:02:43.000Z</time>
</trkpt>
<trkpt lat="59.5461704" lon="31.1991785">
<ele>38.590000</ele>
<time>2026-09-01T00:02:48.000Z</time>
</trkpt>
<trkpt lat="59.5462369" lon="31.1990093">
<ele>38.560001</ele>
<time>2026-09-01T00:03:02.000Z</time>
</trkpt>
<trkpt lat="59.5462485" lon="31.1989518">
<ele>38.459999</ele>
<time>2026-09-01T00:03:08.000Z</time>
</trkpt>
<trkpt lat="59.5463495" lon="31.1987912">
<ele>38.540001</ele>
<time>2026-09-01T00:03:22.000Z</time>
</trkpt>
<trkpt lat="59.5464371" lon="31.1987056">
<ele>40.000000</ele>
<time>2026-09-01T00:03:37.000Z</time>
</trkpt>
<trkpt lat="59.5464932" lon="31.1986197">
<ele>41.469997</ele>
<time>2026-09-01T00:03:51.000Z</time>
</trkpt>
<trkpt lat="59.5465141" lon="31.1985548">
<ele>42.030003</ele>
<time>2026-09-01T00:04:12.000Z</time>
</trkpt>
<trkpt lat="59.5465606" lon="31.1985332">
<ele>43.299999</ele>
<time>2026-09-01T00:04:31.000Z</time>
</trkpt>
<trkpt lat="59.5465795" lon="31.1984605">
<ele>45.010002</ele>
<time>2026-09-01T00:04:48.000Z</time>
</trkpt>
<trkpt lat="59.5465495" lon="31.1983422">
<ele>44.579998</ele>
<time>2026-09-01T00:05:07.000Z</time>
</trkpt>
<trkpt lat="59.5465673" lon="31.1981073">
<ele>43.870003</ele>
<time>2026-09-01T00:05:26.000Z</time>
</trkpt>
<trkpt lat="59.5465440" lon="31.1979469">
<ele>42.870003</ele>
<time>2026-09-01T00:05:41.000Z</time>
</trkpt>
<trkpt lat="59.5466070" lon="31.1977951">
<ele>43.330002</ele>
<time>2026-09-01T00:05:55.000Z</time>
</trkpt>
<trkpt lat="59.5466505" lon="31.1976325">
<ele>44.049999</ele>
<time>2026-09-01T00:06:12.000Z</time>
</trkpt>
<trkpt lat="59.5467124" lon="31.1975028">
<ele>44.839996</ele>
<time>2026-09-01T00:06:28.000Z</time>
</trkpt>
<trkpt lat="59.5468132" lon="31.1974362">
<ele>45.610001</ele>
<time>2026-09-01T00:06:45.000Z</time>
</trkpt>
<trkpt lat="59.5468707" lon="31.1973418">
<ele>42.330002</ele>
<time>2026-09-01T00:06:59.000Z</time>
</trkpt>
<trkpt lat="59.5468710" lon="31.1972874">
<ele>41.029999</ele>
<time>2026-09-01T00:07:18.000Z</time>
</trkpt>
<trkpt lat="59.5468813" lon="31.1972114">
<ele>40.980000</ele>
<time>2026-09-01T00:07:43.000Z</time>
</trkpt>
<trkpt lat="59.5469304" lon="31.1971116">
<ele>41.889999</ele>
<time>2026-09-01T00:08:06.000Z</time>
</trkpt>
<trkpt lat="59.5469339" lon="31.1971593">
<ele>43.410000</ele>
<time>2026-09-01T00:08:30.000Z</time>
</trkpt>
<trkpt lat="59.5469092" lon="31.1972289">
<ele>44.609997</ele>
<time>2026-09-01T00:08:52.000Z</time>
</trkpt>
<trkpt lat="59.5469467" lon="31.1972414">
<ele>44.010002</ele>
<time>2026-09-01T00:09:15.000Z</time>
</trkpt>
<trkpt lat="59.5469106" lon="31.1972944">
<ele>43.590000</ele>
<time>2026-09-01T00:09:27.000Z</time>
</trkpt>
<trkpt lat="59.5469389" lon="31.1974682">
<ele>43.130001</ele>
<time>2026-09-01T00:09:47.000Z</time>
</trkpt>
<trkpt lat="59.5469859" lon="31.1977680">
<ele>40.180000</ele>
<time>2026-09-01T00:10:05.000Z</time>
</trkpt>
<trkpt lat="59.5470282" lon="31.1978806">
<ele>38.369999</ele>
<time>2026-09-01T00:10:24.000Z</time>
</trkpt>
<trkpt lat="59.5470160" lon="31.1979570">
<ele>39.500000</ele>
<time>2026-09-01T00:10:51.000Z</time>
</trkpt>
<trkpt lat="59.5469189" lon="31.1975656">
<ele>33.689999</ele>
<time>2026-09-01T00:11:12.000Z</time>
</trkpt>
<trkpt lat="59.5468813" lon="31.1974834">
<ele>31.410000</ele>
<time>2026-09-01T00:11:34.000Z</time>
</trkpt>
<trkpt lat="59.5468334" lon="31.1973374">
<ele>33.980000</ele>
<time>2026-09-01T00:11:57.000Z</time>
</trkpt>
<trkpt lat="59.5468749" lon="31.1972611">
<ele>36.189999</ele>
<time>2026-09-01T00:12:22.000Z</time>
</trkpt>
<trkpt lat="59.5468835" lon="31.1972866">
<ele>36.689999</ele>
<time>2026-09-01T00:12:38.000Z</time>
</trkpt>
<trkpt lat="59.5469111" lon="31.1972347">
<ele>36.990002</ele>
<time>2026-09-01T00:13:04.000Z</time>
</trkpt>
<trkpt lat="59.5469572" lon="31.1971798">
<ele>37.079998</ele>
<time>2026-09-01T00:13:18.000Z</time>
</trkpt>
<trkpt lat="59.5470411" lon="31.1973071">
<ele>37.070000</ele>
<time>2026-09-01T00:13:36.000Z</time>
</trkpt>
<trkpt lat="59.5470954" lon="31.1973464">
<ele>36.980000</ele>
<time>2026-09-01T00:13:54.000Z</time>
</trkpt>
<trkpt lat="59.5471498" lon="31.1973328">
<ele>36.689999</ele>
<time>2026-09-01T00:14:11.000Z</time>
</trkpt>
<trkpt lat="59.5472229" lon="31.1972545">
<ele>36.430000</ele>
<time>2026-09-01T00:14:28.000Z</time>
</trkpt>
<trkpt lat="59.5473011" lon="31.1971747">
<ele>36.470001</ele>
<time>2026-09-01T00:14:47.000Z</time>
</trkpt>
<trkpt lat="59.5473180" lon="31.1971595">
<ele>36.650002</ele>
<time>2026-09-01T00:14:51.000Z</time>
</trkpt>
<trkpt lat="59.5473809" lon="31.1970141">
<ele>38.580002</ele>
<time>2026-09-01T00:15:13.000Z</time>
</trkpt>
<trkpt lat="59.5473692" lon="31.1969331">
<ele>39.970001</ele>
<time>2026-09-01T00:15:37.000Z</time>
</trkpt>
<trkpt lat="59.5474312" lon="31.1968662">
<ele>41.270000</ele>
<time>2026-09-01T00:15:58.000Z</time>
</trkpt>
<trkpt lat="59.5475060" lon="31.1967065">
<ele>41.040001</ele>
<time>2026-09-01T00:16:18.000Z</time>
</trkpt>
<trkpt lat="59.5474918" lon="31.1965280">
<ele>40.020000</ele>
<time>2026-09-01T00:16:38.000Z</time>
</trkpt>
<trkpt lat="59.5474834" lon="31.1964502">
<ele>40.459999</ele>
<time>2026-09-01T00:16:58.000Z</time>
</trkpt>
<trkpt lat="59.5474983" lon="31.1964566">
<ele>41.019997</ele>
<time>2026-09-01T00:17:18.000Z</time>
</trkpt>
<trkpt lat="59.5474670" lon="31.1965209">
<ele>40.600002</ele>
<time>2026-09-01T00:17:35.000Z</time>
</trkpt>
<trkpt lat="59.5474627" lon="31.1965178">
<ele>40.570000</ele>
<time>2026-09-01T00:17:36.000Z</time>
</trkpt>
<trkpt lat="59.5474253" lon="31.1965362">
<ele>40.709999</ele>
<time>2026-09-01T00:17:57.000Z</time>
</trkpt>
<trkpt lat="59.5474186" lon="31.1966063">
<ele>40.970001</ele>
<time>2026-09-01T00:18:17.000Z</time>
</trkpt>
<trkpt lat="59.5473297" lon="31.1965933">
<ele>40.570000</ele>
<time>2026-09-01T00:18:49.000Z</time>
</trkpt>
<trkpt lat="59.5472979" lon="31.1965447">
<ele>41.230000</ele>
<time>2026-09-01T00:19:16.000Z</time>
</trkpt>
<trkpt lat="59.5473001" lon="31.1964357">
<ele>41.350002</ele>
<time>2026-09-01T00:19:32.000Z</time>
</trkpt>
<trkpt lat="59.5472803" lon="31.1963249">
<ele>42.320000</ele>
<time>2026-09-01T00:20:00.000Z</time>
</trkpt>
<trkpt lat="59.5472735" lon="31.1962815">
<ele>43.060001</ele>
<time>2026-09-01T00:20:19.000Z</time>
</trkpt>
<trkpt lat="59.5472504" lon="31.1962137">
<ele>43.469997</ele>
<time>2026-09-01T00:20:39.000Z</time>
</trkpt>
<trkpt lat="59.5472675" lon="31.1960874">
<ele>43.959999</ele>
<time>2026-09-01T00:21:00.000Z</time>
</trkpt>
<trkpt lat="59.5473078" lon="31.1961362">
<ele>44.299999</ele>
<time>2026-09-01T00:21:17.000Z</time>
</trkpt>
<trkpt lat="59.5473491" lon="31.1961657">
<ele>45.129997</ele>
<time>2026-09-01T00:21:33.000Z</time>
</trkpt>
<trkpt lat="59.5473777" lon="31.1960712">
<ele>45.690002</ele>
<time>2026-09-01T00:21:53.000Z</time>
</trkpt>
<trkpt lat="59.5473853" lon="31.1960717">
<ele>45.139999</ele>
<time>2026-09-01T00:22:19.000Z</time>
</trkpt>
<trkpt lat="59.5474302" lon="31.1961393">
<ele>45.279999</ele>
<time>2026-09-01T00:22:41.000Z</time>
</trkpt>
<trkpt lat="59.5474692" lon="31.1961206">
<ele>45.439999</ele>
<time>2026-09-01T00:22:58.000Z</time>
</trkpt>
<trkpt lat="59.5474792" lon="31.1962089">
<ele>44.910000</ele>
<time>2026-09-01T00:23:21.000Z</time>
</trkpt>
<trkpt lat="59.5475250" lon="31.1962647">
<ele>45.400002</ele>
<time>2026-09-01T00:23:38.000Z</time>
</trkpt>
<trkpt lat="59.5475517" lon="31.1963255">
<ele>45.690002</ele>
<time>2026-09-01T00:23:55.000Z</time>
</trkpt>
<trkpt lat="59.5475684" lon="31.1963777">
<ele>46.110001</ele>
<time>2026-09-01T00:24:11.000Z</time>
</trkpt>
<trkpt lat="59.5475878" lon="31.1963312">
<ele>46.709999</ele>
<time>2026-09-01T00:24:27.000Z</time>
</trkpt>
<trkpt lat="59.5475866" lon="31.1963449">
<ele>46.549999</ele>
<time>2026-09-01T00:24:44.000Z</time>
</trkpt>
<trkpt lat="59.5476068" lon="31.1963180">
<ele>45.369999</ele>
<time>2026-09-01T00:25:08.000Z</time>
</trkpt>
<trkpt lat="59.5476039" lon="31.1963188">
<ele>45.540001</ele>
<time>2026-09-01T00:25:18.000Z</time>
</trkpt>
<trkpt lat="59.5476026" lon="31.1962613">
<ele>46.330002</ele>
<time>2026-09-01T00:25:39.000Z</time>
</trkpt>
<trkpt lat="59.5476203" lon="31.1962713">
<ele>47.250000</ele>
<time>2026-09-01T00:25:59.000Z</time>
</trkpt>
<trkpt lat="59.5476317" lon="31.1962664">
<ele>46.790001</ele>
<time>2026-09-01T00:26:21.000Z</time>
</trkpt>
<trkpt lat="59.5476104" lon="31.1962305">
<ele>46.530003</ele>
<time>2026-09-01T00:26:42.000Z</time>
</trkpt>
<trkpt lat="59.5476343" lon="31.1962293">
<ele>46.669998</ele>
<time>2026-09-01T00:27:11.000Z</time>
</trkpt>
<trkpt lat="59.5476628" lon="31.1962728">
<ele>46.150002</ele>
<time>2026-09-01T00:27:39.000Z</time>
</trkpt>
<trkpt lat="59.5475991" lon="31.1961999">
<ele>46.160000</ele>
<time>2026-09-01T00:28:07.000Z</time>
</trkpt>
<trkpt lat="59.5475853" lon="31.1962110">
<ele>47.360001</ele>
<time>2026-09-01T00:28:29.000Z</time>
</trkpt>
<trkpt lat="59.5475849" lon="31.1962278">
<ele>47.470001</ele>
<time>2026-09-01T00:28:53.000Z</time>
</trkpt>
<trkpt lat="59.5476026" lon="31.1962397">
<ele>47.450001</ele>
<time>2026-09-01T00:29:17.000Z</time>
</trkpt>
<trkpt lat="59.5475951" lon="31.1961815">
<ele>47.500000</ele>
<time>2026-09-01T00:29:29.000Z</time>
</trkpt>
<trkpt lat="59.5475172" lon="31.1961885">
<ele>47.380001</ele>
<time>2026-09-01T00:29:50.000Z</time>
</trkpt>
<trkpt lat="59.5475666" lon="31.1960547">
<ele>48.730003</ele>
<time>2026-09-01T00:30:16.000Z</time>
</trkpt>
<trkpt lat="59.5476123" lon="31.1959711">
<ele>49.220001</ele>
<time>2026-09-01T00:30:31.000Z</time>
</trkpt>
<trkpt lat="59.5476336" lon="31.1959629">
<ele>49.179996</ele>
<time>2026-09-01T00:30:39.000Z</time>
</trkpt>
<trkpt lat="59.5477253" lon="31.1958567">
<ele>49.079998</ele>
<time>2026-09-01T00:31:02.000Z</time>
</trkpt>
<trkpt lat="59.5476579" lon="31.1958620">
<ele>50.009998</ele>
<time>2026-09-01T00:31:19.000Z</time>
</trkpt>
<trkpt lat="59.5476772" lon="31.1958676">
<ele>50.450001</ele>
<time>2026-09-01T00:31:49.000Z</time>
</trkpt>
<trkpt lat="59.5476953" lon="31.1956663">
<ele>49.090000</ele>
<time>2026-09-01T00:32:09.000Z</time>
</trkpt>
<trkpt lat="59.5477466" lon="31.1955812">
<ele>44.079998</ele>
<time>2026-09-01T00:32:34.000Z</time>
</trkpt>
<trkpt lat="59.5477301" lon="31.1955875">
<ele>45.029999</ele>
<time>2026-09-01T00:33:05.000Z</time>
</trkpt>
<trkpt lat="59.5476530" lon="31.1954766">
<ele>45.100002</ele>
<time>2026-09-01T00:33:21.000Z</time>
</trkpt>
<trkpt lat="59.5475837" lon="31.1954831">
<ele>45.590000</ele>
<time>2026-09-01T00:33:47.000Z</time>
</trkpt>
<trkpt lat="59.5475148" lon="31.1954545">
<ele>45.760002</ele>
<time>2026-09-01T00:34:02.000Z</time>
</trkpt>
<trkpt lat="59.5474529" lon="31.1954186">
<ele>46.129997</ele>
<time>2026-09-01T00:34:08.000Z</time>
</trkpt>
<trkpt lat="59.5473887" lon="31.1953620">
<ele>46.950001</ele>
<time>2026-09-01T00:34:26.000Z</time>
</trkpt>
<trkpt lat="59.5472954" lon="31.1953403">
<ele>47.119999</ele>
<time>2026-09-01T00:34:41.000Z</time>
</trkpt>
<trkpt lat="59.5473337" lon="31.1952470">
<ele>47.150002</ele>
<time>2026-09-01T00:35:01.000Z</time>
</trkpt>
<trkpt lat="59.5472989" lon="31.1951811">
<ele>47.240002</ele>
<time>2026-09-01T00:35:20.000Z</time>
</trkpt>
<trkpt lat="59.5473325" lon="31.1951423">
<ele>46.969997</ele>
<time>2026-09-01T00:35:43.000Z</time>
</trkpt>
<trkpt lat="59.5472695" lon="31.1951630">
<ele>46.530003</ele>
<time>2026-09-01T00:35:58.000Z</time>
</trkpt>
<trkpt lat="59.5472253" lon="31.1951128">
<ele>47.719997</ele>
<time>2026-09-01T00:36:20.000Z</time>
</trkpt>
<trkpt lat="59.5471800" lon="31.1950676">
<ele>47.630001</ele>
<time>2026-09-01T00:36:41.000Z</time>
</trkpt>
<trkpt lat="59.5471214" lon="31.1950254">
<ele>48.119999</ele>
<time>2026-09-01T00:37:00.000Z</time>
</trkpt>
<trkpt lat="59.5471421" lon="31.1949907">
<ele>48.590000</ele>
<time>2026-09-01T00:37:25.000Z</time>
</trkpt>
<trkpt lat="59.5471637" lon="31.1950289">
<ele>48.499996</ele>
<time>2026-09-01T00:37:34.000Z</time>
</trkpt>
<trkpt lat="59.5472232" lon="31.1950334">
<ele>48.689999</ele>
<time>2026-09-01T00:37:55.000Z</time>
</trkpt>
<trkpt lat="59.5470964" lon="31.1948844">
<ele>47.719997</ele>
<time>2026-09-01T00:38:16.000Z</time>
</trkpt>
<trkpt lat="59.5470946" lon="31.1948045">
<ele>47.849998</ele>
<time>2026-09-01T00:38:33.000Z</time>
</trkpt>
<trkpt lat="59.5470898" lon="31.1948690">
<ele>47.700001</ele>
<time>2026-09-01T00:38:52.000Z</time>
</trkpt>
<trkpt lat="59.5470694" lon="31.1948965">
<ele>48.109997</ele>
<time>2026-09-01T00:39:14.000Z</time>
</trkpt>
<trkpt lat="59.5470661" lon="31.1949220">
<ele>47.730000</ele>
<time>2026-09-01T00:39:33.000Z</time>
</trkpt>
<trkpt lat="59.5470422" lon="31.1949553">
<ele>48.380001</ele>
<time>2026-09-01T00:39:55.000Z</time>
</trkpt>
<trkpt lat="59.5470325" lon="31.1949764">
<ele>48.910000</ele>
<time>2026-09-01T00:40:02.000Z</time>
</trkpt>
<trkpt lat="59.5469913" lon="31.1949481">
<ele>49.190002</ele>
<time>2026-09-01T00:40:21.000Z</time>
</trkpt>
<trkpt lat="59.5469675" lon="31.1948967">
<ele>49.770000</ele>
<time>2026-09-01T00:40:38.000Z</time>
</trkpt>
<trkpt lat="59.5469645" lon="31.1948863">
<ele>49.650002</ele>
<time>2026-09-01T00:40:59.000Z</time>
</trkpt>
<trkpt lat="59.5469644" lon="31.1948457">
<ele>48.670002</ele>
<time>2026-09-01T00:41:20.000Z</time>
</trkpt>
<trkpt lat="59.5469278" lon="31.1948899">
<ele>48.250000</ele>
<time>2026-09-01T00:41:39.000Z</time>
</trkpt>
<trkpt lat="59.5469078" lon="31.1949798">
<ele>47.860001</ele>
<time>2026-09-01T00:42:03.000Z</time>
</trkpt>
<trkpt lat="59.5469248" lon="31.1949699">
<ele>49.029999</ele>
<time>2026-09-01T00:42:26.000Z</time>
</trkpt>
<trkpt lat="59.5468937" lon="31.1950178">
<ele>51.689999</ele>
<time>2026-09-01T00:42:51.000Z</time>
</trkpt>
<trkpt lat="59.5468935" lon="31.1949801">
<ele>53.029999</ele>
<time>2026-09-01T00:43:13.000Z</time>
</trkpt>
<trkpt lat="59.5469146" lon="31.1949459">
<ele>52.170002</ele>
<time>2026-09-01T00:43:41.000Z</time>
</trkpt>
<trkpt lat="59.5468634" lon="31.1948892">
<ele>51.480003</ele>
<time>2026-09-01T00:44:07.000Z</time>
</trkpt>
<trkpt lat="59.5468349" lon="31.1948478">
<ele>50.469997</ele>
<time>2026-09-01T00:44:30.000Z</time>
</trkpt>
<trkpt lat="59.5468707" lon="31.1949239">
<ele>50.699997</ele>
<time>2026-09-01T00:44:59.000Z</time>
</trkpt>
<trkpt lat="59.5468876" lon="31.1949474">
<ele>50.340000</ele>
<time>2026-09-01T00:45:35.000Z</time>
</trkpt>
<trkpt lat="59.5468563" lon="31.1949082">
<ele>49.529999</ele>
<time>2026-09-01T00:46:05.000Z</time>
</trkpt>
<trkpt lat="59.5468339" lon="31.1949026">
<ele>49.590000</ele>
<time>2026-09-01T00:46:30.000Z</time>
</trkpt>
<trkpt lat="59.5468725" lon="31.1949165">
<ele>49.329998</ele>
<time>2026-09-01T00:46:53.000Z</time>
</trkpt>
<trkpt lat="59.5468812" lon="31.1949253">
<ele>49.350002</ele>
<time>2026-09-01T00:47:37.000Z</time>
</trkpt>
<trkpt lat="59.5468784" lon="31.1949400">
<ele>48.430000</ele>
<time>2026-09-01T00:48:04.000Z</time>
</trkpt>
<trkpt lat="59.5468665" lon="31.1949502">
<ele>48.250000</ele>
<time>2026-09-01T00:48:36.000Z</time>
</trkpt>
<trkpt lat="59.5468547" lon="31.1949576">
<ele>50.120003</ele>
<time>2026-09-01T00:49:09.000Z</time>
</trkpt>
<trkpt lat="59.5468687" lon="31.1949476">
<ele>49.700001</ele>
<time>2026-09-01T00:49:33.000Z</time>
</trkpt>
<trkpt lat="59.5468737" lon="31.1949492">
<ele>50.309998</ele>
<time>2026-09-01T00:49:59.000Z</time>
</trkpt>
<trkpt lat="59.5468671" lon="31.1949958">
<ele>49.670002</ele>
<time>2026-09-01T00:50:20.000Z</time>
</trkpt>
<trkpt lat="59.5468751" lon="31.1949876">
<ele>50.070000</ele>
<time>2026-09-01T00:50:43.000Z</time>
</trkpt>
<trkpt lat="59.5468668" lon="31.1949713">
<ele>50.329998</ele>
<time>2026-09-01T00:51:08.000Z</time>
</trkpt>
<trkpt lat="59.5468479" lon="31.1950485">
<ele>50.149998</ele>
<time>2026-09-01T00:51:24.000Z</time>
</trkpt>
<trkpt lat="59.5468349" lon="31.1950885">
<ele>49.670002</ele>
<time>2026-09-01T00:51:47.000Z</time>
</trkpt>
<trkpt lat="59.5468036" lon="31.1951631">
<ele>50.280003</ele>
<time>2026-09-01T00:52:06.000Z</time>
</trkpt>
<trkpt lat="59.5467888" lon="31.1951847">
<ele>50.459999</ele>
<time>2026-09-01T00:52:14.000Z</time>
</trkpt>
<trkpt lat="59.5468468" lon="31.1952036">
<ele>50.450001</ele>
<time>2026-09-01T00:52:38.000Z</time>
</trkpt>
<trkpt lat="59.5468673" lon="31.1952769">
<ele>50.849998</ele>
<time>2026-09-01T00:52:53.000Z</time>
</trkpt>
<trkpt lat="59.5468168" lon="31.1953662">
<ele>50.580002</ele>
<time>2026-09-01T00:53:17.000Z</time>
</trkpt>
<trkpt lat="59.5468002" lon="31.1954733">
<ele>50.740002</ele>
<time>2026-09-01T00:53:37.000Z</time>
</trkpt>
<trkpt lat="59.5468028" lon="31.1954985">
<ele>51.290001</ele>
<time>2026-09-01T00:53:56.000Z</time>
</trkpt>
<trkpt lat="59.5468088" lon="31.1955375">
<ele>51.759998</ele>
<time>2026-09-01T00:54:20.000Z</time>
</trkpt>
<trkpt lat="59.5468088" lon="31.1956514">
<ele>52.400002</ele>
<time>2026-09-01T00:54:41.000Z</time>
</trkpt>
<trkpt lat="59.5467218" lon="31.1957936">
<ele>51.190002</ele>
<time>2026-09-01T00:54:59.000Z</time>
</trkpt>
<trkpt lat="59.5466341" lon="31.1958709">
<ele>51.340000</ele>
<time>2026-09-01T00:55:17.000Z</time>
</trkpt>
<trkpt lat="59.5465682" lon="31.1959517">
<ele>50.840000</ele>
<time>2026-09-01T00:55:37.000Z</time>
</trkpt>
<trkpt lat="59.5464896" lon="31.1960551">
<ele>51.119999</ele>
<time>2026-09-01T00:55:54.000Z</time>
</trkpt>
<trkpt lat="59.5464811" lon="31.1960914">
<ele>51.780003</ele>
<time>2026-09-01T00:56:20.000Z</time>
</trkpt>
<trkpt lat="59.5464429" lon="31.1960857">
<ele>53.390003</ele>
<time>2026-09-01T00:56:40.000Z</time>
</trkpt>
<trkpt lat="59.5464795" lon="31.1961559">
<ele>51.849998</ele>
<time>2026-09-01T00:57:02.000Z</time>
</trkpt>
<trkpt lat="59.5464800" lon="31.1960414">
<ele>51.539997</ele>
<time>2026-09-01T00:57:29.000Z</time>
</trkpt>
<trkpt lat="59.5464735" lon="31.1960578">
<ele>51.660000</ele>
<time>2026-09-01T00:57:53.000Z</time>
</trkpt>
<trkpt lat="59.5464936" lon="31.1960761">
<ele>50.619999</ele>
<time>2026-09-01T00:58:18.000Z</time>
</trkpt>
<trkpt lat="59.5464302" lon="31.1961017">
<ele>50.560001</ele>
<time>2026-09-01T00:58:38.000Z</time>
</trkpt>
<trkpt lat="59.5463958" lon="31.1961364">
<ele>49.680000</ele>
<time>2026-09-01T00:59:03.000Z</time>
</trkpt>
<trkpt lat="59.5464638" lon="31.1960542">
<ele>49.970001</ele>
<time>2026-09-01T00:59:18.000Z</time>
</trkpt>
<trkpt lat="59.5464863" lon="31.1958691">
<ele>47.970001</ele>
<time>2026-09-01T00:59:33.000Z</time>
</trkpt>
<trkpt lat="59.5464747" lon="31.1957604">
<ele>47.340000</ele>
<time>2026-09-01T00:59:48.000Z</time>
</trkpt>
<trkpt lat="59.5464312" lon="31.1957433">
<ele>48.119999</ele>
<time>2026-09-01T01:00:05.000Z</time>
</trkpt>
<trkpt lat="59.5464558" lon="31.1957686">
<ele>48.600002</ele>
<time>2026-09-01T01:00:32.000Z</time>
</trkpt>
<trkpt lat="59.5464711" lon="31.1959353">
<ele>47.680000</ele>
<time>2026-09-01T01:00:55.000Z</time>
</trkpt>
<trkpt lat="59.5464118" lon="31.1959231">
<ele>47.830002</ele>
<time>2026-09-01T01:01:13.000Z</time>
</trkpt>
<trkpt lat="59.5463350" lon="31.1957675">
<ele>47.070000</ele>
<time>2026-09-01T01:01:33.000Z</time>
</trkpt>
<trkpt lat="59.5462140" lon="31.1957299">
<ele>45.620003</ele>
<time>2026-09-01T01:01:49.000Z</time>
</trkpt>
<trkpt lat="59.5461448" lon="31.1958084">
<ele>45.320000</ele>
<time>2026-09-01T01:02:12.000Z</time>
</trkpt>
<trkpt lat="59.5461149" lon="31.1958256">
<ele>47.879997</ele>
<time>2026-09-01T01:02:35.000Z</time>
</trkpt>
<trkpt lat="59.5460750" lon="31.1959332">
<ele>47.570000</ele>
<time>2026-09-01T01:02:54.000Z</time>
</trkpt>
<trkpt lat="59.5460733" lon="31.1959459">
<ele>47.389999</ele>
<time>2026-09-01T01:03:14.000Z</time>
</trkpt>
<trkpt lat="59.5460745" lon="31.1959374">
<ele>47.770000</ele>
<time>2026-09-01T01:03:34.000Z</time>
</trkpt>
<trkpt lat="59.5460921" lon="31.1959341">
<ele>48.900002</ele>
<time>2026-09-01T01:04:01.000Z</time>
</trkpt>
<trkpt lat="59.5460329" lon="31.1958510">
<ele>48.689999</ele>
<time>2026-09-01T01:04:29.000Z</time>
</trkpt>
<trkpt lat="59.5460394" lon="31.1959354">
<ele>51.959999</ele>
<time>2026-09-01T01:04:57.000Z</time>
</trkpt>
<trkpt lat="59.5461284" lon="31.1959409">
<ele>56.440002</ele>
<time>2026-09-01T01:05:27.000Z</time>
</trkpt>
<trkpt lat="59.5461325" lon="31.1959561">
<ele>57.040001</ele>
<time>2026-09-01T01:05:49.000Z</time>
</trkpt>
<trkpt lat="59.5461158" lon="31.1959688">
<ele>56.779999</ele>
<time>2026-09-01T01:06:10.000Z</time>
</trkpt>
<trkpt lat="59.5461471" lon="31.1959893">
<ele>56.370003</ele>
<time>2026-09-01T01:06:45.000Z</time>
</trkpt>
<trkpt lat="59.5461520" lon="31.1959466">
<ele>56.109997</ele>
<time>2026-09-01T01:07:10.000Z</time>
</trkpt>
<trkpt lat="59.5461077" lon="31.1959078">
<ele>54.600002</ele>
<time>2026-09-01T01:07:32.000Z</time>
</trkpt>
<trkpt lat="59.5461358" lon="31.1959506">
<ele>53.909996</ele>
<time>2026-09-01T01:08:00.000Z</time>
</trkpt>
<trkpt lat="59.5461017" lon="31.1959549">
<ele>54.180000</ele>
<time>2026-09-01T01:08:24.000Z</time>
</trkpt>
<trkpt lat="59.5460978" lon="31.1958943">
<ele>54.860001</ele>
<time>2026-09-01T01:08:49.000Z</time>
</trkpt>
<trkpt lat="59.5461048" lon="31.1958971">
<ele>54.620003</ele>
<time>2026-09-01T01:09:09.000Z</time>
</trkpt>
<trkpt lat="59.5461468" lon="31.1959515">
<ele>53.669998</ele>
<time>2026-09-01T01:09:38.000Z</time>
</trkpt>
<trkpt lat="59.5461421" lon="31.1959424">
<ele>52.449997</ele>
<time>2026-09-01T01:10:01.000Z</time>
</trkpt>
<trkpt lat="59.5460970" lon="31.1960120">
<ele>51.980000</ele>
<time>2026-09-01T01:10:19.000Z</time>
</trkpt>
<trkpt lat="59.5460481" lon="31.1960784">
<ele>50.350002</ele>
<time>2026-09-01T01:10:38.000Z</time>
</trkpt>
<trkpt lat="59.5460017" lon="31.1961269">
<ele>49.549999</ele>
<time>2026-09-01T01:11:01.000Z</time>
</trkpt>
<trkpt lat="59.5459227" lon="31.1963272">
<ele>48.510002</ele>
<time>2026-09-01T01:11:23.000Z</time>
</trkpt>
<trkpt lat="59.5458534" lon="31.1964775">
<ele>47.939999</ele>
<time>2026-09-01T01:11:43.000Z</time>
</trkpt>
<trkpt lat="59.5457609" lon="31.1965685">
<ele>46.410000</ele>
<time>2026-09-01T01:12:06.000Z</time>
</trkpt>
<trkpt lat="59.5457153" lon="31.1966552">
<ele>45.439999</ele>
<time>2026-09-01T01:12:28.000Z</time>
</trkpt>
<trkpt lat="59.5456606" lon="31.1967427">
<ele>44.989998</ele>
<time>2026-09-01T01:12:47.000Z</time>
</trkpt>
<trkpt lat="59.5455999" lon="31.1968264">
<ele>44.730000</ele>
<time>2026-09-01T01:13:05.000Z</time>
</trkpt>
<trkpt lat="59.5455575" lon="31.1968876">
<ele>44.639999</ele>
<time>2026-09-01T01:13:23.000Z</time>
</trkpt>
<trkpt lat="59.5455088" lon="31.1969518">
<ele>44.959999</ele>
<time>2026-09-01T01:13:46.000Z</time>
</trkpt>
<trkpt lat="59.5454578" lon="31.1970576">
<ele>45.579998</ele>
<time>2026-09-01T01:14:06.000Z</time>
</trkpt>
<trkpt lat="59.5454342" lon="31.1970974">
<ele>46.530003</ele>
<time>2026-09-01T01:14:27.000Z</time>
</trkpt>
<trkpt lat="59.5454412" lon="31.1971382">
<ele>46.029999</ele>
<time>2026-09-01T01:14:49.000Z</time>
</trkpt>
<trkpt lat="59.5454492" lon="31.1971466">
<ele>46.600002</ele>
<time>2026-09-01T01:15:14.000Z</time>
</trkpt>
<trkpt lat="59.5454485" lon="31.1972320">
<ele>48.610001</ele>
<time>2026-09-01T01:15:42.000Z</time>
</trkpt>
<trkpt lat="59.5454532" lon="31.1972060">
<ele>49.580002</ele>
<time>2026-09-01T01:15:52.000Z</time>
</trkpt>
<trkpt lat="59.5454112" lon="31.1971917">
<ele>48.080002</ele>
<time>2026-09-01T01:16:17.000Z</time>
</trkpt>
<trkpt lat="59.5453926" lon="31.1972456">
<ele>48.600002</ele>
<time>2026-09-01T01:16:41.000Z</time>
</trkpt>
<trkpt lat="59.5453353" lon="31.1973263">
<ele>48.119999</ele>
<time>2026-09-01T01:17:03.000Z</time>
</trkpt>
<trkpt lat="59.5452785" lon="31.1974865">
<ele>49.619999</ele>
<time>2026-09-01T01:17:21.000Z</time>
</trkpt>
<trkpt lat="59.5452079" lon="31.1976071">
<ele>50.329998</ele>
<time>2026-09-01T01:17:40.000Z</time>
</trkpt>
<trkpt lat="59.5451404" lon="31.1977257">
<ele>50.699997</ele>
<time>2026-09-01T01:18:00.000Z</time>
</trkpt>
<trkpt lat="59.5450709" lon="31.1978827">
<ele>51.070000</ele>
<time>2026-09-01T01:18:22.000Z</time>
</trkpt>
<trkpt lat="59.5450040" lon="31.1979581">
<ele>49.580002</ele>
<time>2026-09-01T01:18:37.000Z</time>
</trkpt>
<trkpt lat="59.5449228" lon="31.1980853">
<ele>48.760002</ele>
<time>2026-09-01T01:18:56.000Z</time>
</trkpt>
<trkpt lat="59.5448728" lon="31.1982347">
<ele>48.939999</ele>
<time>2026-09-01T01:19:15.000Z</time>
</trkpt>
<trkpt lat="59.5448371" lon="31.1983214">
<ele>49.239998</ele>
<time>2026-09-01T01:19:42.000Z</time>
</trkpt>
<trkpt lat="59.5448249" lon="31.1983389">
<ele>47.860001</ele>
<time>2026-09-01T01:20:07.000Z</time>
</trkpt>
<trkpt lat="59.5448583" lon="31.1982771">
<ele>47.709999</ele>
<time>2026-09-01T01:20:33.000Z</time>
</trkpt>
<trkpt lat="59.5448289" lon="31.1982960">
<ele>46.430000</ele>
<time>2026-09-01T01:21:01.000Z</time>
</trkpt>
<trkpt lat="59.5448160" lon="31.1983618">
<ele>46.020000</ele>
<time>2026-09-01T01:21:23.000Z</time>
</trkpt>
<trkpt lat="59.5447598" lon="31.1984620">
<ele>46.990002</ele>
<time>2026-09-01T01:21:44.000Z</time>
</trkpt>
<trkpt lat="59.5447121" lon="31.1985873">
<ele>47.949997</ele>
<time>2026-09-01T01:22:04.000Z</time>
</trkpt>
<trkpt lat="59.5446167" lon="31.1987397">
<ele>49.970001</ele>
<time>2026-09-01T01:22:31.000Z</time>
</trkpt>
<trkpt lat="59.5445727" lon="31.1988032">
<ele>50.459999</ele>
<time>2026-09-01T01:22:52.000Z</time>
</trkpt>
<trkpt lat="59.5444594" lon="31.1989409">
<ele>50.539997</ele>
<time>2026-09-01T01:23:12.000Z</time>
</trkpt>
<trkpt lat="59.5444085" lon="31.1990460">
<ele>50.750000</ele>
<time>2026-09-01T01:23:30.000Z</time>
</trkpt>
<trkpt lat="59.5443761" lon="31.1991208">
<ele>51.599998</ele>
<time>2026-09-01T01:23:52.000Z</time>
</trkpt>
<trkpt lat="59.5443508" lon="31.1991160">
<ele>51.119999</ele>
<time>2026-09-01T01:24:10.000Z</time>
</trkpt>
<trkpt lat="59.5443462" lon="31.1991960">
<ele>51.410000</ele>
<time>2026-09-01T01:24:21.000Z</time>
</trkpt>
<trkpt lat="59.5442992" lon="31.1993300">
<ele>51.810001</ele>
<time>2026-09-01T01:24:42.000Z</time>
</trkpt>
<trkpt lat="59.5442969" lon="31.1993837">
<ele>53.070000</ele>
<time>2026-09-01T01:25:06.000Z</time>
</trkpt>
<trkpt lat="59.5443141" lon="31.1994231">
<ele>54.049999</ele>
<time>2026-09-01T01:25:32.000Z</time>
</trkpt>
<trkpt lat="59.5443325" lon="31.1994427">
<ele>55.840000</ele>
<time>2026-09-01T01:26:00.000Z</time>
</trkpt>
<trkpt lat="59.5443595" lon="31.1993407">
<ele>55.709999</ele>
<time>2026-09-01T01:26:25.000Z</time>
</trkpt>
<trkpt lat="59.5442960" lon="31.1993762">
<ele>56.730000</ele>
<time>2026-09-01T01:26:39.000Z</time>
</trkpt>
<trkpt lat="59.5442441" lon="31.1995671">
<ele>57.250000</ele>
<time>2026-09-01T01:26:58.000Z</time>
</trkpt>
<trkpt lat="59.5442153" lon="31.1995900">
<ele>56.430000</ele>
<time>2026-09-01T01:27:20.000Z</time>
</trkpt>
<trkpt lat="59.5441833" lon="31.1995863">
<ele>56.730000</ele>
<time>2026-09-01T01:27:35.000Z</time>
</trkpt>
<trkpt lat="59.5440828" lon="31.1997314">
<ele>57.410000</ele>
<time>2026-09-01T01:27:57.000Z</time>
</trkpt>
<trkpt lat="59.5440818" lon="31.1997513">
<ele>57.469997</ele>
<time>2026-09-01T01:27:59.000Z</time>
</trkpt>
<trkpt lat="59.5440026" lon="31.1999478">
<ele>57.280003</ele>
<time>2026-09-01T01:28:19.000Z</time>
</trkpt>
<trkpt lat="59.5439820" lon="31.2000415">
<ele>56.280003</ele>
<time>2026-09-01T01:28:39.000Z</time>
</trkpt>
<trkpt lat="59.5439346" lon="31.2000835">
<ele>55.779999</ele>
<time>2026-09-01T01:28:55.000Z</time>
</trkpt>
<trkpt lat="59.5438943" lon="31.2001674">
<ele>55.119999</ele>
<time>2026-09-01T01:29:11.000Z</time>
</trkpt>
<trkpt lat="59.5438595" lon="31.2002182">
<ele>53.650002</ele>
<time>2026-09-01T01:29:31.000Z</time>
</trkpt>
<trkpt lat="59.5438074" lon="31.2003427">
<ele>52.639999</ele>
<time>2026-09-01T01:29:49.000Z</time>
</trkpt>
<trkpt lat="59.5437658" lon="31.2004746">
<ele>52.279999</ele>
<time>2026-09-01T01:30:09.000Z</time>
</trkpt>
<trkpt lat="59.5436932" lon="31.2006166">
<ele>51.000000</ele>
<time>2026-09-01T01:30:32.000Z</time>
</trkpt>
<trkpt lat="59.5436043" lon="31.2007230">
<ele>51.369999</ele>
<time>2026-09-01T01:30:53.000Z</time>
</trkpt>
<trkpt lat="59.5435781" lon="31.2007724">
<ele>50.030003</ele>
<time>2026-09-01T01:31:20.000Z</time>
</trkpt>
<trkpt lat="59.5435820" lon="31.2008332">
<ele>50.619999</ele>
<time>2026-09-01T01:31:48.000Z</time>
</trkpt>
<trkpt lat="59.5436172" lon="31.2008405">
<ele>52.730000</ele>
<time>2026-09-01T01:32:19.000Z</time>
</trkpt>
<trkpt lat="59.5436805" lon="31.2008242">
<ele>53.299999</ele>
<time>2026-09-01T01:32:46.000Z</time>
</trkpt>
<trkpt lat="59.5437062" lon="31.2008411">
<ele>53.899998</ele>
<time>2026-09-01T01:33:14.000Z</time>
</trkpt>
<trkpt lat="59.5436720" lon="31.2008739">
<ele>52.989998</ele>
<time>2026-09-01T01:33:42.000Z</time>
</trkpt>
<trkpt lat="59.5436411" lon="31.2008971">
<ele>54.779999</ele>
<time>2026-09-01T01:34:05.000Z</time>
</trkpt>
<trkpt lat="59.5435377" lon="31.2008843">
<ele>54.199997</ele>
<time>2026-09-01T01:34:27.000Z</time>
</trkpt>
<trkpt lat="59.5434525" lon="31.2009718">
<ele>54.589996</ele>
<time>2026-09-01T01:34:46.000Z</time>
</trkpt>
<trkpt lat="59.5433819" lon="31.2011181">
<ele>54.869999</ele>
<time>2026-09-01T01:35:04.000Z</time>
</trkpt>
<trkpt lat="59.5433564" lon="31.2011095">
<ele>54.010002</ele>
<time>2026-09-01T01:35:26.000Z</time>
</trkpt>
<trkpt lat="59.5433441" lon="31.2011161">
<ele>55.060001</ele>
<time>2026-09-01T01:35:51.000Z</time>
</trkpt>
<trkpt lat="59.5433632" lon="31.2010780">
<ele>55.060001</ele>
<time>2026-09-01T01:36:14.000Z</time>
</trkpt>
<trkpt lat="59.5433847" lon="31.2010423">
<ele>52.959999</ele>
<time>2026-09-01T01:36:37.000Z</time>
</trkpt>
<trkpt lat="59.5433437" lon="31.2009612">
<ele>56.810001</ele>
<time>2026-09-01T01:37:04.000Z</time>
</trkpt>
<trkpt lat="59.5433470" lon="31.2009561">
<ele>56.990002</ele>
<time>2026-09-01T01:37:16.000Z</time>
</trkpt>
<trkpt lat="59.5432985" lon="31.2009721">
<ele>65.620003</ele>
<time>2026-09-01T01:37:54.000Z</time>
</trkpt>
<trkpt lat="59.5432824" lon="31.2009389">
<ele>66.349998</ele>
<time>2026-09-01T01:38:12.000Z</time>
</trkpt>
<trkpt lat="59.5432704" lon="31.2009166">
<ele>67.320000</ele>
<time>2026-09-01T01:38:49.000Z</time>
</trkpt>
<trkpt lat="59.5433626" lon="31.2011198">
<ele>62.070004</ele>
<time>2026-09-01T01:41:20.000Z</time>
</trkpt>
<trkpt lat="59.5434307" lon="31.2009776">
<ele>40.799999</ele>
<time>2026-09-01T01:41:49.000Z</time>
</trkpt>
<trkpt lat="59.5434034" lon="31.2010459">
<ele>50.380001</ele>
<time>2026-09-01T01:42:17.000Z</time>
</trkpt>
<trkpt lat="59.5434272" lon="31.2010416">
<ele>52.520000</ele>
<time>2026-09-01T01:42:42.000Z</time>
</trkpt>
<trkpt lat="59.5433636" lon="31.2011219">
<ele>52.100002</ele>
<time>2026-09-01T01:43:11.000Z</time>
</trkpt>
<trkpt lat="59.5433938" lon="31.2011729">
<ele>50.910000</ele>
<time>2026-09-01T01:43:45.000Z</time>
</trkpt>
<trkpt lat="59.5434263" lon="31.2010904">
<ele>49.529999</ele>
<time>2026-09-01T01:44:10.000Z</time>
</trkpt>
<trkpt lat="59.5433757" lon="31.2010209">
<ele>49.529999</ele>
<time>2026-09-01T01:44:42.000Z</time>
</trkpt>
<trkpt lat="59.5433928" lon="31.2011326">
<ele>49.179996</ele>
<time>2026-09-01T01:45:01.000Z</time>
</trkpt>
<trkpt lat="59.5433563" lon="31.2011487">
<ele>51.580002</ele>
<time>2026-09-01T01:45:26.000Z</time>
</trkpt>
<trkpt lat="59.5433611" lon="31.2012040">
<ele>51.720001</ele>
<time>2026-09-01T01:45:54.000Z</time>
</trkpt>
<trkpt lat="59.5432795" lon="31.2012969">
<ele>50.720001</ele>
<time>2026-09-01T01:46:14.000Z</time>
</trkpt>
<trkpt lat="59.5432360" lon="31.2013048">
<ele>50.430000</ele>
<time>2026-09-01T01:46:34.000Z</time>
</trkpt>
<trkpt lat="59.5431934" lon="31.2014314">
<ele>50.420002</ele>
<time>2026-09-01T01:46:49.000Z</time>
</trkpt>
<trkpt lat="59.5431440" lon="31.2014382">
<ele>50.900002</ele>
<time>2026-09-01T01:47:09.000Z</time>
</trkpt>
<trkpt lat="59.5430980" lon="31.2012938">
<ele>49.680000</ele>
<time>2026-09-01T01:47:24.000Z</time>
</trkpt>
<trkpt lat="59.5430448" lon="31.2011017">
<ele>48.070000</ele>
<time>2026-09-01T01:47:38.000Z</time>
</trkpt>
<trkpt lat="59.5429732" lon="31.2010976">
<ele>49.139999</ele>
<time>2026-09-01T01:47:52.000Z</time>
</trkpt>
<trkpt lat="59.5429773" lon="31.2010288">
<ele>49.340004</ele>
<time>2026-09-01T01:48:06.000Z</time>
</trkpt>
<trkpt lat="59.5429697" lon="31.2010166">
<ele>53.270000</ele>
<time>2026-09-01T01:48:45.000Z</time>
</trkpt>
<trkpt lat="59.5430049" lon="31.2009810">
<ele>53.470001</ele>
<time>2026-09-01T01:49:13.000Z</time>
</trkpt>
<trkpt lat="59.5429890" lon="31.2009582">
<ele>53.369999</ele>
<time>2026-09-01T01:49:32.000Z</time>
</trkpt>
<trkpt lat="59.5429589" lon="31.2008583">
<ele>53.040001</ele>
<time>2026-09-01T01:49:48.000Z</time>
</trkpt>
<trkpt lat="59.5429076" lon="31.2008016">
<ele>52.420002</ele>
<time>2026-09-01T01:50:07.000Z</time>
</trkpt>
<trkpt lat="59.5428101" lon="31.2006960">
<ele>51.689999</ele>
<time>2026-09-01T01:50:24.000Z</time>
</trkpt>
<trkpt lat="59.5427941" lon="31.2005774">
<ele>49.070000</ele>
<time>2026-09-01T01:50:37.000Z</time>
</trkpt>
<trkpt lat="59.5427783" lon="31.2006040">
<ele>49.820000</ele>
<time>2026-09-01T01:51:01.000Z</time>
</trkpt>
<trkpt lat="59.5427351" lon="31.2005965">
<ele>50.350002</ele>
<time>2026-09-01T01:51:15.000Z</time>
</trkpt>
<trkpt lat="59.5426836" lon="31.2005323">
<ele>50.110001</ele>
<time>2026-09-01T01:51:33.000Z</time>
</trkpt>
<trkpt lat="59.5426672" lon="31.2005265">
<ele>50.340000</ele>
<time>2026-09-01T01:52:04.000Z</time>
</trkpt>
<trkpt lat="59.5427505" lon="31.2004638">
<ele>49.459999</ele>
<time>2026-09-01T01:52:34.000Z</time>
</trkpt>
<trkpt lat="59.5426826" lon="31.2004862">
<ele>49.179996</ele>
<time>2026-09-01T01:53:04.000Z</time>
</trkpt>
<trkpt lat="59.5426612" lon="31.2004936">
<ele>49.789997</ele>
<time>2026-09-01T01:53:36.000Z</time>
</trkpt>
<trkpt lat="59.5426603" lon="31.2005221">
<ele>49.930000</ele>
<time>2026-09-01T01:54:07.000Z</time>
</trkpt>
<trkpt lat="59.5426432" lon="31.2005381">
<ele>49.919998</ele>
<time>2026-09-01T01:54:09.000Z</time>
</trkpt>
<trkpt lat="59.5426033" lon="31.2006628">
<ele>50.870003</ele>
<time>2026-09-01T01:54:39.000Z</time>
</trkpt>
<trkpt lat="59.5425946" lon="31.2007359">
<ele>50.520000</ele>
<time>2026-09-01T01:55:01.000Z</time>
</trkpt>
<trkpt lat="59.5425931" lon="31.2008692">
<ele>51.009998</ele>
<time>2026-09-01T01:55:23.000Z</time>
</trkpt>
<trkpt lat="59.5425898" lon="31.2009915">
<ele>51.330002</ele>
<time>2026-09-01T01:55:42.000Z</time>
</trkpt>
<trkpt lat="59.5425645" lon="31.2011642">
<ele>50.929996</ele>
<time>2026-09-01T01:56:03.000Z</time>
</trkpt>
<trkpt lat="59.5425841" lon="31.2012062">
<ele>51.480003</ele>
<time>2026-09-01T01:56:24.000Z</time>
</trkpt>
<trkpt lat="59.5425577" lon="31.2012357">
<ele>52.170002</ele>
<time>2026-09-01T01:56:42.000Z</time>
</trkpt>
<trkpt lat="59.5425417" lon="31.2011782">
<ele>54.139999</ele>
<time>2026-09-01T01:56:56.000Z</time>
</trkpt>
<trkpt lat="59.5425020" lon="31.2009884">
<ele>53.250000</ele>
<time>2026-09-01T01:57:12.000Z</time>
</trkpt>
<trkpt lat="59.5424629" lon="31.2007423">
<ele>51.750000</ele>
<time>2026-09-01T01:57:30.000Z</time>
</trkpt>
<trkpt lat="59.5424037" lon="31.2005267">
<ele>49.930000</ele>
<time>2026-09-01T01:57:47.000Z</time>
</trkpt>
<trkpt lat="59.5423656" lon="31.2003383">
<ele>50.139999</ele>
<time>2026-09-01T01:58:07.000Z</time>
</trkpt>
<trkpt lat="59.5423550" lon="31.2002831">
<ele>51.599998</ele>
<time>2026-09-01T01:58:28.000Z</time>
</trkpt>
<trkpt lat="59.5423177" lon="31.2000025">
<ele>50.459999</ele>
<time>2026-09-01T01:58:46.000Z</time>
</trkpt>
<trkpt lat="59.5423238" lon="31.1998560">
<ele>49.220001</ele>
<time>2026-09-01T01:59:04.000Z</time>
</trkpt>
<trkpt lat="59.5422845" lon="31.1997723">
<ele>48.370003</ele>
<time>2026-09-01T01:59:23.000Z</time>
</trkpt>
<trkpt lat="59.5422683" lon="31.1996417">
<ele>47.820004</ele>
<time>2026-09-01T01:59:45.000Z</time>
</trkpt>
<trkpt lat="59.5422120" lon="31.1993661">
<ele>48.459999</ele>
<time>2026-09-01T02:00:04.000Z</time>
</trkpt>
<trkpt lat="59.5421864" lon="31.1993185">
<ele>49.619999</ele>
<time>2026-09-01T02:00:22.000Z</time>
</trkpt>
<trkpt lat="59.5421521" lon="31.1991770">
<ele>49.169998</ele>
<time>2026-09-01T02:00:37.000Z</time>
</trkpt>
<trkpt lat="59.5421204" lon="31.1990570">
<ele>50.770000</ele>
<time>2026-09-01T02:00:56.000Z</time>
</trkpt>
<trkpt lat="59.5421008" lon="31.1989115">
<ele>51.170002</ele>
<time>2026-09-01T02:01:17.000Z</time>
</trkpt>
<trkpt lat="59.5420669" lon="31.1986432">
<ele>52.570000</ele>
<time>2026-09-01T02:01:36.000Z</time>
</trkpt>
<trkpt lat="59.5420705" lon="31.1984354">
<ele>51.790001</ele>
<time>2026-09-01T02:01:54.000Z</time>
</trkpt>
<trkpt lat="59.5420925" lon="31.1983162">
<ele>50.950001</ele>
<time>2026-09-01T02:02:13.000Z</time>
</trkpt>
<trkpt lat="59.5421169" lon="31.1982800">
<ele>50.779999</ele>
<time>2026-09-01T02:02:43.000Z</time>
</trkpt>
<trkpt lat="59.5420654" lon="31.1982411">
<ele>52.410000</ele>
<time>2026-09-01T02:03:15.000Z</time>
</trkpt>
<trkpt lat="59.5420910" lon="31.1982401">
<ele>52.260002</ele>
<time>2026-09-01T02:03:38.000Z</time>
</trkpt>
<trkpt lat="59.5420613" lon="31.1981152">
<ele>50.980000</ele>
<time>2026-09-01T02:04:08.000Z</time>
</trkpt>
<trkpt lat="59.5420804" lon="31.1979451">
<ele>50.940002</ele>
<time>2026-09-01T02:04:27.000Z</time>
</trkpt>
<trkpt lat="59.5420862" lon="31.1979373">
<ele>51.119999</ele>
<time>2026-09-01T02:04:59.000Z</time>
</trkpt>
<trkpt lat="59.5420829" lon="31.1979340">
<ele>51.070000</ele>
<time>2026-09-01T02:05:01.000Z</time>
</trkpt>
<trkpt lat="59.5420314" lon="31.1979645">
<ele>50.650002</ele>
<time>2026-09-01T02:05:23.000Z</time>
</trkpt>
<trkpt lat="59.5420323" lon="31.1978421">
<ele>50.779999</ele>
<time>2026-09-01T02:05:41.000Z</time>
</trkpt>
<trkpt lat="59.5420304" lon="31.1976535">
<ele>51.430000</ele>
<time>2026-09-01T02:06:06.000Z</time>
</trkpt>
<trkpt lat="59.5419891" lon="31.1975231">
<ele>51.780003</ele>
<time>2026-09-01T02:06:27.000Z</time>
</trkpt>
<trkpt lat="59.5419497" lon="31.1974156">
<ele>51.100002</ele>
<time>2026-09-01T02:06:54.000Z</time>
</trkpt>
<trkpt lat="59.5418692" lon="31.1974568">
<ele>51.160000</ele>
<time>2026-09-01T02:07:20.000Z</time>
</trkpt>
<trkpt lat="59.5417870" lon="31.1974962">
<ele>51.219997</ele>
<time>2026-09-01T02:07:39.000Z</time>
</trkpt>
<trkpt lat="59.5417346" lon="31.1974376">
<ele>50.800003</ele>
<time>2026-09-01T02:07:55.000Z</time>
</trkpt>
<trkpt lat="59.5416953" lon="31.1973640">
<ele>51.089996</ele>
<time>2026-09-01T02:08:16.000Z</time>
</trkpt>
<trkpt lat="59.5416035" lon="31.1973342">
<ele>50.840000</ele>
<time>2026-09-01T02:08:41.000Z</time>
</trkpt>
<trkpt lat="59.5415448" lon="31.1972616">
<ele>51.060001</ele>
<time>2026-09-01T02:09:01.000Z</time>
</trkpt>
<trkpt lat="59.5414943" lon="31.1971621">
<ele>51.799999</ele>
<time>2026-09-01T02:09:24.000Z</time>
</trkpt>
<trkpt lat="59.5414622" lon="31.1970006">
<ele>52.780003</ele>
<time>2026-09-01T02:09:47.000Z</time>
</trkpt>
<trkpt lat="59.5414034" lon="31.1969194">
<ele>53.639999</ele>
<time>2026-09-01T02:10:09.000Z</time>
</trkpt>
<trkpt lat="59.5413927" lon="31.1969858">
<ele>53.889999</ele>
<time>2026-09-01T02:10:27.000Z</time>
</trkpt>
<trkpt lat="59.5413707" lon="31.1970188">
<ele>53.660000</ele>
<time>2026-09-01T02:10:35.000Z</time>
</trkpt>
<trkpt lat="59.5412776" lon="31.1969750">
<ele>53.790001</ele>
<time>2026-09-01T02:10:52.000Z</time>
</trkpt>
<trkpt lat="59.5411815" lon="31.1969080">
<ele>54.000000</ele>
<time>2026-09-01T02:11:10.000Z</time>
</trkpt>
<trkpt lat="59.5410999" lon="31.1969684">
<ele>55.199997</ele>
<time>2026-09-01T02:11:28.000Z</time>
</trkpt>
<trkpt lat="59.5409903" lon="31.1970056">
<ele>54.110001</ele>
<time>2026-09-01T02:11:46.000Z</time>
</trkpt>
<trkpt lat="59.5408724" lon="31.1970024">
<ele>53.490002</ele>
<time>2026-09-01T02:12:04.000Z</time>
</trkpt>
<trkpt lat="59.5407664" lon="31.1969949">
<ele>52.230000</ele>
<time>2026-09-01T02:12:20.000Z</time>
</trkpt>
<trkpt lat="59.5407503" lon="31.1970321">
<ele>51.730000</ele>
<time>2026-09-01T02:12:24.000Z</time>
</trkpt>
<trkpt lat="59.5406652" lon="31.1970929">
<ele>52.160004</ele>
<time>2026-09-01T02:12:41.000Z</time>
</trkpt>
<trkpt lat="59.5405962" lon="31.1970603">
<ele>54.589996</ele>
<time>2026-09-01T02:13:10.000Z</time>
</trkpt>
<trkpt lat="59.5405338" lon="31.1970889">
<ele>53.330002</ele>
<time>2026-09-01T02:13:25.000Z</time>
</trkpt>
<trkpt lat="59.5404819" lon="31.1970971">
<ele>53.430000</ele>
<time>2026-09-01T02:13:54.000Z</time>
</trkpt>
<trkpt lat="59.5403610" lon="31.1970476">
<ele>52.550003</ele>
<time>2026-09-01T02:14:16.000Z</time>
</trkpt>
<trkpt lat="59.5402923" lon="31.1969464">
<ele>53.289997</ele>
<time>2026-09-01T02:14:33.000Z</time>
</trkpt>
<trkpt lat="59.5402809" lon="31.1968053">
<ele>53.709999</ele>
<time>2026-09-01T02:14:50.000Z</time>
</trkpt>
<trkpt lat="59.5402427" lon="31.1966467">
<ele>53.560001</ele>
<time>2026-09-01T02:15:06.000Z</time>
</trkpt>
<trkpt lat="59.5401849" lon="31.1965203">
<ele>54.119999</ele>
<time>2026-09-01T02:15:26.000Z</time>
</trkpt>
<trkpt lat="59.5401349" lon="31.1964059">
<ele>53.829998</ele>
<time>2026-09-01T02:15:46.000Z</time>
</trkpt>
<trkpt lat="59.5401040" lon="31.1963726">
<ele>53.279999</ele>
<time>2026-09-01T02:16:08.000Z</time>
</trkpt>
<trkpt lat="59.5400982" lon="31.1963812">
<ele>54.230003</ele>
<time>2026-09-01T02:16:40.000Z</time>
</trkpt>
<trkpt lat="59.5400597" lon="31.1964265">
<ele>52.700001</ele>
<time>2026-09-01T02:17:11.000Z</time>
</trkpt>
<trkpt lat="59.5400157" lon="31.1963735">
<ele>52.090000</ele>
<time>2026-09-01T02:17:39.000Z</time>
</trkpt>
<trkpt lat="59.5399766" lon="31.1961582">
<ele>52.660000</ele>
<time>2026-09-01T02:17:58.000Z</time>
</trkpt>
<trkpt lat="59.5399107" lon="31.1960102">
<ele>52.209999</ele>
<time>2026-09-01T02:18:16.000Z</time>
</trkpt>
<trkpt lat="59.5398231" lon="31.1958529">
<ele>51.170002</ele>
<time>2026-09-01T02:18:34.000Z</time>
</trkpt>
<trkpt lat="59.5397375" lon="31.1957288">
<ele>50.399998</ele>
<time>2026-09-01T02:18:53.000Z</time>
</trkpt>
<trkpt lat="59.5395661" lon="31.1958059">
<ele>48.590000</ele>
<time>2026-09-01T02:19:13.000Z</time>
</trkpt>
<trkpt lat="59.5393894" lon="31.1959309">
<ele>46.720001</ele>
<time>2026-09-01T02:19:31.000Z</time>
</trkpt>
<trkpt lat="59.5392653" lon="31.1960446">
<ele>45.820000</ele>
<time>2026-09-01T02:19:51.000Z</time>
</trkpt>
<trkpt lat="59.5392007" lon="31.1962664">
<ele>45.980000</ele>
<time>2026-09-01T02:20:09.000Z</time>
</trkpt>
<trkpt lat="59.5390988" lon="31.1964586">
<ele>42.520000</ele>
<time>2026-09-01T02:20:29.000Z</time>
</trkpt>
<trkpt lat="59.5390623" lon="31.1964589">
<ele>41.420002</ele>
<time>2026-09-01T02:20:33.000Z</time>
</trkpt>
<trkpt lat="59.5390110" lon="31.1966978">
<ele>42.279999</ele>
<time>2026-09-01T02:20:53.000Z</time>
</trkpt>
<trkpt lat="59.5390099" lon="31.1971034">
<ele>38.510002</ele>
<time>2026-09-01T02:21:14.000Z</time>
</trkpt>
<trkpt lat="59.5390111" lon="31.1974121">
<ele>37.119999</ele>
<time>2026-09-01T02:21:31.000Z</time>
</trkpt>
<trkpt lat="59.5390212" lon="31.1975297">
<ele>38.860001</ele>
<time>2026-09-01T02:21:40.000Z</time>
</trkpt>
<trkpt lat="59.5389733" lon="31.1978465">
<ele>43.480003</ele>
<time>2026-09-01T02:21:55.000Z</time>
</trkpt>
<trkpt lat="59.5389259" lon="31.1981437">
<ele>45.080002</ele>
<time>2026-09-01T02:22:12.000Z</time>
</trkpt>
<trkpt lat="59.5388852" lon="31.1986624">
<ele>38.709999</ele>
<time>2026-09-01T02:22:33.000Z</time>
</trkpt>
<trkpt lat="59.5388717" lon="31.1989159">
<ele>37.450001</ele>
<time>2026-09-01T02:22:53.000Z</time>
</trkpt>
<trkpt lat="59.5388456" lon="31.1992766">
<ele>34.520000</ele>
<time>2026-09-01T02:23:14.000Z</time>
</trkpt>
<trkpt lat="59.5388254" lon="31.1996768">
<ele>32.619999</ele>
<time>2026-09-01T02:23:30.000Z</time>
</trkpt>
<trkpt lat="59.5388453" lon="31.1999736">
<ele>30.540001</ele>
<time>2026-09-01T02:23:48.000Z</time>
</trkpt>
<trkpt lat="59.5388839" lon="31.2001492">
<ele>29.429998</ele>
<time>2026-09-01T02:24:06.000Z</time>
</trkpt>
<trkpt lat="59.5389439" lon="31.2006640">
<ele>29.510000</ele>
<time>2026-09-01T02:24:32.000Z</time>
</trkpt>
<trkpt lat="59.5389301" lon="31.2011006">
<ele>30.200001</ele>
<time>2026-09-01T02:24:50.000Z</time>
</trkpt>
<trkpt lat="59.5388941" lon="31.2014129">
<ele>32.680000</ele>
<time>2026-09-01T02:25:06.000Z</time>
</trkpt>
<trkpt lat="59.5389058" lon="31.2015774">
<ele>35.760002</ele>
<time>2026-09-01T02:25:29.000Z</time>
</trkpt>
<trkpt lat="59.5389299" lon="31.2017676">
<ele>31.610001</ele>
<time>2026-09-01T02:25:42.000Z</time>
</trkpt>
<trkpt lat="59.5389331" lon="31.2021155">
<ele>29.650000</ele>
<time>2026-09-01T02:25:56.000Z</time>
</trkpt>
<trkpt lat="59.5389735" lon="31.2026008">
<ele>31.209999</ele>
<time>2026-09-01T02:26:15.000Z</time>
</trkpt>
<trkpt lat="59.5389427" lon="31.2029586">
<ele>34.489998</ele>
<time>2026-09-01T02:26:35.000Z</time>
</trkpt>
<trkpt lat="59.5389524" lon="31.2030097">
<ele>34.759998</ele>
<time>2026-09-01T02:26:43.000Z</time>
</trkpt>
<trkpt lat="59.5388823" lon="31.2032395">
<ele>37.529999</ele>
<time>2026-09-01T02:27:11.000Z</time>
</trkpt>
<trkpt lat="59.5388737" lon="31.2036481">
<ele>38.670002</ele>
<time>2026-09-01T02:27:32.000Z</time>
</trkpt>
<trkpt lat="59.5388875" lon="31.2039799">
<ele>37.790001</ele>
<time>2026-09-01T02:27:51.000Z</time>
</trkpt>
<trkpt lat="59.5388690" lon="31.2043618">
<ele>36.030003</ele>
<time>2026-09-01T02:28:10.000Z</time>
</trkpt>
<trkpt lat="59.5388776" lon="31.2043682">
<ele>36.830002</ele>
<time>2026-09-01T02:28:29.000Z</time>
</trkpt>
<trkpt lat="59.5389259" lon="31.2046264">
<ele>39.169998</ele>
<time>2026-09-01T02:28:46.000Z</time>
</trkpt>
<trkpt lat="59.5389490" lon="31.2050038">
<ele>39.570000</ele>
<time>2026-09-01T02:29:02.000Z</time>
</trkpt>
<trkpt lat="59.5389956" lon="31.2051332">
<ele>38.560001</ele>
<time>2026-09-01T02:29:09.000Z</time>
</trkpt>
<trkpt lat="59.5390878" lon="31.2052875">
<ele>37.840000</ele>
<time>2026-09-01T02:29:27.000Z</time>
</trkpt>
<trkpt lat="59.5390861" lon="31.2053466">
<ele>39.080002</ele>
<time>2026-09-01T02:29:54.000Z</time>
</trkpt>
<trkpt lat="59.5390593" lon="31.2054023">
<ele>39.450001</ele>
<time>2026-09-01T02:29:59.000Z</time>
</trkpt>
<trkpt lat="59.5389788" lon="31.2058195">
<ele>43.730000</ele>
<time>2026-09-01T02:30:17.000Z</time>
</trkpt>
<trkpt lat="59.5389843" lon="31.2058381">
<ele>43.650002</ele>
<time>2026-09-01T02:30:18.000Z</time>
</trkpt>
<trkpt lat="59.5390358" lon="31.2060874">
<ele>42.030003</ele>
<time>2026-09-01T02:30:31.000Z</time>
</trkpt>
<trkpt lat="59.5390274" lon="31.2065128">
<ele>42.720001</ele>
<time>2026-09-01T02:30:48.000Z</time>
</trkpt>
<trkpt lat="59.5390509" lon="31.2069259">
<ele>36.130001</ele>
<time>2026-09-01T02:31:06.000Z</time>
</trkpt>
<trkpt lat="59.5390383" lon="31.2073961">
<ele>34.279999</ele>
<time>2026-09-01T02:31:26.000Z</time>
</trkpt>
<trkpt lat="59.5390741" lon="31.2076068">
<ele>33.549999</ele>
<time>2026-09-01T02:31:37.000Z</time>
</trkpt>
<trkpt lat="59.5390550" lon="31.2079180">
<ele>32.139999</ele>
<time>2026-09-01T02:31:49.000Z</time>
</trkpt>
<trkpt lat="59.5390527" lon="31.2082061">
<ele>31.519999</ele>
<time>2026-09-01T02:32:02.000Z</time>
</trkpt>
<trkpt lat="59.5391069" lon="31.2084728">
<ele>30.290001</ele>
<time>2026-09-01T02:32:15.000Z</time>
</trkpt>
<trkpt lat="59.5390292" lon="31.2089386">
<ele>30.930000</ele>
<time>2026-09-01T02:32:34.000Z</time>
</trkpt>
<trkpt lat="59.5389829" lon="31.2093499">
<ele>32.410000</ele>
<time>2026-09-01T02:32:54.000Z</time>
</trkpt>
<trkpt lat="59.5389879" lon="31.2093823">
<ele>32.270000</ele>
<time>2026-09-01T02:32:56.000Z</time>
</trkpt>
<trkpt lat="59.5389635" lon="31.2098249">
<ele>35.630001</ele>
<time>2026-09-01T02:33:10.000Z</time>
</trkpt>
<trkpt lat="59.5389446" lon="31.2101982">
<ele>39.180000</ele>
<time>2026-09-01T02:33:25.000Z</time>
</trkpt>
<trkpt lat="59.5389197" lon="31.2105529">
<ele>42.450001</ele>
<time>2026-09-01T02:33:41.000Z</time>
</trkpt>
<trkpt lat="59.5388917" lon="31.2107413">
<ele>41.350002</ele>
<time>2026-09-01T02:33:51.000Z</time>
</trkpt>
<trkpt lat="59.5388324" lon="31.2110842">
<ele>37.740002</ele>
<time>2026-09-01T02:34:10.000Z</time>
</trkpt>
<trkpt lat="59.5388021" lon="31.2114549">
<ele>35.660000</ele>
<time>2026-09-01T02:34:30.000Z</time>
</trkpt>
<trkpt lat="59.5387925" lon="31.2117204">
<ele>35.130001</ele>
<time>2026-09-01T02:34:54.000Z</time>
</trkpt>
<trkpt lat="59.5387717" lon="31.2120502">
<ele>33.730000</ele>
<time>2026-09-01T02:35:13.000Z</time>
</trkpt>
<trkpt lat="59.5387609" lon="31.2122755">
<ele>33.630001</ele>
<time>2026-09-01T02:35:29.000Z</time>
</trkpt>
<trkpt lat="59.5386286" lon="31.2126286">
<ele>36.020000</ele>
<time>2026-09-01T02:35:42.000Z</time>
</trkpt>
<trkpt lat="59.5384999" lon="31.2129841">
<ele>38.619999</ele>
<time>2026-09-01T02:36:00.000Z</time>
</trkpt>
<trkpt lat="59.5383637" lon="31.2133299">
<ele>34.439999</ele>
<time>2026-09-01T02:36:22.000Z</time>
</trkpt>
<trkpt lat="59.5383105" lon="31.2133591">
<ele>33.860001</ele>
<time>2026-09-01T02:36:37.000Z</time>
</trkpt>
<trkpt lat="59.5382633" lon="31.2134190">
<ele>35.209999</ele>
<time>2026-09-01T02:37:02.000Z</time>
</trkpt>
<trkpt lat="59.5382061" lon="31.2135908">
<ele>36.600002</ele>
<time>2026-09-01T02:37:25.000Z</time>
</trkpt>
<trkpt lat="59.5381300" lon="31.2139858">
<ele>38.610001</ele>
<time>2026-09-01T02:37:45.000Z</time>
</trkpt>
<trkpt lat="59.5379936" lon="31.2144310">
<ele>38.599998</ele>
<time>2026-09-01T02:38:06.000Z</time>
</trkpt>
<trkpt lat="59.5378567" lon="31.2147539">
<ele>39.169998</ele>
<time>2026-09-01T02:38:23.000Z</time>
</trkpt>
<trkpt lat="59.5377427" lon="31.2150594">
<ele>38.230000</ele>
<time>2026-09-01T02:38:39.000Z</time>
</trkpt>
<trkpt lat="59.5376349" lon="31.2154041">
<ele>40.160000</ele>
<time>2026-09-01T02:38:54.000Z</time>
</trkpt>
<trkpt lat="59.5375164" lon="31.2156666">
<ele>40.180000</ele>
<time>2026-09-01T02:39:08.000Z</time>
</trkpt>
<trkpt lat="59.5374042" lon="31.2158598">
<ele>38.180000</ele>
<time>2026-09-01T02:39:26.000Z</time>
</trkpt>
<trkpt lat="59.5372450" lon="31.2161643">
<ele>36.529999</ele>
<time>2026-09-01T02:39:50.000Z</time>
</trkpt>
<trkpt lat="59.5371306" lon="31.2164482">
<ele>36.030003</ele>
<time>2026-09-01T02:40:05.000Z</time>
</trkpt>
<trkpt lat="59.5370295" lon="31.2167530">
<ele>36.600002</ele>
<time>2026-09-01T02:40:20.000Z</time>
</trkpt>
<trkpt lat="59.5369279" lon="31.2171365">
<ele>37.649998</ele>
<time>2026-09-01T02:40:36.000Z</time>
</trkpt>
<trkpt lat="59.5368322" lon="31.2174673">
<ele>38.610001</ele>
<time>2026-09-01T02:40:51.000Z</time>
</trkpt>
<trkpt lat="59.5367698" lon="31.2177123">
<ele>37.930000</ele>
<time>2026-09-01T02:41:04.000Z</time>
</trkpt>
<trkpt lat="59.5367031" lon="31.2178649">
<ele>37.799999</ele>
<time>2026-09-01T02:41:22.000Z</time>
</trkpt>
<trkpt lat="59.5366076" lon="31.2179764">
<ele>38.360001</ele>
<time>2026-09-01T02:41:46.000Z</time>
</trkpt>
<trkpt lat="59.5364734" lon="31.2182514">
<ele>37.490002</ele>
<time>2026-09-01T02:42:02.000Z</time>
</trkpt>
<trkpt lat="59.5363666" lon="31.2183789">
<ele>40.549999</ele>
<time>2026-09-01T02:42:23.000Z</time>
</trkpt>
<trkpt lat="59.5362757" lon="31.2185756">
<ele>40.860001</ele>
<time>2026-09-01T02:42:37.000Z</time>
</trkpt>
<trkpt lat="59.5361111" lon="31.2189432">
<ele>39.910000</ele>
<time>2026-09-01T02:42:59.000Z</time>
</trkpt>
<trkpt lat="59.5360089" lon="31.2191966">
<ele>38.470001</ele>
<time>2026-09-01T02:43:13.000Z</time>
</trkpt>
<trkpt lat="59.5359314" lon="31.2193873">
<ele>36.880001</ele>
<time>2026-09-01T02:43:31.000Z</time>
</trkpt>
<trkpt lat="59.5358540" lon="31.2195079">
<ele>37.299999</ele>
<time>2026-09-01T02:43:49.000Z</time>
</trkpt>
<trkpt lat="59.5357277" lon="31.2196340">
<ele>36.940002</ele>
<time>2026-09-01T02:44:10.000Z</time>
</trkpt>
<trkpt lat="59.5356502" lon="31.2198743">
<ele>37.389999</ele>
<time>2026-09-01T02:44:31.000Z</time>
</trkpt>
<trkpt lat="59.5356416" lon="31.2199292">
<ele>37.630001</ele>
<time>2026-09-01T02:44:34.000Z</time>
</trkpt>
<trkpt lat="59.5356265" lon="31.2201280">
<ele>38.630001</ele>
<time>2026-09-01T02:44:44.000Z</time>
</trkpt>
<trkpt lat="59.5355923" lon="31.2203031">
<ele>38.639999</ele>
<time>2026-09-01T02:44:52.000Z</time>
</trkpt>
<trkpt lat="59.5356027" lon="31.2206270">
<ele>39.440002</ele>
<time>2026-09-01T02:45:06.000Z</time>
</trkpt>
<trkpt lat="59.5355628" lon="31.2210004">
<ele>40.269997</ele>
<time>2026-09-01T02:45:21.000Z</time>
</trkpt>
<trkpt lat="59.5355436" lon="31.2211020">
<ele>40.510002</ele>
<time>2026-09-01T02:45:25.000Z</time>
</trkpt>
<trkpt lat="59.5354956" lon="31.2215254">
<ele>41.459999</ele>
<time>2026-09-01T02:45:42.000Z</time>
</trkpt>
<trkpt lat="59.5354791" lon="31.2216164">
<ele>41.350002</ele>
<time>2026-09-01T02:45:47.000Z</time>
</trkpt>
<trkpt lat="59.5353773" lon="31.2219660">
<ele>40.960003</ele>
<time>2026-09-01T02:46:03.000Z</time>
</trkpt>
<trkpt lat="59.5353569" lon="31.2220427">
<ele>40.890003</ele>
<time>2026-09-01T02:46:06.000Z</time>
</trkpt>
<trkpt lat="59.5352434" lon="31.2223526">
<ele>40.719997</ele>
<time>2026-09-01T02:46:20.000Z</time>
</trkpt>
<trkpt lat="59.5351614" lon="31.2226669">
<ele>40.299999</ele>
<time>2026-09-01T02:46:34.000Z</time>
</trkpt>
<trkpt lat="59.5351289" lon="31.2227584">
<ele>40.860001</ele>
<time>2026-09-01T02:46:38.000Z</time>
</trkpt>
<trkpt lat="59.5350859" lon="31.2228358">
<ele>41.050003</ele>
<time>2026-09-01T02:46:44.000Z</time>
</trkpt>
<trkpt lat="59.5349574" lon="31.2232503">
<ele>40.860001</ele>
<time>2026-09-01T02:47:04.000Z</time>
</trkpt>
<trkpt lat="59.5348791" lon="31.2233314">
<ele>41.110001</ele>
<time>2026-09-01T02:47:18.000Z</time>
</trkpt>
<trkpt lat="59.5348266" lon="31.2234552">
<ele>40.879997</ele>
<time>2026-09-01T02:47:30.000Z</time>
</trkpt>
<trkpt lat="59.5347895" lon="31.2237048">
<ele>40.930000</ele>
<time>2026-09-01T02:47:43.000Z</time>
</trkpt>
<trkpt lat="59.5346673" lon="31.2240025">
<ele>41.389999</ele>
<time>2026-09-01T02:48:00.000Z</time>
</trkpt>
<trkpt lat="59.5346166" lon="31.2240888">
<ele>40.930000</ele>
<time>2026-09-01T02:48:15.000Z</time>
</trkpt>
<trkpt lat="59.5345429" lon="31.2242224">
<ele>40.810001</ele>
<time>2026-09-01T02:48:30.000Z</time>
</trkpt>
<trkpt lat="59.5344638" lon="31.2243379">
<ele>40.540001</ele>
<time>2026-09-01T02:48:39.000Z</time>
</trkpt>
<trkpt lat="59.5343868" lon="31.2244197">
<ele>40.380001</ele>
<time>2026-09-01T02:48:49.000Z</time>
</trkpt>
<trkpt lat="59.5341526" lon="31.2248394">
<ele>40.009998</ele>
<time>2026-09-01T02:49:12.000Z</time>
</trkpt>
<trkpt lat="59.5340530" lon="31.2249545">
<ele>41.350002</ele>
<time>2026-09-01T02:49:29.000Z</time>
</trkpt>
<trkpt lat="59.5339443" lon="31.2251424">
<ele>41.869999</ele>
<time>2026-09-01T02:49:45.000Z</time>
</trkpt>
<trkpt lat="59.5338386" lon="31.2253522">
<ele>41.619999</ele>
<time>2026-09-01T02:50:03.000Z</time>
</trkpt>
<trkpt lat="59.5337279" lon="31.2255833">
<ele>41.239998</ele>
<time>2026-09-01T02:50:21.000Z</time>
</trkpt>
<trkpt lat="59.5337244" lon="31.2255860">
<ele>41.150002</ele>
<time>2026-09-01T02:50:22.000Z</time>
</trkpt>
<trkpt lat="59.5336690" lon="31.2257145">
<ele>40.670002</ele>
<time>2026-09-01T02:50:46.000Z</time>
</trkpt>
<trkpt lat="59.5335944" lon="31.2257796">
<ele>40.890003</ele>
<time>2026-09-01T02:51:11.000Z</time>
</trkpt>
<trkpt lat="59.5335192" lon="31.2258995">
<ele>41.399998</ele>
<time>2026-09-01T02:51:26.000Z</time>
</trkpt>
<trkpt lat="59.5332654" lon="31.2260343">
<ele>41.900002</ele>
<time>2026-09-01T02:51:44.000Z</time>
</trkpt>
<trkpt lat="59.5331408" lon="31.2261128">
<ele>39.889999</ele>
<time>2026-09-01T02:51:59.000Z</time>
</trkpt>
<trkpt lat="59.5331166" lon="31.2261573">
<ele>38.430000</ele>
<time>2026-09-01T02:52:08.000Z</time>
</trkpt>
<trkpt lat="59.5330086" lon="31.2264491">
<ele>37.670002</ele>
<time>2026-09-01T02:52:28.000Z</time>
</trkpt>
<trkpt lat="59.5329111" lon="31.2267725">
<ele>36.490002</ele>
<time>2026-09-01T02:52:46.000Z</time>
</trkpt>
<trkpt lat="59.5328898" lon="31.2268854">
<ele>37.959999</ele>
<time>2026-09-01T02:53:02.000Z</time>
</trkpt>
<trkpt lat="59.5327442" lon="31.2270644">
<ele>37.270000</ele>
<time>2026-09-01T02:53:20.000Z</time>
</trkpt>
<trkpt lat="59.5326285" lon="31.2271613">
<ele>34.419998</ele>
<time>2026-09-01T02:53:39.000Z</time>
</trkpt>
<trkpt lat="59.5325483" lon="31.2271968">
<ele>33.340000</ele>
<time>2026-09-01T02:53:54.000Z</time>
</trkpt>
<trkpt lat="59.5324135" lon="31.2272978">
<ele>32.930000</ele>
<time>2026-09-01T02:54:21.000Z</time>
</trkpt>
<trkpt lat="59.5322606" lon="31.2274731">
<ele>32.030003</ele>
<time>2026-09-01T02:54:38.000Z</time>
</trkpt>
<trkpt lat="59.5319485" lon="31.2279142">
<ele>35.459999</ele>
<time>2026-09-01T02:55:00.000Z</time>
</trkpt>
<trkpt lat="59.5319190" lon="31.2282313">
<ele>37.529999</ele>
<time>2026-09-01T02:55:17.000Z</time>
</trkpt>
<trkpt lat="59.5318971" lon="31.2284895">
<ele>38.430000</ele>
<time>2026-09-01T02:55:31.000Z</time>
</trkpt>
<trkpt lat="59.5318909" lon="31.2286012">
<ele>38.360001</ele>
<time>2026-09-01T02:55:35.000Z</time>
</trkpt>
<trkpt lat="59.5319011" lon="31.2287470">
<ele>38.360001</ele>
<time>2026-09-01T02:55:41.000Z</time>
</trkpt>
<trkpt lat="59.5318886" lon="31.2288702">
<ele>37.849998</ele>
<time>2026-09-01T02:55:46.000Z</time>
</trkpt>
<trkpt lat="59.5319046" lon="31.2290336">
<ele>37.680000</ele>
<time>2026-09-01T02:55:53.000Z</time>
</trkpt>
<trkpt lat="59.5318765" lon="31.2292522">
<ele>36.349998</ele>
<time>2026-09-01T02:56:07.000Z</time>
</trkpt>
<trkpt lat="59.5318380" lon="31.2294587">
<ele>36.340000</ele>
<time>2026-09-01T02:56:15.000Z</time>
</trkpt>
<trkpt lat="59.5318396" lon="31.2297403">
<ele>38.950001</ele>
<time>2026-09-01T02:56:26.000Z</time>
</trkpt>
<trkpt lat="59.5318120" lon="31.2300397">
<ele>39.410000</ele>
<time>2026-09-01T02:56:40.000Z</time>
</trkpt>
<trkpt lat="59.5317964" lon="31.2301505">
<ele>38.770000</ele>
<time>2026-09-01T02:56:44.000Z</time>
</trkpt>
<trkpt lat="59.5317676" lon="31.2303999">
<ele>37.380001</ele>
<time>2026-09-01T02:56:53.000Z</time>
</trkpt>
<trkpt lat="59.5317296" lon="31.2306259">
<ele>35.990002</ele>
<time>2026-09-01T02:57:03.000Z</time>
</trkpt>
<trkpt lat="59.5317064" lon="31.2309266">
<ele>33.529999</ele>
<time>2026-09-01T02:57:16.000Z</time>
</trkpt>
<trkpt lat="59.5316662" lon="31.2313795">
<ele>32.239998</ele>
<time>2026-09-01T02:57:32.000Z</time>
</trkpt>
<trkpt lat="59.5316902" lon="31.2318537">
<ele>30.510000</ele>
<time>2026-09-01T02:57:53.000Z</time>
</trkpt>
<trkpt lat="59.5317158" lon="31.2321191">
<ele>28.279999</ele>
<time>2026-09-01T02:58:04.000Z</time>
</trkpt>
<trkpt lat="59.5317683" lon="31.2323759">
<ele>25.730000</ele>
<time>2026-09-01T02:58:14.000Z</time>
</trkpt>
<trkpt lat="59.5318152" lon="31.2326159">
<ele>23.880001</ele>
<time>2026-09-01T02:58:23.000Z</time>
</trkpt>
<trkpt lat="59.5317833" lon="31.2327230">
<ele>23.320000</ele>
<time>2026-09-01T02:58:33.000Z</time>
</trkpt>
<trkpt lat="59.5318478" lon="31.2328913">
<ele>23.049999</ele>
<time>2026-09-01T02:58:46.000Z</time>
</trkpt>
<trkpt lat="59.5318710" lon="31.2330364">
<ele>23.960001</ele>
<time>2026-09-01T02:58:57.000Z</time>
</trkpt>
<trkpt lat="59.5319370" lon="31.2332326">
<ele>24.240000</ele>
<time>2026-09-01T02:59:09.000Z</time>
</trkpt>
<trkpt lat="59.5319410" lon="31.2332694">
<ele>24.230000</ele>
<time>2026-09-01T02:59:11.000Z</time>
</trkpt>
<trkpt lat="59.5319106" lon="31.2335352">
<ele>23.650002</ele>
<time>2026-09-01T02:59:21.000Z</time>
</trkpt>
<trkpt lat="59.5318835" lon="31.2336784">
<ele>24.889999</ele>
<time>2026-09-01T02:59:31.000Z</time>
</trkpt>
<trkpt lat="59.5319226" lon="31.2338595">
<ele>27.519999</ele>
<time>2026-09-01T02:59:46.000Z</time>
</trkpt>
<trkpt lat="59.5319503" lon="31.2339814">
<ele>28.950001</ele>
<time>2026-09-01T02:59:56.000Z</time>
</trkpt>
<trkpt lat="59.5320048" lon="31.2341751">
<ele>30.430000</ele>
<time>2026-09-01T03:00:16.000Z</time>
</trkpt>
<trkpt lat="59.5320483" lon="31.2343545">
<ele>31.960001</ele>
<time>2026-09-01T03:00:33.000Z</time>
</trkpt>
<trkpt lat="59.5320779" lon="31.2345517">
<ele>33.720001</ele>
<time>2026-09-01T03:00:48.000Z</time>
</trkpt>
<trkpt lat="59.5322202" lon="31.2347467">
<ele>33.860001</ele>
<time>2026-09-01T03:01:06.000Z</time>
</trkpt>
<trkpt lat="59.5323180" lon="31.2348548">
<ele>33.450001</ele>
<time>2026-09-01T03:01:22.000Z</time>
</trkpt>
<trkpt lat="59.5324013" lon="31.2350638">
<ele>30.700001</ele>
<time>2026-09-01T03:01:40.000Z</time>
</trkpt>
<trkpt lat="59.5324987" lon="31.2353547">
<ele>30.010000</ele>
<time>2026-09-01T03:01:56.000Z</time>
</trkpt>
<trkpt lat="59.5325401" lon="31.2355310">
<ele>29.060001</ele>
<time>2026-09-01T03:02:04.000Z</time>
</trkpt>
<trkpt lat="59.5325629" lon="31.2356522">
<ele>28.990000</ele>
<time>2026-09-01T03:02:08.000Z</time>
</trkpt>
<trkpt lat="59.5326515" lon="31.2358655">
<ele>30.050001</ele>
<time>2026-09-01T03:02:22.000Z</time>
</trkpt>
<trkpt lat="59.5327339" lon="31.2360051">
<ele>31.960001</ele>
<time>2026-09-01T03:02:42.000Z</time>
</trkpt>
<trkpt lat="59.5328036" lon="31.2361193">
<ele>33.989998</ele>
<time>2026-09-01T03:02:58.000Z</time>
</trkpt>
<trkpt lat="59.5328032" lon="31.2362983">
<ele>35.459999</ele>
<time>2026-09-01T03:03:17.000Z</time>
</trkpt>
<trkpt lat="59.5329402" lon="31.2365369">
<ele>35.750000</ele>
<time>2026-09-01T03:03:38.000Z</time>
</trkpt>
<trkpt lat="59.5329607" lon="31.2366025">
<ele>37.160000</ele>
<time>2026-09-01T03:03:55.000Z</time>
</trkpt>
<trkpt lat="59.5329641" lon="31.2366052">
<ele>39.029999</ele>
<time>2026-09-01T03:04:14.000Z</time>
</trkpt>
<trkpt lat="59.5329617" lon="31.2366923">
<ele>39.970001</ele>
<time>2026-09-01T03:04:30.000Z</time>
</trkpt>
<trkpt lat="59.5329570" lon="31.2366899">
<ele>40.849998</ele>
<time>2026-09-01T03:04:52.000Z</time>
</trkpt>
<trkpt lat="59.5329816" lon="31.2366464">
<ele>41.549999</ele>
<time>2026-09-01T03:05:21.000Z</time>
</trkpt>
<trkpt lat="59.5329743" lon="31.2366828">
<ele>43.599998</ele>
<time>2026-09-01T03:05:50.000Z</time>
</trkpt>
<trkpt lat="59.5329502" lon="31.2366666">
<ele>42.200001</ele>
<time>2026-09-01T03:06:17.000Z</time>
</trkpt>
<trkpt lat="59.5329606" lon="31.2366166">
<ele>43.450001</ele>
<time>2026-09-01T03:06:46.000Z</time>
</trkpt>
<trkpt lat="59.5329751" lon="31.2366498">
<ele>44.710003</ele>
<time>2026-09-01T03:07:14.000Z</time>
</trkpt>
<trkpt lat="59.5330023" lon="31.2366382">
<ele>45.760002</ele>
<time>2026-09-01T03:07:43.000Z</time>
</trkpt>
<trkpt lat="59.5330166" lon="31.2365970">
<ele>47.779999</ele>
<time>2026-09-01T03:08:10.000Z</time>
</trkpt>
<trkpt lat="59.5330297" lon="31.2365831">
<ele>48.389999</ele>
<time>2026-09-01T03:08:28.000Z</time>
</trkpt>
<trkpt lat="59.5330130" lon="31.2366270">
<ele>49.389999</ele>
<time>2026-09-01T03:08:57.000Z</time>
</trkpt>
<trkpt lat="59.5329958" lon="31.2366605">
<ele>50.340000</ele>
<time>2026-09-01T03:09:20.000Z</time>
</trkpt>
<trkpt lat="59.5329995" lon="31.2366545">
<ele>49.520000</ele>
<time>2026-09-01T03:09:46.000Z</time>
</trkpt>
<trkpt lat="59.5330138" lon="31.2367090">
<ele>47.700001</ele>
<time>2026-09-01T03:10:14.000Z</time>
</trkpt>
<trkpt lat="59.5330142" lon="31.2367375">
<ele>48.629997</ele>
<time>2026-09-01T03:10:36.000Z</time>
</trkpt>
<trkpt lat="59.5330166" lon="31.2367297">
<ele>48.980000</ele>
<time>2026-09-01T03:11:01.000Z</time>
</trkpt>
<trkpt lat="59.5330206" lon="31.2367339">
<ele>49.099998</ele>
<time>2026-09-01T03:11:25.000Z</time>
</trkpt>
<trkpt lat="59.5330327" lon="31.2367329">
<ele>50.849998</ele>
<time>2026-09-01T03:11:50.000Z</time>
</trkpt>
<trkpt lat="59.5330288" lon="31.2367388">
<ele>51.260002</ele>
<time>2026-09-01T03:12:13.000Z</time>
</trkpt>
<trkpt lat="59.5330406" lon="31.2367345">
<ele>51.160000</ele>
<time>2026-09-01T03:12:37.000Z</time>
</trkpt>
<trkpt lat="59.5330548" lon="31.2367052">
<ele>51.070000</ele>
<time>2026-09-01T03:13:03.000Z</time>
</trkpt>
<trkpt lat="59.5330450" lon="31.2367452">
<ele>51.520000</ele>
<time>2026-09-01T03:13:27.000Z</time>
</trkpt>
<trkpt lat="59.5330349" lon="31.2367182">
<ele>51.299999</ele>
<time>2026-09-01T03:13:49.000Z</time>
</trkpt>
<trkpt lat="59.5330269" lon="31.2366870">
<ele>50.980000</ele>
<time>2026-09-01T03:14:12.000Z</time>
</trkpt>
<trkpt lat="59.5330140" lon="31.2366674">
<ele>51.439999</ele>
<time>2026-09-01T03:14:42.000Z</time>
</trkpt>
<trkpt lat="59.5329964" lon="31.2366992">
<ele>51.970001</ele>
<time>2026-09-01T03:15:12.000Z</time>
</trkpt>
<trkpt lat="59.5330187" lon="31.2366915">
<ele>53.160000</ele>
<time>2026-09-01T03:15:41.000Z</time>
</trkpt>
<trkpt lat="59.5330182" lon="31.2366436">
<ele>53.200001</ele>
<time>2026-09-01T03:16:06.000Z</time>
</trkpt>
<trkpt lat="59.5330147" lon="31.2366013">
<ele>52.910000</ele>
<time>2026-09-01T03:16:25.000Z</time>
</trkpt>
<trkpt lat="59.5329901" lon="31.2366456">
<ele>51.929996</ele>
<time>2026-09-01T03:16:45.000Z</time>
</trkpt>
<trkpt lat="59.5330072" lon="31.2366505">
<ele>51.689999</ele>
<time>2026-09-01T03:17:16.000Z</time>
</trkpt>
<trkpt lat="59.5330189" lon="31.2366761">
<ele>52.160004</ele>
<time>2026-09-01T03:17:51.000Z</time>
</trkpt>
<trkpt lat="59.5330600" lon="31.2367469">
<ele>53.180000</ele>
<time>2026-09-01T03:18:22.000Z</time>
</trkpt>
<trkpt lat="59.5330358" lon="31.2365987">
<ele>51.260002</ele>
<time>2026-09-01T03:18:54.000Z</time>
</trkpt>
<trkpt lat="59.5330629" lon="31.2365741">
<ele>48.939999</ele>
<time>2026-09-01T03:19:25.000Z</time>
</trkpt>
</trkseg>
<trkseg>
<trkpt lat="59.1444365" lon="31.2050590">
<ele>49.980000</ele>
<time>2026-08-28T02:55:13.000Z</time>
</trkpt>
<trkpt lat="59.1444505" lon="31.2045974">
<ele>48.990002</ele>
<time>2026-08-28T02:55:17.000Z</time>
</trkpt>
<trkpt lat="59.1444603" lon="31.2045110">
<ele>48.820000</ele>
<time>2026-08-28T02:55:18.000Z</time>
</trkpt>
</trkseg>
<trkseg>
<trkpt lat="59.4810544" lon="31.0208439">
<ele>32.349998</ele>
<time>2026-08-31T20:06:33.000Z</time>
</trkpt>
<trkpt lat="59.4810310" lon="31.0209181">
<ele>37.200001</ele>
<time>2026-08-31T20:06:35.000Z</time>
</trkpt>
<trkpt lat="59.4810068" lon="31.0209485">
<ele>33.360001</ele>
<time>2026-08-31T20:06:39.000Z</time>
</trkpt>
<trkpt lat="59.4809951" lon="31.0209797">
<ele>33.849998</ele>
<time>2026-08-31T20:06:41.000Z</time>
</trkpt>
<trkpt lat="59.4809625" lon="31.0210506">
<ele>35.970001</ele>
<time>2026-08-31T20:06:45.000Z</time>
</trkpt>
<trkpt lat="59.4808605" lon="31.0215639">
<ele>65.880005</ele>
<time>2026-08-31T20:07:00.000Z</time>
</trkpt>
<trkpt lat="59.4808603" lon="31.0215743">
<ele>67.340004</ele>
<time>2026-08-31T20:07:24.000Z</time>
</trkpt>
<trkpt lat="59.4808498" lon="31.0215735">
<ele>71.980003</ele>
<time>2026-08-31T20:07:52.000Z</time>
</trkpt>
<trkpt lat="59.4808999" lon="31.0214762">
<ele>69.629997</ele>
<time>2026-08-31T20:08:23.000Z</time>
</trkpt>
<trkpt lat="59.4809478" lon="31.0215139">
<ele>67.180000</ele>
<time>2026-08-31T20:08:54.000Z</time>
</trkpt>
<trkpt lat="59.4809134" lon="31.0214740">
<ele>63.900002</ele>
<time>2026-08-31T20:09:16.000Z</time>
</trkpt>
<trkpt lat="59.4809131" lon="31.0215147">
<ele>62.070004</ele>
<time>2026-08-31T20:09:37.000Z</time>
</trkpt>
<trkpt lat="59.4809536" lon="31.0215492">
<ele>61.219997</ele>
<time>2026-08-31T20:10:17.000Z</time>
</trkpt>
<trkpt lat="59.4809335" lon="31.0215553">
<ele>59.950001</ele>
<time>2026-08-31T20:10:41.000Z</time>
</trkpt>
<trkpt lat="59.4808847" lon="31.0214866">
<ele>59.239998</ele>
<time>2026-08-31T20:11:07.000Z</time>
</trkpt>
<trkpt lat="59.4808592" lon="31.0214447">
<ele>58.970001</ele>
<time>2026-08-31T20:11:35.000Z</time>
</trkpt>
<trkpt lat="59.4808717" lon="31.0214582">
<ele>58.350002</ele>
<time>2026-08-31T20:12:08.000Z</time>
</trkpt>
<trkpt lat="59.4809084" lon="31.0214526">
<ele>57.900002</ele>
<time>2026-08-31T20:12:48.000Z</time>
</trkpt>
<trkpt lat="59.4809622" lon="31.0214928">
<ele>58.220001</ele>
<time>2026-08-31T20:13:14.000Z</time>
</trkpt>
<trkpt lat="59.4809173" lon="31.0214720">
<ele>58.580002</ele>
<time>2026-08-31T20:13:41.000Z</time>
</trkpt>
<trkpt lat="59.4808625" lon="31.0214654">
<ele>58.599998</ele>
<time>2026-08-31T20:14:08.000Z</time>
</trkpt>
<trkpt lat="59.4808649" lon="31.0214764">
<ele>57.840000</ele>
<time>2026-08-31T20:14:34.000Z</time>
</trkpt>
<trkpt lat="59.4809002" lon="31.0214930">
<ele>58.180004</ele>
<time>2026-08-31T20:15:28.000Z</time>
</trkpt>
<trkpt lat="59.4808725" lon="31.0214666">
<ele>58.989998</ele>
<time>2026-08-31T20:15:51.000Z</time>
</trkpt>
<trkpt lat="59.4808724" lon="31.0214805">
<ele>57.320000</ele>
<time>2026-08-31T20:17:11.000Z</time>
</trkpt>
<trkpt lat="59.4808871" lon="31.0214270">
<ele>56.810001</ele>
<time>2026-08-31T20:17:32.000Z</time>
</trkpt>
<trkpt lat="59.4808099" lon="31.0214208">
<ele>56.680000</ele>
<time>2026-08-31T20:18:05.000Z</time>
</trkpt>
<trkpt lat="59.4808910" lon="31.0214901">
<ele>56.370003</ele>
<time>2026-08-31T20:18:26.000Z</time>
</trkpt>
<trkpt lat="59.4808507" lon="31.0215272">
<ele>54.820000</ele>
<time>2026-08-31T20:18:52.000Z</time>
</trkpt>
<trkpt lat="59.4808895" lon="31.0215185">
<ele>54.320000</ele>
<time>2026-08-31T20:19:08.000Z</time>
</trkpt>
<trkpt lat="59.4809391" lon="31.0215370">
<ele>53.410000</ele>
<time>2026-08-31T20:19:57.000Z</time>
</trkpt>
<trkpt lat="59.4809133" lon="31.0215210">
<ele>52.620003</ele>
<time>2026-08-31T20:20:25.000Z</time>
</trkpt>
<trkpt lat="59.4809086" lon="31.0215213">
<ele>53.100002</ele>
<time>2026-08-31T20:20:52.000Z</time>
</trkpt>
<trkpt lat="59.4808887" lon="31.0214980">
<ele>53.439999</ele>
<time>2026-08-31T20:21:20.000Z</time>
</trkpt>
<trkpt lat="59.4808852" lon="31.0215057">
<ele>53.730000</ele>
<time>2026-08-31T20:21:31.000Z</time>
</trkpt>
<trkpt lat="59.4808912" lon="31.0215172">
<ele>53.650002</ele>
<time>2026-08-31T20:21:56.000Z</time>
</trkpt>
<trkpt lat="59.4808592" lon="31.0215391">
<ele>53.739998</ele>
<time>2026-08-31T20:22:29.000Z</time>
</trkpt>
<trkpt lat="59.4808389" lon="31.0215349">
<ele>54.270000</ele>
<time>2026-08-31T20:22:55.000Z</time>
</trkpt>
<trkpt lat="59.4807853" lon="31.0215087">
<ele>54.370003</ele>
<time>2026-08-31T20:23:27.000Z</time>
</trkpt>
<trkpt lat="59.4808666" lon="31.0215286">
<ele>54.000000</ele>
<time>2026-08-31T20:23:55.000Z</time>
</trkpt>
<trkpt lat="59.4808782" lon="31.0215266">
<ele>54.980003</ele>
<time>2026-08-31T20:24:20.000Z</time>
</trkpt>
<trkpt lat="59.4807976" lon="31.0215143">
<ele>54.230003</ele>
<time>2026-08-31T20:25:08.000Z</time>
</trkpt>
<trkpt lat="59.4808422" lon="31.0215163">
<ele>54.300003</ele>
<time>2026-08-31T20:25:30.000Z</time>
</trkpt>
<trkpt lat="59.4808226" lon="31.0215428">
<ele>53.289997</ele>
<time>2026-08-31T20:25:57.000Z</time>
</trkpt>
<trkpt lat="59.4808197" lon="31.0216262">
<ele>58.060001</ele>
<time>2026-08-31T20:26:25.000Z</time>
</trkpt>
<trkpt lat="59.4807505" lon="31.0215436">
<ele>61.650002</ele>
<time>2026-08-31T20:26:56.000Z</time>
</trkpt>
<trkpt lat="59.4807387" lon="31.0214938">
<ele>62.480000</ele>
<time>2026-08-31T20:27:24.000Z</time>
</trkpt>
<trkpt lat="59.4807308" lon="31.0215033">
<ele>62.410000</ele>
<time>2026-08-31T20:27:50.000Z</time>
</trkpt>
<trkpt lat="59.4808011" lon="31.0215852">
<ele>62.899998</ele>
<time>2026-08-31T20:28:17.000Z</time>
</trkpt>
<trkpt lat="59.4808061" lon="31.0216050">
<ele>64.669998</ele>
<time>2026-08-31T20:28:51.000Z</time>
</trkpt>
<trkpt lat="59.4808208" lon="31.0215853">
<ele>65.010002</ele>
<time>2026-08-31T20:29:18.000Z</time>
</trkpt>
<trkpt lat="59.4808669" lon="31.0215402">
<ele>62.630001</ele>
<time>2026-08-31T20:29:48.000Z</time>
</trkpt>
<trkpt lat="59.4808665" lon="31.0215313">
<ele>60.989998</ele>
<time>2026-08-31T20:30:14.000Z</time>
</trkpt>
<trkpt lat="59.4808676" lon="31.0215478">
<ele>59.980000</ele>
<time>2026-08-31T20:30:44.000Z</time>
</trkpt>
<trkpt lat="59.4808417" lon="31.0215611">
<ele>59.270000</ele>
<time>2026-08-31T20:31:21.000Z</time>
</trkpt>
<trkpt lat="59.4808803" lon="31.0215097">
<ele>59.360001</ele>
<time>2026-08-31T20:31:44.000Z</time>
</trkpt>
<trkpt lat="59.4808795" lon="31.0215135">
<ele>59.110001</ele>
<time>2026-08-31T20:31:52.000Z</time>
</trkpt>
<trkpt lat="59.4809336" lon="31.0214845">
<ele>58.469997</ele>
<time>2026-08-31T20:32:16.000Z</time>
</trkpt>
<trkpt lat="59.4809551" lon="31.0214723">
<ele>59.170002</ele>
<time>2026-08-31T20:32:47.000Z</time>
</trkpt>
<trkpt lat="59.4809306" lon="31.0215116">
<ele>58.410004</ele>
<time>2026-08-31T20:33:10.000Z</time>
</trkpt>
<trkpt lat="59.4809690" lon="31.0215375">
<ele>57.420002</ele>
<time>2026-08-31T20:33:31.000Z</time>
</trkpt>
<trkpt lat="59.4809598" lon="31.0215375">
<ele>56.740002</ele>
<time>2026-08-31T20:33:48.000Z</time>
</trkpt>
<trkpt lat="59.4808749" lon="31.0215171">
<ele>56.689999</ele>
<time>2026-08-31T20:34:07.000Z</time>
</trkpt>
<trkpt lat="59.4808306" lon="31.0215285">
<ele>56.410000</ele>
<time>2026-08-31T20:34:28.000Z</time>
</trkpt>
<trkpt lat="59.4808070" lon="31.0215561">
<ele>55.310001</ele>
<time>2026-08-31T20:35:06.000Z</time>
</trkpt>
<trkpt lat="59.4808135" lon="31.0215738">
<ele>54.779999</ele>
<time>2026-08-31T20:35:43.000Z</time>
</trkpt>
<trkpt lat="59.4808249" lon="31.0215592">
<ele>54.589996</ele>
<time>2026-08-31T20:35:52.000Z</time>
</trkpt>
<trkpt lat="59.4808788" lon="31.0210325">
<ele>54.809998</ele>
<time>2026-08-31T20:36:01.000Z</time>
</trkpt>
<trkpt lat="59.4808819" lon="31.0208760">
<ele>54.950001</ele>
<time>2026-08-31T20:36:03.000Z</time>
</trkpt>
<trkpt lat="59.4808353" lon="31.0205222">
<ele>54.779999</ele>
<time>2026-08-31T20:36:12.000Z</time>
</trkpt>
<trkpt lat="59.4806716" lon="31.0199870">
<ele>54.150002</ele>
<time>2026-08-31T20:36:24.000Z</time>
</trkpt>
<trkpt lat="59.4805996" lon="31.0198657">
<ele>54.589996</ele>
<time>2026-08-31T20:36:33.000Z</time>
</trkpt>
<trkpt lat="59.4806532" lon="31.0200891">
<ele>54.300003</ele>
<time>2026-08-31T20:36:41.000Z</time>
</trkpt>
<trkpt lat="59.4807050" lon="31.0204399">
<ele>53.790001</ele>
<time>2026-08-31T20:36:45.000Z</time>
</trkpt>
<trkpt lat="59.4807171" lon="31.0212169">
<ele>53.400002</ele>
<time>2026-08-31T20:36:53.000Z</time>
</trkpt>
<trkpt lat="59.4805947" lon="31.0215886">
<ele>53.080002</ele>
<time>2026-08-31T20:36:59.000Z</time>
</trkpt>
<trkpt lat="59.4804025" lon="31.0220590">
<ele>52.669998</ele>
<time>2026-08-31T20:37:12.000Z</time>
</trkpt>
<trkpt lat="59.4800108" lon="31.0228045">
<ele>52.449997</ele>
<time>2026-08-31T20:37:21.000Z</time>
</trkpt>
<trkpt lat="59.4790791" lon="31.0245534">
<ele>51.630001</ele>
<time>2026-08-31T20:37:39.000Z</time>
</trkpt>
<trkpt lat="59.4783549" lon="31.0260978">
<ele>50.399998</ele>
<time>2026-08-31T20:37:54.000Z</time>
</trkpt>
<trkpt lat="59.4774611" lon="31.0278759">
<ele>50.500000</ele>
<time>2026-08-31T20:38:11.000Z</time>
</trkpt>
<trkpt lat="59.4767196" lon="31.0292860">
<ele>49.469997</ele>
<time>2026-08-31T20:38:28.000Z</time>
</trkpt>
<trkpt lat="59.4762527" lon="31.0299956">
<ele>49.040001</ele>
<time>2026-08-31T20:38:40.000Z</time>
</trkpt>
<trkpt lat="59.4761830" lon="31.0301713">
<ele>48.779999</ele>
<time>2026-08-31T20:38:52.000Z</time>
</trkpt>
<trkpt lat="59.4759390" lon="31.0307619">
<ele>48.259998</ele>
<time>2026-08-31T20:39:01.000Z</time>
</trkpt>
<trkpt lat="59.4751613" lon="31.0321941">
<ele>46.939999</ele>
<time>2026-08-31T20:39:16.000Z</time>
</trkpt>
<trkpt lat="59.4743445" lon="31.0337837">
<ele>45.299999</ele>
<time>2026-08-31T20:39:34.000Z</time>
</trkpt>
<trkpt lat="59.4739155" lon="31.0345948">
<ele>43.430000</ele>
<time>2026-08-31T20:39:47.000Z</time>
</trkpt>
<trkpt lat="59.4731893" lon="31.0359343">
<ele>42.510002</ele>
<time>2026-08-31T20:40:01.000Z</time>
</trkpt>
<trkpt lat="59.4723921" lon="31.0375044">
<ele>40.760002</ele>
<time>2026-08-31T20:40:17.000Z</time>
</trkpt>
<trkpt lat="59.4716259" lon="31.0390059">
<ele>38.290001</ele>
<time>2026-08-31T20:40:32.000Z</time>
</trkpt>
<trkpt lat="59.4707488" lon="31.0406355">
<ele>35.639999</ele>
<time>2026-08-31T20:40:50.000Z</time>
</trkpt>
<trkpt lat="59.4706832" lon="31.0408123">
<ele>35.340000</ele>
<time>2026-08-31T20:40:52.000Z</time>
</trkpt>
<trkpt lat="59.4708157" lon="31.0415617">
<ele>33.780003</ele>
<time>2026-08-31T20:40:59.000Z</time>
</trkpt>
<trkpt lat="59.4713795" lon="31.0434058">
<ele>33.130001</ele>
<time>2026-08-31T20:41:14.000Z</time>
</trkpt>
<trkpt lat="59.4717799" lon="31.0450895">
<ele>32.189999</ele>
<time>2026-08-31T20:41:29.000Z</time>
</trkpt>
<trkpt lat="59.4722466" lon="31.0466174">
<ele>30.550001</ele>
<time>2026-08-31T20:41:44.000Z</time>
</trkpt>
<trkpt lat="59.4726421" lon="31.0477661">
<ele>27.990002</ele>
<time>2026-08-31T20:41:57.000Z</time>
</trkpt>
<trkpt lat="59.4731953" lon="31.0493218">
<ele>26.620001</ele>
<time>2026-08-31T20:42:12.000Z</time>
</trkpt>
<trkpt lat="59.4736406" lon="31.0506590">
<ele>24.840000</ele>
<time>2026-08-31T20:42:26.000Z</time>
</trkpt>
<trkpt lat="59.4739820" lon="31.0519797">
<ele>25.459999</ele>
<time>2026-08-31T20:42:41.000Z</time>
</trkpt>
<trkpt lat="59.4746241" lon="31.0540207">
<ele>29.890001</ele>
<time>2026-08-31T20:43:03.000Z</time>
</trkpt>
<trkpt lat="59.4750842" lon="31.0555042">
<ele>31.789999</ele>
<time>2026-08-31T20:43:21.000Z</time>
</trkpt>
<trkpt lat="59.4755153" lon="31.0569146">
<ele>33.590000</ele>
<time>2026-08-31T20:43:36.000Z</time>
</trkpt>
<trkpt lat="59.4759767" lon="31.0585693">
<ele>34.209999</ele>
<time>2026-08-31T20:43:54.000Z</time>
</trkpt>
<trkpt lat="59.4764788" lon="31.0601059">
<ele>33.759998</ele>
<time>2026-08-31T20:44:13.000Z</time>
</trkpt>
<trkpt lat="59.4768652" lon="31.0612818">
<ele>33.709999</ele>
<time>2026-08-31T20:44:29.000Z</time>
</trkpt>
<trkpt lat="59.4772113" lon="31.0628166">
<ele>33.189999</ele>
<time>2026-08-31T20:44:45.000Z</time>
</trkpt>
<trkpt lat="59.4776094" lon="31.0641706">
<ele>34.980000</ele>
<time>2026-08-31T20:45:01.000Z</time>
</trkpt>
<trkpt lat="59.4780834" lon="31.0655296">
<ele>36.059998</ele>
<time>2026-08-31T20:45:17.000Z</time>
</trkpt>
<trkpt lat="59.4785116" lon="31.0667894">
<ele>37.709999</ele>
<time>2026-08-31T20:45:33.000Z</time>
</trkpt>
<trkpt lat="59.4789801" lon="31.0680798">
<ele>38.860001</ele>
<time>2026-08-31T20:45:48.000Z</time>
</trkpt>
<trkpt lat="59.4795914" lon="31.0697354">
<ele>38.689999</ele>
<time>2026-08-31T20:46:08.000Z</time>
</trkpt>
<trkpt lat="59.4796360" lon="31.0698211">
<ele>38.850002</ele>
<time>2026-08-31T20:46:09.000Z</time>
</trkpt>
<trkpt lat="59.4799180" lon="31.0702160">
<ele>39.220001</ele>
<time>2026-08-31T20:46:15.000Z</time>
</trkpt>
<trkpt lat="59.4802292" lon="31.0702870">
<ele>39.840000</ele>
<time>2026-08-31T20:46:20.000Z</time>
</trkpt>
<trkpt lat="59.4812071" lon="31.0700764">
<ele>40.370003</ele>
<time>2026-08-31T20:46:39.000Z</time>
</trkpt>
<trkpt lat="59.4813554" lon="31.0700909">
<ele>39.639999</ele>
<time>2026-08-31T20:46:42.000Z</time>
</trkpt>
<trkpt lat="59.4821327" lon="31.0705589">
<ele>42.130001</ele>
<time>2026-08-31T20:46:58.000Z</time>
</trkpt>
<trkpt lat="59.4830204" lon="31.0713980">
<ele>43.500000</ele>
<time>2026-08-31T20:47:16.000Z</time>
</trkpt>
<trkpt lat="59.4835998" lon="31.0723689">
<ele>43.840000</ele>
<time>2026-08-31T20:47:31.000Z</time>
</trkpt>
<trkpt lat="59.4843064" lon="31.0734977">
<ele>43.910000</ele>
<time>2026-08-31T20:47:47.000Z</time>
</trkpt>
<trkpt lat="59.4849400" lon="31.0744450">
<ele>45.110001</ele>
<time>2026-08-31T20:48:03.000Z</time>
</trkpt>
<trkpt lat="59.4856617" lon="31.0753538">
<ele>45.549999</ele>
<time>2026-08-31T20:48:19.000Z</time>
</trkpt>
<trkpt lat="59.4865067" lon="31.0766388">
<ele>45.930000</ele>
<time>2026-08-31T20:48:37.000Z</time>
</trkpt>
<trkpt lat="59.4873513" lon="31.0778322">
<ele>45.700001</ele>
<time>2026-08-31T20:48:55.000Z</time>
</trkpt>
<trkpt lat="59.4878865" lon="31.0786244">
<ele>44.669998</ele>
<time>2026-08-31T20:49:08.000Z</time>
</trkpt>
<trkpt lat="59.4880396" lon="31.0788731">
<ele>44.550003</ele>
<time>2026-08-31T20:49:12.000Z</time>
</trkpt>
<trkpt lat="59.4885096" lon="31.0793781">
<ele>44.340000</ele>
<time>2026-08-31T20:49:27.000Z</time>
</trkpt>
<trkpt lat="59.4887235" lon="31.0796954">
<ele>45.080002</ele>
<time>2026-08-31T20:49:50.000Z</time>
</trkpt>
<trkpt lat="59.4887823" lon="31.0797366">
<ele>48.160000</ele>
<time>2026-08-31T20:50:12.000Z</time>
</trkpt>
<trkpt lat="59.4887484" lon="31.0797883">
<ele>49.450001</ele>
<time>2026-08-31T20:50:34.000Z</time>
</trkpt>
<trkpt lat="59.4887262" lon="31.0798603">
<ele>52.360001</ele>
<time>2026-08-31T20:50:54.000Z</time>
</trkpt>
<trkpt lat="59.4887676" lon="31.0797478">
<ele>53.029999</ele>
<time>2026-08-31T20:51:08.000Z</time>
</trkpt>
<trkpt lat="59.4887827" lon="31.0797106">
<ele>53.330002</ele>
<time>2026-08-31T20:51:43.000Z</time>
</trkpt>
<trkpt lat="59.4887279" lon="31.0796476">
<ele>53.610001</ele>
<time>2026-08-31T20:52:55.000Z</time>
</trkpt>
<trkpt lat="59.4888632" lon="31.0798619">
<ele>53.380001</ele>
<time>2026-08-31T20:53:12.000Z</time>
</trkpt>
<trkpt lat="59.4889832" lon="31.0800079">
<ele>53.660000</ele>
<time>2026-08-31T20:53:31.000Z</time>
</trkpt>
<trkpt lat="59.4890027" lon="31.0800404">
<ele>52.669998</ele>
<time>2026-08-31T20:53:53.000Z</time>
</trkpt>
<trkpt lat="59.4890437" lon="31.0800369">
<ele>52.160004</ele>
<time>2026-08-31T20:54:13.000Z</time>
</trkpt>
<trkpt lat="59.4891076" lon="31.0800037">
<ele>51.730000</ele>
<time>2026-08-31T20:54:29.000Z</time>
</trkpt>
<trkpt lat="59.4890978" lon="31.0800995">
<ele>51.070000</ele>
<time>2026-08-31T20:54:45.000Z</time>
</trkpt>
<trkpt lat="59.4891178" lon="31.0802410">
<ele>48.350002</ele>
<time>2026-08-31T20:55:05.000Z</time>
</trkpt>
<trkpt lat="59.4890631" lon="31.0801936">
<ele>48.029999</ele>
<time>2026-08-31T20:55:18.000Z</time>
</trkpt>
<trkpt lat="59.4890400" lon="31.0802116">
<ele>49.570004</ele>
<time>2026-08-31T20:55:36.000Z</time>
</trkpt>
<trkpt lat="59.4890178" lon="31.0800638">
<ele>49.779999</ele>
<time>2026-08-31T20:55:52.000Z</time>
</trkpt>
<trkpt lat="59.4890227" lon="31.0800583">
<ele>49.919998</ele>
<time>2026-08-31T20:56:00.000Z</time>
</trkpt>
<trkpt lat="59.4890634" lon="31.0800327">
<ele>50.060001</ele>
<time>2026-08-31T20:56:06.000Z</time>
</trkpt>
<trkpt lat="59.4891278" lon="31.0800015">
<ele>51.020000</ele>
<time>2026-08-31T20:56:25.000Z</time>
</trkpt>
<trkpt lat="59.4890706" lon="31.0799777">
<ele>52.860001</ele>
<time>2026-08-31T20:56:58.000Z</time>
</trkpt>
<trkpt lat="59.4890938" lon="31.0799667">
<ele>54.180000</ele>
<time>2026-08-31T20:57:29.000Z</time>
</trkpt>
<trkpt lat="59.4890791" lon="31.0799460">
<ele>54.189999</ele>
<time>2026-08-31T20:57:56.000Z</time>
</trkpt>
<trkpt lat="59.4890805" lon="31.0799847">
<ele>53.490002</ele>
<time>2026-08-31T20:58:15.000Z</time>
</trkpt>
<trkpt lat="59.4890576" lon="31.0799833">
<ele>53.349998</ele>
<time>2026-08-31T20:58:39.000Z</time>
</trkpt>
<trkpt lat="59.4890498" lon="31.0799809">
<ele>53.560001</ele>
<time>2026-08-31T20:59:05.000Z</time>
</trkpt>
<trkpt lat="59.4890395" lon="31.0799873">
<ele>53.139999</ele>
<time>2026-08-31T20:59:31.000Z</time>
</trkpt>
<trkpt lat="59.4890574" lon="31.0799502">
<ele>53.139999</ele>
<time>2026-08-31T20:59:57.000Z</time>
</trkpt>
<trkpt lat="59.4890533" lon="31.0799579">
<ele>52.609997</ele>
<time>2026-08-31T21:00:22.000Z</time>
</trkpt>
<trkpt lat="59.4890665" lon="31.0799970">
<ele>52.340000</ele>
<time>2026-08-31T21:00:43.000Z</time>
</trkpt>
<trkpt lat="59.4890622" lon="31.0799811">
<ele>51.759998</ele>
<time>2026-08-31T21:01:11.000Z</time>
</trkpt>
<trkpt lat="59.4890701" lon="31.0799675">
<ele>51.500000</ele>
<time>2026-08-31T21:01:34.000Z</time>
</trkpt>
<trkpt lat="59.4890918" lon="31.0799659">
<ele>51.030003</ele>
<time>2026-08-31T21:01:53.000Z</time>
</trkpt>
<trkpt lat="59.4890172" lon="31.0799684">
<ele>51.139999</ele>
<time>2026-08-31T21:02:14.000Z</time>
</trkpt>
<trkpt lat="59.4889018" lon="31.0799697">
<ele>49.259998</ele>
<time>2026-08-31T21:02:33.000Z</time>
</trkpt>
<trkpt lat="59.4888392" lon="31.0799269">
<ele>48.000000</ele>
<time>2026-08-31T21:02:57.000Z</time>
</trkpt>
<trkpt lat="59.4887636" lon="31.0798656">
<ele>48.540001</ele>
<time>2026-08-31T21:03:16.000Z</time>
</trkpt>
<trkpt lat="59.4886483" lon="31.0800308">
<ele>47.690002</ele>
<time>2026-08-31T21:03:37.000Z</time>
</trkpt>
<trkpt lat="59.4885537" lon="31.0802893">
<ele>47.189999</ele>
<time>2026-08-31T21:03:57.000Z</time>
</trkpt>
<trkpt lat="59.4884707" lon="31.0805445">
<ele>45.599998</ele>
<time>2026-08-31T21:04:16.000Z</time>
</trkpt>
<trkpt lat="59.4883469" lon="31.0808106">
<ele>43.660000</ele>
<time>2026-08-31T21:04:36.000Z</time>
</trkpt>
<trkpt lat="59.4883314" lon="31.0808864">
<ele>42.680000</ele>
<time>2026-08-31T21:04:41.000Z</time>
</trkpt>
<trkpt lat="59.4881772" lon="31.0812315">
<ele>41.230000</ele>
<time>2026-08-31T21:05:08.000Z</time>
</trkpt>
<trkpt lat="59.4881605" lon="31.0812534">
<ele>41.150002</ele>
<time>2026-08-31T21:05:11.000Z</time>
</trkpt>
<trkpt lat="59.4880557" lon="31.0814942">
<ele>41.889999</ele>
<time>2026-08-31T21:05:35.000Z</time>
</trkpt>
<trkpt lat="59.4879553" lon="31.0817130">
<ele>42.529999</ele>
<time>2026-08-31T21:05:59.000Z</time>
</trkpt>
<trkpt lat="59.4878499" lon="31.0819890">
<ele>41.420002</ele>
<time>2026-08-31T21:06:19.000Z</time>
</trkpt>
<trkpt lat="59.4877322" lon="31.0823053">
<ele>40.109997</ele>
<time>2026-08-31T21:06:41.000Z</time>
</trkpt>
<trkpt lat="59.4876202" lon="31.0825927">
<ele>39.690002</ele>
<time>2026-08-31T21:07:01.000Z</time>
</trkpt>
<trkpt lat="59.4874759" lon="31.0829127">
<ele>37.689999</ele>
<time>2026-08-31T21:07:21.000Z</time>
</trkpt>
<trkpt lat="59.4874285" lon="31.0833021">
<ele>38.540001</ele>
<time>2026-08-31T21:07:41.000Z</time>
</trkpt>
<trkpt lat="59.4874102" lon="31.0834511">
<ele>38.779999</ele>
<time>2026-08-31T21:08:03.000Z</time>
</trkpt>
<trkpt lat="59.4874189" lon="31.0837166">
<ele>40.619999</ele>
<time>2026-08-31T21:08:24.000Z</time>
</trkpt>
<trkpt lat="59.4873996" lon="31.0840861">
<ele>40.939999</ele>
<time>2026-08-31T21:08:46.000Z</time>
</trkpt>
<trkpt lat="59.4873555" lon="31.0841965">
<ele>40.740002</ele>
<time>2026-08-31T21:09:10.000Z</time>
</trkpt>
<trkpt lat="59.4873798" lon="31.0844904">
<ele>41.910000</ele>
<time>2026-08-31T21:09:27.000Z</time>
</trkpt>
<trkpt lat="59.4874209" lon="31.0849047">
<ele>36.529999</ele>
<time>2026-08-31T21:09:52.000Z</time>
</trkpt>
<trkpt lat="59.4873714" lon="31.0852493">
<ele>32.180000</ele>
<time>2026-08-31T21:10:13.000Z</time>
</trkpt>
<trkpt lat="59.4872628" lon="31.0854020">
<ele>34.180000</ele>
<time>2026-08-31T21:10:37.000Z</time>
</trkpt>
<trkpt lat="59.4872819" lon="31.0856168">
<ele>42.469997</ele>
<time>2026-08-31T21:11:09.000Z</time>
</trkpt>
<trkpt lat="59.4873402" lon="31.0857389">
<ele>42.640003</ele>
<time>2026-08-31T21:11:35.000Z</time>
</trkpt>
<trkpt lat="59.4873406" lon="31.0857491">
<ele>43.480003</ele>
<time>2026-08-31T21:12:05.000Z</time>
</trkpt>
<trkpt lat="59.4873575" lon="31.0858071">
<ele>46.220001</ele>
<time>2026-08-31T21:12:19.000Z</time>
</trkpt>
<trkpt lat="59.4873752" lon="31.0858229">
<ele>45.760002</ele>
<time>2026-08-31T21:12:51.000Z</time>
</trkpt>
<trkpt lat="59.4873730" lon="31.0857202">
<ele>44.520000</ele>
<time>2026-08-31T21:13:22.000Z</time>
</trkpt>
<trkpt lat="59.4873713" lon="31.0857824">
<ele>45.579998</ele>
<time>2026-08-31T21:13:49.000Z</time>
</trkpt>
<trkpt lat="59.4874359" lon="31.0857784">
<ele>48.730003</ele>
<time>2026-08-31T21:14:19.000Z</time>
</trkpt>
<trkpt lat="59.4873871" lon="31.0857791">
<ele>49.919998</ele>
<time>2026-08-31T21:14:44.000Z</time>
</trkpt>
<trkpt lat="59.4873692" lon="31.0857077">
<ele>52.110001</ele>
<time>2026-08-31T21:15:17.000Z</time>
</trkpt>
<trkpt lat="59.4874486" lon="31.0858709">
<ele>49.980000</ele>
<time>2026-08-31T21:15:49.000Z</time>
</trkpt>
<trkpt lat="59.4874161" lon="31.0859650">
<ele>50.469997</ele>
<time>2026-08-31T21:16:11.000Z</time>
</trkpt>
<trkpt lat="59.4873503" lon="31.0862655">
<ele>49.869999</ele>
<time>2026-08-31T21:16:30.000Z</time>
</trkpt>
<trkpt lat="59.4873227" lon="31.0866036">
<ele>46.199997</ele>
<time>2026-08-31T21:16:47.000Z</time>
</trkpt>
<trkpt lat="59.4872739" lon="31.0867815">
<ele>42.160000</ele>
<time>2026-08-31T21:16:58.000Z</time>
</trkpt>
<trkpt lat="59.4872280" lon="31.0872206">
<ele>39.130001</ele>
<time>2026-08-31T21:17:19.000Z</time>
</trkpt>
<trkpt lat="59.4872405" lon="31.0876786">
<ele>37.100002</ele>
<time>2026-08-31T21:17:43.000Z</time>
</trkpt>
<trkpt lat="59.4872285" lon="31.0877796">
<ele>36.480000</ele>
<time>2026-08-31T21:17:50.000Z</time>
</trkpt>
<trkpt lat="59.4871777" lon="31.0882087">
<ele>36.619999</ele>
<time>2026-08-31T21:18:13.000Z</time>
</trkpt>
<trkpt lat="59.4871303" lon="31.0886079">
<ele>33.480000</ele>
<time>2026-08-31T21:18:33.000Z</time>
</trkpt>
<trkpt lat="59.4871142" lon="31.0889472">
<ele>30.759998</ele>
<time>2026-08-31T21:18:48.000Z</time>
</trkpt>
<trkpt lat="59.4871061" lon="31.0893410">
<ele>29.290001</ele>
<time>2026-08-31T21:19:10.000Z</time>
</trkpt>
<trkpt lat="59.4870729" lon="31.0898009">
<ele>27.599998</ele>
<time>2026-08-31T21:19:31.000Z</time>
</trkpt>
<trkpt lat="59.4870122" lon="31.0902441">
<ele>26.280001</ele>
<time>2026-08-31T21:19:53.000Z</time>
</trkpt>
<trkpt lat="59.4869760" lon="31.0905605">
<ele>26.980000</ele>
<time>2026-08-31T21:20:13.000Z</time>
</trkpt>
<trkpt lat="59.4869483" lon="31.0907596">
<ele>27.950001</ele>
<time>2026-08-31T21:20:25.000Z</time>
</trkpt>
<trkpt lat="59.4869702" lon="31.0910017">
<ele>28.750000</ele>
<time>2026-08-31T21:20:41.000Z</time>
</trkpt>
<trkpt lat="59.4869302" lon="31.0914988">
<ele>27.410000</ele>
<time>2026-08-31T21:21:05.000Z</time>
</trkpt>
<trkpt lat="59.4869262" lon="31.0916515">
<ele>27.340000</ele>
<time>2026-08-31T21:21:14.000Z</time>
</trkpt>
<trkpt lat="59.4869033" lon="31.0920226">
<ele>25.910000</ele>
<time>2026-08-31T21:21:36.000Z</time>
</trkpt>
<trkpt lat="59.4868782" lon="31.0923301">
<ele>25.170000</ele>
<time>2026-08-31T21:21:50.000Z</time>
</trkpt>
<trkpt lat="59.4868593" lon="31.0926516">
<ele>24.870001</ele>
<time>2026-08-31T21:22:09.000Z</time>
</trkpt>
<trkpt lat="59.4868431" lon="31.0930050">
<ele>23.599998</ele>
<time>2026-08-31T21:22:29.000Z</time>
</trkpt>
<trkpt lat="59.4867976" lon="31.0933806">
<ele>23.900000</ele>
<time>2026-08-31T21:22:51.000Z</time>
</trkpt>
<trkpt lat="59.4868185" lon="31.0935353">
<ele>23.179998</ele>
<time>2026-08-31T21:23:03.000Z</time>
</trkpt>
<trkpt lat="59.4868307" lon="31.0937300">
<ele>24.110001</ele>
<time>2026-08-31T21:23:18.000Z</time>
</trkpt>
<trkpt lat="59.4867591" lon="31.0942061">
<ele>25.659998</ele>
<time>2026-08-31T21:23:43.000Z</time>
</trkpt>
<trkpt lat="59.4867755" lon="31.0946268">
<ele>24.959999</ele>
<time>2026-08-31T21:24:06.000Z</time>
</trkpt>
<trkpt lat="59.4867598" lon="31.0949528">
<ele>25.609999</ele>
<time>2026-08-31T21:24:25.000Z</time>
</trkpt>
<trkpt lat="59.4867609" lon="31.0952110">
<ele>28.530001</ele>
<time>2026-08-31T21:24:52.000Z</time>
</trkpt>
<trkpt lat="59.4867644" lon="31.0952492">
<ele>28.710001</ele>
<time>2026-08-31T21:24:55.000Z</time>
</trkpt>
<trkpt lat="59.4867723" lon="31.0956348">
<ele>29.429998</ele>
<time>2026-08-31T21:25:18.000Z</time>
</trkpt>
<trkpt lat="59.4867406" lon="31.0958314">
<ele>28.389999</ele>
<time>2026-08-31T21:25:30.000Z</time>
</trkpt>
<trkpt lat="59.4866892" lon="31.0962651">
<ele>27.960001</ele>
<time>2026-08-31T21:25:55.000Z</time>
</trkpt>
<trkpt lat="59.4866848" lon="31.0964311">
<ele>27.599998</ele>
<time>2026-08-31T21:26:03.000Z</time>
</trkpt>
<trkpt lat="59.4866147" lon="31.0968990">
<ele>26.240000</ele>
<time>2026-08-31T21:26:23.000Z</time>
</trkpt>
<trkpt lat="59.4866113" lon="31.0969209">
<ele>26.200001</ele>
<time>2026-08-31T21:26:25.000Z</time>
</trkpt>
<trkpt lat="59.4866108" lon="31.0972400">
<ele>25.219999</ele>
<time>2026-08-31T21:26:49.000Z</time>
</trkpt>
<trkpt lat="59.4865909" lon="31.0973847">
<ele>25.190001</ele>
<time>2026-08-31T21:26:54.000Z</time>
</trkpt>
<trkpt lat="59.4865523" lon="31.0976348">
<ele>25.269999</ele>
<time>2026-08-31T21:27:03.000Z</time>
</trkpt>
<trkpt lat="59.4865503" lon="31.0979923">
<ele>24.350000</ele>
<time>2026-08-31T21:27:22.000Z</time>
</trkpt>
<trkpt lat="59.4865438" lon="31.0983123">
<ele>25.090000</ele>
<time>2026-08-31T21:27:41.000Z</time>
</trkpt>
<trkpt lat="59.4865034" lon="31.0984322">
<ele>24.469999</ele>
<time>2026-08-31T21:27:50.000Z</time>
</trkpt>
<trkpt lat="59.4864934" lon="31.0984834">
<ele>24.750000</ele>
<time>2026-08-31T21:27:52.000Z</time>
</trkpt>
<trkpt lat="59.4865080" lon="31.0989588">
<ele>24.820000</ele>
<time>2026-08-31T21:28:15.000Z</time>
</trkpt>
<trkpt lat="59.4864816" lon="31.0992819">
<ele>23.420000</ele>
<time>2026-08-31T21:28:32.000Z</time>
</trkpt>
<trkpt lat="59.4865281" lon="31.0996474">
<ele>20.140001</ele>
<time>2026-08-31T21:28:52.000Z</time>
</trkpt>
<trkpt lat="59.4866538" lon="31.0999011">
<ele>20.530001</ele>
<time>2026-08-31T21:29:12.000Z</time>
</trkpt>
<trkpt lat="59.4868751" lon="31.1001362">
<ele>18.070000</ele>
<time>2026-08-31T21:29:38.000Z</time>
</trkpt>
<trkpt lat="59.4869678" lon="31.1003746">
<ele>16.820000</ele>
<time>2026-08-31T21:29:56.000Z</time>
</trkpt>
<trkpt lat="59.4870886" lon="31.1005666">
<ele>19.360001</ele>
<time>2026-08-31T21:30:19.000Z</time>
</trkpt>
<trkpt lat="59.4871939" lon="31.1007165">
<ele>21.269999</ele>
<time>2026-08-31T21:30:36.000Z</time>
</trkpt>
<trkpt lat="59.4873427" lon="31.1009150">
<ele>23.190001</ele>
<time>2026-08-31T21:30:59.000Z</time>
</trkpt>
<trkpt lat="59.4874735" lon="31.1011129">
<ele>26.080002</ele>
<time>2026-08-31T21:31:23.000Z</time>
</trkpt>
<trkpt lat="59.4874927" lon="31.1011378">
<ele>26.410000</ele>
<time>2026-08-31T21:31:28.000Z</time>
</trkpt>
<trkpt lat="59.4876089" lon="31.1013645">
<ele>28.929998</ele>
<time>2026-08-31T21:31:51.000Z</time>
</trkpt>
<trkpt lat="59.4877545" lon="31.1015085">
<ele>30.360001</ele>
<time>2026-08-31T21:32:12.000Z</time>
</trkpt>
<trkpt lat="59.4878662" lon="31.1017607">
<ele>31.240000</ele>
<time>2026-08-31T21:32:34.000Z</time>
</trkpt>
<trkpt lat="59.4880177" lon="31.1019622">
<ele>31.270000</ele>
<time>2026-08-31T21:32:58.000Z</time>
</trkpt>
<trkpt lat="59.4881334" lon="31.1021093">
<ele>32.160000</ele>
<time>2026-08-31T21:33:14.000Z</time>
</trkpt>
<trkpt lat="59.4881461" lon="31.1021584">
<ele>32.410000</ele>
<time>2026-08-31T21:33:18.000Z</time>
</trkpt>
<trkpt lat="59.4882170" lon="31.1023704">
<ele>32.549999</ele>
<time>2026-08-31T21:33:35.000Z</time>
</trkpt>
<trkpt lat="59.4883682" lon="31.1025821">
<ele>36.650002</ele>
<time>2026-08-31T21:33:56.000Z</time>
</trkpt>
<trkpt lat="59.4884529" lon="31.1026499">
<ele>38.400002</ele>
<time>2026-08-31T21:34:14.000Z</time>
</trkpt>
<trkpt lat="59.4885237" lon="31.1027335">
<ele>39.639999</ele>
<time>2026-08-31T21:34:33.000Z</time>
</trkpt>
<trkpt lat="59.4885963" lon="31.1028242">
<ele>39.670002</ele>
<time>2026-08-31T21:34:49.000Z</time>
</trkpt>
<trkpt lat="59.4887117" lon="31.1029972">
<ele>37.799999</ele>
<time>2026-08-31T21:35:10.000Z</time>
</trkpt>
<trkpt lat="59.4888014" lon="31.1031794">
<ele>35.899998</ele>
<time>2026-08-31T21:35:28.000Z</time>
</trkpt>
<trkpt lat="59.4889135" lon="31.1033914">
<ele>34.200001</ele>
<time>2026-08-31T21:35:51.000Z</time>
</trkpt>
<trkpt lat="59.4890590" lon="31.1035410">
<ele>33.309998</ele>
<time>2026-08-31T21:36:08.000Z</time>
</trkpt>
<trkpt lat="59.4891991" lon="31.1037750">
<ele>34.170002</ele>
<time>2026-08-31T21:36:28.000Z</time>
</trkpt>
<trkpt lat="59.4893820" lon="31.1040828">
<ele>33.970001</ele>
<time>2026-08-31T21:36:56.000Z</time>
</trkpt>
<trkpt lat="59.4894936" lon="31.1043596">
<ele>33.919998</ele>
<time>2026-08-31T21:37:17.000Z</time>
</trkpt>
<trkpt lat="59.4896094" lon="31.1045127">
<ele>34.099998</ele>
<time>2026-08-31T21:37:32.000Z</time>
</trkpt>
<trkpt lat="59.4897363" lon="31.1046639">
<ele>36.459999</ele>
<time>2026-08-31T21:37:53.000Z</time>
</trkpt>
<trkpt lat="59.4898677" lon="31.1047721">
<ele>39.559998</ele>
<time>2026-08-31T21:38:14.000Z</time>
</trkpt>
<trkpt lat="59.4899801" lon="31.1049706">
<ele>37.070000</ele>
<time>2026-08-31T21:38:32.000Z</time>
</trkpt>
<trkpt lat="59.4901348" lon="31.1052439">
<ele>34.889999</ele>
<time>2026-08-31T21:38:54.000Z</time>
</trkpt>
<trkpt lat="59.4903022" lon="31.1054957">
<ele>32.959999</ele>
<time>2026-08-31T21:39:18.000Z</time>
</trkpt>
<trkpt lat="59.4904484" lon="31.1057499">
<ele>32.830002</ele>
<time>2026-08-31T21:39:40.000Z</time>
</trkpt>
<trkpt lat="59.4906100" lon="31.1059763">
<ele>34.759998</ele>
<time>2026-08-31T21:40:01.000Z</time>
</trkpt>
<trkpt lat="59.4906925" lon="31.1061620">
<ele>34.340000</ele>
<time>2026-08-31T21:40:16.000Z</time>
</trkpt>
<trkpt lat="59.4907139" lon="31.1061767">
<ele>34.580002</ele>
<time>2026-08-31T21:40:20.000Z</time>
</trkpt>
<trkpt lat="59.4908599" lon="31.1064126">
<ele>34.950001</ele>
<time>2026-08-31T21:40:39.000Z</time>
</trkpt>
<trkpt lat="59.4909774" lon="31.1066445">
<ele>36.610001</ele>
<time>2026-08-31T21:40:59.000Z</time>
</trkpt>
<trkpt lat="59.4911159" lon="31.1068434">
<ele>38.400002</ele>
<time>2026-08-31T21:41:17.000Z</time>
</trkpt>
<trkpt lat="59.4912331" lon="31.1069709">
<ele>40.900002</ele>
<time>2026-08-31T21:41:34.000Z</time>
</trkpt>
<trkpt lat="59.4913505" lon="31.1071877">
<ele>41.800003</ele>
<time>2026-08-31T21:41:54.000Z</time>
</trkpt>
<trkpt lat="59.4915091" lon="31.1074236">
<ele>40.310001</ele>
<time>2026-08-31T21:42:17.000Z</time>
</trkpt>
<trkpt lat="59.4915783" lon="31.1075366">
<ele>39.310001</ele>
<time>2026-08-31T21:42:30.000Z</time>
</trkpt>
<trkpt lat="59.4916611" lon="31.1076363">
<ele>40.050003</ele>
<time>2026-08-31T21:42:53.000Z</time>
</trkpt>
<trkpt lat="59.4916977" lon="31.1077259">
<ele>43.799999</ele>
<time>2026-08-31T21:43:16.000Z</time>
</trkpt>
<trkpt lat="59.4917829" lon="31.1078473">
<ele>44.609997</ele>
<time>2026-08-31T21:43:33.000Z</time>
</trkpt>
<trkpt lat="59.4918850" lon="31.1080526">
<ele>46.589996</ele>
<time>2026-08-31T21:43:55.000Z</time>
</trkpt>
<trkpt lat="59.4919728" lon="31.1081776">
<ele>46.820000</ele>
<time>2026-08-31T21:44:19.000Z</time>
</trkpt>
<trkpt lat="59.4920979" lon="31.1083681">
<ele>46.349998</ele>
<time>2026-08-31T21:44:41.000Z</time>
</trkpt>
<trkpt lat="59.4921787" lon="31.1085156">
<ele>46.700001</ele>
<time>2026-08-31T21:45:01.000Z</time>
</trkpt>
<trkpt lat="59.4922916" lon="31.1086802">
<ele>47.630001</ele>
<time>2026-08-31T21:45:21.000Z</time>
</trkpt>
<trkpt lat="59.4924201" lon="31.1088867">
<ele>47.220001</ele>
<time>2026-08-31T21:45:38.000Z</time>
</trkpt>
<trkpt lat="59.4924851" lon="31.1090123">
<ele>46.119999</ele>
<time>2026-08-31T21:45:53.000Z</time>
</trkpt>
<trkpt lat="59.4925996" lon="31.1091576">
<ele>44.869999</ele>
<time>2026-08-31T21:46:14.000Z</time>
</trkpt>
<trkpt lat="59.4926799" lon="31.1092884">
<ele>44.599998</ele>
<time>2026-08-31T21:46:27.000Z</time>
</trkpt>
<trkpt lat="59.4927620" lon="31.1094078">
<ele>44.799999</ele>
<time>2026-08-31T21:46:41.000Z</time>
</trkpt>
<trkpt lat="59.4928334" lon="31.1095984">
<ele>45.330002</ele>
<time>2026-08-31T21:47:05.000Z</time>
</trkpt>
<trkpt lat="59.4928450" lon="31.1096054">
<ele>45.430000</ele>
<time>2026-08-31T21:47:07.000Z</time>
</trkpt>
<trkpt lat="59.4929339" lon="31.1097878">
<ele>45.279999</ele>
<time>2026-08-31T21:47:24.000Z</time>
</trkpt>
<trkpt lat="59.4929171" lon="31.1099561">
<ele>44.940002</ele>
<time>2026-08-31T21:47:48.000Z</time>
</trkpt>
<trkpt lat="59.4929816" lon="31.1100866">
<ele>44.669998</ele>
<time>2026-08-31T21:48:12.000Z</time>
</trkpt>
<trkpt lat="59.4929849" lon="31.1102315">
<ele>44.650002</ele>
<time>2026-08-31T21:48:24.000Z</time>
</trkpt>
<trkpt lat="59.4929877" lon="31.1104730">
<ele>43.870003</ele>
<time>2026-08-31T21:48:48.000Z</time>
</trkpt>
<trkpt lat="59.4930235" lon="31.1107212">
<ele>44.209999</ele>
<time>2026-08-31T21:49:05.000Z</time>
</trkpt>
<trkpt lat="59.4930370" lon="31.1109528">
<ele>44.839996</ele>
<time>2026-08-31T21:49:25.000Z</time>
</trkpt>
<trkpt lat="59.4930152" lon="31.1109923">
<ele>43.420002</ele>
<time>2026-08-31T21:49:48.000Z</time>
</trkpt>
<trkpt lat="59.4930221" lon="31.1110072">
<ele>43.250004</ele>
<time>2026-08-31T21:50:12.000Z</time>
</trkpt>
<trkpt lat="59.4931033" lon="31.1110941">
<ele>43.560001</ele>
<time>2026-08-31T21:50:37.000Z</time>
</trkpt>
<trkpt lat="59.4931501" lon="31.1111098">
<ele>43.609997</ele>
<time>2026-08-31T21:51:03.000Z</time>
</trkpt>
<trkpt lat="59.4931372" lon="31.1111252">
<ele>43.009998</ele>
<time>2026-08-31T21:51:12.000Z</time>
</trkpt>
<trkpt lat="59.4930674" lon="31.1110010">
<ele>40.799999</ele>
<time>2026-08-31T21:51:46.000Z</time>
</trkpt>
<trkpt lat="59.4930511" lon="31.1109959">
<ele>34.649998</ele>
<time>2026-08-31T21:52:13.000Z</time>
</trkpt>
<trkpt lat="59.4930314" lon="31.1109906">
<ele>29.730000</ele>
<time>2026-08-31T21:52:47.000Z</time>
</trkpt>
<trkpt lat="59.4930900" lon="31.1110810">
<ele>30.529999</ele>
<time>2026-08-31T21:53:15.000Z</time>
</trkpt>
<trkpt lat="59.4930996" lon="31.1111090">
<ele>30.520000</ele>
<time>2026-08-31T21:53:46.000Z</time>
</trkpt>
<trkpt lat="59.4931148" lon="31.1111419">
<ele>31.869999</ele>
<time>2026-08-31T21:54:21.000Z</time>
</trkpt>
<trkpt lat="59.4931004" lon="31.1111482">
<ele>32.169998</ele>
<time>2026-08-31T21:54:50.000Z</time>
</trkpt>
<trkpt lat="59.4931243" lon="31.1111491">
<ele>34.689999</ele>
<time>2026-08-31T21:55:17.000Z</time>
</trkpt>
<trkpt lat="59.4931193" lon="31.1112467">
<ele>35.150002</ele>
<time>2026-08-31T21:55:48.000Z</time>
</trkpt>
<trkpt lat="59.4931686" lon="31.1112434">
<ele>35.639999</ele>
<time>2026-08-31T21:56:12.000Z</time>
</trkpt>
<trkpt lat="59.4932034" lon="31.1113594">
<ele>35.639999</ele>
<time>2026-08-31T21:56:29.000Z</time>
</trkpt>
<trkpt lat="59.4932523" lon="31.1114158">
<ele>35.889999</ele>
<time>2026-08-31T21:56:50.000Z</time>
</trkpt>
<trkpt lat="59.4932778" lon="31.1114516">
<ele>36.100002</ele>
<time>2026-08-31T21:57:16.000Z</time>
</trkpt>
<trkpt lat="59.4932727" lon="31.1114834">
<ele>36.549999</ele>
<time>2026-08-31T21:57:22.000Z</time>
</trkpt>
<trkpt lat="59.4932960" lon="31.1116065">
<ele>37.910000</ele>
<time>2026-08-31T21:57:51.000Z</time>
</trkpt>
<trkpt lat="59.4932520" lon="31.1116640">
<ele>39.160000</ele>
<time>2026-08-31T21:58:19.000Z</time>
</trkpt>
<trkpt lat="59.4932737" lon="31.1116610">
<ele>40.080002</ele>
<time>2026-08-31T21:58:46.000Z</time>
</trkpt>
<trkpt lat="59.4932527" lon="31.1116479">
<ele>40.329998</ele>
<time>2026-08-31T21:58:52.000Z</time>
</trkpt>
<trkpt lat="59.4932712" lon="31.1116692">
<ele>41.029999</ele>
<time>2026-08-31T21:59:19.000Z</time>
</trkpt>
<trkpt lat="59.4932261" lon="31.1116361">
<ele>41.880001</ele>
<time>2026-08-31T21:59:45.000Z</time>
</trkpt>
<trkpt lat="59.4931881" lon="31.1116435">
<ele>40.570000</ele>
<time>2026-08-31T22:00:11.000Z</time>
</trkpt>
<trkpt lat="59.4932333" lon="31.1116555">
<ele>38.770000</ele>
<time>2026-08-31T22:00:40.000Z</time>
</trkpt>
<trkpt lat="59.4932578" lon="31.1116688">
<ele>41.369999</ele>
<time>2026-08-31T22:01:03.000Z</time>
</trkpt>
<trkpt lat="59.4932801" lon="31.1114944">
<ele>40.869999</ele>
<time>2026-08-31T22:01:25.000Z</time>
</trkpt>
<trkpt lat="59.4933135" lon="31.1115097">
<ele>41.420002</ele>
<time>2026-08-31T22:01:50.000Z</time>
</trkpt>
<trkpt lat="59.4934535" lon="31.1113999">
<ele>39.450001</ele>
<time>2026-08-31T22:02:12.000Z</time>
</trkpt>
<trkpt lat="59.4935514" lon="31.1112507">
<ele>35.480000</ele>
<time>2026-08-31T22:02:34.000Z</time>
</trkpt>
<trkpt lat="59.4935639" lon="31.1112059">
<ele>35.060001</ele>
<time>2026-08-31T22:02:39.000Z</time>
</trkpt>
<trkpt lat="59.4936392" lon="31.1110258">
<ele>33.020000</ele>
<time>2026-08-31T22:03:02.000Z</time>
</trkpt>
<trkpt lat="59.4937142" lon="31.1109648">
<ele>33.950001</ele>
<time>2026-08-31T22:03:25.000Z</time>
</trkpt>
<trkpt lat="59.4937275" lon="31.1107881">
<ele>38.580002</ele>
<time>2026-08-31T22:03:43.000Z</time>
</trkpt>
<trkpt lat="59.4938121" lon="31.1104963">
<ele>42.750000</ele>
<time>2026-08-31T22:04:03.000Z</time>
</trkpt>
<trkpt lat="59.4938043" lon="31.1105042">
<ele>42.030003</ele>
<time>2026-08-31T22:04:22.000Z</time>
</trkpt>
<trkpt lat="59.4937963" lon="31.1105278">
<ele>47.029999</ele>
<time>2026-08-31T22:04:57.000Z</time>
</trkpt>
<trkpt lat="59.4937847" lon="31.1104201">
<ele>46.889999</ele>
<time>2026-08-31T22:05:19.000Z</time>
</trkpt>
<trkpt lat="59.4937855" lon="31.1104348">
<ele>44.720001</ele>
<time>2026-08-31T22:05:45.000Z</time>
</trkpt>
<trkpt lat="59.4937679" lon="31.1104881">
<ele>44.180000</ele>
<time>2026-08-31T22:06:15.000Z</time>
</trkpt>
<trkpt lat="59.4937508" lon="31.1106146">
<ele>43.500000</ele>
<time>2026-08-31T22:06:40.000Z</time>
</trkpt>
<trkpt lat="59.4937795" lon="31.1105565">
<ele>41.880001</ele>
<time>2026-08-31T22:07:11.000Z</time>
</trkpt>
<trkpt lat="59.4937310" lon="31.1104080">
<ele>42.079998</ele>
<time>2026-08-31T22:07:44.000Z</time>
</trkpt>
<trkpt lat="59.4937499" lon="31.1102789">
<ele>45.590000</ele>
<time>2026-08-31T22:08:20.000Z</time>
</trkpt>
<trkpt lat="59.4937357" lon="31.1102587">
<ele>46.660000</ele>
<time>2026-08-31T22:08:59.000Z</time>
</trkpt>
<trkpt lat="59.4938387" lon="31.1103439">
<ele>47.820004</ele>
<time>2026-08-31T22:09:29.000Z</time>
</trkpt>
<trkpt lat="59.4939074" lon="31.1101446">
<ele>47.489998</ele>
<time>2026-08-31T22:09:49.000Z</time>
</trkpt>
<trkpt lat="59.4939624" lon="31.1099541">
<ele>47.340000</ele>
<time>2026-08-31T22:10:07.000Z</time>
</trkpt>
<trkpt lat="59.4939911" lon="31.1099939">
<ele>47.990002</ele>
<time>2026-08-31T22:10:43.000Z</time>
</trkpt>
<trkpt lat="59.4940342" lon="31.1101180">
<ele>46.700001</ele>
<time>2026-08-31T22:11:03.000Z</time>
</trkpt>
<trkpt lat="59.4941004" lon="31.1103685">
<ele>43.660000</ele>
<time>2026-08-31T22:11:27.000Z</time>
</trkpt>
<trkpt lat="59.4940089" lon="31.1106923">
<ele>42.099998</ele>
<time>2026-08-31T22:11:49.000Z</time>
</trkpt>
<trkpt lat="59.4939294" lon="31.1106280">
<ele>43.880001</ele>
<time>2026-08-31T22:12:09.000Z</time>
</trkpt>
<trkpt lat="59.4939762" lon="31.1106275">
<ele>43.500000</ele>
<time>2026-08-31T22:12:24.000Z</time>
</trkpt>
<trkpt lat="59.4940368" lon="31.1108229">
<ele>41.079998</ele>
<time>2026-08-31T22:12:38.000Z</time>
</trkpt>
<trkpt lat="59.4940663" lon="31.1110714">
<ele>37.980000</ele>
<time>2026-08-31T22:12:54.000Z</time>
</trkpt>
<trkpt lat="59.4940860" lon="31.1111673">
<ele>35.099998</ele>
<time>2026-08-31T22:13:04.000Z</time>
</trkpt>
<trkpt lat="59.4940495" lon="31.1116901">
<ele>30.910000</ele>
<time>2026-08-31T22:13:30.000Z</time>
</trkpt>
<trkpt lat="59.4939675" lon="31.1120880">
<ele>30.010000</ele>
<time>2026-08-31T22:13:52.000Z</time>
</trkpt>
<trkpt lat="59.4938910" lon="31.1124992">
<ele>27.660000</ele>
<time>2026-08-31T22:14:14.000Z</time>
</trkpt>
<trkpt lat="59.4938765" lon="31.1126105">
<ele>26.350000</ele>
<time>2026-08-31T22:14:20.000Z</time>
</trkpt>
<trkpt lat="59.4938284" lon="31.1128746">
<ele>30.090000</ele>
<time>2026-08-31T22:14:37.000Z</time>
</trkpt>
<trkpt lat="59.4938127" lon="31.1130958">
<ele>31.930000</ele>
<time>2026-08-31T22:14:57.000Z</time>
</trkpt>
<trkpt lat="59.4938138" lon="31.1132179">
<ele>29.340000</ele>
<time>2026-08-31T22:15:14.000Z</time>
</trkpt>
<trkpt lat="59.4938177" lon="31.1132783">
<ele>29.940001</ele>
<time>2026-08-31T22:15:43.000Z</time>
</trkpt>
<trkpt lat="59.4938421" lon="31.1133719">
<ele>35.849998</ele>
<time>2026-08-31T22:16:14.000Z</time>
</trkpt>
<trkpt lat="59.4938304" lon="31.1133399">
<ele>42.870003</ele>
<time>2026-08-31T22:16:47.000Z</time>
</trkpt>
<trkpt lat="59.4938274" lon="31.1134194">
<ele>50.590000</ele>
<time>2026-08-31T22:17:16.000Z</time>
</trkpt>
<trkpt lat="59.4938314" lon="31.1136956">
<ele>50.049999</ele>
<time>2026-08-31T22:17:39.000Z</time>
</trkpt>
<trkpt lat="59.4938378" lon="31.1140093">
<ele>43.089996</ele>
<time>2026-08-31T22:18:02.000Z</time>
</trkpt>
<trkpt lat="59.4938375" lon="31.1143722">
<ele>39.959999</ele>
<time>2026-08-31T22:18:24.000Z</time>
</trkpt>
<trkpt lat="59.4938739" lon="31.1147251">
<ele>40.320000</ele>
<time>2026-08-31T22:18:46.000Z</time>
</trkpt>
<trkpt lat="59.4939454" lon="31.1150694">
<ele>39.090000</ele>
<time>2026-08-31T22:19:08.000Z</time>
</trkpt>
<trkpt lat="59.4940321" lon="31.1153505">
<ele>39.949997</ele>
<time>2026-08-31T22:19:31.000Z</time>
</trkpt>
<trkpt lat="59.4940595" lon="31.1155102">
<ele>40.169998</ele>
<time>2026-08-31T22:19:43.000Z</time>
</trkpt>
<trkpt lat="59.4941373" lon="31.1157672">
<ele>40.029999</ele>
<time>2026-08-31T22:20:04.000Z</time>
</trkpt>
<trkpt lat="59.4942271" lon="31.1160863">
<ele>37.959999</ele>
<time>2026-08-31T22:20:29.000Z</time>
</trkpt>
<trkpt lat="59.4942475" lon="31.1162151">
<ele>38.250000</ele>
<time>2026-08-31T22:20:58.000Z</time>
</trkpt>
<trkpt lat="59.4941427" lon="31.1161521">
<ele>48.210003</ele>
<time>2026-08-31T22:21:35.000Z</time>
</trkpt>
<trkpt lat="59.4941231" lon="31.1161780">
<ele>52.320004</ele>
<time>2026-08-31T22:22:06.000Z</time>
</trkpt>
<trkpt lat="59.4941616" lon="31.1162396">
<ele>55.619999</ele>
<time>2026-08-31T22:22:36.000Z</time>
</trkpt>
<trkpt lat="59.4942469" lon="31.1163733">
<ele>55.480000</ele>
<time>2026-08-31T22:22:56.000Z</time>
</trkpt>
<trkpt lat="59.4943210" lon="31.1165072">
<ele>55.210003</ele>
<time>2026-08-31T22:23:13.000Z</time>
</trkpt>
<trkpt lat="59.4943715" lon="31.1166034">
<ele>54.500000</ele>
<time>2026-08-31T22:23:23.000Z</time>
</trkpt>
<trkpt lat="59.4944701" lon="31.1168375">
<ele>53.010002</ele>
<time>2026-08-31T22:23:47.000Z</time>
</trkpt>
<trkpt lat="59.4945852" lon="31.1171984">
<ele>49.590000</ele>
<time>2026-08-31T22:24:15.000Z</time>
</trkpt>
<trkpt lat="59.4946718" lon="31.1174163">
<ele>45.500000</ele>
<time>2026-08-31T22:24:36.000Z</time>
</trkpt>
<trkpt lat="59.4946969" lon="31.1176128">
<ele>44.980000</ele>
<time>2026-08-31T22:24:52.000Z</time>
</trkpt>
<trkpt lat="59.4947900" lon="31.1179133">
<ele>43.840000</ele>
<time>2026-08-31T22:25:09.000Z</time>
</trkpt>
<trkpt lat="59.4948328" lon="31.1180521">
<ele>42.330002</ele>
<time>2026-08-31T22:25:26.000Z</time>
</trkpt>
<trkpt lat="59.4947959" lon="31.1181490">
<ele>43.609997</ele>
<time>2026-08-31T22:25:49.000Z</time>
</trkpt>
<trkpt lat="59.4948122" lon="31.1181410">
<ele>42.389999</ele>
<time>2026-08-31T22:26:23.000Z</time>
</trkpt>
<trkpt lat="59.4947584" lon="31.1182383">
<ele>41.639999</ele>
<time>2026-08-31T22:27:20.000Z</time>
</trkpt>
<trkpt lat="59.4947490" lon="31.1183243">
<ele>39.459999</ele>
<time>2026-08-31T22:27:51.000Z</time>
</trkpt>
<trkpt lat="59.4947532" lon="31.1182538">
<ele>43.520000</ele>
<time>2026-08-31T22:28:21.000Z</time>
</trkpt>
<trkpt lat="59.4948213" lon="31.1183622">
<ele>48.980000</ele>
<time>2026-08-31T22:28:48.000Z</time>
</trkpt>
<trkpt lat="59.4949250" lon="31.1185234">
<ele>47.910000</ele>
<time>2026-08-31T22:29:05.000Z</time>
</trkpt>
<trkpt lat="59.4950500" lon="31.1186437">
<ele>46.639999</ele>
<time>2026-08-31T22:29:27.000Z</time>
</trkpt>
<trkpt lat="59.4951499" lon="31.1187929">
<ele>41.779999</ele>
<time>2026-08-31T22:29:48.000Z</time>
</trkpt>
<trkpt lat="59.4952856" lon="31.1189944">
<ele>35.829998</ele>
<time>2026-08-31T22:30:09.000Z</time>
</trkpt>
<trkpt lat="59.4954604" lon="31.1193407">
<ele>28.539999</ele>
<time>2026-08-31T22:30:35.000Z</time>
</trkpt>
<trkpt lat="59.4955931" lon="31.1195029">
<ele>28.330002</ele>
<time>2026-08-31T22:30:54.000Z</time>
</trkpt>
<trkpt lat="59.4957750" lon="31.1197264">
<ele>28.920000</ele>
<time>2026-08-31T22:31:18.000Z</time>
</trkpt>
<trkpt lat="59.4958631" lon="31.1198807">
<ele>32.049999</ele>
<time>2026-08-31T22:31:39.000Z</time>
</trkpt>
<trkpt lat="59.4960199" lon="31.1200489">
<ele>35.230000</ele>
<time>2026-08-31T22:32:03.000Z</time>
</trkpt>
<trkpt lat="59.4962241" lon="31.1202751">
<ele>36.540001</ele>
<time>2026-08-31T22:32:27.000Z</time>
</trkpt>
<trkpt lat="59.4963282" lon="31.1204443">
<ele>37.549999</ele>
<time>2026-08-31T22:32:47.000Z</time>
</trkpt>
<trkpt lat="59.4964117" lon="31.1205073">
<ele>37.590000</ele>
<time>2026-08-31T22:33:10.000Z</time>
</trkpt>
<trkpt lat="59.4963984" lon="31.1205200">
<ele>38.079998</ele>
<time>2026-08-31T22:33:39.000Z</time>
</trkpt>
<trkpt lat="59.4964065" lon="31.1205835">
<ele>41.540001</ele>
<time>2026-08-31T22:34:08.000Z</time>
</trkpt>
<trkpt lat="59.4963919" lon="31.1206872">
<ele>46.389999</ele>
<time>2026-08-31T22:34:42.000Z</time>
</trkpt>
<trkpt lat="59.4964686" lon="31.1206281">
<ele>47.949997</ele>
<time>2026-08-31T22:35:06.000Z</time>
</trkpt>
<trkpt lat="59.4966320" lon="31.1208580">
<ele>48.740002</ele>
<time>2026-08-31T22:35:29.000Z</time>
</trkpt>
<trkpt lat="59.4967734" lon="31.1211051">
<ele>44.010002</ele>
<time>2026-08-31T22:35:51.000Z</time>
</trkpt>
<trkpt lat="59.4968881" lon="31.1212817">
<ele>40.489998</ele>
<time>2026-08-31T22:36:08.000Z</time>
</trkpt>
<trkpt lat="59.4970491" lon="31.1214642">
<ele>34.000000</ele>
<time>2026-08-31T22:36:31.000Z</time>
</trkpt>
<trkpt lat="59.4972095" lon="31.1215647">
<ele>32.689999</ele>
<time>2026-08-31T22:36:52.000Z</time>
</trkpt>
<trkpt lat="59.4973389" lon="31.1217078">
<ele>33.790001</ele>
<time>2026-08-31T22:37:14.000Z</time>
</trkpt>
<trkpt lat="59.4975672" lon="31.1219011">
<ele>33.900002</ele>
<time>2026-08-31T22:37:39.000Z</time>
</trkpt>
<trkpt lat="59.4976271" lon="31.1219714">
<ele>39.939999</ele>
<time>2026-08-31T22:38:01.000Z</time>
</trkpt>
<trkpt lat="59.4976421" lon="31.1220428">
<ele>50.110001</ele>
<time>2026-08-31T22:38:33.000Z</time>
</trkpt>
<trkpt lat="59.4977730" lon="31.1221829">
<ele>49.489998</ele>
<time>2026-08-31T22:38:55.000Z</time>
</trkpt>
<trkpt lat="59.4979664" lon="31.1224207">
<ele>47.659996</ele>
<time>2026-08-31T22:39:18.000Z</time>
</trkpt>
<trkpt lat="59.4981052" lon="31.1226950">
<ele>42.320000</ele>
<time>2026-08-31T22:39:40.000Z</time>
</trkpt>
<trkpt lat="59.4981565" lon="31.1228344">
<ele>40.160000</ele>
<time>2026-08-31T22:40:01.000Z</time>
</trkpt>
<trkpt lat="59.4981687" lon="31.1228293">
<ele>41.110001</ele>
<time>2026-08-31T22:40:30.000Z</time>
</trkpt>
<trkpt lat="59.4981389" lon="31.1228131">
<ele>42.169998</ele>
<time>2026-08-31T22:41:03.000Z</time>
</trkpt>
<trkpt lat="59.4981343" lon="31.1228287">
<ele>47.860001</ele>
<time>2026-08-31T22:41:42.000Z</time>
</trkpt>
<trkpt lat="59.4982795" lon="31.1230352">
<ele>41.329998</ele>
<time>2026-08-31T22:42:05.000Z</time>
</trkpt>
<trkpt lat="59.4984129" lon="31.1233649">
<ele>34.709999</ele>
<time>2026-08-31T22:42:28.000Z</time>
</trkpt>
<trkpt lat="59.4985289" lon="31.1235437">
<ele>30.520000</ele>
<time>2026-08-31T22:42:49.000Z</time>
</trkpt>
<trkpt lat="59.4986724" lon="31.1237862">
<ele>26.160002</ele>
<time>2026-08-31T22:43:12.000Z</time>
</trkpt>
<trkpt lat="59.4987961" lon="31.1240382">
<ele>29.870001</ele>
<time>2026-08-31T22:43:33.000Z</time>
</trkpt>
<trkpt lat="59.4988807" lon="31.1243071">
<ele>37.340000</ele>
<time>2026-08-31T22:43:54.000Z</time>
</trkpt>
<trkpt lat="59.4988916" lon="31.1243277">
<ele>37.820000</ele>
<time>2026-08-31T22:43:55.000Z</time>
</trkpt>
<trkpt lat="59.4990209" lon="31.1245182">
<ele>36.860001</ele>
<time>2026-08-31T22:44:10.000Z</time>
</trkpt>
<trkpt lat="59.4990648" lon="31.1245932">
<ele>35.489998</ele>
<time>2026-08-31T22:44:28.000Z</time>
</trkpt>
<trkpt lat="59.4990428" lon="31.1247415">
<ele>37.720001</ele>
<time>2026-08-31T22:44:46.000Z</time>
</trkpt>
<trkpt lat="59.4989894" lon="31.1248345">
<ele>40.810001</ele>
<time>2026-08-31T22:44:59.000Z</time>
</trkpt>
<trkpt lat="59.4989316" lon="31.1249930">
<ele>41.970001</ele>
<time>2026-08-31T22:45:19.000Z</time>
</trkpt>
<trkpt lat="59.4988275" lon="31.1253175">
<ele>38.290001</ele>
<time>2026-08-31T22:45:44.000Z</time>
</trkpt>
<trkpt lat="59.4986949" lon="31.1254654">
<ele>33.919998</ele>
<time>2026-08-31T22:46:06.000Z</time>
</trkpt>
<trkpt lat="59.4984709" lon="31.1257337">
<ele>29.240000</ele>
<time>2026-08-31T22:46:31.000Z</time>
</trkpt>
<trkpt lat="59.4984675" lon="31.1257421">
<ele>29.000000</ele>
<time>2026-08-31T22:46:32.000Z</time>
</trkpt>
<trkpt lat="59.4983103" lon="31.1259974">
<ele>28.140001</ele>
<time>2026-08-31T22:46:54.000Z</time>
</trkpt>
<trkpt lat="59.4982769" lon="31.1262412">
<ele>34.669998</ele>
<time>2026-08-31T22:47:15.000Z</time>
</trkpt>
<trkpt lat="59.4983033" lon="31.1261882">
<ele>37.639999</ele>
<time>2026-08-31T22:47:44.000Z</time>
</trkpt>
<trkpt lat="59.4982924" lon="31.1262492">
<ele>43.270000</ele>
<time>2026-08-31T22:48:22.000Z</time>
</trkpt>
<trkpt lat="59.4982322" lon="31.1262211">
<ele>44.459999</ele>
<time>2026-08-31T22:48:57.000Z</time>
</trkpt>
<trkpt lat="59.4982133" lon="31.1262601">
<ele>48.709999</ele>
<time>2026-08-31T22:49:23.000Z</time>
</trkpt>
<trkpt lat="59.4981389" lon="31.1261833">
<ele>48.869999</ele>
<time>2026-08-31T22:49:47.000Z</time>
</trkpt>
<trkpt lat="59.4981286" lon="31.1262039">
<ele>48.760002</ele>
<time>2026-08-31T22:50:12.000Z</time>
</trkpt>
<trkpt lat="59.4981362" lon="31.1262211">
<ele>48.430000</ele>
<time>2026-08-31T22:50:26.000Z</time>
</trkpt>
<trkpt lat="59.4980555" lon="31.1261897">
<ele>49.559998</ele>
<time>2026-08-31T22:50:55.000Z</time>
</trkpt>
<trkpt lat="59.4980678" lon="31.1262920">
<ele>53.270000</ele>
<time>2026-08-31T22:51:11.000Z</time>
</trkpt>
<trkpt lat="59.4979180" lon="31.1261685">
<ele>53.920002</ele>
<time>2026-08-31T22:51:33.000Z</time>
</trkpt>
<trkpt lat="59.4978252" lon="31.1259751">
<ele>51.989998</ele>
<time>2026-08-31T22:51:55.000Z</time>
</trkpt>
<trkpt lat="59.4977289" lon="31.1258284">
<ele>50.280003</ele>
<time>2026-08-31T22:52:15.000Z</time>
</trkpt>
<trkpt lat="59.4976212" lon="31.1255743">
<ele>46.779999</ele>
<time>2026-08-31T22:52:34.000Z</time>
</trkpt>
<trkpt lat="59.4975232" lon="31.1253561">
<ele>42.459999</ele>
<time>2026-08-31T22:52:58.000Z</time>
</trkpt>
<trkpt lat="59.4974470" lon="31.1251644">
<ele>40.549999</ele>
<time>2026-08-31T22:53:18.000Z</time>
</trkpt>
<trkpt lat="59.4973490" lon="31.1248909">
<ele>37.110001</ele>
<time>2026-08-31T22:53:36.000Z</time>
</trkpt>
<trkpt lat="59.4972170" lon="31.1247222">
<ele>34.970001</ele>
<time>2026-08-31T22:53:54.000Z</time>
</trkpt>
<trkpt lat="59.4970531" lon="31.1245008">
<ele>36.020000</ele>
<time>2026-08-31T22:54:14.000Z</time>
</trkpt>
<trkpt lat="59.4969530" lon="31.1242857">
<ele>33.560001</ele>
<time>2026-08-31T22:54:31.000Z</time>
</trkpt>
<trkpt lat="59.4968134" lon="31.1240928">
<ele>27.449999</ele>
<time>2026-08-31T22:54:53.000Z</time>
</trkpt>
<trkpt lat="59.4966623" lon="31.1237912">
<ele>29.180000</ele>
<time>2026-08-31T22:55:19.000Z</time>
</trkpt>
<trkpt lat="59.4965993" lon="31.1236984">
<ele>30.109999</ele>
<time>2026-08-31T22:55:35.000Z</time>
</trkpt>
<trkpt lat="59.4965137" lon="31.1236463">
<ele>35.320000</ele>
<time>2026-08-31T22:55:58.000Z</time>
</trkpt>
<trkpt lat="59.4965483" lon="31.1234962">
<ele>39.450001</ele>
<time>2026-08-31T22:56:28.000Z</time>
</trkpt>
<trkpt lat="59.4964513" lon="31.1235124">
<ele>41.840000</ele>
<time>2026-08-31T22:56:57.000Z</time>
</trkpt>
<trkpt lat="59.4964226" lon="31.1236141">
<ele>42.880001</ele>
<time>2026-08-31T22:57:29.000Z</time>
</trkpt>
<trkpt lat="59.4964364" lon="31.1236592">
<ele>46.750004</ele>
<time>2026-08-31T22:57:50.000Z</time>
</trkpt>
<trkpt lat="59.4964983" lon="31.1236599">
<ele>48.520000</ele>
<time>2026-08-31T22:58:24.000Z</time>
</trkpt>
<trkpt lat="59.4963635" lon="31.1236929">
<ele>53.029999</ele>
<time>2026-08-31T22:58:53.000Z</time>
</trkpt>
<trkpt lat="59.4964205" lon="31.1237791">
<ele>56.630001</ele>
<time>2026-08-31T22:59:14.000Z</time>
</trkpt>
<trkpt lat="59.4964867" lon="31.1238844">
<ele>57.540001</ele>
<time>2026-08-31T22:59:34.000Z</time>
</trkpt>
<trkpt lat="59.4965957" lon="31.1240594">
<ele>56.700001</ele>
<time>2026-08-31T22:59:56.000Z</time>
</trkpt>
<trkpt lat="59.4966869" lon="31.1242611">
<ele>55.310001</ele>
<time>2026-08-31T23:00:16.000Z</time>
</trkpt>
<trkpt lat="59.4966531" lon="31.1244547">
<ele>54.480000</ele>
<time>2026-08-31T23:00:36.000Z</time>
</trkpt>
<trkpt lat="59.4965652" lon="31.1246650">
<ele>53.250000</ele>
<time>2026-08-31T23:00:55.000Z</time>
</trkpt>
<trkpt lat="59.4965904" lon="31.1246293">
<ele>50.350002</ele>
<time>2026-08-31T23:01:22.000Z</time>
</trkpt>
<trkpt lat="59.4965527" lon="31.1246590">
<ele>53.180000</ele>
<time>2026-08-31T23:01:46.000Z</time>
</trkpt>
<trkpt lat="59.4964644" lon="31.1247238">
<ele>56.029999</ele>
<time>2026-08-31T23:02:14.000Z</time>
</trkpt>
<trkpt lat="59.4964362" lon="31.1248588">
<ele>55.790001</ele>
<time>2026-08-31T23:02:36.000Z</time>
</trkpt>
<trkpt lat="59.4964108" lon="31.1249967">
<ele>55.340000</ele>
<time>2026-08-31T23:02:57.000Z</time>
</trkpt>
<trkpt lat="59.4963494" lon="31.1250059">
<ele>55.700001</ele>
<time>2026-08-31T23:03:16.000Z</time>
</trkpt>
<trkpt lat="59.4963252" lon="31.1250644">
<ele>56.060001</ele>
<time>2026-08-31T23:03:40.000Z</time>
</trkpt>
<trkpt lat="59.4962876" lon="31.1251826">
<ele>55.410000</ele>
<time>2026-08-31T23:04:00.000Z</time>
</trkpt>
<trkpt lat="59.4962208" lon="31.1253252">
<ele>54.920002</ele>
<time>2026-08-31T23:04:21.000Z</time>
</trkpt>
<trkpt lat="59.4961598" lon="31.1253641">
<ele>55.879997</ele>
<time>2026-08-31T23:04:51.000Z</time>
</trkpt>
<trkpt lat="59.4961422" lon="31.1254964">
<ele>59.360001</ele>
<time>2026-08-31T23:05:23.000Z</time>
</trkpt>
<trkpt lat="59.4961684" lon="31.1255384">
<ele>60.970001</ele>
<time>2026-08-31T23:05:52.000Z</time>
</trkpt>
<trkpt lat="59.4961834" lon="31.1255335">
<ele>60.149998</ele>
<time>2026-08-31T23:06:25.000Z</time>
</trkpt>
<trkpt lat="59.4961752" lon="31.1255513">
<ele>62.010002</ele>
<time>2026-08-31T23:06:56.000Z</time>
</trkpt>
<trkpt lat="59.4962058" lon="31.1255074">
<ele>62.250000</ele>
<time>2026-08-31T23:07:24.000Z</time>
</trkpt>
<trkpt lat="59.4961697" lon="31.1255302">
<ele>63.020000</ele>
<time>2026-08-31T23:07:54.000Z</time>
</trkpt>
<trkpt lat="59.4960686" lon="31.1257148">
<ele>60.420002</ele>
<time>2026-08-31T23:08:18.000Z</time>
</trkpt>
<trkpt lat="59.4960215" lon="31.1257762">
<ele>58.960003</ele>
<time>2026-08-31T23:08:34.000Z</time>
</trkpt>
<trkpt lat="59.4959949" lon="31.1258296">
<ele>58.190002</ele>
<time>2026-08-31T23:08:43.000Z</time>
</trkpt>
<trkpt lat="59.4958995" lon="31.1260752">
<ele>55.990002</ele>
<time>2026-08-31T23:09:03.000Z</time>
</trkpt>
<trkpt lat="59.4958621" lon="31.1261902">
<ele>55.649998</ele>
<time>2026-08-31T23:09:27.000Z</time>
</trkpt>
<trkpt lat="59.4958103" lon="31.1262372">
<ele>54.980003</ele>
<time>2026-08-31T23:09:48.000Z</time>
</trkpt>
<trkpt lat="59.4957708" lon="31.1263355">
<ele>54.119999</ele>
<time>2026-08-31T23:10:05.000Z</time>
</trkpt>
<trkpt lat="59.4956453" lon="31.1264951">
<ele>53.770000</ele>
<time>2026-08-31T23:10:24.000Z</time>
</trkpt>
<trkpt lat="59.4955593" lon="31.1266731">
<ele>55.119999</ele>
<time>2026-08-31T23:10:45.000Z</time>
</trkpt>
<trkpt lat="59.4954510" lon="31.1268139">
<ele>55.000000</ele>
<time>2026-08-31T23:11:07.000Z</time>
</trkpt>
<trkpt lat="59.4953613" lon="31.1270276">
<ele>55.039997</ele>
<time>2026-08-31T23:11:28.000Z</time>
</trkpt>
<trkpt lat="59.4952360" lon="31.1273059">
<ele>51.480003</ele>
<time>2026-08-31T23:11:50.000Z</time>
</trkpt>
<trkpt lat="59.4951827" lon="31.1274519">
<ele>52.630001</ele>
<time>2026-08-31T23:12:15.000Z</time>
</trkpt>
<trkpt lat="59.4951124" lon="31.1274745">
<ele>55.750000</ele>
<time>2026-08-31T23:12:44.000Z</time>
</trkpt>
<trkpt lat="59.4951571" lon="31.1274137">
<ele>57.880001</ele>
<time>2026-08-31T23:13:14.000Z</time>
</trkpt>
<trkpt lat="59.4951171" lon="31.1275333">
<ele>57.440002</ele>
<time>2026-08-31T23:13:47.000Z</time>
</trkpt>
<trkpt lat="59.4951344" lon="31.1275744">
<ele>64.709999</ele>
<time>2026-08-31T23:14:14.000Z</time>
</trkpt>
<trkpt lat="59.4951448" lon="31.1275111">
<ele>66.070000</ele>
<time>2026-08-31T23:14:39.000Z</time>
</trkpt>
<trkpt lat="59.4950665" lon="31.1275752">
<ele>65.379997</ele>
<time>2026-08-31T23:15:00.000Z</time>
</trkpt>
<trkpt lat="59.4950329" lon="31.1276538">
<ele>64.970001</ele>
<time>2026-08-31T23:15:09.000Z</time>
</trkpt>
<trkpt lat="59.4949089" lon="31.1278120">
<ele>63.450001</ele>
<time>2026-08-31T23:15:30.000Z</time>
</trkpt>
<trkpt lat="59.4948490" lon="31.1279723">
<ele>62.070004</ele>
<time>2026-08-31T23:15:49.000Z</time>
</trkpt>
<trkpt lat="59.4947574" lon="31.1280875">
<ele>60.959999</ele>
<time>2026-08-31T23:16:05.000Z</time>
</trkpt>
<trkpt lat="59.4946697" lon="31.1282068">
<ele>60.250000</ele>
<time>2026-08-31T23:16:22.000Z</time>
</trkpt>
<trkpt lat="59.4946447" lon="31.1282974">
<ele>61.010002</ele>
<time>2026-08-31T23:16:46.000Z</time>
</trkpt>
<trkpt lat="59.4946402" lon="31.1283294">
<ele>62.090000</ele>
<time>2026-08-31T23:16:58.000Z</time>
</trkpt>
<trkpt lat="59.4946777" lon="31.1284232">
<ele>63.939999</ele>
<time>2026-08-31T23:17:29.000Z</time>
</trkpt>
<trkpt lat="59.4947060" lon="31.1284554">
<ele>63.290001</ele>
<time>2026-08-31T23:17:46.000Z</time>
</trkpt>
<trkpt lat="59.4947180" lon="31.1286091">
<ele>63.590004</ele>
<time>2026-08-31T23:18:14.000Z</time>
</trkpt>
<trkpt lat="59.4946952" lon="31.1287797">
<ele>62.770000</ele>
<time>2026-08-31T23:18:35.000Z</time>
</trkpt>
<trkpt lat="59.4946669" lon="31.1289267">
<ele>60.560001</ele>
<time>2026-08-31T23:19:05.000Z</time>
</trkpt>
<trkpt lat="59.4947052" lon="31.1288799">
<ele>59.209999</ele>
<time>2026-08-31T23:19:36.000Z</time>
</trkpt>
<trkpt lat="59.4946247" lon="31.1289547">
<ele>57.859997</ele>
<time>2026-08-31T23:19:56.000Z</time>
</trkpt>
<trkpt lat="59.4945803" lon="31.1290675">
<ele>58.570004</ele>
<time>2026-08-31T23:20:14.000Z</time>
</trkpt>
<trkpt lat="59.4945258" lon="31.1291267">
<ele>59.439999</ele>
<time>2026-08-31T23:20:37.000Z</time>
</trkpt>
<trkpt lat="59.4944482" lon="31.1291164">
<ele>58.650002</ele>
<time>2026-08-31T23:20:56.000Z</time>
</trkpt>
<trkpt lat="59.4944047" lon="31.1292377">
<ele>57.320000</ele>
<time>2026-08-31T23:21:17.000Z</time>
</trkpt>
<trkpt lat="59.4943302" lon="31.1293323">
<ele>57.369999</ele>
<time>2026-08-31T23:21:33.000Z</time>
</trkpt>
<trkpt lat="59.4943299" lon="31.1294147">
<ele>57.310001</ele>
<time>2026-08-31T23:21:55.000Z</time>
</trkpt>
<trkpt lat="59.4943849" lon="31.1294665">
<ele>57.280003</ele>
<time>2026-08-31T23:22:21.000Z</time>
</trkpt>
<trkpt lat="59.4943989" lon="31.1294669">
<ele>56.239998</ele>
<time>2026-08-31T23:22:51.000Z</time>
</trkpt>
<trkpt lat="59.4943708" lon="31.1295447">
<ele>51.609997</ele>
<time>2026-08-31T23:23:22.000Z</time>
</trkpt>
<trkpt lat="59.4943629" lon="31.1294815">
<ele>51.190002</ele>
<time>2026-08-31T23:23:49.000Z</time>
</trkpt>
<trkpt lat="59.4943573" lon="31.1295250">
<ele>52.669998</ele>
<time>2026-08-31T23:24:16.000Z</time>
</trkpt>
<trkpt lat="59.4942308" lon="31.1294793">
<ele>52.309998</ele>
<time>2026-08-31T23:24:41.000Z</time>
</trkpt>
<trkpt lat="59.4941758" lon="31.1294093">
<ele>53.260002</ele>
<time>2026-08-31T23:25:05.000Z</time>
</trkpt>
<trkpt lat="59.4941473" lon="31.1294457">
<ele>53.750000</ele>
<time>2026-08-31T23:25:30.000Z</time>
</trkpt>
<trkpt lat="59.4941381" lon="31.1294588">
<ele>53.770000</ele>
<time>2026-08-31T23:25:34.000Z</time>
</trkpt>
<trkpt lat="59.4940492" lon="31.1295947">
<ele>53.599998</ele>
<time>2026-08-31T23:25:57.000Z</time>
</trkpt>
<trkpt lat="59.4939375" lon="31.1297561">
<ele>53.579998</ele>
<time>2026-08-31T23:26:21.000Z</time>
</trkpt>
<trkpt lat="59.4939093" lon="31.1298030">
<ele>53.560001</ele>
<time>2026-08-31T23:26:27.000Z</time>
</trkpt>
<trkpt lat="59.4938328" lon="31.1298940">
<ele>53.599998</ele>
<time>2026-08-31T23:26:47.000Z</time>
</trkpt>
<trkpt lat="59.4937151" lon="31.1301474">
<ele>53.610001</ele>
<time>2026-08-31T23:27:11.000Z</time>
</trkpt>
<trkpt lat="59.4935767" lon="31.1303350">
<ele>52.590000</ele>
<time>2026-08-31T23:27:32.000Z</time>
</trkpt>
<trkpt lat="59.4934927" lon="31.1305381">
<ele>51.299999</ele>
<time>2026-08-31T23:27:53.000Z</time>
</trkpt>
<trkpt lat="59.4934059" lon="31.1307116">
<ele>50.529999</ele>
<time>2026-08-31T23:28:12.000Z</time>
</trkpt>
<trkpt lat="59.4933489" lon="31.1308187">
<ele>50.450001</ele>
<time>2026-08-31T23:28:27.000Z</time>
</trkpt>
<trkpt lat="59.4933219" lon="31.1308302">
<ele>50.200001</ele>
<time>2026-08-31T23:28:31.000Z</time>
</trkpt>
<trkpt lat="59.4932838" lon="31.1309310">
<ele>49.740002</ele>
<time>2026-08-31T23:28:55.000Z</time>
</trkpt>
<trkpt lat="59.4932665" lon="31.1309611">
<ele>50.290001</ele>
<time>2026-08-31T23:29:00.000Z</time>
</trkpt>
<trkpt lat="59.4931777" lon="31.1310459">
<ele>53.959999</ele>
<time>2026-08-31T23:29:36.000Z</time>
</trkpt>
<trkpt lat="59.4932162" lon="31.1311038">
<ele>53.500000</ele>
<time>2026-08-31T23:30:09.000Z</time>
</trkpt>
<trkpt lat="59.4932214" lon="31.1310493">
<ele>53.049999</ele>
<time>2026-08-31T23:30:38.000Z</time>
</trkpt>
<trkpt lat="59.4931898" lon="31.1310772">
<ele>54.199997</ele>
<time>2026-08-31T23:31:07.000Z</time>
</trkpt>
<trkpt lat="59.4931642" lon="31.1310554">
<ele>55.320000</ele>
<time>2026-08-31T23:31:36.000Z</time>
</trkpt>
<trkpt lat="59.4931785" lon="31.1310311">
<ele>56.360001</ele>
<time>2026-08-31T23:32:02.000Z</time>
</trkpt>
<trkpt lat="59.4931605" lon="31.1311113">
<ele>55.169998</ele>
<time>2026-08-31T23:32:26.000Z</time>
</trkpt>
<trkpt lat="59.4930930" lon="31.1311842">
<ele>54.380001</ele>
<time>2026-08-31T23:32:51.000Z</time>
</trkpt>
<trkpt lat="59.4930333" lon="31.1312801">
<ele>54.180000</ele>
<time>2026-08-31T23:33:06.000Z</time>
</trkpt>
<trkpt lat="59.4929311" lon="31.1314631">
<ele>53.690002</ele>
<time>2026-08-31T23:33:30.000Z</time>
</trkpt>
<trkpt lat="59.4928509" lon="31.1316292">
<ele>53.299999</ele>
<time>2026-08-31T23:33:52.000Z</time>
</trkpt>
<trkpt lat="59.4928018" lon="31.1316484">
<ele>53.310001</ele>
<time>2026-08-31T23:34:02.000Z</time>
</trkpt>
<trkpt lat="59.4927342" lon="31.1318360">
<ele>53.470001</ele>
<time>2026-08-31T23:34:25.000Z</time>
</trkpt>
<trkpt lat="59.4927303" lon="31.1318446">
<ele>53.460003</ele>
<time>2026-08-31T23:34:26.000Z</time>
</trkpt>
<trkpt lat="59.4926554" lon="31.1319829">
<ele>54.230003</ele>
<time>2026-08-31T23:34:51.000Z</time>
</trkpt>
<trkpt lat="59.4925802" lon="31.1320572">
<ele>54.660000</ele>
<time>2026-08-31T23:35:15.000Z</time>
</trkpt>
<trkpt lat="59.4925352" lon="31.1322088">
<ele>54.139999</ele>
<time>2026-08-31T23:35:35.000Z</time>
</trkpt>
<trkpt lat="59.4925007" lon="31.1322600">
<ele>54.330002</ele>
<time>2026-08-31T23:35:44.000Z</time>
</trkpt>
<trkpt lat="59.4924035" lon="31.1323974">
<ele>54.220001</ele>
<time>2026-08-31T23:36:10.000Z</time>
</trkpt>
<trkpt lat="59.4923312" lon="31.1325576">
<ele>54.160000</ele>
<time>2026-08-31T23:36:32.000Z</time>
</trkpt>
<trkpt lat="59.4922853" lon="31.1326819">
<ele>54.049999</ele>
<time>2026-08-31T23:36:57.000Z</time>
</trkpt>
<trkpt lat="59.4921799" lon="31.1328458">
<ele>53.850002</ele>
<time>2026-08-31T23:37:17.000Z</time>
</trkpt>
<trkpt lat="59.4921628" lon="31.1329293">
<ele>53.770000</ele>
<time>2026-08-31T23:37:43.000Z</time>
</trkpt>
<trkpt lat="59.4920883" lon="31.1329311">
<ele>53.360001</ele>
<time>2026-08-31T23:38:09.000Z</time>
</trkpt>
<trkpt lat="59.4921036" lon="31.1330029">
<ele>53.770000</ele>
<time>2026-08-31T23:38:35.000Z</time>
</trkpt>
<trkpt lat="59.4920953" lon="31.1329637">
<ele>53.850002</ele>
<time>2026-08-31T23:39:08.000Z</time>
</trkpt>
<trkpt lat="59.4920787" lon="31.1330789">
<ele>52.880001</ele>
<time>2026-08-31T23:39:36.000Z</time>
</trkpt>
<trkpt lat="59.4921047" lon="31.1329898">
<ele>52.170002</ele>
<time>2026-08-31T23:40:08.000Z</time>
</trkpt>
<trkpt lat="59.4920853" lon="31.1330353">
<ele>51.999996</ele>
<time>2026-08-31T23:40:23.000Z</time>
</trkpt>
<trkpt lat="59.4920042" lon="31.1331972">
<ele>52.079998</ele>
<time>2026-08-31T23:40:45.000Z</time>
</trkpt>
<trkpt lat="59.4919016" lon="31.1333303">
<ele>52.079998</ele>
<time>2026-08-31T23:41:09.000Z</time>
</trkpt>
<trkpt lat="59.4918179" lon="31.1335127">
<ele>52.090000</ele>
<time>2026-08-31T23:41:30.000Z</time>
</trkpt>
<trkpt lat="59.4917766" lon="31.1335713">
<ele>52.110001</ele>
<time>2026-08-31T23:41:37.000Z</time>
</trkpt>
<trkpt lat="59.4916998" lon="31.1337575">
<ele>51.500000</ele>
<time>2026-08-31T23:42:00.000Z</time>
</trkpt>
<trkpt lat="59.4916035" lon="31.1339121">
<ele>51.200001</ele>
<time>2026-08-31T23:42:26.000Z</time>
</trkpt>
<trkpt lat="59.4914768" lon="31.1340474">
<ele>51.660000</ele>
<time>2026-08-31T23:42:49.000Z</time>
</trkpt>
<trkpt lat="59.4914103" lon="31.1341769">
<ele>52.219997</ele>
<time>2026-08-31T23:43:08.000Z</time>
</trkpt>
<trkpt lat="59.4913339" lon="31.1343750">
<ele>51.849998</ele>
<time>2026-08-31T23:43:30.000Z</time>
</trkpt>
<trkpt lat="59.4913183" lon="31.1344210">
<ele>52.139999</ele>
<time>2026-08-31T23:43:38.000Z</time>
</trkpt>
<trkpt lat="59.4912110" lon="31.1345944">
<ele>52.869999</ele>
<time>2026-08-31T23:43:59.000Z</time>
</trkpt>
<trkpt lat="59.4910595" lon="31.1347863">
<ele>52.279999</ele>
<time>2026-08-31T23:44:22.000Z</time>
</trkpt>
<trkpt lat="59.4909762" lon="31.1349123">
<ele>48.499996</ele>
<time>2026-08-31T23:44:47.000Z</time>
</trkpt>
<trkpt lat="59.4910374" lon="31.1349110">
<ele>47.250000</ele>
<time>2026-08-31T23:45:18.000Z</time>
</trkpt>
<trkpt lat="59.4910275" lon="31.1349386">
<ele>48.639999</ele>
<time>2026-08-31T23:45:47.000Z</time>
</trkpt>
<trkpt lat="59.4910787" lon="31.1349119">
<ele>48.890003</ele>
<time>2026-08-31T23:46:17.000Z</time>
</trkpt>
<trkpt lat="59.4909966" lon="31.1350348">
<ele>49.230000</ele>
<time>2026-08-31T23:46:41.000Z</time>
</trkpt>
<trkpt lat="59.4909178" lon="31.1351691">
<ele>48.529999</ele>
<time>2026-08-31T23:47:05.000Z</time>
</trkpt>
<trkpt lat="59.4908658" lon="31.1352386">
<ele>48.290001</ele>
<time>2026-08-31T23:47:16.000Z</time>
</trkpt>
<trkpt lat="59.4907821" lon="31.1353776">
<ele>49.209999</ele>
<time>2026-08-31T23:47:38.000Z</time>
</trkpt>
<trkpt lat="59.4907028" lon="31.1355273">
<ele>49.369999</ele>
<time>2026-08-31T23:47:54.000Z</time>
</trkpt>
<trkpt lat="59.4906050" lon="31.1356442">
<ele>49.440002</ele>
<time>2026-08-31T23:48:11.000Z</time>
</trkpt>
<trkpt lat="59.4905310" lon="31.1358555">
<ele>49.469997</ele>
<time>2026-08-31T23:48:32.000Z</time>
</trkpt>
<trkpt lat="59.4904558" lon="31.1360450">
<ele>49.700001</ele>
<time>2026-08-31T23:48:54.000Z</time>
</trkpt>
<trkpt lat="59.4903511" lon="31.1361528">
<ele>49.719997</ele>
<time>2026-08-31T23:49:16.000Z</time>
</trkpt>
<trkpt lat="59.4903381" lon="31.1361957">
<ele>49.750000</ele>
<time>2026-08-31T23:49:22.000Z</time>
</trkpt>
<trkpt lat="59.4901962" lon="31.1363892">
<ele>50.660000</ele>
<time>2026-08-31T23:49:46.000Z</time>
</trkpt>
<trkpt lat="59.4900808" lon="31.1365838">
<ele>50.549999</ele>
<time>2026-08-31T23:50:03.000Z</time>
</trkpt>
<trkpt lat="59.4899963" lon="31.1367881">
<ele>51.799999</ele>
<time>2026-08-31T23:50:25.000Z</time>
</trkpt>
<trkpt lat="59.4899005" lon="31.1369690">
<ele>52.130001</ele>
<time>2026-08-31T23:50:41.000Z</time>
</trkpt>
<trkpt lat="59.4897829" lon="31.1371440">
<ele>52.439999</ele>
<time>2026-08-31T23:50:56.000Z</time>
</trkpt>
<trkpt lat="59.4897145" lon="31.1372643">
<ele>51.669998</ele>
<time>2026-08-31T23:51:12.000Z</time>
</trkpt>
<trkpt lat="59.4897093" lon="31.1372208">
<ele>52.739998</ele>
<time>2026-08-31T23:51:41.000Z</time>
</trkpt>
<trkpt lat="59.4896885" lon="31.1372047">
<ele>52.930000</ele>
<time>2026-08-31T23:52:01.000Z</time>
</trkpt>
<trkpt lat="59.4897183" lon="31.1372988">
<ele>52.070000</ele>
<time>2026-08-31T23:52:27.000Z</time>
</trkpt>
<trkpt lat="59.4897488" lon="31.1373349">
<ele>50.619999</ele>
<time>2026-08-31T23:52:54.000Z</time>
</trkpt>
<trkpt lat="59.4897088" lon="31.1373437">
<ele>51.079998</ele>
<time>2026-08-31T23:53:27.000Z</time>
</trkpt>
<trkpt lat="59.4897528" lon="31.1373014">
<ele>52.059998</ele>
<time>2026-08-31T23:53:55.000Z</time>
</trkpt>
<trkpt lat="59.4897166" lon="31.1373205">
<ele>52.860001</ele>
<time>2026-08-31T23:54:26.000Z</time>
</trkpt>
<trkpt lat="59.4897259" lon="31.1373321">
<ele>54.470001</ele>
<time>2026-08-31T23:55:09.000Z</time>
</trkpt>
<trkpt lat="59.4897379" lon="31.1373321">
<ele>55.619999</ele>
<time>2026-08-31T23:55:43.000Z</time>
</trkpt>
<trkpt lat="59.4896953" lon="31.1373785">
<ele>55.549999</ele>
<time>2026-08-31T23:56:12.000Z</time>
</trkpt>
<trkpt lat="59.4896010" lon="31.1375303">
<ele>55.730000</ele>
<time>2026-08-31T23:56:32.000Z</time>
</trkpt>
<trkpt lat="59.4895245" lon="31.1377027">
<ele>55.099998</ele>
<time>2026-08-31T23:56:54.000Z</time>
</trkpt>
<trkpt lat="59.4894319" lon="31.1378275">
<ele>54.669998</ele>
<time>2026-08-31T23:57:10.000Z</time>
</trkpt>
<trkpt lat="59.4893488" lon="31.1379494">
<ele>54.860001</ele>
<time>2026-08-31T23:57:29.000Z</time>
</trkpt>
<trkpt lat="59.4893092" lon="31.1381006">
<ele>54.400002</ele>
<time>2026-08-31T23:57:49.000Z</time>
</trkpt>
<trkpt lat="59.4891856" lon="31.1382510">
<ele>54.400002</ele>
<time>2026-08-31T23:58:11.000Z</time>
</trkpt>
<trkpt lat="59.4890811" lon="31.1384110">
<ele>54.370003</ele>
<time>2026-08-31T23:58:34.000Z</time>
</trkpt>
<trkpt lat="59.4889596" lon="31.1385739">
<ele>54.259998</ele>
<time>2026-08-31T23:58:55.000Z</time>
</trkpt>
<trkpt lat="59.4888719" lon="31.1387348">
<ele>54.040001</ele>
<time>2026-08-31T23:59:16.000Z</time>
</trkpt>
<trkpt lat="59.4888002" lon="31.1388927">
<ele>52.240002</ele>
<time>2026-08-31T23:59:36.000Z</time>
</trkpt>
<trkpt lat="59.4886976" lon="31.1390637">
<ele>50.360001</ele>
<time>2026-08-31T23:59:58.000Z</time>
</trkpt>
<trkpt lat="59.4886484" lon="31.1391460">
<ele>49.970001</ele>
<time>2026-09-01T00:00:20.000Z</time>
</trkpt>
<trkpt lat="59.4886386" lon="31.1391608">
<ele>49.919998</ele>
<time>2026-09-01T00:00:23.000Z</time>
</trkpt>
<trkpt lat="59.4886264" lon="31.1391910">
<ele>51.030003</ele>
<time>2026-09-01T00:00:53.000Z</time>
</trkpt>
<trkpt lat="59.4886255" lon="31.1391838">
<ele>51.699997</ele>
<time>2026-09-01T00:01:23.000Z</time>
</trkpt>
<trkpt lat="59.4886960" lon="31.1391765">
<ele>53.700001</ele>
<time>2026-09-01T00:01:52.000Z</time>
</trkpt>
<trkpt lat="59.4887648" lon="31.1392166">
<ele>56.789997</ele>
<time>2026-09-01T00:02:22.000Z</time>
</trkpt>
<trkpt lat="59.4887469" lon="31.1392563">
<ele>56.630001</ele>
<time>2026-09-01T00:02:44.000Z</time>
</trkpt>
<trkpt lat="59.4888179" lon="31.1392854">
<ele>56.529999</ele>
<time>2026-09-01T00:03:06.000Z</time>
</trkpt>
<trkpt lat="59.4888801" lon="31.1394237">
<ele>56.970001</ele>
<time>2026-09-01T00:03:23.000Z</time>
</trkpt>
<trkpt lat="59.4889068" lon="31.1394884">
<ele>56.779999</ele>
<time>2026-09-01T00:03:35.000Z</time>
</trkpt>
<trkpt lat="59.4890054" lon="31.1396863">
<ele>56.960003</ele>
<time>2026-09-01T00:03:53.000Z</time>
</trkpt>
<trkpt lat="59.4890848" lon="31.1397961">
<ele>56.430000</ele>
<time>2026-09-01T00:04:06.000Z</time>
</trkpt>
<trkpt lat="59.4891739" lon="31.1400481">
<ele>53.690002</ele>
<time>2026-09-01T00:04:29.000Z</time>
</trkpt>
<trkpt lat="59.4892676" lon="31.1401293">
<ele>52.369999</ele>
<time>2026-09-01T00:04:49.000Z</time>
</trkpt>
<trkpt lat="59.4893431" lon="31.1402944">
<ele>51.009998</ele>
<time>2026-09-01T00:05:14.000Z</time>
</trkpt>
<trkpt lat="59.4894303" lon="31.1403898">
<ele>50.849998</ele>
<time>2026-09-01T00:05:34.000Z</time>
</trkpt>
<trkpt lat="59.4895072" lon="31.1404867">
<ele>53.829998</ele>
<time>2026-09-01T00:06:01.000Z</time>
</trkpt>
<trkpt lat="59.4896070" lon="31.1406217">
<ele>53.010002</ele>
<time>2026-09-01T00:06:26.000Z</time>
</trkpt>
<trkpt lat="59.4896492" lon="31.1407886">
<ele>53.360001</ele>
<time>2026-09-01T00:06:48.000Z</time>
</trkpt>
<trkpt lat="59.4896852" lon="31.1409274">
<ele>52.720001</ele>
<time>2026-09-01T00:07:06.000Z</time>
</trkpt>
<trkpt lat="59.4897497" lon="31.1410633">
<ele>52.739998</ele>
<time>2026-09-01T00:07:23.000Z</time>
</trkpt>
<trkpt lat="59.4898246" lon="31.1412552">
<ele>51.330002</ele>
<time>2026-09-01T00:07:42.000Z</time>
</trkpt>
<trkpt lat="59.4898972" lon="31.1412491">
<ele>50.680000</ele>
<time>2026-09-01T00:08:02.000Z</time>
</trkpt>
<trkpt lat="59.4899385" lon="31.1412711">
<ele>50.910000</ele>
<time>2026-09-01T00:08:29.000Z</time>
</trkpt>
<trkpt lat="59.4899193" lon="31.1412434">
<ele>56.150002</ele>
<time>2026-09-01T00:09:04.000Z</time>
</trkpt>
<trkpt lat="59.4899461" lon="31.1412926">
<ele>53.940002</ele>
<time>2026-09-01T00:09:44.000Z</time>
</trkpt>
<trkpt lat="59.4899253" lon="31.1411442">
<ele>52.799999</ele>
<time>2026-09-01T00:10:15.000Z</time>
</trkpt>
<trkpt lat="59.4899792" lon="31.1410967">
<ele>52.509998</ele>
<time>2026-09-01T00:10:36.000Z</time>
</trkpt>
<trkpt lat="59.4900919" lon="31.1410717">
<ele>51.959999</ele>
<time>2026-09-01T00:10:57.000Z</time>
</trkpt>
<trkpt lat="59.4901206" lon="31.1410301">
<ele>51.720001</ele>
<time>2026-09-01T00:11:16.000Z</time>
</trkpt>
<trkpt lat="59.4901947" lon="31.1409407">
<ele>52.289997</ele>
<time>2026-09-01T00:11:36.000Z</time>
</trkpt>
<trkpt lat="59.4902584" lon="31.1408486">
<ele>51.619999</ele>
<time>2026-09-01T00:11:57.000Z</time>
</trkpt>
<trkpt lat="59.4903590" lon="31.1407419">
<ele>52.149998</ele>
<time>2026-09-01T00:12:20.000Z</time>
</trkpt>
<trkpt lat="59.4904376" lon="31.1405357">
<ele>51.929996</ele>
<time>2026-09-01T00:12:42.000Z</time>
</trkpt>
<trkpt lat="59.4904927" lon="31.1403512">
<ele>52.330002</ele>
<time>2026-09-01T00:13:01.000Z</time>
</trkpt>
<trkpt lat="59.4905358" lon="31.1402416">
<ele>53.029999</ele>
<time>2026-09-01T00:13:19.000Z</time>
</trkpt>
<trkpt lat="59.4904761" lon="31.1403755">
<ele>53.519997</ele>
<time>2026-09-01T00:13:50.000Z</time>
</trkpt>
<trkpt lat="59.4905035" lon="31.1403861">
<ele>53.260002</ele>
<time>2026-09-01T00:14:21.000Z</time>
</trkpt>
<trkpt lat="59.4905472" lon="31.1403777">
<ele>54.639999</ele>
<time>2026-09-01T00:14:47.000Z</time>
</trkpt>
<trkpt lat="59.4906100" lon="31.1402417">
<ele>54.750004</ele>
<time>2026-09-01T00:15:12.000Z</time>
</trkpt>
<trkpt lat="59.4906554" lon="31.1401115">
<ele>54.020000</ele>
<time>2026-09-01T00:15:31.000Z</time>
</trkpt>
<trkpt lat="59.4907816" lon="31.1399633">
<ele>54.080002</ele>
<time>2026-09-01T00:15:54.000Z</time>
</trkpt>
<trkpt lat="59.4908929" lon="31.1398097">
<ele>54.460003</ele>
<time>2026-09-01T00:16:15.000Z</time>
</trkpt>
<trkpt lat="59.4909561" lon="31.1397538">
<ele>55.520000</ele>
<time>2026-09-01T00:16:34.000Z</time>
</trkpt>
<trkpt lat="59.4910266" lon="31.1396321">
<ele>55.440002</ele>
<time>2026-09-01T00:16:54.000Z</time>
</trkpt>
<trkpt lat="59.4911058" lon="31.1395168">
<ele>54.830002</ele>
<time>2026-09-01T00:17:12.000Z</time>
</trkpt>
<trkpt lat="59.4912050" lon="31.1393204">
<ele>54.189999</ele>
<time>2026-09-01T00:17:35.000Z</time>
</trkpt>
<trkpt lat="59.4912084" lon="31.1392217">
<ele>54.099998</ele>
<time>2026-09-01T00:18:00.000Z</time>
</trkpt>
<trkpt lat="59.4912400" lon="31.1391708">
<ele>51.200001</ele>
<time>2026-09-01T00:18:26.000Z</time>
</trkpt>
<trkpt lat="59.4912253" lon="31.1391633">
<ele>51.560001</ele>
<time>2026-09-01T00:18:54.000Z</time>
</trkpt>
<trkpt lat="59.4912576" lon="31.1391977">
<ele>50.490002</ele>
<time>2026-09-01T00:19:27.000Z</time>
</trkpt>
<trkpt lat="59.4912285" lon="31.1391760">
<ele>51.079998</ele>
<time>2026-09-01T00:19:58.000Z</time>
</trkpt>
<trkpt lat="59.4912514" lon="31.1391291">
<ele>52.650002</ele>
<time>2026-09-01T00:20:27.000Z</time>
</trkpt>
<trkpt lat="59.4912457" lon="31.1390502">
<ele>51.400002</ele>
<time>2026-09-01T00:20:53.000Z</time>
</trkpt>
<trkpt lat="59.4912662" lon="31.1390844">
<ele>51.250004</ele>
<time>2026-09-01T00:21:19.000Z</time>
</trkpt>
<trkpt lat="59.4912446" lon="31.1390594">
<ele>51.799999</ele>
<time>2026-09-01T00:21:46.000Z</time>
</trkpt>
<trkpt lat="59.4912847" lon="31.1391281">
<ele>53.669998</ele>
<time>2026-09-01T00:22:15.000Z</time>
</trkpt>
<trkpt lat="59.4912910" lon="31.1391555">
<ele>54.160000</ele>
<time>2026-09-01T00:22:23.000Z</time>
</trkpt>
<trkpt lat="59.4912742" lon="31.1391010">
<ele>54.070004</ele>
<time>2026-09-01T00:22:45.000Z</time>
</trkpt>
<trkpt lat="59.4913325" lon="31.1390004">
<ele>54.090000</ele>
<time>2026-09-01T00:23:06.000Z</time>
</trkpt>
<trkpt lat="59.4914025" lon="31.1389096">
<ele>54.220001</ele>
<time>2026-09-01T00:23:25.000Z</time>
</trkpt>
<trkpt lat="59.4915200" lon="31.1388474">
<ele>54.760002</ele>
<time>2026-09-01T00:23:44.000Z</time>
</trkpt>
<trkpt lat="59.4916009" lon="31.1388042">
<ele>55.020000</ele>
<time>2026-09-01T00:24:04.000Z</time>
</trkpt>
<trkpt lat="59.4917021" lon="31.1387461">
<ele>55.039997</ele>
<time>2026-09-01T00:24:24.000Z</time>
</trkpt>
<trkpt lat="59.4917327" lon="31.1387307">
<ele>54.910004</ele>
<time>2026-09-01T00:24:33.000Z</time>
</trkpt>
<trkpt lat="59.4918483" lon="31.1386016">
<ele>55.320000</ele>
<time>2026-09-01T00:24:54.000Z</time>
</trkpt>
<trkpt lat="59.4919223" lon="31.1385360">
<ele>55.110001</ele>
<time>2026-09-01T00:25:07.000Z</time>
</trkpt>
<trkpt lat="59.4919891" lon="31.1383927">
<ele>55.029999</ele>
<time>2026-09-01T00:25:27.000Z</time>
</trkpt>
<trkpt lat="59.4920502" lon="31.1382475">
<ele>54.739998</ele>
<time>2026-09-01T00:25:42.000Z</time>
</trkpt>
<trkpt lat="59.4921056" lon="31.1381278">
<ele>55.049999</ele>
<time>2026-09-01T00:26:03.000Z</time>
</trkpt>
<trkpt lat="59.4921792" lon="31.1380550">
<ele>55.509998</ele>
<time>2026-09-01T00:26:24.000Z</time>
</trkpt>
<trkpt lat="59.4922567" lon="31.1379454">
<ele>55.779999</ele>
<time>2026-09-01T00:26:46.000Z</time>
</trkpt>
<trkpt lat="59.4923236" lon="31.1379146">
<ele>56.830002</ele>
<time>2026-09-01T00:26:59.000Z</time>
</trkpt>
<trkpt lat="59.4923851" lon="31.1378619">
<ele>57.450001</ele>
<time>2026-09-01T00:27:15.000Z</time>
</trkpt>
<trkpt lat="59.4924320" lon="31.1378286">
<ele>57.430000</ele>
<time>2026-09-01T00:27:23.000Z</time>
</trkpt>
<trkpt lat="59.4924443" lon="31.1377777">
<ele>58.989998</ele>
<time>2026-09-01T00:27:53.000Z</time>
</trkpt>
<trkpt lat="59.4924728" lon="31.1377886">
<ele>60.279999</ele>
<time>2026-09-01T00:28:22.000Z</time>
</trkpt>
<trkpt lat="59.4924759" lon="31.1377971">
<ele>59.049999</ele>
<time>2026-09-01T00:28:48.000Z</time>
</trkpt>
<trkpt lat="59.4924415" lon="31.1378029">
<ele>58.790001</ele>
<time>2026-09-01T00:29:16.000Z</time>
</trkpt>
<trkpt lat="59.4924449" lon="31.1377054">
<ele>60.309998</ele>
<time>2026-09-01T00:29:44.000Z</time>
</trkpt>
<trkpt lat="59.4924956" lon="31.1376486">
<ele>60.730000</ele>
<time>2026-09-01T00:30:13.000Z</time>
</trkpt>
<trkpt lat="59.4924741" lon="31.1376355">
<ele>62.779999</ele>
<time>2026-09-01T00:30:47.000Z</time>
</trkpt>
<trkpt lat="59.4924302" lon="31.1376934">
<ele>60.379997</ele>
<time>2026-09-01T00:31:21.000Z</time>
</trkpt>
<trkpt lat="59.4925045" lon="31.1376578">
<ele>58.469997</ele>
<time>2026-09-01T00:31:43.000Z</time>
</trkpt>
<trkpt lat="59.4926158" lon="31.1376446">
<ele>58.260002</ele>
<time>2026-09-01T00:32:03.000Z</time>
</trkpt>
<trkpt lat="59.4926757" lon="31.1376510">
<ele>58.060001</ele>
<time>2026-09-01T00:32:14.000Z</time>
</trkpt>
<trkpt lat="59.4927972" lon="31.1376605">
<ele>56.489998</ele>
<time>2026-09-01T00:32:30.000Z</time>
</trkpt>
<trkpt lat="59.4929119" lon="31.1376640">
<ele>56.590000</ele>
<time>2026-09-01T00:32:47.000Z</time>
</trkpt>
<trkpt lat="59.4930226" lon="31.1376986">
<ele>57.280003</ele>
<time>2026-09-01T00:33:06.000Z</time>
</trkpt>
<trkpt lat="59.4931174" lon="31.1376931">
<ele>57.020000</ele>
<time>2026-09-01T00:33:23.000Z</time>
</trkpt>
<trkpt lat="59.4932070" lon="31.1377244">
<ele>57.290001</ele>
<time>2026-09-01T00:33:41.000Z</time>
</trkpt>
<trkpt lat="59.4932860" lon="31.1375994">
<ele>58.149998</ele>
<time>2026-09-01T00:33:59.000Z</time>
</trkpt>
<trkpt lat="59.4932895" lon="31.1375889">
<ele>58.320000</ele>
<time>2026-09-01T00:34:02.000Z</time>
</trkpt>
<trkpt lat="59.4933432" lon="31.1375018">
<ele>58.049999</ele>
<time>2026-09-01T00:34:20.000Z</time>
</trkpt>
<trkpt lat="59.4934009" lon="31.1373732">
<ele>59.180000</ele>
<time>2026-09-01T00:34:40.000Z</time>
</trkpt>
<trkpt lat="59.4934644" lon="31.1373144">
<ele>60.250000</ele>
<time>2026-09-01T00:34:58.000Z</time>
</trkpt>
<trkpt lat="59.4934771" lon="31.1373873">
<ele>61.679996</ele>
<time>2026-09-01T00:35:22.000Z</time>
</trkpt>
<trkpt lat="59.4934635" lon="31.1375026">
<ele>61.200001</ele>
<time>2026-09-01T00:35:38.000Z</time>
</trkpt>
<trkpt lat="59.4934658" lon="31.1376633">
<ele>60.299999</ele>
<time>2026-09-01T00:35:56.000Z</time>
</trkpt>
<trkpt lat="59.4934735" lon="31.1376907">
<ele>60.189999</ele>
<time>2026-09-01T00:36:03.000Z</time>
</trkpt>
<trkpt lat="59.4935099" lon="31.1376585">
<ele>59.919998</ele>
<time>2026-09-01T00:36:26.000Z</time>
</trkpt>
<trkpt lat="59.4934965" lon="31.1374606">
<ele>59.619999</ele>
<time>2026-09-01T00:36:50.000Z</time>
</trkpt>
<trkpt lat="59.4935629" lon="31.1373231">
<ele>58.350002</ele>
<time>2026-09-01T00:37:09.000Z</time>
</trkpt>
<trkpt lat="59.4936213" lon="31.1371828">
<ele>57.399998</ele>
<time>2026-09-01T00:37:28.000Z</time>
</trkpt>
<trkpt lat="59.4936931" lon="31.1369870">
<ele>55.760002</ele>
<time>2026-09-01T00:37:48.000Z</time>
</trkpt>
<trkpt lat="59.4937367" lon="31.1368019">
<ele>54.509998</ele>
<time>2026-09-01T00:38:09.000Z</time>
</trkpt>
<trkpt lat="59.4937802" lon="31.1366588">
<ele>53.860001</ele>
<time>2026-09-01T00:38:31.000Z</time>
</trkpt>
<trkpt lat="59.4938814" lon="31.1365446">
<ele>53.630001</ele>
<time>2026-09-01T00:38:51.000Z</time>
</trkpt>
<trkpt lat="59.4939130" lon="31.1364266">
<ele>53.950001</ele>
<time>2026-09-01T00:39:16.000Z</time>
</trkpt>
<trkpt lat="59.4939534" lon="31.1364170">
<ele>53.419998</ele>
<time>2026-09-01T00:39:24.000Z</time>
</trkpt>
<trkpt lat="59.4939483" lon="31.1363033">
<ele>53.639999</ele>
<time>2026-09-01T00:39:57.000Z</time>
</trkpt>
<trkpt lat="59.4939375" lon="31.1363303">
<ele>57.239998</ele>
<time>2026-09-01T00:40:25.000Z</time>
</trkpt>
<trkpt lat="59.4939655" lon="31.1363450">
<ele>59.299999</ele>
<time>2026-09-01T00:41:08.000Z</time>
</trkpt>
<trkpt lat="59.4940232" lon="31.1362094">
<ele>59.480003</ele>
<time>2026-09-01T00:41:28.000Z</time>
</trkpt>
<trkpt lat="59.4940892" lon="31.1360804">
<ele>59.379997</ele>
<time>2026-09-01T00:41:51.000Z</time>
</trkpt>
<trkpt lat="59.4941439" lon="31.1361300">
<ele>59.079998</ele>
<time>2026-09-01T00:42:10.000Z</time>
</trkpt>
<trkpt lat="59.4941295" lon="31.1360927">
<ele>58.139999</ele>
<time>2026-09-01T00:42:25.000Z</time>
</trkpt>
<trkpt lat="59.4941532" lon="31.1359311">
<ele>58.090000</ele>
<time>2026-09-01T00:42:45.000Z</time>
</trkpt>
<trkpt lat="59.4942033" lon="31.1359048">
<ele>59.350002</ele>
<time>2026-09-01T00:43:11.000Z</time>
</trkpt>
<trkpt lat="59.4942403" lon="31.1357644">
<ele>59.190002</ele>
<time>2026-09-01T00:43:33.000Z</time>
</trkpt>
<trkpt lat="59.4942709" lon="31.1355667">
<ele>58.680000</ele>
<time>2026-09-01T00:43:54.000Z</time>
</trkpt>
<trkpt lat="59.4943374" lon="31.1353297">
<ele>58.220001</ele>
<time>2026-09-01T00:44:18.000Z</time>
</trkpt>
<trkpt lat="59.4944154" lon="31.1353117">
<ele>57.169998</ele>
<time>2026-09-01T00:44:45.000Z</time>
</trkpt>
<trkpt lat="59.4943948" lon="31.1354064">
<ele>57.700001</ele>
<time>2026-09-01T00:45:07.000Z</time>
</trkpt>
<trkpt lat="59.4944006" lon="31.1351999">
<ele>58.650002</ele>
<time>2026-09-01T00:45:30.000Z</time>
</trkpt>
<trkpt lat="59.4943812" lon="31.1349992">
<ele>58.360001</ele>
<time>2026-09-01T00:45:53.000Z</time>
</trkpt>
<trkpt lat="59.4944605" lon="31.1349168">
<ele>58.019997</ele>
<time>2026-09-01T00:46:10.000Z</time>
</trkpt>
<trkpt lat="59.4945029" lon="31.1347740">
<ele>58.070000</ele>
<time>2026-09-01T00:46:30.000Z</time>
</trkpt>
<trkpt lat="59.4945568" lon="31.1346834">
<ele>58.009998</ele>
<time>2026-09-01T00:46:49.000Z</time>
</trkpt>
<trkpt lat="59.4946558" lon="31.1347450">
<ele>57.970001</ele>
<time>2026-09-01T00:47:12.000Z</time>
</trkpt>
<trkpt lat="59.4946865" lon="31.1346190">
<ele>58.610001</ele>
<time>2026-09-01T00:47:35.000Z</time>
</trkpt>
<trkpt lat="59.4947519" lon="31.1344883">
<ele>58.709999</ele>
<time>2026-09-01T00:47:54.000Z</time>
</trkpt>
<trkpt lat="59.4947791" lon="31.1345171">
<ele>57.450001</ele>
<time>2026-09-01T00:48:20.000Z</time>
</trkpt>
<trkpt lat="59.4947424" lon="31.1344943">
<ele>57.559998</ele>
<time>2026-09-01T00:48:46.000Z</time>
</trkpt>
<trkpt lat="59.4947234" lon="31.1345082">
<ele>55.930000</ele>
<time>2026-09-01T00:49:21.000Z</time>
</trkpt>
<trkpt lat="59.4947401" lon="31.1344608">
<ele>54.460003</ele>
<time>2026-09-01T00:49:52.000Z</time>
</trkpt>
<trkpt lat="59.4947740" lon="31.1344902">
<ele>56.680000</ele>
<time>2026-09-01T00:50:22.000Z</time>
</trkpt>
<trkpt lat="59.4947403" lon="31.1344795">
<ele>56.180000</ele>
<time>2026-09-01T00:50:49.000Z</time>
</trkpt>
<trkpt lat="59.4948235" lon="31.1343758">
<ele>58.090000</ele>
<time>2026-09-01T00:51:20.000Z</time>
</trkpt>
<trkpt lat="59.4948013" lon="31.1343265">
<ele>58.580002</ele>
<time>2026-09-01T00:51:44.000Z</time>
</trkpt>
<trkpt lat="59.4948172" lon="31.1341879">
<ele>58.329998</ele>
<time>2026-09-01T00:52:07.000Z</time>
</trkpt>
<trkpt lat="59.4948582" lon="31.1340923">
<ele>58.520000</ele>
<time>2026-09-01T00:52:24.000Z</time>
</trkpt>
<trkpt lat="59.4949262" lon="31.1339055">
<ele>58.249996</ele>
<time>2026-09-01T00:52:44.000Z</time>
</trkpt>
<trkpt lat="59.4949329" lon="31.1337201">
<ele>58.410004</ele>
<time>2026-09-01T00:53:03.000Z</time>
</trkpt>
<trkpt lat="59.4950367" lon="31.1335693">
<ele>58.190002</ele>
<time>2026-09-01T00:53:22.000Z</time>
</trkpt>
<trkpt lat="59.4951337" lon="31.1333609">
<ele>57.800003</ele>
<time>2026-09-01T00:53:45.000Z</time>
</trkpt>
<trkpt lat="59.4951551" lon="31.1333420">
<ele>57.689999</ele>
<time>2026-09-01T00:53:49.000Z</time>
</trkpt>
<trkpt lat="59.4952876" lon="31.1332166">
<ele>58.019997</ele>
<time>2026-09-01T00:54:15.000Z</time>
</trkpt>
<trkpt lat="59.4953279" lon="31.1330708">
<ele>58.459999</ele>
<time>2026-09-01T00:54:27.000Z</time>
</trkpt>
<trkpt lat="59.4953500" lon="31.1329363">
<ele>58.490002</ele>
<time>2026-09-01T00:54:45.000Z</time>
</trkpt>
<trkpt lat="59.4953195" lon="31.1328164">
<ele>58.859997</ele>
<time>2026-09-01T00:55:05.000Z</time>
</trkpt>
<trkpt lat="59.4952598" lon="31.1326697">
<ele>59.609997</ele>
<time>2026-09-01T00:55:27.000Z</time>
</trkpt>
<trkpt lat="59.4953251" lon="31.1326782">
<ele>63.329998</ele>
<time>2026-09-01T00:55:57.000Z</time>
</trkpt>
<trkpt lat="59.4953410" lon="31.1326966">
<ele>62.850002</ele>
<time>2026-09-01T00:56:10.000Z</time>
</trkpt>
<trkpt lat="59.4954716" lon="31.1327037">
<ele>62.099998</ele>
<time>2026-09-01T00:56:33.000Z</time>
</trkpt>
<trkpt lat="59.4954923" lon="31.1328689">
<ele>65.599998</ele>
<time>2026-09-01T00:56:58.000Z</time>
</trkpt>
<trkpt lat="59.4954538" lon="31.1327274">
<ele>67.009995</ele>
<time>2026-09-01T00:57:29.000Z</time>
</trkpt>
<trkpt lat="59.4954159" lon="31.1326218">
<ele>67.489998</ele>
<time>2026-09-01T00:57:53.000Z</time>
</trkpt>
<trkpt lat="59.4953949" lon="31.1325638">
<ele>67.549995</ele>
<time>2026-09-01T00:58:21.000Z</time>
</trkpt>
<trkpt lat="59.4954333" lon="31.1324738">
<ele>66.639999</ele>
<time>2026-09-01T00:58:42.000Z</time>
</trkpt>
<trkpt lat="59.4955080" lon="31.1323827">
<ele>65.549995</ele>
<time>2026-09-01T00:59:01.000Z</time>
</trkpt>
<trkpt lat="59.4955349" lon="31.1323285">
<ele>65.650002</ele>
<time>2026-09-01T00:59:10.000Z</time>
</trkpt>
<trkpt lat="59.4956168" lon="31.1321640">
<ele>64.930000</ele>
<time>2026-09-01T00:59:38.000Z</time>
</trkpt>
<trkpt lat="59.4956537" lon="31.1319275">
<ele>64.349998</ele>
<time>2026-09-01T01:00:01.000Z</time>
</trkpt>
<trkpt lat="59.4956416" lon="31.1317974">
<ele>63.730000</ele>
<time>2026-09-01T01:00:25.000Z</time>
</trkpt>
<trkpt lat="59.4957109" lon="31.1315725">
<ele>63.189999</ele>
<time>2026-09-01T01:00:55.000Z</time>
</trkpt>
<trkpt lat="59.4958166" lon="31.1314278">
<ele>62.489998</ele>
<time>2026-09-01T01:01:14.000Z</time>
</trkpt>
<trkpt lat="59.4958579" lon="31.1313157">
<ele>62.869999</ele>
<time>2026-09-01T01:01:34.000Z</time>
</trkpt>
<trkpt lat="59.4959172" lon="31.1312016">
<ele>62.790001</ele>
<time>2026-09-01T01:01:51.000Z</time>
</trkpt>
<trkpt lat="59.4959829" lon="31.1310752">
<ele>64.139999</ele>
<time>2026-09-01T01:02:16.000Z</time>
</trkpt>
<trkpt lat="59.4960365" lon="31.1308925">
<ele>64.209999</ele>
<time>2026-09-01T01:02:42.000Z</time>
</trkpt>
<trkpt lat="59.4961078" lon="31.1307400">
<ele>64.119995</ele>
<time>2026-09-01T01:03:00.000Z</time>
</trkpt>
<trkpt lat="59.4961346" lon="31.1306921">
<ele>64.520004</ele>
<time>2026-09-01T01:03:06.000Z</time>
</trkpt>
<trkpt lat="59.4962482" lon="31.1304952">
<ele>64.879997</ele>
<time>2026-09-01T01:03:28.000Z</time>
</trkpt>
<trkpt lat="59.4963528" lon="31.1304541">
<ele>63.480000</ele>
<time>2026-09-01T01:03:53.000Z</time>
</trkpt>
<trkpt lat="59.4964229" lon="31.1303358">
<ele>62.830002</ele>
<time>2026-09-01T01:04:12.000Z</time>
</trkpt>
<trkpt lat="59.4964931" lon="31.1302157">
<ele>62.349998</ele>
<time>2026-09-01T01:04:30.000Z</time>
</trkpt>
<trkpt lat="59.4965412" lon="31.1300796">
<ele>62.199997</ele>
<time>2026-09-01T01:04:54.000Z</time>
</trkpt>
<trkpt lat="59.4965937" lon="31.1299280">
<ele>61.599998</ele>
<time>2026-09-01T01:05:16.000Z</time>
</trkpt>
<trkpt lat="59.4966382" lon="31.1298094">
<ele>60.930000</ele>
<time>2026-09-01T01:05:40.000Z</time>
</trkpt>
<trkpt lat="59.4966327" lon="31.1298829">
<ele>60.609997</ele>
<time>2026-09-01T01:06:09.000Z</time>
</trkpt>
<trkpt lat="59.4966066" lon="31.1301638">
<ele>62.649998</ele>
<time>2026-09-01T01:06:39.000Z</time>
</trkpt>
<trkpt lat="59.4966455" lon="31.1300408">
<ele>62.119999</ele>
<time>2026-09-01T01:07:15.000Z</time>
</trkpt>
<trkpt lat="59.4966226" lon="31.1300247">
<ele>61.980000</ele>
<time>2026-09-01T01:07:47.000Z</time>
</trkpt>
<trkpt lat="59.4966631" lon="31.1298802">
<ele>60.590000</ele>
<time>2026-09-01T01:08:18.000Z</time>
</trkpt>
<trkpt lat="59.4966693" lon="31.1297247">
<ele>60.680000</ele>
<time>2026-09-01T01:08:41.000Z</time>
</trkpt>
<trkpt lat="59.4967445" lon="31.1296166">
<ele>59.940002</ele>
<time>2026-09-01T01:08:57.000Z</time>
</trkpt>
<trkpt lat="59.4967812" lon="31.1294643">
<ele>59.170002</ele>
<time>2026-09-01T01:09:16.000Z</time>
</trkpt>
<trkpt lat="59.4967997" lon="31.1293520">
<ele>58.960003</ele>
<time>2026-09-01T01:09:29.000Z</time>
</trkpt>
<trkpt lat="59.4968915" lon="31.1291961">
<ele>60.500000</ele>
<time>2026-09-01T01:09:50.000Z</time>
</trkpt>
<trkpt lat="59.4969599" lon="31.1291006">
<ele>61.049999</ele>
<time>2026-09-01T01:10:16.000Z</time>
</trkpt>
<trkpt lat="59.4969736" lon="31.1289690">
<ele>60.689999</ele>
<time>2026-09-01T01:10:38.000Z</time>
</trkpt>
<trkpt lat="59.4969573" lon="31.1287989">
<ele>60.590000</ele>
<time>2026-09-01T01:10:58.000Z</time>
</trkpt>
<trkpt lat="59.4969321" lon="31.1286009">
<ele>59.769997</ele>
<time>2026-09-01T01:11:18.000Z</time>
</trkpt>
<trkpt lat="59.4969854" lon="31.1284942">
<ele>59.520000</ele>
<time>2026-09-01T01:11:44.000Z</time>
</trkpt>
<trkpt lat="59.4970329" lon="31.1283243">
<ele>59.680000</ele>
<time>2026-09-01T01:12:05.000Z</time>
</trkpt>
<trkpt lat="59.4970932" lon="31.1281935">
<ele>58.480000</ele>
<time>2026-09-01T01:12:25.000Z</time>
</trkpt>
<trkpt lat="59.4971236" lon="31.1281279">
<ele>57.900002</ele>
<time>2026-09-01T01:12:45.000Z</time>
</trkpt>
<trkpt lat="59.4971442" lon="31.1281447">
<ele>58.270000</ele>
<time>2026-09-01T01:13:18.000Z</time>
</trkpt>
<trkpt lat="59.4971422" lon="31.1280500">
<ele>58.650002</ele>
<time>2026-09-01T01:13:50.000Z</time>
</trkpt>
<trkpt lat="59.4971284" lon="31.1280378">
<ele>59.790001</ele>
<time>2026-09-01T01:14:22.000Z</time>
</trkpt>
<trkpt lat="59.4972101" lon="31.1279311">
<ele>59.780003</ele>
<time>2026-09-01T01:14:44.000Z</time>
</trkpt>
<trkpt lat="59.4972822" lon="31.1278272">
<ele>59.669998</ele>
<time>2026-09-01T01:15:06.000Z</time>
</trkpt>
<trkpt lat="59.4973257" lon="31.1276705">
<ele>59.790001</ele>
<time>2026-09-01T01:15:26.000Z</time>
</trkpt>
<trkpt lat="59.4973443" lon="31.1275403">
<ele>60.439999</ele>
<time>2026-09-01T01:15:44.000Z</time>
</trkpt>
<trkpt lat="59.4973528" lon="31.1274614">
<ele>60.829998</ele>
<time>2026-09-01T01:16:06.000Z</time>
</trkpt>
<trkpt lat="59.4974092" lon="31.1273324">
<ele>60.739998</ele>
<time>2026-09-01T01:16:26.000Z</time>
</trkpt>
<trkpt lat="59.4974464" lon="31.1271063">
<ele>60.309998</ele>
<time>2026-09-01T01:16:48.000Z</time>
</trkpt>
<trkpt lat="59.4974391" lon="31.1269843">
<ele>60.799999</ele>
<time>2026-09-01T01:17:05.000Z</time>
</trkpt>
<trkpt lat="59.4974718" lon="31.1269441">
<ele>61.799999</ele>
<time>2026-09-01T01:17:32.000Z</time>
</trkpt>
<trkpt lat="59.4975574" lon="31.1268211">
<ele>62.359997</ele>
<time>2026-09-01T01:18:06.000Z</time>
</trkpt>
<trkpt lat="59.4976351" lon="31.1267340">
<ele>61.560001</ele>
<time>2026-09-01T01:18:23.000Z</time>
</trkpt>
<trkpt lat="59.4976908" lon="31.1265976">
<ele>61.090000</ele>
<time>2026-09-01T01:18:43.000Z</time>
</trkpt>
<trkpt lat="59.4977906" lon="31.1265186">
<ele>61.279999</ele>
<time>2026-09-01T01:19:03.000Z</time>
</trkpt>
<trkpt lat="59.4978162" lon="31.1264864">
<ele>62.150002</ele>
<time>2026-09-01T01:19:25.000Z</time>
</trkpt>
<trkpt lat="59.4978069" lon="31.1264490">
<ele>61.650002</ele>
<time>2026-09-01T01:19:54.000Z</time>
</trkpt>
<trkpt lat="59.4978412" lon="31.1264189">
<ele>60.919998</ele>
<time>2026-09-01T01:20:20.000Z</time>
</trkpt>
<trkpt lat="59.4978989" lon="31.1261973">
<ele>60.299999</ele>
<time>2026-09-01T01:20:42.000Z</time>
</trkpt>
<trkpt lat="59.4979856" lon="31.1262237">
<ele>61.040001</ele>
<time>2026-09-01T01:21:01.000Z</time>
</trkpt>
<trkpt lat="59.4981648" lon="31.1263288">
<ele>60.650002</ele>
<time>2026-09-01T01:21:22.000Z</time>
</trkpt>
<trkpt lat="59.4982865" lon="31.1262039">
<ele>59.299999</ele>
<time>2026-09-01T01:21:41.000Z</time>
</trkpt>
<trkpt lat="59.4984136" lon="31.1259489">
<ele>55.949997</ele>
<time>2026-09-01T01:22:01.000Z</time>
</trkpt>
<trkpt lat="59.4985631" lon="31.1256327">
<ele>49.700001</ele>
<time>2026-09-01T01:22:24.000Z</time>
</trkpt>
<trkpt lat="59.4987126" lon="31.1253447">
<ele>47.410000</ele>
<time>2026-09-01T01:22:47.000Z</time>
</trkpt>
<trkpt lat="59.4988741" lon="31.1250774">
<ele>46.240002</ele>
<time>2026-09-01T01:23:07.000Z</time>
</trkpt>
<trkpt lat="59.4989936" lon="31.1248828">
<ele>45.259998</ele>
<time>2026-09-01T01:23:25.000Z</time>
</trkpt>
<trkpt lat="59.4990207" lon="31.1246516">
<ele>40.470001</ele>
<time>2026-09-01T01:23:49.000Z</time>
</trkpt>
<trkpt lat="59.4989235" lon="31.1245494">
<ele>33.840000</ele>
<time>2026-09-01T01:24:07.000Z</time>
</trkpt>
<trkpt lat="59.4988473" lon="31.1243890">
<ele>32.130001</ele>
<time>2026-09-01T01:24:28.000Z</time>
</trkpt>
<trkpt lat="59.4987684" lon="31.1241843">
<ele>30.400000</ele>
<time>2026-09-01T01:24:50.000Z</time>
</trkpt>
<trkpt lat="59.4987125" lon="31.1240453">
<ele>30.879999</ele>
<time>2026-09-01T01:25:03.000Z</time>
</trkpt>
<trkpt lat="59.4986774" lon="31.1240321">
<ele>31.500000</ele>
<time>2026-09-01T01:25:08.000Z</time>
</trkpt>
<trkpt lat="59.4985516" lon="31.1238477">
<ele>32.549999</ele>
<time>2026-09-01T01:25:32.000Z</time>
</trkpt>
<trkpt lat="59.4985175" lon="31.1237673">
<ele>32.869999</ele>
<time>2026-09-01T01:25:39.000Z</time>
</trkpt>
<trkpt lat="59.4983733" lon="31.1234341">
<ele>29.790001</ele>
<time>2026-09-01T01:26:02.000Z</time>
</trkpt>
<trkpt lat="59.4983675" lon="31.1234241">
<ele>29.790001</ele>
<time>2026-09-01T01:26:03.000Z</time>
</trkpt>
<trkpt lat="59.4982244" lon="31.1231507">
<ele>30.459999</ele>
<time>2026-09-01T01:26:26.000Z</time>
</trkpt>
<trkpt lat="59.4980647" lon="31.1228547">
<ele>32.119999</ele>
<time>2026-09-01T01:26:47.000Z</time>
</trkpt>
<trkpt lat="59.4978755" lon="31.1225190">
<ele>26.970001</ele>
<time>2026-09-01T01:27:09.000Z</time>
</trkpt>
<trkpt lat="59.4977204" lon="31.1222847">
<ele>23.350000</ele>
<time>2026-09-01T01:27:30.000Z</time>
</trkpt>
<trkpt lat="59.4975163" lon="31.1220874">
<ele>18.369999</ele>
<time>2026-09-01T01:27:56.000Z</time>
</trkpt>
<trkpt lat="59.4973319" lon="31.1218418">
<ele>16.029999</ele>
<time>2026-09-01T01:28:20.000Z</time>
</trkpt>
<trkpt lat="59.4970723" lon="31.1215576">
<ele>11.990000</ele>
<time>2026-09-01T01:28:43.000Z</time>
</trkpt>
<trkpt lat="59.4969379" lon="31.1213725">
<ele>12.760000</ele>
<time>2026-09-01T01:29:04.000Z</time>
</trkpt>
<trkpt lat="59.4967341" lon="31.1211738">
<ele>13.340000</ele>
<time>2026-09-01T01:29:27.000Z</time>
</trkpt>
<trkpt lat="59.4965217" lon="31.1209012">
<ele>14.970000</ele>
<time>2026-09-01T01:29:51.000Z</time>
</trkpt>
<trkpt lat="59.4964029" lon="31.1206524">
<ele>18.870001</ele>
<time>2026-09-01T01:30:11.000Z</time>
</trkpt>
<trkpt lat="59.4962272" lon="31.1203728">
<ele>24.090000</ele>
<time>2026-09-01T01:30:33.000Z</time>
</trkpt>
<trkpt lat="59.4960501" lon="31.1201608">
<ele>25.190001</ele>
<time>2026-09-01T01:30:54.000Z</time>
</trkpt>
<trkpt lat="59.4958496" lon="31.1198439">
<ele>23.599998</ele>
<time>2026-09-01T01:31:18.000Z</time>
</trkpt>
<trkpt lat="59.4957291" lon="31.1196674">
<ele>22.650000</ele>
<time>2026-09-01T01:31:39.000Z</time>
</trkpt>
<trkpt lat="59.4955813" lon="31.1194923">
<ele>20.389999</ele>
<time>2026-09-01T01:31:56.000Z</time>
</trkpt>
<trkpt lat="59.4954480" lon="31.1192648">
<ele>18.270000</ele>
<time>2026-09-01T01:32:16.000Z</time>
</trkpt>
<trkpt lat="59.4953141" lon="31.1189774">
<ele>15.960000</ele>
<time>2026-09-01T01:32:40.000Z</time>
</trkpt>
<trkpt lat="59.4952021" lon="31.1188095">
<ele>15.920000</ele>
<time>2026-09-01T01:33:00.000Z</time>
</trkpt>
<trkpt lat="59.4951033" lon="31.1187180">
<ele>15.880000</ele>
<time>2026-09-01T01:33:18.000Z</time>
</trkpt>
<trkpt lat="59.4950058" lon="31.1186256">
<ele>16.130001</ele>
<time>2026-09-01T01:33:30.000Z</time>
</trkpt>
<trkpt lat="59.4948426" lon="31.1183156">
<ele>21.219999</ele>
<time>2026-09-01T01:33:51.000Z</time>
</trkpt>
<trkpt lat="59.4947406" lon="31.1180254">
<ele>26.459999</ele>
<time>2026-09-01T01:34:13.000Z</time>
</trkpt>
<trkpt lat="59.4946660" lon="31.1177352">
<ele>27.820000</ele>
<time>2026-09-01T01:34:32.000Z</time>
</trkpt>
<trkpt lat="59.4944610" lon="31.1171375">
<ele>34.730000</ele>
<time>2026-09-01T01:34:57.000Z</time>
</trkpt>
<trkpt lat="59.4943361" lon="31.1167888">
<ele>38.299999</ele>
<time>2026-09-01T01:35:19.000Z</time>
</trkpt>
<trkpt lat="59.4942831" lon="31.1164908">
<ele>37.529999</ele>
<time>2026-09-01T01:35:40.000Z</time>
</trkpt>
<trkpt lat="59.4941818" lon="31.1160411">
<ele>37.970001</ele>
<time>2026-09-01T01:36:02.000Z</time>
</trkpt>
<trkpt lat="59.4940554" lon="31.1156199">
<ele>41.009998</ele>
<time>2026-09-01T01:36:23.000Z</time>
</trkpt>
<trkpt lat="59.4939721" lon="31.1152483">
<ele>42.689999</ele>
<time>2026-09-01T01:36:46.000Z</time>
</trkpt>
<trkpt lat="59.4939026" lon="31.1147798">
<ele>41.090000</ele>
<time>2026-09-01T01:37:07.000Z</time>
</trkpt>
<trkpt lat="59.4938233" lon="31.1143221">
<ele>39.559998</ele>
<time>2026-09-01T01:37:27.000Z</time>
</trkpt>
<trkpt lat="59.4937719" lon="31.1139116">
<ele>37.500000</ele>
<time>2026-09-01T01:37:47.000Z</time>
</trkpt>
<trkpt lat="59.4937820" lon="31.1136313">
<ele>38.520000</ele>
<time>2026-09-01T01:38:06.000Z</time>
</trkpt>
<trkpt lat="59.4937707" lon="31.1135692">
<ele>40.709999</ele>
<time>2026-09-01T01:38:28.000Z</time>
</trkpt>
<trkpt lat="59.4938549" lon="31.1135641">
<ele>40.459999</ele>
<time>2026-09-01T01:38:56.000Z</time>
</trkpt>
<trkpt lat="59.4938477" lon="31.1135227">
<ele>46.419998</ele>
<time>2026-09-01T01:39:22.000Z</time>
</trkpt>
<trkpt lat="59.4937450" lon="31.1134032">
<ele>51.260002</ele>
<time>2026-09-01T01:39:51.000Z</time>
</trkpt>
<trkpt lat="59.4937750" lon="31.1132247">
<ele>52.420002</ele>
<time>2026-09-01T01:40:11.000Z</time>
</trkpt>
<trkpt lat="59.4938305" lon="31.1130304">
<ele>52.100002</ele>
<time>2026-09-01T01:40:30.000Z</time>
</trkpt>
<trkpt lat="59.4938899" lon="31.1126828">
<ele>51.450001</ele>
<time>2026-09-01T01:40:53.000Z</time>
</trkpt>
<trkpt lat="59.4939204" lon="31.1126228">
<ele>51.360001</ele>
<time>2026-09-01T01:40:59.000Z</time>
</trkpt>
<trkpt lat="59.4940096" lon="31.1123384">
<ele>49.549999</ele>
<time>2026-09-01T01:41:24.000Z</time>
</trkpt>
<trkpt lat="59.4940342" lon="31.1120215">
<ele>47.860001</ele>
<time>2026-09-01T01:41:47.000Z</time>
</trkpt>
<trkpt lat="59.4940093" lon="31.1117647">
<ele>46.589996</ele>
<time>2026-09-01T01:42:07.000Z</time>
</trkpt>
<trkpt lat="59.4940328" lon="31.1115914">
<ele>46.059998</ele>
<time>2026-09-01T01:42:24.000Z</time>
</trkpt>
<trkpt lat="59.4940031" lon="31.1113372">
<ele>50.730000</ele>
<time>2026-09-01T01:42:48.000Z</time>
</trkpt>
<trkpt lat="59.4940027" lon="31.1111264">
<ele>53.490002</ele>
<time>2026-09-01T01:43:09.000Z</time>
</trkpt>
<trkpt lat="59.4940081" lon="31.1108711">
<ele>53.480000</ele>
<time>2026-09-01T01:43:28.000Z</time>
</trkpt>
<trkpt lat="59.4939964" lon="31.1106544">
<ele>54.370003</ele>
<time>2026-09-01T01:43:52.000Z</time>
</trkpt>
<trkpt lat="59.4940313" lon="31.1103742">
<ele>53.360001</ele>
<time>2026-09-01T01:44:10.000Z</time>
</trkpt>
<trkpt lat="59.4940153" lon="31.1101689">
<ele>53.090000</ele>
<time>2026-09-01T01:44:32.000Z</time>
</trkpt>
<trkpt lat="59.4939705" lon="31.1100145">
<ele>53.400002</ele>
<time>2026-09-01T01:44:48.000Z</time>
</trkpt>
<trkpt lat="59.4939598" lon="31.1099073">
<ele>52.860001</ele>
<time>2026-09-01T01:45:07.000Z</time>
</trkpt>
<trkpt lat="59.4940427" lon="31.1097672">
<ele>53.509998</ele>
<time>2026-09-01T01:45:30.000Z</time>
</trkpt>
<trkpt lat="59.4941549" lon="31.1094207">
<ele>50.079998</ele>
<time>2026-09-01T01:45:53.000Z</time>
</trkpt>
<trkpt lat="59.4942843" lon="31.1091624">
<ele>50.970001</ele>
<time>2026-09-01T01:46:12.000Z</time>
</trkpt>
<trkpt lat="59.4943969" lon="31.1088867">
<ele>51.490002</ele>
<time>2026-09-01T01:46:30.000Z</time>
</trkpt>
<trkpt lat="59.4945381" lon="31.1085518">
<ele>51.469997</ele>
<time>2026-09-01T01:46:53.000Z</time>
</trkpt>
<trkpt lat="59.4946692" lon="31.1082417">
<ele>49.639999</ele>
<time>2026-09-01T01:47:13.000Z</time>
</trkpt>
<trkpt lat="59.4947761" lon="31.1079396">
<ele>45.899998</ele>
<time>2026-09-01T01:47:31.000Z</time>
</trkpt>
<trkpt lat="59.4949089" lon="31.1076110">
<ele>44.660000</ele>
<time>2026-09-01T01:47:50.000Z</time>
</trkpt>
<trkpt lat="59.4950217" lon="31.1073300">
<ele>42.410004</ele>
<time>2026-09-01T01:48:08.000Z</time>
</trkpt>
<trkpt lat="59.4951986" lon="31.1069558">
<ele>41.450001</ele>
<time>2026-09-01T01:48:29.000Z</time>
</trkpt>
<trkpt lat="59.4953445" lon="31.1066469">
<ele>40.410000</ele>
<time>2026-09-01T01:48:48.000Z</time>
</trkpt>
<trkpt lat="59.4954120" lon="31.1064684">
<ele>39.340000</ele>
<time>2026-09-01T01:48:58.000Z</time>
</trkpt>
<trkpt lat="59.4955064" lon="31.1062389">
<ele>38.270000</ele>
<time>2026-09-01T01:49:12.000Z</time>
</trkpt>
<trkpt lat="59.4956585" lon="31.1058950">
<ele>37.670002</ele>
<time>2026-09-01T01:49:34.000Z</time>
</trkpt>
<trkpt lat="59.4957772" lon="31.1055386">
<ele>35.139999</ele>
<time>2026-09-01T01:49:55.000Z</time>
</trkpt>
<trkpt lat="59.4959414" lon="31.1052174">
<ele>36.880001</ele>
<time>2026-09-01T01:50:17.000Z</time>
</trkpt>
<trkpt lat="59.4960068" lon="31.1050258">
<ele>43.250004</ele>
<time>2026-09-01T01:50:37.000Z</time>
</trkpt>
<trkpt lat="59.4960051" lon="31.1050273">
<ele>49.410000</ele>
<time>2026-09-01T01:51:03.000Z</time>
</trkpt>
<trkpt lat="59.4959860" lon="31.1050335">
<ele>53.460003</ele>
<time>2026-09-01T01:51:34.000Z</time>
</trkpt>
<trkpt lat="59.4959337" lon="31.1051200">
<ele>56.520000</ele>
<time>2026-09-01T01:51:57.000Z</time>
</trkpt>
<trkpt lat="59.4958358" lon="31.1054101">
<ele>56.310001</ele>
<time>2026-09-01T01:52:16.000Z</time>
</trkpt>
<trkpt lat="59.4957514" lon="31.1056480">
<ele>52.910000</ele>
<time>2026-09-01T01:52:30.000Z</time>
</trkpt>
<trkpt lat="59.4956525" lon="31.1059275">
<ele>50.570004</ele>
<time>2026-09-01T01:52:45.000Z</time>
</trkpt>
<trkpt lat="59.4955479" lon="31.1061822">
<ele>48.830002</ele>
<time>2026-09-01T01:53:02.000Z</time>
</trkpt>
<trkpt lat="59.4955383" lon="31.1062036">
<ele>48.660004</ele>
<time>2026-09-01T01:53:03.000Z</time>
</trkpt>
<trkpt lat="59.4954045" lon="31.1065269">
<ele>46.549999</ele>
<time>2026-09-01T01:53:22.000Z</time>
</trkpt>
<trkpt lat="59.4952717" lon="31.1068568">
<ele>47.130001</ele>
<time>2026-09-01T01:53:41.000Z</time>
</trkpt>
<trkpt lat="59.4951064" lon="31.1072141">
<ele>47.700001</ele>
<time>2026-09-01T01:54:02.000Z</time>
</trkpt>
<trkpt lat="59.4949934" lon="31.1074809">
<ele>47.860001</ele>
<time>2026-09-01T01:54:17.000Z</time>
</trkpt>
<trkpt lat="59.4948856" lon="31.1077547">
<ele>49.559998</ele>
<time>2026-09-01T01:54:33.000Z</time>
</trkpt>
<trkpt lat="59.4947868" lon="31.1079932">
<ele>52.490002</ele>
<time>2026-09-01T01:54:53.000Z</time>
</trkpt>
<trkpt lat="59.4947191" lon="31.1081898">
<ele>54.320000</ele>
<time>2026-09-01T01:55:07.000Z</time>
</trkpt>
<trkpt lat="59.4946198" lon="31.1084177">
<ele>53.869999</ele>
<time>2026-09-01T01:55:22.000Z</time>
</trkpt>
<trkpt lat="59.4945164" lon="31.1086433">
<ele>54.189999</ele>
<time>2026-09-01T01:55:35.000Z</time>
</trkpt>
<trkpt lat="59.4944216" lon="31.1088823">
<ele>54.489998</ele>
<time>2026-09-01T01:55:49.000Z</time>
</trkpt>
<trkpt lat="59.4943188" lon="31.1091621">
<ele>54.889999</ele>
<time>2026-09-01T01:56:05.000Z</time>
</trkpt>
<trkpt lat="59.4942165" lon="31.1093884">
<ele>54.649998</ele>
<time>2026-09-01T01:56:20.000Z</time>
</trkpt>
<trkpt lat="59.4941282" lon="31.1096095">
<ele>51.619999</ele>
<time>2026-09-01T01:56:36.000Z</time>
</trkpt>
<trkpt lat="59.4940480" lon="31.1097598">
<ele>49.990002</ele>
<time>2026-09-01T01:56:55.000Z</time>
</trkpt>
<trkpt lat="59.4939415" lon="31.1098965">
<ele>51.849998</ele>
<time>2026-09-01T01:57:23.000Z</time>
</trkpt>
<trkpt lat="59.4938819" lon="31.1100513">
<ele>52.360001</ele>
<time>2026-09-01T01:57:42.000Z</time>
</trkpt>
<trkpt lat="59.4937999" lon="31.1103015">
<ele>53.730000</ele>
<time>2026-09-01T01:58:02.000Z</time>
</trkpt>
<trkpt lat="59.4937068" lon="31.1105291">
<ele>54.470001</ele>
<time>2026-09-01T01:58:20.000Z</time>
</trkpt>
<trkpt lat="59.4936502" lon="31.1103916">
<ele>52.930000</ele>
<time>2026-09-01T01:58:33.000Z</time>
</trkpt>
<trkpt lat="59.4936266" lon="31.1103158">
<ele>54.250000</ele>
<time>2026-09-01T01:58:54.000Z</time>
</trkpt>
<trkpt lat="59.4936348" lon="31.1103151">
<ele>53.480000</ele>
<time>2026-09-01T01:59:24.000Z</time>
</trkpt>
<trkpt lat="59.4935908" lon="31.1103040">
<ele>56.419998</ele>
<time>2026-09-01T01:59:47.000Z</time>
</trkpt>
<trkpt lat="59.4935615" lon="31.1103602">
<ele>55.370003</ele>
<time>2026-09-01T02:00:12.000Z</time>
</trkpt>
<trkpt lat="59.4935384" lon="31.1103342">
<ele>54.969997</ele>
<time>2026-09-01T02:00:36.000Z</time>
</trkpt>
<trkpt lat="59.4934751" lon="31.1104894">
<ele>55.129997</ele>
<time>2026-09-01T02:00:58.000Z</time>
</trkpt>
<trkpt lat="59.4934386" lon="31.1105165">
<ele>55.600002</ele>
<time>2026-09-01T02:01:16.000Z</time>
</trkpt>
<trkpt lat="59.4933772" lon="31.1105293">
<ele>55.530003</ele>
<time>2026-09-01T02:01:35.000Z</time>
</trkpt>
<trkpt lat="59.4933039" lon="31.1105067">
<ele>55.799999</ele>
<time>2026-09-01T02:01:55.000Z</time>
</trkpt>
<trkpt lat="59.4932888" lon="31.1104901">
<ele>56.520000</ele>
<time>2026-09-01T02:02:18.000Z</time>
</trkpt>
<trkpt lat="59.4932607" lon="31.1102118">
<ele>55.939999</ele>
<time>2026-09-01T02:02:36.000Z</time>
</trkpt>
<trkpt lat="59.4932521" lon="31.1101356">
<ele>55.489998</ele>
<time>2026-09-01T02:02:40.000Z</time>
</trkpt>
<trkpt lat="59.4932145" lon="31.1098570">
<ele>54.950001</ele>
<time>2026-09-01T02:02:58.000Z</time>
</trkpt>
<trkpt lat="59.4931127" lon="31.1095443">
<ele>53.369999</ele>
<time>2026-09-01T02:03:19.000Z</time>
</trkpt>
<trkpt lat="59.4930376" lon="31.1092184">
<ele>49.689999</ele>
<time>2026-09-01T02:03:40.000Z</time>
</trkpt>
<trkpt lat="59.4928583" lon="31.1089184">
<ele>44.110001</ele>
<time>2026-09-01T02:04:01.000Z</time>
</trkpt>
<trkpt lat="59.4927307" lon="31.1087000">
<ele>44.770000</ele>
<time>2026-09-01T02:04:15.000Z</time>
</trkpt>
<trkpt lat="59.4926019" lon="31.1085000">
<ele>47.869999</ele>
<time>2026-09-01T02:04:29.000Z</time>
</trkpt>
<trkpt lat="59.4924921" lon="31.1083409">
<ele>45.939999</ele>
<time>2026-09-01T02:04:46.000Z</time>
</trkpt>
<trkpt lat="59.4923424" lon="31.1080431">
<ele>39.730000</ele>
<time>2026-09-01T02:05:10.000Z</time>
</trkpt>
<trkpt lat="59.4921596" lon="31.1077574">
<ele>35.760002</ele>
<time>2026-09-01T02:05:29.000Z</time>
</trkpt>
<trkpt lat="59.4919855" lon="31.1075458">
<ele>31.900000</ele>
<time>2026-09-01T02:05:48.000Z</time>
</trkpt>
<trkpt lat="59.4918013" lon="31.1072435">
<ele>37.110001</ele>
<time>2026-09-01T02:06:06.000Z</time>
</trkpt>
<trkpt lat="59.4916902" lon="31.1069730">
<ele>35.040001</ele>
<time>2026-09-01T02:06:29.000Z</time>
</trkpt>
<trkpt lat="59.4915201" lon="31.1066955">
<ele>31.049999</ele>
<time>2026-09-01T02:06:52.000Z</time>
</trkpt>
<trkpt lat="59.4913141" lon="31.1064863">
<ele>30.459999</ele>
<time>2026-09-01T02:07:16.000Z</time>
</trkpt>
<trkpt lat="59.4911540" lon="31.1061985">
<ele>30.360001</ele>
<time>2026-09-01T02:07:33.000Z</time>
</trkpt>
<trkpt lat="59.4909859" lon="31.1059744">
<ele>32.070000</ele>
<time>2026-09-01T02:07:53.000Z</time>
</trkpt>
<trkpt lat="59.4908261" lon="31.1056704">
<ele>30.490000</ele>
<time>2026-09-01T02:08:13.000Z</time>
</trkpt>
<trkpt lat="59.4905976" lon="31.1054272">
<ele>29.659998</ele>
<time>2026-09-01T02:08:34.000Z</time>
</trkpt>
<trkpt lat="59.4904385" lon="31.1051003">
<ele>25.309999</ele>
<time>2026-09-01T02:08:55.000Z</time>
</trkpt>
<trkpt lat="59.4902408" lon="31.1047470">
<ele>23.420000</ele>
<time>2026-09-01T02:09:17.000Z</time>
</trkpt>
<trkpt lat="59.4901032" lon="31.1047035">
<ele>24.430000</ele>
<time>2026-09-01T02:09:31.000Z</time>
</trkpt>
<trkpt lat="59.4898901" lon="31.1043221">
<ele>26.650000</ele>
<time>2026-09-01T02:09:53.000Z</time>
</trkpt>
<trkpt lat="59.4897295" lon="31.1040001">
<ele>25.030001</ele>
<time>2026-09-01T02:10:16.000Z</time>
</trkpt>
<trkpt lat="59.4895643" lon="31.1037633">
<ele>24.330002</ele>
<time>2026-09-01T02:10:38.000Z</time>
</trkpt>
<trkpt lat="59.4893769" lon="31.1035551">
<ele>27.160000</ele>
<time>2026-09-01T02:10:59.000Z</time>
</trkpt>
<trkpt lat="59.4891974" lon="31.1032539">
<ele>34.770000</ele>
<time>2026-09-01T02:11:17.000Z</time>
</trkpt>
<trkpt lat="59.4890354" lon="31.1029475">
<ele>31.270000</ele>
<time>2026-09-01T02:11:42.000Z</time>
</trkpt>
<trkpt lat="59.4888509" lon="31.1027359">
<ele>27.280001</ele>
<time>2026-09-01T02:12:03.000Z</time>
</trkpt>
<trkpt lat="59.4886683" lon="31.1025144">
<ele>25.459999</ele>
<time>2026-09-01T02:12:23.000Z</time>
</trkpt>
<trkpt lat="59.4884982" lon="31.1021726">
<ele>28.610001</ele>
<time>2026-09-01T02:12:42.000Z</time>
</trkpt>
<trkpt lat="59.4883856" lon="31.1019678">
<ele>32.480000</ele>
<time>2026-09-01T02:12:56.000Z</time>
</trkpt>
<trkpt lat="59.4883533" lon="31.1019251">
<ele>32.420002</ele>
<time>2026-09-01T02:13:00.000Z</time>
</trkpt>
<trkpt lat="59.4882036" lon="31.1016988">
<ele>35.130001</ele>
<time>2026-09-01T02:13:17.000Z</time>
</trkpt>
<trkpt lat="59.4880729" lon="31.1015170">
<ele>34.850002</ele>
<time>2026-09-01T02:13:33.000Z</time>
</trkpt>
<trkpt lat="59.4879263" lon="31.1012847">
<ele>35.489998</ele>
<time>2026-09-01T02:13:50.000Z</time>
</trkpt>
<trkpt lat="59.4878486" lon="31.1012413">
<ele>36.059998</ele>
<time>2026-09-01T02:14:03.000Z</time>
</trkpt>
<trkpt lat="59.4878282" lon="31.1013450">
<ele>36.750000</ele>
<time>2026-09-01T02:14:25.000Z</time>
</trkpt>
<trkpt lat="59.4878389" lon="31.1014754">
<ele>39.400002</ele>
<time>2026-09-01T02:14:48.000Z</time>
</trkpt>
<trkpt lat="59.4878521" lon="31.1016000">
<ele>40.180000</ele>
<time>2026-09-01T02:15:11.000Z</time>
</trkpt>
<trkpt lat="59.4878372" lon="31.1016465">
<ele>41.730003</ele>
<time>2026-09-01T02:15:28.000Z</time>
</trkpt>
<trkpt lat="59.4878283" lon="31.1017501">
<ele>44.950001</ele>
<time>2026-09-01T02:15:48.000Z</time>
</trkpt>
<trkpt lat="59.4878241" lon="31.1017405">
<ele>48.020000</ele>
<time>2026-09-01T02:16:11.000Z</time>
</trkpt>
<trkpt lat="59.4878303" lon="31.1017193">
<ele>48.799999</ele>
<time>2026-09-01T02:16:42.000Z</time>
</trkpt>
<trkpt lat="59.4878330" lon="31.1016901">
<ele>48.559998</ele>
<time>2026-09-01T02:17:08.000Z</time>
</trkpt>
<trkpt lat="59.4877910" lon="31.1016170">
<ele>49.570004</ele>
<time>2026-09-01T02:17:30.000Z</time>
</trkpt>
<trkpt lat="59.4877098" lon="31.1015110">
<ele>50.070000</ele>
<time>2026-09-01T02:17:52.000Z</time>
</trkpt>
<trkpt lat="59.4875958" lon="31.1013293">
<ele>49.820000</ele>
<time>2026-09-01T02:18:15.000Z</time>
</trkpt>
<trkpt lat="59.4875949" lon="31.1013192">
<ele>49.770000</ele>
<time>2026-09-01T02:18:16.000Z</time>
</trkpt>
<trkpt lat="59.4874197" lon="31.1010386">
<ele>50.480000</ele>
<time>2026-09-01T02:18:36.000Z</time>
</trkpt>
<trkpt lat="59.4873990" lon="31.1009504">
<ele>50.779999</ele>
<time>2026-09-01T02:19:00.000Z</time>
</trkpt>
<trkpt lat="59.4873430" lon="31.1008337">
<ele>50.389999</ele>
<time>2026-09-01T02:19:25.000Z</time>
</trkpt>
<trkpt lat="59.4872281" lon="31.1006979">
<ele>49.450001</ele>
<time>2026-09-01T02:19:46.000Z</time>
</trkpt>
<trkpt lat="59.4870535" lon="31.1004299">
<ele>47.600002</ele>
<time>2026-09-01T02:20:07.000Z</time>
</trkpt>
<trkpt lat="59.4870022" lon="31.1003460">
<ele>47.029999</ele>
<time>2026-09-01T02:20:16.000Z</time>
</trkpt>
<trkpt lat="59.4868981" lon="31.1001606">
<ele>44.309998</ele>
<time>2026-09-01T02:20:38.000Z</time>
</trkpt>
<trkpt lat="59.4867226" lon="31.0999236">
<ele>40.719997</ele>
<time>2026-09-01T02:20:58.000Z</time>
</trkpt>
<trkpt lat="59.4866531" lon="31.0996832">
<ele>39.220001</ele>
<time>2026-09-01T02:21:16.000Z</time>
</trkpt>
<trkpt lat="59.4866455" lon="31.0995584">
<ele>38.779999</ele>
<time>2026-09-01T02:21:24.000Z</time>
</trkpt>
<trkpt lat="59.4866380" lon="31.0991717">
<ele>38.290001</ele>
<time>2026-09-01T02:21:46.000Z</time>
</trkpt>
<trkpt lat="59.4866150" lon="31.0987849">
<ele>37.670002</ele>
<time>2026-09-01T02:22:00.000Z</time>
</trkpt>
<trkpt lat="59.4866100" lon="31.0987539">
<ele>37.869999</ele>
<time>2026-09-01T02:22:02.000Z</time>
</trkpt>
<trkpt lat="59.4866197" lon="31.0986433">
<ele>38.189999</ele>
<time>2026-09-01T02:22:09.000Z</time>
</trkpt>
<trkpt lat="59.4866349" lon="31.0983196">
<ele>39.830002</ele>
<time>2026-09-01T02:22:33.000Z</time>
</trkpt>
<trkpt lat="59.4865767" lon="31.0979627">
<ele>42.009998</ele>
<time>2026-09-01T02:23:01.000Z</time>
</trkpt>
<trkpt lat="59.4865336" lon="31.0979739">
<ele>43.750000</ele>
<time>2026-09-01T02:23:32.000Z</time>
</trkpt>
<trkpt lat="59.4866056" lon="31.0979264">
<ele>46.770000</ele>
<time>2026-09-01T02:24:04.000Z</time>
</trkpt>
<trkpt lat="59.4866143" lon="31.0979541">
<ele>48.549999</ele>
<time>2026-09-01T02:24:37.000Z</time>
</trkpt>
<trkpt lat="59.4866748" lon="31.0977575">
<ele>51.340000</ele>
<time>2026-09-01T02:25:05.000Z</time>
</trkpt>
<trkpt lat="59.4866569" lon="31.0975407">
<ele>51.160000</ele>
<time>2026-09-01T02:25:24.000Z</time>
</trkpt>
<trkpt lat="59.4866592" lon="31.0975111">
<ele>50.730000</ele>
<time>2026-09-01T02:25:27.000Z</time>
</trkpt>
<trkpt lat="59.4866894" lon="31.0972965">
<ele>50.599998</ele>
<time>2026-09-01T02:25:50.000Z</time>
</trkpt>
<trkpt lat="59.4867074" lon="31.0970366">
<ele>50.200001</ele>
<time>2026-09-01T02:26:11.000Z</time>
</trkpt>
<trkpt lat="59.4867751" lon="31.0968008">
<ele>49.599998</ele>
<time>2026-09-01T02:26:29.000Z</time>
</trkpt>
<trkpt lat="59.4868182" lon="31.0966448">
<ele>46.669998</ele>
<time>2026-09-01T02:26:46.000Z</time>
</trkpt>
<trkpt lat="59.4868473" lon="31.0964049">
<ele>44.090000</ele>
<time>2026-09-01T02:27:04.000Z</time>
</trkpt>
<trkpt lat="59.4868614" lon="31.0961574">
<ele>44.439999</ele>
<time>2026-09-01T02:27:17.000Z</time>
</trkpt>
<trkpt lat="59.4869080" lon="31.0957623">
<ele>44.439999</ele>
<time>2026-09-01T02:27:43.000Z</time>
</trkpt>
<trkpt lat="59.4869399" lon="31.0953703">
<ele>43.410000</ele>
<time>2026-09-01T02:28:04.000Z</time>
</trkpt>
<trkpt lat="59.4869156" lon="31.0946689">
<ele>42.410004</ele>
<time>2026-09-01T02:28:25.000Z</time>
</trkpt>
<trkpt lat="59.4868830" lon="31.0942249">
<ele>42.599998</ele>
<time>2026-09-01T02:28:47.000Z</time>
</trkpt>
<trkpt lat="59.4869513" lon="31.0939233">
<ele>41.320000</ele>
<time>2026-09-01T02:29:12.000Z</time>
</trkpt>
<trkpt lat="59.4870114" lon="31.0936488">
<ele>40.919998</ele>
<time>2026-09-01T02:29:33.000Z</time>
</trkpt>
<trkpt lat="59.4870075" lon="31.0932795">
<ele>40.200001</ele>
<time>2026-09-01T02:29:55.000Z</time>
</trkpt>
<trkpt lat="59.4870042" lon="31.0928062">
<ele>40.189999</ele>
<time>2026-09-01T02:30:16.000Z</time>
</trkpt>
<trkpt lat="59.4870063" lon="31.0925947">
<ele>42.090000</ele>
<time>2026-09-01T02:30:32.000Z</time>
</trkpt>
<trkpt lat="59.4869731" lon="31.0921190">
<ele>43.049999</ele>
<time>2026-09-01T02:30:53.000Z</time>
</trkpt>
<trkpt lat="59.4869806" lon="31.0917834">
<ele>41.889999</ele>
<time>2026-09-01T02:31:14.000Z</time>
</trkpt>
<trkpt lat="59.4869745" lon="31.0917064">
<ele>41.900002</ele>
<time>2026-09-01T02:31:19.000Z</time>
</trkpt>
<trkpt lat="59.4869599" lon="31.0915232">
<ele>44.459999</ele>
<time>2026-09-01T02:31:43.000Z</time>
</trkpt>
<trkpt lat="59.4870135" lon="31.0913163">
<ele>45.780003</ele>
<time>2026-09-01T02:32:04.000Z</time>
</trkpt>
<trkpt lat="59.4870723" lon="31.0909542">
<ele>44.260002</ele>
<time>2026-09-01T02:32:25.000Z</time>
</trkpt>
<trkpt lat="59.4870858" lon="31.0905811">
<ele>44.480000</ele>
<time>2026-09-01T02:32:44.000Z</time>
</trkpt>
<trkpt lat="59.4871505" lon="31.0902030">
<ele>42.279999</ele>
<time>2026-09-01T02:33:04.000Z</time>
</trkpt>
<trkpt lat="59.4871644" lon="31.0898729">
<ele>42.560001</ele>
<time>2026-09-01T02:33:24.000Z</time>
</trkpt>
<trkpt lat="59.4872312" lon="31.0896121">
<ele>43.750000</ele>
<time>2026-09-01T02:33:46.000Z</time>
</trkpt>
<trkpt lat="59.4872625" lon="31.0892961">
<ele>42.650002</ele>
<time>2026-09-01T02:34:07.000Z</time>
</trkpt>
<trkpt lat="59.4872800" lon="31.0889353">
<ele>42.060001</ele>
<time>2026-09-01T02:34:27.000Z</time>
</trkpt>
<trkpt lat="59.4872881" lon="31.0886080">
<ele>41.200001</ele>
<time>2026-09-01T02:34:48.000Z</time>
</trkpt>
<trkpt lat="59.4872776" lon="31.0882071">
<ele>41.259998</ele>
<time>2026-09-01T02:35:05.000Z</time>
</trkpt>
<trkpt lat="59.4873148" lon="31.0878915">
<ele>41.849998</ele>
<time>2026-09-01T02:35:23.000Z</time>
</trkpt>
<trkpt lat="59.4873076" lon="31.0874768">
<ele>42.480000</ele>
<time>2026-09-01T02:35:43.000Z</time>
</trkpt>
<trkpt lat="59.4873039" lon="31.0874440">
<ele>42.430000</ele>
<time>2026-09-01T02:35:46.000Z</time>
</trkpt>
<trkpt lat="59.4873308" lon="31.0870395">
<ele>42.790001</ele>
<time>2026-09-01T02:36:07.000Z</time>
</trkpt>
<trkpt lat="59.4873744" lon="31.0866449">
<ele>42.640003</ele>
<time>2026-09-01T02:36:30.000Z</time>
</trkpt>
<trkpt lat="59.4874176" lon="31.0862546">
<ele>42.169998</ele>
<time>2026-09-01T02:36:51.000Z</time>
</trkpt>
<trkpt lat="59.4874188" lon="31.0862362">
<ele>42.139999</ele>
<time>2026-09-01T02:36:52.000Z</time>
</trkpt>
<trkpt lat="59.4874553" lon="31.0858482">
<ele>41.389999</ele>
<time>2026-09-01T02:37:14.000Z</time>
</trkpt>
<trkpt lat="59.4874902" lon="31.0854883">
<ele>40.169998</ele>
<time>2026-09-01T02:37:35.000Z</time>
</trkpt>
<trkpt lat="59.4874939" lon="31.0850961">
<ele>39.419998</ele>
<time>2026-09-01T02:37:53.000Z</time>
</trkpt>
<trkpt lat="59.4874757" lon="31.0847976">
<ele>40.320000</ele>
<time>2026-09-01T02:38:09.000Z</time>
</trkpt>
<trkpt lat="59.4875211" lon="31.0844568">
<ele>40.350002</ele>
<time>2026-09-01T02:38:31.000Z</time>
</trkpt>
<trkpt lat="59.4875449" lon="31.0840483">
<ele>39.310001</ele>
<time>2026-09-01T02:38:50.000Z</time>
</trkpt>
<trkpt lat="59.4875477" lon="31.0840143">
<ele>39.340000</ele>
<time>2026-09-01T02:38:52.000Z</time>
</trkpt>
<trkpt lat="59.4875308" lon="31.0836257">
<ele>38.060001</ele>
<time>2026-09-01T02:39:14.000Z</time>
</trkpt>
<trkpt lat="59.4875514" lon="31.0831921">
<ele>36.570000</ele>
<time>2026-09-01T02:39:35.000Z</time>
</trkpt>
<trkpt lat="59.4875747" lon="31.0828813">
<ele>36.950001</ele>
<time>2026-09-01T02:39:53.000Z</time>
</trkpt>
<trkpt lat="59.4876664" lon="31.0825158">
<ele>36.730000</ele>
<time>2026-09-01T02:40:13.000Z</time>
</trkpt>
<trkpt lat="59.4878155" lon="31.0822552">
<ele>36.590000</ele>
<time>2026-09-01T02:40:34.000Z</time>
</trkpt>
<trkpt lat="59.4879275" lon="31.0819349">
<ele>36.849998</ele>
<time>2026-09-01T02:40:56.000Z</time>
</trkpt>
<trkpt lat="59.4880409" lon="31.0816119">
<ele>37.090000</ele>
<time>2026-09-01T02:41:19.000Z</time>
</trkpt>
<trkpt lat="59.4880883" lon="31.0814936">
<ele>36.849998</ele>
<time>2026-09-01T02:41:28.000Z</time>
</trkpt>
<trkpt lat="59.4881336" lon="31.0812646">
<ele>38.459999</ele>
<time>2026-09-01T02:41:47.000Z</time>
</trkpt>
<trkpt lat="59.4882475" lon="31.0811187">
<ele>39.520000</ele>
<time>2026-09-01T02:42:07.000Z</time>
</trkpt>
<trkpt lat="59.4883505" lon="31.0807753">
<ele>40.029999</ele>
<time>2026-09-01T02:42:30.000Z</time>
</trkpt>
<trkpt lat="59.4884003" lon="31.0805653">
<ele>39.010002</ele>
<time>2026-09-01T02:42:47.000Z</time>
</trkpt>
<trkpt lat="59.4885173" lon="31.0801848">
<ele>34.369999</ele>
<time>2026-09-01T02:43:12.000Z</time>
</trkpt>
<trkpt lat="59.4885973" lon="31.0799554">
<ele>30.680000</ele>
<time>2026-09-01T02:43:30.000Z</time>
</trkpt>
<trkpt lat="59.4886731" lon="31.0798917">
<ele>29.959999</ele>
<time>2026-09-01T02:43:45.000Z</time>
</trkpt>
<trkpt lat="59.4889685" lon="31.0800148">
<ele>33.119999</ele>
<time>2026-09-01T02:44:09.000Z</time>
</trkpt>
<trkpt lat="59.4890746" lon="31.0799738">
<ele>39.970001</ele>
<time>2026-09-01T02:44:31.000Z</time>
</trkpt>
<trkpt lat="59.4890679" lon="31.0799780">
<ele>41.169998</ele>
<time>2026-09-01T02:44:52.000Z</time>
</trkpt>
<trkpt lat="59.4890629" lon="31.0799551">
<ele>42.689999</ele>
<time>2026-09-01T02:45:20.000Z</time>
</trkpt>
<trkpt lat="59.4890751" lon="31.0799567">
<ele>43.619999</ele>
<time>2026-09-01T02:45:46.000Z</time>
</trkpt>
<trkpt lat="59.4890604" lon="31.0799121">
<ele>44.959999</ele>
<time>2026-09-01T02:46:05.000Z</time>
</trkpt>
<trkpt lat="59.4891167" lon="31.0799137">
<ele>46.509998</ele>
<time>2026-09-01T02:46:36.000Z</time>
</trkpt>
<trkpt lat="59.4890760" lon="31.0799342">
<ele>48.119999</ele>
<time>2026-09-01T02:47:19.000Z</time>
</trkpt>
<trkpt lat="59.4890727" lon="31.0799475">
<ele>49.529999</ele>
<time>2026-09-01T02:47:49.000Z</time>
</trkpt>
<trkpt lat="59.4890725" lon="31.0799543">
<ele>49.919998</ele>
<time>2026-09-01T02:48:19.000Z</time>
</trkpt>
<trkpt lat="59.4890561" lon="31.0799914">
<ele>52.560001</ele>
<time>2026-09-01T02:48:54.000Z</time>
</trkpt>
<trkpt lat="59.4890608" lon="31.0800263">
<ele>53.770000</ele>
<time>2026-09-01T02:49:30.000Z</time>
</trkpt>
<trkpt lat="59.4890825" lon="31.0800023">
<ele>55.259998</ele>
<time>2026-09-01T02:50:06.000Z</time>
</trkpt>
<trkpt lat="59.4890791" lon="31.0799851">
<ele>55.459999</ele>
<time>2026-09-01T02:50:37.000Z</time>
</trkpt>
<trkpt lat="59.4890860" lon="31.0800086">
<ele>55.080002</ele>
<time>2026-09-01T02:51:01.000Z</time>
</trkpt>
<trkpt lat="59.4891031" lon="31.0799841">
<ele>54.279999</ele>
<time>2026-09-01T02:51:31.000Z</time>
</trkpt>
<trkpt lat="59.4891068" lon="31.0799926">
<ele>54.310001</ele>
<time>2026-09-01T02:51:38.000Z</time>
</trkpt>
<trkpt lat="59.4891242" lon="31.0799298">
<ele>54.199997</ele>
<time>2026-09-01T02:51:56.000Z</time>
</trkpt>
<trkpt lat="59.4890531" lon="31.0799194">
<ele>54.189999</ele>
<time>2026-09-01T02:52:03.000Z</time>
</trkpt>
<trkpt lat="59.4888429" lon="31.0797986">
<ele>54.620003</ele>
<time>2026-09-01T02:52:12.000Z</time>
</trkpt>
<trkpt lat="59.4884548" lon="31.0792487">
<ele>53.880001</ele>
<time>2026-09-01T02:52:27.000Z</time>
</trkpt>
<trkpt lat="59.4881128" lon="31.0788193">
<ele>53.880001</ele>
<time>2026-09-01T02:52:41.000Z</time>
</trkpt>
<trkpt lat="59.4877644" lon="31.0783279">
<ele>52.090000</ele>
<time>2026-09-01T02:52:55.000Z</time>
</trkpt>
<trkpt lat="59.4872631" lon="31.0776634">
<ele>47.730000</ele>
<time>2026-09-01T02:53:12.000Z</time>
</trkpt>
<trkpt lat="59.4867851" lon="31.0770019">
<ele>45.930000</ele>
<time>2026-09-01T02:53:29.000Z</time>
</trkpt>
<trkpt lat="59.4863230" lon="31.0763641">
<ele>45.310001</ele>
<time>2026-09-01T02:53:45.000Z</time>
</trkpt>
<trkpt lat="59.4861221" lon="31.0760539">
<ele>44.920002</ele>
<time>2026-09-01T02:53:55.000Z</time>
</trkpt>
<trkpt lat="59.4859173" lon="31.0757696">
<ele>45.509998</ele>
<time>2026-09-01T02:54:04.000Z</time>
</trkpt>
<trkpt lat="59.4852802" lon="31.0748142">
<ele>45.930000</ele>
<time>2026-09-01T02:54:18.000Z</time>
</trkpt>
<trkpt lat="59.4846599" lon="31.0739015">
<ele>46.099998</ele>
<time>2026-09-01T02:54:32.000Z</time>
</trkpt>
<trkpt lat="59.4840898" lon="31.0731097">
<ele>48.860001</ele>
<time>2026-09-01T02:54:43.000Z</time>
</trkpt>
<trkpt lat="59.4834720" lon="31.0721917">
<ele>51.439999</ele>
<time>2026-09-01T02:54:55.000Z</time>
</trkpt>
<trkpt lat="59.4830109" lon="31.0713651">
<ele>52.219997</ele>
<time>2026-09-01T02:55:05.000Z</time>
</trkpt>
<trkpt lat="59.4822795" lon="31.0706832">
<ele>53.850002</ele>
<time>2026-09-01T02:55:19.000Z</time>
</trkpt>
<trkpt lat="59.4813994" lon="31.0700461">
<ele>56.200001</ele>
<time>2026-09-01T02:55:35.000Z</time>
</trkpt>
<trkpt lat="59.4807110" lon="31.0701062">
<ele>55.639999</ele>
<time>2026-09-01T02:55:47.000Z</time>
</trkpt>
<trkpt lat="59.4801353" lon="31.0702404">
<ele>55.730000</ele>
<time>2026-09-01T02:55:59.000Z</time>
</trkpt>
<trkpt lat="59.4799651" lon="31.0701818">
<ele>55.770000</ele>
<time>2026-09-01T02:56:09.000Z</time>
</trkpt>
<trkpt lat="59.4797229" lon="31.0699200">
<ele>56.799999</ele>
<time>2026-09-01T02:56:17.000Z</time>
</trkpt>
<trkpt lat="59.4795444" lon="31.0696130">
<ele>57.380001</ele>
<time>2026-09-01T02:56:21.000Z</time>
</trkpt>
<trkpt lat="59.4790887" lon="31.0683428">
<ele>57.369999</ele>
<time>2026-09-01T02:56:36.000Z</time>
</trkpt>
<trkpt lat="59.4785720" lon="31.0669293">
<ele>59.000000</ele>
<time>2026-09-01T02:56:52.000Z</time>
</trkpt>
<trkpt lat="59.4782411" lon="31.0660657">
<ele>59.450001</ele>
<time>2026-09-01T02:57:03.000Z</time>
</trkpt>
<trkpt lat="59.4778141" lon="31.0648378">
<ele>60.410000</ele>
<time>2026-09-01T02:57:19.000Z</time>
</trkpt>
<trkpt lat="59.4774432" lon="31.0635823">
<ele>59.020000</ele>
<time>2026-09-01T02:57:34.000Z</time>
</trkpt>
<trkpt lat="59.4770908" lon="31.0623261">
<ele>57.949997</ele>
<time>2026-09-01T02:57:48.000Z</time>
</trkpt>
<trkpt lat="59.4766502" lon="31.0607906">
<ele>58.779999</ele>
<time>2026-09-01T02:58:04.000Z</time>
</trkpt>
<trkpt lat="59.4762056" lon="31.0592895">
<ele>60.260002</ele>
<time>2026-09-01T02:58:20.000Z</time>
</trkpt>
<trkpt lat="59.4757291" lon="31.0576304">
<ele>63.630001</ele>
<time>2026-09-01T02:58:36.000Z</time>
</trkpt>
<trkpt lat="59.4753021" lon="31.0561888">
<ele>66.010002</ele>
<time>2026-09-01T02:58:51.000Z</time>
</trkpt>
<trkpt lat="59.4750347" lon="31.0553451">
<ele>66.889999</ele>
<time>2026-09-01T02:59:03.000Z</time>
</trkpt>
<trkpt lat="59.4746045" lon="31.0537723">
<ele>62.070004</ele>
<time>2026-09-01T02:59:18.000Z</time>
</trkpt>
<trkpt lat="59.4740912" lon="31.0522229">
<ele>60.010002</ele>
<time>2026-09-01T02:59:33.000Z</time>
</trkpt>
<trkpt lat="59.4735744" lon="31.0504020">
<ele>55.370003</ele>
<time>2026-09-01T02:59:50.000Z</time>
</trkpt>
<trkpt lat="59.4730812" lon="31.0486246">
<ele>48.310001</ele>
<time>2026-09-01T03:00:07.000Z</time>
</trkpt>
<trkpt lat="59.4725519" lon="31.0469595">
<ele>50.079998</ele>
<time>2026-09-01T03:00:23.000Z</time>
</trkpt>
<trkpt lat="59.4722191" lon="31.0462242">
<ele>51.580002</ele>
<time>2026-09-01T03:00:32.000Z</time>
</trkpt>
<trkpt lat="59.4717619" lon="31.0446046">
<ele>53.760002</ele>
<time>2026-09-01T03:00:43.000Z</time>
</trkpt>
<trkpt lat="59.4712745" lon="31.0429529">
<ele>54.639999</ele>
<time>2026-09-01T03:00:54.000Z</time>
</trkpt>
<trkpt lat="59.4708213" lon="31.0415146">
<ele>53.840000</ele>
<time>2026-09-01T03:01:07.000Z</time>
</trkpt>
<trkpt lat="59.4709039" lon="31.0404540">
<ele>51.609997</ele>
<time>2026-09-01T03:01:15.000Z</time>
</trkpt>
<trkpt lat="59.4710293" lon="31.0402289">
<ele>51.049999</ele>
<time>2026-09-01T03:01:17.000Z</time>
</trkpt>
<trkpt lat="59.4720815" lon="31.0382545">
<ele>52.049999</ele>
<time>2026-09-01T03:01:32.000Z</time>
</trkpt>
<trkpt lat="59.4729900" lon="31.0365272">
<ele>53.160000</ele>
<time>2026-09-01T03:01:45.000Z</time>
</trkpt>
<trkpt lat="59.4741155" lon="31.0344257">
<ele>54.359997</ele>
<time>2026-09-01T03:02:00.000Z</time>
</trkpt>
<trkpt lat="59.4747486" lon="31.0330932">
<ele>50.940002</ele>
<time>2026-09-01T03:02:11.000Z</time>
</trkpt>
<trkpt lat="59.4755928" lon="31.0314540">
<ele>48.570000</ele>
<time>2026-09-01T03:02:24.000Z</time>
</trkpt>
<trkpt lat="59.4764580" lon="31.0298170">
<ele>46.779999</ele>
<time>2026-09-01T03:02:38.000Z</time>
</trkpt>
<trkpt lat="59.4772996" lon="31.0282389">
<ele>44.480000</ele>
<time>2026-09-01T03:02:50.000Z</time>
</trkpt>
<trkpt lat="59.4783411" lon="31.0261924">
<ele>42.970001</ele>
<time>2026-09-01T03:03:05.000Z</time>
</trkpt>
<trkpt lat="59.4794158" lon="31.0241437">
<ele>46.380001</ele>
<time>2026-09-01T03:03:21.000Z</time>
</trkpt>
<trkpt lat="59.4804554" lon="31.0221970">
<ele>43.219997</ele>
<time>2026-09-01T03:03:37.000Z</time>
</trkpt>
<trkpt lat="59.4807796" lon="31.0215935">
<ele>43.970001</ele>
<time>2026-09-01T03:03:46.000Z</time>
</trkpt>
<trkpt lat="59.4808884" lon="31.0214883">
<ele>45.980000</ele>
<time>2026-09-01T03:03:55.000Z</time>
</trkpt>
<trkpt lat="59.4810251" lon="31.0211478">
<ele>46.279999</ele>
<time>2026-09-01T03:04:09.000Z</time>
</trkpt>
<trkpt lat="59.4810943" lon="31.0211182">
<ele>49.800003</ele>
<time>2026-09-01T03:04:21.000Z</time>
</trkpt>
<trkpt lat="59.4810709" lon="31.0211433">
<ele>48.970001</ele>
<time>2026-09-01T03:04:43.000Z</time>
</trkpt>
<trkpt lat="59.4811002" lon="31.0211007">
<ele>46.150002</ele>
<time>2026-09-01T03:05:15.000Z</time>
</trkpt>
<trkpt lat="59.4811432" lon="31.0210673">
<ele>44.209999</ele>
<time>2026-09-01T03:06:04.000Z</time>
</trkpt>
<trkpt lat="59.4810932" lon="31.0211330">
<ele>46.080002</ele>
<time>2026-09-01T03:06:34.000Z</time>
</trkpt>
</trkseg>
<trkseg>
<trkpt lat="59.4811376" lon="31.0206047">
<ele>16.440001</ele>
<time>2026-08-31T20:07:36.000Z</time>
</trkpt>
<trkpt lat="59.4811365" lon="31.0206010">
<ele>16.440001</ele>
<time>2026-08-31T20:07:37.000Z</time>
</trkpt>
<trkpt lat="59.4810991" lon="31.0209522">
<ele>17.049999</ele>
<time>2026-08-31T20:08:19.000Z</time>
</trkpt>
<trkpt lat="59.4811233" lon="31.0210074">
<ele>17.129999</ele>
<time>2026-08-31T20:08:39.000Z</time>
</trkpt>
<trkpt lat="59.4811318" lon="31.0210261">
<ele>17.850000</ele>
<time>2026-08-31T20:09:11.000Z</time>
</trkpt>
<trkpt lat="59.4811191" lon="31.0210098">
<ele>17.880001</ele>
<time>2026-08-31T20:09:38.000Z</time>
</trkpt>
<trkpt lat="59.4811233" lon="31.0210157">
<ele>18.119999</ele>
<time>2026-08-31T20:10:07.000Z</time>
</trkpt>
<trkpt lat="59.4811238" lon="31.0210187">
<ele>19.670000</ele>
<time>2026-08-31T20:10:37.000Z</time>
</trkpt>
<trkpt lat="59.4811171" lon="31.0210166">
<ele>19.490000</ele>
<time>2026-08-31T20:11:07.000Z</time>
</trkpt>
<trkpt lat="59.4811289" lon="31.0209928">
<ele>20.010000</ele>
<time>2026-08-31T20:11:39.000Z</time>
</trkpt>
<trkpt lat="59.4811372" lon="31.0209874">
<ele>21.020000</ele>
<time>2026-08-31T20:12:09.000Z</time>
</trkpt>
<trkpt lat="59.4811362" lon="31.0209761">
<ele>21.780001</ele>
<time>2026-08-31T20:12:40.000Z</time>
</trkpt>
<trkpt lat="59.4811410" lon="31.0210008">
<ele>22.310001</ele>
<time>2026-08-31T20:13:21.000Z</time>
</trkpt>
<trkpt lat="59.4810974" lon="31.0210410">
<ele>22.949999</ele>
<time>2026-08-31T20:13:52.000Z</time>
</trkpt>
<trkpt lat="59.4810621" lon="31.0211055">
<ele>22.910000</ele>
<time>2026-08-31T20:13:58.000Z</time>
</trkpt>
<trkpt lat="59.4810243" lon="31.0211925">
<ele>23.120001</ele>
<time>2026-08-31T20:14:03.000Z</time>
</trkpt>
<trkpt lat="59.4808624" lon="31.0214709">
<ele>23.570002</ele>
<time>2026-08-31T20:14:23.000Z</time>
</trkpt>
<trkpt lat="59.4807430" lon="31.0215950">
<ele>23.829998</ele>
<time>2026-08-31T20:14:39.000Z</time>
</trkpt>
<trkpt lat="59.4806954" lon="31.0215495">
<ele>24.520000</ele>
<time>2026-08-31T20:15:06.000Z</time>
</trkpt>
<trkpt lat="59.4806951" lon="31.0215446">
<ele>24.770000</ele>
<time>2026-08-31T20:15:31.000Z</time>
</trkpt>
<trkpt lat="59.4806059" lon="31.0217738">
<ele>24.740000</ele>
<time>2026-08-31T20:15:51.000Z</time>
</trkpt>
<trkpt lat="59.4805694" lon="31.0217686">
<ele>25.700001</ele>
<time>2026-08-31T20:16:14.000Z</time>
</trkpt>
<trkpt lat="59.4805626" lon="31.0217087">
<ele>25.510000</ele>
<time>2026-08-31T20:16:39.000Z</time>
</trkpt>
<trkpt lat="59.4806312" lon="31.0217426">
<ele>25.700001</ele>
<time>2026-08-31T20:17:13.000Z</time>
</trkpt>
<trkpt lat="59.4805614" lon="31.0215821">
<ele>25.539999</ele>
<time>2026-08-31T20:17:48.000Z</time>
</trkpt>
<trkpt lat="59.4805771" lon="31.0216056">
<ele>26.090000</ele>
<time>2026-08-31T20:17:57.000Z</time>
</trkpt>
<trkpt lat="59.4806234" lon="31.0216859">
<ele>26.139999</ele>
<time>2026-08-31T20:18:32.000Z</time>
</trkpt>
<trkpt lat="59.4806546" lon="31.0217735">
<ele>26.970001</ele>
<time>2026-08-31T20:18:53.000Z</time>
</trkpt>
<trkpt lat="59.4805783" lon="31.0217245">
<ele>26.580000</ele>
<time>2026-08-31T20:19:16.000Z</time>
</trkpt>
<trkpt lat="59.4805453" lon="31.0218509">
<ele>27.760000</ele>
<time>2026-08-31T20:19:24.000Z</time>
</trkpt>
<trkpt lat="59.4805127" lon="31.0219559">
<ele>27.250000</ele>
<time>2026-08-31T20:19:26.000Z</time>
</trkpt>
<trkpt lat="59.4804882" lon="31.0220152">
<ele>27.059999</ele>
<time>2026-08-31T20:19:27.000Z</time>
</trkpt>
<trkpt lat="59.4804593" lon="31.0220712">
<ele>27.670000</ele>
<time>2026-08-31T20:19:28.000Z</time>
</trkpt>
<trkpt lat="59.4804347" lon="31.0221294">
<ele>27.040001</ele>
<time>2026-08-31T20:19:29.000Z</time>
</trkpt>
<trkpt lat="59.4804091" lon="31.0221951">
<ele>26.980000</ele>
<time>2026-08-31T20:19:30.000Z</time>
</trkpt>
<trkpt lat="59.4803880" lon="31.0222578">
<ele>27.070000</ele>
<time>2026-08-31T20:19:31.000Z</time>
</trkpt>
<trkpt lat="59.4799864" lon="31.0231464">
<ele>27.859999</ele>
<time>2026-08-31T20:19:45.000Z</time>
</trkpt>
<trkpt lat="59.4798474" lon="31.0234036">
<ele>27.590000</ele>
<time>2026-08-31T20:19:49.000Z</time>
</trkpt>
<trkpt lat="59.4798210" lon="31.0234652">
<ele>27.259998</ele>
<time>2026-08-31T20:19:50.000Z</time>
</trkpt>
<trkpt lat="59.4797882" lon="31.0235246">
<ele>27.700001</ele>
<time>2026-08-31T20:19:51.000Z</time>
</trkpt>
<trkpt lat="59.4794312" lon="31.0240898">
<ele>27.880001</ele>
<time>2026-08-31T20:20:02.000Z</time>
</trkpt>
<trkpt lat="59.4790761" lon="31.0240811">
<ele>28.049999</ele>
<time>2026-08-31T20:20:12.000Z</time>
</trkpt>
<trkpt lat="59.4789261" lon="31.0238654">
<ele>27.510000</ele>
<time>2026-08-31T20:20:25.000Z</time>
</trkpt>
<trkpt lat="59.4789242" lon="31.0238777">
<ele>28.000000</ele>
<time>2026-08-31T20:20:54.000Z</time>
</trkpt>
<trkpt lat="59.4788788" lon="31.0237883">
<ele>28.910000</ele>
<time>2026-08-31T20:21:05.000Z</time>
</trkpt>
<trkpt lat="59.4788122" lon="31.0236630">
<ele>29.000000</ele>
<time>2026-08-31T20:21:08.000Z</time>
</trkpt>
<trkpt lat="59.4787739" lon="31.0236014">
<ele>29.269999</ele>
<time>2026-08-31T20:21:09.000Z</time>
</trkpt>
<trkpt lat="59.4784604" lon="31.0230615">
<ele>29.360001</ele>
<time>2026-08-31T20:21:18.000Z</time>
</trkpt>
<trkpt lat="59.4784292" lon="31.0229997">
<ele>29.290001</ele>
<time>2026-08-31T20:21:19.000Z</time>
</trkpt>
<trkpt lat="59.4782982" lon="31.0227713">
<ele>28.959999</ele>
<time>2026-08-31T20:21:23.000Z</time>
</trkpt>
<trkpt lat="59.4782634" lon="31.0227139">
<ele>29.039999</ele>
<time>2026-08-31T20:21:24.000Z</time>
</trkpt>
<trkpt lat="59.4782331" lon="31.0226499">
<ele>29.469999</ele>
<time>2026-08-31T20:21:25.000Z</time>
</trkpt>
<trkpt lat="59.4781963" lon="31.0225849">
<ele>29.140001</ele>
<time>2026-08-31T20:21:26.000Z</time>
</trkpt>
<trkpt lat="59.4781558" lon="31.0225217">
<ele>29.490000</ele>
<time>2026-08-31T20:21:27.000Z</time>
</trkpt>
<trkpt lat="59.4781230" lon="31.0224485">
<ele>29.370001</ele>
<time>2026-08-31T20:21:28.000Z</time>
</trkpt>
<trkpt lat="59.4780858" lon="31.0223767">
<ele>29.240000</ele>
<time>2026-08-31T20:21:29.000Z</time>
</trkpt>
<trkpt lat="59.4776224" lon="31.0214780">
<ele>29.309999</ele>
<time>2026-08-31T20:21:41.000Z</time>
</trkpt>
<trkpt lat="59.4772006" lon="31.0206201">
<ele>29.379999</ele>
<time>2026-08-31T20:21:53.000Z</time>
</trkpt>
<trkpt lat="59.4768270" lon="31.0198933">
<ele>29.190001</ele>
<time>2026-08-31T20:22:05.000Z</time>
</trkpt>
<trkpt lat="59.4764164" lon="31.0191860">
<ele>30.039999</ele>
<time>2026-08-31T20:22:15.000Z</time>
</trkpt>
<trkpt lat="59.4760489" lon="31.0184439">
<ele>30.910000</ele>
<time>2026-08-31T20:22:23.000Z</time>
</trkpt>
<trkpt lat="59.4754247" lon="31.0170510">
<ele>34.669998</ele>
<time>2026-08-31T20:22:36.000Z</time>
</trkpt>
<trkpt lat="59.4753929" lon="31.0169564">
<ele>35.020000</ele>
<time>2026-08-31T20:22:37.000Z</time>
</trkpt>
<trkpt lat="59.4753485" lon="31.0168526">
<ele>35.860001</ele>
<time>2026-08-31T20:22:38.000Z</time>
</trkpt>
<trkpt lat="59.4753048" lon="31.0167433">
<ele>36.009998</ele>
<time>2026-08-31T20:22:39.000Z</time>
</trkpt>
<trkpt lat="59.4751530" lon="31.0164118">
<ele>37.670002</ele>
<time>2026-08-31T20:22:42.000Z</time>
</trkpt>
<trkpt lat="59.4747727" lon="31.0155903">
<ele>40.310001</ele>
<time>2026-08-31T20:22:49.000Z</time>
</trkpt>
<trkpt lat="59.4742483" lon="31.0144754">
<ele>38.529999</ele>
<time>2026-08-31T20:22:58.000Z</time>
</trkpt>
<trkpt lat="59.4738858" lon="31.0137503">
<ele>35.000000</ele>
<time>2026-08-31T20:23:03.000Z</time>
</trkpt>
<trkpt lat="59.4738112" lon="31.0136072">
<ele>34.720001</ele>
<time>2026-08-31T20:23:04.000Z</time>
</trkpt>
<trkpt lat="59.4733589" lon="31.0128268">
<ele>31.200001</ele>
<time>2026-08-31T20:23:10.000Z</time>
</trkpt>
<trkpt lat="59.4726018" lon="31.0122273">
<ele>30.680000</ele>
<time>2026-08-31T20:23:19.000Z</time>
</trkpt>
<trkpt lat="59.4722561" lon="31.0121840">
<ele>30.879999</ele>
<time>2026-08-31T20:23:23.000Z</time>
</trkpt>
<trkpt lat="59.4721648" lon="31.0122123">
<ele>30.719999</ele>
<time>2026-08-31T20:23:24.000Z</time>
</trkpt>
<trkpt lat="59.4720769" lon="31.0122585">
<ele>30.419998</ele>
<time>2026-08-31T20:23:25.000Z</time>
</trkpt>
<trkpt lat="59.4703808" lon="31.0132500">
<ele>30.730001</ele>
<time>2026-08-31T20:23:43.000Z</time>
</trkpt>
<trkpt lat="59.4691137" lon="31.0140035">
<ele>30.810001</ele>
<time>2026-08-31T20:23:57.000Z</time>
</trkpt>
<trkpt lat="59.4682274" lon="31.0145240">
<ele>29.799999</ele>
<time>2026-08-31T20:24:10.000Z</time>
</trkpt>
<trkpt lat="59.4680814" lon="31.0145993">
<ele>29.760000</ele>
<time>2026-08-31T20:24:13.000Z</time>
</trkpt>
<trkpt lat="59.4680333" lon="31.0145932">
<ele>29.710001</ele>
<time>2026-08-31T20:24:14.000Z</time>
</trkpt>
<trkpt lat="59.4679870" lon="31.0145667">
<ele>30.320000</ele>
<time>2026-08-31T20:24:15.000Z</time>
</trkpt>
<trkpt lat="59.4679413" lon="31.0145173">
<ele>29.420000</ele>
<time>2026-08-31T20:24:16.000Z</time>
</trkpt>
<trkpt lat="59.4678987" lon="31.0144494">
<ele>30.029999</ele>
<time>2026-08-31T20:24:17.000Z</time>
</trkpt>
<trkpt lat="59.4678554" lon="31.0143688">
<ele>30.250000</ele>
<time>2026-08-31T20:24:18.000Z</time>
</trkpt>
<trkpt lat="59.4671511" lon="31.0129340">
<ele>29.670000</ele>
<time>2026-08-31T20:24:33.000Z</time>
</trkpt>
<trkpt lat="59.4671194" lon="31.0127376">
<ele>29.959999</ele>
<time>2026-08-31T20:24:36.000Z</time>
</trkpt>
<trkpt lat="59.4671308" lon="31.0126520">
<ele>30.240000</ele>
<time>2026-08-31T20:24:37.000Z</time>
</trkpt>
<trkpt lat="59.4671735" lon="31.0125604">
<ele>30.160002</ele>
<time>2026-08-31T20:24:38.000Z</time>
</trkpt>
<trkpt lat="59.4672230" lon="31.0124675">
<ele>30.510000</ele>
<time>2026-08-31T20:24:39.000Z</time>
</trkpt>
<trkpt lat="59.4672779" lon="31.0123685">
<ele>30.440001</ele>
<time>2026-08-31T20:24:40.000Z</time>
</trkpt>
<trkpt lat="59.4679018" lon="31.0112517">
<ele>32.340000</ele>
<time>2026-08-31T20:24:48.000Z</time>
</trkpt>
<trkpt lat="59.4690968" lon="31.0089908">
<ele>31.690001</ele>
<time>2026-08-31T20:25:00.000Z</time>
</trkpt>
<trkpt lat="59.4709083" lon="31.0056029">
<ele>32.290001</ele>
<time>2026-08-31T20:25:17.000Z</time>
</trkpt>
<trkpt lat="59.4714488" lon="31.0046168">
<ele>33.250000</ele>
<time>2026-08-31T20:25:22.000Z</time>
</trkpt>
<trkpt lat="59.4728185" lon="31.0021189">
<ele>33.910000</ele>
<time>2026-08-31T20:25:34.000Z</time>
</trkpt>
<trkpt lat="59.4747140" lon="30.9986121">
<ele>34.290001</ele>
<time>2026-08-31T20:25:51.000Z</time>
</trkpt>
<trkpt lat="59.4761555" lon="30.9959456">
<ele>36.570000</ele>
<time>2026-08-31T20:26:03.000Z</time>
</trkpt>
<trkpt lat="59.4781983" lon="30.9921830">
<ele>36.480000</ele>
<time>2026-08-31T20:26:20.000Z</time>
</trkpt>
<trkpt lat="59.4807784" lon="30.9874625">
<ele>36.720001</ele>
<time>2026-08-31T20:26:41.000Z</time>
</trkpt>
<trkpt lat="59.4824607" lon="30.9844097">
<ele>38.000000</ele>
<time>2026-08-31T20:26:55.000Z</time>
</trkpt>
<trkpt lat="59.4842603" lon="30.9811199">
<ele>37.610001</ele>
<time>2026-08-31T20:27:11.000Z</time>
</trkpt>
<trkpt lat="59.4860854" lon="30.9777926">
<ele>38.740002</ele>
<time>2026-08-31T20:27:27.000Z</time>
</trkpt>
<trkpt lat="59.4880653" lon="30.9741997">
<ele>38.639999</ele>
<time>2026-08-31T20:27:44.000Z</time>
</trkpt>
<trkpt lat="59.4900439" lon="30.9706299">
<ele>39.110001</ele>
<time>2026-08-31T20:28:00.000Z</time>
</trkpt>
<trkpt lat="59.4920422" lon="30.9669922">
<ele>39.429996</ele>
<time>2026-08-31T20:28:15.000Z</time>
</trkpt>
<trkpt lat="59.4939466" lon="30.9635588">
<ele>38.020000</ele>
<time>2026-08-31T20:28:29.000Z</time>
</trkpt>
<trkpt lat="59.4958183" lon="30.9602770">
<ele>37.180000</ele>
<time>2026-08-31T20:28:43.000Z</time>
</trkpt>
<trkpt lat="59.4975891" lon="30.9571517">
<ele>36.100002</ele>
<time>2026-08-31T20:28:56.000Z</time>
</trkpt>
<trkpt lat="59.4995848" lon="30.9535486">
<ele>36.439999</ele>
<time>2026-08-31T20:29:11.000Z</time>
</trkpt>
<trkpt lat="59.5016260" lon="30.9499020">
<ele>35.299999</ele>
<time>2026-08-31T20:29:26.000Z</time>
</trkpt>
<trkpt lat="59.5036502" lon="30.9462393">
<ele>34.170002</ele>
<time>2026-08-31T20:29:41.000Z</time>
</trkpt>
<trkpt lat="59.5056421" lon="30.9424841">
<ele>32.799999</ele>
<time>2026-08-31T20:29:56.000Z</time>
</trkpt>
<trkpt lat="59.5074386" lon="30.9391874">
<ele>30.490000</ele>
<time>2026-08-31T20:30:09.000Z</time>
</trkpt>
<trkpt lat="59.5096837" lon="30.9351108">
<ele>29.020000</ele>
<time>2026-08-31T20:30:25.000Z</time>
</trkpt>
<trkpt lat="59.5122396" lon="30.9304878">
<ele>26.850000</ele>
<time>2026-08-31T20:30:43.000Z</time>
</trkpt>
<trkpt lat="59.5143135" lon="30.9267487">
<ele>24.910000</ele>
<time>2026-08-31T20:30:58.000Z</time>
</trkpt>
<trkpt lat="59.5155953" lon="30.9243511">
<ele>26.650000</ele>
<time>2026-08-31T20:31:08.000Z</time>
</trkpt>
<trkpt lat="59.5176644" lon="30.9204897">
<ele>27.439999</ele>
<time>2026-08-31T20:31:24.000Z</time>
</trkpt>
<trkpt lat="59.5196698" lon="30.9168170">
<ele>26.289999</ele>
<time>2026-08-31T20:31:39.000Z</time>
</trkpt>
<trkpt lat="59.5218348" lon="30.9127052">
<ele>23.620001</ele>
<time>2026-08-31T20:31:56.000Z</time>
</trkpt>
<trkpt lat="59.5237141" lon="30.9091941">
<ele>22.949999</ele>
<time>2026-08-31T20:32:12.000Z</time>
</trkpt>
<trkpt lat="59.5258548" lon="30.9052247">
<ele>21.740002</ele>
<time>2026-08-31T20:32:30.000Z</time>
</trkpt>
<trkpt lat="59.5276991" lon="30.9016826">
<ele>21.450001</ele>
<time>2026-08-31T20:32:46.000Z</time>
</trkpt>
<trkpt lat="59.5291110" lon="30.8990161">
<ele>20.670002</ele>
<time>2026-08-31T20:32:59.000Z</time>
</trkpt>
<trkpt lat="59.5308489" lon="30.8958182">
<ele>20.249998</ele>
<time>2026-08-31T20:33:15.000Z</time>
</trkpt>
<trkpt lat="59.5323421" lon="30.8930641">
<ele>21.630001</ele>
<time>2026-08-31T20:33:29.000Z</time>
</trkpt>
<trkpt lat="59.5335666" lon="30.8908263">
<ele>21.150000</ele>
<time>2026-08-31T20:33:40.000Z</time>
</trkpt>
<trkpt lat="59.5350956" lon="30.8880430">
<ele>21.299999</ele>
<time>2026-08-31T20:33:54.000Z</time>
</trkpt>
<trkpt lat="59.5365954" lon="30.8853560">
<ele>21.290001</ele>
<time>2026-08-31T20:34:08.000Z</time>
</trkpt>
<trkpt lat="59.5381148" lon="30.8826036">
<ele>20.389999</ele>
<time>2026-08-31T20:34:23.000Z</time>
</trkpt>
<trkpt lat="59.5391981" lon="30.8805844">
<ele>20.380001</ele>
<time>2026-08-31T20:34:36.000Z</time>
</trkpt>
<trkpt lat="59.5402510" lon="30.8786975">
<ele>19.519999</ele>
<time>2026-08-31T20:34:49.000Z</time>
</trkpt>
<trkpt lat="59.5405560" lon="30.8781973">
<ele>18.700001</ele>
<time>2026-08-31T20:34:57.000Z</time>
</trkpt>
<trkpt lat="59.5405270" lon="30.8781969">
<ele>19.309999</ele>
<time>2026-08-31T20:35:07.000Z</time>
</trkpt>
<trkpt lat="59.5404932" lon="30.8782212">
<ele>19.270000</ele>
<time>2026-08-31T20:35:46.000Z</time>
</trkpt>
<trkpt lat="59.5404344" lon="30.8781864">
<ele>19.530001</ele>
<time>2026-08-31T20:36:01.000Z</time>
</trkpt>
<trkpt lat="59.5404345" lon="30.8781235">
<ele>19.299999</ele>
<time>2026-08-31T20:36:37.000Z</time>
</trkpt>
<trkpt lat="59.5405262" lon="30.8779502">
<ele>19.670000</ele>
<time>2026-08-31T20:36:41.000Z</time>
</trkpt>
<trkpt lat="59.5405813" lon="30.8778721">
<ele>20.100000</ele>
<time>2026-08-31T20:36:42.000Z</time>
</trkpt>
<trkpt lat="59.5406350" lon="30.8777794">
<ele>20.160000</ele>
<time>2026-08-31T20:36:43.000Z</time>
</trkpt>
<trkpt lat="59.5414121" lon="30.8765506">
<ele>21.940001</ele>
<time>2026-08-31T20:36:53.000Z</time>
</trkpt>
<trkpt lat="59.5425935" lon="30.8743441">
<ele>23.369999</ele>
<time>2026-08-31T20:37:07.000Z</time>
</trkpt>
<trkpt lat="59.5440038" lon="30.8717672">
<ele>24.959999</ele>
<time>2026-08-31T20:37:23.000Z</time>
</trkpt>
<trkpt lat="59.5450965" lon="30.8698114">
<ele>24.090000</ele>
<time>2026-08-31T20:37:37.000Z</time>
</trkpt>
<trkpt lat="59.5452042" lon="30.8696853">
<ele>23.809999</ele>
<time>2026-08-31T20:37:39.000Z</time>
</trkpt>
<trkpt lat="59.5452586" lon="30.8696594">
<ele>23.809999</ele>
<time>2026-08-31T20:37:40.000Z</time>
</trkpt>
<trkpt lat="59.5453113" lon="30.8696456">
<ele>24.059999</ele>
<time>2026-08-31T20:37:41.000Z</time>
</trkpt>
<trkpt lat="59.5454042" lon="30.8696353">
<ele>24.140001</ele>
<time>2026-08-31T20:37:43.000Z</time>
</trkpt>
<trkpt lat="59.5455255" lon="30.8697149">
<ele>23.809999</ele>
<time>2026-08-31T20:37:46.000Z</time>
</trkpt>
<trkpt lat="59.5455343" lon="30.8698438">
<ele>23.690001</ele>
<time>2026-08-31T20:37:47.000Z</time>
</trkpt>
<trkpt lat="59.5457451" lon="30.8702665">
<ele>23.740000</ele>
<time>2026-08-31T20:37:53.000Z</time>
</trkpt>
<trkpt lat="59.5460255" lon="30.8707783">
<ele>27.530001</ele>
<time>2026-08-31T20:38:01.000Z</time>
</trkpt>
<trkpt lat="59.5460609" lon="30.8708428">
<ele>27.690001</ele>
<time>2026-08-31T20:38:02.000Z</time>
</trkpt>
<trkpt lat="59.5462024" lon="30.8711010">
<ele>29.809999</ele>
<time>2026-08-31T20:38:06.000Z</time>
</trkpt>
<trkpt lat="59.5464147" lon="30.8714883">
<ele>32.399998</ele>
<time>2026-08-31T20:38:12.000Z</time>
</trkpt>
<trkpt lat="59.5498855" lon="30.8796051">
<ele>28.510000</ele>
<time>2026-08-31T20:38:35.000Z</time>
</trkpt>
<trkpt lat="59.5502108" lon="30.8802733">
<ele>26.580000</ele>
<time>2026-08-31T20:38:38.000Z</time>
</trkpt>
<trkpt lat="59.5503895" lon="30.8806735">
<ele>25.389999</ele>
<time>2026-08-31T20:38:40.000Z</time>
</trkpt>
<trkpt lat="59.5512673" lon="30.8829279">
<ele>24.160000</ele>
<time>2026-08-31T20:38:52.000Z</time>
</trkpt>
<trkpt lat="59.5522354" lon="30.8859279">
<ele>23.910002</ele>
<time>2026-08-31T20:39:05.000Z</time>
</trkpt>
<trkpt lat="59.5532794" lon="30.8891325">
<ele>23.859999</ele>
<time>2026-08-31T20:39:18.000Z</time>
</trkpt>
<trkpt lat="59.5544559" lon="30.8927664">
<ele>25.090000</ele>
<time>2026-08-31T20:39:32.000Z</time>
</trkpt>
<trkpt lat="59.5556325" lon="30.8964183">
<ele>24.539999</ele>
<time>2026-08-31T20:39:46.000Z</time>
</trkpt>
<trkpt lat="59.5568693" lon="30.9001321">
<ele>23.960001</ele>
<time>2026-08-31T20:40:01.000Z</time>
</trkpt>
<trkpt lat="59.5579575" lon="30.9034482">
<ele>22.059999</ele>
<time>2026-08-31T20:40:15.000Z</time>
</trkpt>
<trkpt lat="59.5588585" lon="30.9061307">
<ele>21.330000</ele>
<time>2026-08-31T20:40:27.000Z</time>
</trkpt>
<trkpt lat="59.5598436" lon="30.9093067">
<ele>22.580000</ele>
<time>2026-08-31T20:40:40.000Z</time>
</trkpt>
<trkpt lat="59.5603377" lon="30.9122058">
<ele>22.369999</ele>
<time>2026-08-31T20:40:50.000Z</time>
</trkpt>
<trkpt lat="59.5603047" lon="30.9143518">
<ele>22.949999</ele>
<time>2026-08-31T20:40:57.000Z</time>
</trkpt>
<trkpt lat="59.5598357" lon="30.9194894">
<ele>23.430000</ele>
<time>2026-08-31T20:41:13.000Z</time>
</trkpt>
<trkpt lat="59.5594233" lon="30.9244114">
<ele>23.059999</ele>
<time>2026-08-31T20:41:28.000Z</time>
</trkpt>
<trkpt lat="59.5590373" lon="30.9293235">
<ele>23.910002</ele>
<time>2026-08-31T20:41:43.000Z</time>
</trkpt>
<trkpt lat="59.5586657" lon="30.9328633">
<ele>23.460001</ele>
<time>2026-08-31T20:41:55.000Z</time>
</trkpt>
<trkpt lat="59.5583018" lon="30.9371504">
<ele>24.010000</ele>
<time>2026-08-31T20:42:09.000Z</time>
</trkpt>
<trkpt lat="59.5579033" lon="30.9416884">
<ele>24.430000</ele>
<time>2026-08-31T20:42:24.000Z</time>
</trkpt>
<trkpt lat="59.5575740" lon="30.9457485">
<ele>26.189999</ele>
<time>2026-08-31T20:42:37.000Z</time>
</trkpt>
<trkpt lat="59.5577173" lon="30.9493199">
<ele>26.459999</ele>
<time>2026-08-31T20:42:48.000Z</time>
</trkpt>
<trkpt lat="59.5578290" lon="30.9532893">
<ele>27.910002</ele>
<time>2026-08-31T20:43:00.000Z</time>
</trkpt>
<trkpt lat="59.5579390" lon="30.9569917">
<ele>28.220001</ele>
<time>2026-08-31T20:43:12.000Z</time>
</trkpt>
<trkpt lat="59.5580027" lon="30.9610788">
<ele>31.139999</ele>
<time>2026-08-31T20:43:25.000Z</time>
</trkpt>
<trkpt lat="59.5581221" lon="30.9655030">
<ele>31.700001</ele>
<time>2026-08-31T20:43:38.000Z</time>
</trkpt>
<trkpt lat="59.5582177" lon="30.9693123">
<ele>30.730001</ele>
<time>2026-08-31T20:43:49.000Z</time>
</trkpt>
<trkpt lat="59.5582721" lon="30.9727258">
<ele>30.850000</ele>
<time>2026-08-31T20:43:59.000Z</time>
</trkpt>
<trkpt lat="59.5583342" lon="30.9767334">
<ele>29.970001</ele>
<time>2026-08-31T20:44:11.000Z</time>
</trkpt>
<trkpt lat="59.5584558" lon="30.9810768">
<ele>30.510000</ele>
<time>2026-08-31T20:44:24.000Z</time>
</trkpt>
<trkpt lat="59.5585724" lon="30.9850701">
<ele>31.939999</ele>
<time>2026-08-31T20:44:35.000Z</time>
</trkpt>
<trkpt lat="59.5587074" lon="30.9906947">
<ele>33.170002</ele>
<time>2026-08-31T20:44:50.000Z</time>
</trkpt>
<trkpt lat="59.5587853" lon="30.9940373">
<ele>36.260002</ele>
<time>2026-08-31T20:44:59.000Z</time>
</trkpt>
<trkpt lat="59.5587927" lon="30.9944099">
<ele>36.310001</ele>
<time>2026-08-31T20:45:00.000Z</time>
</trkpt>
<trkpt lat="59.5588983" lon="30.9981626">
<ele>39.570000</ele>
<time>2026-08-31T20:45:10.000Z</time>
</trkpt>
<trkpt lat="59.5589940" lon="31.0021450">
<ele>42.740002</ele>
<time>2026-08-31T20:45:21.000Z</time>
</trkpt>
<trkpt lat="59.5591333" lon="31.0079483">
<ele>44.620003</ele>
<time>2026-08-31T20:45:38.000Z</time>
</trkpt>
<trkpt lat="59.5591576" lon="31.0100212">
<ele>47.659996</ele>
<time>2026-08-31T20:45:46.000Z</time>
</trkpt>
<trkpt lat="59.5591413" lon="31.0105645">
<ele>48.470001</ele>
<time>2026-08-31T20:45:48.000Z</time>
</trkpt>
<trkpt lat="59.5590698" lon="31.0124500">
<ele>47.090000</ele>
<time>2026-08-31T20:45:56.000Z</time>
</trkpt>
<trkpt lat="59.5590221" lon="31.0136389">
<ele>47.220001</ele>
<time>2026-08-31T20:46:03.000Z</time>
</trkpt>
<trkpt lat="59.5590305" lon="31.0137994">
<ele>47.039997</ele>
<time>2026-08-31T20:46:04.000Z</time>
</trkpt>
<trkpt lat="59.5590458" lon="31.0139581">
<ele>46.649998</ele>
<time>2026-08-31T20:46:05.000Z</time>
</trkpt>
<trkpt lat="59.5591373" lon="31.0144812">
<ele>46.600002</ele>
<time>2026-08-31T20:46:08.000Z</time>
</trkpt>
<trkpt lat="59.5591893" lon="31.0146663">
<ele>46.430000</ele>
<time>2026-08-31T20:46:09.000Z</time>
</trkpt>
<trkpt lat="59.5598172" lon="31.0163216">
<ele>46.790001</ele>
<time>2026-08-31T20:46:17.000Z</time>
</trkpt>
<trkpt lat="59.5606888" lon="31.0185611">
<ele>43.730000</ele>
<time>2026-08-31T20:46:27.000Z</time>
</trkpt>
<trkpt lat="59.5612173" lon="31.0203746">
<ele>40.789997</ele>
<time>2026-08-31T20:46:36.000Z</time>
</trkpt>
<trkpt lat="59.5613150" lon="31.0210781">
<ele>37.799999</ele>
<time>2026-08-31T20:46:42.000Z</time>
</trkpt>
<trkpt lat="59.5613287" lon="31.0211676">
<ele>37.780003</ele>
<time>2026-08-31T20:46:43.000Z</time>
</trkpt>
<trkpt lat="59.5614922" lon="31.0223658">
<ele>38.500000</ele>
<time>2026-08-31T20:46:53.000Z</time>
</trkpt>
<trkpt lat="59.5617443" lon="31.0244337">
<ele>39.790001</ele>
<time>2026-08-31T20:47:02.000Z</time>
</trkpt>
<trkpt lat="59.5622349" lon="31.0282956">
<ele>40.459999</ele>
<time>2026-08-31T20:47:17.000Z</time>
</trkpt>
<trkpt lat="59.5624393" lon="31.0299324">
<ele>37.820000</ele>
<time>2026-08-31T20:47:23.000Z</time>
</trkpt>
<trkpt lat="59.5628134" lon="31.0328779">
<ele>35.730000</ele>
<time>2026-08-31T20:47:34.000Z</time>
</trkpt>
<trkpt lat="59.5629788" lon="31.0341967">
<ele>33.599998</ele>
<time>2026-08-31T20:47:43.000Z</time>
</trkpt>
<trkpt lat="59.5629926" lon="31.0342754">
<ele>33.549999</ele>
<time>2026-08-31T20:47:47.000Z</time>
</trkpt>
<trkpt lat="59.5629960" lon="31.0343262">
<ele>33.700001</ele>
<time>2026-08-31T20:47:48.000Z</time>
</trkpt>
<trkpt lat="59.5630014" lon="31.0343963">
<ele>34.099998</ele>
<time>2026-08-31T20:47:49.000Z</time>
</trkpt>
<trkpt lat="59.5631530" lon="31.0356451">
<ele>35.590000</ele>
<time>2026-08-31T20:47:59.000Z</time>
</trkpt>
<trkpt lat="59.5634186" lon="31.0376913">
<ele>36.990002</ele>
<time>2026-08-31T20:48:08.000Z</time>
</trkpt>
<trkpt lat="59.5638053" lon="31.0407244">
<ele>37.939999</ele>
<time>2026-08-31T20:48:19.000Z</time>
</trkpt>
<trkpt lat="59.5642780" lon="31.0445514">
<ele>37.139999</ele>
<time>2026-08-31T20:48:32.000Z</time>
</trkpt>
<trkpt lat="59.5647690" lon="31.0483488">
<ele>36.310001</ele>
<time>2026-08-31T20:48:45.000Z</time>
</trkpt>
<trkpt lat="59.5653416" lon="31.0528953">
<ele>37.849998</ele>
<time>2026-08-31T20:49:00.000Z</time>
</trkpt>
<trkpt lat="59.5658361" lon="31.0571051">
<ele>39.930000</ele>
<time>2026-08-31T20:49:15.000Z</time>
</trkpt>
<trkpt lat="59.5663079" lon="31.0609400">
<ele>42.299999</ele>
<time>2026-08-31T20:49:28.000Z</time>
</trkpt>
<trkpt lat="59.5668553" lon="31.0653713">
<ele>43.999996</ele>
<time>2026-08-31T20:49:43.000Z</time>
</trkpt>
<trkpt lat="59.5673881" lon="31.0695480">
<ele>44.360001</ele>
<time>2026-08-31T20:49:56.000Z</time>
</trkpt>
<trkpt lat="59.5679150" lon="31.0738296">
<ele>46.020000</ele>
<time>2026-08-31T20:50:09.000Z</time>
</trkpt>
<trkpt lat="59.5684283" lon="31.0781164">
<ele>47.000000</ele>
<time>2026-08-31T20:50:22.000Z</time>
</trkpt>
<trkpt lat="59.5689684" lon="31.0825876">
<ele>46.709999</ele>
<time>2026-08-31T20:50:36.000Z</time>
</trkpt>
<trkpt lat="59.5695221" lon="31.0870948">
<ele>47.980003</ele>
<time>2026-08-31T20:50:50.000Z</time>
</trkpt>
<trkpt lat="59.5700837" lon="31.0913057">
<ele>47.770000</ele>
<time>2026-08-31T20:51:03.000Z</time>
</trkpt>
<trkpt lat="59.5705494" lon="31.0952036">
<ele>47.809998</ele>
<time>2026-08-31T20:51:15.000Z</time>
</trkpt>
<trkpt lat="59.5710800" lon="31.0991912">
<ele>49.250000</ele>
<time>2026-08-31T20:51:27.000Z</time>
</trkpt>
<trkpt lat="59.5716966" lon="31.1042161">
<ele>48.000000</ele>
<time>2026-08-31T20:51:41.000Z</time>
</trkpt>
<trkpt lat="59.5724010" lon="31.1098529">
<ele>49.500000</ele>
<time>2026-08-31T20:51:56.000Z</time>
</trkpt>
<trkpt lat="59.5729858" lon="31.1146498">
<ele>47.860001</ele>
<time>2026-08-31T20:52:09.000Z</time>
</trkpt>
<trkpt lat="59.5736642" lon="31.1200143">
<ele>48.480000</ele>
<time>2026-08-31T20:52:23.000Z</time>
</trkpt>
<trkpt lat="59.5742920" lon="31.1250622">
<ele>47.619999</ele>
<time>2026-08-31T20:52:36.000Z</time>
</trkpt>
<trkpt lat="59.5749431" lon="31.1306154">
<ele>49.290001</ele>
<time>2026-08-31T20:52:50.000Z</time>
</trkpt>
<trkpt lat="59.5757083" lon="31.1366748">
<ele>50.220001</ele>
<time>2026-08-31T20:53:05.000Z</time>
</trkpt>
<trkpt lat="59.5763019" lon="31.1413058">
<ele>48.849998</ele>
<time>2026-08-31T20:53:17.000Z</time>
</trkpt>
<trkpt lat="59.5768942" lon="31.1460958">
<ele>48.639999</ele>
<time>2026-08-31T20:53:30.000Z</time>
</trkpt>
<trkpt lat="59.5773727" lon="31.1499778">
<ele>46.630001</ele>
<time>2026-08-31T20:53:41.000Z</time>
</trkpt>
<trkpt lat="59.5779881" lon="31.1548888">
<ele>46.430000</ele>
<time>2026-08-31T20:53:55.000Z</time>
</trkpt>
<trkpt lat="59.5785255" lon="31.1593764">
<ele>45.360001</ele>
<time>2026-08-31T20:54:08.000Z</time>
</trkpt>
<trkpt lat="59.5789806" lon="31.1632179">
<ele>43.849998</ele>
<time>2026-08-31T20:54:20.000Z</time>
</trkpt>
<trkpt lat="59.5794574" lon="31.1668837">
<ele>41.399998</ele>
<time>2026-08-31T20:54:32.000Z</time>
</trkpt>
<trkpt lat="59.5798382" lon="31.1701722">
<ele>39.549999</ele>
<time>2026-08-31T20:54:44.000Z</time>
</trkpt>
<trkpt lat="59.5798451" lon="31.1709909">
<ele>40.389999</ele>
<time>2026-08-31T20:54:47.000Z</time>
</trkpt>
<trkpt lat="59.5795253" lon="31.1748617">
<ele>41.459999</ele>
<time>2026-08-31T20:55:00.000Z</time>
</trkpt>
<trkpt lat="59.5791684" lon="31.1783963">
<ele>41.029999</ele>
<time>2026-08-31T20:55:12.000Z</time>
</trkpt>
<trkpt lat="59.5788810" lon="31.1822156">
<ele>41.299999</ele>
<time>2026-08-31T20:55:25.000Z</time>
</trkpt>
<trkpt lat="59.5789186" lon="31.1853079">
<ele>42.880001</ele>
<time>2026-08-31T20:55:35.000Z</time>
</trkpt>
<trkpt lat="59.5792795" lon="31.1883903">
<ele>43.919998</ele>
<time>2026-08-31T20:55:46.000Z</time>
</trkpt>
<trkpt lat="59.5800601" lon="31.1921290">
<ele>45.799999</ele>
<time>2026-08-31T20:56:00.000Z</time>
</trkpt>
<trkpt lat="59.5809938" lon="31.1948703">
<ele>49.360001</ele>
<time>2026-08-31T20:56:12.000Z</time>
</trkpt>
<trkpt lat="59.5812119" lon="31.1953008">
<ele>50.340000</ele>
<time>2026-08-31T20:56:14.000Z</time>
</trkpt>
<trkpt lat="59.5825094" lon="31.1977948">
<ele>51.829998</ele>
<time>2026-08-31T20:56:26.000Z</time>
</trkpt>
<trkpt lat="59.5829294" lon="31.1986220">
<ele>54.209999</ele>
<time>2026-08-31T20:56:30.000Z</time>
</trkpt>
<trkpt lat="59.5849050" lon="31.2025824">
<ele>56.520000</ele>
<time>2026-08-31T20:56:47.000Z</time>
</trkpt>
<trkpt lat="59.5869059" lon="31.2066184">
<ele>57.919998</ele>
<time>2026-08-31T20:57:04.000Z</time>
</trkpt>
<trkpt lat="59.5887686" lon="31.2103979">
<ele>57.500000</ele>
<time>2026-08-31T20:57:20.000Z</time>
</trkpt>
<trkpt lat="59.5890440" lon="31.2109627">
<ele>55.509998</ele>
<time>2026-08-31T20:57:23.000Z</time>
</trkpt>
<trkpt lat="59.5896918" lon="31.2123480">
<ele>55.659996</ele>
<time>2026-08-31T20:57:33.000Z</time>
</trkpt>
<trkpt lat="59.5897806" lon="31.2125557">
<ele>55.739998</ele>
<time>2026-08-31T20:57:35.000Z</time>
</trkpt>
<trkpt lat="59.5898166" lon="31.2126536">
<ele>55.329998</ele>
<time>2026-08-31T20:57:36.000Z</time>
</trkpt>
<trkpt lat="59.5898397" lon="31.2127534">
<ele>55.230000</ele>
<time>2026-08-31T20:57:37.000Z</time>
</trkpt>
<trkpt lat="59.5898505" lon="31.2128609">
<ele>55.199997</ele>
<time>2026-08-31T20:57:38.000Z</time>
</trkpt>
<trkpt lat="59.5898494" lon="31.2129759">
<ele>55.639999</ele>
<time>2026-08-31T20:57:39.000Z</time>
</trkpt>
<trkpt lat="59.5898278" lon="31.2130946">
<ele>56.060001</ele>
<time>2026-08-31T20:57:40.000Z</time>
</trkpt>
<trkpt lat="59.5897930" lon="31.2132071">
<ele>56.020000</ele>
<time>2026-08-31T20:57:41.000Z</time>
</trkpt>
<trkpt lat="59.5897436" lon="31.2133112">
<ele>56.350002</ele>
<time>2026-08-31T20:57:42.000Z</time>
</trkpt>
<trkpt lat="59.5896869" lon="31.2134197">
<ele>56.480000</ele>
<time>2026-08-31T20:57:43.000Z</time>
</trkpt>
<trkpt lat="59.5888076" lon="31.2150000">
<ele>57.779999</ele>
<time>2026-08-31T20:57:55.000Z</time>
</trkpt>
<trkpt lat="59.5877582" lon="31.2162280">
<ele>56.389999</ele>
<time>2026-08-31T20:58:05.000Z</time>
</trkpt>
<trkpt lat="59.5865312" lon="31.2170392">
<ele>54.860001</ele>
<time>2026-08-31T20:58:15.000Z</time>
</trkpt>
<trkpt lat="59.5851253" lon="31.2181228">
<ele>56.050003</ele>
<time>2026-08-31T20:58:25.000Z</time>
</trkpt>
<trkpt lat="59.5837659" lon="31.2196390">
<ele>58.290001</ele>
<time>2026-08-31T20:58:34.000Z</time>
</trkpt>
<trkpt lat="59.5823638" lon="31.2220168">
<ele>59.459999</ele>
<time>2026-08-31T20:58:45.000Z</time>
</trkpt>
<trkpt lat="59.5817929" lon="31.2233186">
<ele>62.720001</ele>
<time>2026-08-31T20:58:50.000Z</time>
</trkpt>
<trkpt lat="59.5799601" lon="31.2275678">
<ele>65.190002</ele>
<time>2026-08-31T20:59:06.000Z</time>
</trkpt>
<trkpt lat="59.5786287" lon="31.2297341">
<ele>63.900002</ele>
<time>2026-08-31T20:59:16.000Z</time>
</trkpt>
<trkpt lat="59.5775828" lon="31.2321060">
<ele>64.050003</ele>
<time>2026-08-31T20:59:25.000Z</time>
</trkpt>
<trkpt lat="59.5765148" lon="31.2357461">
<ele>63.199997</ele>
<time>2026-08-31T20:59:36.000Z</time>
</trkpt>
<trkpt lat="59.5755458" lon="31.2391526">
<ele>62.649998</ele>
<time>2026-08-31T20:59:47.000Z</time>
</trkpt>
<trkpt lat="59.5750401" lon="31.2409257">
<ele>64.209999</ele>
<time>2026-08-31T20:59:53.000Z</time>
</trkpt>
<trkpt lat="59.5739172" lon="31.2437699">
<ele>66.830002</ele>
<time>2026-08-31T21:00:03.000Z</time>
</trkpt>
<trkpt lat="59.5721901" lon="31.2466641">
<ele>66.970001</ele>
<time>2026-08-31T21:00:15.000Z</time>
</trkpt>
<trkpt lat="59.5705644" lon="31.2490148">
<ele>65.730003</ele>
<time>2026-08-31T21:00:26.000Z</time>
</trkpt>
<trkpt lat="59.5691410" lon="31.2500090">
<ele>65.080002</ele>
<time>2026-08-31T21:00:34.000Z</time>
</trkpt>
<trkpt lat="59.5674191" lon="31.2512641">
<ele>65.099998</ele>
<time>2026-08-31T21:00:45.000Z</time>
</trkpt>
<trkpt lat="59.5664489" lon="31.2529153">
<ele>65.200005</ele>
<time>2026-08-31T21:00:52.000Z</time>
</trkpt>
<trkpt lat="59.5651710" lon="31.2556938">
<ele>63.029999</ele>
<time>2026-08-31T21:01:02.000Z</time>
</trkpt>
<trkpt lat="59.5640560" lon="31.2568603">
<ele>62.020000</ele>
<time>2026-08-31T21:01:09.000Z</time>
</trkpt>
<trkpt lat="59.5622299" lon="31.2577045">
<ele>63.039997</ele>
<time>2026-08-31T21:01:20.000Z</time>
</trkpt>
<trkpt lat="59.5604920" lon="31.2577380">
<ele>64.510002</ele>
<time>2026-08-31T21:01:30.000Z</time>
</trkpt>
<trkpt lat="59.5583905" lon="31.2577030">
<ele>63.959999</ele>
<time>2026-08-31T21:01:42.000Z</time>
</trkpt>
<trkpt lat="59.5572602" lon="31.2587637">
<ele>62.359997</ele>
<time>2026-08-31T21:01:49.000Z</time>
</trkpt>
<trkpt lat="59.5556073" lon="31.2607972">
<ele>59.079998</ele>
<time>2026-08-31T21:02:00.000Z</time>
</trkpt>
<trkpt lat="59.5543129" lon="31.2616300">
<ele>57.420002</ele>
<time>2026-08-31T21:02:08.000Z</time>
</trkpt>
<trkpt lat="59.5528611" lon="31.2617560">
<ele>56.450001</ele>
<time>2026-08-31T21:02:17.000Z</time>
</trkpt>
<trkpt lat="59.5518124" lon="31.2608577">
<ele>57.939999</ele>
<time>2026-08-31T21:02:25.000Z</time>
</trkpt>
<trkpt lat="59.5503552" lon="31.2586982">
<ele>60.160004</ele>
<time>2026-08-31T21:02:37.000Z</time>
</trkpt>
<trkpt lat="59.5488998" lon="31.2568117">
<ele>61.219997</ele>
<time>2026-08-31T21:02:47.000Z</time>
</trkpt>
<trkpt lat="59.5475210" lon="31.2556141">
<ele>60.290001</ele>
<time>2026-08-31T21:02:56.000Z</time>
</trkpt>
<trkpt lat="59.5459811" lon="31.2552171">
<ele>59.769997</ele>
<time>2026-08-31T21:03:05.000Z</time>
</trkpt>
<trkpt lat="59.5442674" lon="31.2548984">
<ele>58.160000</ele>
<time>2026-08-31T21:03:16.000Z</time>
</trkpt>
<trkpt lat="59.5425033" lon="31.2545258">
<ele>57.150002</ele>
<time>2026-08-31T21:03:29.000Z</time>
</trkpt>
<trkpt lat="59.5406406" lon="31.2540300">
<ele>56.970001</ele>
<time>2026-08-31T21:03:43.000Z</time>
</trkpt>
<trkpt lat="59.5394643" lon="31.2529956">
<ele>58.280003</ele>
<time>2026-08-31T21:03:51.000Z</time>
</trkpt>
<trkpt lat="59.5376305" lon="31.2510058">
<ele>56.200001</ele>
<time>2026-08-31T21:04:04.000Z</time>
</trkpt>
<trkpt lat="59.5363266" lon="31.2496831">
<ele>54.990002</ele>
<time>2026-08-31T21:04:14.000Z</time>
</trkpt>
<trkpt lat="59.5349194" lon="31.2490952">
<ele>54.240002</ele>
<time>2026-08-31T21:04:23.000Z</time>
</trkpt>
<trkpt lat="59.5344023" lon="31.2490368">
<ele>51.520000</ele>
<time>2026-08-31T21:04:27.000Z</time>
</trkpt>
<trkpt lat="59.5340859" lon="31.2489861">
<ele>48.200001</ele>
<time>2026-08-31T21:04:31.000Z</time>
</trkpt>
<trkpt lat="59.5340453" lon="31.2489441">
<ele>48.350002</ele>
<time>2026-08-31T21:04:32.000Z</time>
</trkpt>
<trkpt lat="59.5340189" lon="31.2488818">
<ele>48.139999</ele>
<time>2026-08-31T21:04:33.000Z</time>
</trkpt>
<trkpt lat="59.5340103" lon="31.2488018">
<ele>47.910000</ele>
<time>2026-08-31T21:04:34.000Z</time>
</trkpt>
<trkpt lat="59.5340033" lon="31.2487246">
<ele>47.970001</ele>
<time>2026-08-31T21:04:35.000Z</time>
</trkpt>
<trkpt lat="59.5339967" lon="31.2484153">
<ele>46.439999</ele>
<time>2026-08-31T21:04:39.000Z</time>
</trkpt>
<trkpt lat="59.5339532" lon="31.2476080">
<ele>44.599998</ele>
<time>2026-08-31T21:04:51.000Z</time>
</trkpt>
<trkpt lat="59.5339125" lon="31.2467649">
<ele>42.960003</ele>
<time>2026-08-31T21:05:05.000Z</time>
</trkpt>
<trkpt lat="59.5338096" lon="31.2461060">
<ele>42.430000</ele>
<time>2026-08-31T21:05:17.000Z</time>
</trkpt>
<trkpt lat="59.5336628" lon="31.2452780">
<ele>43.820000</ele>
<time>2026-08-31T21:05:28.000Z</time>
</trkpt>
<trkpt lat="59.5336004" lon="31.2444937">
<ele>43.650002</ele>
<time>2026-08-31T21:05:42.000Z</time>
</trkpt>
<trkpt lat="59.5335837" lon="31.2439029">
<ele>43.049999</ele>
<time>2026-08-31T21:05:57.000Z</time>
</trkpt>
<trkpt lat="59.5335977" lon="31.2431452">
<ele>42.360001</ele>
<time>2026-08-31T21:06:14.000Z</time>
</trkpt>
<trkpt lat="59.5336063" lon="31.2427847">
<ele>42.590000</ele>
<time>2026-08-31T21:06:23.000Z</time>
</trkpt>
<trkpt lat="59.5336270" lon="31.2427600">
<ele>42.439999</ele>
<time>2026-08-31T21:06:24.000Z</time>
</trkpt>
<trkpt lat="59.5339319" lon="31.2426889">
<ele>43.250004</ele>
<time>2026-08-31T21:06:37.000Z</time>
</trkpt>
<trkpt lat="59.5342279" lon="31.2426237">
<ele>44.490002</ele>
<time>2026-08-31T21:06:50.000Z</time>
</trkpt>
<trkpt lat="59.5346331" lon="31.2425372">
<ele>44.759998</ele>
<time>2026-08-31T21:07:05.000Z</time>
</trkpt>
<trkpt lat="59.5348368" lon="31.2421865">
<ele>44.590000</ele>
<time>2026-08-31T21:07:18.000Z</time>
</trkpt>
<trkpt lat="59.5347890" lon="31.2411713">
<ele>42.599998</ele>
<time>2026-08-31T21:07:33.000Z</time>
</trkpt>
<trkpt lat="59.5346839" lon="31.2405333">
<ele>39.570000</ele>
<time>2026-08-31T21:07:43.000Z</time>
</trkpt>
<trkpt lat="59.5346622" lon="31.2404610">
<ele>39.279999</ele>
<time>2026-08-31T21:07:44.000Z</time>
</trkpt>
<trkpt lat="59.5346080" lon="31.2403302">
<ele>38.520000</ele>
<time>2026-08-31T21:07:46.000Z</time>
</trkpt>
<trkpt lat="59.5342450" lon="31.2396459">
<ele>38.270000</ele>
<time>2026-08-31T21:08:00.000Z</time>
</trkpt>
<trkpt lat="59.5339963" lon="31.2390513">
<ele>39.400002</ele>
<time>2026-08-31T21:08:12.000Z</time>
</trkpt>
<trkpt lat="59.5337489" lon="31.2383948">
<ele>40.210003</ele>
<time>2026-08-31T21:08:25.000Z</time>
</trkpt>
<trkpt lat="59.5335723" lon="31.2379997">
<ele>39.470001</ele>
<time>2026-08-31T21:08:40.000Z</time>
</trkpt>
<trkpt lat="59.5333734" lon="31.2375375">
<ele>37.689999</ele>
<time>2026-08-31T21:08:55.000Z</time>
</trkpt>
<trkpt lat="59.5331899" lon="31.2370425">
<ele>34.689999</ele>
<time>2026-08-31T21:09:08.000Z</time>
</trkpt>
<trkpt lat="59.5330446" lon="31.2366396">
<ele>32.349998</ele>
<time>2026-08-31T21:09:20.000Z</time>
</trkpt>
<trkpt lat="59.5329634" lon="31.2364781">
<ele>31.660000</ele>
<time>2026-08-31T21:09:37.000Z</time>
</trkpt>
<trkpt lat="59.5329191" lon="31.2364134">
<ele>32.529999</ele>
<time>2026-08-31T21:10:07.000Z</time>
</trkpt>
<trkpt lat="59.5329238" lon="31.2364512">
<ele>32.760002</ele>
<time>2026-08-31T21:10:47.000Z</time>
</trkpt>
<trkpt lat="59.5329266" lon="31.2365148">
<ele>32.900002</ele>
<time>2026-08-31T21:11:29.000Z</time>
</trkpt>
<trkpt lat="59.5329334" lon="31.2365350">
<ele>32.700001</ele>
<time>2026-08-31T21:12:02.000Z</time>
</trkpt>
<trkpt lat="59.5329061" lon="31.2364542">
<ele>32.770000</ele>
<time>2026-08-31T21:12:10.000Z</time>
</trkpt>
<trkpt lat="59.5328990" lon="31.2364329">
<ele>32.790001</ele>
<time>2026-08-31T21:12:11.000Z</time>
</trkpt>
<trkpt lat="59.5328898" lon="31.2364121">
<ele>32.380001</ele>
<time>2026-08-31T21:12:12.000Z</time>
</trkpt>
<trkpt lat="59.5328813" lon="31.2363957">
<ele>32.650002</ele>
<time>2026-08-31T21:12:13.000Z</time>
</trkpt>
<trkpt lat="59.5328737" lon="31.2363749">
<ele>32.340000</ele>
<time>2026-08-31T21:12:14.000Z</time>
</trkpt>
<trkpt lat="59.5328659" lon="31.2363501">
<ele>31.850000</ele>
<time>2026-08-31T21:12:15.000Z</time>
</trkpt>
<trkpt lat="59.5328344" lon="31.2362008">
<ele>31.549999</ele>
<time>2026-08-31T21:12:23.000Z</time>
</trkpt>
<trkpt lat="59.5328662" lon="31.2361175">
<ele>31.900000</ele>
<time>2026-08-31T21:12:37.000Z</time>
</trkpt>
<trkpt lat="59.5328326" lon="31.2360711">
<ele>31.939999</ele>
<time>2026-08-31T21:12:47.000Z</time>
</trkpt>
<trkpt lat="59.5328340" lon="31.2360490">
<ele>32.049999</ele>
<time>2026-08-31T21:13:15.000Z</time>
</trkpt>
<trkpt lat="59.5328279" lon="31.2361118">
<ele>32.889999</ele>
<time>2026-08-31T21:13:49.000Z</time>
</trkpt>
<trkpt lat="59.5328611" lon="31.2361680">
<ele>32.990002</ele>
<time>2026-08-31T21:14:24.000Z</time>
</trkpt>
<trkpt lat="59.5328409" lon="31.2361940">
<ele>33.410000</ele>
<time>2026-08-31T21:14:51.000Z</time>
</trkpt>
<trkpt lat="59.5328307" lon="31.2361552">
<ele>33.959999</ele>
<time>2026-08-31T21:15:18.000Z</time>
</trkpt>
<trkpt lat="59.5328215" lon="31.2361350">
<ele>34.430000</ele>
<time>2026-08-31T21:15:44.000Z</time>
</trkpt>
<trkpt lat="59.5328091" lon="31.2361641">
<ele>34.850002</ele>
<time>2026-08-31T21:16:21.000Z</time>
</trkpt>
<trkpt lat="59.5328843" lon="31.2362280">
<ele>33.950001</ele>
<time>2026-08-31T21:16:48.000Z</time>
</trkpt>
<trkpt lat="59.5328567" lon="31.2362273">
<ele>34.369999</ele>
<time>2026-08-31T21:17:15.000Z</time>
</trkpt>
<trkpt lat="59.5328600" lon="31.2362025">
<ele>35.040001</ele>
<time>2026-08-31T21:17:44.000Z</time>
</trkpt>
<trkpt lat="59.5329500" lon="31.2362440">
<ele>34.750000</ele>
<time>2026-08-31T21:18:13.000Z</time>
</trkpt>
<trkpt lat="59.5328298" lon="31.2362006">
<ele>34.369999</ele>
<time>2026-08-31T21:18:42.000Z</time>
</trkpt>
<trkpt lat="59.5328372" lon="31.2361087">
<ele>34.820000</ele>
<time>2026-08-31T21:19:10.000Z</time>
</trkpt>
<trkpt lat="59.5328593" lon="31.2361973">
<ele>34.920002</ele>
<time>2026-08-31T21:19:41.000Z</time>
</trkpt>
<trkpt lat="59.5329016" lon="31.2362383">
<ele>34.189999</ele>
<time>2026-08-31T21:20:12.000Z</time>
</trkpt>
<trkpt lat="59.5328548" lon="31.2361536">
<ele>34.850002</ele>
<time>2026-08-31T21:20:46.000Z</time>
</trkpt>
<trkpt lat="59.5328015" lon="31.2361149">
<ele>34.810001</ele>
<time>2026-08-31T21:21:35.000Z</time>
</trkpt>
<trkpt lat="59.5328067" lon="31.2361271">
<ele>35.290001</ele>
<time>2026-08-31T21:22:17.000Z</time>
</trkpt>
<trkpt lat="59.5328408" lon="31.2361484">
<ele>33.780003</ele>
<time>2026-08-31T21:22:57.000Z</time>
</trkpt>
<trkpt lat="59.5328407" lon="31.2361479">
<ele>33.780003</ele>
<time>2026-08-31T21:22:58.000Z</time>
</trkpt>
<trkpt lat="59.5326933" lon="31.2360868">
<ele>33.980000</ele>
<time>2026-08-31T21:23:44.000Z</time>
</trkpt>
<trkpt lat="59.5327184" lon="31.2360817">
<ele>34.090000</ele>
<time>2026-08-31T21:24:26.000Z</time>
</trkpt>
<trkpt lat="59.5327600" lon="31.2361087">
<ele>35.790001</ele>
<time>2026-08-31T21:24:58.000Z</time>
</trkpt>
<trkpt lat="59.5327352" lon="31.2361760">
<ele>36.480000</ele>
<time>2026-08-31T21:25:27.000Z</time>
</trkpt>
<trkpt lat="59.5327685" lon="31.2361559">
<ele>36.509998</ele>
<time>2026-08-31T21:25:55.000Z</time>
</trkpt>
<trkpt lat="59.5327679" lon="31.2361452">
<ele>35.549999</ele>
<time>2026-08-31T21:26:24.000Z</time>
</trkpt>
<trkpt lat="59.5327586" lon="31.2361258">
<ele>35.329998</ele>
<time>2026-08-31T21:26:45.000Z</time>
</trkpt>
<trkpt lat="59.5326996" lon="31.2359613">
<ele>35.169998</ele>
<time>2026-08-31T21:27:00.000Z</time>
</trkpt>
<trkpt lat="59.5326294" lon="31.2358129">
<ele>34.790001</ele>
<time>2026-08-31T21:27:11.000Z</time>
</trkpt>
<trkpt lat="59.5326073" lon="31.2357815">
<ele>35.040001</ele>
<time>2026-08-31T21:27:14.000Z</time>
</trkpt>
<trkpt lat="59.5326012" lon="31.2357614">
<ele>34.970001</ele>
<time>2026-08-31T21:27:15.000Z</time>
</trkpt>
<trkpt lat="59.5325956" lon="31.2357423">
<ele>34.959999</ele>
<time>2026-08-31T21:27:16.000Z</time>
</trkpt>
<trkpt lat="59.5325891" lon="31.2357233">
<ele>35.049999</ele>
<time>2026-08-31T21:27:17.000Z</time>
</trkpt>
<trkpt lat="59.5325808" lon="31.2357056">
<ele>35.310001</ele>
<time>2026-08-31T21:27:18.000Z</time>
</trkpt>
<trkpt lat="59.5325739" lon="31.2356875">
<ele>34.750000</ele>
<time>2026-08-31T21:27:19.000Z</time>
</trkpt>
<trkpt lat="59.5324675" lon="31.2354176">
<ele>34.320000</ele>
<time>2026-08-31T21:27:35.000Z</time>
</trkpt>
<trkpt lat="59.5323483" lon="31.2351265">
<ele>33.980000</ele>
<time>2026-08-31T21:27:51.000Z</time>
</trkpt>
<trkpt lat="59.5321949" lon="31.2347815">
<ele>33.529999</ele>
<time>2026-08-31T21:28:10.000Z</time>
</trkpt>
<trkpt lat="59.5321655" lon="31.2346971">
<ele>33.660000</ele>
<time>2026-08-31T21:28:26.000Z</time>
</trkpt>
<trkpt lat="59.5321612" lon="31.2346614">
<ele>33.189999</ele>
<time>2026-08-31T21:28:56.000Z</time>
</trkpt>
<trkpt lat="59.5320739" lon="31.2345221">
<ele>32.919998</ele>
<time>2026-08-31T21:29:08.000Z</time>
</trkpt>
<trkpt lat="59.5320260" lon="31.2344720">
<ele>32.820000</ele>
<time>2026-08-31T21:29:13.000Z</time>
</trkpt>
<trkpt lat="59.5320117" lon="31.2344443">
<ele>33.209999</ele>
<time>2026-08-31T21:29:15.000Z</time>
</trkpt>
<trkpt lat="59.5319968" lon="31.2343356">
<ele>32.349998</ele>
<time>2026-08-31T21:29:23.000Z</time>
</trkpt>
<trkpt lat="59.5319801" lon="31.2341425">
<ele>31.900000</ele>
<time>2026-08-31T21:29:36.000Z</time>
</trkpt>
<trkpt lat="59.5319161" lon="31.2339751">
<ele>32.169998</ele>
<time>2026-08-31T21:29:45.000Z</time>
</trkpt>
<trkpt lat="59.5318534" lon="31.2338113">
<ele>32.310001</ele>
<time>2026-08-31T21:29:56.000Z</time>
</trkpt>
<trkpt lat="59.5318269" lon="31.2337596">
<ele>31.869999</ele>
<time>2026-08-31T21:29:59.000Z</time>
</trkpt>
<trkpt lat="59.5318111" lon="31.2337262">
<ele>32.100002</ele>
<time>2026-08-31T21:30:01.000Z</time>
</trkpt>
<trkpt lat="59.5317821" lon="31.2334588">
<ele>32.009998</ele>
<time>2026-08-31T21:30:14.000Z</time>
</trkpt>
<trkpt lat="59.5317814" lon="31.2331946">
<ele>31.469999</ele>
<time>2026-08-31T21:30:26.000Z</time>
</trkpt>
<trkpt lat="59.5317568" lon="31.2329175">
<ele>32.020000</ele>
<time>2026-08-31T21:30:42.000Z</time>
</trkpt>
<trkpt lat="59.5317586" lon="31.2328533">
<ele>31.280001</ele>
<time>2026-08-31T21:30:45.000Z</time>
</trkpt>
<trkpt lat="59.5317601" lon="31.2328291">
<ele>31.519999</ele>
<time>2026-08-31T21:30:46.000Z</time>
</trkpt>
<trkpt lat="59.5317608" lon="31.2328068">
<ele>31.160000</ele>
<time>2026-08-31T21:30:47.000Z</time>
</trkpt>
<trkpt lat="59.5317619" lon="31.2327841">
<ele>31.559999</ele>
<time>2026-08-31T21:30:48.000Z</time>
</trkpt>
<trkpt lat="59.5317601" lon="31.2327609">
<ele>31.950001</ele>
<time>2026-08-31T21:30:49.000Z</time>
</trkpt>
<trkpt lat="59.5317555" lon="31.2327390">
<ele>31.910002</ele>
<time>2026-08-31T21:30:50.000Z</time>
</trkpt>
<trkpt lat="59.5317514" lon="31.2327178">
<ele>32.090000</ele>
<time>2026-08-31T21:30:51.000Z</time>
</trkpt>
<trkpt lat="59.5317484" lon="31.2326973">
<ele>31.639999</ele>
<time>2026-08-31T21:30:52.000Z</time>
</trkpt>
<trkpt lat="59.5317437" lon="31.2326748">
<ele>31.850000</ele>
<time>2026-08-31T21:30:53.000Z</time>
</trkpt>
<trkpt lat="59.5316944" lon="31.2323293">
<ele>31.910002</ele>
<time>2026-08-31T21:31:10.000Z</time>
</trkpt>
<trkpt lat="59.5316592" lon="31.2319941">
<ele>32.399998</ele>
<time>2026-08-31T21:31:27.000Z</time>
</trkpt>
<trkpt lat="59.5316200" lon="31.2314976">
<ele>32.450001</ele>
<time>2026-08-31T21:31:46.000Z</time>
</trkpt>
<trkpt lat="59.5316177" lon="31.2314788">
<ele>32.560001</ele>
<time>2026-08-31T21:31:47.000Z</time>
</trkpt>
<trkpt lat="59.5316166" lon="31.2314352">
<ele>32.389999</ele>
<time>2026-08-31T21:31:49.000Z</time>
</trkpt>
<trkpt lat="59.5316155" lon="31.2314072">
<ele>32.209999</ele>
<time>2026-08-31T21:31:50.000Z</time>
</trkpt>
<trkpt lat="59.5316157" lon="31.2313117">
<ele>32.430000</ele>
<time>2026-08-31T21:31:54.000Z</time>
</trkpt>
<trkpt lat="59.5316147" lon="31.2312882">
<ele>32.950001</ele>
<time>2026-08-31T21:31:55.000Z</time>
</trkpt>
<trkpt lat="59.5316144" lon="31.2312639">
<ele>33.020000</ele>
<time>2026-08-31T21:31:56.000Z</time>
</trkpt>
<trkpt lat="59.5316163" lon="31.2312399">
<ele>33.259998</ele>
<time>2026-08-31T21:31:57.000Z</time>
</trkpt>
<trkpt lat="59.5316160" lon="31.2312135">
<ele>32.639999</ele>
<time>2026-08-31T21:31:58.000Z</time>
</trkpt>
<trkpt lat="59.5316151" lon="31.2311857">
<ele>33.070000</ele>
<time>2026-08-31T21:31:59.000Z</time>
</trkpt>
<trkpt lat="59.5316189" lon="31.2311658">
<ele>33.009998</ele>
<time>2026-08-31T21:32:00.000Z</time>
</trkpt>
<trkpt lat="59.5316355" lon="31.2308281">
<ele>33.840000</ele>
<time>2026-08-31T21:32:15.000Z</time>
</trkpt>
<trkpt lat="59.5316484" lon="31.2307751">
<ele>34.010002</ele>
<time>2026-08-31T21:32:17.000Z</time>
</trkpt>
<trkpt lat="59.5316524" lon="31.2307530">
<ele>33.400002</ele>
<time>2026-08-31T21:32:18.000Z</time>
</trkpt>
<trkpt lat="59.5316536" lon="31.2307336">
<ele>33.599998</ele>
<time>2026-08-31T21:32:19.000Z</time>
</trkpt>
<trkpt lat="59.5316674" lon="31.2305588">
<ele>33.160000</ele>
<time>2026-08-31T21:32:27.000Z</time>
</trkpt>
<trkpt lat="59.5316743" lon="31.2305151">
<ele>32.650002</ele>
<time>2026-08-31T21:32:29.000Z</time>
</trkpt>
<trkpt lat="59.5316743" lon="31.2304072">
<ele>32.100002</ele>
<time>2026-08-31T21:32:33.000Z</time>
</trkpt>
<trkpt lat="59.5316743" lon="31.2303826">
<ele>32.049999</ele>
<time>2026-08-31T21:32:34.000Z</time>
</trkpt>
<trkpt lat="59.5316757" lon="31.2303602">
<ele>32.130001</ele>
<time>2026-08-31T21:32:35.000Z</time>
</trkpt>
<trkpt lat="59.5317116" lon="31.2301859">
<ele>32.150002</ele>
<time>2026-08-31T21:32:42.000Z</time>
</trkpt>
<trkpt lat="59.5317133" lon="31.2301218">
<ele>32.119999</ele>
<time>2026-08-31T21:32:44.000Z</time>
</trkpt>
<trkpt lat="59.5317099" lon="31.2300895">
<ele>32.100002</ele>
<time>2026-08-31T21:32:45.000Z</time>
</trkpt>
<trkpt lat="59.5317309" lon="31.2298209">
<ele>31.519999</ele>
<time>2026-08-31T21:32:55.000Z</time>
</trkpt>
<trkpt lat="59.5317443" lon="31.2297060">
<ele>30.869999</ele>
<time>2026-08-31T21:32:59.000Z</time>
</trkpt>
<trkpt lat="59.5317422" lon="31.2296710">
<ele>30.920002</ele>
<time>2026-08-31T21:33:00.000Z</time>
</trkpt>
<trkpt lat="59.5317427" lon="31.2296439">
<ele>30.850000</ele>
<time>2026-08-31T21:33:01.000Z</time>
</trkpt>
<trkpt lat="59.5317462" lon="31.2296118">
<ele>31.129999</ele>
<time>2026-08-31T21:33:02.000Z</time>
</trkpt>
<trkpt lat="59.5317461" lon="31.2295861">
<ele>30.839998</ele>
<time>2026-08-31T21:33:03.000Z</time>
</trkpt>
<trkpt lat="59.5317543" lon="31.2295286">
<ele>31.179998</ele>
<time>2026-08-31T21:33:06.000Z</time>
</trkpt>
<trkpt lat="59.5317608" lon="31.2295119">
<ele>30.690001</ele>
<time>2026-08-31T21:33:07.000Z</time>
</trkpt>
<trkpt lat="59.5317624" lon="31.2294927">
<ele>30.960001</ele>
<time>2026-08-31T21:33:08.000Z</time>
</trkpt>
<trkpt lat="59.5317619" lon="31.2294709">
<ele>30.879999</ele>
<time>2026-08-31T21:33:09.000Z</time>
</trkpt>
<trkpt lat="59.5317661" lon="31.2293284">
<ele>30.430000</ele>
<time>2026-08-31T21:33:16.000Z</time>
</trkpt>
<trkpt lat="59.5317629" lon="31.2293064">
<ele>31.000000</ele>
<time>2026-08-31T21:33:17.000Z</time>
</trkpt>
<trkpt lat="59.5317696" lon="31.2292652">
<ele>30.839998</ele>
<time>2026-08-31T21:33:19.000Z</time>
</trkpt>
<trkpt lat="59.5317737" lon="31.2292393">
<ele>30.440001</ele>
<time>2026-08-31T21:33:20.000Z</time>
</trkpt>
<trkpt lat="59.5317910" lon="31.2291114">
<ele>30.789999</ele>
<time>2026-08-31T21:33:26.000Z</time>
</trkpt>
<trkpt lat="59.5318183" lon="31.2289032">
<ele>30.080002</ele>
<time>2026-08-31T21:33:38.000Z</time>
</trkpt>
<trkpt lat="59.5318159" lon="31.2288067">
<ele>30.310001</ele>
<time>2026-08-31T21:33:42.000Z</time>
</trkpt>
<trkpt lat="59.5318132" lon="31.2287814">
<ele>30.379999</ele>
<time>2026-08-31T21:33:43.000Z</time>
</trkpt>
<trkpt lat="59.5318129" lon="31.2285761">
<ele>30.620001</ele>
<time>2026-08-31T21:33:53.000Z</time>
</trkpt>
<trkpt lat="59.5318096" lon="31.2284020">
<ele>30.770000</ele>
<time>2026-08-31T21:34:11.000Z</time>
</trkpt>
<trkpt lat="59.5317375" lon="31.2283068">
<ele>30.890001</ele>
<time>2026-08-31T21:34:23.000Z</time>
</trkpt>
<trkpt lat="59.5317292" lon="31.2282962">
<ele>30.879999</ele>
<time>2026-08-31T21:34:24.000Z</time>
</trkpt>
<trkpt lat="59.5317033" lon="31.2282651">
<ele>30.419998</ele>
<time>2026-08-31T21:34:27.000Z</time>
</trkpt>
<trkpt lat="59.5316947" lon="31.2282520">
<ele>30.320000</ele>
<time>2026-08-31T21:34:28.000Z</time>
</trkpt>
<trkpt lat="59.5315738" lon="31.2280136">
<ele>29.980000</ele>
<time>2026-08-31T21:34:42.000Z</time>
</trkpt>
<trkpt lat="59.5314459" lon="31.2277099">
<ele>29.180000</ele>
<time>2026-08-31T21:34:59.000Z</time>
</trkpt>
<trkpt lat="59.5314418" lon="31.2276888">
<ele>29.290001</ele>
<time>2026-08-31T21:35:00.000Z</time>
</trkpt>
<trkpt lat="59.5314395" lon="31.2276661">
<ele>29.219999</ele>
<time>2026-08-31T21:35:01.000Z</time>
</trkpt>
<trkpt lat="59.5314339" lon="31.2276480">
<ele>29.210001</ele>
<time>2026-08-31T21:35:02.000Z</time>
</trkpt>
<trkpt lat="59.5314272" lon="31.2276324">
<ele>29.090002</ele>
<time>2026-08-31T21:35:03.000Z</time>
</trkpt>
<trkpt lat="59.5314085" lon="31.2275859">
<ele>29.520000</ele>
<time>2026-08-31T21:35:06.000Z</time>
</trkpt>
<trkpt lat="59.5313871" lon="31.2275273">
<ele>29.070000</ele>
<time>2026-08-31T21:35:09.000Z</time>
</trkpt>
<trkpt lat="59.5313752" lon="31.2275143">
<ele>28.929998</ele>
<time>2026-08-31T21:35:10.000Z</time>
</trkpt>
<trkpt lat="59.5313038" lon="31.2273199">
<ele>28.830000</ele>
<time>2026-08-31T21:35:23.000Z</time>
</trkpt>
<trkpt lat="59.5312160" lon="31.2271621">
<ele>28.690001</ele>
<time>2026-08-31T21:35:35.000Z</time>
</trkpt>
<trkpt lat="59.5310776" lon="31.2269391">
<ele>28.830000</ele>
<time>2026-08-31T21:35:52.000Z</time>
</trkpt>
<trkpt lat="59.5309536" lon="31.2267374">
<ele>28.920000</ele>
<time>2026-08-31T21:36:04.000Z</time>
</trkpt>
<trkpt lat="59.5308279" lon="31.2265293">
<ele>28.539999</ele>
<time>2026-08-31T21:36:18.000Z</time>
</trkpt>
<trkpt lat="59.5306919" lon="31.2263778">
<ele>28.610001</ele>
<time>2026-08-31T21:36:32.000Z</time>
</trkpt>
<trkpt lat="59.5306823" lon="31.2263633">
<ele>28.629999</ele>
<time>2026-08-31T21:36:33.000Z</time>
</trkpt>
<trkpt lat="59.5306741" lon="31.2263474">
<ele>28.629999</ele>
<time>2026-08-31T21:36:34.000Z</time>
</trkpt>
<trkpt lat="59.5305331" lon="31.2261394">
<ele>28.279999</ele>
<time>2026-08-31T21:36:50.000Z</time>
</trkpt>
<trkpt lat="59.5304257" lon="31.2258988">
<ele>28.160000</ele>
<time>2026-08-31T21:37:06.000Z</time>
</trkpt>
<trkpt lat="59.5304178" lon="31.2258699">
<ele>27.829998</ele>
<time>2026-08-31T21:37:08.000Z</time>
</trkpt>
<trkpt lat="59.5304085" lon="31.2258529">
<ele>27.639999</ele>
<time>2026-08-31T21:37:09.000Z</time>
</trkpt>
<trkpt lat="59.5303947" lon="31.2258362">
<ele>27.829998</ele>
<time>2026-08-31T21:37:10.000Z</time>
</trkpt>
<trkpt lat="59.5303871" lon="31.2258174">
<ele>27.439999</ele>
<time>2026-08-31T21:37:11.000Z</time>
</trkpt>
<trkpt lat="59.5303516" lon="31.2257533">
<ele>28.040001</ele>
<time>2026-08-31T21:37:17.000Z</time>
</trkpt>
<trkpt lat="59.5303398" lon="31.2257417">
<ele>28.300001</ele>
<time>2026-08-31T21:37:18.000Z</time>
</trkpt>
<trkpt lat="59.5303299" lon="31.2257205">
<ele>27.840000</ele>
<time>2026-08-31T21:37:19.000Z</time>
</trkpt>
<trkpt lat="59.5303176" lon="31.2257065">
<ele>27.869999</ele>
<time>2026-08-31T21:37:20.000Z</time>
</trkpt>
<trkpt lat="59.5302128" lon="31.2255560">
<ele>27.629999</ele>
<time>2026-08-31T21:37:34.000Z</time>
</trkpt>
<trkpt lat="59.5300653" lon="31.2253552">
<ele>27.920000</ele>
<time>2026-08-31T21:37:50.000Z</time>
</trkpt>
<trkpt lat="59.5300210" lon="31.2252749">
<ele>27.250000</ele>
<time>2026-08-31T21:37:55.000Z</time>
</trkpt>
<trkpt lat="59.5299790" lon="31.2251910">
<ele>27.840000</ele>
<time>2026-08-31T21:38:02.000Z</time>
</trkpt>
<trkpt lat="59.5299292" lon="31.2251200">
<ele>27.449999</ele>
<time>2026-08-31T21:38:17.000Z</time>
</trkpt>
<trkpt lat="59.5298468" lon="31.2249877">
<ele>27.200001</ele>
<time>2026-08-31T21:38:33.000Z</time>
</trkpt>
<trkpt lat="59.5297068" lon="31.2248513">
<ele>27.049999</ele>
<time>2026-08-31T21:38:47.000Z</time>
</trkpt>
<trkpt lat="59.5295690" lon="31.2247044">
<ele>26.540001</ele>
<time>2026-08-31T21:39:03.000Z</time>
</trkpt>
<trkpt lat="59.5294435" lon="31.2245804">
<ele>26.850000</ele>
<time>2026-08-31T21:39:20.000Z</time>
</trkpt>
<trkpt lat="59.5293350" lon="31.2245133">
<ele>26.820000</ele>
<time>2026-08-31T21:39:38.000Z</time>
</trkpt>
<trkpt lat="59.5292117" lon="31.2244562">
<ele>27.029999</ele>
<time>2026-08-31T21:39:48.000Z</time>
</trkpt>
<trkpt lat="59.5290586" lon="31.2243600">
<ele>26.620001</ele>
<time>2026-08-31T21:40:04.000Z</time>
</trkpt>
<trkpt lat="59.5288393" lon="31.2243908">
<ele>27.000000</ele>
<time>2026-08-31T21:40:22.000Z</time>
</trkpt>
<trkpt lat="59.5288149" lon="31.2244048">
<ele>27.389999</ele>
<time>2026-08-31T21:40:25.000Z</time>
</trkpt>
<trkpt lat="59.5286708" lon="31.2244961">
<ele>26.730001</ele>
<time>2026-08-31T21:40:41.000Z</time>
</trkpt>
<trkpt lat="59.5284926" lon="31.2245703">
<ele>25.949999</ele>
<time>2026-08-31T21:41:00.000Z</time>
</trkpt>
<trkpt lat="59.5283913" lon="31.2246436">
<ele>25.879999</ele>
<time>2026-08-31T21:41:16.000Z</time>
</trkpt>
<trkpt lat="59.5283232" lon="31.2247881">
<ele>25.769999</ele>
<time>2026-08-31T21:41:34.000Z</time>
</trkpt>
<trkpt lat="59.5282274" lon="31.2248444">
<ele>25.140001</ele>
<time>2026-08-31T21:42:02.000Z</time>
</trkpt>
<trkpt lat="59.5282425" lon="31.2248553">
<ele>24.320000</ele>
<time>2026-08-31T21:42:20.000Z</time>
</trkpt>
<trkpt lat="59.5282516" lon="31.2248554">
<ele>25.860001</ele>
<time>2026-08-31T21:42:25.000Z</time>
</trkpt>
<trkpt lat="59.5282794" lon="31.2248302">
<ele>25.580000</ele>
<time>2026-08-31T21:42:43.000Z</time>
</trkpt>
<trkpt lat="59.5282873" lon="31.2247804">
<ele>24.830000</ele>
<time>2026-08-31T21:43:07.000Z</time>
</trkpt>
<trkpt lat="59.5282917" lon="31.2247798">
<ele>25.260000</ele>
<time>2026-08-31T21:43:33.000Z</time>
</trkpt>
<trkpt lat="59.5283068" lon="31.2249259">
<ele>25.320002</ele>
<time>2026-08-31T21:45:05.000Z</time>
</trkpt>
<trkpt lat="59.5282129" lon="31.2247881">
<ele>24.830000</ele>
<time>2026-08-31T21:45:31.000Z</time>
</trkpt>
<trkpt lat="59.5282494" lon="31.2247915">
<ele>24.910000</ele>
<time>2026-08-31T21:46:14.000Z</time>
</trkpt>
<trkpt lat="59.5282894" lon="31.2248199">
<ele>25.030001</ele>
<time>2026-08-31T21:46:45.000Z</time>
</trkpt>
<trkpt lat="59.5283105" lon="31.2248478">
<ele>24.969999</ele>
<time>2026-08-31T21:47:10.000Z</time>
</trkpt>
<trkpt lat="59.5283229" lon="31.2248379">
<ele>25.230000</ele>
<time>2026-08-31T21:47:41.000Z</time>
</trkpt>
<trkpt lat="59.5283382" lon="31.2248664">
<ele>25.180000</ele>
<time>2026-08-31T21:48:12.000Z</time>
</trkpt>
<trkpt lat="59.5283334" lon="31.2249309">
<ele>24.530001</ele>
<time>2026-08-31T21:48:37.000Z</time>
</trkpt>
<trkpt lat="59.5283490" lon="31.2248938">
<ele>25.080000</ele>
<time>2026-08-31T21:49:05.000Z</time>
</trkpt>
<trkpt lat="59.5283388" lon="31.2248698">
<ele>24.720001</ele>
<time>2026-08-31T21:49:31.000Z</time>
</trkpt>
<trkpt lat="59.5283537" lon="31.2248559">
<ele>24.959999</ele>
<time>2026-08-31T21:49:55.000Z</time>
</trkpt>
<trkpt lat="59.5283569" lon="31.2248430">
<ele>24.760000</ele>
<time>2026-08-31T21:50:16.000Z</time>
</trkpt>
<trkpt lat="59.5283784" lon="31.2248270">
<ele>25.000000</ele>
<time>2026-08-31T21:50:47.000Z</time>
</trkpt>
<trkpt lat="59.5283959" lon="31.2248378">
<ele>25.190001</ele>
<time>2026-08-31T21:51:13.000Z</time>
</trkpt>
<trkpt lat="59.5283910" lon="31.2248131">
<ele>24.779999</ele>
<time>2026-08-31T21:51:39.000Z</time>
</trkpt>
<trkpt lat="59.5284048" lon="31.2246857">
<ele>24.750000</ele>
<time>2026-08-31T21:52:06.000Z</time>
</trkpt>
<trkpt lat="59.5284070" lon="31.2247332">
<ele>25.570000</ele>
<time>2026-08-31T21:52:28.000Z</time>
</trkpt>
<trkpt lat="59.5283615" lon="31.2248685">
<ele>24.910000</ele>
<time>2026-08-31T21:52:46.000Z</time>
</trkpt>
<trkpt lat="59.5282959" lon="31.2248218">
<ele>24.830000</ele>
<time>2026-08-31T21:53:14.000Z</time>
</trkpt>
<trkpt lat="59.5283104" lon="31.2248647">
<ele>25.360001</ele>
<time>2026-08-31T21:53:39.000Z</time>
</trkpt>
<trkpt lat="59.5283177" lon="31.2248696">
<ele>25.539999</ele>
<time>2026-08-31T21:54:06.000Z</time>
</trkpt>
<trkpt lat="59.5283186" lon="31.2248652">
<ele>25.769999</ele>
<time>2026-08-31T21:54:48.000Z</time>
</trkpt>
<trkpt lat="59.5283450" lon="31.2249300">
<ele>25.710001</ele>
<time>2026-08-31T21:55:21.000Z</time>
</trkpt>
<trkpt lat="59.5282985" lon="31.2249006">
<ele>25.600000</ele>
<time>2026-08-31T21:55:42.000Z</time>
</trkpt>
<trkpt lat="59.5282534" lon="31.2248482">
<ele>25.930000</ele>
<time>2026-08-31T21:56:11.000Z</time>
</trkpt>
<trkpt lat="59.5282729" lon="31.2247741">
<ele>26.270000</ele>
<time>2026-08-31T21:56:32.000Z</time>
</trkpt>
<trkpt lat="59.5282833" lon="31.2247883">
<ele>26.150000</ele>
<time>2026-08-31T21:56:53.000Z</time>
</trkpt>
<trkpt lat="59.5282963" lon="31.2247986">
<ele>26.100000</ele>
<time>2026-08-31T21:57:21.000Z</time>
</trkpt>
<trkpt lat="59.5283066" lon="31.2248331">
<ele>25.790001</ele>
<time>2026-08-31T21:57:52.000Z</time>
</trkpt>
<trkpt lat="59.5283523" lon="31.2247598">
<ele>26.540001</ele>
<time>2026-08-31T21:58:17.000Z</time>
</trkpt>
<trkpt lat="59.5283229" lon="31.2247067">
<ele>26.449999</ele>
<time>2026-08-31T21:58:45.000Z</time>
</trkpt>
<trkpt lat="59.5282840" lon="31.2246814">
<ele>26.139999</ele>
<time>2026-08-31T21:59:17.000Z</time>
</trkpt>
<trkpt lat="59.5283405" lon="31.2247053">
<ele>26.930000</ele>
<time>2026-08-31T21:59:45.000Z</time>
</trkpt>
<trkpt lat="59.5283599" lon="31.2247219">
<ele>25.949999</ele>
<time>2026-08-31T22:00:11.000Z</time>
</trkpt>
<trkpt lat="59.5282958" lon="31.2246670">
<ele>26.719999</ele>
<time>2026-08-31T22:00:43.000Z</time>
</trkpt>
<trkpt lat="59.5283743" lon="31.2247487">
<ele>26.660000</ele>
<time>2026-08-31T22:01:11.000Z</time>
</trkpt>
<trkpt lat="59.5283414" lon="31.2247608">
<ele>27.150002</ele>
<time>2026-08-31T22:01:32.000Z</time>
</trkpt>
<trkpt lat="59.5283568" lon="31.2247234">
<ele>27.090000</ele>
<time>2026-08-31T22:01:58.000Z</time>
</trkpt>
<trkpt lat="59.5282979" lon="31.2247644">
<ele>26.780001</ele>
<time>2026-08-31T22:02:20.000Z</time>
</trkpt>
<trkpt lat="59.5282299" lon="31.2248289">
<ele>26.910000</ele>
<time>2026-08-31T22:02:41.000Z</time>
</trkpt>
<trkpt lat="59.5281350" lon="31.2248389">
<ele>26.250000</ele>
<time>2026-08-31T22:03:00.000Z</time>
</trkpt>
<trkpt lat="59.5281245" lon="31.2248580">
<ele>26.160002</ele>
<time>2026-08-31T22:03:31.000Z</time>
</trkpt>
<trkpt lat="59.5280860" lon="31.2248710">
<ele>26.139999</ele>
<time>2026-08-31T22:03:53.000Z</time>
</trkpt>
<trkpt lat="59.5280386" lon="31.2249528">
<ele>26.039999</ele>
<time>2026-08-31T22:04:13.000Z</time>
</trkpt>
<trkpt lat="59.5280307" lon="31.2250621">
<ele>26.280001</ele>
<time>2026-08-31T22:04:33.000Z</time>
</trkpt>
<trkpt lat="59.5280567" lon="31.2250934">
<ele>26.430000</ele>
<time>2026-08-31T22:04:55.000Z</time>
</trkpt>
<trkpt lat="59.5279775" lon="31.2250569">
<ele>26.600000</ele>
<time>2026-08-31T22:05:23.000Z</time>
</trkpt>
<trkpt lat="59.5280243" lon="31.2250690">
<ele>26.400000</ele>
<time>2026-08-31T22:05:53.000Z</time>
</trkpt>
<trkpt lat="59.5279904" lon="31.2250967">
<ele>26.639999</ele>
<time>2026-08-31T22:06:28.000Z</time>
</trkpt>
<trkpt lat="59.5280036" lon="31.2250458">
<ele>27.160000</ele>
<time>2026-08-31T22:07:00.000Z</time>
</trkpt>
<trkpt lat="59.5280597" lon="31.2249578">
<ele>27.320000</ele>
<time>2026-08-31T22:07:22.000Z</time>
</trkpt>
<trkpt lat="59.5280886" lon="31.2248189">
<ele>26.960001</ele>
<time>2026-08-31T22:07:41.000Z</time>
</trkpt>
<trkpt lat="59.5280917" lon="31.2247911">
<ele>27.449999</ele>
<time>2026-08-31T22:07:44.000Z</time>
</trkpt>
<trkpt lat="59.5281092" lon="31.2246394">
<ele>26.580000</ele>
<time>2026-08-31T22:08:03.000Z</time>
</trkpt>
<trkpt lat="59.5281582" lon="31.2245652">
<ele>27.250000</ele>
<time>2026-08-31T22:08:18.000Z</time>
</trkpt>
<trkpt lat="59.5281037" lon="31.2244661">
<ele>27.170000</ele>
<time>2026-08-31T22:08:47.000Z</time>
</trkpt>
<trkpt lat="59.5280993" lon="31.2244577">
<ele>27.310001</ele>
<time>2026-08-31T22:08:48.000Z</time>
</trkpt>
<trkpt lat="59.5280712" lon="31.2244201">
<ele>27.010000</ele>
<time>2026-08-31T22:09:02.000Z</time>
</trkpt>
<trkpt lat="59.5280646" lon="31.2244194">
<ele>27.610001</ele>
<time>2026-08-31T22:09:03.000Z</time>
</trkpt>
<trkpt lat="59.5279721" lon="31.2243592">
<ele>27.340000</ele>
<time>2026-08-31T22:09:15.000Z</time>
</trkpt>
<trkpt lat="59.5278993" lon="31.2243102">
<ele>27.350000</ele>
<time>2026-08-31T22:09:29.000Z</time>
</trkpt>
<trkpt lat="59.5278497" lon="31.2242392">
<ele>27.920000</ele>
<time>2026-08-31T22:09:40.000Z</time>
</trkpt>
<trkpt lat="59.5277917" lon="31.2240596">
<ele>27.590000</ele>
<time>2026-08-31T22:09:55.000Z</time>
</trkpt>
<trkpt lat="59.5277618" lon="31.2238812">
<ele>27.400000</ele>
<time>2026-08-31T22:10:09.000Z</time>
</trkpt>
<trkpt lat="59.5277561" lon="31.2237461">
<ele>27.629999</ele>
<time>2026-08-31T22:10:21.000Z</time>
</trkpt>
<trkpt lat="59.5277524" lon="31.2235107">
<ele>27.410000</ele>
<time>2026-08-31T22:10:36.000Z</time>
</trkpt>
<trkpt lat="59.5277340" lon="31.2233073">
<ele>28.080000</ele>
<time>2026-08-31T22:10:49.000Z</time>
</trkpt>
<trkpt lat="59.5277193" lon="31.2231397">
<ele>27.889999</ele>
<time>2026-08-31T22:11:02.000Z</time>
</trkpt>
<trkpt lat="59.5277115" lon="31.2229258">
<ele>28.209999</ele>
<time>2026-08-31T22:11:20.000Z</time>
</trkpt>
<trkpt lat="59.5276489" lon="31.2227343">
<ele>28.889999</ele>
<time>2026-08-31T22:11:36.000Z</time>
</trkpt>
<trkpt lat="59.5276296" lon="31.2224779">
<ele>30.070000</ele>
<time>2026-08-31T22:11:54.000Z</time>
</trkpt>
<trkpt lat="59.5275869" lon="31.2222891">
<ele>30.240000</ele>
<time>2026-08-31T22:12:09.000Z</time>
</trkpt>
<trkpt lat="59.5276183" lon="31.2222791">
<ele>30.330000</ele>
<time>2026-08-31T22:12:40.000Z</time>
</trkpt>
<trkpt lat="59.5276221" lon="31.2223637">
<ele>30.039999</ele>
<time>2026-08-31T22:13:12.000Z</time>
</trkpt>
<trkpt lat="59.5276100" lon="31.2223329">
<ele>30.559999</ele>
<time>2026-08-31T22:13:44.000Z</time>
</trkpt>
<trkpt lat="59.5276199" lon="31.2222804">
<ele>30.830000</ele>
<time>2026-08-31T22:14:12.000Z</time>
</trkpt>
<trkpt lat="59.5276000" lon="31.2222799">
<ele>30.180000</ele>
<time>2026-08-31T22:14:38.000Z</time>
</trkpt>
<trkpt lat="59.5276113" lon="31.2222939">
<ele>30.540001</ele>
<time>2026-08-31T22:15:13.000Z</time>
</trkpt>
<trkpt lat="59.5276038" lon="31.2223078">
<ele>30.550001</ele>
<time>2026-08-31T22:15:48.000Z</time>
</trkpt>
<trkpt lat="59.5276180" lon="31.2223304">
<ele>30.650000</ele>
<time>2026-08-31T22:16:17.000Z</time>
</trkpt>
<trkpt lat="59.5276018" lon="31.2223344">
<ele>30.970001</ele>
<time>2026-08-31T22:16:47.000Z</time>
</trkpt>
<trkpt lat="59.5276549" lon="31.2221173">
<ele>30.960001</ele>
<time>2026-08-31T22:17:10.000Z</time>
</trkpt>
<trkpt lat="59.5276065" lon="31.2219204">
<ele>31.709999</ele>
<time>2026-08-31T22:17:28.000Z</time>
</trkpt>
<trkpt lat="59.5275760" lon="31.2218062">
<ele>32.220001</ele>
<time>2026-08-31T22:17:46.000Z</time>
</trkpt>
<trkpt lat="59.5275862" lon="31.2216614">
<ele>31.960001</ele>
<time>2026-08-31T22:18:01.000Z</time>
</trkpt>
<trkpt lat="59.5275700" lon="31.2214366">
<ele>31.500000</ele>
<time>2026-08-31T22:18:17.000Z</time>
</trkpt>
<trkpt lat="59.5275130" lon="31.2211864">
<ele>32.370003</ele>
<time>2026-08-31T22:18:33.000Z</time>
</trkpt>
<trkpt lat="59.5274876" lon="31.2208851">
<ele>31.809999</ele>
<time>2026-08-31T22:18:55.000Z</time>
</trkpt>
<trkpt lat="59.5274388" lon="31.2205850">
<ele>32.509998</ele>
<time>2026-08-31T22:19:18.000Z</time>
</trkpt>
<trkpt lat="59.5273770" lon="31.2202780">
<ele>33.469997</ele>
<time>2026-08-31T22:19:41.000Z</time>
</trkpt>
<trkpt lat="59.5273455" lon="31.2200400">
<ele>33.540001</ele>
<time>2026-08-31T22:19:57.000Z</time>
</trkpt>
<trkpt lat="59.5273248" lon="31.2198938">
<ele>33.529999</ele>
<time>2026-08-31T22:20:18.000Z</time>
</trkpt>
<trkpt lat="59.5272997" lon="31.2197475">
<ele>34.110001</ele>
<time>2026-08-31T22:20:33.000Z</time>
</trkpt>
<trkpt lat="59.5272674" lon="31.2195298">
<ele>33.849998</ele>
<time>2026-08-31T22:20:55.000Z</time>
</trkpt>
<trkpt lat="59.5272470" lon="31.2194717">
<ele>34.510002</ele>
<time>2026-08-31T22:21:25.000Z</time>
</trkpt>
<trkpt lat="59.5272428" lon="31.2194666">
<ele>32.880001</ele>
<time>2026-08-31T22:21:28.000Z</time>
</trkpt>
<trkpt lat="59.5271724" lon="31.2194044">
<ele>34.389999</ele>
<time>2026-08-31T22:21:45.000Z</time>
</trkpt>
<trkpt lat="59.5271845" lon="31.2194281">
<ele>34.810001</ele>
<time>2026-08-31T22:22:17.000Z</time>
</trkpt>
<trkpt lat="59.5271922" lon="31.2194160">
<ele>35.160000</ele>
<time>2026-08-31T22:22:46.000Z</time>
</trkpt>
<trkpt lat="59.5272220" lon="31.2193980">
<ele>34.829998</ele>
<time>2026-08-31T22:23:29.000Z</time>
</trkpt>
<trkpt lat="59.5272385" lon="31.2194188">
<ele>35.169998</ele>
<time>2026-08-31T22:24:09.000Z</time>
</trkpt>
<trkpt lat="59.5272402" lon="31.2194251">
<ele>35.779999</ele>
<time>2026-08-31T22:24:34.000Z</time>
</trkpt>
<trkpt lat="59.5272702" lon="31.2191707">
<ele>35.180000</ele>
<time>2026-08-31T22:24:53.000Z</time>
</trkpt>
<trkpt lat="59.5272217" lon="31.2189048">
<ele>35.180000</ele>
<time>2026-08-31T22:25:09.000Z</time>
</trkpt>
<trkpt lat="59.5271260" lon="31.2186908">
<ele>34.120003</ele>
<time>2026-08-31T22:25:24.000Z</time>
</trkpt>
<trkpt lat="59.5270046" lon="31.2184494">
<ele>33.709999</ele>
<time>2026-08-31T22:25:42.000Z</time>
</trkpt>
<trkpt lat="59.5269127" lon="31.2183041">
<ele>33.119999</ele>
<time>2026-08-31T22:26:00.000Z</time>
</trkpt>
<trkpt lat="59.5267338" lon="31.2179358">
<ele>33.180000</ele>
<time>2026-08-31T22:26:24.000Z</time>
</trkpt>
<trkpt lat="59.5266439" lon="31.2176430">
<ele>34.500000</ele>
<time>2026-08-31T22:26:45.000Z</time>
</trkpt>
<trkpt lat="59.5266428" lon="31.2176320">
<ele>34.570000</ele>
<time>2026-08-31T22:26:46.000Z</time>
</trkpt>
<trkpt lat="59.5265025" lon="31.2173409">
<ele>34.599998</ele>
<time>2026-08-31T22:27:07.000Z</time>
</trkpt>
<trkpt lat="59.5264228" lon="31.2170629">
<ele>34.770000</ele>
<time>2026-08-31T22:27:26.000Z</time>
</trkpt>
<trkpt lat="59.5263428" lon="31.2169449">
<ele>34.639999</ele>
<time>2026-08-31T22:27:51.000Z</time>
</trkpt>
<trkpt lat="59.5263554" lon="31.2169086">
<ele>34.869999</ele>
<time>2026-08-31T22:28:41.000Z</time>
</trkpt>
<trkpt lat="59.5263772" lon="31.2169019">
<ele>35.150002</ele>
<time>2026-08-31T22:29:16.000Z</time>
</trkpt>
<trkpt lat="59.5263693" lon="31.2169171">
<ele>35.360001</ele>
<time>2026-08-31T22:29:46.000Z</time>
</trkpt>
<trkpt lat="59.5263750" lon="31.2168971">
<ele>35.230000</ele>
<time>2026-08-31T22:30:27.000Z</time>
</trkpt>
<trkpt lat="59.5263522" lon="31.2165730">
<ele>35.950001</ele>
<time>2026-08-31T22:30:50.000Z</time>
</trkpt>
<trkpt lat="59.5263838" lon="31.2162048">
<ele>36.439999</ele>
<time>2026-08-31T22:31:09.000Z</time>
</trkpt>
<trkpt lat="59.5264098" lon="31.2159305">
<ele>36.439999</ele>
<time>2026-08-31T22:31:27.000Z</time>
</trkpt>
<trkpt lat="59.5263798" lon="31.2156602">
<ele>35.770000</ele>
<time>2026-08-31T22:31:42.000Z</time>
</trkpt>
<trkpt lat="59.5262909" lon="31.2153495">
<ele>36.410000</ele>
<time>2026-08-31T22:32:00.000Z</time>
</trkpt>
<trkpt lat="59.5262337" lon="31.2151751">
<ele>36.639999</ele>
<time>2026-08-31T22:32:17.000Z</time>
</trkpt>
<trkpt lat="59.5262107" lon="31.2150333">
<ele>36.660000</ele>
<time>2026-08-31T22:32:32.000Z</time>
</trkpt>
<trkpt lat="59.5261746" lon="31.2148727">
<ele>36.480000</ele>
<time>2026-08-31T22:32:46.000Z</time>
</trkpt>
<trkpt lat="59.5261091" lon="31.2148604">
<ele>36.629997</ele>
<time>2026-08-31T22:33:24.000Z</time>
</trkpt>
<trkpt lat="59.5261261" lon="31.2148523">
<ele>37.349998</ele>
<time>2026-08-31T22:33:54.000Z</time>
</trkpt>
<trkpt lat="59.5261485" lon="31.2148283">
<ele>35.500000</ele>
<time>2026-08-31T22:34:27.000Z</time>
</trkpt>
<trkpt lat="59.5261482" lon="31.2148280">
<ele>38.649998</ele>
<time>2026-08-31T22:34:28.000Z</time>
</trkpt>
<trkpt lat="59.5261539" lon="31.2147532">
<ele>36.849998</ele>
<time>2026-08-31T22:34:56.000Z</time>
</trkpt>
<trkpt lat="59.5261421" lon="31.2146511">
<ele>37.130001</ele>
<time>2026-08-31T22:35:01.000Z</time>
</trkpt>
<trkpt lat="59.5260759" lon="31.2144061">
<ele>37.349998</ele>
<time>2026-08-31T22:35:16.000Z</time>
</trkpt>
<trkpt lat="59.5260140" lon="31.2142347">
<ele>37.889999</ele>
<time>2026-08-31T22:35:33.000Z</time>
</trkpt>
<trkpt lat="59.5259132" lon="31.2139806">
<ele>38.930000</ele>
<time>2026-08-31T22:35:48.000Z</time>
</trkpt>
<trkpt lat="59.5258170" lon="31.2138230">
<ele>37.430000</ele>
<time>2026-08-31T22:36:02.000Z</time>
</trkpt>
<trkpt lat="59.5257455" lon="31.2136077">
<ele>37.959999</ele>
<time>2026-08-31T22:36:19.000Z</time>
</trkpt>
<trkpt lat="59.5257096" lon="31.2135224">
<ele>37.660000</ele>
<time>2026-08-31T22:36:24.000Z</time>
</trkpt>
<trkpt lat="59.5256495" lon="31.2132592">
<ele>37.299999</ele>
<time>2026-08-31T22:36:41.000Z</time>
</trkpt>
<trkpt lat="59.5256155" lon="31.2131721">
<ele>37.290001</ele>
<time>2026-08-31T22:36:47.000Z</time>
</trkpt>
<trkpt lat="59.5254638" lon="31.2129293">
<ele>36.880001</ele>
<time>2026-08-31T22:37:08.000Z</time>
</trkpt>
<trkpt lat="59.5253580" lon="31.2126986">
<ele>36.919998</ele>
<time>2026-08-31T22:37:28.000Z</time>
</trkpt>
<trkpt lat="59.5252935" lon="31.2126288">
<ele>36.360001</ele>
<time>2026-08-31T22:37:34.000Z</time>
</trkpt>
<trkpt lat="59.5251206" lon="31.2124154">
<ele>35.970001</ele>
<time>2026-08-31T22:37:57.000Z</time>
</trkpt>
<trkpt lat="59.5250220" lon="31.2122878">
<ele>36.110001</ele>
<time>2026-08-31T22:38:18.000Z</time>
</trkpt>
<trkpt lat="59.5248739" lon="31.2122999">
<ele>35.619999</ele>
<time>2026-08-31T22:38:39.000Z</time>
</trkpt>
<trkpt lat="59.5246614" lon="31.2124832">
<ele>35.889999</ele>
<time>2026-08-31T22:38:59.000Z</time>
</trkpt>
<trkpt lat="59.5244653" lon="31.2127254">
<ele>35.410000</ele>
<time>2026-08-31T22:39:20.000Z</time>
</trkpt>
<trkpt lat="59.5242984" lon="31.2128002">
<ele>35.570000</ele>
<time>2026-08-31T22:39:40.000Z</time>
</trkpt>
<trkpt lat="59.5241511" lon="31.2128000">
<ele>35.389999</ele>
<time>2026-08-31T22:39:58.000Z</time>
</trkpt>
<trkpt lat="59.5240104" lon="31.2127687">
<ele>35.590000</ele>
<time>2026-08-31T22:40:16.000Z</time>
</trkpt>
<trkpt lat="59.5239736" lon="31.2127422">
<ele>35.450001</ele>
<time>2026-08-31T22:40:19.000Z</time>
</trkpt>
<trkpt lat="59.5239003" lon="31.2124970">
<ele>36.049999</ele>
<time>2026-08-31T22:40:35.000Z</time>
</trkpt>
<trkpt lat="59.5238552" lon="31.2122310">
<ele>37.119999</ele>
<time>2026-08-31T22:40:50.000Z</time>
</trkpt>
<trkpt lat="59.5237810" lon="31.2119039">
<ele>37.400002</ele>
<time>2026-08-31T22:41:05.000Z</time>
</trkpt>
<trkpt lat="59.5237270" lon="31.2116081">
<ele>36.739998</ele>
<time>2026-08-31T22:41:20.000Z</time>
</trkpt>
<trkpt lat="59.5236473" lon="31.2112988">
<ele>36.080002</ele>
<time>2026-08-31T22:41:37.000Z</time>
</trkpt>
<trkpt lat="59.5236280" lon="31.2112326">
<ele>36.119999</ele>
<time>2026-08-31T22:41:40.000Z</time>
</trkpt>
<trkpt lat="59.5234271" lon="31.2110672">
<ele>36.119999</ele>
<time>2026-08-31T22:41:58.000Z</time>
</trkpt>
<trkpt lat="59.5232845" lon="31.2110696">
<ele>37.119999</ele>
<time>2026-08-31T22:42:14.000Z</time>
</trkpt>
<trkpt lat="59.5231203" lon="31.2111534">
<ele>36.730000</ele>
<time>2026-08-31T22:42:31.000Z</time>
</trkpt>
<trkpt lat="59.5228935" lon="31.2111184">
<ele>37.809998</ele>
<time>2026-08-31T22:42:52.000Z</time>
</trkpt>
<trkpt lat="59.5227381" lon="31.2110039">
<ele>37.989998</ele>
<time>2026-08-31T22:43:07.000Z</time>
</trkpt>
<trkpt lat="59.5226093" lon="31.2108804">
<ele>37.610001</ele>
<time>2026-08-31T22:43:20.000Z</time>
</trkpt>
<trkpt lat="59.5224990" lon="31.2107842">
<ele>37.279999</ele>
<time>2026-08-31T22:43:33.000Z</time>
</trkpt>
<trkpt lat="59.5224243" lon="31.2107652">
<ele>37.950001</ele>
<time>2026-08-31T22:43:41.000Z</time>
</trkpt>
<trkpt lat="59.5222381" lon="31.2107808">
<ele>37.950001</ele>
<time>2026-08-31T22:43:59.000Z</time>
</trkpt>
<trkpt lat="59.5222275" lon="31.2107887">
<ele>38.599998</ele>
<time>2026-08-31T22:44:00.000Z</time>
</trkpt>
<trkpt lat="59.5219905" lon="31.2108465">
<ele>38.459999</ele>
<time>2026-08-31T22:44:20.000Z</time>
</trkpt>
<trkpt lat="59.5218405" lon="31.2108991">
<ele>37.469997</ele>
<time>2026-08-31T22:44:39.000Z</time>
</trkpt>
<trkpt lat="59.5218077" lon="31.2108853">
<ele>38.209999</ele>
<time>2026-08-31T22:44:43.000Z</time>
</trkpt>
<trkpt lat="59.5216174" lon="31.2108729">
<ele>37.780003</ele>
<time>2026-08-31T22:45:01.000Z</time>
</trkpt>
<trkpt lat="59.5214854" lon="31.2108225">
<ele>37.500000</ele>
<time>2026-08-31T22:45:15.000Z</time>
</trkpt>
<trkpt lat="59.5214570" lon="31.2108029">
<ele>36.860001</ele>
<time>2026-08-31T22:45:18.000Z</time>
</trkpt>
<trkpt lat="59.5212965" lon="31.2107215">
<ele>36.130001</ele>
<time>2026-08-31T22:45:38.000Z</time>
</trkpt>
<trkpt lat="59.5212868" lon="31.2107156">
<ele>36.260002</ele>
<time>2026-08-31T22:45:39.000Z</time>
</trkpt>
<trkpt lat="59.5210616" lon="31.2105240">
<ele>35.810001</ele>
<time>2026-08-31T22:45:58.000Z</time>
</trkpt>
<trkpt lat="59.5209641" lon="31.2105190">
<ele>35.619999</ele>
<time>2026-08-31T22:46:13.000Z</time>
</trkpt>
<trkpt lat="59.5208854" lon="31.2104988">
<ele>35.240002</ele>
<time>2026-08-31T22:46:28.000Z</time>
</trkpt>
<trkpt lat="59.5207556" lon="31.2105690">
<ele>35.920002</ele>
<time>2026-08-31T22:46:43.000Z</time>
</trkpt>
<trkpt lat="59.5207363" lon="31.2105728">
<ele>35.709999</ele>
<time>2026-08-31T22:46:45.000Z</time>
</trkpt>
<trkpt lat="59.5206335" lon="31.2106172">
<ele>35.840000</ele>
<time>2026-08-31T22:47:03.000Z</time>
</trkpt>
<trkpt lat="59.5205809" lon="31.2106331">
<ele>35.139999</ele>
<time>2026-08-31T22:47:12.000Z</time>
</trkpt>
<trkpt lat="59.5204687" lon="31.2105721">
<ele>35.459999</ele>
<time>2026-08-31T22:47:27.000Z</time>
</trkpt>
<trkpt lat="59.5204794" lon="31.2105806">
<ele>35.259998</ele>
<time>2026-08-31T22:47:31.000Z</time>
</trkpt>
<trkpt lat="59.5204722" lon="31.2106239">
<ele>35.660000</ele>
<time>2026-08-31T22:47:48.000Z</time>
</trkpt>
<trkpt lat="59.5204087" lon="31.2105832">
<ele>35.770000</ele>
<time>2026-08-31T22:48:04.000Z</time>
</trkpt>
<trkpt lat="59.5204101" lon="31.2105937">
<ele>35.450001</ele>
<time>2026-08-31T22:48:22.000Z</time>
</trkpt>
<trkpt lat="59.5204062" lon="31.2106412">
<ele>35.639999</ele>
<time>2026-08-31T22:48:48.000Z</time>
</trkpt>
<trkpt lat="59.5204125" lon="31.2105969">
<ele>35.869999</ele>
<time>2026-08-31T22:49:36.000Z</time>
</trkpt>
<trkpt lat="59.5204117" lon="31.2105697">
<ele>35.380001</ele>
<time>2026-08-31T22:50:02.000Z</time>
</trkpt>
<trkpt lat="59.5203641" lon="31.2106192">
<ele>36.090000</ele>
<time>2026-08-31T22:50:17.000Z</time>
</trkpt>
<trkpt lat="59.5203202" lon="31.2106517">
<ele>36.370003</ele>
<time>2026-08-31T22:50:33.000Z</time>
</trkpt>
<trkpt lat="59.5203175" lon="31.2106708">
<ele>36.380001</ele>
<time>2026-08-31T22:50:59.000Z</time>
</trkpt>
<trkpt lat="59.5202705" lon="31.2106837">
<ele>36.600002</ele>
<time>2026-08-31T22:51:34.000Z</time>
</trkpt>
<trkpt lat="59.5202447" lon="31.2106990">
<ele>37.090000</ele>
<time>2026-08-31T22:52:09.000Z</time>
</trkpt>
<trkpt lat="59.5202543" lon="31.2107247">
<ele>37.160000</ele>
<time>2026-08-31T22:52:34.000Z</time>
</trkpt>
<trkpt lat="59.5202847" lon="31.2107542">
<ele>37.259998</ele>
<time>2026-08-31T22:53:06.000Z</time>
</trkpt>
<trkpt lat="59.5202810" lon="31.2108156">
<ele>37.649998</ele>
<time>2026-08-31T22:53:37.000Z</time>
</trkpt>
<trkpt lat="59.5202408" lon="31.2109468">
<ele>37.709999</ele>
<time>2026-08-31T22:53:58.000Z</time>
</trkpt>
<trkpt lat="59.5201744" lon="31.2110953">
<ele>38.369999</ele>
<time>2026-08-31T22:54:17.000Z</time>
</trkpt>
<trkpt lat="59.5200968" lon="31.2112874">
<ele>37.919998</ele>
<time>2026-08-31T22:54:36.000Z</time>
</trkpt>
<trkpt lat="59.5200123" lon="31.2115180">
<ele>38.610001</ele>
<time>2026-08-31T22:54:55.000Z</time>
</trkpt>
<trkpt lat="59.5199743" lon="31.2117043">
<ele>38.040001</ele>
<time>2026-08-31T22:55:19.000Z</time>
</trkpt>
<trkpt lat="59.5199544" lon="31.2119320">
<ele>38.279999</ele>
<time>2026-08-31T22:55:39.000Z</time>
</trkpt>
<trkpt lat="59.5199436" lon="31.2120060">
<ele>38.070000</ele>
<time>2026-08-31T22:55:47.000Z</time>
</trkpt>
<trkpt lat="59.5199262" lon="31.2120845">
<ele>38.000000</ele>
<time>2026-08-31T22:55:54.000Z</time>
</trkpt>
<trkpt lat="59.5199504" lon="31.2122037">
<ele>38.010002</ele>
<time>2026-08-31T22:56:19.000Z</time>
</trkpt>
<trkpt lat="59.5199642" lon="31.2122425">
<ele>38.350002</ele>
<time>2026-08-31T22:56:37.000Z</time>
</trkpt>
<trkpt lat="59.5199282" lon="31.2123344">
<ele>38.290001</ele>
<time>2026-08-31T22:57:10.000Z</time>
</trkpt>
<trkpt lat="59.5199228" lon="31.2123507">
<ele>35.910000</ele>
<time>2026-08-31T22:57:17.000Z</time>
</trkpt>
<trkpt lat="59.5199273" lon="31.2123390">
<ele>38.060001</ele>
<time>2026-08-31T22:57:34.000Z</time>
</trkpt>
<trkpt lat="59.5199186" lon="31.2122074">
<ele>37.610001</ele>
<time>2026-08-31T22:58:12.000Z</time>
</trkpt>
<trkpt lat="59.5198952" lon="31.2122995">
<ele>37.490002</ele>
<time>2026-08-31T22:58:41.000Z</time>
</trkpt>
<trkpt lat="59.5198545" lon="31.2123639">
<ele>37.660000</ele>
<time>2026-08-31T22:59:13.000Z</time>
</trkpt>
<trkpt lat="59.5198209" lon="31.2124949">
<ele>37.299999</ele>
<time>2026-08-31T22:59:32.000Z</time>
</trkpt>
<trkpt lat="59.5197867" lon="31.2125954">
<ele>37.510002</ele>
<time>2026-08-31T22:59:50.000Z</time>
</trkpt>
<trkpt lat="59.5196727" lon="31.2127360">
<ele>37.250000</ele>
<time>2026-08-31T23:00:13.000Z</time>
</trkpt>
<trkpt lat="59.5196638" lon="31.2127717">
<ele>37.389999</ele>
<time>2026-08-31T23:00:19.000Z</time>
</trkpt>
<trkpt lat="59.5196755" lon="31.2127985">
<ele>37.189999</ele>
<time>2026-08-31T23:00:49.000Z</time>
</trkpt>
<trkpt lat="59.5196658" lon="31.2128390">
<ele>37.090000</ele>
<time>2026-08-31T23:00:55.000Z</time>
</trkpt>
<trkpt lat="59.5195942" lon="31.2131008">
<ele>36.950001</ele>
<time>2026-08-31T23:01:18.000Z</time>
</trkpt>
<trkpt lat="59.5195646" lon="31.2132269">
<ele>36.969997</ele>
<time>2026-08-31T23:01:32.000Z</time>
</trkpt>
<trkpt lat="59.5195030" lon="31.2134192">
<ele>37.130001</ele>
<time>2026-08-31T23:01:53.000Z</time>
</trkpt>
<trkpt lat="59.5194734" lon="31.2135759">
<ele>36.410000</ele>
<time>2026-08-31T23:02:13.000Z</time>
</trkpt>
<trkpt lat="59.5193954" lon="31.2137368">
<ele>34.480000</ele>
<time>2026-08-31T23:02:37.000Z</time>
</trkpt>
<trkpt lat="59.5193425" lon="31.2138256">
<ele>33.860001</ele>
<time>2026-08-31T23:02:58.000Z</time>
</trkpt>
<trkpt lat="59.5192864" lon="31.2138965">
<ele>34.259998</ele>
<time>2026-08-31T23:03:15.000Z</time>
</trkpt>
<trkpt lat="59.5192286" lon="31.2140624">
<ele>34.439999</ele>
<time>2026-08-31T23:03:38.000Z</time>
</trkpt>
<trkpt lat="59.5192328" lon="31.2141099">
<ele>33.939999</ele>
<time>2026-08-31T23:03:43.000Z</time>
</trkpt>
<trkpt lat="59.5191832" lon="31.2143234">
<ele>34.680000</ele>
<time>2026-08-31T23:04:02.000Z</time>
</trkpt>
<trkpt lat="59.5191583" lon="31.2144200">
<ele>34.459999</ele>
<time>2026-08-31T23:04:19.000Z</time>
</trkpt>
<trkpt lat="59.5191203" lon="31.2144110">
<ele>34.820000</ele>
<time>2026-08-31T23:04:50.000Z</time>
</trkpt>
<trkpt lat="59.5191662" lon="31.2143837">
<ele>34.939999</ele>
<time>2026-08-31T23:05:19.000Z</time>
</trkpt>
<trkpt lat="59.5191463" lon="31.2143502">
<ele>34.680000</ele>
<time>2026-08-31T23:05:46.000Z</time>
</trkpt>
<trkpt lat="59.5191483" lon="31.2143843">
<ele>34.540001</ele>
<time>2026-08-31T23:06:26.000Z</time>
</trkpt>
<trkpt lat="59.5191151" lon="31.2144643">
<ele>35.270000</ele>
<time>2026-08-31T23:06:58.000Z</time>
</trkpt>
<trkpt lat="59.5190983" lon="31.2146026">
<ele>34.770000</ele>
<time>2026-08-31T23:07:20.000Z</time>
</trkpt>
<trkpt lat="59.5190576" lon="31.2146711">
<ele>34.920002</ele>
<time>2026-08-31T23:07:47.000Z</time>
</trkpt>
<trkpt lat="59.5190179" lon="31.2148703">
<ele>35.329998</ele>
<time>2026-08-31T23:08:12.000Z</time>
</trkpt>
<trkpt lat="59.5189541" lon="31.2150072">
<ele>34.939999</ele>
<time>2026-08-31T23:08:33.000Z</time>
</trkpt>
<trkpt lat="59.5189240" lon="31.2151345">
<ele>35.130001</ele>
<time>2026-08-31T23:08:53.000Z</time>
</trkpt>
<trkpt lat="59.5189053" lon="31.2152818">
<ele>35.770000</ele>
<time>2026-08-31T23:09:15.000Z</time>
</trkpt>
<trkpt lat="59.5189026" lon="31.2153712">
<ele>35.389999</ele>
<time>2026-08-31T23:09:36.000Z</time>
</trkpt>
<trkpt lat="59.5189287" lon="31.2153759">
<ele>35.430000</ele>
<time>2026-08-31T23:09:46.000Z</time>
</trkpt>
<trkpt lat="59.5189092" lon="31.2155023">
<ele>35.459999</ele>
<time>2026-08-31T23:10:05.000Z</time>
</trkpt>
<trkpt lat="59.5188491" lon="31.2155532">
<ele>35.660000</ele>
<time>2026-08-31T23:10:27.000Z</time>
</trkpt>
<trkpt lat="59.5188385" lon="31.2156562">
<ele>35.480000</ele>
<time>2026-08-31T23:10:48.000Z</time>
</trkpt>
<trkpt lat="59.5188188" lon="31.2157398">
<ele>36.119999</ele>
<time>2026-08-31T23:11:06.000Z</time>
</trkpt>
<trkpt lat="59.5187424" lon="31.2158301">
<ele>36.209999</ele>
<time>2026-08-31T23:11:25.000Z</time>
</trkpt>
<trkpt lat="59.5187017" lon="31.2158365">
<ele>36.389999</ele>
<time>2026-08-31T23:11:59.000Z</time>
</trkpt>
<trkpt lat="59.5186209" lon="31.2159866">
<ele>36.349998</ele>
<time>2026-08-31T23:12:17.000Z</time>
</trkpt>
<trkpt lat="59.5185423" lon="31.2160669">
<ele>36.710003</ele>
<time>2026-08-31T23:12:35.000Z</time>
</trkpt>
<trkpt lat="59.5185100" lon="31.2160996">
<ele>37.209999</ele>
<time>2026-08-31T23:12:45.000Z</time>
</trkpt>
<trkpt lat="59.5184313" lon="31.2162449">
<ele>36.380001</ele>
<time>2026-08-31T23:13:09.000Z</time>
</trkpt>
<trkpt lat="59.5183223" lon="31.2163898">
<ele>36.720001</ele>
<time>2026-08-31T23:13:31.000Z</time>
</trkpt>
<trkpt lat="59.5182801" lon="31.2165236">
<ele>37.220001</ele>
<time>2026-08-31T23:13:48.000Z</time>
</trkpt>
<trkpt lat="59.5182712" lon="31.2166464">
<ele>37.330002</ele>
<time>2026-08-31T23:14:15.000Z</time>
</trkpt>
<trkpt lat="59.5182562" lon="31.2166361">
<ele>37.740002</ele>
<time>2026-08-31T23:14:43.000Z</time>
</trkpt>
<trkpt lat="59.5182803" lon="31.2166196">
<ele>37.730000</ele>
<time>2026-08-31T23:15:07.000Z</time>
</trkpt>
<trkpt lat="59.5182428" lon="31.2167496">
<ele>38.340000</ele>
<time>2026-08-31T23:15:40.000Z</time>
</trkpt>
<trkpt lat="59.5182106" lon="31.2168341">
<ele>38.279999</ele>
<time>2026-08-31T23:16:09.000Z</time>
</trkpt>
<trkpt lat="59.5181774" lon="31.2168014">
<ele>38.939999</ele>
<time>2026-08-31T23:16:40.000Z</time>
</trkpt>
<trkpt lat="59.5181729" lon="31.2167558">
<ele>38.489998</ele>
<time>2026-08-31T23:17:12.000Z</time>
</trkpt>
<trkpt lat="59.5182686" lon="31.2167320">
<ele>39.169998</ele>
<time>2026-08-31T23:17:42.000Z</time>
</trkpt>
<trkpt lat="59.5182188" lon="31.2167479">
<ele>39.670002</ele>
<time>2026-08-31T23:18:09.000Z</time>
</trkpt>
<trkpt lat="59.5181225" lon="31.2169123">
<ele>39.070000</ele>
<time>2026-08-31T23:18:31.000Z</time>
</trkpt>
<trkpt lat="59.5179620" lon="31.2171451">
<ele>39.510002</ele>
<time>2026-08-31T23:18:53.000Z</time>
</trkpt>
<trkpt lat="59.5178366" lon="31.2173375">
<ele>39.410000</ele>
<time>2026-08-31T23:19:15.000Z</time>
</trkpt>
<trkpt lat="59.5177420" lon="31.2175536">
<ele>39.659996</ele>
<time>2026-08-31T23:19:34.000Z</time>
</trkpt>
<trkpt lat="59.5176342" lon="31.2177994">
<ele>39.380001</ele>
<time>2026-08-31T23:19:58.000Z</time>
</trkpt>
<trkpt lat="59.5175891" lon="31.2178770">
<ele>39.199997</ele>
<time>2026-08-31T23:20:12.000Z</time>
</trkpt>
<trkpt lat="59.5174708" lon="31.2180986">
<ele>39.639999</ele>
<time>2026-08-31T23:20:31.000Z</time>
</trkpt>
<trkpt lat="59.5174291" lon="31.2182116">
<ele>40.039997</ele>
<time>2026-08-31T23:20:40.000Z</time>
</trkpt>
<trkpt lat="59.5173494" lon="31.2184026">
<ele>40.029999</ele>
<time>2026-08-31T23:21:03.000Z</time>
</trkpt>
<trkpt lat="59.5173309" lon="31.2185184">
<ele>40.000000</ele>
<time>2026-08-31T23:21:26.000Z</time>
</trkpt>
<trkpt lat="59.5172863" lon="31.2186328">
<ele>39.489998</ele>
<time>2026-08-31T23:21:49.000Z</time>
</trkpt>
<trkpt lat="59.5172322" lon="31.2188128">
<ele>40.000000</ele>
<time>2026-08-31T23:22:21.000Z</time>
</trkpt>
<trkpt lat="59.5172683" lon="31.2186657">
<ele>40.510002</ele>
<time>2026-08-31T23:22:55.000Z</time>
</trkpt>
<trkpt lat="59.5172738" lon="31.2186844">
<ele>40.160000</ele>
<time>2026-08-31T23:23:20.000Z</time>
</trkpt>
<trkpt lat="59.5172422" lon="31.2188069">
<ele>40.830002</ele>
<time>2026-08-31T23:23:50.000Z</time>
</trkpt>
<trkpt lat="59.5173255" lon="31.2189282">
<ele>41.090000</ele>
<time>2026-08-31T23:24:09.000Z</time>
</trkpt>
<trkpt lat="59.5173319" lon="31.2190309">
<ele>41.350002</ele>
<time>2026-08-31T23:24:29.000Z</time>
</trkpt>
<trkpt lat="59.5173481" lon="31.2190635">
<ele>42.239998</ele>
<time>2026-08-31T23:24:59.000Z</time>
</trkpt>
<trkpt lat="59.5173515" lon="31.2190563">
<ele>42.009998</ele>
<time>2026-08-31T23:25:01.000Z</time>
</trkpt>
<trkpt lat="59.5173518" lon="31.2189678">
<ele>41.200001</ele>
<time>2026-08-31T23:25:31.000Z</time>
</trkpt>
<trkpt lat="59.5173578" lon="31.2190237">
<ele>41.650002</ele>
<time>2026-08-31T23:26:03.000Z</time>
</trkpt>
<trkpt lat="59.5173651" lon="31.2190476">
<ele>42.030003</ele>
<time>2026-08-31T23:26:30.000Z</time>
</trkpt>
<trkpt lat="59.5173353" lon="31.2190704">
<ele>42.149998</ele>
<time>2026-08-31T23:26:59.000Z</time>
</trkpt>
<trkpt lat="59.5172908" lon="31.2192571">
<ele>41.960003</ele>
<time>2026-08-31T23:27:20.000Z</time>
</trkpt>
<trkpt lat="59.5172538" lon="31.2194839">
<ele>42.260002</ele>
<time>2026-08-31T23:27:40.000Z</time>
</trkpt>
<trkpt lat="59.5172475" lon="31.2195536">
<ele>42.640003</ele>
<time>2026-08-31T23:27:46.000Z</time>
</trkpt>
<trkpt lat="59.5171951" lon="31.2197598">
<ele>41.930000</ele>
<time>2026-08-31T23:28:06.000Z</time>
</trkpt>
<trkpt lat="59.5171234" lon="31.2199109">
<ele>42.560001</ele>
<time>2026-08-31T23:28:26.000Z</time>
</trkpt>
<trkpt lat="59.5170680" lon="31.2201488">
<ele>42.800003</ele>
<time>2026-08-31T23:28:44.000Z</time>
</trkpt>
<trkpt lat="59.5169830" lon="31.2202719">
<ele>42.590000</ele>
<time>2026-08-31T23:29:07.000Z</time>
</trkpt>
<trkpt lat="59.5168758" lon="31.2204617">
<ele>43.170002</ele>
<time>2026-08-31T23:29:28.000Z</time>
</trkpt>
<trkpt lat="59.5168099" lon="31.2205845">
<ele>43.580002</ele>
<time>2026-08-31T23:29:49.000Z</time>
</trkpt>
<trkpt lat="59.5167712" lon="31.2207372">
<ele>43.119999</ele>
<time>2026-08-31T23:30:13.000Z</time>
</trkpt>
<trkpt lat="59.5166899" lon="31.2209709">
<ele>42.040001</ele>
<time>2026-08-31T23:30:33.000Z</time>
</trkpt>
<trkpt lat="59.5166245" lon="31.2211359">
<ele>40.980000</ele>
<time>2026-08-31T23:30:52.000Z</time>
</trkpt>
<trkpt lat="59.5165795" lon="31.2213037">
<ele>41.070000</ele>
<time>2026-08-31T23:31:13.000Z</time>
</trkpt>
<trkpt lat="59.5165436" lon="31.2213583">
<ele>40.919998</ele>
<time>2026-08-31T23:31:43.000Z</time>
</trkpt>
<trkpt lat="59.5165288" lon="31.2213832">
<ele>40.639999</ele>
<time>2026-08-31T23:32:13.000Z</time>
</trkpt>
<trkpt lat="59.5165012" lon="31.2213842">
<ele>40.250000</ele>
<time>2026-08-31T23:32:48.000Z</time>
</trkpt>
<trkpt lat="59.5165123" lon="31.2213148">
<ele>40.730003</ele>
<time>2026-08-31T23:33:07.000Z</time>
</trkpt>
<trkpt lat="59.5165471" lon="31.2214257">
<ele>40.600002</ele>
<time>2026-08-31T23:33:34.000Z</time>
</trkpt>
<trkpt lat="59.5164971" lon="31.2214469">
<ele>41.110001</ele>
<time>2026-08-31T23:33:50.000Z</time>
</trkpt>
<trkpt lat="59.5164294" lon="31.2215939">
<ele>40.389999</ele>
<time>2026-08-31T23:34:10.000Z</time>
</trkpt>
<trkpt lat="59.5163297" lon="31.2217352">
<ele>40.520000</ele>
<time>2026-08-31T23:34:30.000Z</time>
</trkpt>
<trkpt lat="59.5163042" lon="31.2218994">
<ele>40.020000</ele>
<time>2026-08-31T23:34:57.000Z</time>
</trkpt>
<trkpt lat="59.5162336" lon="31.2219217">
<ele>40.499996</ele>
<time>2026-08-31T23:35:28.000Z</time>
</trkpt>
<trkpt lat="59.5162375" lon="31.2219451">
<ele>39.939999</ele>
<time>2026-08-31T23:35:48.000Z</time>
</trkpt>
<trkpt lat="59.5162223" lon="31.2220661">
<ele>40.239998</ele>
<time>2026-08-31T23:36:07.000Z</time>
</trkpt>
<trkpt lat="59.5161455" lon="31.2222497">
<ele>39.740002</ele>
<time>2026-08-31T23:36:31.000Z</time>
</trkpt>
<trkpt lat="59.5161370" lon="31.2222742">
<ele>39.889999</ele>
<time>2026-08-31T23:36:39.000Z</time>
</trkpt>
<trkpt lat="59.5160482" lon="31.2222699">
<ele>39.879997</ele>
<time>2026-08-31T23:36:58.000Z</time>
</trkpt>
<trkpt lat="59.5160087" lon="31.2222892">
<ele>40.259998</ele>
<time>2026-08-31T23:37:21.000Z</time>
</trkpt>
<trkpt lat="59.5159983" lon="31.2224291">
<ele>39.930000</ele>
<time>2026-08-31T23:37:41.000Z</time>
</trkpt>
<trkpt lat="59.5159846" lon="31.2225960">
<ele>40.470001</ele>
<time>2026-08-31T23:38:03.000Z</time>
</trkpt>
<trkpt lat="59.5159377" lon="31.2228086">
<ele>40.370003</ele>
<time>2026-08-31T23:38:24.000Z</time>
</trkpt>
<trkpt lat="59.5158860" lon="31.2230312">
<ele>40.189999</ele>
<time>2026-08-31T23:38:48.000Z</time>
</trkpt>
<trkpt lat="59.5158343" lon="31.2230857">
<ele>40.689999</ele>
<time>2026-08-31T23:39:12.000Z</time>
</trkpt>
<trkpt lat="59.5158328" lon="31.2230745">
<ele>40.639999</ele>
<time>2026-08-31T23:39:41.000Z</time>
</trkpt>
<trkpt lat="59.5158433" lon="31.2230963">
<ele>40.700001</ele>
<time>2026-08-31T23:40:14.000Z</time>
</trkpt>
<trkpt lat="59.5158137" lon="31.2230491">
<ele>40.709999</ele>
<time>2026-08-31T23:40:36.000Z</time>
</trkpt>
<trkpt lat="59.5158255" lon="31.2231241">
<ele>40.789997</ele>
<time>2026-08-31T23:41:17.000Z</time>
</trkpt>
<trkpt lat="59.5158286" lon="31.2231443">
<ele>41.120003</ele>
<time>2026-08-31T23:41:51.000Z</time>
</trkpt>
<trkpt lat="59.5158298" lon="31.2232156">
<ele>41.369999</ele>
<time>2026-08-31T23:42:33.000Z</time>
</trkpt>
<trkpt lat="59.5158889" lon="31.2232627">
<ele>41.420002</ele>
<time>2026-08-31T23:42:59.000Z</time>
</trkpt>
<trkpt lat="59.5158809" lon="31.2231953">
<ele>41.570004</ele>
<time>2026-08-31T23:43:42.000Z</time>
</trkpt>
<trkpt lat="59.5158889" lon="31.2232574">
<ele>41.989998</ele>
<time>2026-08-31T23:44:00.000Z</time>
</trkpt>
<trkpt lat="59.5159637" lon="31.2233542">
<ele>41.970001</ele>
<time>2026-08-31T23:44:59.000Z</time>
</trkpt>
<trkpt lat="59.5158367" lon="31.2233060">
<ele>41.880001</ele>
<time>2026-08-31T23:45:06.000Z</time>
</trkpt>
<trkpt lat="59.5158720" lon="31.2232427">
<ele>42.160000</ele>
<time>2026-08-31T23:45:24.000Z</time>
</trkpt>
<trkpt lat="59.5158655" lon="31.2232340">
<ele>42.209999</ele>
<time>2026-08-31T23:45:53.000Z</time>
</trkpt>
<trkpt lat="59.5158869" lon="31.2232041">
<ele>41.910000</ele>
<time>2026-08-31T23:46:03.000Z</time>
</trkpt>
<trkpt lat="59.5157868" lon="31.2233168">
<ele>41.869999</ele>
<time>2026-08-31T23:46:35.000Z</time>
</trkpt>
<trkpt lat="59.5158015" lon="31.2232537">
<ele>42.490002</ele>
<time>2026-08-31T23:47:04.000Z</time>
</trkpt>
<trkpt lat="59.5158789" lon="31.2231360">
<ele>42.820000</ele>
<time>2026-08-31T23:47:31.000Z</time>
</trkpt>
<trkpt lat="59.5159512" lon="31.2229460">
<ele>42.549999</ele>
<time>2026-08-31T23:47:54.000Z</time>
</trkpt>
<trkpt lat="59.5159147" lon="31.2227544">
<ele>42.610001</ele>
<time>2026-08-31T23:48:25.000Z</time>
</trkpt>
<trkpt lat="59.5159319" lon="31.2229242">
<ele>42.580002</ele>
<time>2026-08-31T23:48:52.000Z</time>
</trkpt>
<trkpt lat="59.5159351" lon="31.2229330">
<ele>42.810001</ele>
<time>2026-08-31T23:48:53.000Z</time>
</trkpt>
<trkpt lat="59.5159638" lon="31.2230911">
<ele>42.389999</ele>
<time>2026-08-31T23:49:11.000Z</time>
</trkpt>
<trkpt lat="59.5160174" lon="31.2232314">
<ele>42.750000</ele>
<time>2026-08-31T23:49:33.000Z</time>
</trkpt>
<trkpt lat="59.5160033" lon="31.2232749">
<ele>42.940002</ele>
<time>2026-08-31T23:49:59.000Z</time>
</trkpt>
<trkpt lat="59.5160496" lon="31.2232119">
<ele>42.859997</ele>
<time>2026-08-31T23:50:25.000Z</time>
</trkpt>
<trkpt lat="59.5160908" lon="31.2232951">
<ele>42.750000</ele>
<time>2026-08-31T23:50:46.000Z</time>
</trkpt>
<trkpt lat="59.5161573" lon="31.2233960">
<ele>42.820000</ele>
<time>2026-08-31T23:51:07.000Z</time>
</trkpt>
<trkpt lat="59.5161916" lon="31.2234704">
<ele>43.279999</ele>
<time>2026-08-31T23:51:25.000Z</time>
</trkpt>
<trkpt lat="59.5161859" lon="31.2236009">
<ele>42.829998</ele>
<time>2026-08-31T23:51:44.000Z</time>
</trkpt>
<trkpt lat="59.5161910" lon="31.2238248">
<ele>43.049999</ele>
<time>2026-08-31T23:52:05.000Z</time>
</trkpt>
<trkpt lat="59.5162128" lon="31.2239183">
<ele>43.410000</ele>
<time>2026-08-31T23:52:25.000Z</time>
</trkpt>
<trkpt lat="59.5161997" lon="31.2239714">
<ele>43.580002</ele>
<time>2026-08-31T23:52:39.000Z</time>
</trkpt>
<trkpt lat="59.5162353" lon="31.2241302">
<ele>43.089996</ele>
<time>2026-08-31T23:53:03.000Z</time>
</trkpt>
<trkpt lat="59.5162309" lon="31.2243179">
<ele>43.360001</ele>
<time>2026-08-31T23:53:23.000Z</time>
</trkpt>
<trkpt lat="59.5162676" lon="31.2245190">
<ele>43.710003</ele>
<time>2026-08-31T23:53:46.000Z</time>
</trkpt>
<trkpt lat="59.5162603" lon="31.2246526">
<ele>42.599998</ele>
<time>2026-08-31T23:54:05.000Z</time>
</trkpt>
<trkpt lat="59.5162225" lon="31.2248256">
<ele>43.379997</ele>
<time>2026-08-31T23:54:29.000Z</time>
</trkpt>
<trkpt lat="59.5162292" lon="31.2248859">
<ele>43.250004</ele>
<time>2026-08-31T23:54:53.000Z</time>
</trkpt>
<trkpt lat="59.5161801" lon="31.2249415">
<ele>43.590000</ele>
<time>2026-08-31T23:55:18.000Z</time>
</trkpt>
<trkpt lat="59.5162158" lon="31.2248977">
<ele>43.130001</ele>
<time>2026-08-31T23:55:40.000Z</time>
</trkpt>
<trkpt lat="59.5162185" lon="31.2249415">
<ele>43.459999</ele>
<time>2026-08-31T23:55:52.000Z</time>
</trkpt>
<trkpt lat="59.5162116" lon="31.2249204">
<ele>43.880001</ele>
<time>2026-08-31T23:56:19.000Z</time>
</trkpt>
<trkpt lat="59.5162503" lon="31.2248993">
<ele>43.630001</ele>
<time>2026-08-31T23:56:49.000Z</time>
</trkpt>
<trkpt lat="59.5162881" lon="31.2249191">
<ele>43.180000</ele>
<time>2026-08-31T23:57:10.000Z</time>
</trkpt>
<trkpt lat="59.5163441" lon="31.2249999">
<ele>43.320004</ele>
<time>2026-08-31T23:57:32.000Z</time>
</trkpt>
<trkpt lat="59.5163630" lon="31.2252119">
<ele>43.560001</ele>
<time>2026-08-31T23:57:53.000Z</time>
</trkpt>
<trkpt lat="59.5163425" lon="31.2253691">
<ele>42.889999</ele>
<time>2026-08-31T23:58:11.000Z</time>
</trkpt>
<trkpt lat="59.5163205" lon="31.2254926">
<ele>43.299999</ele>
<time>2026-08-31T23:58:27.000Z</time>
</trkpt>
<trkpt lat="59.5162049" lon="31.2256414">
<ele>42.919998</ele>
<time>2026-08-31T23:58:53.000Z</time>
</trkpt>
<trkpt lat="59.5162174" lon="31.2257008">
<ele>42.889999</ele>
<time>2026-08-31T23:59:21.000Z</time>
</trkpt>
<trkpt lat="59.5162107" lon="31.2257117">
<ele>42.889999</ele>
<time>2026-08-31T23:59:24.000Z</time>
</trkpt>
<trkpt lat="59.5162506" lon="31.2256619">
<ele>42.680000</ele>
<time>2026-08-31T23:59:51.000Z</time>
</trkpt>
<trkpt lat="59.5162626" lon="31.2256347">
<ele>43.230000</ele>
<time>2026-09-01T00:00:18.000Z</time>
</trkpt>
<trkpt lat="59.5162112" lon="31.2256888">
<ele>43.340000</ele>
<time>2026-09-01T00:00:50.000Z</time>
</trkpt>
<trkpt lat="59.5160882" lon="31.2257754">
<ele>43.550003</ele>
<time>2026-09-01T00:01:18.000Z</time>
</trkpt>
<trkpt lat="59.5161273" lon="31.2257428">
<ele>43.260002</ele>
<time>2026-09-01T00:01:22.000Z</time>
</trkpt>
<trkpt lat="59.5161838" lon="31.2256826">
<ele>43.119999</ele>
<time>2026-09-01T00:01:50.000Z</time>
</trkpt>
<trkpt lat="59.5163045" lon="31.2257033">
<ele>42.980000</ele>
<time>2026-09-01T00:02:16.000Z</time>
</trkpt>
<trkpt lat="59.5162667" lon="31.2258116">
<ele>43.130001</ele>
<time>2026-09-01T00:02:39.000Z</time>
</trkpt>
<trkpt lat="59.5163065" lon="31.2260839">
<ele>42.820000</ele>
<time>2026-09-01T00:02:57.000Z</time>
</trkpt>
<trkpt lat="59.5163439" lon="31.2263989">
<ele>43.239998</ele>
<time>2026-09-01T00:03:16.000Z</time>
</trkpt>
<trkpt lat="59.5163459" lon="31.2267776">
<ele>42.900002</ele>
<time>2026-09-01T00:03:38.000Z</time>
</trkpt>
<trkpt lat="59.5163081" lon="31.2270222">
<ele>42.709999</ele>
<time>2026-09-01T00:03:55.000Z</time>
</trkpt>
<trkpt lat="59.5162587" lon="31.2272920">
<ele>42.549999</ele>
<time>2026-09-01T00:04:12.000Z</time>
</trkpt>
<trkpt lat="59.5162391" lon="31.2276202">
<ele>42.480000</ele>
<time>2026-09-01T00:04:32.000Z</time>
</trkpt>
<trkpt lat="59.5162991" lon="31.2279240">
<ele>42.420002</ele>
<time>2026-09-01T00:04:51.000Z</time>
</trkpt>
<trkpt lat="59.5162855" lon="31.2282200">
<ele>42.490002</ele>
<time>2026-09-01T00:05:10.000Z</time>
</trkpt>
<trkpt lat="59.5163503" lon="31.2283458">
<ele>42.570000</ele>
<time>2026-09-01T00:05:31.000Z</time>
</trkpt>
<trkpt lat="59.5163469" lon="31.2283192">
<ele>42.340000</ele>
<time>2026-09-01T00:06:02.000Z</time>
</trkpt>
<trkpt lat="59.5164365" lon="31.2283879">
<ele>41.950001</ele>
<time>2026-09-01T00:06:47.000Z</time>
</trkpt>
<trkpt lat="59.5164087" lon="31.2283356">
<ele>42.220001</ele>
<time>2026-09-01T00:07:21.000Z</time>
</trkpt>
<trkpt lat="59.5164258" lon="31.2283485">
<ele>41.989998</ele>
<time>2026-09-01T00:07:51.000Z</time>
</trkpt>
<trkpt lat="59.5164104" lon="31.2283343">
<ele>42.160000</ele>
<time>2026-09-01T00:08:18.000Z</time>
</trkpt>
<trkpt lat="59.5163877" lon="31.2283919">
<ele>42.960003</ele>
<time>2026-09-01T00:08:49.000Z</time>
</trkpt>
<trkpt lat="59.5163956" lon="31.2284680">
<ele>42.950001</ele>
<time>2026-09-01T00:09:14.000Z</time>
</trkpt>
<trkpt lat="59.5163087" lon="31.2285362">
<ele>42.439999</ele>
<time>2026-09-01T00:09:43.000Z</time>
</trkpt>
<trkpt lat="59.5163505" lon="31.2285120">
<ele>43.180000</ele>
<time>2026-09-01T00:10:04.000Z</time>
</trkpt>
<trkpt lat="59.5164388" lon="31.2286618">
<ele>42.689999</ele>
<time>2026-09-01T00:10:23.000Z</time>
</trkpt>
<trkpt lat="59.5164605" lon="31.2287806">
<ele>43.190002</ele>
<time>2026-09-01T00:10:44.000Z</time>
</trkpt>
<trkpt lat="59.5164260" lon="31.2288228">
<ele>43.450001</ele>
<time>2026-09-01T00:11:05.000Z</time>
</trkpt>
<trkpt lat="59.5164692" lon="31.2290333">
<ele>43.270000</ele>
<time>2026-09-01T00:11:20.000Z</time>
</trkpt>
<trkpt lat="59.5164951" lon="31.2293140">
<ele>43.410000</ele>
<time>2026-09-01T00:11:38.000Z</time>
</trkpt>
<trkpt lat="59.5165430" lon="31.2295904">
<ele>43.469997</ele>
<time>2026-09-01T00:11:57.000Z</time>
</trkpt>
<trkpt lat="59.5165228" lon="31.2299182">
<ele>43.710003</ele>
<time>2026-09-01T00:12:16.000Z</time>
</trkpt>
<trkpt lat="59.5165120" lon="31.2301719">
<ele>43.350002</ele>
<time>2026-09-01T00:12:34.000Z</time>
</trkpt>
<trkpt lat="59.5165175" lon="31.2304069">
<ele>43.330002</ele>
<time>2026-09-01T00:12:50.000Z</time>
</trkpt>
<trkpt lat="59.5165277" lon="31.2306514">
<ele>43.940002</ele>
<time>2026-09-01T00:13:09.000Z</time>
</trkpt>
<trkpt lat="59.5164979" lon="31.2309603">
<ele>43.580002</ele>
<time>2026-09-01T00:13:29.000Z</time>
</trkpt>
<trkpt lat="59.5164639" lon="31.2312498">
<ele>43.660000</ele>
<time>2026-09-01T00:13:50.000Z</time>
</trkpt>
<trkpt lat="59.5164691" lon="31.2314420">
<ele>44.149998</ele>
<time>2026-09-01T00:14:10.000Z</time>
</trkpt>
<trkpt lat="59.5164149" lon="31.2315259">
<ele>44.650002</ele>
<time>2026-09-01T00:14:27.000Z</time>
</trkpt>
<trkpt lat="59.5163197" lon="31.2316334">
<ele>44.650002</ele>
<time>2026-09-01T00:14:57.000Z</time>
</trkpt>
<trkpt lat="59.5163845" lon="31.2315645">
<ele>44.299999</ele>
<time>2026-09-01T00:15:22.000Z</time>
</trkpt>
<trkpt lat="59.5163932" lon="31.2316070">
<ele>44.669998</ele>
<time>2026-09-01T00:15:49.000Z</time>
</trkpt>
<trkpt lat="59.5164145" lon="31.2315303">
<ele>45.250000</ele>
<time>2026-09-01T00:16:24.000Z</time>
</trkpt>
<trkpt lat="59.5164533" lon="31.2314999">
<ele>44.579998</ele>
<time>2026-09-01T00:16:55.000Z</time>
</trkpt>
<trkpt lat="59.5164524" lon="31.2315212">
<ele>45.219997</ele>
<time>2026-09-01T00:17:22.000Z</time>
</trkpt>
<trkpt lat="59.5164486" lon="31.2315452">
<ele>44.920002</ele>
<time>2026-09-01T00:17:53.000Z</time>
</trkpt>
<trkpt lat="59.5164379" lon="31.2315719">
<ele>45.150002</ele>
<time>2026-09-01T00:18:18.000Z</time>
</trkpt>
<trkpt lat="59.5164045" lon="31.2315585">
<ele>44.920002</ele>
<time>2026-09-01T00:19:03.000Z</time>
</trkpt>
<trkpt lat="59.5163909" lon="31.2315837">
<ele>46.080002</ele>
<time>2026-09-01T00:19:38.000Z</time>
</trkpt>
<trkpt lat="59.5163319" lon="31.2315734">
<ele>46.250000</ele>
<time>2026-09-01T00:20:07.000Z</time>
</trkpt>
<trkpt lat="59.5162396" lon="31.2315385">
<ele>45.720001</ele>
<time>2026-09-01T00:20:25.000Z</time>
</trkpt>
<trkpt lat="59.5161169" lon="31.2314876">
<ele>46.540001</ele>
<time>2026-09-01T00:20:42.000Z</time>
</trkpt>
<trkpt lat="59.5160078" lon="31.2314207">
<ele>46.540001</ele>
<time>2026-09-01T00:21:00.000Z</time>
</trkpt>
<trkpt lat="59.5158853" lon="31.2314442">
<ele>46.690002</ele>
<time>2026-09-01T00:21:16.000Z</time>
</trkpt>
<trkpt lat="59.5157391" lon="31.2314637">
<ele>47.180000</ele>
<time>2026-09-01T00:21:35.000Z</time>
</trkpt>
<trkpt lat="59.5156352" lon="31.2314968">
<ele>47.240002</ele>
<time>2026-09-01T00:21:51.000Z</time>
</trkpt>
<trkpt lat="59.5155466" lon="31.2315707">
<ele>46.519997</ele>
<time>2026-09-01T00:22:15.000Z</time>
</trkpt>
<trkpt lat="59.5154008" lon="31.2316727">
<ele>46.700001</ele>
<time>2026-09-01T00:22:34.000Z</time>
</trkpt>
<trkpt lat="59.5152482" lon="31.2318447">
<ele>46.540001</ele>
<time>2026-09-01T00:22:55.000Z</time>
</trkpt>
<trkpt lat="59.5150937" lon="31.2319812">
<ele>47.020000</ele>
<time>2026-09-01T00:23:15.000Z</time>
</trkpt>
<trkpt lat="59.5149978" lon="31.2320609">
<ele>46.820000</ele>
<time>2026-09-01T00:23:35.000Z</time>
</trkpt>
<trkpt lat="59.5149804" lon="31.2320671">
<ele>46.930000</ele>
<time>2026-09-01T00:24:05.000Z</time>
</trkpt>
<trkpt lat="59.5149545" lon="31.2320511">
<ele>46.770000</ele>
<time>2026-09-01T00:24:40.000Z</time>
</trkpt>
<trkpt lat="59.5149110" lon="31.2320562">
<ele>46.850002</ele>
<time>2026-09-01T00:24:51.000Z</time>
</trkpt>
<trkpt lat="59.5148718" lon="31.2320342">
<ele>47.130001</ele>
<time>2026-09-01T00:25:22.000Z</time>
</trkpt>
<trkpt lat="59.5148793" lon="31.2320508">
<ele>46.410000</ele>
<time>2026-09-01T00:25:50.000Z</time>
</trkpt>
<trkpt lat="59.5148130" lon="31.2321337">
<ele>46.509998</ele>
<time>2026-09-01T00:26:09.000Z</time>
</trkpt>
<trkpt lat="59.5147109" lon="31.2322464">
<ele>46.720001</ele>
<time>2026-09-01T00:26:27.000Z</time>
</trkpt>
<trkpt lat="59.5146096" lon="31.2323701">
<ele>46.920002</ele>
<time>2026-09-01T00:26:47.000Z</time>
</trkpt>
<trkpt lat="59.5144961" lon="31.2324783">
<ele>47.000000</ele>
<time>2026-09-01T00:27:05.000Z</time>
</trkpt>
<trkpt lat="59.5143804" lon="31.2325610">
<ele>46.820000</ele>
<time>2026-09-01T00:27:25.000Z</time>
</trkpt>
<trkpt lat="59.5142714" lon="31.2326155">
<ele>47.180000</ele>
<time>2026-09-01T00:27:45.000Z</time>
</trkpt>
<trkpt lat="59.5141581" lon="31.2327047">
<ele>46.840000</ele>
<time>2026-09-01T00:28:03.000Z</time>
</trkpt>
<trkpt lat="59.5140501" lon="31.2328415">
<ele>47.389999</ele>
<time>2026-09-01T00:28:23.000Z</time>
</trkpt>
<trkpt lat="59.5139087" lon="31.2329157">
<ele>46.899998</ele>
<time>2026-09-01T00:28:41.000Z</time>
</trkpt>
<trkpt lat="59.5137818" lon="31.2328961">
<ele>47.010002</ele>
<time>2026-09-01T00:29:00.000Z</time>
</trkpt>
<trkpt lat="59.5137434" lon="31.2327881">
<ele>47.140003</ele>
<time>2026-09-01T00:29:24.000Z</time>
</trkpt>
<trkpt lat="59.5136595" lon="31.2326469">
<ele>46.920002</ele>
<time>2026-09-01T00:29:42.000Z</time>
</trkpt>
<trkpt lat="59.5135879" lon="31.2326950">
<ele>46.969997</ele>
<time>2026-09-01T00:30:01.000Z</time>
</trkpt>
<trkpt lat="59.5135555" lon="31.2326846">
<ele>47.370003</ele>
<time>2026-09-01T00:30:24.000Z</time>
</trkpt>
<trkpt lat="59.5136128" lon="31.2327540">
<ele>47.279999</ele>
<time>2026-09-01T00:30:55.000Z</time>
</trkpt>
<trkpt lat="59.5136289" lon="31.2327683">
<ele>46.920002</ele>
<time>2026-09-01T00:31:27.000Z</time>
</trkpt>
<trkpt lat="59.5135711" lon="31.2327274">
<ele>47.049999</ele>
<time>2026-09-01T00:31:51.000Z</time>
</trkpt>
<trkpt lat="59.5135665" lon="31.2327215">
<ele>47.320000</ele>
<time>2026-09-01T00:32:15.000Z</time>
</trkpt>
<trkpt lat="59.5136606" lon="31.2327028">
<ele>46.950001</ele>
<time>2026-09-01T00:33:07.000Z</time>
</trkpt>
<trkpt lat="59.5136279" lon="31.2327032">
<ele>47.240002</ele>
<time>2026-09-01T00:33:36.000Z</time>
</trkpt>
<trkpt lat="59.5135775" lon="31.2326684">
<ele>47.060001</ele>
<time>2026-09-01T00:34:03.000Z</time>
</trkpt>
<trkpt lat="59.5133932" lon="31.2327064">
<ele>46.830002</ele>
<time>2026-09-01T00:34:24.000Z</time>
</trkpt>
<trkpt lat="59.5132501" lon="31.2327631">
<ele>47.180000</ele>
<time>2026-09-01T00:34:45.000Z</time>
</trkpt>
<trkpt lat="59.5131539" lon="31.2326615">
<ele>47.410000</ele>
<time>2026-09-01T00:35:06.000Z</time>
</trkpt>
<trkpt lat="59.5130183" lon="31.2326701">
<ele>47.360001</ele>
<time>2026-09-01T00:35:27.000Z</time>
</trkpt>
<trkpt lat="59.5128254" lon="31.2326832">
<ele>47.540001</ele>
<time>2026-09-01T00:35:47.000Z</time>
</trkpt>
<trkpt lat="59.5127825" lon="31.2327779">
<ele>46.939999</ele>
<time>2026-09-01T00:36:07.000Z</time>
</trkpt>
<trkpt lat="59.5127451" lon="31.2328869">
<ele>46.099998</ele>
<time>2026-09-01T00:36:26.000Z</time>
</trkpt>
<trkpt lat="59.5125488" lon="31.2330441">
<ele>46.820000</ele>
<time>2026-09-01T00:36:47.000Z</time>
</trkpt>
<trkpt lat="59.5125168" lon="31.2331648">
<ele>46.400002</ele>
<time>2026-09-01T00:37:06.000Z</time>
</trkpt>
<trkpt lat="59.5124508" lon="31.2332381">
<ele>46.660000</ele>
<time>2026-09-01T00:37:24.000Z</time>
</trkpt>
<trkpt lat="59.5123593" lon="31.2334113">
<ele>46.579998</ele>
<time>2026-09-01T00:37:42.000Z</time>
</trkpt>
<trkpt lat="59.5122910" lon="31.2336349">
<ele>46.620003</ele>
<time>2026-09-01T00:38:03.000Z</time>
</trkpt>
<trkpt lat="59.5122764" lon="31.2336973">
<ele>46.199997</ele>
<time>2026-09-01T00:38:26.000Z</time>
</trkpt>
<trkpt lat="59.5122883" lon="31.2336793">
<ele>47.049999</ele>
<time>2026-09-01T00:38:56.000Z</time>
</trkpt>
<trkpt lat="59.5123350" lon="31.2336235">
<ele>46.709999</ele>
<time>2026-09-01T00:39:22.000Z</time>
</trkpt>
<trkpt lat="59.5123375" lon="31.2336455">
<ele>46.410000</ele>
<time>2026-09-01T00:39:52.000Z</time>
</trkpt>
<trkpt lat="59.5122876" lon="31.2337689">
<ele>46.820000</ele>
<time>2026-09-01T00:40:09.000Z</time>
</trkpt>
<trkpt lat="59.5122686" lon="31.2337227">
<ele>47.029999</ele>
<time>2026-09-01T00:40:40.000Z</time>
</trkpt>
<trkpt lat="59.5121764" lon="31.2337779">
<ele>46.980003</ele>
<time>2026-09-01T00:41:00.000Z</time>
</trkpt>
<trkpt lat="59.5121097" lon="31.2338500">
<ele>46.760002</ele>
<time>2026-09-01T00:41:21.000Z</time>
</trkpt>
<trkpt lat="59.5120798" lon="31.2339032">
<ele>47.279999</ele>
<time>2026-09-01T00:41:41.000Z</time>
</trkpt>
<trkpt lat="59.5120079" lon="31.2339763">
<ele>47.060001</ele>
<time>2026-09-01T00:42:01.000Z</time>
</trkpt>
<trkpt lat="59.5119910" lon="31.2340306">
<ele>47.500000</ele>
<time>2026-09-01T00:42:29.000Z</time>
</trkpt>
<trkpt lat="59.5119885" lon="31.2340445">
<ele>47.520000</ele>
<time>2026-09-01T00:43:02.000Z</time>
</trkpt>
<trkpt lat="59.5118492" lon="31.2341174">
<ele>47.259998</ele>
<time>2026-09-01T00:43:23.000Z</time>
</trkpt>
<trkpt lat="59.5117559" lon="31.2341376">
<ele>46.860001</ele>
<time>2026-09-01T00:43:42.000Z</time>
</trkpt>
<trkpt lat="59.5117278" lon="31.2340844">
<ele>47.419998</ele>
<time>2026-09-01T00:44:03.000Z</time>
</trkpt>
<trkpt lat="59.5117086" lon="31.2341517">
<ele>47.199997</ele>
<time>2026-09-01T00:44:27.000Z</time>
</trkpt>
<trkpt lat="59.5116261" lon="31.2342962">
<ele>47.230000</ele>
<time>2026-09-01T00:44:46.000Z</time>
</trkpt>
<trkpt lat="59.5115575" lon="31.2343968">
<ele>47.230000</ele>
<time>2026-09-01T00:45:07.000Z</time>
</trkpt>
<trkpt lat="59.5114932" lon="31.2344198">
<ele>47.559998</ele>
<time>2026-09-01T00:45:27.000Z</time>
</trkpt>
<trkpt lat="59.5114425" lon="31.2344481">
<ele>47.540001</ele>
<time>2026-09-01T00:45:47.000Z</time>
</trkpt>
<trkpt lat="59.5113885" lon="31.2344023">
<ele>47.400002</ele>
<time>2026-09-01T00:46:04.000Z</time>
</trkpt>
<trkpt lat="59.5112927" lon="31.2344163">
<ele>47.700001</ele>
<time>2026-09-01T00:46:22.000Z</time>
</trkpt>
<trkpt lat="59.5111838" lon="31.2344777">
<ele>47.370003</ele>
<time>2026-09-01T00:46:45.000Z</time>
</trkpt>
<trkpt lat="59.5111049" lon="31.2344322">
<ele>47.189999</ele>
<time>2026-09-01T00:47:05.000Z</time>
</trkpt>
<trkpt lat="59.5110361" lon="31.2344133">
<ele>47.389999</ele>
<time>2026-09-01T00:47:25.000Z</time>
</trkpt>
<trkpt lat="59.5109806" lon="31.2344487">
<ele>46.959999</ele>
<time>2026-09-01T00:47:45.000Z</time>
</trkpt>
<trkpt lat="59.5108918" lon="31.2344473">
<ele>46.990002</ele>
<time>2026-09-01T00:48:05.000Z</time>
</trkpt>
<trkpt lat="59.5108668" lon="31.2345010">
<ele>47.250000</ele>
<time>2026-09-01T00:48:39.000Z</time>
</trkpt>
<trkpt lat="59.5108213" lon="31.2345705">
<ele>46.720001</ele>
<time>2026-09-01T00:49:03.000Z</time>
</trkpt>
<trkpt lat="59.5107859" lon="31.2348383">
<ele>47.020000</ele>
<time>2026-09-01T00:49:24.000Z</time>
</trkpt>
<trkpt lat="59.5107545" lon="31.2348611">
<ele>47.320000</ele>
<time>2026-09-01T00:49:48.000Z</time>
</trkpt>
<trkpt lat="59.5107467" lon="31.2348796">
<ele>46.850002</ele>
<time>2026-09-01T00:50:27.000Z</time>
</trkpt>
<trkpt lat="59.5107229" lon="31.2349302">
<ele>47.310001</ele>
<time>2026-09-01T00:51:10.000Z</time>
</trkpt>
<trkpt lat="59.5107203" lon="31.2349028">
<ele>46.790001</ele>
<time>2026-09-01T00:51:37.000Z</time>
</trkpt>
<trkpt lat="59.5106167" lon="31.2349307">
<ele>46.450001</ele>
<time>2026-09-01T00:52:01.000Z</time>
</trkpt>
<trkpt lat="59.5105108" lon="31.2349302">
<ele>46.310001</ele>
<time>2026-09-01T00:52:21.000Z</time>
</trkpt>
<trkpt lat="59.5104607" lon="31.2349764">
<ele>46.889999</ele>
<time>2026-09-01T00:52:44.000Z</time>
</trkpt>
<trkpt lat="59.5103909" lon="31.2350894">
<ele>46.549999</ele>
<time>2026-09-01T00:53:04.000Z</time>
</trkpt>
<trkpt lat="59.5103082" lon="31.2350918">
<ele>46.129997</ele>
<time>2026-09-01T00:53:23.000Z</time>
</trkpt>
<trkpt lat="59.5102401" lon="31.2351514">
<ele>46.530003</ele>
<time>2026-09-01T00:53:39.000Z</time>
</trkpt>
<trkpt lat="59.5101888" lon="31.2353359">
<ele>45.739998</ele>
<time>2026-09-01T00:53:59.000Z</time>
</trkpt>
<trkpt lat="59.5101113" lon="31.2354860">
<ele>46.230000</ele>
<time>2026-09-01T00:54:17.000Z</time>
</trkpt>
<trkpt lat="59.5100247" lon="31.2356428">
<ele>45.760002</ele>
<time>2026-09-01T00:54:38.000Z</time>
</trkpt>
<trkpt lat="59.5099702" lon="31.2357518">
<ele>46.180000</ele>
<time>2026-09-01T00:54:54.000Z</time>
</trkpt>
<trkpt lat="59.5099279" lon="31.2358545">
<ele>46.240002</ele>
<time>2026-09-01T00:55:12.000Z</time>
</trkpt>
<trkpt lat="59.5098634" lon="31.2359595">
<ele>46.439999</ele>
<time>2026-09-01T00:55:33.000Z</time>
</trkpt>
<trkpt lat="59.5098398" lon="31.2360888">
<ele>45.959999</ele>
<time>2026-09-01T00:55:49.000Z</time>
</trkpt>
<trkpt lat="59.5098225" lon="31.2361753">
<ele>46.160000</ele>
<time>2026-09-01T00:56:11.000Z</time>
</trkpt>
<trkpt lat="59.5097662" lon="31.2362264">
<ele>45.930000</ele>
<time>2026-09-01T00:56:24.000Z</time>
</trkpt>
<trkpt lat="59.5096739" lon="31.2362682">
<ele>45.519997</ele>
<time>2026-09-01T00:56:40.000Z</time>
</trkpt>
<trkpt lat="59.5096180" lon="31.2362821">
<ele>45.630001</ele>
<time>2026-09-01T00:56:55.000Z</time>
</trkpt>
<trkpt lat="59.5096079" lon="31.2362039">
<ele>45.189999</ele>
<time>2026-09-01T00:57:27.000Z</time>
</trkpt>
<trkpt lat="59.5095861" lon="31.2360502">
<ele>45.040001</ele>
<time>2026-09-01T00:57:42.000Z</time>
</trkpt>
<trkpt lat="59.5096021" lon="31.2358566">
<ele>45.119999</ele>
<time>2026-09-01T00:57:59.000Z</time>
</trkpt>
<trkpt lat="59.5096092" lon="31.2357299">
<ele>44.540001</ele>
<time>2026-09-01T00:58:22.000Z</time>
</trkpt>
<trkpt lat="59.5095660" lon="31.2356173">
<ele>44.599998</ele>
<time>2026-09-01T00:58:42.000Z</time>
</trkpt>
<trkpt lat="59.5095589" lon="31.2355879">
<ele>44.550003</ele>
<time>2026-09-01T00:59:16.000Z</time>
</trkpt>
<trkpt lat="59.5095496" lon="31.2355438">
<ele>44.340000</ele>
<time>2026-09-01T01:00:01.000Z</time>
</trkpt>
<trkpt lat="59.5095325" lon="31.2355549">
<ele>44.790001</ele>
<time>2026-09-01T01:00:33.000Z</time>
</trkpt>
<trkpt lat="59.5094749" lon="31.2355729">
<ele>45.160000</ele>
<time>2026-09-01T01:01:00.000Z</time>
</trkpt>
<trkpt lat="59.5093693" lon="31.2355692">
<ele>44.390003</ele>
<time>2026-09-01T01:01:19.000Z</time>
</trkpt>
<trkpt lat="59.5092708" lon="31.2355056">
<ele>44.679996</ele>
<time>2026-09-01T01:01:35.000Z</time>
</trkpt>
<trkpt lat="59.5091766" lon="31.2354840">
<ele>44.689999</ele>
<time>2026-09-01T01:01:52.000Z</time>
</trkpt>
<trkpt lat="59.5090792" lon="31.2354535">
<ele>44.470001</ele>
<time>2026-09-01T01:02:11.000Z</time>
</trkpt>
<trkpt lat="59.5090239" lon="31.2353526">
<ele>44.400002</ele>
<time>2026-09-01T01:02:25.000Z</time>
</trkpt>
<trkpt lat="59.5089060" lon="31.2352788">
<ele>43.829998</ele>
<time>2026-09-01T01:02:41.000Z</time>
</trkpt>
<trkpt lat="59.5087830" lon="31.2352181">
<ele>44.630001</ele>
<time>2026-09-01T01:03:01.000Z</time>
</trkpt>
<trkpt lat="59.5087126" lon="31.2352123">
<ele>44.579998</ele>
<time>2026-09-01T01:03:17.000Z</time>
</trkpt>
<trkpt lat="59.5086054" lon="31.2352579">
<ele>44.470001</ele>
<time>2026-09-01T01:03:39.000Z</time>
</trkpt>
<trkpt lat="59.5085146" lon="31.2352632">
<ele>44.010002</ele>
<time>2026-09-01T01:03:55.000Z</time>
</trkpt>
<trkpt lat="59.5083685" lon="31.2352148">
<ele>44.320004</ele>
<time>2026-09-01T01:04:15.000Z</time>
</trkpt>
<trkpt lat="59.5082645" lon="31.2351909">
<ele>43.970001</ele>
<time>2026-09-01T01:04:32.000Z</time>
</trkpt>
<trkpt lat="59.5081660" lon="31.2351721">
<ele>44.119999</ele>
<time>2026-09-01T01:04:48.000Z</time>
</trkpt>
<trkpt lat="59.5080765" lon="31.2351933">
<ele>44.020000</ele>
<time>2026-09-01T01:05:07.000Z</time>
</trkpt>
<trkpt lat="59.5080386" lon="31.2351935">
<ele>43.650002</ele>
<time>2026-09-01T01:05:21.000Z</time>
</trkpt>
<trkpt lat="59.5080086" lon="31.2350783">
<ele>43.829998</ele>
<time>2026-09-01T01:05:42.000Z</time>
</trkpt>
<trkpt lat="59.5079476" lon="31.2350135">
<ele>43.320004</ele>
<time>2026-09-01T01:06:00.000Z</time>
</trkpt>
<trkpt lat="59.5079000" lon="31.2350251">
<ele>43.689999</ele>
<time>2026-09-01T01:06:28.000Z</time>
</trkpt>
<trkpt lat="59.5078836" lon="31.2350807">
<ele>43.389999</ele>
<time>2026-09-01T01:07:00.000Z</time>
</trkpt>
<trkpt lat="59.5078584" lon="31.2350880">
<ele>43.250004</ele>
<time>2026-09-01T01:07:21.000Z</time>
</trkpt>
<trkpt lat="59.5078256" lon="31.2350338">
<ele>42.919998</ele>
<time>2026-09-01T01:07:50.000Z</time>
</trkpt>
<trkpt lat="59.5078659" lon="31.2350328">
<ele>42.790001</ele>
<time>2026-09-01T01:08:20.000Z</time>
</trkpt>
<trkpt lat="59.5079163" lon="31.2350175">
<ele>42.989998</ele>
<time>2026-09-01T01:08:50.000Z</time>
</trkpt>
<trkpt lat="59.5078957" lon="31.2350830">
<ele>43.009998</ele>
<time>2026-09-01T01:09:20.000Z</time>
</trkpt>
<trkpt lat="59.5078219" lon="31.2349248">
<ele>42.490002</ele>
<time>2026-09-01T01:09:43.000Z</time>
</trkpt>
<trkpt lat="59.5077569" lon="31.2348318">
<ele>42.770000</ele>
<time>2026-09-01T01:10:00.000Z</time>
</trkpt>
<trkpt lat="59.5077154" lon="31.2347859">
<ele>42.529999</ele>
<time>2026-09-01T01:10:19.000Z</time>
</trkpt>
<trkpt lat="59.5076907" lon="31.2347539">
<ele>42.790001</ele>
<time>2026-09-01T01:10:35.000Z</time>
</trkpt>
<trkpt lat="59.5076374" lon="31.2346594">
<ele>42.389999</ele>
<time>2026-09-01T01:10:52.000Z</time>
</trkpt>
<trkpt lat="59.5075325" lon="31.2345355">
<ele>42.340000</ele>
<time>2026-09-01T01:11:12.000Z</time>
</trkpt>
<trkpt lat="59.5074636" lon="31.2344811">
<ele>42.539997</ele>
<time>2026-09-01T01:11:29.000Z</time>
</trkpt>
<trkpt lat="59.5074370" lon="31.2344205">
<ele>42.480000</ele>
<time>2026-09-01T01:11:38.000Z</time>
</trkpt>
<trkpt lat="59.5073895" lon="31.2342436">
<ele>42.490002</ele>
<time>2026-09-01T01:11:59.000Z</time>
</trkpt>
<trkpt lat="59.5073244" lon="31.2342589">
<ele>42.420002</ele>
<time>2026-09-01T01:12:19.000Z</time>
</trkpt>
<trkpt lat="59.5073066" lon="31.2342519">
<ele>42.689999</ele>
<time>2026-09-01T01:12:39.000Z</time>
</trkpt>
<trkpt lat="59.5072854" lon="31.2342293">
<ele>41.779999</ele>
<time>2026-09-01T01:13:01.000Z</time>
</trkpt>
<trkpt lat="59.5072434" lon="31.2341286">
<ele>42.580002</ele>
<time>2026-09-01T01:13:16.000Z</time>
</trkpt>
<trkpt lat="59.5071506" lon="31.2340334">
<ele>42.459999</ele>
<time>2026-09-01T01:13:36.000Z</time>
</trkpt>
<trkpt lat="59.5071274" lon="31.2340023">
<ele>42.249996</ele>
<time>2026-09-01T01:13:54.000Z</time>
</trkpt>
<trkpt lat="59.5071048" lon="31.2339629">
<ele>42.030003</ele>
<time>2026-09-01T01:14:16.000Z</time>
</trkpt>
<trkpt lat="59.5070221" lon="31.2339247">
<ele>42.209999</ele>
<time>2026-09-01T01:14:34.000Z</time>
</trkpt>
<trkpt lat="59.5069548" lon="31.2338412">
<ele>42.230000</ele>
<time>2026-09-01T01:14:55.000Z</time>
</trkpt>
<trkpt lat="59.5068788" lon="31.2337954">
<ele>42.350002</ele>
<time>2026-09-01T01:15:11.000Z</time>
</trkpt>
<trkpt lat="59.5068485" lon="31.2337240">
<ele>42.320000</ele>
<time>2026-09-01T01:15:31.000Z</time>
</trkpt>
<trkpt lat="59.5067996" lon="31.2337139">
<ele>41.919998</ele>
<time>2026-09-01T01:15:48.000Z</time>
</trkpt>
<trkpt lat="59.5067498" lon="31.2337169">
<ele>42.209999</ele>
<time>2026-09-01T01:16:09.000Z</time>
</trkpt>
<trkpt lat="59.5066884" lon="31.2337501">
<ele>41.939999</ele>
<time>2026-09-01T01:16:29.000Z</time>
</trkpt>
<trkpt lat="59.5066432" lon="31.2337491">
<ele>42.260002</ele>
<time>2026-09-01T01:16:46.000Z</time>
</trkpt>
<trkpt lat="59.5066037" lon="31.2336867">
<ele>41.910000</ele>
<time>2026-09-01T01:17:09.000Z</time>
</trkpt>
<trkpt lat="59.5065249" lon="31.2336613">
<ele>41.989998</ele>
<time>2026-09-01T01:17:26.000Z</time>
</trkpt>
<trkpt lat="59.5065024" lon="31.2336843">
<ele>40.960003</ele>
<time>2026-09-01T01:17:32.000Z</time>
</trkpt>
<trkpt lat="59.5064981" lon="31.2336890">
<ele>47.700001</ele>
<time>2026-09-01T01:17:34.000Z</time>
</trkpt>
<trkpt lat="59.5064965" lon="31.2336916">
<ele>41.040001</ele>
<time>2026-09-01T01:17:35.000Z</time>
</trkpt>
<trkpt lat="59.5064825" lon="31.2337021">
<ele>42.510002</ele>
<time>2026-09-01T01:17:59.000Z</time>
</trkpt>
<trkpt lat="59.5064459" lon="31.2336994">
<ele>42.490002</ele>
<time>2026-09-01T01:18:37.000Z</time>
</trkpt>
<trkpt lat="59.5063593" lon="31.2337284">
<ele>42.130001</ele>
<time>2026-09-01T01:18:54.000Z</time>
</trkpt>
<trkpt lat="59.5062346" lon="31.2337557">
<ele>42.149998</ele>
<time>2026-09-01T01:19:14.000Z</time>
</trkpt>
<trkpt lat="59.5061199" lon="31.2338239">
<ele>41.980000</ele>
<time>2026-09-01T01:19:34.000Z</time>
</trkpt>
<trkpt lat="59.5060223" lon="31.2337450">
<ele>42.070000</ele>
<time>2026-09-01T01:19:51.000Z</time>
</trkpt>
<trkpt lat="59.5059491" lon="31.2336729">
<ele>42.500000</ele>
<time>2026-09-01T01:20:11.000Z</time>
</trkpt>
<trkpt lat="59.5059145" lon="31.2336392">
<ele>41.549999</ele>
<time>2026-09-01T01:20:33.000Z</time>
</trkpt>
<trkpt lat="59.5058580" lon="31.2336066">
<ele>41.459999</ele>
<time>2026-09-01T01:20:57.000Z</time>
</trkpt>
<trkpt lat="59.5058399" lon="31.2336010">
<ele>41.670002</ele>
<time>2026-09-01T01:21:21.000Z</time>
</trkpt>
<trkpt lat="59.5058930" lon="31.2336048">
<ele>41.290001</ele>
<time>2026-09-01T01:21:48.000Z</time>
</trkpt>
<trkpt lat="59.5059216" lon="31.2336187">
<ele>41.859997</ele>
<time>2026-09-01T01:22:05.000Z</time>
</trkpt>
<trkpt lat="59.5059847" lon="31.2336176">
<ele>42.200001</ele>
<time>2026-09-01T01:22:31.000Z</time>
</trkpt>
<trkpt lat="59.5059885" lon="31.2336150">
<ele>41.700001</ele>
<time>2026-09-01T01:22:33.000Z</time>
</trkpt>
<trkpt lat="59.5059796" lon="31.2335136">
<ele>41.930000</ele>
<time>2026-09-01T01:23:05.000Z</time>
</trkpt>
<trkpt lat="59.5059747" lon="31.2335818">
<ele>41.980000</ele>
<time>2026-09-01T01:23:40.000Z</time>
</trkpt>
<trkpt lat="59.5059876" lon="31.2337445">
<ele>41.689999</ele>
<time>2026-09-01T01:24:01.000Z</time>
</trkpt>
<trkpt lat="59.5060226" lon="31.2339082">
<ele>41.730003</ele>
<time>2026-09-01T01:24:18.000Z</time>
</trkpt>
<trkpt lat="59.5060727" lon="31.2340596">
<ele>41.709999</ele>
<time>2026-09-01T01:24:35.000Z</time>
</trkpt>
<trkpt lat="59.5060911" lon="31.2341480">
<ele>41.680000</ele>
<time>2026-09-01T01:24:57.000Z</time>
</trkpt>
<trkpt lat="59.5061153" lon="31.2340815">
<ele>42.000000</ele>
<time>2026-09-01T01:25:19.000Z</time>
</trkpt>
<trkpt lat="59.5061554" lon="31.2341736">
<ele>41.500000</ele>
<time>2026-09-01T01:25:41.000Z</time>
</trkpt>
<trkpt lat="59.5061695" lon="31.2342744">
<ele>39.659996</ele>
<time>2026-09-01T01:25:56.000Z</time>
</trkpt>
<trkpt lat="59.5061652" lon="31.2342848">
<ele>41.789997</ele>
<time>2026-09-01T01:26:03.000Z</time>
</trkpt>
<trkpt lat="59.5061370" lon="31.2343780">
<ele>41.469997</ele>
<time>2026-09-01T01:26:21.000Z</time>
</trkpt>
<trkpt lat="59.5060824" lon="31.2343685">
<ele>41.610001</ele>
<time>2026-09-01T01:26:34.000Z</time>
</trkpt>
<trkpt lat="59.5060578" lon="31.2343588">
<ele>42.510002</ele>
<time>2026-09-01T01:26:52.000Z</time>
</trkpt>
<trkpt lat="59.5060163" lon="31.2343449">
<ele>41.709999</ele>
<time>2026-09-01T01:27:17.000Z</time>
</trkpt>
<trkpt lat="59.5059941" lon="31.2343569">
<ele>41.619999</ele>
<time>2026-09-01T01:27:35.000Z</time>
</trkpt>
<trkpt lat="59.5059756" lon="31.2342713">
<ele>41.859997</ele>
<time>2026-09-01T01:27:58.000Z</time>
</trkpt>
<trkpt lat="59.5059810" lon="31.2342166">
<ele>41.239998</ele>
<time>2026-09-01T01:28:17.000Z</time>
</trkpt>
<trkpt lat="59.5059979" lon="31.2341801">
<ele>41.559998</ele>
<time>2026-09-01T01:28:39.000Z</time>
</trkpt>
<trkpt lat="59.5060076" lon="31.2341962">
<ele>41.980000</ele>
<time>2026-09-01T01:28:49.000Z</time>
</trkpt>
<trkpt lat="59.5060199" lon="31.2340913">
<ele>41.350002</ele>
<time>2026-09-01T01:29:11.000Z</time>
</trkpt>
<trkpt lat="59.5060334" lon="31.2340391">
<ele>41.670002</ele>
<time>2026-09-01T01:29:34.000Z</time>
</trkpt>
<trkpt lat="59.5060150" lon="31.2340098">
<ele>41.880001</ele>
<time>2026-09-01T01:30:13.000Z</time>
</trkpt>
<trkpt lat="59.5060185" lon="31.2340030">
<ele>41.900002</ele>
<time>2026-09-01T01:30:42.000Z</time>
</trkpt>
<trkpt lat="59.5060157" lon="31.2339460">
<ele>41.939999</ele>
<time>2026-09-01T01:31:10.000Z</time>
</trkpt>
<trkpt lat="59.5060244" lon="31.2339820">
<ele>42.120003</ele>
<time>2026-09-01T01:32:05.000Z</time>
</trkpt>
<trkpt lat="59.5060765" lon="31.2338672">
<ele>41.939999</ele>
<time>2026-09-01T01:32:24.000Z</time>
</trkpt>
<trkpt lat="59.5060517" lon="31.2337230">
<ele>42.770000</ele>
<time>2026-09-01T01:32:41.000Z</time>
</trkpt>
<trkpt lat="59.5060448" lon="31.2336577">
<ele>44.219997</ele>
<time>2026-09-01T01:33:14.000Z</time>
</trkpt>
<trkpt lat="59.5060433" lon="31.2336601">
<ele>42.689999</ele>
<time>2026-09-01T01:33:16.000Z</time>
</trkpt>
<trkpt lat="59.5059976" lon="31.2335932">
<ele>42.859997</ele>
<time>2026-09-01T01:33:36.000Z</time>
</trkpt>
<trkpt lat="59.5059924" lon="31.2335724">
<ele>42.529999</ele>
<time>2026-09-01T01:33:57.000Z</time>
</trkpt>
<trkpt lat="59.5061195" lon="31.2335993">
<ele>42.040001</ele>
<time>2026-09-01T01:34:19.000Z</time>
</trkpt>
<trkpt lat="59.5062392" lon="31.2336663">
<ele>42.420002</ele>
<time>2026-09-01T01:34:40.000Z</time>
</trkpt>
<trkpt lat="59.5063321" lon="31.2338132">
<ele>42.380001</ele>
<time>2026-09-01T01:34:59.000Z</time>
</trkpt>
<trkpt lat="59.5064505" lon="31.2339087">
<ele>42.009998</ele>
<time>2026-09-01T01:35:18.000Z</time>
</trkpt>
<trkpt lat="59.5064695" lon="31.2338986">
<ele>42.410004</ele>
<time>2026-09-01T01:35:26.000Z</time>
</trkpt>
<trkpt lat="59.5065630" lon="31.2340009">
<ele>41.629997</ele>
<time>2026-09-01T01:35:48.000Z</time>
</trkpt>
<trkpt lat="59.5066234" lon="31.2341097">
<ele>41.910000</ele>
<time>2026-09-01T01:36:08.000Z</time>
</trkpt>
<trkpt lat="59.5067121" lon="31.2341699">
<ele>41.670002</ele>
<time>2026-09-01T01:36:29.000Z</time>
</trkpt>
<trkpt lat="59.5068033" lon="31.2341185">
<ele>38.610001</ele>
<time>2026-09-01T01:36:42.000Z</time>
</trkpt>
<trkpt lat="59.5068053" lon="31.2341198">
<ele>39.429996</ele>
<time>2026-09-01T01:36:43.000Z</time>
</trkpt>
<trkpt lat="59.5068096" lon="31.2341157">
<ele>43.490002</ele>
<time>2026-09-01T01:36:45.000Z</time>
</trkpt>
<trkpt lat="59.5068102" lon="31.2341093">
<ele>42.070000</ele>
<time>2026-09-01T01:36:46.000Z</time>
</trkpt>
<trkpt lat="59.5068190" lon="31.2340814">
<ele>38.869999</ele>
<time>2026-09-01T01:37:04.000Z</time>
</trkpt>
<trkpt lat="59.5068170" lon="31.2340905">
<ele>43.450001</ele>
<time>2026-09-01T01:37:06.000Z</time>
</trkpt>
<trkpt lat="59.5068204" lon="31.2340888">
<ele>41.989998</ele>
<time>2026-09-01T01:37:07.000Z</time>
</trkpt>
<trkpt lat="59.5068618" lon="31.2340961">
<ele>41.090000</ele>
<time>2026-09-01T01:37:33.000Z</time>
</trkpt>
<trkpt lat="59.5069217" lon="31.2340478">
<ele>40.990002</ele>
<time>2026-09-01T01:37:52.000Z</time>
</trkpt>
<trkpt lat="59.5069777" lon="31.2340467">
<ele>41.060001</ele>
<time>2026-09-01T01:38:07.000Z</time>
</trkpt>
<trkpt lat="59.5070487" lon="31.2340090">
<ele>40.840000</ele>
<time>2026-09-01T01:38:28.000Z</time>
</trkpt>
<trkpt lat="59.5071823" lon="31.2340191">
<ele>40.879997</ele>
<time>2026-09-01T01:38:46.000Z</time>
</trkpt>
<trkpt lat="59.5073427" lon="31.2340028">
<ele>40.639999</ele>
<time>2026-09-01T01:39:07.000Z</time>
</trkpt>
<trkpt lat="59.5074376" lon="31.2339948">
<ele>41.150002</ele>
<time>2026-09-01T01:39:26.000Z</time>
</trkpt>
<trkpt lat="59.5075077" lon="31.2340186">
<ele>40.510002</ele>
<time>2026-09-01T01:39:46.000Z</time>
</trkpt>
<trkpt lat="59.5076056" lon="31.2339054">
<ele>40.499996</ele>
<time>2026-09-01T01:40:06.000Z</time>
</trkpt>
<trkpt lat="59.5076967" lon="31.2337596">
<ele>41.019997</ele>
<time>2026-09-01T01:40:27.000Z</time>
</trkpt>
<trkpt lat="59.5077891" lon="31.2335919">
<ele>40.520000</ele>
<time>2026-09-01T01:40:47.000Z</time>
</trkpt>
<trkpt lat="59.5078847" lon="31.2334344">
<ele>40.629997</ele>
<time>2026-09-01T01:41:10.000Z</time>
</trkpt>
<trkpt lat="59.5079102" lon="31.2332944">
<ele>40.510002</ele>
<time>2026-09-01T01:41:26.000Z</time>
</trkpt>
<trkpt lat="59.5079412" lon="31.2332309">
<ele>40.869999</ele>
<time>2026-09-01T01:41:42.000Z</time>
</trkpt>
<trkpt lat="59.5080021" lon="31.2331171">
<ele>40.820000</ele>
<time>2026-09-01T01:42:00.000Z</time>
</trkpt>
<trkpt lat="59.5080321" lon="31.2331194">
<ele>41.440002</ele>
<time>2026-09-01T01:42:19.000Z</time>
</trkpt>
<trkpt lat="59.5080354" lon="31.2331916">
<ele>40.849998</ele>
<time>2026-09-01T01:42:45.000Z</time>
</trkpt>
<trkpt lat="59.5080307" lon="31.2332028">
<ele>40.970001</ele>
<time>2026-09-01T01:43:15.000Z</time>
</trkpt>
<trkpt lat="59.5079956" lon="31.2331906">
<ele>40.770000</ele>
<time>2026-09-01T01:43:53.000Z</time>
</trkpt>
<trkpt lat="59.5079790" lon="31.2331990">
<ele>40.399998</ele>
<time>2026-09-01T01:44:16.000Z</time>
</trkpt>
<trkpt lat="59.5080003" lon="31.2332887">
<ele>40.730003</ele>
<time>2026-09-01T01:44:32.000Z</time>
</trkpt>
<trkpt lat="59.5080163" lon="31.2333309">
<ele>41.079998</ele>
<time>2026-09-01T01:44:54.000Z</time>
</trkpt>
<trkpt lat="59.5080271" lon="31.2334381">
<ele>40.970001</ele>
<time>2026-09-01T01:45:08.000Z</time>
</trkpt>
<trkpt lat="59.5080739" lon="31.2335510">
<ele>40.529999</ele>
<time>2026-09-01T01:45:29.000Z</time>
</trkpt>
<trkpt lat="59.5081132" lon="31.2337036">
<ele>41.340004</ele>
<time>2026-09-01T01:45:49.000Z</time>
</trkpt>
<trkpt lat="59.5082287" lon="31.2337281">
<ele>40.480000</ele>
<time>2026-09-01T01:46:06.000Z</time>
</trkpt>
<trkpt lat="59.5083627" lon="31.2337364">
<ele>41.060001</ele>
<time>2026-09-01T01:46:27.000Z</time>
</trkpt>
<trkpt lat="59.5084353" lon="31.2338038">
<ele>40.890003</ele>
<time>2026-09-01T01:46:44.000Z</time>
</trkpt>
<trkpt lat="59.5085072" lon="31.2338356">
<ele>40.869999</ele>
<time>2026-09-01T01:47:02.000Z</time>
</trkpt>
<trkpt lat="59.5086030" lon="31.2337700">
<ele>40.919998</ele>
<time>2026-09-01T01:47:19.000Z</time>
</trkpt>
<trkpt lat="59.5087280" lon="31.2338112">
<ele>40.930000</ele>
<time>2026-09-01T01:47:37.000Z</time>
</trkpt>
<trkpt lat="59.5087653" lon="31.2337746">
<ele>40.750000</ele>
<time>2026-09-01T01:47:57.000Z</time>
</trkpt>
<trkpt lat="59.5087833" lon="31.2337567">
<ele>41.309998</ele>
<time>2026-09-01T01:48:42.000Z</time>
</trkpt>
<trkpt lat="59.5087854" lon="31.2337600">
<ele>38.619999</ele>
<time>2026-09-01T01:48:45.000Z</time>
</trkpt>
<trkpt lat="59.5088175" lon="31.2337695">
<ele>40.789997</ele>
<time>2026-09-01T01:49:12.000Z</time>
</trkpt>
<trkpt lat="59.5088161" lon="31.2337896">
<ele>41.130001</ele>
<time>2026-09-01T01:49:55.000Z</time>
</trkpt>
<trkpt lat="59.5088423" lon="31.2337804">
<ele>40.559998</ele>
<time>2026-09-01T01:50:15.000Z</time>
</trkpt>
<trkpt lat="59.5089465" lon="31.2337791">
<ele>40.339996</ele>
<time>2026-09-01T01:50:32.000Z</time>
</trkpt>
<trkpt lat="59.5090680" lon="31.2337169">
<ele>40.150002</ele>
<time>2026-09-01T01:50:51.000Z</time>
</trkpt>
<trkpt lat="59.5091729" lon="31.2336011">
<ele>40.559998</ele>
<time>2026-09-01T01:51:09.000Z</time>
</trkpt>
<trkpt lat="59.5092458" lon="31.2335637">
<ele>40.239998</ele>
<time>2026-09-01T01:51:29.000Z</time>
</trkpt>
<trkpt lat="59.5093563" lon="31.2334762">
<ele>40.320000</ele>
<time>2026-09-01T01:51:47.000Z</time>
</trkpt>
<trkpt lat="59.5094354" lon="31.2333537">
<ele>40.220001</ele>
<time>2026-09-01T01:52:07.000Z</time>
</trkpt>
<trkpt lat="59.5095297" lon="31.2333474">
<ele>40.540001</ele>
<time>2026-09-01T01:52:26.000Z</time>
</trkpt>
<trkpt lat="59.5095882" lon="31.2332716">
<ele>39.910000</ele>
<time>2026-09-01T01:52:46.000Z</time>
</trkpt>
<trkpt lat="59.5096560" lon="31.2331529">
<ele>40.150002</ele>
<time>2026-09-01T01:52:59.000Z</time>
</trkpt>
<trkpt lat="59.5097649" lon="31.2330406">
<ele>40.430000</ele>
<time>2026-09-01T01:53:22.000Z</time>
</trkpt>
<trkpt lat="59.5098143" lon="31.2330462">
<ele>39.949997</ele>
<time>2026-09-01T01:53:52.000Z</time>
</trkpt>
<trkpt lat="59.5098785" lon="31.2328894">
<ele>39.949997</ele>
<time>2026-09-01T01:54:17.000Z</time>
</trkpt>
<trkpt lat="59.5099605" lon="31.2327608">
<ele>39.760002</ele>
<time>2026-09-01T01:54:35.000Z</time>
</trkpt>
<trkpt lat="59.5100334" lon="31.2326946">
<ele>40.399998</ele>
<time>2026-09-01T01:54:53.000Z</time>
</trkpt>
<trkpt lat="59.5101272" lon="31.2326358">
<ele>39.530003</ele>
<time>2026-09-01T01:55:13.000Z</time>
</trkpt>
<trkpt lat="59.5102102" lon="31.2325494">
<ele>39.949997</ele>
<time>2026-09-01T01:55:30.000Z</time>
</trkpt>
<trkpt lat="59.5102785" lon="31.2324407">
<ele>39.889999</ele>
<time>2026-09-01T01:55:47.000Z</time>
</trkpt>
<trkpt lat="59.5103391" lon="31.2323371">
<ele>39.840000</ele>
<time>2026-09-01T01:56:06.000Z</time>
</trkpt>
<trkpt lat="59.5104640" lon="31.2322489">
<ele>39.600002</ele>
<time>2026-09-01T01:56:27.000Z</time>
</trkpt>
<trkpt lat="59.5105877" lon="31.2321819">
<ele>39.690002</ele>
<time>2026-09-01T01:56:51.000Z</time>
</trkpt>
<trkpt lat="59.5107021" lon="31.2321395">
<ele>39.210003</ele>
<time>2026-09-01T01:57:05.000Z</time>
</trkpt>
<trkpt lat="59.5108128" lon="31.2321640">
<ele>39.080002</ele>
<time>2026-09-01T01:57:27.000Z</time>
</trkpt>
<trkpt lat="59.5108533" lon="31.2321891">
<ele>39.360001</ele>
<time>2026-09-01T01:57:54.000Z</time>
</trkpt>
<trkpt lat="59.5110286" lon="31.2322648">
<ele>38.680000</ele>
<time>2026-09-01T01:58:15.000Z</time>
</trkpt>
<trkpt lat="59.5111491" lon="31.2322861">
<ele>38.510002</ele>
<time>2026-09-01T01:58:35.000Z</time>
</trkpt>
<trkpt lat="59.5112666" lon="31.2321949">
<ele>38.240002</ele>
<time>2026-09-01T01:58:51.000Z</time>
</trkpt>
<trkpt lat="59.5113180" lon="31.2321816">
<ele>38.980000</ele>
<time>2026-09-01T01:58:58.000Z</time>
</trkpt>
<trkpt lat="59.5114041" lon="31.2321689">
<ele>38.759998</ele>
<time>2026-09-01T01:59:16.000Z</time>
</trkpt>
<trkpt lat="59.5115087" lon="31.2320034">
<ele>38.759998</ele>
<time>2026-09-01T01:59:35.000Z</time>
</trkpt>
<trkpt lat="59.5116077" lon="31.2319765">
<ele>38.419998</ele>
<time>2026-09-01T01:59:55.000Z</time>
</trkpt>
<trkpt lat="59.5116001" lon="31.2320099">
<ele>38.689999</ele>
<time>2026-09-01T02:00:33.000Z</time>
</trkpt>
<trkpt lat="59.5116382" lon="31.2320189">
<ele>38.610001</ele>
<time>2026-09-01T02:01:12.000Z</time>
</trkpt>
<trkpt lat="59.5117013" lon="31.2319664">
<ele>38.590000</ele>
<time>2026-09-01T02:01:29.000Z</time>
</trkpt>
<trkpt lat="59.5118476" lon="31.2318482">
<ele>38.329998</ele>
<time>2026-09-01T02:01:49.000Z</time>
</trkpt>
<trkpt lat="59.5119737" lon="31.2317755">
<ele>38.299999</ele>
<time>2026-09-01T02:02:08.000Z</time>
</trkpt>
<trkpt lat="59.5120855" lon="31.2317392">
<ele>37.730000</ele>
<time>2026-09-01T02:02:28.000Z</time>
</trkpt>
<trkpt lat="59.5122077" lon="31.2317837">
<ele>38.049999</ele>
<time>2026-09-01T02:02:46.000Z</time>
</trkpt>
<trkpt lat="59.5123614" lon="31.2316775">
<ele>38.450001</ele>
<time>2026-09-01T02:03:07.000Z</time>
</trkpt>
<trkpt lat="59.5125074" lon="31.2315699">
<ele>37.950001</ele>
<time>2026-09-01T02:03:26.000Z</time>
</trkpt>
<trkpt lat="59.5126114" lon="31.2315084">
<ele>37.290001</ele>
<time>2026-09-01T02:03:45.000Z</time>
</trkpt>
<trkpt lat="59.5127281" lon="31.2314548">
<ele>37.540001</ele>
<time>2026-09-01T02:04:00.000Z</time>
</trkpt>
<trkpt lat="59.5128365" lon="31.2313182">
<ele>37.380001</ele>
<time>2026-09-01T02:04:20.000Z</time>
</trkpt>
<trkpt lat="59.5129918" lon="31.2311070">
<ele>37.540001</ele>
<time>2026-09-01T02:04:43.000Z</time>
</trkpt>
<trkpt lat="59.5131404" lon="31.2309554">
<ele>38.200001</ele>
<time>2026-09-01T02:05:03.000Z</time>
</trkpt>
<trkpt lat="59.5132704" lon="31.2309187">
<ele>37.510002</ele>
<time>2026-09-01T02:05:22.000Z</time>
</trkpt>
<trkpt lat="59.5133919" lon="31.2308742">
<ele>38.000000</ele>
<time>2026-09-01T02:05:41.000Z</time>
</trkpt>
<trkpt lat="59.5135589" lon="31.2307650">
<ele>37.730000</ele>
<time>2026-09-01T02:06:02.000Z</time>
</trkpt>
<trkpt lat="59.5136548" lon="31.2305582">
<ele>37.770000</ele>
<time>2026-09-01T02:06:20.000Z</time>
</trkpt>
<trkpt lat="59.5137557" lon="31.2303341">
<ele>37.980000</ele>
<time>2026-09-01T02:06:40.000Z</time>
</trkpt>
<trkpt lat="59.5138895" lon="31.2301373">
<ele>38.099998</ele>
<time>2026-09-01T02:07:01.000Z</time>
</trkpt>
<trkpt lat="59.5140133" lon="31.2300257">
<ele>37.720001</ele>
<time>2026-09-01T02:07:18.000Z</time>
</trkpt>
<trkpt lat="59.5141404" lon="31.2298777">
<ele>37.980000</ele>
<time>2026-09-01T02:07:37.000Z</time>
</trkpt>
<trkpt lat="59.5142287" lon="31.2297105">
<ele>37.670002</ele>
<time>2026-09-01T02:07:53.000Z</time>
</trkpt>
<trkpt lat="59.5143193" lon="31.2294506">
<ele>38.209999</ele>
<time>2026-09-01T02:08:13.000Z</time>
</trkpt>
<trkpt lat="59.5143722" lon="31.2292403">
<ele>38.340000</ele>
<time>2026-09-01T02:08:32.000Z</time>
</trkpt>
<trkpt lat="59.5143829" lon="31.2292326">
<ele>37.980000</ele>
<time>2026-09-01T02:08:45.000Z</time>
</trkpt>
<trkpt lat="59.5143999" lon="31.2290916">
<ele>38.689999</ele>
<time>2026-09-01T02:09:18.000Z</time>
</trkpt>
<trkpt lat="59.5144023" lon="31.2290902">
<ele>38.910000</ele>
<time>2026-09-01T02:09:48.000Z</time>
</trkpt>
<trkpt lat="59.5144036" lon="31.2291409">
<ele>38.889999</ele>
<time>2026-09-01T02:09:55.000Z</time>
</trkpt>
<trkpt lat="59.5144437" lon="31.2290116">
<ele>38.820000</ele>
<time>2026-09-01T02:10:12.000Z</time>
</trkpt>
<trkpt lat="59.5144827" lon="31.2287006">
<ele>38.549999</ele>
<time>2026-09-01T02:10:32.000Z</time>
</trkpt>
<trkpt lat="59.5145260" lon="31.2283962">
<ele>38.510002</ele>
<time>2026-09-01T02:10:54.000Z</time>
</trkpt>
<trkpt lat="59.5145315" lon="31.2281123">
<ele>38.510002</ele>
<time>2026-09-01T02:11:12.000Z</time>
</trkpt>
<trkpt lat="59.5145734" lon="31.2278397">
<ele>38.610001</ele>
<time>2026-09-01T02:11:33.000Z</time>
</trkpt>
<trkpt lat="59.5145764" lon="31.2274985">
<ele>38.610001</ele>
<time>2026-09-01T02:11:52.000Z</time>
</trkpt>
<trkpt lat="59.5146115" lon="31.2271882">
<ele>39.020000</ele>
<time>2026-09-01T02:12:13.000Z</time>
</trkpt>
<trkpt lat="59.5145943" lon="31.2269023">
<ele>38.889999</ele>
<time>2026-09-01T02:12:31.000Z</time>
</trkpt>
<trkpt lat="59.5146581" lon="31.2266415">
<ele>39.110001</ele>
<time>2026-09-01T02:12:50.000Z</time>
</trkpt>
<trkpt lat="59.5147034" lon="31.2263658">
<ele>38.879997</ele>
<time>2026-09-01T02:13:09.000Z</time>
</trkpt>
<trkpt lat="59.5147180" lon="31.2261858">
<ele>39.110001</ele>
<time>2026-09-01T02:13:24.000Z</time>
</trkpt>
<trkpt lat="59.5147382" lon="31.2259391">
<ele>38.910000</ele>
<time>2026-09-01T02:13:45.000Z</time>
</trkpt>
<trkpt lat="59.5147784" lon="31.2258380">
<ele>39.070000</ele>
<time>2026-09-01T02:14:03.000Z</time>
</trkpt>
<trkpt lat="59.5148412" lon="31.2257191">
<ele>39.070000</ele>
<time>2026-09-01T02:14:21.000Z</time>
</trkpt>
<trkpt lat="59.5148336" lon="31.2255876">
<ele>38.350002</ele>
<time>2026-09-01T02:14:43.000Z</time>
</trkpt>
<trkpt lat="59.5148203" lon="31.2253876">
<ele>38.430000</ele>
<time>2026-09-01T02:15:03.000Z</time>
</trkpt>
<trkpt lat="59.5147995" lon="31.2252392">
<ele>38.230000</ele>
<time>2026-09-01T02:15:18.000Z</time>
</trkpt>
<trkpt lat="59.5147572" lon="31.2250111">
<ele>37.889999</ele>
<time>2026-09-01T02:15:43.000Z</time>
</trkpt>
<trkpt lat="59.5147185" lon="31.2247937">
<ele>38.610001</ele>
<time>2026-09-01T02:16:03.000Z</time>
</trkpt>
<trkpt lat="59.5147376" lon="31.2247304">
<ele>38.510002</ele>
<time>2026-09-01T02:16:26.000Z</time>
</trkpt>
<trkpt lat="59.5146746" lon="31.2246972">
<ele>38.790001</ele>
<time>2026-09-01T02:16:51.000Z</time>
</trkpt>
<trkpt lat="59.5146619" lon="31.2247187">
<ele>39.240002</ele>
<time>2026-09-01T02:17:14.000Z</time>
</trkpt>
<trkpt lat="59.5146681" lon="31.2247302">
<ele>39.140003</ele>
<time>2026-09-01T02:17:44.000Z</time>
</trkpt>
<trkpt lat="59.5146691" lon="31.2247397">
<ele>38.740002</ele>
<time>2026-09-01T02:17:46.000Z</time>
</trkpt>
<trkpt lat="59.5146567" lon="31.2247996">
<ele>39.180000</ele>
<time>2026-09-01T02:17:54.000Z</time>
</trkpt>
<trkpt lat="59.5146647" lon="31.2248248">
<ele>39.029999</ele>
<time>2026-09-01T02:18:17.000Z</time>
</trkpt>
<trkpt lat="59.5146998" lon="31.2247520">
<ele>38.459999</ele>
<time>2026-09-01T02:18:39.000Z</time>
</trkpt>
<trkpt lat="59.5147266" lon="31.2247216">
<ele>38.189999</ele>
<time>2026-09-01T02:18:42.000Z</time>
</trkpt>
<trkpt lat="59.5147302" lon="31.2246261">
<ele>38.770000</ele>
<time>2026-09-01T02:19:05.000Z</time>
</trkpt>
<trkpt lat="59.5148321" lon="31.2244328">
<ele>38.320000</ele>
<time>2026-09-01T02:19:25.000Z</time>
</trkpt>
<trkpt lat="59.5149180" lon="31.2242874">
<ele>38.070000</ele>
<time>2026-09-01T02:19:45.000Z</time>
</trkpt>
<trkpt lat="59.5150364" lon="31.2241532">
<ele>38.820000</ele>
<time>2026-09-01T02:20:05.000Z</time>
</trkpt>
<trkpt lat="59.5150791" lon="31.2240566">
<ele>38.320000</ele>
<time>2026-09-01T02:20:23.000Z</time>
</trkpt>
<trkpt lat="59.5151695" lon="31.2239698">
<ele>38.720001</ele>
<time>2026-09-01T02:20:39.000Z</time>
</trkpt>
<trkpt lat="59.5153424" lon="31.2237411">
<ele>39.080002</ele>
<time>2026-09-01T02:21:01.000Z</time>
</trkpt>
<trkpt lat="59.5153995" lon="31.2236621">
<ele>38.689999</ele>
<time>2026-09-01T02:21:23.000Z</time>
</trkpt>
<trkpt lat="59.5154382" lon="31.2237705">
<ele>39.199997</ele>
<time>2026-09-01T02:21:38.000Z</time>
</trkpt>
<trkpt lat="59.5154699" lon="31.2238929">
<ele>39.240002</ele>
<time>2026-09-01T02:21:55.000Z</time>
</trkpt>
<trkpt lat="59.5154551" lon="31.2239954">
<ele>39.130001</ele>
<time>2026-09-01T02:22:19.000Z</time>
</trkpt>
<trkpt lat="59.5155028" lon="31.2239319">
<ele>38.960003</ele>
<time>2026-09-01T02:22:40.000Z</time>
</trkpt>
<trkpt lat="59.5155502" lon="31.2240167">
<ele>39.259998</ele>
<time>2026-09-01T02:23:04.000Z</time>
</trkpt>
<trkpt lat="59.5155459" lon="31.2240769">
<ele>38.590000</ele>
<time>2026-09-01T02:23:24.000Z</time>
</trkpt>
<trkpt lat="59.5155730" lon="31.2241437">
<ele>38.790001</ele>
<time>2026-09-01T02:23:41.000Z</time>
</trkpt>
<trkpt lat="59.5156249" lon="31.2241891">
<ele>39.480000</ele>
<time>2026-09-01T02:24:03.000Z</time>
</trkpt>
<trkpt lat="59.5157214" lon="31.2240496">
<ele>38.759998</ele>
<time>2026-09-01T02:24:35.000Z</time>
</trkpt>
<trkpt lat="59.5157335" lon="31.2240447">
<ele>38.900002</ele>
<time>2026-09-01T02:24:53.000Z</time>
</trkpt>
<trkpt lat="59.5157999" lon="31.2240061">
<ele>38.599998</ele>
<time>2026-09-01T02:25:11.000Z</time>
</trkpt>
<trkpt lat="59.5158455" lon="31.2239199">
<ele>38.350002</ele>
<time>2026-09-01T02:25:30.000Z</time>
</trkpt>
<trkpt lat="59.5158602" lon="31.2238867">
<ele>38.459999</ele>
<time>2026-09-01T02:25:49.000Z</time>
</trkpt>
<trkpt lat="59.5159066" lon="31.2238334">
<ele>38.860001</ele>
<time>2026-09-01T02:26:06.000Z</time>
</trkpt>
<trkpt lat="59.5159590" lon="31.2237870">
<ele>38.529999</ele>
<time>2026-09-01T02:26:24.000Z</time>
</trkpt>
<trkpt lat="59.5160035" lon="31.2237021">
<ele>38.500000</ele>
<time>2026-09-01T02:26:41.000Z</time>
</trkpt>
<trkpt lat="59.5160434" lon="31.2235976">
<ele>38.259998</ele>
<time>2026-09-01T02:27:02.000Z</time>
</trkpt>
<trkpt lat="59.5160701" lon="31.2234805">
<ele>38.459999</ele>
<time>2026-09-01T02:27:25.000Z</time>
</trkpt>
<trkpt lat="59.5161153" lon="31.2233736">
<ele>38.459999</ele>
<time>2026-09-01T02:27:43.000Z</time>
</trkpt>
<trkpt lat="59.5161203" lon="31.2232243">
<ele>38.279999</ele>
<time>2026-09-01T02:28:00.000Z</time>
</trkpt>
<trkpt lat="59.5160669" lon="31.2231009">
<ele>38.790001</ele>
<time>2026-09-01T02:28:18.000Z</time>
</trkpt>
<trkpt lat="59.5160972" lon="31.2230552">
<ele>38.540001</ele>
<time>2026-09-01T02:28:43.000Z</time>
</trkpt>
<trkpt lat="59.5161189" lon="31.2228849">
<ele>38.960003</ele>
<time>2026-09-01T02:29:04.000Z</time>
</trkpt>
<trkpt lat="59.5161556" lon="31.2227582">
<ele>38.299999</ele>
<time>2026-09-01T02:29:37.000Z</time>
</trkpt>
<trkpt lat="59.5162024" lon="31.2225296">
<ele>38.170002</ele>
<time>2026-09-01T02:29:59.000Z</time>
</trkpt>
<trkpt lat="59.5163078" lon="31.2223389">
<ele>38.230000</ele>
<time>2026-09-01T02:30:19.000Z</time>
</trkpt>
<trkpt lat="59.5163324" lon="31.2222499">
<ele>38.639999</ele>
<time>2026-09-01T02:30:38.000Z</time>
</trkpt>
<trkpt lat="59.5163442" lon="31.2221929">
<ele>38.510002</ele>
<time>2026-09-01T02:30:43.000Z</time>
</trkpt>
<trkpt lat="59.5163999" lon="31.2220333">
<ele>39.080002</ele>
<time>2026-09-01T02:30:54.000Z</time>
</trkpt>
<trkpt lat="59.5165080" lon="31.2218531">
<ele>39.080002</ele>
<time>2026-09-01T02:31:15.000Z</time>
</trkpt>
<trkpt lat="59.5165677" lon="31.2216896">
<ele>38.799999</ele>
<time>2026-09-01T02:31:36.000Z</time>
</trkpt>
<trkpt lat="59.5165916" lon="31.2216052">
<ele>39.440002</ele>
<time>2026-09-01T02:31:47.000Z</time>
</trkpt>
<trkpt lat="59.5166120" lon="31.2214058">
<ele>39.719997</ele>
<time>2026-09-01T02:32:10.000Z</time>
</trkpt>
<trkpt lat="59.5166755" lon="31.2213619">
<ele>39.610001</ele>
<time>2026-09-01T02:32:33.000Z</time>
</trkpt>
<trkpt lat="59.5166780" lon="31.2213547">
<ele>39.760002</ele>
<time>2026-09-01T02:32:34.000Z</time>
</trkpt>
<trkpt lat="59.5167531" lon="31.2211289">
<ele>40.879997</ele>
<time>2026-09-01T02:32:54.000Z</time>
</trkpt>
<trkpt lat="59.5168940" lon="31.2209064">
<ele>42.650002</ele>
<time>2026-09-01T02:33:15.000Z</time>
</trkpt>
<trkpt lat="59.5169141" lon="31.2208743">
<ele>42.320000</ele>
<time>2026-09-01T02:33:18.000Z</time>
</trkpt>
<trkpt lat="59.5169366" lon="31.2207726">
<ele>42.299999</ele>
<time>2026-09-01T02:33:23.000Z</time>
</trkpt>
<trkpt lat="59.5169898" lon="31.2206083">
<ele>42.230000</ele>
<time>2026-09-01T02:33:36.000Z</time>
</trkpt>
<trkpt lat="59.5170356" lon="31.2205416">
<ele>42.110001</ele>
<time>2026-09-01T02:33:43.000Z</time>
</trkpt>
<trkpt lat="59.5171495" lon="31.2203414">
<ele>41.489998</ele>
<time>2026-09-01T02:34:00.000Z</time>
</trkpt>
<trkpt lat="59.5172430" lon="31.2201042">
<ele>40.559998</ele>
<time>2026-09-01T02:34:18.000Z</time>
</trkpt>
<trkpt lat="59.5173640" lon="31.2199171">
<ele>39.830002</ele>
<time>2026-09-01T02:34:38.000Z</time>
</trkpt>
<trkpt lat="59.5174265" lon="31.2197214">
<ele>39.910000</ele>
<time>2026-09-01T02:34:59.000Z</time>
</trkpt>
<trkpt lat="59.5175513" lon="31.2195455">
<ele>36.750000</ele>
<time>2026-09-01T02:35:20.000Z</time>
</trkpt>
<trkpt lat="59.5175543" lon="31.2195196">
<ele>43.130001</ele>
<time>2026-09-01T02:35:23.000Z</time>
</trkpt>
<trkpt lat="59.5175577" lon="31.2195169">
<ele>39.360001</ele>
<time>2026-09-01T02:35:24.000Z</time>
</trkpt>
<trkpt lat="59.5176654" lon="31.2193712">
<ele>39.659996</ele>
<time>2026-09-01T02:35:42.000Z</time>
</trkpt>
<trkpt lat="59.5178374" lon="31.2191609">
<ele>39.520000</ele>
<time>2026-09-01T02:36:04.000Z</time>
</trkpt>
<trkpt lat="59.5179181" lon="31.2190121">
<ele>38.939999</ele>
<time>2026-09-01T02:36:19.000Z</time>
</trkpt>
<trkpt lat="59.5179854" lon="31.2188443">
<ele>38.820000</ele>
<time>2026-09-01T02:36:37.000Z</time>
</trkpt>
<trkpt lat="59.5180159" lon="31.2188073">
<ele>39.410000</ele>
<time>2026-09-01T02:36:50.000Z</time>
</trkpt>
<trkpt lat="59.5180937" lon="31.2185694">
<ele>39.389999</ele>
<time>2026-09-01T02:37:10.000Z</time>
</trkpt>
<trkpt lat="59.5180525" lon="31.2185105">
<ele>38.930000</ele>
<time>2026-09-01T02:37:26.000Z</time>
</trkpt>
<trkpt lat="59.5180845" lon="31.2183115">
<ele>38.570000</ele>
<time>2026-09-01T02:37:54.000Z</time>
</trkpt>
<trkpt lat="59.5180958" lon="31.2181826">
<ele>38.130001</ele>
<time>2026-09-01T02:38:03.000Z</time>
</trkpt>
<trkpt lat="59.5181297" lon="31.2180897">
<ele>38.250000</ele>
<time>2026-09-01T02:38:11.000Z</time>
</trkpt>
<trkpt lat="59.5181592" lon="31.2178168">
<ele>38.930000</ele>
<time>2026-09-01T02:38:30.000Z</time>
</trkpt>
<trkpt lat="59.5182016" lon="31.2175205">
<ele>38.920002</ele>
<time>2026-09-01T02:38:48.000Z</time>
</trkpt>
<trkpt lat="59.5182485" lon="31.2171994">
<ele>38.610001</ele>
<time>2026-09-01T02:39:09.000Z</time>
</trkpt>
<trkpt lat="59.5182722" lon="31.2170019">
<ele>39.049999</ele>
<time>2026-09-01T02:39:21.000Z</time>
</trkpt>
<trkpt lat="59.5183533" lon="31.2167326">
<ele>38.070000</ele>
<time>2026-09-01T02:39:39.000Z</time>
</trkpt>
<trkpt lat="59.5183685" lon="31.2165809">
<ele>38.340000</ele>
<time>2026-09-01T02:39:59.000Z</time>
</trkpt>
<trkpt lat="59.5184852" lon="31.2164071">
<ele>38.200001</ele>
<time>2026-09-01T02:40:19.000Z</time>
</trkpt>
<trkpt lat="59.5185417" lon="31.2162541">
<ele>38.580002</ele>
<time>2026-09-01T02:40:37.000Z</time>
</trkpt>
<trkpt lat="59.5186789" lon="31.2160343">
<ele>38.060001</ele>
<time>2026-09-01T02:40:57.000Z</time>
</trkpt>
<trkpt lat="59.5187841" lon="31.2158762">
<ele>38.419998</ele>
<time>2026-09-01T02:41:15.000Z</time>
</trkpt>
<trkpt lat="59.5189133" lon="31.2158074">
<ele>38.079998</ele>
<time>2026-09-01T02:41:36.000Z</time>
</trkpt>
<trkpt lat="59.5189681" lon="31.2157061">
<ele>37.780003</ele>
<time>2026-09-01T02:41:57.000Z</time>
</trkpt>
<trkpt lat="59.5190743" lon="31.2155763">
<ele>37.959999</ele>
<time>2026-09-01T02:42:14.000Z</time>
</trkpt>
<trkpt lat="59.5191673" lon="31.2154836">
<ele>38.520000</ele>
<time>2026-09-01T02:42:33.000Z</time>
</trkpt>
<trkpt lat="59.5193506" lon="31.2152720">
<ele>38.310001</ele>
<time>2026-09-01T02:42:53.000Z</time>
</trkpt>
<trkpt lat="59.5194654" lon="31.2150987">
<ele>38.189999</ele>
<time>2026-09-01T02:43:09.000Z</time>
</trkpt>
<trkpt lat="59.5195775" lon="31.2149366">
<ele>38.020000</ele>
<time>2026-09-01T02:43:27.000Z</time>
</trkpt>
<trkpt lat="59.5196503" lon="31.2149006">
<ele>37.809998</ele>
<time>2026-09-01T02:43:45.000Z</time>
</trkpt>
<trkpt lat="59.5196555" lon="31.2148935">
<ele>37.290001</ele>
<time>2026-09-01T02:43:47.000Z</time>
</trkpt>
<trkpt lat="59.5197548" lon="31.2147619">
<ele>37.510002</ele>
<time>2026-09-01T02:44:09.000Z</time>
</trkpt>
<trkpt lat="59.5198400" lon="31.2144707">
<ele>38.320000</ele>
<time>2026-09-01T02:44:30.000Z</time>
</trkpt>
<trkpt lat="59.5198974" lon="31.2141817">
<ele>38.869999</ele>
<time>2026-09-01T02:44:51.000Z</time>
</trkpt>
<trkpt lat="59.5199291" lon="31.2140541">
<ele>40.120003</ele>
<time>2026-09-01T02:45:05.000Z</time>
</trkpt>
<trkpt lat="59.5199694" lon="31.2139190">
<ele>42.650002</ele>
<time>2026-09-01T02:45:16.000Z</time>
</trkpt>
<trkpt lat="59.5199770" lon="31.2138345">
<ele>43.250004</ele>
<time>2026-09-01T02:45:22.000Z</time>
</trkpt>
<trkpt lat="59.5199704" lon="31.2138031">
<ele>43.410000</ele>
<time>2026-09-01T02:45:24.000Z</time>
</trkpt>
<trkpt lat="59.5198969" lon="31.2135422">
<ele>43.009998</ele>
<time>2026-09-01T02:45:46.000Z</time>
</trkpt>
<trkpt lat="59.5199343" lon="31.2134128">
<ele>42.750000</ele>
<time>2026-09-01T02:45:58.000Z</time>
</trkpt>
<trkpt lat="59.5200035" lon="31.2132166">
<ele>42.139999</ele>
<time>2026-09-01T02:46:13.000Z</time>
</trkpt>
<trkpt lat="59.5201028" lon="31.2128504">
<ele>42.699997</ele>
<time>2026-09-01T02:46:32.000Z</time>
</trkpt>
<trkpt lat="59.5201109" lon="31.2128103">
<ele>42.239998</ele>
<time>2026-09-01T02:46:34.000Z</time>
</trkpt>
<trkpt lat="59.5201500" lon="31.2125950">
<ele>41.950001</ele>
<time>2026-09-01T02:46:45.000Z</time>
</trkpt>
<trkpt lat="59.5201884" lon="31.2123810">
<ele>41.840000</ele>
<time>2026-09-01T02:46:57.000Z</time>
</trkpt>
<trkpt lat="59.5202174" lon="31.2121719">
<ele>41.329998</ele>
<time>2026-09-01T02:47:13.000Z</time>
</trkpt>
<trkpt lat="59.5202969" lon="31.2118839">
<ele>41.570004</ele>
<time>2026-09-01T02:47:32.000Z</time>
</trkpt>
<trkpt lat="59.5203311" lon="31.2115837">
<ele>41.270000</ele>
<time>2026-09-01T02:47:49.000Z</time>
</trkpt>
<trkpt lat="59.5203868" lon="31.2113886">
<ele>40.700001</ele>
<time>2026-09-01T02:48:03.000Z</time>
</trkpt>
<trkpt lat="59.5204518" lon="31.2111551">
<ele>40.320000</ele>
<time>2026-09-01T02:48:23.000Z</time>
</trkpt>
<trkpt lat="59.5204258" lon="31.2110800">
<ele>41.090000</ele>
<time>2026-09-01T02:48:42.000Z</time>
</trkpt>
<trkpt lat="59.5203785" lon="31.2109745">
<ele>41.270000</ele>
<time>2026-09-01T02:48:48.000Z</time>
</trkpt>
<trkpt lat="59.5203047" lon="31.2108572">
<ele>40.960003</ele>
<time>2026-09-01T02:49:13.000Z</time>
</trkpt>
<trkpt lat="59.5203255" lon="31.2107053">
<ele>40.900002</ele>
<time>2026-09-01T02:49:30.000Z</time>
</trkpt>
<trkpt lat="59.5203914" lon="31.2106371">
<ele>41.139999</ele>
<time>2026-09-01T02:49:45.000Z</time>
</trkpt>
<trkpt lat="59.5204342" lon="31.2106328">
<ele>40.939999</ele>
<time>2026-09-01T02:49:49.000Z</time>
</trkpt>
<trkpt lat="59.5204657" lon="31.2106493">
<ele>40.629997</ele>
<time>2026-09-01T02:49:52.000Z</time>
</trkpt>
<trkpt lat="59.5205290" lon="31.2106785">
<ele>40.960003</ele>
<time>2026-09-01T02:49:59.000Z</time>
</trkpt>
<trkpt lat="59.5205779" lon="31.2107120">
<ele>40.939999</ele>
<time>2026-09-01T02:50:13.000Z</time>
</trkpt>
<trkpt lat="59.5206531" lon="31.2106801">
<ele>40.619999</ele>
<time>2026-09-01T02:50:28.000Z</time>
</trkpt>
<trkpt lat="59.5206393" lon="31.2106560">
<ele>40.860001</ele>
<time>2026-09-01T02:51:10.000Z</time>
</trkpt>
<trkpt lat="59.5206274" lon="31.2107082">
<ele>40.350002</ele>
<time>2026-09-01T02:51:40.000Z</time>
</trkpt>
<trkpt lat="59.5206485" lon="31.2107009">
<ele>41.190002</ele>
<time>2026-09-01T02:52:05.000Z</time>
</trkpt>
<trkpt lat="59.5206576" lon="31.2107107">
<ele>41.239998</ele>
<time>2026-09-01T02:52:28.000Z</time>
</trkpt>
<trkpt lat="59.5206679" lon="31.2106931">
<ele>41.480000</ele>
<time>2026-09-01T02:52:53.000Z</time>
</trkpt>
<trkpt lat="59.5206044" lon="31.2107726">
<ele>40.760002</ele>
<time>2026-09-01T02:53:21.000Z</time>
</trkpt>
<trkpt lat="59.5206588" lon="31.2106972">
<ele>41.369999</ele>
<time>2026-09-01T02:53:52.000Z</time>
</trkpt>
<trkpt lat="59.5206589" lon="31.2106617">
<ele>41.120003</ele>
<time>2026-09-01T02:54:18.000Z</time>
</trkpt>
<trkpt lat="59.5206614" lon="31.2106468">
<ele>41.720001</ele>
<time>2026-09-01T02:54:34.000Z</time>
</trkpt>
<trkpt lat="59.5206723" lon="31.2106873">
<ele>40.639999</ele>
<time>2026-09-01T02:54:54.000Z</time>
</trkpt>
<trkpt lat="59.5206725" lon="31.2106824">
<ele>40.210003</ele>
<time>2026-09-01T02:55:04.000Z</time>
</trkpt>
<trkpt lat="59.5207259" lon="31.2106420">
<ele>40.740002</ele>
<time>2026-09-01T02:55:23.000Z</time>
</trkpt>
<trkpt lat="59.5207500" lon="31.2106330">
<ele>40.299999</ele>
<time>2026-09-01T02:55:26.000Z</time>
</trkpt>
<trkpt lat="59.5207851" lon="31.2106246">
<ele>40.810001</ele>
<time>2026-09-01T02:55:41.000Z</time>
</trkpt>
<trkpt lat="59.5208294" lon="31.2105981">
<ele>40.230000</ele>
<time>2026-09-01T02:56:10.000Z</time>
</trkpt>
<trkpt lat="59.5209607" lon="31.2105233">
<ele>40.169998</ele>
<time>2026-09-01T02:56:29.000Z</time>
</trkpt>
<trkpt lat="59.5210548" lon="31.2105259">
<ele>40.430000</ele>
<time>2026-09-01T02:56:46.000Z</time>
</trkpt>
<trkpt lat="59.5212460" lon="31.2106790">
<ele>40.660004</ele>
<time>2026-09-01T02:57:10.000Z</time>
</trkpt>
<trkpt lat="59.5213081" lon="31.2107062">
<ele>40.470001</ele>
<time>2026-09-01T02:57:16.000Z</time>
</trkpt>
<trkpt lat="59.5213633" lon="31.2107471">
<ele>40.660004</ele>
<time>2026-09-01T02:57:20.000Z</time>
</trkpt>
<trkpt lat="59.5214309" lon="31.2107792">
<ele>41.179996</ele>
<time>2026-09-01T02:57:37.000Z</time>
</trkpt>
<trkpt lat="59.5214442" lon="31.2107878">
<ele>41.660000</ele>
<time>2026-09-01T02:57:51.000Z</time>
</trkpt>
<trkpt lat="59.5215684" lon="31.2109639">
<ele>41.399998</ele>
<time>2026-09-01T02:58:13.000Z</time>
</trkpt>
<trkpt lat="59.5216643" lon="31.2109978">
<ele>41.480000</ele>
<time>2026-09-01T02:58:23.000Z</time>
</trkpt>
<trkpt lat="59.5217956" lon="31.2109981">
<ele>41.450001</ele>
<time>2026-09-01T02:58:34.000Z</time>
</trkpt>
<trkpt lat="59.5220083" lon="31.2109358">
<ele>41.520000</ele>
<time>2026-09-01T02:58:50.000Z</time>
</trkpt>
<trkpt lat="59.5221813" lon="31.2108914">
<ele>41.570004</ele>
<time>2026-09-01T02:59:04.000Z</time>
</trkpt>
<trkpt lat="59.5223831" lon="31.2108957">
<ele>40.960003</ele>
<time>2026-09-01T02:59:25.000Z</time>
</trkpt>
<trkpt lat="59.5225899" lon="31.2110265">
<ele>41.450001</ele>
<time>2026-09-01T02:59:45.000Z</time>
</trkpt>
<trkpt lat="59.5227516" lon="31.2111603">
<ele>40.849998</ele>
<time>2026-09-01T02:59:59.000Z</time>
</trkpt>
<trkpt lat="59.5228708" lon="31.2112445">
<ele>41.120003</ele>
<time>2026-09-01T03:00:11.000Z</time>
</trkpt>
<trkpt lat="59.5228785" lon="31.2112457">
<ele>40.489998</ele>
<time>2026-09-01T03:00:12.000Z</time>
</trkpt>
<trkpt lat="59.5230189" lon="31.2112506">
<ele>40.120003</ele>
<time>2026-09-01T03:00:33.000Z</time>
</trkpt>
<trkpt lat="59.5231914" lon="31.2111712">
<ele>39.719997</ele>
<time>2026-09-01T03:00:48.000Z</time>
</trkpt>
<trkpt lat="59.5232938" lon="31.2111602">
<ele>39.520000</ele>
<time>2026-09-01T03:00:53.000Z</time>
</trkpt>
<trkpt lat="59.5233970" lon="31.2111794">
<ele>38.869999</ele>
<time>2026-09-01T03:01:01.000Z</time>
</trkpt>
<trkpt lat="59.5234567" lon="31.2112124">
<ele>39.419998</ele>
<time>2026-09-01T03:01:05.000Z</time>
</trkpt>
<trkpt lat="59.5235533" lon="31.2113354">
<ele>39.429996</ele>
<time>2026-09-01T03:01:14.000Z</time>
</trkpt>
<trkpt lat="59.5236117" lon="31.2114621">
<ele>39.570000</ele>
<time>2026-09-01T03:01:27.000Z</time>
</trkpt>
<trkpt lat="59.5236232" lon="31.2116254">
<ele>40.029999</ele>
<time>2026-09-01T03:01:35.000Z</time>
</trkpt>
<trkpt lat="59.5236313" lon="31.2117896">
<ele>39.579998</ele>
<time>2026-09-01T03:01:42.000Z</time>
</trkpt>
<trkpt lat="59.5236581" lon="31.2119728">
<ele>39.820004</ele>
<time>2026-09-01T03:01:50.000Z</time>
</trkpt>
<trkpt lat="59.5237399" lon="31.2121763">
<ele>39.700001</ele>
<time>2026-09-01T03:01:59.000Z</time>
</trkpt>
<trkpt lat="59.5237814" lon="31.2122345">
<ele>39.429996</ele>
<time>2026-09-01T03:02:03.000Z</time>
</trkpt>
<trkpt lat="59.5237876" lon="31.2122734">
<ele>39.199997</ele>
<time>2026-09-01T03:02:05.000Z</time>
</trkpt>
<trkpt lat="59.5238016" lon="31.2123398">
<ele>39.370003</ele>
<time>2026-09-01T03:02:08.000Z</time>
</trkpt>
<trkpt lat="59.5239964" lon="31.2127458">
<ele>37.790001</ele>
<time>2026-09-01T03:02:27.000Z</time>
</trkpt>
<trkpt lat="59.5240921" lon="31.2128836">
<ele>38.290001</ele>
<time>2026-09-01T03:02:47.000Z</time>
</trkpt>
<trkpt lat="59.5241133" lon="31.2128759">
<ele>38.000000</ele>
<time>2026-09-01T03:02:49.000Z</time>
</trkpt>
<trkpt lat="59.5242922" lon="31.2128404">
<ele>38.790001</ele>
<time>2026-09-01T03:03:11.000Z</time>
</trkpt>
<trkpt lat="59.5243774" lon="31.2127867">
<ele>38.820000</ele>
<time>2026-09-01T03:03:30.000Z</time>
</trkpt>
<trkpt lat="59.5244968" lon="31.2125962">
<ele>38.980000</ele>
<time>2026-09-01T03:03:47.000Z</time>
</trkpt>
<trkpt lat="59.5246313" lon="31.2123186">
<ele>38.860001</ele>
<time>2026-09-01T03:04:10.000Z</time>
</trkpt>
<trkpt lat="59.5247964" lon="31.2121590">
<ele>39.619999</ele>
<time>2026-09-01T03:04:32.000Z</time>
</trkpt>
<trkpt lat="59.5249537" lon="31.2122755">
<ele>39.310001</ele>
<time>2026-09-01T03:04:51.000Z</time>
</trkpt>
<trkpt lat="59.5252537" lon="31.2126138">
<ele>39.760002</ele>
<time>2026-09-01T03:05:24.000Z</time>
</trkpt>
<trkpt lat="59.5252938" lon="31.2126486">
<ele>39.779999</ele>
<time>2026-09-01T03:05:26.000Z</time>
</trkpt>
<trkpt lat="59.5254906" lon="31.2128450">
<ele>39.470001</ele>
<time>2026-09-01T03:05:44.000Z</time>
</trkpt>
<trkpt lat="59.5254582" lon="31.2130070">
<ele>39.029999</ele>
<time>2026-09-01T03:05:53.000Z</time>
</trkpt>
<trkpt lat="59.5254751" lon="31.2129656">
<ele>40.070000</ele>
<time>2026-09-01T03:06:19.000Z</time>
</trkpt>
<trkpt lat="59.5254520" lon="31.2129413">
<ele>39.440002</ele>
<time>2026-09-01T03:06:49.000Z</time>
</trkpt>
<trkpt lat="59.5255171" lon="31.2131140">
<ele>39.080002</ele>
<time>2026-09-01T03:07:11.000Z</time>
</trkpt>
<trkpt lat="59.5256342" lon="31.2133865">
<ele>39.450001</ele>
<time>2026-09-01T03:07:32.000Z</time>
</trkpt>
<trkpt lat="59.5257094" lon="31.2137037">
<ele>39.700001</ele>
<time>2026-09-01T03:07:52.000Z</time>
</trkpt>
<trkpt lat="59.5258426" lon="31.2138691">
<ele>39.770000</ele>
<time>2026-09-01T03:08:11.000Z</time>
</trkpt>
<trkpt lat="59.5260530" lon="31.2141803">
<ele>40.220001</ele>
<time>2026-09-01T03:08:38.000Z</time>
</trkpt>
<trkpt lat="59.5261223" lon="31.2145148">
<ele>38.860001</ele>
<time>2026-09-01T03:08:59.000Z</time>
</trkpt>
<trkpt lat="59.5262127" lon="31.2148178">
<ele>38.920002</ele>
<time>2026-09-01T03:09:18.000Z</time>
</trkpt>
<trkpt lat="59.5262854" lon="31.2151810">
<ele>38.090000</ele>
<time>2026-09-01T03:09:40.000Z</time>
</trkpt>
<trkpt lat="59.5263171" lon="31.2155080">
<ele>37.610001</ele>
<time>2026-09-01T03:09:59.000Z</time>
</trkpt>
<trkpt lat="59.5263607" lon="31.2158591">
<ele>37.980000</ele>
<time>2026-09-01T03:10:19.000Z</time>
</trkpt>
<trkpt lat="59.5263537" lon="31.2161653">
<ele>38.320000</ele>
<time>2026-09-01T03:10:34.000Z</time>
</trkpt>
<trkpt lat="59.5263124" lon="31.2166065">
<ele>37.639999</ele>
<time>2026-09-01T03:10:56.000Z</time>
</trkpt>
<trkpt lat="59.5263611" lon="31.2170822">
<ele>37.529999</ele>
<time>2026-09-01T03:11:18.000Z</time>
</trkpt>
<trkpt lat="59.5264350" lon="31.2171883">
<ele>37.950001</ele>
<time>2026-09-01T03:11:24.000Z</time>
</trkpt>
<trkpt lat="59.5266187" lon="31.2175943">
<ele>37.239998</ele>
<time>2026-09-01T03:11:47.000Z</time>
</trkpt>
<trkpt lat="59.5267622" lon="31.2178369">
<ele>35.829998</ele>
<time>2026-09-01T03:12:07.000Z</time>
</trkpt>
<trkpt lat="59.5268899" lon="31.2181819">
<ele>36.289997</ele>
<time>2026-09-01T03:12:26.000Z</time>
</trkpt>
<trkpt lat="59.5270828" lon="31.2184604">
<ele>36.279999</ele>
<time>2026-09-01T03:12:49.000Z</time>
</trkpt>
<trkpt lat="59.5272117" lon="31.2188164">
<ele>38.160000</ele>
<time>2026-09-01T03:13:09.000Z</time>
</trkpt>
<trkpt lat="59.5272349" lon="31.2191159">
<ele>38.459999</ele>
<time>2026-09-01T03:13:24.000Z</time>
</trkpt>
<trkpt lat="59.5273195" lon="31.2194761">
<ele>38.369999</ele>
<time>2026-09-01T03:13:43.000Z</time>
</trkpt>
<trkpt lat="59.5273225" lon="31.2198544">
<ele>38.930000</ele>
<time>2026-09-01T03:14:02.000Z</time>
</trkpt>
<trkpt lat="59.5273557" lon="31.2201980">
<ele>37.849998</ele>
<time>2026-09-01T03:14:20.000Z</time>
</trkpt>
<trkpt lat="59.5274033" lon="31.2205206">
<ele>36.790001</ele>
<time>2026-09-01T03:14:41.000Z</time>
</trkpt>
<trkpt lat="59.5275094" lon="31.2208377">
<ele>36.570000</ele>
<time>2026-09-01T03:15:03.000Z</time>
</trkpt>
<trkpt lat="59.5275256" lon="31.2210990">
<ele>36.689999</ele>
<time>2026-09-01T03:15:16.000Z</time>
</trkpt>
<trkpt lat="59.5275322" lon="31.2212966">
<ele>36.340000</ele>
<time>2026-09-01T03:15:27.000Z</time>
</trkpt>
<trkpt lat="59.5275275" lon="31.2214448">
<ele>36.619999</ele>
<time>2026-09-01T03:15:34.000Z</time>
</trkpt>
<trkpt lat="59.5275539" lon="31.2219103">
<ele>35.829998</ele>
<time>2026-09-01T03:15:57.000Z</time>
</trkpt>
<trkpt lat="59.5275671" lon="31.2221882">
<ele>35.799999</ele>
<time>2026-09-01T03:16:14.000Z</time>
</trkpt>
<trkpt lat="59.5276059" lon="31.2225513">
<ele>35.119999</ele>
<time>2026-09-01T03:16:32.000Z</time>
</trkpt>
<trkpt lat="59.5276919" lon="31.2228793">
<ele>34.660000</ele>
<time>2026-09-01T03:16:54.000Z</time>
</trkpt>
<trkpt lat="59.5277468" lon="31.2231921">
<ele>33.649998</ele>
<time>2026-09-01T03:17:12.000Z</time>
</trkpt>
<trkpt lat="59.5277868" lon="31.2235192">
<ele>33.830002</ele>
<time>2026-09-01T03:17:29.000Z</time>
</trkpt>
<trkpt lat="59.5278095" lon="31.2238638">
<ele>32.760002</ele>
<time>2026-09-01T03:17:49.000Z</time>
</trkpt>
<trkpt lat="59.5278393" lon="31.2241909">
<ele>33.189999</ele>
<time>2026-09-01T03:18:07.000Z</time>
</trkpt>
<trkpt lat="59.5278601" lon="31.2242491">
<ele>33.430000</ele>
<time>2026-09-01T03:18:11.000Z</time>
</trkpt>
<trkpt lat="59.5279573" lon="31.2244450">
<ele>32.840000</ele>
<time>2026-09-01T03:18:29.000Z</time>
</trkpt>
<trkpt lat="59.5280174" lon="31.2245177">
<ele>32.900002</ele>
<time>2026-09-01T03:18:49.000Z</time>
</trkpt>
<trkpt lat="59.5282024" lon="31.2245642">
<ele>32.959999</ele>
<time>2026-09-01T03:19:08.000Z</time>
</trkpt>
<trkpt lat="59.5282112" lon="31.2245686">
<ele>33.259998</ele>
<time>2026-09-01T03:19:09.000Z</time>
</trkpt>
<trkpt lat="59.5283032" lon="31.2245904">
<ele>33.630001</ele>
<time>2026-09-01T03:19:16.000Z</time>
</trkpt>
<trkpt lat="59.5283690" lon="31.2246092">
<ele>33.570000</ele>
<time>2026-09-01T03:19:36.000Z</time>
</trkpt>
<trkpt lat="59.5283885" lon="31.2247141">
<ele>33.689999</ele>
<time>2026-09-01T03:20:02.000Z</time>
</trkpt>
<trkpt lat="59.5284762" lon="31.2247275">
<ele>33.880001</ele>
<time>2026-09-01T03:20:20.000Z</time>
</trkpt>
<trkpt lat="59.5287266" lon="31.2245514">
<ele>33.799999</ele>
<time>2026-09-01T03:20:41.000Z</time>
</trkpt>
<trkpt lat="59.5289606" lon="31.2244575">
<ele>34.049999</ele>
<time>2026-09-01T03:21:03.000Z</time>
</trkpt>
<trkpt lat="59.5289777" lon="31.2244638">
<ele>33.900002</ele>
<time>2026-09-01T03:21:05.000Z</time>
</trkpt>
<trkpt lat="59.5290207" lon="31.2244227">
<ele>33.680000</ele>
<time>2026-09-01T03:21:08.000Z</time>
</trkpt>
<trkpt lat="59.5291941" lon="31.2244688">
<ele>34.170002</ele>
<time>2026-09-01T03:21:28.000Z</time>
</trkpt>
<trkpt lat="59.5294027" lon="31.2245878">
<ele>33.410000</ele>
<time>2026-09-01T03:21:51.000Z</time>
</trkpt>
<trkpt lat="59.5295833" lon="31.2247191">
<ele>33.570000</ele>
<time>2026-09-01T03:22:09.000Z</time>
</trkpt>
<trkpt lat="59.5297071" lon="31.2248285">
<ele>33.270000</ele>
<time>2026-09-01T03:22:20.000Z</time>
</trkpt>
<trkpt lat="59.5298400" lon="31.2249381">
<ele>33.130001</ele>
<time>2026-09-01T03:22:33.000Z</time>
</trkpt>
<trkpt lat="59.5300803" lon="31.2252550">
<ele>33.619999</ele>
<time>2026-09-01T03:22:59.000Z</time>
</trkpt>
<trkpt lat="59.5302102" lon="31.2255713">
<ele>32.760002</ele>
<time>2026-09-01T03:23:18.000Z</time>
</trkpt>
<trkpt lat="59.5303482" lon="31.2257391">
<ele>32.600002</ele>
<time>2026-09-01T03:23:37.000Z</time>
</trkpt>
<trkpt lat="59.5305026" lon="31.2260879">
<ele>32.910000</ele>
<time>2026-09-01T03:23:57.000Z</time>
</trkpt>
<trkpt lat="59.5306363" lon="31.2262829">
<ele>33.110001</ele>
<time>2026-09-01T03:24:11.000Z</time>
</trkpt>
<trkpt lat="59.5307260" lon="31.2263929">
<ele>32.750000</ele>
<time>2026-09-01T03:24:20.000Z</time>
</trkpt>
<trkpt lat="59.5307488" lon="31.2264351">
<ele>32.720001</ele>
<time>2026-09-01T03:24:23.000Z</time>
</trkpt>
<trkpt lat="59.5308054" lon="31.2265394">
<ele>31.990002</ele>
<time>2026-09-01T03:24:30.000Z</time>
</trkpt>
<trkpt lat="59.5309592" lon="31.2267695">
<ele>32.110001</ele>
<time>2026-09-01T03:24:48.000Z</time>
</trkpt>
<trkpt lat="59.5311315" lon="31.2270378">
<ele>31.360001</ele>
<time>2026-09-01T03:25:09.000Z</time>
</trkpt>
<trkpt lat="59.5312958" lon="31.2273210">
<ele>31.820000</ele>
<time>2026-09-01T03:25:31.000Z</time>
</trkpt>
<trkpt lat="59.5313087" lon="31.2273487">
<ele>31.480000</ele>
<time>2026-09-01T03:25:35.000Z</time>
</trkpt>
<trkpt lat="59.5314406" lon="31.2276463">
<ele>32.040001</ele>
<time>2026-09-01T03:25:53.000Z</time>
</trkpt>
<trkpt lat="59.5314827" lon="31.2278384">
<ele>32.000000</ele>
<time>2026-09-01T03:26:03.000Z</time>
</trkpt>
<trkpt lat="59.5315802" lon="31.2282241">
<ele>32.439999</ele>
<time>2026-09-01T03:26:22.000Z</time>
</trkpt>
<trkpt lat="59.5317386" lon="31.2283411">
<ele>31.910002</ele>
<time>2026-09-01T03:26:37.000Z</time>
</trkpt>
<trkpt lat="59.5317969" lon="31.2283307">
<ele>31.869999</ele>
<time>2026-09-01T03:26:42.000Z</time>
</trkpt>
<trkpt lat="59.5318189" lon="31.2284186">
<ele>32.049999</ele>
<time>2026-09-01T03:26:47.000Z</time>
</trkpt>
<trkpt lat="59.5318235" lon="31.2289665">
<ele>32.030003</ele>
<time>2026-09-01T03:27:10.000Z</time>
</trkpt>
<trkpt lat="59.5318538" lon="31.2295721">
<ele>32.340000</ele>
<time>2026-09-01T03:27:34.000Z</time>
</trkpt>
<trkpt lat="59.5318221" lon="31.2300340">
<ele>32.410000</ele>
<time>2026-09-01T03:27:53.000Z</time>
</trkpt>
<trkpt lat="59.5318128" lon="31.2302080">
<ele>32.660000</ele>
<time>2026-09-01T03:28:00.000Z</time>
</trkpt>
<trkpt lat="59.5317996" lon="31.2303795">
<ele>32.209999</ele>
<time>2026-09-01T03:28:07.000Z</time>
</trkpt>
<trkpt lat="59.5317686" lon="31.2306887">
<ele>33.649998</ele>
<time>2026-09-01T03:28:22.000Z</time>
</trkpt>
<trkpt lat="59.5317647" lon="31.2307473">
<ele>34.320000</ele>
<time>2026-09-01T03:28:25.000Z</time>
</trkpt>
<trkpt lat="59.5317355" lon="31.2309925">
<ele>33.660000</ele>
<time>2026-09-01T03:28:38.000Z</time>
</trkpt>
<trkpt lat="59.5317220" lon="31.2314015">
<ele>32.590000</ele>
<time>2026-09-01T03:28:59.000Z</time>
</trkpt>
<trkpt lat="59.5317327" lon="31.2318242">
<ele>32.250000</ele>
<time>2026-09-01T03:29:18.000Z</time>
</trkpt>
<trkpt lat="59.5317313" lon="31.2318434">
<ele>32.389999</ele>
<time>2026-09-01T03:29:19.000Z</time>
</trkpt>
<trkpt lat="59.5317505" lon="31.2321360">
<ele>31.330000</ele>
<time>2026-09-01T03:29:32.000Z</time>
</trkpt>
<trkpt lat="59.5317536" lon="31.2321979">
<ele>31.639999</ele>
<time>2026-09-01T03:29:35.000Z</time>
</trkpt>
<trkpt lat="59.5317981" lon="31.2323829">
<ele>31.280001</ele>
<time>2026-09-01T03:29:43.000Z</time>
</trkpt>
<trkpt lat="59.5318360" lon="31.2326196">
<ele>31.170000</ele>
<time>2026-09-01T03:29:54.000Z</time>
</trkpt>
<trkpt lat="59.5318996" lon="31.2328309">
<ele>31.380001</ele>
<time>2026-09-01T03:30:06.000Z</time>
</trkpt>
<trkpt lat="59.5319501" lon="31.2332091">
<ele>30.920002</ele>
<time>2026-09-01T03:30:23.000Z</time>
</trkpt>
<trkpt lat="59.5319543" lon="31.2333570">
<ele>31.320000</ele>
<time>2026-09-01T03:30:28.000Z</time>
</trkpt>
<trkpt lat="59.5319919" lon="31.2337909">
<ele>30.839998</ele>
<time>2026-09-01T03:30:51.000Z</time>
</trkpt>
<trkpt lat="59.5320608" lon="31.2339420">
<ele>31.110001</ele>
<time>2026-09-01T03:31:04.000Z</time>
</trkpt>
<trkpt lat="59.5320875" lon="31.2342102">
<ele>31.230001</ele>
<time>2026-09-01T03:31:19.000Z</time>
</trkpt>
<trkpt lat="59.5321611" lon="31.2345379">
<ele>31.690001</ele>
<time>2026-09-01T03:31:37.000Z</time>
</trkpt>
<trkpt lat="59.5323511" lon="31.2348084">
<ele>32.310001</ele>
<time>2026-09-01T03:32:00.000Z</time>
</trkpt>
<trkpt lat="59.5324430" lon="31.2350717">
<ele>32.810001</ele>
<time>2026-09-01T03:32:18.000Z</time>
</trkpt>
<trkpt lat="59.5324467" lon="31.2350934">
<ele>32.930000</ele>
<time>2026-09-01T03:32:19.000Z</time>
</trkpt>
<trkpt lat="59.5326063" lon="31.2354391">
<ele>33.750000</ele>
<time>2026-09-01T03:32:40.000Z</time>
</trkpt>
<trkpt lat="59.5327818" lon="31.2357602">
<ele>34.489998</ele>
<time>2026-09-01T03:33:00.000Z</time>
</trkpt>
<trkpt lat="59.5328732" lon="31.2360789">
<ele>35.180000</ele>
<time>2026-09-01T03:33:21.000Z</time>
</trkpt>
<trkpt lat="59.5329072" lon="31.2361460">
<ele>35.310001</ele>
<time>2026-09-01T03:33:32.000Z</time>
</trkpt>
<trkpt lat="59.5329002" lon="31.2361515">
<ele>35.829998</ele>
<time>2026-09-01T03:33:34.000Z</time>
</trkpt>
<trkpt lat="59.5328739" lon="31.2361488">
<ele>35.270000</ele>
<time>2026-09-01T03:33:40.000Z</time>
</trkpt>
<trkpt lat="59.5328631" lon="31.2361440">
<ele>35.730000</ele>
<time>2026-09-01T03:33:47.000Z</time>
</trkpt>
<trkpt lat="59.5328145" lon="31.2361341">
<ele>35.299999</ele>
<time>2026-09-01T03:34:10.000Z</time>
</trkpt>
<trkpt lat="59.5328182" lon="31.2361377">
<ele>35.619999</ele>
<time>2026-09-01T03:34:38.000Z</time>
</trkpt>
<trkpt lat="59.5327989" lon="31.2361166">
<ele>35.860001</ele>
<time>2026-09-01T03:35:06.000Z</time>
</trkpt>
<trkpt lat="59.5328299" lon="31.2361014">
<ele>35.639999</ele>
<time>2026-09-01T03:35:30.000Z</time>
</trkpt>
<trkpt lat="59.5328532" lon="31.2360751">
<ele>35.970001</ele>
<time>2026-09-01T03:35:59.000Z</time>
</trkpt>
<trkpt lat="59.5328540" lon="31.2361440">
<ele>35.480000</ele>
<time>2026-09-01T03:36:29.000Z</time>
</trkpt>
<trkpt lat="59.5328353" lon="31.2361299">
<ele>35.530003</ele>
<time>2026-09-01T03:37:04.000Z</time>
</trkpt>
<trkpt lat="59.5328336" lon="31.2361442">
<ele>35.650002</ele>
<time>2026-09-01T03:37:47.000Z</time>
</trkpt>
<trkpt lat="59.5328108" lon="31.2361803">
<ele>35.829998</ele>
<time>2026-09-01T03:38:18.000Z</time>
</trkpt>
<trkpt lat="59.5328265" lon="31.2361612">
<ele>35.930000</ele>
<time>2026-09-01T03:38:48.000Z</time>
</trkpt>
<trkpt lat="59.5328837" lon="31.2361277">
<ele>36.030003</ele>
<time>2026-09-01T03:39:18.000Z</time>
</trkpt>
<trkpt lat="59.5328789" lon="31.2361210">
<ele>35.970001</ele>
<time>2026-09-01T03:39:46.000Z</time>
</trkpt>
<trkpt lat="59.5328255" lon="31.2361363">
<ele>35.910000</ele>
<time>2026-09-01T03:40:16.000Z</time>
</trkpt>
<trkpt lat="59.5328155" lon="31.2361123">
<ele>35.750000</ele>
<time>2026-09-01T03:40:49.000Z</time>
</trkpt>
<trkpt lat="59.5327918" lon="31.2361064">
<ele>35.820000</ele>
<time>2026-09-01T03:41:18.000Z</time>
</trkpt>
<trkpt lat="59.5328938" lon="31.2362169">
<ele>35.700001</ele>
<time>2026-09-01T03:41:48.000Z</time>
</trkpt>
<trkpt lat="59.5329137" lon="31.2362185">
<ele>35.849998</ele>
<time>2026-09-01T03:42:16.000Z</time>
</trkpt>
<trkpt lat="59.5328529" lon="31.2361323">
<ele>35.450001</ele>
<time>2026-09-01T03:42:48.000Z</time>
</trkpt>
<trkpt lat="59.5328023" lon="31.2361438">
<ele>35.939999</ele>
<time>2026-09-01T03:43:18.000Z</time>
</trkpt>
<trkpt lat="59.5328480" lon="31.2361107">
<ele>35.930000</ele>
<time>2026-09-01T03:43:49.000Z</time>
</trkpt>
<trkpt lat="59.5327666" lon="31.2360943">
<ele>36.450001</ele>
<time>2026-09-01T03:44:19.000Z</time>
</trkpt>
<trkpt lat="59.5327890" lon="31.2360675">
<ele>36.349998</ele>
<time>2026-09-01T03:44:34.000Z</time>
</trkpt>
<trkpt lat="59.5328391" lon="31.2360320">
<ele>36.059998</ele>
<time>2026-09-01T03:45:06.000Z</time>
</trkpt>
<trkpt lat="59.5328316" lon="31.2360600">
<ele>36.059998</ele>
<time>2026-09-01T03:45:41.000Z</time>
</trkpt>
<trkpt lat="59.5328295" lon="31.2360968">
<ele>36.399998</ele>
<time>2026-09-01T03:46:13.000Z</time>
</trkpt>
<trkpt lat="59.5327279" lon="31.2361825">
<ele>36.049999</ele>
<time>2026-09-01T03:46:41.000Z</time>
</trkpt>
<trkpt lat="59.5326679" lon="31.2362630">
<ele>36.549999</ele>
<time>2026-09-01T03:47:14.000Z</time>
</trkpt>
<trkpt lat="59.5328003" lon="31.2362151">
<ele>36.849998</ele>
<time>2026-09-01T03:47:42.000Z</time>
</trkpt>
<trkpt lat="59.5328445" lon="31.2361805">
<ele>36.779999</ele>
<time>2026-09-01T03:48:13.000Z</time>
</trkpt>
<trkpt lat="59.5328341" lon="31.2361020">
<ele>33.410000</ele>
<time>2026-09-01T03:48:41.000Z</time>
</trkpt>
<trkpt lat="59.5329059" lon="31.2360780">
<ele>33.049999</ele>
<time>2026-09-01T03:49:14.000Z</time>
</trkpt>
<trkpt lat="59.5329041" lon="31.2360664">
<ele>32.480000</ele>
<time>2026-09-01T03:49:25.000Z</time>
</trkpt>
<trkpt lat="59.5328693" lon="31.2360724">
<ele>36.680000</ele>
<time>2026-09-01T03:49:57.000Z</time>
</trkpt>
<trkpt lat="59.5328461" lon="31.2361944">
<ele>36.869999</ele>
<time>2026-09-01T03:50:28.000Z</time>
</trkpt>
<trkpt lat="59.5328528" lon="31.2362623">
<ele>36.820000</ele>
<time>2026-09-01T03:50:32.000Z</time>
</trkpt>
<trkpt lat="59.5329512" lon="31.2365384">
<ele>38.610001</ele>
<time>2026-09-01T03:50:41.000Z</time>
</trkpt>
<trkpt lat="59.5331095" lon="31.2369176">
<ele>41.670002</ele>
<time>2026-09-01T03:50:50.000Z</time>
</trkpt>
<trkpt lat="59.5333196" lon="31.2374317">
<ele>44.780003</ele>
<time>2026-09-01T03:51:02.000Z</time>
</trkpt>
<trkpt lat="59.5335752" lon="31.2379992">
<ele>47.530003</ele>
<time>2026-09-01T03:51:15.000Z</time>
</trkpt>
<trkpt lat="59.5338827" lon="31.2387049">
<ele>48.360001</ele>
<time>2026-09-01T03:51:28.000Z</time>
</trkpt>
<trkpt lat="59.5342155" lon="31.2394875">
<ele>45.620003</ele>
<time>2026-09-01T03:51:43.000Z</time>
</trkpt>
<trkpt lat="59.5344887" lon="31.2400336">
<ele>45.920002</ele>
<time>2026-09-01T03:51:57.000Z</time>
</trkpt>
<trkpt lat="59.5346535" lon="31.2403377">
<ele>46.939999</ele>
<time>2026-09-01T03:52:03.000Z</time>
</trkpt>
<trkpt lat="59.5347705" lon="31.2407414">
<ele>48.700001</ele>
<time>2026-09-01T03:52:09.000Z</time>
</trkpt>
<trkpt lat="59.5348611" lon="31.2413159">
<ele>51.880001</ele>
<time>2026-09-01T03:52:18.000Z</time>
</trkpt>
<trkpt lat="59.5349163" lon="31.2423305">
<ele>53.090000</ele>
<time>2026-09-01T03:52:32.000Z</time>
</trkpt>
<trkpt lat="59.5347211" lon="31.2424906">
<ele>53.250000</ele>
<time>2026-09-01T03:52:40.000Z</time>
</trkpt>
<trkpt lat="59.5342771" lon="31.2425923">
<ele>53.029999</ele>
<time>2026-09-01T03:52:51.000Z</time>
</trkpt>
<trkpt lat="59.5337102" lon="31.2427048">
<ele>50.870003</ele>
<time>2026-09-01T03:53:04.000Z</time>
</trkpt>
<trkpt lat="59.5336292" lon="31.2427718">
<ele>50.469997</ele>
<time>2026-09-01T03:53:07.000Z</time>
</trkpt>
<trkpt lat="59.5336132" lon="31.2428315">
<ele>50.549999</ele>
<time>2026-09-01T03:53:08.000Z</time>
</trkpt>
<trkpt lat="59.5336060" lon="31.2428986">
<ele>50.740002</ele>
<time>2026-09-01T03:53:09.000Z</time>
</trkpt>
<trkpt lat="59.5336121" lon="31.2429610">
<ele>50.610001</ele>
<time>2026-09-01T03:53:10.000Z</time>
</trkpt>
<trkpt lat="59.5336197" lon="31.2430210">
<ele>50.350002</ele>
<time>2026-09-01T03:53:11.000Z</time>
</trkpt>
<trkpt lat="59.5336128" lon="31.2438402">
<ele>51.980000</ele>
<time>2026-09-01T03:53:23.000Z</time>
</trkpt>
<trkpt lat="59.5336155" lon="31.2445037">
<ele>52.710003</ele>
<time>2026-09-01T03:53:37.000Z</time>
</trkpt>
<trkpt lat="59.5336770" lon="31.2452852">
<ele>52.529999</ele>
<time>2026-09-01T03:53:50.000Z</time>
</trkpt>
<trkpt lat="59.5338519" lon="31.2462005">
<ele>50.779999</ele>
<time>2026-09-01T03:54:04.000Z</time>
</trkpt>
<trkpt lat="59.5338965" lon="31.2464845">
<ele>51.049999</ele>
<time>2026-09-01T03:54:08.000Z</time>
</trkpt>
<trkpt lat="59.5340209" lon="31.2474315">
<ele>53.330002</ele>
<time>2026-09-01T03:54:22.000Z</time>
</trkpt>
<trkpt lat="59.5341022" lon="31.2484608">
<ele>54.830002</ele>
<time>2026-09-01T03:54:36.000Z</time>
</trkpt>
<trkpt lat="59.5341325" lon="31.2490894">
<ele>56.450001</ele>
<time>2026-09-01T03:54:46.000Z</time>
</trkpt>
<trkpt lat="59.5341794" lon="31.2491141">
<ele>56.730000</ele>
<time>2026-09-01T03:54:47.000Z</time>
</trkpt>
<trkpt lat="59.5342323" lon="31.2491205">
<ele>56.470001</ele>
<time>2026-09-01T03:54:48.000Z</time>
</trkpt>
<trkpt lat="59.5342944" lon="31.2491179">
<ele>57.139999</ele>
<time>2026-09-01T03:54:49.000Z</time>
</trkpt>
<trkpt lat="59.5343649" lon="31.2491185">
<ele>57.549999</ele>
<time>2026-09-01T03:54:50.000Z</time>
</trkpt>
<trkpt lat="59.5348658" lon="31.2491705">
<ele>59.720001</ele>
<time>2026-09-01T03:54:55.000Z</time>
</trkpt>
<trkpt lat="59.5362096" lon="31.2495687">
<ele>61.750000</ele>
<time>2026-09-01T03:55:05.000Z</time>
</trkpt>
<trkpt lat="59.5375304" lon="31.2509077">
<ele>63.590004</ele>
<time>2026-09-01T03:55:16.000Z</time>
</trkpt>
<trkpt lat="59.5393932" lon="31.2529355">
<ele>65.259995</ele>
<time>2026-09-01T03:55:30.000Z</time>
</trkpt>
<trkpt lat="59.5410519" lon="31.2543368">
<ele>65.880005</ele>
<time>2026-09-01T03:55:41.000Z</time>
</trkpt>
<trkpt lat="59.5427979" lon="31.2546862">
<ele>67.489998</ele>
<time>2026-09-01T03:55:52.000Z</time>
</trkpt>
<trkpt lat="59.5450438" lon="31.2551135">
<ele>68.150002</ele>
<time>2026-09-01T03:56:05.000Z</time>
</trkpt>
<trkpt lat="59.5473521" lon="31.2556085">
<ele>68.500000</ele>
<time>2026-09-01T03:56:18.000Z</time>
</trkpt>
<trkpt lat="59.5488570" lon="31.2566947">
<ele>68.650002</ele>
<time>2026-09-01T03:56:27.000Z</time>
</trkpt>
<trkpt lat="59.5503363" lon="31.2585741">
<ele>71.080002</ele>
<time>2026-09-01T03:56:36.000Z</time>
</trkpt>
<trkpt lat="59.5525696" lon="31.2616127">
<ele>69.320000</ele>
<time>2026-09-01T03:56:49.000Z</time>
</trkpt>
<trkpt lat="59.5535822" lon="31.2620014">
<ele>68.340004</ele>
<time>2026-09-01T03:56:54.000Z</time>
</trkpt>
<trkpt lat="59.5537973" lon="31.2619874">
<ele>68.610001</ele>
<time>2026-09-01T03:56:55.000Z</time>
</trkpt>
<trkpt lat="59.5552560" lon="31.2613780">
<ele>68.720001</ele>
<time>2026-09-01T03:57:02.000Z</time>
</trkpt>
<trkpt lat="59.5565994" lon="31.2599522">
<ele>70.680000</ele>
<time>2026-09-01T03:57:09.000Z</time>
</trkpt>
<trkpt lat="59.5585135" lon="31.2577479">
<ele>71.060005</ele>
<time>2026-09-01T03:57:20.000Z</time>
</trkpt>
<trkpt lat="59.5598040" lon="31.2575569">
<ele>73.409996</ele>
<time>2026-09-01T03:57:27.000Z</time>
</trkpt>
<trkpt lat="59.5622880" lon="31.2576371">
<ele>73.549995</ele>
<time>2026-09-01T03:57:39.000Z</time>
</trkpt>
<trkpt lat="59.5641892" lon="31.2568225">
<ele>72.300003</ele>
<time>2026-09-01T03:57:48.000Z</time>
</trkpt>
<trkpt lat="59.5643916" lon="31.2567075">
<ele>72.130005</ele>
<time>2026-09-01T03:57:49.000Z</time>
</trkpt>
<trkpt lat="59.5649533" lon="31.2562719">
<ele>70.650002</ele>
<time>2026-09-01T03:57:52.000Z</time>
</trkpt>
<trkpt lat="59.5651240" lon="31.2560752">
<ele>70.690002</ele>
<time>2026-09-01T03:57:53.000Z</time>
</trkpt>
<trkpt lat="59.5655863" lon="31.2553632">
<ele>72.010002</ele>
<time>2026-09-01T03:57:56.000Z</time>
</trkpt>
<trkpt lat="59.5665916" lon="31.2529668">
<ele>73.029999</ele>
<time>2026-09-01T03:58:04.000Z</time>
</trkpt>
<trkpt lat="59.5677394" lon="31.2509250">
<ele>72.370003</ele>
<time>2026-09-01T03:58:12.000Z</time>
</trkpt>
<trkpt lat="59.5690441" lon="31.2499437">
<ele>73.110001</ele>
<time>2026-09-01T03:58:19.000Z</time>
</trkpt>
<trkpt lat="59.5711809" lon="31.2483502">
<ele>73.690002</ele>
<time>2026-09-01T03:58:30.000Z</time>
</trkpt>
<trkpt lat="59.5724061" lon="31.2463681">
<ele>74.329994</ele>
<time>2026-09-01T03:58:38.000Z</time>
</trkpt>
<trkpt lat="59.5739069" lon="31.2437808">
<ele>75.279999</ele>
<time>2026-09-01T03:58:48.000Z</time>
</trkpt>
<trkpt lat="59.5751063" lon="31.2409536">
<ele>73.970001</ele>
<time>2026-09-01T03:58:57.000Z</time>
</trkpt>
<trkpt lat="59.5762905" lon="31.2367234">
<ele>73.980003</ele>
<time>2026-09-01T03:59:08.000Z</time>
</trkpt>
<trkpt lat="59.5766109" lon="31.2355589">
<ele>70.709999</ele>
<time>2026-09-01T03:59:11.000Z</time>
</trkpt>
<trkpt lat="59.5767208" lon="31.2351722">
<ele>70.659996</ele>
<time>2026-09-01T03:59:12.000Z</time>
</trkpt>
<trkpt lat="59.5782984" lon="31.2303717">
<ele>72.230003</ele>
<time>2026-09-01T03:59:25.000Z</time>
</trkpt>
<trkpt lat="59.5795869" lon="31.2281542">
<ele>73.209999</ele>
<time>2026-09-01T03:59:33.000Z</time>
</trkpt>
<trkpt lat="59.5809343" lon="31.2254708">
<ele>73.470001</ele>
<time>2026-09-01T03:59:42.000Z</time>
</trkpt>
<trkpt lat="59.5822103" lon="31.2225010">
<ele>70.160004</ele>
<time>2026-09-01T03:59:51.000Z</time>
</trkpt>
<trkpt lat="59.5823553" lon="31.2221747">
<ele>70.010002</ele>
<time>2026-09-01T03:59:52.000Z</time>
</trkpt>
<trkpt lat="59.5836679" lon="31.2197658">
<ele>66.270004</ele>
<time>2026-09-01T04:00:00.000Z</time>
</trkpt>
<trkpt lat="59.5838507" lon="31.2194949">
<ele>66.010002</ele>
<time>2026-09-01T04:00:01.000Z</time>
</trkpt>
<trkpt lat="59.5855987" lon="31.2175437">
<ele>64.790001</ele>
<time>2026-09-01T04:00:10.000Z</time>
</trkpt>
<trkpt lat="59.5877798" lon="31.2160441">
<ele>65.810005</ele>
<time>2026-09-01T04:00:21.000Z</time>
</trkpt>
<trkpt lat="59.5889391" lon="31.2148302">
<ele>66.220001</ele>
<time>2026-09-01T04:00:28.000Z</time>
</trkpt>
<trkpt lat="59.5898474" lon="31.2132023">
<ele>64.169998</ele>
<time>2026-09-01T04:00:36.000Z</time>
</trkpt>
<trkpt lat="59.5900590" lon="31.2127950">
<ele>61.709999</ele>
<time>2026-09-01T04:00:39.000Z</time>
</trkpt>
<trkpt lat="59.5900929" lon="31.2126837">
<ele>61.299999</ele>
<time>2026-09-01T04:00:40.000Z</time>
</trkpt>
<trkpt lat="59.5900954" lon="31.2125835">
<ele>61.100002</ele>
<time>2026-09-01T04:00:41.000Z</time>
</trkpt>
<trkpt lat="59.5900537" lon="31.2124980">
<ele>60.790001</ele>
<time>2026-09-01T04:00:42.000Z</time>
</trkpt>
<trkpt lat="59.5900035" lon="31.2124114">
<ele>61.430000</ele>
<time>2026-09-01T04:00:43.000Z</time>
</trkpt>
<trkpt lat="59.5899321" lon="31.2123248">
<ele>61.260002</ele>
<time>2026-09-01T04:00:44.000Z</time>
</trkpt>
<trkpt lat="59.5898718" lon="31.2122121">
<ele>61.419998</ele>
<time>2026-09-01T04:00:45.000Z</time>
</trkpt>
<trkpt lat="59.5892579" lon="31.2109824">
<ele>62.330002</ele>
<time>2026-09-01T04:00:52.000Z</time>
</trkpt>
<trkpt lat="59.5888973" lon="31.2102705">
<ele>63.730000</ele>
<time>2026-09-01T04:00:55.000Z</time>
</trkpt>
<trkpt lat="59.5872873" lon="31.2070287">
<ele>64.379997</ele>
<time>2026-09-01T04:01:07.000Z</time>
</trkpt>
<trkpt lat="59.5850661" lon="31.2026305">
<ele>65.259995</ele>
<time>2026-09-01T04:01:22.000Z</time>
</trkpt>
<trkpt lat="59.5830861" lon="31.1985623">
<ele>62.310001</ele>
<time>2026-09-01T04:01:36.000Z</time>
</trkpt>
<trkpt lat="59.5811127" lon="31.1946057">
<ele>58.790001</ele>
<time>2026-09-01T04:01:49.000Z</time>
</trkpt>
<trkpt lat="59.5801429" lon="31.1921607">
<ele>55.520000</ele>
<time>2026-09-01T04:01:56.000Z</time>
</trkpt>
<trkpt lat="59.5795436" lon="31.1893927">
<ele>53.189999</ele>
<time>2026-09-01T04:02:03.000Z</time>
</trkpt>
<trkpt lat="59.5789111" lon="31.1849615">
<ele>51.899998</ele>
<time>2026-09-01T04:02:14.000Z</time>
</trkpt>
<trkpt lat="59.5788750" lon="31.1821346">
<ele>49.500000</ele>
<time>2026-09-01T04:02:21.000Z</time>
</trkpt>
<trkpt lat="59.5792042" lon="31.1780164">
<ele>50.209999</ele>
<time>2026-09-01T04:02:31.000Z</time>
</trkpt>
<trkpt lat="59.5796641" lon="31.1735512">
<ele>49.520000</ele>
<time>2026-09-01T04:02:42.000Z</time>
</trkpt>
<trkpt lat="59.5799306" lon="31.1696445">
<ele>48.060001</ele>
<time>2026-09-01T04:02:52.000Z</time>
</trkpt>
<trkpt lat="59.5795621" lon="31.1664628">
<ele>50.610001</ele>
<time>2026-09-01T04:03:00.000Z</time>
</trkpt>
<trkpt lat="59.5788754" lon="31.1609937">
<ele>53.639999</ele>
<time>2026-09-01T04:03:13.000Z</time>
</trkpt>
<trkpt lat="59.5781243" lon="31.1549785">
<ele>55.949997</ele>
<time>2026-09-01T04:03:27.000Z</time>
</trkpt>
<trkpt lat="59.5774327" lon="31.1494030">
<ele>55.860001</ele>
<time>2026-09-01T04:03:40.000Z</time>
</trkpt>
<trkpt lat="59.5768146" lon="31.1444653">
<ele>59.630001</ele>
<time>2026-09-01T04:03:51.000Z</time>
</trkpt>
<trkpt lat="59.5767542" lon="31.1440167">
<ele>58.829998</ele>
<time>2026-09-01T04:03:52.000Z</time>
</trkpt>
<trkpt lat="59.5759427" lon="31.1375416">
<ele>58.510002</ele>
<time>2026-09-01T04:04:06.000Z</time>
</trkpt>
<trkpt lat="59.5751020" lon="31.1309090">
<ele>59.250004</ele>
<time>2026-09-01T04:04:20.000Z</time>
</trkpt>
<trkpt lat="59.5742743" lon="31.1241960">
<ele>57.320000</ele>
<time>2026-09-01T04:04:34.000Z</time>
</trkpt>
<trkpt lat="59.5738450" lon="31.1208758">
<ele>57.980000</ele>
<time>2026-09-01T04:04:41.000Z</time>
</trkpt>
<trkpt lat="59.5730138" lon="31.1141705">
<ele>57.770000</ele>
<time>2026-09-01T04:04:55.000Z</time>
</trkpt>
<trkpt lat="59.5727995" lon="31.1123273">
<ele>55.639999</ele>
<time>2026-09-01T04:04:59.000Z</time>
</trkpt>
<trkpt lat="59.5720250" lon="31.1060607">
<ele>55.709999</ele>
<time>2026-09-01T04:05:13.000Z</time>
</trkpt>
<trkpt lat="59.5712795" lon="31.1000818">
<ele>56.160000</ele>
<time>2026-09-01T04:05:27.000Z</time>
</trkpt>
<trkpt lat="59.5706116" lon="31.0946408">
<ele>56.430000</ele>
<time>2026-09-01T04:05:39.000Z</time>
</trkpt>
<trkpt lat="59.5698233" lon="31.0882634">
<ele>56.150002</ele>
<time>2026-09-01T04:05:53.000Z</time>
</trkpt>
<trkpt lat="59.5692091" lon="31.0834080">
<ele>54.230003</ele>
<time>2026-09-01T04:06:05.000Z</time>
</trkpt>
<trkpt lat="59.5685458" lon="31.0782467">
<ele>53.820000</ele>
<time>2026-09-01T04:06:18.000Z</time>
</trkpt>
<trkpt lat="59.5678345" lon="31.0726036">
<ele>52.590000</ele>
<time>2026-09-01T04:06:31.000Z</time>
</trkpt>
<trkpt lat="59.5676711" lon="31.0713470">
<ele>51.290001</ele>
<time>2026-09-01T04:06:34.000Z</time>
</trkpt>
<trkpt lat="59.5672141" lon="31.0676779">
<ele>50.139999</ele>
<time>2026-09-01T04:06:43.000Z</time>
</trkpt>
<trkpt lat="59.5669170" lon="31.0652563">
<ele>51.590000</ele>
<time>2026-09-01T04:06:49.000Z</time>
</trkpt>
<trkpt lat="59.5663156" lon="31.0604629">
<ele>48.470001</ele>
<time>2026-09-01T04:07:01.000Z</time>
</trkpt>
<trkpt lat="59.5656186" lon="31.0548761">
<ele>45.170002</ele>
<time>2026-09-01T04:07:15.000Z</time>
</trkpt>
<trkpt lat="59.5651276" lon="31.0509562">
<ele>42.079998</ele>
<time>2026-09-01T04:07:25.000Z</time>
</trkpt>
<trkpt lat="59.5644341" lon="31.0454574">
<ele>42.139999</ele>
<time>2026-09-01T04:07:39.000Z</time>
</trkpt>
<trkpt lat="59.5637169" lon="31.0395882">
<ele>43.290001</ele>
<time>2026-09-01T04:07:54.000Z</time>
</trkpt>
<trkpt lat="59.5632049" lon="31.0355924">
<ele>39.549999</ele>
<time>2026-09-01T04:08:05.000Z</time>
</trkpt>
<trkpt lat="59.5630813" lon="31.0346009">
<ele>36.040001</ele>
<time>2026-09-01T04:08:10.000Z</time>
</trkpt>
<trkpt lat="59.5630523" lon="31.0344507">
<ele>36.000000</ele>
<time>2026-09-01T04:08:15.000Z</time>
</trkpt>
<trkpt lat="59.5629521" lon="31.0335943">
<ele>37.200001</ele>
<time>2026-09-01T04:08:25.000Z</time>
</trkpt>
<trkpt lat="59.5628813" lon="31.0329722">
<ele>38.549999</ele>
<time>2026-09-01T04:08:28.000Z</time>
</trkpt>
<trkpt lat="59.5625721" lon="31.0304588">
<ele>40.600002</ele>
<time>2026-09-01T04:08:37.000Z</time>
</trkpt>
<trkpt lat="59.5622369" lon="31.0275961">
<ele>43.740002</ele>
<time>2026-09-01T04:08:46.000Z</time>
</trkpt>
<trkpt lat="59.5619049" lon="31.0249196">
<ele>42.130001</ele>
<time>2026-09-01T04:08:56.000Z</time>
</trkpt>
<trkpt lat="59.5614848" lon="31.0216966">
<ele>41.709999</ele>
<time>2026-09-01T04:09:09.000Z</time>
</trkpt>
<trkpt lat="59.5614352" lon="31.0213058">
<ele>40.259998</ele>
<time>2026-09-01T04:09:12.000Z</time>
</trkpt>
<trkpt lat="59.5613081" lon="31.0202482">
<ele>42.230000</ele>
<time>2026-09-01T04:09:23.000Z</time>
</trkpt>
<trkpt lat="59.5610723" lon="31.0191617">
<ele>45.650002</ele>
<time>2026-09-01T04:09:29.000Z</time>
</trkpt>
<trkpt lat="59.5602488" lon="31.0170403">
<ele>47.370003</ele>
<time>2026-09-01T04:09:40.000Z</time>
</trkpt>
<trkpt lat="59.5592471" lon="31.0145005">
<ele>50.490002</ele>
<time>2026-09-01T04:09:52.000Z</time>
</trkpt>
<trkpt lat="59.5591688" lon="31.0142548">
<ele>51.190002</ele>
<time>2026-09-01T04:09:53.000Z</time>
</trkpt>
<trkpt lat="59.5591033" lon="31.0140162">
<ele>51.100002</ele>
<time>2026-09-01T04:09:54.000Z</time>
</trkpt>
<trkpt lat="59.5590654" lon="31.0138002">
<ele>49.580002</ele>
<time>2026-09-01T04:09:55.000Z</time>
</trkpt>
<trkpt lat="59.5590407" lon="31.0136340">
<ele>49.120003</ele>
<time>2026-09-01T04:09:56.000Z</time>
</trkpt>
<trkpt lat="59.5590289" lon="31.0135072">
<ele>48.849998</ele>
<time>2026-09-01T04:09:57.000Z</time>
</trkpt>
<trkpt lat="59.5590228" lon="31.0133933">
<ele>48.939999</ele>
<time>2026-09-01T04:09:58.000Z</time>
</trkpt>
<trkpt lat="59.5590863" lon="31.0122102">
<ele>49.610001</ele>
<time>2026-09-01T04:10:06.000Z</time>
</trkpt>
<trkpt lat="59.5591864" lon="31.0102988">
<ele>50.660000</ele>
<time>2026-09-01T04:10:17.000Z</time>
</trkpt>
<trkpt lat="59.5592094" lon="31.0084591">
<ele>48.930000</ele>
<time>2026-09-01T04:10:24.000Z</time>
</trkpt>
<trkpt lat="59.5591816" lon="31.0069359">
<ele>46.820000</ele>
<time>2026-09-01T04:10:29.000Z</time>
</trkpt>
<trkpt lat="59.5590751" lon="31.0027839">
<ele>44.980000</ele>
<time>2026-09-01T04:10:41.000Z</time>
</trkpt>
<trkpt lat="59.5589547" lon="30.9978982">
<ele>46.010002</ele>
<time>2026-09-01T04:10:53.000Z</time>
</trkpt>
<trkpt lat="59.5588893" lon="30.9955892">
<ele>43.550003</ele>
<time>2026-09-01T04:10:58.000Z</time>
</trkpt>
<trkpt lat="59.5587839" lon="30.9913583">
<ele>40.130001</ele>
<time>2026-09-01T04:11:07.000Z</time>
</trkpt>
<trkpt lat="59.5586418" lon="30.9858647">
<ele>37.110001</ele>
<time>2026-09-01T04:11:19.000Z</time>
</trkpt>
<trkpt lat="59.5584736" lon="30.9790406">
<ele>36.250000</ele>
<time>2026-09-01T04:11:34.000Z</time>
</trkpt>
<trkpt lat="59.5583402" lon="30.9731270">
<ele>36.420002</ele>
<time>2026-09-01T04:11:47.000Z</time>
</trkpt>
<trkpt lat="59.5582609" lon="30.9676001">
<ele>37.079998</ele>
<time>2026-09-01T04:11:59.000Z</time>
</trkpt>
<trkpt lat="59.5581253" lon="30.9616835">
<ele>37.500000</ele>
<time>2026-09-01T04:12:12.000Z</time>
</trkpt>
<trkpt lat="59.5579476" lon="30.9554022">
<ele>35.880001</ele>
<time>2026-09-01T04:12:26.000Z</time>
</trkpt>
<trkpt lat="59.5577987" lon="30.9501874">
<ele>32.779999</ele>
<time>2026-09-01T04:12:38.000Z</time>
</trkpt>
<trkpt lat="59.5576543" lon="30.9446970">
<ele>29.870001</ele>
<time>2026-09-01T04:12:51.000Z</time>
</trkpt>
<trkpt lat="59.5578592" lon="30.9414521">
<ele>29.080000</ele>
<time>2026-09-01T04:12:59.000Z</time>
</trkpt>
<trkpt lat="59.5583245" lon="30.9360834">
<ele>29.230000</ele>
<time>2026-09-01T04:13:12.000Z</time>
</trkpt>
<trkpt lat="59.5587501" lon="30.9316519">
<ele>28.530001</ele>
<time>2026-09-01T04:13:23.000Z</time>
</trkpt>
<trkpt lat="59.5593133" lon="30.9260432">
<ele>27.190001</ele>
<time>2026-09-01T04:13:37.000Z</time>
</trkpt>
<trkpt lat="59.5597814" lon="30.9214049">
<ele>25.330000</ele>
<time>2026-09-01T04:13:49.000Z</time>
</trkpt>
<trkpt lat="59.5601801" lon="30.9165868">
<ele>24.279999</ele>
<time>2026-09-01T04:14:02.000Z</time>
</trkpt>
<trkpt lat="59.5603108" lon="30.9121499">
<ele>22.559999</ele>
<time>2026-09-01T04:14:14.000Z</time>
</trkpt>
<trkpt lat="59.5602721" lon="30.9117843">
<ele>23.809999</ele>
<time>2026-09-01T04:14:15.000Z</time>
</trkpt>
<trkpt lat="59.5596708" lon="30.9082607">
<ele>24.019999</ele>
<time>2026-09-01T04:14:25.000Z</time>
</trkpt>
<trkpt lat="59.5588138" lon="30.9055512">
<ele>21.830000</ele>
<time>2026-09-01T04:14:34.000Z</time>
</trkpt>
<trkpt lat="59.5579845" lon="30.9031015">
<ele>18.789999</ele>
<time>2026-09-01T04:14:44.000Z</time>
</trkpt>
<trkpt lat="59.5570937" lon="30.9004051">
<ele>20.350000</ele>
<time>2026-09-01T04:14:56.000Z</time>
</trkpt>
<trkpt lat="59.5559862" lon="30.8968967">
<ele>21.049999</ele>
<time>2026-09-01T04:15:11.000Z</time>
</trkpt>
<trkpt lat="59.5548762" lon="30.8934911">
<ele>20.290001</ele>
<time>2026-09-01T04:15:24.000Z</time>
</trkpt>
<trkpt lat="59.5537126" lon="30.8899332">
<ele>19.969999</ele>
<time>2026-09-01T04:15:38.000Z</time>
</trkpt>
<trkpt lat="59.5526839" lon="30.8868441">
<ele>20.710001</ele>
<time>2026-09-01T04:15:51.000Z</time>
</trkpt>
<trkpt lat="59.5514911" lon="30.8831395">
<ele>21.840000</ele>
<time>2026-09-01T04:16:06.000Z</time>
</trkpt>
<trkpt lat="59.5504776" lon="30.8804104">
<ele>23.230001</ele>
<time>2026-09-01T04:16:17.000Z</time>
</trkpt>
<trkpt lat="59.5496554" lon="30.8786699">
<ele>26.719999</ele>
<time>2026-09-01T04:16:24.000Z</time>
</trkpt>
<trkpt lat="59.5490536" lon="30.8774644">
<ele>30.369999</ele>
<time>2026-09-01T04:16:29.000Z</time>
</trkpt>
<trkpt lat="59.5479824" lon="30.8751396">
<ele>31.350000</ele>
<time>2026-09-01T04:16:40.000Z</time>
</trkpt>
<trkpt lat="59.5469114" lon="30.8730610">
<ele>28.119999</ele>
<time>2026-09-01T04:16:51.000Z</time>
</trkpt>
<trkpt lat="59.5463560" lon="30.8720024">
<ele>24.779999</ele>
<time>2026-09-01T04:16:57.000Z</time>
</trkpt>
<trkpt lat="59.5460925" lon="30.8713230">
<ele>21.689999</ele>
<time>2026-09-01T04:17:01.000Z</time>
</trkpt>
<trkpt lat="59.5460293" lon="30.8711824">
<ele>21.920000</ele>
<time>2026-09-01T04:17:02.000Z</time>
</trkpt>
<trkpt lat="59.5457105" lon="30.8704349">
<ele>19.859999</ele>
<time>2026-09-01T04:17:10.000Z</time>
</trkpt>
<trkpt lat="59.5456963" lon="30.8702906">
<ele>19.829998</ele>
<time>2026-09-01T04:17:19.000Z</time>
</trkpt>
<trkpt lat="59.5455307" lon="30.8699699">
<ele>20.580000</ele>
<time>2026-09-01T04:17:44.000Z</time>
</trkpt>
<trkpt lat="59.5454781" lon="30.8698496">
<ele>20.469999</ele>
<time>2026-09-01T04:17:47.000Z</time>
</trkpt>
<trkpt lat="59.5451138" lon="30.8694207">
<ele>21.100000</ele>
<time>2026-09-01T04:18:01.000Z</time>
</trkpt>
<trkpt lat="59.5450608" lon="30.8694644">
<ele>21.349998</ele>
<time>2026-09-01T04:18:02.000Z</time>
</trkpt>
<trkpt lat="59.5450082" lon="30.8695207">
<ele>21.180000</ele>
<time>2026-09-01T04:18:03.000Z</time>
</trkpt>
<trkpt lat="59.5449451" lon="30.8696069">
<ele>21.180000</ele>
<time>2026-09-01T04:18:04.000Z</time>
</trkpt>
<trkpt lat="59.5448840" lon="30.8697112">
<ele>21.550001</ele>
<time>2026-09-01T04:18:05.000Z</time>
</trkpt>
<trkpt lat="59.5448175" lon="30.8698341">
<ele>21.269999</ele>
<time>2026-09-01T04:18:06.000Z</time>
</trkpt>
<trkpt lat="59.5447556" lon="30.8699577">
<ele>21.900000</ele>
<time>2026-09-01T04:18:07.000Z</time>
</trkpt>
<trkpt lat="59.5439870" lon="30.8713606">
<ele>20.750000</ele>
<time>2026-09-01T04:18:18.000Z</time>
</trkpt>
<trkpt lat="59.5437647" lon="30.8718536">
<ele>20.389999</ele>
<time>2026-09-01T04:18:27.000Z</time>
</trkpt>
<trkpt lat="59.5436955" lon="30.8719922">
<ele>19.530001</ele>
<time>2026-09-01T04:18:41.000Z</time>
</trkpt>
<trkpt lat="59.5436720" lon="30.8720615">
<ele>20.320000</ele>
<time>2026-09-01T04:18:48.000Z</time>
</trkpt>
<trkpt lat="59.5436264" lon="30.8721398">
<ele>19.730000</ele>
<time>2026-09-01T04:18:51.000Z</time>
</trkpt>
<trkpt lat="59.5433428" lon="30.8727174">
<ele>20.830000</ele>
<time>2026-09-01T04:19:00.000Z</time>
</trkpt>
<trkpt lat="59.5426575" lon="30.8740285">
<ele>20.450001</ele>
<time>2026-09-01T04:19:11.000Z</time>
</trkpt>
<trkpt lat="59.5421549" lon="30.8749101">
<ele>18.539999</ele>
<time>2026-09-01T04:19:22.000Z</time>
</trkpt>
<trkpt lat="59.5421108" lon="30.8750073">
<ele>18.799999</ele>
<time>2026-09-01T04:19:31.000Z</time>
</trkpt>
<trkpt lat="59.5420904" lon="30.8750531">
<ele>19.480001</ele>
<time>2026-09-01T04:19:32.000Z</time>
</trkpt>
<trkpt lat="59.5420583" lon="30.8751080">
<ele>19.000000</ele>
<time>2026-09-01T04:19:33.000Z</time>
</trkpt>
<trkpt lat="59.5420170" lon="30.8751826">
<ele>19.920000</ele>
<time>2026-09-01T04:19:34.000Z</time>
</trkpt>
<trkpt lat="59.5419718" lon="30.8752666">
<ele>20.199999</ele>
<time>2026-09-01T04:19:35.000Z</time>
</trkpt>
<trkpt lat="59.5413690" lon="30.8763367">
<ele>20.270000</ele>
<time>2026-09-01T04:19:44.000Z</time>
</trkpt>
<trkpt lat="59.5408601" lon="30.8772592">
<ele>17.690001</ele>
<time>2026-09-01T04:19:55.000Z</time>
</trkpt>
<trkpt lat="59.5408293" lon="30.8773239">
<ele>18.080000</ele>
<time>2026-09-01T04:20:07.000Z</time>
</trkpt>
<trkpt lat="59.5407540" lon="30.8773868">
<ele>18.199999</ele>
<time>2026-09-01T04:20:26.000Z</time>
</trkpt>
<trkpt lat="59.5407235" lon="30.8774485">
<ele>18.480000</ele>
<time>2026-09-01T04:20:27.000Z</time>
</trkpt>
<trkpt lat="59.5403036" lon="30.8782460">
<ele>21.750000</ele>
<time>2026-09-01T04:20:34.000Z</time>
</trkpt>
<trkpt lat="59.5392711" lon="30.8801290">
<ele>21.210001</ele>
<time>2026-09-01T04:20:45.000Z</time>
</trkpt>
<trkpt lat="59.5377140" lon="30.8829025">
<ele>20.750000</ele>
<time>2026-09-01T04:21:00.000Z</time>
</trkpt>
<trkpt lat="59.5358336" lon="30.8863099">
<ele>21.510000</ele>
<time>2026-09-01T04:21:17.000Z</time>
</trkpt>
<trkpt lat="59.5341982" lon="30.8892673">
<ele>20.809999</ele>
<time>2026-09-01T04:21:31.000Z</time>
</trkpt>
<trkpt lat="59.5326950" lon="30.8920428">
<ele>23.250000</ele>
<time>2026-09-01T04:21:44.000Z</time>
</trkpt>
<trkpt lat="59.5314462" lon="30.8943391">
<ele>20.710001</ele>
<time>2026-09-01T04:21:55.000Z</time>
</trkpt>
<trkpt lat="59.5297145" lon="30.8975047">
<ele>21.680000</ele>
<time>2026-09-01T04:22:11.000Z</time>
</trkpt>
<trkpt lat="59.5282707" lon="30.9001885">
<ele>21.959999</ele>
<time>2026-09-01T04:22:25.000Z</time>
</trkpt>
<trkpt lat="59.5267335" lon="30.9031152">
<ele>21.930000</ele>
<time>2026-09-01T04:22:40.000Z</time>
</trkpt>
<trkpt lat="59.5253758" lon="30.9056586">
<ele>23.310001</ele>
<time>2026-09-01T04:22:51.000Z</time>
</trkpt>
<trkpt lat="59.5235929" lon="30.9089842">
<ele>26.270000</ele>
<time>2026-09-01T04:23:05.000Z</time>
</trkpt>
<trkpt lat="59.5216582" lon="30.9125893">
<ele>28.110001</ele>
<time>2026-09-01T04:23:19.000Z</time>
</trkpt>
<trkpt lat="59.5199834" lon="30.9156933">
<ele>29.580000</ele>
<time>2026-09-01T04:23:31.000Z</time>
</trkpt>
<trkpt lat="59.5176940" lon="30.9199589">
<ele>30.730001</ele>
<time>2026-09-01T04:23:47.000Z</time>
</trkpt>
<trkpt lat="59.5161843" lon="30.9227694">
<ele>32.900002</ele>
<time>2026-09-01T04:23:57.000Z</time>
</trkpt>
<trkpt lat="59.5139710" lon="30.9268370">
<ele>31.599998</ele>
<time>2026-09-01T04:24:11.000Z</time>
</trkpt>
<trkpt lat="59.5114607" lon="30.9315398">
<ele>32.279999</ele>
<time>2026-09-01T04:24:27.000Z</time>
</trkpt>
<trkpt lat="59.5090503" lon="30.9359675">
<ele>34.200001</ele>
<time>2026-09-01T04:24:42.000Z</time>
</trkpt>
<trkpt lat="59.5065519" lon="30.9404472">
<ele>36.380001</ele>
<time>2026-09-01T04:24:58.000Z</time>
</trkpt>
<trkpt lat="59.5060956" lon="30.9412892">
<ele>37.660000</ele>
<time>2026-09-01T04:25:01.000Z</time>
</trkpt>
<trkpt lat="59.5054395" lon="30.9424767">
<ele>39.230000</ele>
<time>2026-09-01T04:25:05.000Z</time>
</trkpt>
<trkpt lat="59.5050937" lon="30.9431067">
<ele>40.639999</ele>
<time>2026-09-01T04:25:07.000Z</time>
</trkpt>
<trkpt lat="59.5033087" lon="30.9463453">
<ele>41.420002</ele>
<time>2026-09-01T04:25:18.000Z</time>
</trkpt>
<trkpt lat="59.5012099" lon="30.9501257">
<ele>42.640003</ele>
<time>2026-09-01T04:25:31.000Z</time>
</trkpt>
<trkpt lat="59.4990369" lon="30.9540065">
<ele>41.880001</ele>
<time>2026-09-01T04:25:45.000Z</time>
</trkpt>
<trkpt lat="59.4972352" lon="30.9565718">
<ele>43.509998</ele>
<time>2026-09-01T04:25:56.000Z</time>
</trkpt>
<trkpt lat="59.4953406" lon="30.9583828">
<ele>47.099998</ele>
<time>2026-09-01T04:26:06.000Z</time>
</trkpt>
<trkpt lat="59.4938316" lon="30.9598218">
<ele>50.120003</ele>
<time>2026-09-01T04:26:14.000Z</time>
</trkpt>
<trkpt lat="59.4915461" lon="30.9620685">
<ele>48.930000</ele>
<time>2026-09-01T04:26:27.000Z</time>
</trkpt>
<trkpt lat="59.4903894" lon="30.9640800">
<ele>47.140003</ele>
<time>2026-09-01T04:26:35.000Z</time>
</trkpt>
<trkpt lat="59.4898915" lon="30.9661297">
<ele>45.000004</ele>
<time>2026-09-01T04:26:41.000Z</time>
</trkpt>
<trkpt lat="59.4893811" lon="30.9696443">
<ele>44.790001</ele>
<time>2026-09-01T04:26:51.000Z</time>
</trkpt>
<trkpt lat="59.4886205" lon="30.9724398">
<ele>44.730000</ele>
<time>2026-09-01T04:27:00.000Z</time>
</trkpt>
<trkpt lat="59.4874764" lon="30.9749120">
<ele>43.520000</ele>
<time>2026-09-01T04:27:10.000Z</time>
</trkpt>
<trkpt lat="59.4862737" lon="30.9771267">
<ele>43.710003</ele>
<time>2026-09-01T04:27:20.000Z</time>
</trkpt>
<trkpt lat="59.4857580" lon="30.9780372">
<ele>44.950001</ele>
<time>2026-09-01T04:27:24.000Z</time>
</trkpt>
<trkpt lat="59.4839551" lon="30.9812868">
<ele>43.769997</ele>
<time>2026-09-01T04:27:37.000Z</time>
</trkpt>
<trkpt lat="59.4823629" lon="30.9841662">
<ele>42.650002</ele>
<time>2026-09-01T04:27:50.000Z</time>
</trkpt>
<trkpt lat="59.4807509" lon="30.9871588">
<ele>42.529999</ele>
<time>2026-09-01T04:28:04.000Z</time>
</trkpt>
<trkpt lat="59.4795110" lon="30.9894015">
<ele>43.350002</ele>
<time>2026-09-01T04:28:14.000Z</time>
</trkpt>
<trkpt lat="59.4776349" lon="30.9928683">
<ele>42.759998</ele>
<time>2026-09-01T04:28:28.000Z</time>
</trkpt>
<trkpt lat="59.4759136" lon="30.9960395">
<ele>41.139999</ele>
<time>2026-09-01T04:28:42.000Z</time>
</trkpt>
<trkpt lat="59.4745824" lon="30.9984814">
<ele>40.540001</ele>
<time>2026-09-01T04:28:54.000Z</time>
</trkpt>
<trkpt lat="59.4731931" lon="31.0010007">
<ele>39.750000</ele>
<time>2026-09-01T04:29:07.000Z</time>
</trkpt>
<trkpt lat="59.4717511" lon="31.0037195">
<ele>39.480000</ele>
<time>2026-09-01T04:29:21.000Z</time>
</trkpt>
<trkpt lat="59.4704480" lon="31.0060403">
<ele>38.950001</ele>
<time>2026-09-01T04:29:33.000Z</time>
</trkpt>
<trkpt lat="59.4696615" lon="31.0075423">
<ele>42.019997</ele>
<time>2026-09-01T04:29:40.000Z</time>
</trkpt>
<trkpt lat="59.4677129" lon="31.0113439">
<ele>42.590000</ele>
<time>2026-09-01T04:29:56.000Z</time>
</trkpt>
<trkpt lat="59.4673862" lon="31.0119346">
<ele>41.230000</ele>
<time>2026-09-01T04:29:59.000Z</time>
</trkpt>
<trkpt lat="59.4669965" lon="31.0126537">
<ele>37.809998</ele>
<time>2026-09-01T04:30:04.000Z</time>
</trkpt>
<trkpt lat="59.4669507" lon="31.0127729">
<ele>38.360001</ele>
<time>2026-09-01T04:30:05.000Z</time>
</trkpt>
<trkpt lat="59.4669536" lon="31.0128935">
<ele>37.720001</ele>
<time>2026-09-01T04:30:06.000Z</time>
</trkpt>
<trkpt lat="59.4669889" lon="31.0129899">
<ele>37.590000</ele>
<time>2026-09-01T04:30:07.000Z</time>
</trkpt>
<trkpt lat="59.4670267" lon="31.0130950">
<ele>37.740002</ele>
<time>2026-09-01T04:30:08.000Z</time>
</trkpt>
<trkpt lat="59.4670765" lon="31.0131914">
<ele>37.680000</ele>
<time>2026-09-01T04:30:09.000Z</time>
</trkpt>
<trkpt lat="59.4671341" lon="31.0132850">
<ele>37.619999</ele>
<time>2026-09-01T04:30:10.000Z</time>
</trkpt>
<trkpt lat="59.4671877" lon="31.0133815">
<ele>37.579998</ele>
<time>2026-09-01T04:30:11.000Z</time>
</trkpt>
<trkpt lat="59.4678668" lon="31.0145969">
<ele>37.780003</ele>
<time>2026-09-01T04:30:23.000Z</time>
</trkpt>
<trkpt lat="59.4679291" lon="31.0146568">
<ele>37.570000</ele>
<time>2026-09-01T04:30:24.000Z</time>
</trkpt>
<trkpt lat="59.4679985" lon="31.0146929">
<ele>37.680000</ele>
<time>2026-09-01T04:30:25.000Z</time>
</trkpt>
<trkpt lat="59.4680691" lon="31.0147124">
<ele>37.520000</ele>
<time>2026-09-01T04:30:26.000Z</time>
</trkpt>
<trkpt lat="59.4681438" lon="31.0147008">
<ele>37.720001</ele>
<time>2026-09-01T04:30:27.000Z</time>
</trkpt>
<trkpt lat="59.4682112" lon="31.0146712">
<ele>37.730000</ele>
<time>2026-09-01T04:30:28.000Z</time>
</trkpt>
<trkpt lat="59.4682774" lon="31.0146366">
<ele>37.309998</ele>
<time>2026-09-01T04:30:29.000Z</time>
</trkpt>
<trkpt lat="59.4688672" lon="31.0142864">
<ele>36.860001</ele>
<time>2026-09-01T04:30:41.000Z</time>
</trkpt>
<trkpt lat="59.4695313" lon="31.0138793">
<ele>38.320000</ele>
<time>2026-09-01T04:30:52.000Z</time>
</trkpt>
<trkpt lat="59.4706142" lon="31.0131975">
<ele>38.369999</ele>
<time>2026-09-01T04:31:06.000Z</time>
</trkpt>
<trkpt lat="59.4716796" lon="31.0125143">
<ele>38.730000</ele>
<time>2026-09-01T04:31:17.000Z</time>
</trkpt>
<trkpt lat="59.4724323" lon="31.0121844">
<ele>38.779999</ele>
<time>2026-09-01T04:31:25.000Z</time>
</trkpt>
<trkpt lat="59.4727007" lon="31.0122282">
<ele>39.199997</ele>
<time>2026-09-01T04:31:28.000Z</time>
</trkpt>
<trkpt lat="59.4727944" lon="31.0122776">
<ele>39.189999</ele>
<time>2026-09-01T04:31:29.000Z</time>
</trkpt>
<trkpt lat="59.4728957" lon="31.0123418">
<ele>39.830002</ele>
<time>2026-09-01T04:31:30.000Z</time>
</trkpt>
<trkpt lat="59.4734116" lon="31.0127967">
<ele>41.150002</ele>
<time>2026-09-01T04:31:35.000Z</time>
</trkpt>
<trkpt lat="59.4735067" lon="31.0129381">
<ele>41.800003</ele>
<time>2026-09-01T04:31:36.000Z</time>
</trkpt>
<trkpt lat="59.4735977" lon="31.0130900">
<ele>42.410004</ele>
<time>2026-09-01T04:31:37.000Z</time>
</trkpt>
<trkpt lat="59.4738757" lon="31.0136164">
<ele>43.689999</ele>
<time>2026-09-01T04:31:40.000Z</time>
</trkpt>
<trkpt lat="59.4742172" lon="31.0142929">
<ele>47.429996</ele>
<time>2026-09-01T04:31:44.000Z</time>
</trkpt>
<trkpt lat="59.4745505" lon="31.0150049">
<ele>50.430000</ele>
<time>2026-09-01T04:31:48.000Z</time>
</trkpt>
<trkpt lat="59.4747186" lon="31.0153706">
<ele>51.570000</ele>
<time>2026-09-01T04:31:50.000Z</time>
</trkpt>
<trkpt lat="59.4753133" lon="31.0165714">
<ele>48.399998</ele>
<time>2026-09-01T04:31:57.000Z</time>
</trkpt>
<trkpt lat="59.4757533" lon="31.0175028">
<ele>45.200001</ele>
<time>2026-09-01T04:32:02.000Z</time>
</trkpt>
<trkpt lat="59.4759334" lon="31.0178726">
<ele>44.030003</ele>
<time>2026-09-01T04:32:04.000Z</time>
</trkpt>
<trkpt lat="59.4761851" lon="31.0184268">
<ele>42.380001</ele>
<time>2026-09-01T04:32:07.000Z</time>
</trkpt>
<trkpt lat="59.4768672" lon="31.0198431">
<ele>40.639999</ele>
<time>2026-09-01T04:32:17.000Z</time>
</trkpt>
<trkpt lat="59.4777202" lon="31.0214501">
<ele>41.160000</ele>
<time>2026-09-01T04:32:31.000Z</time>
</trkpt>
<trkpt lat="59.4786875" lon="31.0234190">
<ele>41.220001</ele>
<time>2026-09-01T04:32:44.000Z</time>
</trkpt>
<trkpt lat="59.4791314" lon="31.0243178">
<ele>39.990002</ele>
<time>2026-09-01T04:32:53.000Z</time>
</trkpt>
<trkpt lat="59.4792677" lon="31.0244556">
<ele>39.949997</ele>
<time>2026-09-01T04:32:58.000Z</time>
</trkpt>
<trkpt lat="59.4793002" lon="31.0244371">
<ele>39.730000</ele>
<time>2026-09-01T04:32:59.000Z</time>
</trkpt>
<trkpt lat="59.4793479" lon="31.0243933">
<ele>40.220001</ele>
<time>2026-09-01T04:33:00.000Z</time>
</trkpt>
<trkpt lat="59.4793948" lon="31.0243367">
<ele>40.489998</ele>
<time>2026-09-01T04:33:01.000Z</time>
</trkpt>
<trkpt lat="59.4794460" lon="31.0242291">
<ele>40.939999</ele>
<time>2026-09-01T04:33:02.000Z</time>
</trkpt>
<trkpt lat="59.4794967" lon="31.0241225">
<ele>40.810001</ele>
<time>2026-09-01T04:33:03.000Z</time>
</trkpt>
<trkpt lat="59.4802477" lon="31.0225556">
<ele>40.350002</ele>
<time>2026-09-01T04:33:16.000Z</time>
</trkpt>
<trkpt lat="59.4806649" lon="31.0216859">
<ele>39.649998</ele>
<time>2026-09-01T04:33:27.000Z</time>
</trkpt>
<trkpt lat="59.4807919" lon="31.0215489">
<ele>39.600002</ele>
<time>2026-09-01T04:33:38.000Z</time>
</trkpt>
<trkpt lat="59.4807871" lon="31.0215792">
<ele>39.790001</ele>
<time>2026-09-01T04:34:04.000Z</time>
</trkpt>
<trkpt lat="59.4807700" lon="31.0215594">
<ele>40.000000</ele>
<time>2026-09-01T04:34:07.000Z</time>
</trkpt>
<trkpt lat="59.4807566" lon="31.0215816">
<ele>39.980003</ele>
<time>2026-09-01T04:34:27.000Z</time>
</trkpt>
<trkpt lat="59.4808099" lon="31.0214551">
<ele>39.840000</ele>
<time>2026-09-01T04:34:54.000Z</time>
</trkpt>
<trkpt lat="59.4809148" lon="31.0213204">
<ele>39.799999</ele>
<time>2026-09-01T04:35:15.000Z</time>
</trkpt>
<trkpt lat="59.4810640" lon="31.0210952">
<ele>40.389999</ele>
<time>2026-09-01T04:35:36.000Z</time>
</trkpt>
<trkpt lat="59.4811580" lon="31.0209571">
<ele>40.570000</ele>
<time>2026-09-01T04:35:56.000Z</time>
</trkpt>
<trkpt lat="59.4811604" lon="31.0209275">
<ele>40.680000</ele>
<time>2026-09-01T04:36:13.000Z</time>
</trkpt>
</trkseg>
<trkseg>
<trkpt lat="59.1043145" lon="31.1805746">
<ele>68.139999</ele>
<time>2026-08-28T02:36:31.000Z</time>
</trkpt>
<trkpt lat="59.1043094" lon="31.1805784">
<ele>68.430000</ele>
<time>2026-08-28T02:36:50.000Z</time>
</trkpt>
<trkpt lat="59.1043059" lon="31.1805779">
<ele>68.930000</ele>
<time>2026-08-28T02:37:22.000Z</time>
</trkpt>
<trkpt lat="59.1043084" lon="31.1805625">
<ele>69.419998</ele>
<time>2026-08-28T02:37:52.000Z</time>
</trkpt>
<trkpt lat="59.1043187" lon="31.1805938">
<ele>67.549995</ele>
<time>2026-08-28T02:38:20.000Z</time>
</trkpt>
<trkpt lat="59.1042813" lon="31.1806188">
<ele>66.779999</ele>
<time>2026-08-28T02:38:44.000Z</time>
</trkpt>
<trkpt lat="59.1042246" lon="31.1806029">
<ele>65.709999</ele>
<time>2026-08-28T02:39:02.000Z</time>
</trkpt>
<trkpt lat="59.1042101" lon="31.1806366">
<ele>64.580002</ele>
<time>2026-08-28T02:39:23.000Z</time>
</trkpt>
<trkpt lat="59.1042132" lon="31.1806065">
<ele>63.500000</ele>
<time>2026-08-28T02:39:49.000Z</time>
</trkpt>
<trkpt lat="59.1041965" lon="31.1805680">
<ele>62.980003</ele>
<time>2026-08-28T02:40:06.000Z</time>
</trkpt>
<trkpt lat="59.1042077" lon="31.1805959">
<ele>60.780003</ele>
<time>2026-08-28T02:40:34.000Z</time>
</trkpt>
<trkpt lat="59.1041410" lon="31.1806479">
<ele>57.329998</ele>
<time>2026-08-28T02:41:00.000Z</time>
</trkpt>
<trkpt lat="59.1041280" lon="31.1805613">
<ele>57.009998</ele>
<time>2026-08-28T02:41:18.000Z</time>
</trkpt>
<trkpt lat="59.1041306" lon="31.1805391">
<ele>57.209999</ele>
<time>2026-08-28T02:41:33.000Z</time>
</trkpt>
<trkpt lat="59.1040229" lon="31.1804672">
<ele>40.440002</ele>
<time>2026-08-28T02:43:26.000Z</time>
</trkpt>
</trkseg>
<trkseg>
<trkpt lat="59.4811162" lon="31.0210245">
<ele>47.360001</ele>
<time>2026-08-31T20:19:31.000Z</time>
</trkpt>
<trkpt lat="59.4810980" lon="31.0210084">
<ele>45.289997</ele>
<time>2026-08-31T20:20:21.000Z</time>
</trkpt>
<trkpt lat="59.4810556" lon="31.0210692">
<ele>47.349998</ele>
<time>2026-08-31T20:20:53.000Z</time>
</trkpt>
<trkpt lat="59.4809831" lon="31.0212053">
<ele>47.419998</ele>
<time>2026-08-31T20:21:05.000Z</time>
</trkpt>
<trkpt lat="59.4809382" lon="31.0213577">
<ele>47.489998</ele>
<time>2026-08-31T20:21:21.000Z</time>
</trkpt>
<trkpt lat="59.4808428" lon="31.0214476">
<ele>48.680000</ele>
<time>2026-08-31T20:21:41.000Z</time>
</trkpt>
<trkpt lat="59.4807645" lon="31.0214951">
<ele>49.079998</ele>
<time>2026-08-31T20:21:49.000Z</time>
</trkpt>
<trkpt lat="59.4807283" lon="31.0215357">
<ele>48.619999</ele>
<time>2026-08-31T20:21:53.000Z</time>
</trkpt>
<trkpt lat="59.4805781" lon="31.0217938">
<ele>44.790001</ele>
<time>2026-08-31T20:22:13.000Z</time>
</trkpt>
<trkpt lat="59.4805452" lon="31.0219101">
<ele>44.759998</ele>
<time>2026-08-31T20:22:29.000Z</time>
</trkpt>
<trkpt lat="59.4805571" lon="31.0219345">
<ele>45.289997</ele>
<time>2026-08-31T20:22:47.000Z</time>
</trkpt>
<trkpt lat="59.4805485" lon="31.0219155">
<ele>45.930000</ele>
<time>2026-08-31T20:23:10.000Z</time>
</trkpt>
<trkpt lat="59.4805715" lon="31.0219176">
<ele>47.949997</ele>
<time>2026-08-31T20:23:35.000Z</time>
</trkpt>
<trkpt lat="59.4805268" lon="31.0218826">
<ele>50.280003</ele>
<time>2026-08-31T20:23:58.000Z</time>
</trkpt>
<trkpt lat="59.4804904" lon="31.0218704">
<ele>50.910000</ele>
<time>2026-08-31T20:24:35.000Z</time>
</trkpt>
<trkpt lat="59.4805257" lon="31.0219041">
<ele>49.629997</ele>
<time>2026-08-31T20:24:59.000Z</time>
</trkpt>
<trkpt lat="59.4805258" lon="31.0219317">
<ele>49.670002</ele>
<time>2026-08-31T20:25:30.000Z</time>
</trkpt>
<trkpt lat="59.4805265" lon="31.0219241">
<ele>48.970001</ele>
<time>2026-08-31T20:26:04.000Z</time>
</trkpt>
<trkpt lat="59.4805543" lon="31.0219591">
<ele>48.590000</ele>
<time>2026-08-31T20:26:44.000Z</time>
</trkpt>
<trkpt lat="59.4806002" lon="31.0220148">
<ele>51.200001</ele>
<time>2026-08-31T20:27:28.000Z</time>
</trkpt>
<trkpt lat="59.4805909" lon="31.0219955">
<ele>52.810001</ele>
<time>2026-08-31T20:28:24.000Z</time>
</trkpt>
<trkpt lat="59.4806309" lon="31.0219919">
<ele>55.799999</ele>
<time>2026-08-31T20:29:17.000Z</time>
</trkpt>
<trkpt lat="59.4806324" lon="31.0219541">
<ele>59.529999</ele>
<time>2026-08-31T20:29:53.000Z</time>
</trkpt>
<trkpt lat="59.4806631" lon="31.0220195">
<ele>58.149998</ele>
<time>2026-08-31T20:30:33.000Z</time>
</trkpt>
<trkpt lat="59.4806467" lon="31.0219700">
<ele>58.329998</ele>
<time>2026-08-31T20:31:06.000Z</time>
</trkpt>
<trkpt lat="59.4806079" lon="31.0219952">
<ele>55.380001</ele>
<time>2026-08-31T20:31:41.000Z</time>
</trkpt>
<trkpt lat="59.4806265" lon="31.0219634">
<ele>54.790001</ele>
<time>2026-08-31T20:32:11.000Z</time>
</trkpt>
<trkpt lat="59.4806071" lon="31.0219595">
<ele>54.220001</ele>
<time>2026-08-31T20:32:47.000Z</time>
</trkpt>
<trkpt lat="59.4805558" lon="31.0218689">
<ele>58.469997</ele>
<time>2026-08-31T20:33:18.000Z</time>
</trkpt>
<trkpt lat="59.4805739" lon="31.0218594">
<ele>57.849998</ele>
<time>2026-08-31T20:33:46.000Z</time>
</trkpt>
<trkpt lat="59.4805481" lon="31.0218566">
<ele>57.939999</ele>
<time>2026-08-31T20:34:14.000Z</time>
</trkpt>
<trkpt lat="59.4805417" lon="31.0219002">
<ele>57.270000</ele>
<time>2026-08-31T20:34:42.000Z</time>
</trkpt>
<trkpt lat="59.4805799" lon="31.0218835">
<ele>56.849998</ele>
<time>2026-08-31T20:35:08.000Z</time>
</trkpt>
<trkpt lat="59.4805687" lon="31.0216989">
<ele>59.340000</ele>
<time>2026-08-31T20:35:32.000Z</time>
</trkpt>
<trkpt lat="59.4806129" lon="31.0217284">
<ele>58.480000</ele>
<time>2026-08-31T20:35:42.000Z</time>
</trkpt>
<trkpt lat="59.4806360" lon="31.0217547">
<ele>59.459999</ele>
<time>2026-08-31T20:35:57.000Z</time>
</trkpt>
<trkpt lat="59.4806111" lon="31.0218459">
<ele>57.660000</ele>
<time>2026-08-31T20:36:10.000Z</time>
</trkpt>
<trkpt lat="59.4806154" lon="31.0218509">
<ele>55.809998</ele>
<time>2026-08-31T20:36:34.000Z</time>
</trkpt>
<trkpt lat="59.4806643" lon="31.0218654">
<ele>54.289997</ele>
<time>2026-08-31T20:36:54.000Z</time>
</trkpt>
<trkpt lat="59.4806523" lon="31.0217868">
<ele>52.970001</ele>
<time>2026-08-31T20:37:13.000Z</time>
</trkpt>
<trkpt lat="59.4805851" lon="31.0217645">
<ele>52.720001</ele>
<time>2026-08-31T20:37:30.000Z</time>
</trkpt>
<trkpt lat="59.4804131" lon="31.0221652">
<ele>50.840000</ele>
<time>2026-08-31T20:37:43.000Z</time>
</trkpt>
<trkpt lat="59.4803769" lon="31.0221985">
<ele>50.220001</ele>
<time>2026-08-31T20:37:54.000Z</time>
</trkpt>
<trkpt lat="59.4803185" lon="31.0222967">
<ele>50.790001</ele>
<time>2026-08-31T20:38:31.000Z</time>
</trkpt>
<trkpt lat="59.4801815" lon="31.0226488">
<ele>50.910000</ele>
<time>2026-08-31T20:38:41.000Z</time>
</trkpt>
<trkpt lat="59.4798268" lon="31.0232912">
<ele>50.520000</ele>
<time>2026-08-31T20:38:51.000Z</time>
</trkpt>
<trkpt lat="59.4796088" lon="31.0237931">
<ele>48.619999</ele>
<time>2026-08-31T20:38:57.000Z</time>
</trkpt>
<trkpt lat="59.4793366" lon="31.0242176">
<ele>47.080002</ele>
<time>2026-08-31T20:39:03.000Z</time>
</trkpt>
<trkpt lat="59.4789865" lon="31.0241610">
<ele>46.709999</ele>
<time>2026-08-31T20:39:12.000Z</time>
</trkpt>
<trkpt lat="59.4785134" lon="31.0231546">
<ele>46.899998</ele>
<time>2026-08-31T20:39:27.000Z</time>
</trkpt>
<trkpt lat="59.4780042" lon="31.0221503">
<ele>46.680000</ele>
<time>2026-08-31T20:39:39.000Z</time>
</trkpt>
<trkpt lat="59.4774038" lon="31.0209531">
<ele>47.240002</ele>
<time>2026-08-31T20:39:52.000Z</time>
</trkpt>
<trkpt lat="59.4770554" lon="31.0203557">
<ele>46.739998</ele>
<time>2026-08-31T20:40:04.000Z</time>
</trkpt>
<trkpt lat="59.4767528" lon="31.0198177">
<ele>46.129997</ele>
<time>2026-08-31T20:40:14.000Z</time>
</trkpt>
<trkpt lat="59.4763382" lon="31.0190322">
<ele>45.650002</ele>
<time>2026-08-31T20:40:25.000Z</time>
</trkpt>
<trkpt lat="59.4758976" lon="31.0181631">
<ele>44.639999</ele>
<time>2026-08-31T20:40:35.000Z</time>
</trkpt>
<trkpt lat="59.4751166" lon="31.0163067">
<ele>43.130001</ele>
<time>2026-08-31T20:40:50.000Z</time>
</trkpt>
<trkpt lat="59.4743218" lon="31.0146879">
<ele>43.590000</ele>
<time>2026-08-31T20:41:01.000Z</time>
</trkpt>
<trkpt lat="59.4731337" lon="31.0125911">
<ele>42.130001</ele>
<time>2026-08-31T20:41:16.000Z</time>
</trkpt>
<trkpt lat="59.4724272" lon="31.0121475">
<ele>41.450001</ele>
<time>2026-08-31T20:41:26.000Z</time>
</trkpt>
<trkpt lat="59.4721667" lon="31.0122273">
<ele>41.939999</ele>
<time>2026-08-31T20:41:30.000Z</time>
</trkpt>
<trkpt lat="59.4710966" lon="31.0128671">
<ele>40.020000</ele>
<time>2026-08-31T20:41:46.000Z</time>
</trkpt>
<trkpt lat="59.4698780" lon="31.0136091">
<ele>38.230000</ele>
<time>2026-08-31T20:42:00.000Z</time>
</trkpt>
<trkpt lat="59.4688000" lon="31.0142398">
<ele>37.869999</ele>
<time>2026-08-31T20:42:12.000Z</time>
</trkpt>
<trkpt lat="59.4681868" lon="31.0145993">
<ele>38.340000</ele>
<time>2026-08-31T20:42:23.000Z</time>
</trkpt>
<trkpt lat="59.4678684" lon="31.0143070">
<ele>38.960003</ele>
<time>2026-08-31T20:42:30.000Z</time>
</trkpt>
<trkpt lat="59.4676532" lon="31.0138945">
<ele>38.920002</ele>
<time>2026-08-31T20:42:39.000Z</time>
</trkpt>
<trkpt lat="59.4674608" lon="31.0136092">
<ele>39.169998</ele>
<time>2026-08-31T20:42:45.000Z</time>
</trkpt>
<trkpt lat="59.4671397" lon="31.0130057">
<ele>39.310001</ele>
<time>2026-08-31T20:42:51.000Z</time>
</trkpt>
<trkpt lat="59.4672046" lon="31.0125507">
<ele>39.860001</ele>
<time>2026-08-31T20:42:57.000Z</time>
</trkpt>
<trkpt lat="59.4679306" lon="31.0112789">
<ele>39.579998</ele>
<time>2026-08-31T20:43:05.000Z</time>
</trkpt>
<trkpt lat="59.4693012" lon="31.0086997">
<ele>38.279999</ele>
<time>2026-08-31T20:43:17.000Z</time>
</trkpt>
<trkpt lat="59.4711245" lon="31.0052348">
<ele>43.070000</ele>
<time>2026-08-31T20:43:33.000Z</time>
</trkpt>
<trkpt lat="59.4723995" lon="31.0029223">
<ele>41.989998</ele>
<time>2026-08-31T20:43:44.000Z</time>
</trkpt>
<trkpt lat="59.4741063" lon="30.9996939">
<ele>41.689999</ele>
<time>2026-08-31T20:43:59.000Z</time>
</trkpt>
<trkpt lat="59.4758393" lon="30.9964978">
<ele>42.360001</ele>
<time>2026-08-31T20:44:14.000Z</time>
</trkpt>
<trkpt lat="59.4779469" lon="30.9926290">
<ele>47.949997</ele>
<time>2026-08-31T20:44:32.000Z</time>
</trkpt>
<trkpt lat="59.4795900" lon="30.9895808">
<ele>46.620003</ele>
<time>2026-08-31T20:44:45.000Z</time>
</trkpt>
<trkpt lat="59.4820246" lon="30.9851205">
<ele>50.000000</ele>
<time>2026-08-31T20:45:03.000Z</time>
</trkpt>
<trkpt lat="59.4841726" lon="30.9811733">
<ele>51.940002</ele>
<time>2026-08-31T20:45:19.000Z</time>
</trkpt>
<trkpt lat="59.4863315" lon="30.9772368">
<ele>52.439999</ele>
<time>2026-08-31T20:45:35.000Z</time>
</trkpt>
<trkpt lat="59.4872163" lon="30.9756341">
<ele>54.959999</ele>
<time>2026-08-31T20:45:43.000Z</time>
</trkpt>
<trkpt lat="59.4885276" lon="30.9732625">
<ele>53.930000</ele>
<time>2026-08-31T20:45:55.000Z</time>
</trkpt>
<trkpt lat="59.4902396" lon="30.9700933">
<ele>53.090000</ele>
<time>2026-08-31T20:46:07.000Z</time>
</trkpt>
<trkpt lat="59.4924088" lon="30.9661949">
<ele>51.270000</ele>
<time>2026-08-31T20:46:19.000Z</time>
</trkpt>
<trkpt lat="59.4950164" lon="30.9615076">
<ele>49.079998</ele>
<time>2026-08-31T20:46:33.000Z</time>
</trkpt>
<trkpt lat="59.4980031" lon="30.9561355">
<ele>52.340000</ele>
<time>2026-08-31T20:46:49.000Z</time>
</trkpt>
<trkpt lat="59.5011688" lon="30.9504919">
<ele>48.299999</ele>
<time>2026-08-31T20:47:06.000Z</time>
</trkpt>
<trkpt lat="59.5043284" lon="30.9447658">
<ele>48.419998</ele>
<time>2026-08-31T20:47:23.000Z</time>
</trkpt>
<trkpt lat="59.5068976" lon="30.9400763">
<ele>45.390003</ele>
<time>2026-08-31T20:47:37.000Z</time>
</trkpt>
<trkpt lat="59.5093020" lon="30.9357054">
<ele>39.410000</ele>
<time>2026-08-31T20:47:50.000Z</time>
</trkpt>
<trkpt lat="59.5122458" lon="30.9303096">
<ele>35.829998</ele>
<time>2026-08-31T20:48:06.000Z</time>
</trkpt>
<trkpt lat="59.5149927" lon="30.9252664">
<ele>33.750000</ele>
<time>2026-08-31T20:48:21.000Z</time>
</trkpt>
<trkpt lat="59.5178129" lon="30.9200578">
<ele>34.980000</ele>
<time>2026-08-31T20:48:37.000Z</time>
</trkpt>
<trkpt lat="59.5203132" lon="30.9153929">
<ele>33.400002</ele>
<time>2026-08-31T20:48:51.000Z</time>
</trkpt>
<trkpt lat="59.5219346" lon="30.9124128">
<ele>36.669998</ele>
<time>2026-08-31T20:49:00.000Z</time>
</trkpt>
<trkpt lat="59.5239326" lon="30.9087067">
<ele>32.430000</ele>
<time>2026-08-31T20:49:12.000Z</time>
</trkpt>
<trkpt lat="59.5259985" lon="30.9048803">
<ele>30.690001</ele>
<time>2026-08-31T20:49:25.000Z</time>
</trkpt>
<trkpt lat="59.5268347" lon="30.9033242">
<ele>30.770000</ele>
<time>2026-08-31T20:49:32.000Z</time>
</trkpt>
<trkpt lat="59.5279999" lon="30.9010793">
<ele>31.129999</ele>
<time>2026-08-31T20:49:45.000Z</time>
</trkpt>
<trkpt lat="59.5292959" lon="30.8986499">
<ele>30.980000</ele>
<time>2026-08-31T20:49:56.000Z</time>
</trkpt>
<trkpt lat="59.5310609" lon="30.8953933">
<ele>31.809999</ele>
<time>2026-08-31T20:50:10.000Z</time>
</trkpt>
<trkpt lat="59.5324752" lon="30.8927067">
<ele>31.420000</ele>
<time>2026-08-31T20:50:22.000Z</time>
</trkpt>
<trkpt lat="59.5341417" lon="30.8897149">
<ele>31.559999</ele>
<time>2026-08-31T20:50:36.000Z</time>
</trkpt>
<trkpt lat="59.5358097" lon="30.8867257">
<ele>32.529999</ele>
<time>2026-08-31T20:50:51.000Z</time>
</trkpt>
<trkpt lat="59.5372709" lon="30.8840590">
<ele>32.639999</ele>
<time>2026-08-31T20:51:04.000Z</time>
</trkpt>
<trkpt lat="59.5388961" lon="30.8810191">
<ele>32.130001</ele>
<time>2026-08-31T20:51:18.000Z</time>
</trkpt>
<trkpt lat="59.5407593" lon="30.8775814">
<ele>29.110001</ele>
<time>2026-08-31T20:51:34.000Z</time>
</trkpt>
<trkpt lat="59.5417179" lon="30.8759490">
<ele>34.149998</ele>
<time>2026-08-31T20:51:43.000Z</time>
</trkpt>
<trkpt lat="59.5418196" lon="30.8757771">
<ele>38.209999</ele>
<time>2026-08-31T20:51:48.000Z</time>
</trkpt>
<trkpt lat="59.5417723" lon="30.8758012">
<ele>38.020000</ele>
<time>2026-08-31T20:52:18.000Z</time>
</trkpt>
<trkpt lat="59.5418868" lon="30.8756458">
<ele>39.520000</ele>
<time>2026-08-31T20:52:40.000Z</time>
</trkpt>
<trkpt lat="59.5423676" lon="30.8747783">
<ele>39.410000</ele>
<time>2026-08-31T20:52:48.000Z</time>
</trkpt>
<trkpt lat="59.5434435" lon="30.8727892">
<ele>36.299999</ele>
<time>2026-08-31T20:53:02.000Z</time>
</trkpt>
<trkpt lat="59.5446474" lon="30.8706501">
<ele>32.959999</ele>
<time>2026-08-31T20:53:19.000Z</time>
</trkpt>
<trkpt lat="59.5450152" lon="30.8700269">
<ele>31.059999</ele>
<time>2026-08-31T20:53:29.000Z</time>
</trkpt>
<trkpt lat="59.5451183" lon="30.8698580">
<ele>29.619999</ele>
<time>2026-08-31T20:53:43.000Z</time>
</trkpt>
<trkpt lat="59.5453523" lon="30.8700891">
<ele>29.370001</ele>
<time>2026-08-31T20:53:48.000Z</time>
</trkpt>
<trkpt lat="59.5461835" lon="30.8715796">
<ele>28.730000</ele>
<time>2026-08-31T20:53:58.000Z</time>
</trkpt>
<trkpt lat="59.5475361" lon="30.8747456">
<ele>28.059999</ele>
<time>2026-08-31T20:54:12.000Z</time>
</trkpt>
<trkpt lat="59.5495113" lon="30.8787122">
<ele>27.320000</ele>
<time>2026-08-31T20:54:28.000Z</time>
</trkpt>
<trkpt lat="59.5509847" lon="30.8820609">
<ele>26.459999</ele>
<time>2026-08-31T20:54:41.000Z</time>
</trkpt>
<trkpt lat="59.5519165" lon="30.8850959">
<ele>26.360001</ele>
<time>2026-08-31T20:54:51.000Z</time>
</trkpt>
<trkpt lat="59.5532722" lon="30.8892757">
<ele>28.400000</ele>
<time>2026-08-31T20:55:05.000Z</time>
</trkpt>
<trkpt lat="59.5546221" lon="30.8934176">
<ele>26.330000</ele>
<time>2026-08-31T20:55:19.000Z</time>
</trkpt>
<trkpt lat="59.5562716" lon="30.8984474">
<ele>25.809999</ele>
<time>2026-08-31T20:55:36.000Z</time>
</trkpt>
<trkpt lat="59.5579250" lon="30.9034327">
<ele>23.480000</ele>
<time>2026-08-31T20:55:53.000Z</time>
</trkpt>
<trkpt lat="59.5587824" lon="30.9060110">
<ele>23.720001</ele>
<time>2026-08-31T20:56:03.000Z</time>
</trkpt>
<trkpt lat="59.5597835" lon="30.9091607">
<ele>21.650000</ele>
<time>2026-08-31T20:56:16.000Z</time>
</trkpt>
<trkpt lat="59.5602339" lon="30.9117870">
<ele>19.049999</ele>
<time>2026-08-31T20:56:25.000Z</time>
</trkpt>
<trkpt lat="59.5603005" lon="30.9124334">
<ele>18.920000</ele>
<time>2026-08-31T20:56:27.000Z</time>
</trkpt>
<trkpt lat="59.5602953" lon="30.9137655">
<ele>21.340000</ele>
<time>2026-08-31T20:56:31.000Z</time>
</trkpt>
<trkpt lat="59.5597924" lon="30.9187838">
<ele>14.450001</ele>
<time>2026-08-31T20:56:45.000Z</time>
</trkpt>
<trkpt lat="59.5592664" lon="30.9241977">
<ele>6.990000</ele>
<time>2026-08-31T20:56:59.000Z</time>
</trkpt>
<trkpt lat="59.5587917" lon="30.9292245">
<ele>0.600000</ele>
<time>2026-08-31T20:57:12.000Z</time>
</trkpt>
<trkpt lat="59.5583580" lon="30.9340976">
<ele>-2.650000</ele>
<time>2026-08-31T20:57:26.000Z</time>
</trkpt>
<trkpt lat="59.5579076" lon="30.9388139">
<ele>-9.050000</ele>
<time>2026-08-31T20:57:39.000Z</time>
</trkpt>
<trkpt lat="59.5574903" lon="30.9431067">
<ele>-15.130000</ele>
<time>2026-08-31T20:57:51.000Z</time>
</trkpt>
<trkpt lat="59.5573466" lon="30.9464366">
<ele>-19.000000</ele>
<time>2026-08-31T20:58:02.000Z</time>
</trkpt>
<trkpt lat="59.5574606" lon="30.9501594">
<ele>-21.320002</ele>
<time>2026-08-31T20:58:14.000Z</time>
</trkpt>
<trkpt lat="59.5575421" lon="30.9537351">
<ele>-21.890001</ele>
<time>2026-08-31T20:58:25.000Z</time>
</trkpt>
<trkpt lat="59.5576455" lon="30.9576814">
<ele>-22.170000</ele>
<time>2026-08-31T20:58:36.000Z</time>
</trkpt>
<trkpt lat="59.5577826" lon="30.9619430">
<ele>-17.469999</ele>
<time>2026-08-31T20:58:48.000Z</time>
</trkpt>
<trkpt lat="59.5578634" lon="30.9659147">
<ele>-19.870001</ele>
<time>2026-08-31T20:58:59.000Z</time>
</trkpt>
<trkpt lat="59.5579757" lon="30.9709172">
<ele>-21.930000</ele>
<time>2026-08-31T20:59:12.000Z</time>
</trkpt>
<trkpt lat="59.5581144" lon="30.9769326">
<ele>-26.170000</ele>
<time>2026-08-31T20:59:27.000Z</time>
</trkpt>
<trkpt lat="59.5583079" lon="30.9822655">
<ele>-7.560000</ele>
<time>2026-08-31T20:59:39.000Z</time>
</trkpt>
<trkpt lat="59.5585203" lon="30.9885745">
<ele>12.230000</ele>
<time>2026-08-31T20:59:53.000Z</time>
</trkpt>
<trkpt lat="59.5587503" lon="30.9957449">
<ele>35.119999</ele>
<time>2026-08-31T21:00:09.000Z</time>
</trkpt>
<trkpt lat="59.5589184" lon="31.0022804">
<ele>44.579998</ele>
<time>2026-08-31T21:00:24.000Z</time>
</trkpt>
<trkpt lat="59.5590253" lon="31.0061582">
<ele>49.369999</ele>
<time>2026-08-31T21:00:34.000Z</time>
</trkpt>
<trkpt lat="59.5590672" lon="31.0089416">
<ele>51.469997</ele>
<time>2026-08-31T21:00:44.000Z</time>
</trkpt>
<trkpt lat="59.5590558" lon="31.0117814">
<ele>66.839996</ele>
<time>2026-08-31T21:00:56.000Z</time>
</trkpt>
<trkpt lat="59.5590242" lon="31.0125330">
<ele>71.129997</ele>
<time>2026-08-31T21:01:01.000Z</time>
</trkpt>
<trkpt lat="59.5590035" lon="31.0137437">
<ele>75.139999</ele>
<time>2026-08-31T21:01:09.000Z</time>
</trkpt>
<trkpt lat="59.5590080" lon="31.0138309">
<ele>75.500000</ele>
<time>2026-08-31T21:01:10.000Z</time>
</trkpt>
<trkpt lat="59.5592617" lon="31.0149459">
<ele>67.050003</ele>
<time>2026-08-31T21:01:18.000Z</time>
</trkpt>
<trkpt lat="59.5599929" lon="31.0167983">
<ele>60.200001</ele>
<time>2026-08-31T21:01:26.000Z</time>
</trkpt>
<trkpt lat="59.5610776" lon="31.0197450">
<ele>49.689999</ele>
<time>2026-08-31T21:01:38.000Z</time>
</trkpt>
<trkpt lat="59.5611337" lon="31.0199782">
<ele>49.220001</ele>
<time>2026-08-31T21:01:39.000Z</time>
</trkpt>
<trkpt lat="59.5613157" lon="31.0213459">
<ele>45.349998</ele>
<time>2026-08-31T21:01:46.000Z</time>
</trkpt>
<trkpt lat="59.5614949" lon="31.0228908">
<ele>41.480000</ele>
<time>2026-08-31T21:01:55.000Z</time>
</trkpt>
<trkpt lat="59.5618355" lon="31.0255254">
<ele>42.220001</ele>
<time>2026-08-31T21:02:04.000Z</time>
</trkpt>
<trkpt lat="59.5624485" lon="31.0304939">
<ele>39.169998</ele>
<time>2026-08-31T21:02:18.000Z</time>
</trkpt>
<trkpt lat="59.5628510" lon="31.0336792">
<ele>41.469997</ele>
<time>2026-08-31T21:02:27.000Z</time>
</trkpt>
<trkpt lat="59.5629780" lon="31.0346236">
<ele>43.889999</ele>
<time>2026-08-31T21:02:33.000Z</time>
</trkpt>
<trkpt lat="59.5631456" lon="31.0359438">
<ele>42.399998</ele>
<time>2026-08-31T21:02:41.000Z</time>
</trkpt>
<trkpt lat="59.5634755" lon="31.0385254">
<ele>42.650002</ele>
<time>2026-08-31T21:02:50.000Z</time>
</trkpt>
<trkpt lat="59.5639991" lon="31.0425750">
<ele>45.219997</ele>
<time>2026-08-31T21:03:01.000Z</time>
</trkpt>
<trkpt lat="59.5647802" lon="31.0489593">
<ele>40.380001</ele>
<time>2026-08-31T21:03:17.000Z</time>
</trkpt>
<trkpt lat="59.5654730" lon="31.0544424">
<ele>43.950001</ele>
<time>2026-08-31T21:03:31.000Z</time>
</trkpt>
<trkpt lat="59.5658786" lon="31.0578030">
<ele>45.809998</ele>
<time>2026-08-31T21:03:41.000Z</time>
</trkpt>
<trkpt lat="59.5661333" lon="31.0598750">
<ele>48.150002</ele>
<time>2026-08-31T21:03:49.000Z</time>
</trkpt>
<trkpt lat="59.5662907" lon="31.0610524">
<ele>48.610001</ele>
<time>2026-08-31T21:03:57.000Z</time>
</trkpt>
<trkpt lat="59.5666019" lon="31.0635398">
<ele>49.150002</ele>
<time>2026-08-31T21:04:07.000Z</time>
</trkpt>
<trkpt lat="59.5670518" lon="31.0672265">
<ele>48.370003</ele>
<time>2026-08-31T21:04:20.000Z</time>
</trkpt>
<trkpt lat="59.5675799" lon="31.0714686">
<ele>48.619999</ele>
<time>2026-08-31T21:04:33.000Z</time>
</trkpt>
<trkpt lat="59.5683177" lon="31.0773526">
<ele>51.660000</ele>
<time>2026-08-31T21:04:50.000Z</time>
</trkpt>
<trkpt lat="59.5687761" lon="31.0809994">
<ele>54.739998</ele>
<time>2026-08-31T21:05:00.000Z</time>
</trkpt>
<trkpt lat="59.5689348" lon="31.0821992">
<ele>55.509998</ele>
<time>2026-08-31T21:05:06.000Z</time>
</trkpt>
<trkpt lat="59.5688983" lon="31.0823760">
<ele>54.139999</ele>
<time>2026-08-31T21:05:12.000Z</time>
</trkpt>
<trkpt lat="59.5685984" lon="31.0825345">
<ele>53.100002</ele>
<time>2026-08-31T21:05:25.000Z</time>
</trkpt>
<trkpt lat="59.5683173" lon="31.0826816">
<ele>53.160000</ele>
<time>2026-08-31T21:05:37.000Z</time>
</trkpt>
<trkpt lat="59.5680175" lon="31.0829297">
<ele>52.889999</ele>
<time>2026-08-31T21:05:51.000Z</time>
</trkpt>
<trkpt lat="59.5677085" lon="31.0832009">
<ele>52.520000</ele>
<time>2026-08-31T21:06:03.000Z</time>
</trkpt>
<trkpt lat="59.5674794" lon="31.0835899">
<ele>52.869999</ele>
<time>2026-08-31T21:06:15.000Z</time>
</trkpt>
<trkpt lat="59.5672648" lon="31.0839843">
<ele>52.850002</ele>
<time>2026-08-31T21:06:29.000Z</time>
</trkpt>
<trkpt lat="59.5670110" lon="31.0845269">
<ele>52.149998</ele>
<time>2026-08-31T21:06:42.000Z</time>
</trkpt>
<trkpt lat="59.5669334" lon="31.0846929">
<ele>51.139999</ele>
<time>2026-08-31T21:06:55.000Z</time>
</trkpt>
<trkpt lat="59.5668563" lon="31.0846613">
<ele>50.829998</ele>
<time>2026-08-31T21:07:21.000Z</time>
</trkpt>
<trkpt lat="59.5668831" lon="31.0847239">
<ele>52.309998</ele>
<time>2026-08-31T21:07:51.000Z</time>
</trkpt>
<trkpt lat="59.5669347" lon="31.0846825">
<ele>52.680000</ele>
<time>2026-08-31T21:08:21.000Z</time>
</trkpt>
<trkpt lat="59.5669023" lon="31.0847824">
<ele>51.560001</ele>
<time>2026-08-31T21:08:42.000Z</time>
</trkpt>
<trkpt lat="59.5667448" lon="31.0851829">
<ele>50.299999</ele>
<time>2026-08-31T21:08:55.000Z</time>
</trkpt>
<trkpt lat="59.5665699" lon="31.0856475">
<ele>45.509998</ele>
<time>2026-08-31T21:09:08.000Z</time>
</trkpt>
<trkpt lat="59.5663385" lon="31.0861951">
<ele>42.389999</ele>
<time>2026-08-31T21:09:17.000Z</time>
</trkpt>
<trkpt lat="59.5661976" lon="31.0870427">
<ele>39.290001</ele>
<time>2026-08-31T21:09:29.000Z</time>
</trkpt>
<trkpt lat="59.5661962" lon="31.0871124">
<ele>39.329998</ele>
<time>2026-08-31T21:09:30.000Z</time>
</trkpt>
<trkpt lat="59.5661495" lon="31.0877824">
<ele>37.959999</ele>
<time>2026-08-31T21:09:37.000Z</time>
</trkpt>
<trkpt lat="59.5659931" lon="31.0885763">
<ele>39.279999</ele>
<time>2026-08-31T21:09:44.000Z</time>
</trkpt>
<trkpt lat="59.5659142" lon="31.0888725">
<ele>37.959999</ele>
<time>2026-08-31T21:09:47.000Z</time>
</trkpt>
<trkpt lat="59.5656411" lon="31.0895358">
<ele>35.750000</ele>
<time>2026-08-31T21:09:58.000Z</time>
</trkpt>
<trkpt lat="59.5653574" lon="31.0901526">
<ele>31.650002</ele>
<time>2026-08-31T21:10:09.000Z</time>
</trkpt>
<trkpt lat="59.5650948" lon="31.0907028">
<ele>27.240000</ele>
<time>2026-08-31T21:10:20.000Z</time>
</trkpt>
<trkpt lat="59.5649720" lon="31.0909533">
<ele>26.200001</ele>
<time>2026-08-31T21:10:25.000Z</time>
</trkpt>
<trkpt lat="59.5647718" lon="31.0912826">
<ele>23.829998</ele>
<time>2026-08-31T21:10:32.000Z</time>
</trkpt>
<trkpt lat="59.5645923" lon="31.0917158">
<ele>17.450001</ele>
<time>2026-08-31T21:10:44.000Z</time>
</trkpt>
<trkpt lat="59.5642636" lon="31.0923252">
<ele>11.680000</ele>
<time>2026-08-31T21:10:57.000Z</time>
</trkpt>
<trkpt lat="59.5641262" lon="31.0926890">
<ele>8.840000</ele>
<time>2026-08-31T21:11:04.000Z</time>
</trkpt>
<trkpt lat="59.5640737" lon="31.0928038">
<ele>12.270000</ele>
<time>2026-08-31T21:11:12.000Z</time>
</trkpt>
<trkpt lat="59.5639619" lon="31.0932269">
<ele>16.400000</ele>
<time>2026-08-31T21:11:22.000Z</time>
</trkpt>
<trkpt lat="59.5637554" lon="31.0937336">
<ele>17.980000</ele>
<time>2026-08-31T21:11:33.000Z</time>
</trkpt>
<trkpt lat="59.5636594" lon="31.0939418">
<ele>17.840000</ele>
<time>2026-08-31T21:11:37.000Z</time>
</trkpt>
<trkpt lat="59.5633553" lon="31.0946557">
<ele>15.920000</ele>
<time>2026-08-31T21:11:48.000Z</time>
</trkpt>
<trkpt lat="59.5632403" lon="31.0948492">
<ele>14.480000</ele>
<time>2026-08-31T21:11:52.000Z</time>
</trkpt>
<trkpt lat="59.5628023" lon="31.0952177">
<ele>10.670000</ele>
<time>2026-08-31T21:12:00.000Z</time>
</trkpt>
<trkpt lat="59.5623224" lon="31.0957283">
<ele>12.320001</ele>
<time>2026-08-31T21:12:12.000Z</time>
</trkpt>
<trkpt lat="59.5621814" lon="31.0962154">
<ele>13.280000</ele>
<time>2026-08-31T21:12:22.000Z</time>
</trkpt>
<trkpt lat="59.5621797" lon="31.0969608">
<ele>19.240000</ele>
<time>2026-08-31T21:12:33.000Z</time>
</trkpt>
<trkpt lat="59.5620331" lon="31.0975684">
<ele>24.300001</ele>
<time>2026-08-31T21:12:45.000Z</time>
</trkpt>
<trkpt lat="59.5618894" lon="31.0978600">
<ele>26.050001</ele>
<time>2026-08-31T21:12:50.000Z</time>
</trkpt>
<trkpt lat="59.5618207" lon="31.0979835">
<ele>26.320000</ele>
<time>2026-08-31T21:12:52.000Z</time>
</trkpt>
<trkpt lat="59.5613891" lon="31.0984920">
<ele>31.259998</ele>
<time>2026-08-31T21:13:05.000Z</time>
</trkpt>
<trkpt lat="59.5611518" lon="31.0987858">
<ele>32.220001</ele>
<time>2026-08-31T21:13:15.000Z</time>
</trkpt>
<trkpt lat="59.5610909" lon="31.0988498">
<ele>32.080002</ele>
<time>2026-08-31T21:13:17.000Z</time>
</trkpt>
<trkpt lat="59.5606881" lon="31.0994164">
<ele>32.919998</ele>
<time>2026-08-31T21:13:29.000Z</time>
</trkpt>
<trkpt lat="59.5605370" lon="31.0996566">
<ele>32.480000</ele>
<time>2026-08-31T21:13:38.000Z</time>
</trkpt>
<trkpt lat="59.5603179" lon="31.1000766">
<ele>31.160000</ele>
<time>2026-08-31T21:13:50.000Z</time>
</trkpt>
<trkpt lat="59.5601434" lon="31.1004385">
<ele>30.820000</ele>
<time>2026-08-31T21:13:57.000Z</time>
</trkpt>
<trkpt lat="59.5595696" lon="31.1009416">
<ele>28.539999</ele>
<time>2026-08-31T21:14:10.000Z</time>
</trkpt>
<trkpt lat="59.5590962" lon="31.1012147">
<ele>23.280001</ele>
<time>2026-08-31T21:14:25.000Z</time>
</trkpt>
<trkpt lat="59.5587678" lon="31.1013640">
<ele>20.209999</ele>
<time>2026-08-31T21:14:36.000Z</time>
</trkpt>
<trkpt lat="59.5582771" lon="31.1016533">
<ele>20.750000</ele>
<time>2026-08-31T21:14:49.000Z</time>
</trkpt>
<trkpt lat="59.5579124" lon="31.1020474">
<ele>21.609999</ele>
<time>2026-08-31T21:15:01.000Z</time>
</trkpt>
<trkpt lat="59.5577408" lon="31.1023745">
<ele>21.999998</ele>
<time>2026-08-31T21:15:12.000Z</time>
</trkpt>
<trkpt lat="59.5575608" lon="31.1027460">
<ele>21.290001</ele>
<time>2026-08-31T21:15:25.000Z</time>
</trkpt>
<trkpt lat="59.5573705" lon="31.1030777">
<ele>21.219999</ele>
<time>2026-08-31T21:15:37.000Z</time>
</trkpt>
<trkpt lat="59.5571674" lon="31.1033313">
<ele>21.970001</ele>
<time>2026-08-31T21:15:50.000Z</time>
</trkpt>
<trkpt lat="59.5570821" lon="31.1033984">
<ele>22.920000</ele>
<time>2026-08-31T21:16:02.000Z</time>
</trkpt>
<trkpt lat="59.5570061" lon="31.1034642">
<ele>26.100000</ele>
<time>2026-08-31T21:16:27.000Z</time>
</trkpt>
<trkpt lat="59.5567263" lon="31.1036959">
<ele>26.350000</ele>
<time>2026-08-31T21:16:44.000Z</time>
</trkpt>
<trkpt lat="59.5562568" lon="31.1039890">
<ele>24.940001</ele>
<time>2026-08-31T21:16:58.000Z</time>
</trkpt>
<trkpt lat="59.5556164" lon="31.1044762">
<ele>26.700001</ele>
<time>2026-08-31T21:17:14.000Z</time>
</trkpt>
<trkpt lat="59.5552420" lon="31.1047937">
<ele>26.709999</ele>
<time>2026-08-31T21:17:25.000Z</time>
</trkpt>
<trkpt lat="59.5548668" lon="31.1050690">
<ele>28.850000</ele>
<time>2026-08-31T21:17:36.000Z</time>
</trkpt>
<trkpt lat="59.5545395" lon="31.1056662">
<ele>33.259998</ele>
<time>2026-08-31T21:17:51.000Z</time>
</trkpt>
<trkpt lat="59.5543939" lon="31.1059038">
<ele>33.119999</ele>
<time>2026-08-31T21:17:58.000Z</time>
</trkpt>
<trkpt lat="59.5543163" lon="31.1059947">
<ele>35.040001</ele>
<time>2026-08-31T21:18:10.000Z</time>
</trkpt>
<trkpt lat="59.5541637" lon="31.1062757">
<ele>37.130001</ele>
<time>2026-08-31T21:18:28.000Z</time>
</trkpt>
<trkpt lat="59.5539759" lon="31.1065870">
<ele>37.290001</ele>
<time>2026-08-31T21:18:43.000Z</time>
</trkpt>
<trkpt lat="59.5536888" lon="31.1071477">
<ele>38.110001</ele>
<time>2026-08-31T21:18:57.000Z</time>
</trkpt>
<trkpt lat="59.5532705" lon="31.1080279">
<ele>44.599998</ele>
<time>2026-08-31T21:19:13.000Z</time>
</trkpt>
<trkpt lat="59.5529996" lon="31.1086234">
<ele>45.390003</ele>
<time>2026-08-31T21:19:22.000Z</time>
</trkpt>
<trkpt lat="59.5528601" lon="31.1088667">
<ele>44.799999</ele>
<time>2026-08-31T21:19:26.000Z</time>
</trkpt>
<trkpt lat="59.5527693" lon="31.1090371">
<ele>43.840000</ele>
<time>2026-08-31T21:19:29.000Z</time>
</trkpt>
<trkpt lat="59.5524865" lon="31.1098577">
<ele>42.340000</ele>
<time>2026-08-31T21:19:43.000Z</time>
</trkpt>
<trkpt lat="59.5523415" lon="31.1106430">
<ele>46.930000</ele>
<time>2026-08-31T21:19:56.000Z</time>
</trkpt>
<trkpt lat="59.5522280" lon="31.1113428">
<ele>45.610001</ele>
<time>2026-08-31T21:20:09.000Z</time>
</trkpt>
<trkpt lat="59.5521969" lon="31.1115197">
<ele>46.059998</ele>
<time>2026-08-31T21:20:12.000Z</time>
</trkpt>
<trkpt lat="59.5521774" lon="31.1116682">
<ele>46.349998</ele>
<time>2026-08-31T21:20:16.000Z</time>
</trkpt>
<trkpt lat="59.5520502" lon="31.1123083">
<ele>45.840000</ele>
<time>2026-08-31T21:20:25.000Z</time>
</trkpt>
<trkpt lat="59.5518817" lon="31.1127944">
<ele>42.529999</ele>
<time>2026-08-31T21:20:36.000Z</time>
</trkpt>
<trkpt lat="59.5517041" lon="31.1131620">
<ele>39.189999</ele>
<time>2026-08-31T21:20:48.000Z</time>
</trkpt>
<trkpt lat="59.5514256" lon="31.1137691">
<ele>35.590000</ele>
<time>2026-08-31T21:21:00.000Z</time>
</trkpt>
<trkpt lat="59.5512440" lon="31.1141424">
<ele>32.270000</ele>
<time>2026-08-31T21:21:12.000Z</time>
</trkpt>
<trkpt lat="59.5510972" lon="31.1145621">
<ele>30.890001</ele>
<time>2026-08-31T21:21:25.000Z</time>
</trkpt>
<trkpt lat="59.5509450" lon="31.1148454">
<ele>28.510000</ele>
<time>2026-08-31T21:21:38.000Z</time>
</trkpt>
<trkpt lat="59.5508551" lon="31.1152134">
<ele>27.020000</ele>
<time>2026-08-31T21:21:54.000Z</time>
</trkpt>
<trkpt lat="59.5507492" lon="31.1155161">
<ele>25.500000</ele>
<time>2026-08-31T21:22:06.000Z</time>
</trkpt>
<trkpt lat="59.5506606" lon="31.1158421">
<ele>23.519999</ele>
<time>2026-08-31T21:22:17.000Z</time>
</trkpt>
<trkpt lat="59.5505995" lon="31.1161087">
<ele>22.639999</ele>
<time>2026-08-31T21:22:27.000Z</time>
</trkpt>
<trkpt lat="59.5505598" lon="31.1162907">
<ele>21.890001</ele>
<time>2026-08-31T21:22:35.000Z</time>
</trkpt>
<trkpt lat="59.5505040" lon="31.1165525">
<ele>22.180000</ele>
<time>2026-08-31T21:22:44.000Z</time>
</trkpt>
<trkpt lat="59.5504918" lon="31.1166058">
<ele>22.580000</ele>
<time>2026-08-31T21:22:47.000Z</time>
</trkpt>
<trkpt lat="59.5503838" lon="31.1168633">
<ele>23.200001</ele>
<time>2026-08-31T21:22:58.000Z</time>
</trkpt>
<trkpt lat="59.5503055" lon="31.1171104">
<ele>24.920000</ele>
<time>2026-08-31T21:23:10.000Z</time>
</trkpt>
<trkpt lat="59.5502550" lon="31.1173247">
<ele>28.370001</ele>
<time>2026-08-31T21:23:22.000Z</time>
</trkpt>
<trkpt lat="59.5502527" lon="31.1174220">
<ele>35.290001</ele>
<time>2026-08-31T21:23:48.000Z</time>
</trkpt>
<trkpt lat="59.5502532" lon="31.1174534">
<ele>36.000000</ele>
<time>2026-08-31T21:24:18.000Z</time>
</trkpt>
<trkpt lat="59.5502754" lon="31.1174415">
<ele>38.639999</ele>
<time>2026-08-31T21:24:47.000Z</time>
</trkpt>
<trkpt lat="59.5502253" lon="31.1174711">
<ele>39.370003</ele>
<time>2026-08-31T21:25:22.000Z</time>
</trkpt>
<trkpt lat="59.5502828" lon="31.1173553">
<ele>38.320000</ele>
<time>2026-08-31T21:25:53.000Z</time>
</trkpt>
<trkpt lat="59.5503158" lon="31.1173233">
<ele>41.489998</ele>
<time>2026-08-31T21:26:21.000Z</time>
</trkpt>
<trkpt lat="59.5503051" lon="31.1173532">
<ele>41.169998</ele>
<time>2026-08-31T21:26:49.000Z</time>
</trkpt>
<trkpt lat="59.5502831" lon="31.1174089">
<ele>40.499996</ele>
<time>2026-08-31T21:27:14.000Z</time>
</trkpt>
<trkpt lat="59.5502842" lon="31.1173699">
<ele>42.019997</ele>
<time>2026-08-31T21:27:35.000Z</time>
</trkpt>
<trkpt lat="59.5503174" lon="31.1172689">
<ele>42.740002</ele>
<time>2026-08-31T21:27:50.000Z</time>
</trkpt>
<trkpt lat="59.5503350" lon="31.1171806">
<ele>43.599998</ele>
<time>2026-08-31T21:28:01.000Z</time>
</trkpt>
<trkpt lat="59.5503756" lon="31.1170208">
<ele>44.180000</ele>
<time>2026-08-31T21:28:13.000Z</time>
</trkpt>
<trkpt lat="59.5503827" lon="31.1169918">
<ele>44.240002</ele>
<time>2026-08-31T21:28:15.000Z</time>
</trkpt>
<trkpt lat="59.5504285" lon="31.1167641">
<ele>44.959999</ele>
<time>2026-08-31T21:28:30.000Z</time>
</trkpt>
<trkpt lat="59.5504585" lon="31.1166150">
<ele>46.119999</ele>
<time>2026-08-31T21:28:51.000Z</time>
</trkpt>
<trkpt lat="59.5504280" lon="31.1167187">
<ele>46.639999</ele>
<time>2026-08-31T21:29:11.000Z</time>
</trkpt>
<trkpt lat="59.5504376" lon="31.1167429">
<ele>46.709999</ele>
<time>2026-08-31T21:29:33.000Z</time>
</trkpt>
<trkpt lat="59.5504624" lon="31.1166581">
<ele>47.269997</ele>
<time>2026-08-31T21:29:54.000Z</time>
</trkpt>
<trkpt lat="59.5504866" lon="31.1165986">
<ele>47.690002</ele>
<time>2026-08-31T21:30:09.000Z</time>
</trkpt>
<trkpt lat="59.5505258" lon="31.1164426">
<ele>47.879997</ele>
<time>2026-08-31T21:30:22.000Z</time>
</trkpt>
<trkpt lat="59.5505665" lon="31.1162966">
<ele>48.430000</ele>
<time>2026-08-31T21:30:34.000Z</time>
</trkpt>
<trkpt lat="59.5505987" lon="31.1162025">
<ele>49.160000</ele>
<time>2026-08-31T21:30:47.000Z</time>
</trkpt>
<trkpt lat="59.5506276" lon="31.1160541">
<ele>48.900002</ele>
<time>2026-08-31T21:30:59.000Z</time>
</trkpt>
<trkpt lat="59.5506781" lon="31.1158524">
<ele>48.879997</ele>
<time>2026-08-31T21:31:14.000Z</time>
</trkpt>
<trkpt lat="59.5507309" lon="31.1156864">
<ele>48.810001</ele>
<time>2026-08-31T21:31:30.000Z</time>
</trkpt>
<trkpt lat="59.5507924" lon="31.1154573">
<ele>48.740002</ele>
<time>2026-08-31T21:31:43.000Z</time>
</trkpt>
<trkpt lat="59.5508302" lon="31.1153285">
<ele>48.570000</ele>
<time>2026-08-31T21:31:53.000Z</time>
</trkpt>
<trkpt lat="59.5508868" lon="31.1151138">
<ele>48.299999</ele>
<time>2026-08-31T21:32:09.000Z</time>
</trkpt>
<trkpt lat="59.5509401" lon="31.1149904">
<ele>48.139999</ele>
<time>2026-08-31T21:32:17.000Z</time>
</trkpt>
<trkpt lat="59.5510133" lon="31.1148164">
<ele>48.250000</ele>
<time>2026-08-31T21:32:29.000Z</time>
</trkpt>
<trkpt lat="59.5510902" lon="31.1146410">
<ele>47.980003</ele>
<time>2026-08-31T21:32:39.000Z</time>
</trkpt>
<trkpt lat="59.5511802" lon="31.1143968">
<ele>46.920002</ele>
<time>2026-08-31T21:32:57.000Z</time>
</trkpt>
<trkpt lat="59.5512478" lon="31.1141629">
<ele>46.250000</ele>
<time>2026-08-31T21:33:18.000Z</time>
</trkpt>
<trkpt lat="59.5513649" lon="31.1139298">
<ele>45.490002</ele>
<time>2026-08-31T21:33:38.000Z</time>
</trkpt>
<trkpt lat="59.5514246" lon="31.1137866">
<ele>45.439999</ele>
<time>2026-08-31T21:33:52.000Z</time>
</trkpt>
<trkpt lat="59.5514867" lon="31.1136012">
<ele>45.959999</ele>
<time>2026-08-31T21:34:11.000Z</time>
</trkpt>
<trkpt lat="59.5515402" lon="31.1134420">
<ele>46.279999</ele>
<time>2026-08-31T21:34:29.000Z</time>
</trkpt>
<trkpt lat="59.5515115" lon="31.1134289">
<ele>45.599998</ele>
<time>2026-08-31T21:34:37.000Z</time>
</trkpt>
<trkpt lat="59.5514106" lon="31.1134883">
<ele>44.770000</ele>
<time>2026-08-31T21:34:47.000Z</time>
</trkpt>
<trkpt lat="59.5514261" lon="31.1134657">
<ele>45.040001</ele>
<time>2026-08-31T21:35:14.000Z</time>
</trkpt>
<trkpt lat="59.5514789" lon="31.1134218">
<ele>45.040001</ele>
<time>2026-08-31T21:35:27.000Z</time>
</trkpt>
<trkpt lat="59.5514735" lon="31.1134161">
<ele>44.700001</ele>
<time>2026-08-31T21:35:47.000Z</time>
</trkpt>
<trkpt lat="59.5514507" lon="31.1134367">
<ele>45.650002</ele>
<time>2026-08-31T21:36:07.000Z</time>
</trkpt>
<trkpt lat="59.5514463" lon="31.1133786">
<ele>44.689999</ele>
<time>2026-08-31T21:36:29.000Z</time>
</trkpt>
<trkpt lat="59.5513731" lon="31.1133771">
<ele>43.630001</ele>
<time>2026-08-31T21:36:54.000Z</time>
</trkpt>
<trkpt lat="59.5514366" lon="31.1133757">
<ele>40.080002</ele>
<time>2026-08-31T21:37:19.000Z</time>
</trkpt>
<trkpt lat="59.5514442" lon="31.1133128">
<ele>38.869999</ele>
<time>2026-08-31T21:37:53.000Z</time>
</trkpt>
<trkpt lat="59.5514429" lon="31.1133529">
<ele>38.049999</ele>
<time>2026-08-31T21:38:20.000Z</time>
</trkpt>
<trkpt lat="59.5514808" lon="31.1132992">
<ele>37.740002</ele>
<time>2026-08-31T21:38:38.000Z</time>
</trkpt>
<trkpt lat="59.5514800" lon="31.1133439">
<ele>37.049999</ele>
<time>2026-08-31T21:38:59.000Z</time>
</trkpt>
<trkpt lat="59.5514779" lon="31.1133571">
<ele>38.130001</ele>
<time>2026-08-31T21:39:27.000Z</time>
</trkpt>
<trkpt lat="59.5515190" lon="31.1134310">
<ele>40.860001</ele>
<time>2026-08-31T21:39:58.000Z</time>
</trkpt>
<trkpt lat="59.5513888" lon="31.1137233">
<ele>40.540001</ele>
<time>2026-08-31T21:40:18.000Z</time>
</trkpt>
<trkpt lat="59.5512282" lon="31.1141396">
<ele>37.740002</ele>
<time>2026-08-31T21:40:37.000Z</time>
</trkpt>
<trkpt lat="59.5511786" lon="31.1142415">
<ele>37.809998</ele>
<time>2026-08-31T21:40:43.000Z</time>
</trkpt>
<trkpt lat="59.5511489" lon="31.1143509">
<ele>37.670002</ele>
<time>2026-08-31T21:40:48.000Z</time>
</trkpt>
<trkpt lat="59.5510959" lon="31.1144732">
<ele>37.459999</ele>
<time>2026-08-31T21:40:55.000Z</time>
</trkpt>
<trkpt lat="59.5510220" lon="31.1146286">
<ele>37.959999</ele>
<time>2026-08-31T21:41:04.000Z</time>
</trkpt>
<trkpt lat="59.5509870" lon="31.1146822">
<ele>37.500000</ele>
<time>2026-08-31T21:41:08.000Z</time>
</trkpt>
<trkpt lat="59.5508845" lon="31.1149889">
<ele>37.529999</ele>
<time>2026-08-31T21:41:21.000Z</time>
</trkpt>
<trkpt lat="59.5508580" lon="31.1150813">
<ele>37.619999</ele>
<time>2026-08-31T21:41:25.000Z</time>
</trkpt>
<trkpt lat="59.5507552" lon="31.1154280">
<ele>36.270000</ele>
<time>2026-08-31T21:41:41.000Z</time>
</trkpt>
<trkpt lat="59.5506795" lon="31.1157110">
<ele>35.010002</ele>
<time>2026-08-31T21:41:53.000Z</time>
</trkpt>
<trkpt lat="59.5505736" lon="31.1159992">
<ele>32.930000</ele>
<time>2026-08-31T21:42:07.000Z</time>
</trkpt>
<trkpt lat="59.5505617" lon="31.1160858">
<ele>32.480000</ele>
<time>2026-08-31T21:42:11.000Z</time>
</trkpt>
<trkpt lat="59.5505276" lon="31.1162583">
<ele>32.420002</ele>
<time>2026-08-31T21:42:26.000Z</time>
</trkpt>
<trkpt lat="59.5505958" lon="31.1162378">
<ele>33.029999</ele>
<time>2026-08-31T21:43:02.000Z</time>
</trkpt>
<trkpt lat="59.5505905" lon="31.1163460">
<ele>33.290001</ele>
<time>2026-08-31T21:43:30.000Z</time>
</trkpt>
<trkpt lat="59.5506147" lon="31.1163354">
<ele>30.879999</ele>
<time>2026-08-31T21:44:05.000Z</time>
</trkpt>
<trkpt lat="59.5505164" lon="31.1166182">
<ele>31.310001</ele>
<time>2026-08-31T21:44:26.000Z</time>
</trkpt>
<trkpt lat="59.5503336" lon="31.1170510">
<ele>31.559999</ele>
<time>2026-08-31T21:44:46.000Z</time>
</trkpt>
<trkpt lat="59.5503316" lon="31.1170766">
<ele>31.530001</ele>
<time>2026-08-31T21:44:47.000Z</time>
</trkpt>
<trkpt lat="59.5503134" lon="31.1172001">
<ele>31.439999</ele>
<time>2026-08-31T21:44:52.000Z</time>
</trkpt>
<trkpt lat="59.5502807" lon="31.1173970">
<ele>31.200001</ele>
<time>2026-08-31T21:45:00.000Z</time>
</trkpt>
<trkpt lat="59.5501810" lon="31.1177655">
<ele>28.690001</ele>
<time>2026-08-31T21:45:17.000Z</time>
</trkpt>
<trkpt lat="59.5500606" lon="31.1182836">
<ele>27.599998</ele>
<time>2026-08-31T21:45:39.000Z</time>
</trkpt>
<trkpt lat="59.5499846" lon="31.1185173">
<ele>26.160002</ele>
<time>2026-08-31T21:45:50.000Z</time>
</trkpt>
<trkpt lat="59.5499168" lon="31.1189664">
<ele>25.190001</ele>
<time>2026-08-31T21:46:10.000Z</time>
</trkpt>
<trkpt lat="59.5498910" lon="31.1191492">
<ele>24.910000</ele>
<time>2026-08-31T21:46:16.000Z</time>
</trkpt>
<trkpt lat="59.5498193" lon="31.1194766">
<ele>23.960001</ele>
<time>2026-08-31T21:46:29.000Z</time>
</trkpt>
<trkpt lat="59.5497802" lon="31.1197379">
<ele>24.400000</ele>
<time>2026-08-31T21:46:39.000Z</time>
</trkpt>
<trkpt lat="59.5497300" lon="31.1200255">
<ele>26.590000</ele>
<time>2026-08-31T21:46:52.000Z</time>
</trkpt>
<trkpt lat="59.5497021" lon="31.1201710">
<ele>27.540001</ele>
<time>2026-08-31T21:46:58.000Z</time>
</trkpt>
<trkpt lat="59.5496584" lon="31.1205023">
<ele>28.309999</ele>
<time>2026-08-31T21:47:12.000Z</time>
</trkpt>
<trkpt lat="59.5495833" lon="31.1209126">
<ele>27.259998</ele>
<time>2026-08-31T21:47:30.000Z</time>
</trkpt>
<trkpt lat="59.5495235" lon="31.1213064">
<ele>27.029999</ele>
<time>2026-08-31T21:47:51.000Z</time>
</trkpt>
<trkpt lat="59.5494421" lon="31.1217955">
<ele>26.680000</ele>
<time>2026-08-31T21:48:12.000Z</time>
</trkpt>
<trkpt lat="59.5494251" lon="31.1220999">
<ele>29.860001</ele>
<time>2026-08-31T21:48:22.000Z</time>
</trkpt>
<trkpt lat="59.5494848" lon="31.1223047">
<ele>34.079998</ele>
<time>2026-08-31T21:48:31.000Z</time>
</trkpt>
<trkpt lat="59.5496290" lon="31.1226427">
<ele>42.099998</ele>
<time>2026-08-31T21:48:47.000Z</time>
</trkpt>
<trkpt lat="59.5496534" lon="31.1228396">
<ele>43.810001</ele>
<time>2026-08-31T21:48:55.000Z</time>
</trkpt>
<trkpt lat="59.5497328" lon="31.1229615">
<ele>47.400002</ele>
<time>2026-08-31T21:49:10.000Z</time>
</trkpt>
<trkpt lat="59.5497797" lon="31.1230622">
<ele>48.150002</ele>
<time>2026-08-31T21:49:28.000Z</time>
</trkpt>
<trkpt lat="59.5497886" lon="31.1230410">
<ele>47.869999</ele>
<time>2026-08-31T21:50:00.000Z</time>
</trkpt>
<trkpt lat="59.5496639" lon="31.1228529">
<ele>47.180000</ele>
<time>2026-08-31T21:50:15.000Z</time>
</trkpt>
<trkpt lat="59.5495860" lon="31.1229836">
<ele>48.470001</ele>
<time>2026-08-31T21:50:23.000Z</time>
</trkpt>
<trkpt lat="59.5494782" lon="31.1232967">
<ele>46.189999</ele>
<time>2026-08-31T21:50:39.000Z</time>
</trkpt>
<trkpt lat="59.5493452" lon="31.1235161">
<ele>42.619999</ele>
<time>2026-08-31T21:50:56.000Z</time>
</trkpt>
<trkpt lat="59.5493294" lon="31.1235528">
<ele>41.919998</ele>
<time>2026-08-31T21:50:58.000Z</time>
</trkpt>
<trkpt lat="59.5491123" lon="31.1237803">
<ele>34.549999</ele>
<time>2026-08-31T21:51:18.000Z</time>
</trkpt>
<trkpt lat="59.5488547" lon="31.1240843">
<ele>27.639999</ele>
<time>2026-08-31T21:51:40.000Z</time>
</trkpt>
<trkpt lat="59.5487729" lon="31.1242004">
<ele>27.869999</ele>
<time>2026-08-31T21:51:53.000Z</time>
</trkpt>
<trkpt lat="59.5487514" lon="31.1242885">
<ele>30.210001</ele>
<time>2026-08-31T21:51:59.000Z</time>
</trkpt>
<trkpt lat="59.5486463" lon="31.1246181">
<ele>29.370001</ele>
<time>2026-08-31T21:52:14.000Z</time>
</trkpt>
<trkpt lat="59.5486385" lon="31.1246308">
<ele>29.150000</ele>
<time>2026-08-31T21:52:15.000Z</time>
</trkpt>
<trkpt lat="59.5485601" lon="31.1248380">
<ele>23.939999</ele>
<time>2026-08-31T21:52:29.000Z</time>
</trkpt>
<trkpt lat="59.5484558" lon="31.1250815">
<ele>17.170000</ele>
<time>2026-08-31T21:52:44.000Z</time>
</trkpt>
<trkpt lat="59.5483417" lon="31.1252817">
<ele>9.490000</ele>
<time>2026-08-31T21:52:58.000Z</time>
</trkpt>
<trkpt lat="59.5482419" lon="31.1255363">
<ele>4.240000</ele>
<time>2026-08-31T21:53:12.000Z</time>
</trkpt>
<trkpt lat="59.5480524" lon="31.1258382">
<ele>5.330000</ele>
<time>2026-08-31T21:53:26.000Z</time>
</trkpt>
<trkpt lat="59.5479462" lon="31.1259406">
<ele>7.290000</ele>
<time>2026-08-31T21:53:33.000Z</time>
</trkpt>
<trkpt lat="59.5478394" lon="31.1262241">
<ele>9.900001</ele>
<time>2026-08-31T21:53:46.000Z</time>
</trkpt>
<trkpt lat="59.5477486" lon="31.1264511">
<ele>8.059999</ele>
<time>2026-08-31T21:54:01.000Z</time>
</trkpt>
<trkpt lat="59.5476420" lon="31.1269037">
<ele>0.950000</ele>
<time>2026-08-31T21:54:25.000Z</time>
</trkpt>
<trkpt lat="59.5476378" lon="31.1274199">
<ele>-5.740000</ele>
<time>2026-08-31T21:54:49.000Z</time>
</trkpt>
<trkpt lat="59.5475525" lon="31.1277659">
<ele>-9.470000</ele>
<time>2026-08-31T21:55:11.000Z</time>
</trkpt>
<trkpt lat="59.5474716" lon="31.1281181">
<ele>-11.810000</ele>
<time>2026-08-31T21:55:24.000Z</time>
</trkpt>
<trkpt lat="59.5473925" lon="31.1286682">
<ele>-13.660000</ele>
<time>2026-08-31T21:55:45.000Z</time>
</trkpt>
<trkpt lat="59.5473450" lon="31.1292863">
<ele>-14.160000</ele>
<time>2026-08-31T21:56:07.000Z</time>
</trkpt>
<trkpt lat="59.5472341" lon="31.1297643">
<ele>-6.810000</ele>
<time>2026-08-31T21:56:26.000Z</time>
</trkpt>
<trkpt lat="59.5471602" lon="31.1299626">
<ele>-3.310000</ele>
<time>2026-08-31T21:56:39.000Z</time>
</trkpt>
<trkpt lat="59.5470425" lon="31.1302867">
<ele>-0.610000</ele>
<time>2026-08-31T21:56:54.000Z</time>
</trkpt>
<trkpt lat="59.5469677" lon="31.1305065">
<ele>1.050000</ele>
<time>2026-08-31T21:57:01.000Z</time>
</trkpt>
<trkpt lat="59.5469299" lon="31.1306527">
<ele>3.090000</ele>
<time>2026-08-31T21:57:07.000Z</time>
</trkpt>
<trkpt lat="59.5468318" lon="31.1310289">
<ele>8.050000</ele>
<time>2026-08-31T21:57:22.000Z</time>
</trkpt>
<trkpt lat="59.5467935" lon="31.1311621">
<ele>9.830000</ele>
<time>2026-08-31T21:57:27.000Z</time>
</trkpt>
<trkpt lat="59.5468074" lon="31.1314770">
<ele>15.250001</ele>
<time>2026-08-31T21:57:45.000Z</time>
</trkpt>
<trkpt lat="59.5467650" lon="31.1317742">
<ele>20.660000</ele>
<time>2026-08-31T21:58:03.000Z</time>
</trkpt>
<trkpt lat="59.5467018" lon="31.1320757">
<ele>20.950001</ele>
<time>2026-08-31T21:58:18.000Z</time>
</trkpt>
<trkpt lat="59.5466272" lon="31.1323316">
<ele>20.300001</ele>
<time>2026-08-31T21:58:35.000Z</time>
</trkpt>
<trkpt lat="59.5464765" lon="31.1327592">
<ele>17.809999</ele>
<time>2026-08-31T21:58:55.000Z</time>
</trkpt>
<trkpt lat="59.5463854" lon="31.1329680">
<ele>13.510000</ele>
<time>2026-08-31T21:59:15.000Z</time>
</trkpt>
<trkpt lat="59.5463716" lon="31.1331361">
<ele>19.299999</ele>
<time>2026-08-31T21:59:43.000Z</time>
</trkpt>
<trkpt lat="59.5463143" lon="31.1332186">
<ele>22.360001</ele>
<time>2026-08-31T22:00:06.000Z</time>
</trkpt>
<trkpt lat="59.5463437" lon="31.1332720">
<ele>26.039999</ele>
<time>2026-08-31T22:00:30.000Z</time>
</trkpt>
<trkpt lat="59.5463614" lon="31.1332745">
<ele>28.160000</ele>
<time>2026-08-31T22:00:52.000Z</time>
</trkpt>
<trkpt lat="59.5463181" lon="31.1332895">
<ele>31.540001</ele>
<time>2026-08-31T22:01:10.000Z</time>
</trkpt>
<trkpt lat="59.5463254" lon="31.1333464">
<ele>32.570000</ele>
<time>2026-08-31T22:01:32.000Z</time>
</trkpt>
<trkpt lat="59.5462024" lon="31.1337282">
<ele>32.639999</ele>
<time>2026-08-31T22:01:49.000Z</time>
</trkpt>
<trkpt lat="59.5460644" lon="31.1340975">
<ele>30.419998</ele>
<time>2026-08-31T22:02:06.000Z</time>
</trkpt>
<trkpt lat="59.5460217" lon="31.1343145">
<ele>29.910000</ele>
<time>2026-08-31T22:02:26.000Z</time>
</trkpt>
<trkpt lat="59.5460319" lon="31.1345629">
<ele>28.290001</ele>
<time>2026-08-31T22:02:49.000Z</time>
</trkpt>
<trkpt lat="59.5461168" lon="31.1349082">
<ele>25.689999</ele>
<time>2026-08-31T22:03:09.000Z</time>
</trkpt>
<trkpt lat="59.5461201" lon="31.1349360">
<ele>25.600000</ele>
<time>2026-08-31T22:03:12.000Z</time>
</trkpt>
<trkpt lat="59.5461465" lon="31.1350305">
<ele>24.570000</ele>
<time>2026-08-31T22:03:37.000Z</time>
</trkpt>
<trkpt lat="59.5461626" lon="31.1351582">
<ele>25.260000</ele>
<time>2026-08-31T22:03:59.000Z</time>
</trkpt>
<trkpt lat="59.5461274" lon="31.1352723">
<ele>27.980000</ele>
<time>2026-08-31T22:04:24.000Z</time>
</trkpt>
<trkpt lat="59.5461477" lon="31.1353763">
<ele>30.590000</ele>
<time>2026-08-31T22:04:52.000Z</time>
</trkpt>
<trkpt lat="59.5461528" lon="31.1354423">
<ele>35.770000</ele>
<time>2026-08-31T22:05:17.000Z</time>
</trkpt>
<trkpt lat="59.5461596" lon="31.1354580">
<ele>40.450001</ele>
<time>2026-08-31T22:05:41.000Z</time>
</trkpt>
<trkpt lat="59.5462381" lon="31.1355454">
<ele>42.360001</ele>
<time>2026-08-31T22:06:01.000Z</time>
</trkpt>
<trkpt lat="59.5462500" lon="31.1356986">
<ele>43.710003</ele>
<time>2026-08-31T22:06:20.000Z</time>
</trkpt>
<trkpt lat="59.5462862" lon="31.1358110">
<ele>45.909996</ele>
<time>2026-08-31T22:06:42.000Z</time>
</trkpt>
<trkpt lat="59.5463564" lon="31.1359639">
<ele>47.540001</ele>
<time>2026-08-31T22:07:03.000Z</time>
</trkpt>
<trkpt lat="59.5464165" lon="31.1360829">
<ele>49.610001</ele>
<time>2026-08-31T22:07:24.000Z</time>
</trkpt>
<trkpt lat="59.5464056" lon="31.1361641">
<ele>49.350002</ele>
<time>2026-08-31T22:07:47.000Z</time>
</trkpt>
<trkpt lat="59.5464042" lon="31.1362031">
<ele>49.590000</ele>
<time>2026-08-31T22:08:20.000Z</time>
</trkpt>
<trkpt lat="59.5464029" lon="31.1362172">
<ele>49.540001</ele>
<time>2026-08-31T22:08:56.000Z</time>
</trkpt>
<trkpt lat="59.5464061" lon="31.1362121">
<ele>49.489998</ele>
<time>2026-08-31T22:09:11.000Z</time>
</trkpt>
<trkpt lat="59.5464243" lon="31.1362728">
<ele>48.200001</ele>
<time>2026-08-31T22:09:27.000Z</time>
</trkpt>
<trkpt lat="59.5464296" lon="31.1363257">
<ele>47.509998</ele>
<time>2026-08-31T22:09:45.000Z</time>
</trkpt>
<trkpt lat="59.5464607" lon="31.1363576">
<ele>47.520000</ele>
<time>2026-08-31T22:10:02.000Z</time>
</trkpt>
<trkpt lat="59.5465338" lon="31.1364736">
<ele>48.000000</ele>
<time>2026-08-31T22:10:20.000Z</time>
</trkpt>
<trkpt lat="59.5465557" lon="31.1365522">
<ele>47.740002</ele>
<time>2026-08-31T22:10:35.000Z</time>
</trkpt>
<trkpt lat="59.5466024" lon="31.1366880">
<ele>46.889999</ele>
<time>2026-08-31T22:10:56.000Z</time>
</trkpt>
<trkpt lat="59.5466725" lon="31.1368425">
<ele>45.560001</ele>
<time>2026-08-31T22:11:13.000Z</time>
</trkpt>
<trkpt lat="59.5467208" lon="31.1369921">
<ele>44.780003</ele>
<time>2026-08-31T22:11:30.000Z</time>
</trkpt>
<trkpt lat="59.5467518" lon="31.1371242">
<ele>45.509998</ele>
<time>2026-08-31T22:11:50.000Z</time>
</trkpt>
<trkpt lat="59.5468037" lon="31.1371871">
<ele>45.430000</ele>
<time>2026-08-31T22:12:12.000Z</time>
</trkpt>
<trkpt lat="59.5468954" lon="31.1373314">
<ele>44.599998</ele>
<time>2026-08-31T22:12:31.000Z</time>
</trkpt>
<trkpt lat="59.5469076" lon="31.1375297">
<ele>43.420002</ele>
<time>2026-08-31T22:12:51.000Z</time>
</trkpt>
<trkpt lat="59.5469431" lon="31.1376650">
<ele>43.049999</ele>
<time>2026-08-31T22:13:06.000Z</time>
</trkpt>
<trkpt lat="59.5469850" lon="31.1377257">
<ele>43.989998</ele>
<time>2026-08-31T22:13:29.000Z</time>
</trkpt>
<trkpt lat="59.5470116" lon="31.1379000">
<ele>43.110001</ele>
<time>2026-08-31T22:13:46.000Z</time>
</trkpt>
<trkpt lat="59.5470313" lon="31.1380315">
<ele>44.330002</ele>
<time>2026-08-31T22:14:08.000Z</time>
</trkpt>
<trkpt lat="59.5470841" lon="31.1382170">
<ele>43.509998</ele>
<time>2026-08-31T22:14:27.000Z</time>
</trkpt>
<trkpt lat="59.5470277" lon="31.1384339">
<ele>41.629997</ele>
<time>2026-08-31T22:14:48.000Z</time>
</trkpt>
<trkpt lat="59.5469873" lon="31.1385741">
<ele>41.580002</ele>
<time>2026-08-31T22:15:08.000Z</time>
</trkpt>
<trkpt lat="59.5469629" lon="31.1386426">
<ele>42.619999</ele>
<time>2026-08-31T22:15:29.000Z</time>
</trkpt>
<trkpt lat="59.5469464" lon="31.1387166">
<ele>43.790001</ele>
<time>2026-08-31T22:15:55.000Z</time>
</trkpt>
<trkpt lat="59.5469272" lon="31.1387010">
<ele>43.089996</ele>
<time>2026-08-31T22:16:29.000Z</time>
</trkpt>
<trkpt lat="59.5469226" lon="31.1387616">
<ele>47.860001</ele>
<time>2026-08-31T22:16:59.000Z</time>
</trkpt>
<trkpt lat="59.5469357" lon="31.1387649">
<ele>47.160000</ele>
<time>2026-08-31T22:17:30.000Z</time>
</trkpt>
<trkpt lat="59.5469677" lon="31.1386772">
<ele>46.939999</ele>
<time>2026-08-31T22:17:35.000Z</time>
</trkpt>
<trkpt lat="59.5469806" lon="31.1387995">
<ele>46.230000</ele>
<time>2026-08-31T22:17:51.000Z</time>
</trkpt>
<trkpt lat="59.5469891" lon="31.1388292">
<ele>48.760002</ele>
<time>2026-08-31T22:18:20.000Z</time>
</trkpt>
<trkpt lat="59.5470077" lon="31.1388020">
<ele>48.709999</ele>
<time>2026-08-31T22:18:25.000Z</time>
</trkpt>
<trkpt lat="59.5469807" lon="31.1386949">
<ele>51.750000</ele>
<time>2026-08-31T22:18:58.000Z</time>
</trkpt>
<trkpt lat="59.5470224" lon="31.1387285">
<ele>53.340000</ele>
<time>2026-08-31T22:19:27.000Z</time>
</trkpt>
<trkpt lat="59.5470187" lon="31.1387062">
<ele>54.720001</ele>
<time>2026-08-31T22:19:56.000Z</time>
</trkpt>
<trkpt lat="59.5470306" lon="31.1387260">
<ele>56.310001</ele>
<time>2026-08-31T22:20:28.000Z</time>
</trkpt>
<trkpt lat="59.5469758" lon="31.1387424">
<ele>56.879997</ele>
<time>2026-08-31T22:20:51.000Z</time>
</trkpt>
<trkpt lat="59.5469592" lon="31.1387687">
<ele>58.280003</ele>
<time>2026-08-31T22:21:17.000Z</time>
</trkpt>
<trkpt lat="59.5469872" lon="31.1388759">
<ele>57.859997</ele>
<time>2026-08-31T22:21:39.000Z</time>
</trkpt>
<trkpt lat="59.5469629" lon="31.1389915">
<ele>56.670002</ele>
<time>2026-08-31T22:22:01.000Z</time>
</trkpt>
<trkpt lat="59.5469209" lon="31.1390357">
<ele>55.920002</ele>
<time>2026-08-31T22:22:10.000Z</time>
</trkpt>
<trkpt lat="59.5467795" lon="31.1391274">
<ele>54.270000</ele>
<time>2026-08-31T22:22:27.000Z</time>
</trkpt>
<trkpt lat="59.5467550" lon="31.1392913">
<ele>52.660000</ele>
<time>2026-08-31T22:22:45.000Z</time>
</trkpt>
<trkpt lat="59.5467371" lon="31.1394702">
<ele>52.390003</ele>
<time>2026-08-31T22:23:08.000Z</time>
</trkpt>
<trkpt lat="59.5467233" lon="31.1395102">
<ele>52.240002</ele>
<time>2026-08-31T22:23:38.000Z</time>
</trkpt>
<trkpt lat="59.5467251" lon="31.1396457">
<ele>51.780003</ele>
<time>2026-08-31T22:23:55.000Z</time>
</trkpt>
<trkpt lat="59.5467355" lon="31.1397432">
<ele>51.139999</ele>
<time>2026-08-31T22:24:08.000Z</time>
</trkpt>
<trkpt lat="59.5467288" lon="31.1400090">
<ele>49.840000</ele>
<time>2026-08-31T22:24:27.000Z</time>
</trkpt>
<trkpt lat="59.5466971" lon="31.1402634">
<ele>49.619999</ele>
<time>2026-08-31T22:24:46.000Z</time>
</trkpt>
<trkpt lat="59.5466760" lon="31.1404365">
<ele>48.520000</ele>
<time>2026-08-31T22:25:04.000Z</time>
</trkpt>
<trkpt lat="59.5466624" lon="31.1405068">
<ele>47.980003</ele>
<time>2026-08-31T22:25:11.000Z</time>
</trkpt>
<trkpt lat="59.5465530" lon="31.1407861">
<ele>45.540001</ele>
<time>2026-08-31T22:25:33.000Z</time>
</trkpt>
<trkpt lat="59.5464791" lon="31.1410672">
<ele>40.610001</ele>
<time>2026-08-31T22:25:54.000Z</time>
</trkpt>
<trkpt lat="59.5463570" lon="31.1414439">
<ele>32.360001</ele>
<time>2026-08-31T22:26:15.000Z</time>
</trkpt>
<trkpt lat="59.5462330" lon="31.1417111">
<ele>29.199999</ele>
<time>2026-08-31T22:26:37.000Z</time>
</trkpt>
<trkpt lat="59.5460471" lon="31.1420237">
<ele>27.230001</ele>
<time>2026-08-31T22:27:00.000Z</time>
</trkpt>
<trkpt lat="59.5458792" lon="31.1423406">
<ele>25.420000</ele>
<time>2026-08-31T22:27:19.000Z</time>
</trkpt>
<trkpt lat="59.5457703" lon="31.1427453">
<ele>33.360001</ele>
<time>2026-08-31T22:27:34.000Z</time>
</trkpt>
<trkpt lat="59.5456606" lon="31.1428744">
<ele>26.299999</ele>
<time>2026-08-31T22:27:48.000Z</time>
</trkpt>
<trkpt lat="59.5455101" lon="31.1432236">
<ele>15.900001</ele>
<time>2026-08-31T22:28:10.000Z</time>
</trkpt>
<trkpt lat="59.5454114" lon="31.1436178">
<ele>16.550001</ele>
<time>2026-08-31T22:28:31.000Z</time>
</trkpt>
<trkpt lat="59.5452131" lon="31.1440874">
<ele>13.290000</ele>
<time>2026-08-31T22:28:57.000Z</time>
</trkpt>
<trkpt lat="59.5449962" lon="31.1446577">
<ele>14.640000</ele>
<time>2026-08-31T22:29:22.000Z</time>
</trkpt>
<trkpt lat="59.5448784" lon="31.1450702">
<ele>15.350000</ele>
<time>2026-08-31T22:29:44.000Z</time>
</trkpt>
<trkpt lat="59.5447510" lon="31.1453880">
<ele>11.900001</ele>
<time>2026-08-31T22:30:06.000Z</time>
</trkpt>
<trkpt lat="59.5446555" lon="31.1457903">
<ele>13.160000</ele>
<time>2026-08-31T22:30:19.000Z</time>
</trkpt>
<trkpt lat="59.5445728" lon="31.1460649">
<ele>21.379999</ele>
<time>2026-08-31T22:30:46.000Z</time>
</trkpt>
<trkpt lat="59.5443991" lon="31.1463174">
<ele>23.700001</ele>
<time>2026-08-31T22:31:10.000Z</time>
</trkpt>
<trkpt lat="59.5442831" lon="31.1467203">
<ele>29.719999</ele>
<time>2026-08-31T22:31:32.000Z</time>
</trkpt>
<trkpt lat="59.5442488" lon="31.1469505">
<ele>42.500000</ele>
<time>2026-08-31T22:31:49.000Z</time>
</trkpt>
<trkpt lat="59.5442554" lon="31.1470217">
<ele>48.949997</ele>
<time>2026-08-31T22:32:13.000Z</time>
</trkpt>
<trkpt lat="59.5441932" lon="31.1469303">
<ele>50.230000</ele>
<time>2026-08-31T22:32:27.000Z</time>
</trkpt>
<trkpt lat="59.5440938" lon="31.1470978">
<ele>49.740002</ele>
<time>2026-08-31T22:32:41.000Z</time>
</trkpt>
<trkpt lat="59.5440416" lon="31.1472778">
<ele>47.360001</ele>
<time>2026-08-31T22:32:54.000Z</time>
</trkpt>
<trkpt lat="59.5439181" lon="31.1476816">
<ele>41.980000</ele>
<time>2026-08-31T22:33:17.000Z</time>
</trkpt>
<trkpt lat="59.5438113" lon="31.1481532">
<ele>32.600002</ele>
<time>2026-08-31T22:33:41.000Z</time>
</trkpt>
<trkpt lat="59.5437655" lon="31.1484497">
<ele>28.090000</ele>
<time>2026-08-31T22:34:01.000Z</time>
</trkpt>
<trkpt lat="59.5436768" lon="31.1488083">
<ele>32.619999</ele>
<time>2026-08-31T22:34:14.000Z</time>
</trkpt>
<trkpt lat="59.5436072" lon="31.1491100">
<ele>33.630001</ele>
<time>2026-08-31T22:34:28.000Z</time>
</trkpt>
<trkpt lat="59.5435987" lon="31.1494746">
<ele>33.419998</ele>
<time>2026-08-31T22:34:45.000Z</time>
</trkpt>
<trkpt lat="59.5435829" lon="31.1495703">
<ele>39.930000</ele>
<time>2026-08-31T22:35:03.000Z</time>
</trkpt>
<trkpt lat="59.5435891" lon="31.1496136">
<ele>41.570004</ele>
<time>2026-08-31T22:35:17.000Z</time>
</trkpt>
<trkpt lat="59.5436161" lon="31.1496787">
<ele>42.720001</ele>
<time>2026-08-31T22:35:30.000Z</time>
</trkpt>
<trkpt lat="59.5436784" lon="31.1498053">
<ele>42.640003</ele>
<time>2026-08-31T22:35:49.000Z</time>
</trkpt>
<trkpt lat="59.5436048" lon="31.1499616">
<ele>42.849998</ele>
<time>2026-08-31T22:36:07.000Z</time>
</trkpt>
<trkpt lat="59.5435432" lon="31.1501672">
<ele>41.369999</ele>
<time>2026-08-31T22:36:21.000Z</time>
</trkpt>
<trkpt lat="59.5435303" lon="31.1503461">
<ele>42.929996</ele>
<time>2026-08-31T22:36:33.000Z</time>
</trkpt>
<trkpt lat="59.5435403" lon="31.1504264">
<ele>41.299999</ele>
<time>2026-08-31T22:36:50.000Z</time>
</trkpt>
<trkpt lat="59.5434876" lon="31.1505691">
<ele>40.189999</ele>
<time>2026-08-31T22:37:08.000Z</time>
</trkpt>
<trkpt lat="59.5434452" lon="31.1506479">
<ele>40.600002</ele>
<time>2026-08-31T22:37:22.000Z</time>
</trkpt>
<trkpt lat="59.5434212" lon="31.1506777">
<ele>42.570000</ele>
<time>2026-08-31T22:37:50.000Z</time>
</trkpt>
<trkpt lat="59.5434217" lon="31.1506649">
<ele>44.040001</ele>
<time>2026-08-31T22:38:24.000Z</time>
</trkpt>
<trkpt lat="59.5434337" lon="31.1506458">
<ele>43.640003</ele>
<time>2026-08-31T22:38:41.000Z</time>
</trkpt>
<trkpt lat="59.5434336" lon="31.1506572">
<ele>43.750000</ele>
<time>2026-08-31T22:39:11.000Z</time>
</trkpt>
<trkpt lat="59.5434394" lon="31.1506697">
<ele>42.450001</ele>
<time>2026-08-31T22:39:23.000Z</time>
</trkpt>
<trkpt lat="59.5434923" lon="31.1506806">
<ele>42.139999</ele>
<time>2026-08-31T22:39:49.000Z</time>
</trkpt>
<trkpt lat="59.5435343" lon="31.1507501">
<ele>43.309998</ele>
<time>2026-08-31T22:40:23.000Z</time>
</trkpt>
<trkpt lat="59.5435476" lon="31.1507483">
<ele>45.950001</ele>
<time>2026-08-31T22:40:46.000Z</time>
</trkpt>
<trkpt lat="59.5434694" lon="31.1507567">
<ele>48.389999</ele>
<time>2026-08-31T22:41:13.000Z</time>
</trkpt>
<trkpt lat="59.5434441" lon="31.1507599">
<ele>48.799999</ele>
<time>2026-08-31T22:41:33.000Z</time>
</trkpt>
<trkpt lat="59.5434300" lon="31.1507528">
<ele>48.310001</ele>
<time>2026-08-31T22:41:53.000Z</time>
</trkpt>
<trkpt lat="59.5434312" lon="31.1507574">
<ele>48.830002</ele>
<time>2026-08-31T22:42:09.000Z</time>
</trkpt>
<trkpt lat="59.5434340" lon="31.1507534">
<ele>48.990002</ele>
<time>2026-08-31T22:42:15.000Z</time>
</trkpt>
<trkpt lat="59.5434333" lon="31.1507503">
<ele>49.310001</ele>
<time>2026-08-31T22:42:22.000Z</time>
</trkpt>
<trkpt lat="59.5434113" lon="31.1506952">
<ele>47.779999</ele>
<time>2026-08-31T22:42:57.000Z</time>
</trkpt>
<trkpt lat="59.5434537" lon="31.1507858">
<ele>47.130001</ele>
<time>2026-08-31T22:43:13.000Z</time>
</trkpt>
<trkpt lat="59.5434672" lon="31.1508720">
<ele>47.830002</ele>
<time>2026-08-31T22:43:28.000Z</time>
</trkpt>
<trkpt lat="59.5435178" lon="31.1509683">
<ele>47.799999</ele>
<time>2026-08-31T22:43:44.000Z</time>
</trkpt>
<trkpt lat="59.5436197" lon="31.1510571">
<ele>44.730000</ele>
<time>2026-08-31T22:44:01.000Z</time>
</trkpt>
<trkpt lat="59.5436542" lon="31.1511449">
<ele>44.139999</ele>
<time>2026-08-31T22:44:17.000Z</time>
</trkpt>
<trkpt lat="59.5437077" lon="31.1512572">
<ele>45.160000</ele>
<time>2026-08-31T22:44:38.000Z</time>
</trkpt>
<trkpt lat="59.5437277" lon="31.1513237">
<ele>45.809998</ele>
<time>2026-08-31T22:44:55.000Z</time>
</trkpt>
<trkpt lat="59.5437673" lon="31.1515214">
<ele>46.310001</ele>
<time>2026-08-31T22:45:12.000Z</time>
</trkpt>
<trkpt lat="59.5438309" lon="31.1516497">
<ele>45.390003</ele>
<time>2026-08-31T22:45:29.000Z</time>
</trkpt>
<trkpt lat="59.5439061" lon="31.1517969">
<ele>43.910000</ele>
<time>2026-08-31T22:45:45.000Z</time>
</trkpt>
<trkpt lat="59.5439722" lon="31.1518779">
<ele>44.100002</ele>
<time>2026-08-31T22:46:01.000Z</time>
</trkpt>
<trkpt lat="59.5440263" lon="31.1519789">
<ele>43.049999</ele>
<time>2026-08-31T22:46:20.000Z</time>
</trkpt>
<trkpt lat="59.5440908" lon="31.1520862">
<ele>41.730003</ele>
<time>2026-08-31T22:46:37.000Z</time>
</trkpt>
<trkpt lat="59.5441352" lon="31.1522340">
<ele>40.810001</ele>
<time>2026-08-31T22:46:53.000Z</time>
</trkpt>
<trkpt lat="59.5441283" lon="31.1522671">
<ele>40.559998</ele>
<time>2026-08-31T22:46:57.000Z</time>
</trkpt>
<trkpt lat="59.5441528" lon="31.1524626">
<ele>43.369999</ele>
<time>2026-08-31T22:47:16.000Z</time>
</trkpt>
<trkpt lat="59.5441993" lon="31.1525623">
<ele>45.330002</ele>
<time>2026-08-31T22:47:36.000Z</time>
</trkpt>
<trkpt lat="59.5442998" lon="31.1526914">
<ele>43.130001</ele>
<time>2026-08-31T22:47:54.000Z</time>
</trkpt>
<trkpt lat="59.5443838" lon="31.1527557">
<ele>46.410000</ele>
<time>2026-08-31T22:48:17.000Z</time>
</trkpt>
<trkpt lat="59.5443791" lon="31.1528536">
<ele>48.419998</ele>
<time>2026-08-31T22:48:46.000Z</time>
</trkpt>
<trkpt lat="59.5443029" lon="31.1527694">
<ele>47.809998</ele>
<time>2026-08-31T22:49:31.000Z</time>
</trkpt>
<trkpt lat="59.5442983" lon="31.1528348">
<ele>47.029999</ele>
<time>2026-08-31T22:50:05.000Z</time>
</trkpt>
<trkpt lat="59.5443195" lon="31.1528614">
<ele>49.000000</ele>
<time>2026-08-31T22:50:36.000Z</time>
</trkpt>
<trkpt lat="59.5443475" lon="31.1528609">
<ele>52.540001</ele>
<time>2026-08-31T22:50:59.000Z</time>
</trkpt>
<trkpt lat="59.5444026" lon="31.1529823">
<ele>51.940002</ele>
<time>2026-08-31T22:51:16.000Z</time>
</trkpt>
<trkpt lat="59.5444952" lon="31.1532205">
<ele>49.280003</ele>
<time>2026-08-31T22:51:37.000Z</time>
</trkpt>
<trkpt lat="59.5445526" lon="31.1534459">
<ele>41.169998</ele>
<time>2026-08-31T22:51:54.000Z</time>
</trkpt>
<trkpt lat="59.5446277" lon="31.1536691">
<ele>36.739998</ele>
<time>2026-08-31T22:52:13.000Z</time>
</trkpt>
<trkpt lat="59.5447335" lon="31.1539398">
<ele>32.579998</ele>
<time>2026-08-31T22:52:33.000Z</time>
</trkpt>
<trkpt lat="59.5448607" lon="31.1540886">
<ele>34.310001</ele>
<time>2026-08-31T22:52:55.000Z</time>
</trkpt>
<trkpt lat="59.5449207" lon="31.1542004">
<ele>33.970001</ele>
<time>2026-08-31T22:53:06.000Z</time>
</trkpt>
<trkpt lat="59.5449481" lon="31.1543286">
<ele>34.000000</ele>
<time>2026-08-31T22:53:16.000Z</time>
</trkpt>
<trkpt lat="59.5451076" lon="31.1544986">
<ele>34.770000</ele>
<time>2026-08-31T22:53:34.000Z</time>
</trkpt>
<trkpt lat="59.5451256" lon="31.1545109">
<ele>35.840000</ele>
<time>2026-08-31T22:53:40.000Z</time>
</trkpt>
<trkpt lat="59.5451685" lon="31.1547380">
<ele>37.440002</ele>
<time>2026-08-31T22:54:01.000Z</time>
</trkpt>
<trkpt lat="59.5451928" lon="31.1548203">
<ele>36.969997</ele>
<time>2026-08-31T22:54:10.000Z</time>
</trkpt>
<trkpt lat="59.5451817" lon="31.1550003">
<ele>38.580002</ele>
<time>2026-08-31T22:54:36.000Z</time>
</trkpt>
<trkpt lat="59.5451919" lon="31.1549274">
<ele>40.320000</ele>
<time>2026-08-31T22:56:33.000Z</time>
</trkpt>
<trkpt lat="59.5451497" lon="31.1549914">
<ele>42.950001</ele>
<time>2026-08-31T22:56:58.000Z</time>
</trkpt>
<trkpt lat="59.5451376" lon="31.1549744">
<ele>43.209999</ele>
<time>2026-08-31T22:57:24.000Z</time>
</trkpt>
<trkpt lat="59.5451330" lon="31.1549776">
<ele>43.190002</ele>
<time>2026-08-31T22:57:53.000Z</time>
</trkpt>
<trkpt lat="59.5451788" lon="31.1550593">
<ele>44.820000</ele>
<time>2026-08-31T22:58:33.000Z</time>
</trkpt>
<trkpt lat="59.5451729" lon="31.1550584">
<ele>47.029999</ele>
<time>2026-08-31T22:59:04.000Z</time>
</trkpt>
<trkpt lat="59.5451407" lon="31.1551686">
<ele>47.910000</ele>
<time>2026-08-31T22:59:35.000Z</time>
</trkpt>
<trkpt lat="59.5450624" lon="31.1552226">
<ele>47.579998</ele>
<time>2026-08-31T23:00:07.000Z</time>
</trkpt>
<trkpt lat="59.5450858" lon="31.1551991">
<ele>48.689999</ele>
<time>2026-08-31T23:00:41.000Z</time>
</trkpt>
<trkpt lat="59.5451882" lon="31.1550657">
<ele>49.209999</ele>
<time>2026-08-31T23:01:18.000Z</time>
</trkpt>
<trkpt lat="59.5452255" lon="31.1551049">
<ele>51.110001</ele>
<time>2026-08-31T23:01:49.000Z</time>
</trkpt>
<trkpt lat="59.5452266" lon="31.1551146">
<ele>55.649998</ele>
<time>2026-08-31T23:02:16.000Z</time>
</trkpt>
<trkpt lat="59.5452885" lon="31.1551260">
<ele>55.400002</ele>
<time>2026-08-31T23:02:39.000Z</time>
</trkpt>
<trkpt lat="59.5454146" lon="31.1553804">
<ele>53.860001</ele>
<time>2026-08-31T23:02:59.000Z</time>
</trkpt>
<trkpt lat="59.5455332" lon="31.1555732">
<ele>51.340000</ele>
<time>2026-08-31T23:03:18.000Z</time>
</trkpt>
<trkpt lat="59.5456148" lon="31.1557136">
<ele>49.270000</ele>
<time>2026-08-31T23:03:35.000Z</time>
</trkpt>
<trkpt lat="59.5456234" lon="31.1557297">
<ele>49.650002</ele>
<time>2026-08-31T23:03:38.000Z</time>
</trkpt>
<trkpt lat="59.5456793" lon="31.1559479">
<ele>49.869999</ele>
<time>2026-08-31T23:04:01.000Z</time>
</trkpt>
<trkpt lat="59.5457338" lon="31.1560104">
<ele>51.000000</ele>
<time>2026-08-31T23:04:19.000Z</time>
</trkpt>
<trkpt lat="59.5458049" lon="31.1561472">
<ele>50.629997</ele>
<time>2026-08-31T23:04:35.000Z</time>
</trkpt>
<trkpt lat="59.5458968" lon="31.1563042">
<ele>49.090000</ele>
<time>2026-08-31T23:04:54.000Z</time>
</trkpt>
<trkpt lat="59.5460010" lon="31.1564384">
<ele>49.190002</ele>
<time>2026-08-31T23:05:17.000Z</time>
</trkpt>
<trkpt lat="59.5460601" lon="31.1566081">
<ele>49.200001</ele>
<time>2026-08-31T23:05:35.000Z</time>
</trkpt>
<trkpt lat="59.5461527" lon="31.1567750">
<ele>48.160000</ele>
<time>2026-08-31T23:05:54.000Z</time>
</trkpt>
<trkpt lat="59.5462032" lon="31.1568360">
<ele>48.070000</ele>
<time>2026-08-31T23:06:13.000Z</time>
</trkpt>
<trkpt lat="59.5462070" lon="31.1568691">
<ele>50.049999</ele>
<time>2026-08-31T23:06:37.000Z</time>
</trkpt>
<trkpt lat="59.5462634" lon="31.1569153">
<ele>52.780003</ele>
<time>2026-08-31T23:07:09.000Z</time>
</trkpt>
<trkpt lat="59.5462197" lon="31.1568682">
<ele>52.579998</ele>
<time>2026-08-31T23:07:52.000Z</time>
</trkpt>
<trkpt lat="59.5462154" lon="31.1568544">
<ele>51.970001</ele>
<time>2026-08-31T23:08:21.000Z</time>
</trkpt>
<trkpt lat="59.5461966" lon="31.1568796">
<ele>52.189999</ele>
<time>2026-08-31T23:08:28.000Z</time>
</trkpt>
<trkpt lat="59.5462182" lon="31.1569640">
<ele>55.889999</ele>
<time>2026-08-31T23:08:56.000Z</time>
</trkpt>
<trkpt lat="59.5462299" lon="31.1570177">
<ele>58.520000</ele>
<time>2026-08-31T23:09:22.000Z</time>
</trkpt>
<trkpt lat="59.5462796" lon="31.1571142">
<ele>58.299999</ele>
<time>2026-08-31T23:09:40.000Z</time>
</trkpt>
<trkpt lat="59.5463513" lon="31.1573356">
<ele>57.549999</ele>
<time>2026-08-31T23:10:03.000Z</time>
</trkpt>
<trkpt lat="59.5464421" lon="31.1574685">
<ele>56.200001</ele>
<time>2026-08-31T23:10:23.000Z</time>
</trkpt>
<trkpt lat="59.5465336" lon="31.1576229">
<ele>55.279999</ele>
<time>2026-08-31T23:10:43.000Z</time>
</trkpt>
<trkpt lat="59.5465534" lon="31.1577244">
<ele>55.020000</ele>
<time>2026-08-31T23:11:01.000Z</time>
</trkpt>
<trkpt lat="59.5465943" lon="31.1578400">
<ele>55.879997</ele>
<time>2026-08-31T23:11:22.000Z</time>
</trkpt>
<trkpt lat="59.5466616" lon="31.1579769">
<ele>55.860001</ele>
<time>2026-08-31T23:11:42.000Z</time>
</trkpt>
<trkpt lat="59.5467422" lon="31.1580693">
<ele>54.990002</ele>
<time>2026-08-31T23:12:01.000Z</time>
</trkpt>
<trkpt lat="59.5468003" lon="31.1580972">
<ele>55.389999</ele>
<time>2026-08-31T23:12:18.000Z</time>
</trkpt>
<trkpt lat="59.5468173" lon="31.1581220">
<ele>54.830002</ele>
<time>2026-08-31T23:12:50.000Z</time>
</trkpt>
<trkpt lat="59.5468194" lon="31.1580937">
<ele>54.830002</ele>
<time>2026-08-31T23:13:29.000Z</time>
</trkpt>
<trkpt lat="59.5467752" lon="31.1580522">
<ele>54.300003</ele>
<time>2026-08-31T23:14:01.000Z</time>
</trkpt>
<trkpt lat="59.5468234" lon="31.1579804">
<ele>53.529999</ele>
<time>2026-08-31T23:15:11.000Z</time>
</trkpt>
<trkpt lat="59.5468239" lon="31.1581293">
<ele>52.810001</ele>
<time>2026-08-31T23:15:36.000Z</time>
</trkpt>
<trkpt lat="59.5468352" lon="31.1581300">
<ele>53.349998</ele>
<time>2026-08-31T23:16:15.000Z</time>
</trkpt>
<trkpt lat="59.5468253" lon="31.1581562">
<ele>53.110001</ele>
<time>2026-08-31T23:16:18.000Z</time>
</trkpt>
<trkpt lat="59.5466912" lon="31.1582941">
<ele>51.669998</ele>
<time>2026-08-31T23:16:36.000Z</time>
</trkpt>
<trkpt lat="59.5466077" lon="31.1584289">
<ele>50.120003</ele>
<time>2026-08-31T23:16:56.000Z</time>
</trkpt>
<trkpt lat="59.5465887" lon="31.1584271">
<ele>50.950001</ele>
<time>2026-08-31T23:17:15.000Z</time>
</trkpt>
<trkpt lat="59.5466013" lon="31.1585081">
<ele>51.230000</ele>
<time>2026-08-31T23:17:34.000Z</time>
</trkpt>
<trkpt lat="59.5466293" lon="31.1586304">
<ele>51.369999</ele>
<time>2026-08-31T23:17:54.000Z</time>
</trkpt>
<trkpt lat="59.5466185" lon="31.1585813">
<ele>51.040001</ele>
<time>2026-08-31T23:18:19.000Z</time>
</trkpt>
<trkpt lat="59.5466157" lon="31.1585783">
<ele>50.940002</ele>
<time>2026-08-31T23:18:24.000Z</time>
</trkpt>
<trkpt lat="59.5465448" lon="31.1585758">
<ele>52.730000</ele>
<time>2026-08-31T23:18:51.000Z</time>
</trkpt>
<trkpt lat="59.5464839" lon="31.1585581">
<ele>52.509998</ele>
<time>2026-08-31T23:19:11.000Z</time>
</trkpt>
<trkpt lat="59.5464146" lon="31.1585439">
<ele>52.669998</ele>
<time>2026-08-31T23:19:30.000Z</time>
</trkpt>
<trkpt lat="59.5463183" lon="31.1586688">
<ele>51.290001</ele>
<time>2026-08-31T23:19:47.000Z</time>
</trkpt>
<trkpt lat="59.5462594" lon="31.1588033">
<ele>51.170002</ele>
<time>2026-08-31T23:20:03.000Z</time>
</trkpt>
<trkpt lat="59.5461570" lon="31.1588482">
<ele>49.230000</ele>
<time>2026-08-31T23:20:21.000Z</time>
</trkpt>
<trkpt lat="59.5460865" lon="31.1589043">
<ele>49.480000</ele>
<time>2026-08-31T23:20:41.000Z</time>
</trkpt>
<trkpt lat="59.5460957" lon="31.1589767">
<ele>50.929996</ele>
<time>2026-08-31T23:21:10.000Z</time>
</trkpt>
<trkpt lat="59.5460281" lon="31.1590540">
<ele>51.110001</ele>
<time>2026-08-31T23:22:05.000Z</time>
</trkpt>
<trkpt lat="59.5460867" lon="31.1590524">
<ele>51.820000</ele>
<time>2026-08-31T23:22:37.000Z</time>
</trkpt>
<trkpt lat="59.5460817" lon="31.1591216">
<ele>52.669998</ele>
<time>2026-08-31T23:22:52.000Z</time>
</trkpt>
<trkpt lat="59.5460134" lon="31.1589809">
<ele>55.020000</ele>
<time>2026-08-31T23:23:18.000Z</time>
</trkpt>
<trkpt lat="59.5460146" lon="31.1589283">
<ele>56.660004</ele>
<time>2026-08-31T23:23:38.000Z</time>
</trkpt>
<trkpt lat="59.5459601" lon="31.1590585">
<ele>56.399998</ele>
<time>2026-08-31T23:23:58.000Z</time>
</trkpt>
<trkpt lat="59.5458756" lon="31.1592288">
<ele>54.500000</ele>
<time>2026-08-31T23:24:15.000Z</time>
</trkpt>
<trkpt lat="59.5457786" lon="31.1593303">
<ele>52.940002</ele>
<time>2026-08-31T23:24:31.000Z</time>
</trkpt>
<trkpt lat="59.5457003" lon="31.1593427">
<ele>52.180000</ele>
<time>2026-08-31T23:24:48.000Z</time>
</trkpt>
<trkpt lat="59.5456101" lon="31.1593969">
<ele>51.750000</ele>
<time>2026-08-31T23:25:05.000Z</time>
</trkpt>
<trkpt lat="59.5455472" lon="31.1594332">
<ele>51.539997</ele>
<time>2026-08-31T23:25:21.000Z</time>
</trkpt>
<trkpt lat="59.5455050" lon="31.1594862">
<ele>52.880001</ele>
<time>2026-08-31T23:25:41.000Z</time>
</trkpt>
<trkpt lat="59.5454472" lon="31.1595077">
<ele>53.669998</ele>
<time>2026-08-31T23:26:08.000Z</time>
</trkpt>
<trkpt lat="59.5454252" lon="31.1594583">
<ele>53.380001</ele>
<time>2026-08-31T23:26:28.000Z</time>
</trkpt>
<trkpt lat="59.5454356" lon="31.1594732">
<ele>53.780003</ele>
<time>2026-08-31T23:26:54.000Z</time>
</trkpt>
<trkpt lat="59.5453745" lon="31.1596706">
<ele>54.139999</ele>
<time>2026-08-31T23:27:38.000Z</time>
</trkpt>
<trkpt lat="59.5453254" lon="31.1596267">
<ele>53.070000</ele>
<time>2026-08-31T23:28:31.000Z</time>
</trkpt>
<trkpt lat="59.5453978" lon="31.1594842">
<ele>55.090000</ele>
<time>2026-08-31T23:28:47.000Z</time>
</trkpt>
<trkpt lat="59.5453565" lon="31.1594800">
<ele>52.209999</ele>
<time>2026-08-31T23:28:58.000Z</time>
</trkpt>
<trkpt lat="59.5453839" lon="31.1594991">
<ele>53.760002</ele>
<time>2026-08-31T23:29:25.000Z</time>
</trkpt>
<trkpt lat="59.5454052" lon="31.1594457">
<ele>54.500000</ele>
<time>2026-08-31T23:29:50.000Z</time>
</trkpt>
<trkpt lat="59.5453672" lon="31.1592445">
<ele>54.080002</ele>
<time>2026-08-31T23:30:08.000Z</time>
</trkpt>
<trkpt lat="59.5452882" lon="31.1590759">
<ele>52.509998</ele>
<time>2026-08-31T23:30:27.000Z</time>
</trkpt>
<trkpt lat="59.5452247" lon="31.1589216">
<ele>53.360001</ele>
<time>2026-08-31T23:30:49.000Z</time>
</trkpt>
<trkpt lat="59.5451340" lon="31.1588310">
<ele>53.349998</ele>
<time>2026-08-31T23:31:09.000Z</time>
</trkpt>
<trkpt lat="59.5450585" lon="31.1588095">
<ele>54.279999</ele>
<time>2026-08-31T23:31:33.000Z</time>
</trkpt>
<trkpt lat="59.5449886" lon="31.1587526">
<ele>55.099998</ele>
<time>2026-08-31T23:31:50.000Z</time>
</trkpt>
<trkpt lat="59.5449304" lon="31.1586258">
<ele>55.889999</ele>
<time>2026-08-31T23:32:06.000Z</time>
</trkpt>
<trkpt lat="59.5448450" lon="31.1584902">
<ele>55.199997</ele>
<time>2026-08-31T23:32:25.000Z</time>
</trkpt>
<trkpt lat="59.5448212" lon="31.1583775">
<ele>54.939999</ele>
<time>2026-08-31T23:32:41.000Z</time>
</trkpt>
<trkpt lat="59.5447387" lon="31.1584104">
<ele>55.129997</ele>
<time>2026-08-31T23:33:02.000Z</time>
</trkpt>
<trkpt lat="59.5446696" lon="31.1582092">
<ele>55.329998</ele>
<time>2026-08-31T23:33:21.000Z</time>
</trkpt>
<trkpt lat="59.5445790" lon="31.1579828">
<ele>56.320000</ele>
<time>2026-08-31T23:33:43.000Z</time>
</trkpt>
<trkpt lat="59.5444541" lon="31.1577348">
<ele>55.709999</ele>
<time>2026-08-31T23:34:06.000Z</time>
</trkpt>
<trkpt lat="59.5444062" lon="31.1575618">
<ele>55.709999</ele>
<time>2026-08-31T23:34:27.000Z</time>
</trkpt>
<trkpt lat="59.5444147" lon="31.1574725">
<ele>55.000000</ele>
<time>2026-08-31T23:34:46.000Z</time>
</trkpt>
<trkpt lat="59.5443761" lon="31.1574547">
<ele>54.630001</ele>
<time>2026-08-31T23:35:14.000Z</time>
</trkpt>
<trkpt lat="59.5443922" lon="31.1574202">
<ele>53.209999</ele>
<time>2026-08-31T23:36:29.000Z</time>
</trkpt>
<trkpt lat="59.5444296" lon="31.1574386">
<ele>51.889999</ele>
<time>2026-08-31T23:37:12.000Z</time>
</trkpt>
<trkpt lat="59.5443644" lon="31.1573727">
<ele>51.160000</ele>
<time>2026-08-31T23:38:15.000Z</time>
</trkpt>
<trkpt lat="59.5443959" lon="31.1573981">
<ele>52.279999</ele>
<time>2026-08-31T23:38:45.000Z</time>
</trkpt>
<trkpt lat="59.5443166" lon="31.1573686">
<ele>52.360001</ele>
<time>2026-08-31T23:39:21.000Z</time>
</trkpt>
<trkpt lat="59.5442605" lon="31.1572344">
<ele>52.090000</ele>
<time>2026-08-31T23:39:37.000Z</time>
</trkpt>
<trkpt lat="59.5441653" lon="31.1570203">
<ele>51.130001</ele>
<time>2026-08-31T23:40:03.000Z</time>
</trkpt>
<trkpt lat="59.5440817" lon="31.1568468">
<ele>50.750000</ele>
<time>2026-08-31T23:40:23.000Z</time>
</trkpt>
<trkpt lat="59.5440182" lon="31.1566299">
<ele>50.560001</ele>
<time>2026-08-31T23:40:45.000Z</time>
</trkpt>
<trkpt lat="59.5438881" lon="31.1565001">
<ele>49.910000</ele>
<time>2026-08-31T23:41:07.000Z</time>
</trkpt>
<trkpt lat="59.5438133" lon="31.1562922">
<ele>49.820000</ele>
<time>2026-08-31T23:41:32.000Z</time>
</trkpt>
<trkpt lat="59.5438046" lon="31.1562701">
<ele>49.740002</ele>
<time>2026-08-31T23:41:34.000Z</time>
</trkpt>
<trkpt lat="59.5437077" lon="31.1561785">
<ele>49.000000</ele>
<time>2026-08-31T23:41:51.000Z</time>
</trkpt>
<trkpt lat="59.5436500" lon="31.1559901">
<ele>48.510002</ele>
<time>2026-08-31T23:42:14.000Z</time>
</trkpt>
<trkpt lat="59.5435782" lon="31.1559052">
<ele>48.259998</ele>
<time>2026-08-31T23:42:37.000Z</time>
</trkpt>
<trkpt lat="59.5435053" lon="31.1557515">
<ele>46.419998</ele>
<time>2026-08-31T23:42:57.000Z</time>
</trkpt>
<trkpt lat="59.5434529" lon="31.1556201">
<ele>46.160000</ele>
<time>2026-08-31T23:43:15.000Z</time>
</trkpt>
<trkpt lat="59.5433919" lon="31.1555651">
<ele>47.450001</ele>
<time>2026-08-31T23:43:36.000Z</time>
</trkpt>
<trkpt lat="59.5433751" lon="31.1555269">
<ele>47.630001</ele>
<time>2026-08-31T23:43:56.000Z</time>
</trkpt>
<trkpt lat="59.5433376" lon="31.1553689">
<ele>46.349998</ele>
<time>2026-08-31T23:46:15.000Z</time>
</trkpt>
<trkpt lat="59.5433161" lon="31.1553534">
<ele>48.660004</ele>
<time>2026-08-31T23:46:45.000Z</time>
</trkpt>
<trkpt lat="59.5433145" lon="31.1553361">
<ele>52.260002</ele>
<time>2026-08-31T23:47:15.000Z</time>
</trkpt>
<trkpt lat="59.5433359" lon="31.1554010">
<ele>51.480003</ele>
<time>2026-08-31T23:47:44.000Z</time>
</trkpt>
<trkpt lat="59.5433088" lon="31.1554565">
<ele>51.230000</ele>
<time>2026-08-31T23:48:11.000Z</time>
</trkpt>
<trkpt lat="59.5433387" lon="31.1554612">
<ele>51.599998</ele>
<time>2026-08-31T23:48:38.000Z</time>
</trkpt>
<trkpt lat="59.5433353" lon="31.1553846">
<ele>51.469997</ele>
<time>2026-08-31T23:49:00.000Z</time>
</trkpt>
<trkpt lat="59.5432793" lon="31.1552610">
<ele>51.980000</ele>
<time>2026-08-31T23:49:19.000Z</time>
</trkpt>
<trkpt lat="59.5431809" lon="31.1551047">
<ele>51.209999</ele>
<time>2026-08-31T23:49:36.000Z</time>
</trkpt>
<trkpt lat="59.5430699" lon="31.1549065">
<ele>50.340000</ele>
<time>2026-08-31T23:49:57.000Z</time>
</trkpt>
<trkpt lat="59.5429906" lon="31.1547258">
<ele>49.469997</ele>
<time>2026-08-31T23:50:18.000Z</time>
</trkpt>
<trkpt lat="59.5428865" lon="31.1544787">
<ele>46.209999</ele>
<time>2026-08-31T23:50:39.000Z</time>
</trkpt>
<trkpt lat="59.5428430" lon="31.1543796">
<ele>46.380001</ele>
<time>2026-08-31T23:51:01.000Z</time>
</trkpt>
<trkpt lat="59.5427974" lon="31.1542570">
<ele>46.920002</ele>
<time>2026-08-31T23:51:19.000Z</time>
</trkpt>
<trkpt lat="59.5426985" lon="31.1541152">
<ele>46.620003</ele>
<time>2026-08-31T23:51:37.000Z</time>
</trkpt>
<trkpt lat="59.5426583" lon="31.1540626">
<ele>48.590000</ele>
<time>2026-08-31T23:52:02.000Z</time>
</trkpt>
<trkpt lat="59.5426638" lon="31.1541158">
<ele>50.019997</ele>
<time>2026-08-31T23:52:26.000Z</time>
</trkpt>
<trkpt lat="59.5426535" lon="31.1540648">
<ele>49.209999</ele>
<time>2026-08-31T23:52:54.000Z</time>
</trkpt>
<trkpt lat="59.5426147" lon="31.1540440">
<ele>47.250000</ele>
<time>2026-08-31T23:53:22.000Z</time>
</trkpt>
<trkpt lat="59.5426021" lon="31.1539310">
<ele>46.990002</ele>
<time>2026-08-31T23:53:39.000Z</time>
</trkpt>
<trkpt lat="59.5425339" lon="31.1538846">
<ele>46.099998</ele>
<time>2026-08-31T23:53:57.000Z</time>
</trkpt>
<trkpt lat="59.5425360" lon="31.1538848">
<ele>45.700001</ele>
<time>2026-08-31T23:54:14.000Z</time>
</trkpt>
<trkpt lat="59.5425292" lon="31.1537789">
<ele>46.700001</ele>
<time>2026-08-31T23:54:40.000Z</time>
</trkpt>
<trkpt lat="59.5425223" lon="31.1537695">
<ele>47.140003</ele>
<time>2026-08-31T23:54:58.000Z</time>
</trkpt>
<trkpt lat="59.5425365" lon="31.1537542">
<ele>46.589996</ele>
<time>2026-08-31T23:55:24.000Z</time>
</trkpt>
<trkpt lat="59.5424705" lon="31.1537492">
<ele>46.720001</ele>
<time>2026-08-31T23:55:40.000Z</time>
</trkpt>
<trkpt lat="59.5424432" lon="31.1537386">
<ele>46.530003</ele>
<time>2026-08-31T23:55:58.000Z</time>
</trkpt>
<trkpt lat="59.5424187" lon="31.1536882">
<ele>46.250000</ele>
<time>2026-08-31T23:56:25.000Z</time>
</trkpt>
<trkpt lat="59.5423769" lon="31.1536425">
<ele>46.150002</ele>
<time>2026-08-31T23:56:57.000Z</time>
</trkpt>
<trkpt lat="59.5423959" lon="31.1537605">
<ele>46.140003</ele>
<time>2026-08-31T23:58:14.000Z</time>
</trkpt>
<trkpt lat="59.5424298" lon="31.1536060">
<ele>46.930000</ele>
<time>2026-08-31T23:59:15.000Z</time>
</trkpt>
<trkpt lat="59.5423970" lon="31.1536015">
<ele>46.930000</ele>
<time>2026-08-31T23:59:45.000Z</time>
</trkpt>
<trkpt lat="59.5423787" lon="31.1535601">
<ele>48.680000</ele>
<time>2026-09-01T00:00:15.000Z</time>
</trkpt>
<trkpt lat="59.5423989" lon="31.1536891">
<ele>48.520000</ele>
<time>2026-09-01T00:00:43.000Z</time>
</trkpt>
<trkpt lat="59.5424218" lon="31.1536646">
<ele>48.329998</ele>
<time>2026-09-01T00:01:08.000Z</time>
</trkpt>
<trkpt lat="59.5424232" lon="31.1536800">
<ele>48.310001</ele>
<time>2026-09-01T00:01:30.000Z</time>
</trkpt>
<trkpt lat="59.5424285" lon="31.1536891">
<ele>49.259998</ele>
<time>2026-09-01T00:01:56.000Z</time>
</trkpt>
<trkpt lat="59.5424200" lon="31.1537399">
<ele>48.200001</ele>
<time>2026-09-01T00:02:24.000Z</time>
</trkpt>
<trkpt lat="59.5424455" lon="31.1537130">
<ele>48.399998</ele>
<time>2026-09-01T00:02:46.000Z</time>
</trkpt>
<trkpt lat="59.5424479" lon="31.1536997">
<ele>52.860001</ele>
<time>2026-09-01T00:03:11.000Z</time>
</trkpt>
<trkpt lat="59.5424325" lon="31.1537295">
<ele>54.500000</ele>
<time>2026-09-01T00:03:31.000Z</time>
</trkpt>
<trkpt lat="59.5424265" lon="31.1538022">
<ele>54.760002</ele>
<time>2026-09-01T00:03:48.000Z</time>
</trkpt>
<trkpt lat="59.5423429" lon="31.1538906">
<ele>54.389999</ele>
<time>2026-09-01T00:04:06.000Z</time>
</trkpt>
<trkpt lat="59.5422816" lon="31.1539134">
<ele>52.940002</ele>
<time>2026-09-01T00:04:22.000Z</time>
</trkpt>
<trkpt lat="59.5422556" lon="31.1539921">
<ele>51.849998</ele>
<time>2026-09-01T00:04:34.000Z</time>
</trkpt>
<trkpt lat="59.5422146" lon="31.1540162">
<ele>51.490002</ele>
<time>2026-09-01T00:04:51.000Z</time>
</trkpt>
<trkpt lat="59.5421495" lon="31.1540498">
<ele>50.399998</ele>
<time>2026-09-01T00:05:03.000Z</time>
</trkpt>
<trkpt lat="59.5421334" lon="31.1541445">
<ele>48.600002</ele>
<time>2026-09-01T00:05:16.000Z</time>
</trkpt>
<trkpt lat="59.5421572" lon="31.1542962">
<ele>47.920002</ele>
<time>2026-09-01T00:05:33.000Z</time>
</trkpt>
<trkpt lat="59.5422076" lon="31.1544671">
<ele>47.930000</ele>
<time>2026-09-01T00:05:52.000Z</time>
</trkpt>
<trkpt lat="59.5422367" lon="31.1545605">
<ele>47.849998</ele>
<time>2026-09-01T00:06:08.000Z</time>
</trkpt>
<trkpt lat="59.5422485" lon="31.1547036">
<ele>47.370003</ele>
<time>2026-09-01T00:06:23.000Z</time>
</trkpt>
<trkpt lat="59.5422080" lon="31.1548134">
<ele>47.199997</ele>
<time>2026-09-01T00:06:44.000Z</time>
</trkpt>
<trkpt lat="59.5421242" lon="31.1548891">
<ele>46.860001</ele>
<time>2026-09-01T00:07:02.000Z</time>
</trkpt>
<trkpt lat="59.5420544" lon="31.1549523">
<ele>46.950001</ele>
<time>2026-09-01T00:07:20.000Z</time>
</trkpt>
<trkpt lat="59.5419755" lon="31.1550466">
<ele>47.169998</ele>
<time>2026-09-01T00:07:40.000Z</time>
</trkpt>
<trkpt lat="59.5419203" lon="31.1550957">
<ele>47.450001</ele>
<time>2026-09-01T00:07:58.000Z</time>
</trkpt>
<trkpt lat="59.5418589" lon="31.1550892">
<ele>47.939999</ele>
<time>2026-09-01T00:08:25.000Z</time>
</trkpt>
<trkpt lat="59.5418275" lon="31.1551410">
<ele>48.820000</ele>
<time>2026-09-01T00:08:45.000Z</time>
</trkpt>
<trkpt lat="59.5417933" lon="31.1552416">
<ele>49.380001</ele>
<time>2026-09-01T00:09:03.000Z</time>
</trkpt>
<trkpt lat="59.5417711" lon="31.1553541">
<ele>49.849998</ele>
<time>2026-09-01T00:09:22.000Z</time>
</trkpt>
<trkpt lat="59.5417388" lon="31.1554240">
<ele>50.309998</ele>
<time>2026-09-01T00:09:42.000Z</time>
</trkpt>
<trkpt lat="59.5416882" lon="31.1554648">
<ele>50.439999</ele>
<time>2026-09-01T00:09:51.000Z</time>
</trkpt>
<trkpt lat="59.5416091" lon="31.1553394">
<ele>50.230000</ele>
<time>2026-09-01T00:10:54.000Z</time>
</trkpt>
<trkpt lat="59.5416866" lon="31.1555393">
<ele>50.480000</ele>
<time>2026-09-01T00:12:54.000Z</time>
</trkpt>
<trkpt lat="59.5416779" lon="31.1555855">
<ele>50.490002</ele>
<time>2026-09-01T00:13:25.000Z</time>
</trkpt>
<trkpt lat="59.5417232" lon="31.1554780">
<ele>51.529999</ele>
<time>2026-09-01T00:13:55.000Z</time>
</trkpt>
<trkpt lat="59.5417554" lon="31.1554467">
<ele>50.929996</ele>
<time>2026-09-01T00:14:24.000Z</time>
</trkpt>
<trkpt lat="59.5418258" lon="31.1555505">
<ele>51.260002</ele>
<time>2026-09-01T00:15:06.000Z</time>
</trkpt>
<trkpt lat="59.5418447" lon="31.1555308">
<ele>52.529999</ele>
<time>2026-09-01T00:15:31.000Z</time>
</trkpt>
<trkpt lat="59.5417698" lon="31.1553904">
<ele>53.240002</ele>
<time>2026-09-01T00:16:08.000Z</time>
</trkpt>
<trkpt lat="59.5416705" lon="31.1555076">
<ele>52.869999</ele>
<time>2026-09-01T00:16:47.000Z</time>
</trkpt>
<trkpt lat="59.5416386" lon="31.1555484">
<ele>53.509998</ele>
<time>2026-09-01T00:17:17.000Z</time>
</trkpt>
<trkpt lat="59.5416780" lon="31.1555333">
<ele>53.639999</ele>
<time>2026-09-01T00:17:44.000Z</time>
</trkpt>
<trkpt lat="59.5415741" lon="31.1556531">
<ele>52.119999</ele>
<time>2026-09-01T00:18:28.000Z</time>
</trkpt>
<trkpt lat="59.5416815" lon="31.1555871">
<ele>53.139999</ele>
<time>2026-09-01T00:20:59.000Z</time>
</trkpt>
<trkpt lat="59.5416818" lon="31.1555026">
<ele>55.630001</ele>
<time>2026-09-01T00:21:23.000Z</time>
</trkpt>
<trkpt lat="59.5416468" lon="31.1554491">
<ele>56.840000</ele>
<time>2026-09-01T00:21:49.000Z</time>
</trkpt>
<trkpt lat="59.5416928" lon="31.1554675">
<ele>57.329998</ele>
<time>2026-09-01T00:22:07.000Z</time>
</trkpt>
<trkpt lat="59.5417604" lon="31.1555224">
<ele>58.689999</ele>
<time>2026-09-01T00:22:27.000Z</time>
</trkpt>
<trkpt lat="59.5417804" lon="31.1555089">
<ele>57.590000</ele>
<time>2026-09-01T00:22:57.000Z</time>
</trkpt>
<trkpt lat="59.5418037" lon="31.1555648">
<ele>57.919998</ele>
<time>2026-09-01T00:23:21.000Z</time>
</trkpt>
<trkpt lat="59.5418168" lon="31.1556443">
<ele>58.160000</ele>
<time>2026-09-01T00:23:38.000Z</time>
</trkpt>
<trkpt lat="59.5418897" lon="31.1557687">
<ele>59.219997</ele>
<time>2026-09-01T00:23:59.000Z</time>
</trkpt>
<trkpt lat="59.5419273" lon="31.1558366">
<ele>59.529999</ele>
<time>2026-09-01T00:24:17.000Z</time>
</trkpt>
<trkpt lat="59.5419039" lon="31.1559093">
<ele>60.040001</ele>
<time>2026-09-01T00:24:43.000Z</time>
</trkpt>
<trkpt lat="59.5418932" lon="31.1559564">
<ele>60.710003</ele>
<time>2026-09-01T00:25:10.000Z</time>
</trkpt>
<trkpt lat="59.5419247" lon="31.1559248">
<ele>63.649998</ele>
<time>2026-09-01T00:25:39.000Z</time>
</trkpt>
<trkpt lat="59.5419209" lon="31.1558498">
<ele>65.089996</ele>
<time>2026-09-01T00:25:58.000Z</time>
</trkpt>
<trkpt lat="59.5418794" lon="31.1560207">
<ele>68.260002</ele>
<time>2026-09-01T00:26:28.000Z</time>
</trkpt>
<trkpt lat="59.5418317" lon="31.1559696">
<ele>69.320000</ele>
<time>2026-09-01T00:26:57.000Z</time>
</trkpt>
<trkpt lat="59.5417821" lon="31.1559712">
<ele>70.180000</ele>
<time>2026-09-01T00:27:27.000Z</time>
</trkpt>
<trkpt lat="59.5418495" lon="31.1558892">
<ele>70.500000</ele>
<time>2026-09-01T00:27:55.000Z</time>
</trkpt>
<trkpt lat="59.5418758" lon="31.1558968">
<ele>69.369995</ele>
<time>2026-09-01T00:28:19.000Z</time>
</trkpt>
<trkpt lat="59.5418651" lon="31.1558823">
<ele>69.930000</ele>
<time>2026-09-01T00:28:45.000Z</time>
</trkpt>
<trkpt lat="59.5419391" lon="31.1559590">
<ele>68.419998</ele>
<time>2026-09-01T00:29:05.000Z</time>
</trkpt>
<trkpt lat="59.5420082" lon="31.1560446">
<ele>67.430000</ele>
<time>2026-09-01T00:29:22.000Z</time>
</trkpt>
<trkpt lat="59.5420811" lon="31.1561757">
<ele>67.400002</ele>
<time>2026-09-01T00:29:40.000Z</time>
</trkpt>
<trkpt lat="59.5421635" lon="31.1563148">
<ele>66.730003</ele>
<time>2026-09-01T00:30:03.000Z</time>
</trkpt>
<trkpt lat="59.5422126" lon="31.1563678">
<ele>66.320000</ele>
<time>2026-09-01T00:30:22.000Z</time>
</trkpt>
<trkpt lat="59.5422531" lon="31.1564833">
<ele>66.559998</ele>
<time>2026-09-01T00:30:40.000Z</time>
</trkpt>
<trkpt lat="59.5423087" lon="31.1565958">
<ele>65.849998</ele>
<time>2026-09-01T00:31:00.000Z</time>
</trkpt>
<trkpt lat="59.5424104" lon="31.1567775">
<ele>65.279999</ele>
<time>2026-09-01T00:31:19.000Z</time>
</trkpt>
<trkpt lat="59.5424454" lon="31.1569775">
<ele>64.200005</ele>
<time>2026-09-01T00:31:40.000Z</time>
</trkpt>
<trkpt lat="59.5425208" lon="31.1571733">
<ele>63.010002</ele>
<time>2026-09-01T00:32:02.000Z</time>
</trkpt>
<trkpt lat="59.5425938" lon="31.1573720">
<ele>61.509998</ele>
<time>2026-09-01T00:32:23.000Z</time>
</trkpt>
<trkpt lat="59.5426627" lon="31.1575273">
<ele>60.110001</ele>
<time>2026-09-01T00:32:44.000Z</time>
</trkpt>
<trkpt lat="59.5426659" lon="31.1576453">
<ele>61.100002</ele>
<time>2026-09-01T00:33:06.000Z</time>
</trkpt>
<trkpt lat="59.5427103" lon="31.1576690">
<ele>61.080002</ele>
<time>2026-09-01T00:33:39.000Z</time>
</trkpt>
<trkpt lat="59.5427783" lon="31.1575049">
<ele>59.660000</ele>
<time>2026-09-01T00:34:13.000Z</time>
</trkpt>
<trkpt lat="59.5428472" lon="31.1574501">
<ele>56.810001</ele>
<time>2026-09-01T00:34:45.000Z</time>
</trkpt>
<trkpt lat="59.5427869" lon="31.1575312">
<ele>57.320000</ele>
<time>2026-09-01T00:35:58.000Z</time>
</trkpt>
<trkpt lat="59.5427640" lon="31.1576182">
<ele>58.859997</ele>
<time>2026-09-01T00:36:07.000Z</time>
</trkpt>
<trkpt lat="59.5427406" lon="31.1575928">
<ele>60.930000</ele>
<time>2026-09-01T00:36:35.000Z</time>
</trkpt>
<trkpt lat="59.5427344" lon="31.1574685">
<ele>61.340000</ele>
<time>2026-09-01T00:37:08.000Z</time>
</trkpt>
<trkpt lat="59.5427378" lon="31.1576075">
<ele>61.709999</ele>
<time>2026-09-01T00:37:25.000Z</time>
</trkpt>
<trkpt lat="59.5427395" lon="31.1576182">
<ele>61.630001</ele>
<time>2026-09-01T00:37:26.000Z</time>
</trkpt>
<trkpt lat="59.5427724" lon="31.1578033">
<ele>60.430000</ele>
<time>2026-09-01T00:37:43.000Z</time>
</trkpt>
<trkpt lat="59.5428441" lon="31.1579207">
<ele>59.689999</ele>
<time>2026-09-01T00:38:06.000Z</time>
</trkpt>
<trkpt lat="59.5429426" lon="31.1580845">
<ele>59.119999</ele>
<time>2026-09-01T00:38:28.000Z</time>
</trkpt>
<trkpt lat="59.5430361" lon="31.1582747">
<ele>57.389999</ele>
<time>2026-09-01T00:38:48.000Z</time>
</trkpt>
<trkpt lat="59.5431168" lon="31.1584139">
<ele>56.980000</ele>
<time>2026-09-01T00:39:05.000Z</time>
</trkpt>
<trkpt lat="59.5432058" lon="31.1585943">
<ele>55.869999</ele>
<time>2026-09-01T00:39:25.000Z</time>
</trkpt>
<trkpt lat="59.5432870" lon="31.1587983">
<ele>56.039997</ele>
<time>2026-09-01T00:39:44.000Z</time>
</trkpt>
<trkpt lat="59.5433341" lon="31.1589665">
<ele>55.099998</ele>
<time>2026-09-01T00:40:06.000Z</time>
</trkpt>
<trkpt lat="59.5433816" lon="31.1589893">
<ele>55.220001</ele>
<time>2026-09-01T00:40:26.000Z</time>
</trkpt>
<trkpt lat="59.5434340" lon="31.1591047">
<ele>54.910004</ele>
<time>2026-09-01T00:40:40.000Z</time>
</trkpt>
<trkpt lat="59.5435202" lon="31.1592342">
<ele>55.000000</ele>
<time>2026-09-01T00:41:01.000Z</time>
</trkpt>
<trkpt lat="59.5435575" lon="31.1593655">
<ele>54.939999</ele>
<time>2026-09-01T00:41:20.000Z</time>
</trkpt>
<trkpt lat="59.5435710" lon="31.1595031">
<ele>54.840000</ele>
<time>2026-09-01T00:41:40.000Z</time>
</trkpt>
<trkpt lat="59.5436536" lon="31.1596386">
<ele>54.460003</ele>
<time>2026-09-01T00:41:58.000Z</time>
</trkpt>
<trkpt lat="59.5436797" lon="31.1597582">
<ele>54.160000</ele>
<time>2026-09-01T00:42:19.000Z</time>
</trkpt>
<trkpt lat="59.5437372" lon="31.1597363">
<ele>54.270000</ele>
<time>2026-09-01T00:42:48.000Z</time>
</trkpt>
<trkpt lat="59.5437966" lon="31.1595810">
<ele>55.739998</ele>
<time>2026-09-01T00:43:15.000Z</time>
</trkpt>
<trkpt lat="59.5437320" lon="31.1596347">
<ele>56.180000</ele>
<time>2026-09-01T00:44:06.000Z</time>
</trkpt>
<trkpt lat="59.5437352" lon="31.1596481">
<ele>56.280003</ele>
<time>2026-09-01T00:44:10.000Z</time>
</trkpt>
<trkpt lat="59.5437286" lon="31.1597614">
<ele>56.440002</ele>
<time>2026-09-01T00:44:43.000Z</time>
</trkpt>
<trkpt lat="59.5437562" lon="31.1598262">
<ele>57.559998</ele>
<time>2026-09-01T00:45:04.000Z</time>
</trkpt>
<trkpt lat="59.5438279" lon="31.1599601">
<ele>56.980000</ele>
<time>2026-09-01T00:45:25.000Z</time>
</trkpt>
<trkpt lat="59.5438701" lon="31.1600528">
<ele>57.290001</ele>
<time>2026-09-01T00:45:44.000Z</time>
</trkpt>
<trkpt lat="59.5439135" lon="31.1602051">
<ele>57.000000</ele>
<time>2026-09-01T00:46:09.000Z</time>
</trkpt>
<trkpt lat="59.5440088" lon="31.1603862">
<ele>56.239998</ele>
<time>2026-09-01T00:46:30.000Z</time>
</trkpt>
<trkpt lat="59.5440700" lon="31.1605352">
<ele>56.639999</ele>
<time>2026-09-01T00:46:50.000Z</time>
</trkpt>
<trkpt lat="59.5441413" lon="31.1606694">
<ele>56.980000</ele>
<time>2026-09-01T00:47:16.000Z</time>
</trkpt>
<trkpt lat="59.5442196" lon="31.1608458">
<ele>56.430000</ele>
<time>2026-09-01T00:47:42.000Z</time>
</trkpt>
<trkpt lat="59.5442537" lon="31.1609134">
<ele>55.450001</ele>
<time>2026-09-01T00:48:06.000Z</time>
</trkpt>
<trkpt lat="59.5442971" lon="31.1609288">
<ele>54.570000</ele>
<time>2026-09-01T00:48:40.000Z</time>
</trkpt>
<trkpt lat="59.5442919" lon="31.1609151">
<ele>54.220001</ele>
<time>2026-09-01T00:49:14.000Z</time>
</trkpt>
<trkpt lat="59.5443452" lon="31.1610830">
<ele>52.829998</ele>
<time>2026-09-01T00:49:30.000Z</time>
</trkpt>
<trkpt lat="59.5443769" lon="31.1612145">
<ele>51.660000</ele>
<time>2026-09-01T00:49:49.000Z</time>
</trkpt>
<trkpt lat="59.5444035" lon="31.1612686">
<ele>50.989998</ele>
<time>2026-09-01T00:50:03.000Z</time>
</trkpt>
<trkpt lat="59.5444288" lon="31.1612685">
<ele>50.660000</ele>
<time>2026-09-01T00:50:19.000Z</time>
</trkpt>
<trkpt lat="59.5444333" lon="31.1612761">
<ele>49.740002</ele>
<time>2026-09-01T00:50:38.000Z</time>
</trkpt>
<trkpt lat="59.5444114" lon="31.1613188">
<ele>47.649998</ele>
<time>2026-09-01T00:51:09.000Z</time>
</trkpt>
<trkpt lat="59.5444114" lon="31.1613365">
<ele>47.770000</ele>
<time>2026-09-01T00:51:28.000Z</time>
</trkpt>
<trkpt lat="59.5444081" lon="31.1613468">
<ele>47.970001</ele>
<time>2026-09-01T00:51:54.000Z</time>
</trkpt>
<trkpt lat="59.5444214" lon="31.1613575">
<ele>47.959999</ele>
<time>2026-09-01T00:52:17.000Z</time>
</trkpt>
<trkpt lat="59.5444314" lon="31.1614688">
<ele>47.900002</ele>
<time>2026-09-01T00:52:40.000Z</time>
</trkpt>
<trkpt lat="59.5444362" lon="31.1615375">
<ele>47.690002</ele>
<time>2026-09-01T00:53:09.000Z</time>
</trkpt>
<trkpt lat="59.5444637" lon="31.1615859">
<ele>49.980000</ele>
<time>2026-09-01T00:53:35.000Z</time>
</trkpt>
<trkpt lat="59.5444383" lon="31.1615525">
<ele>49.420002</ele>
<time>2026-09-01T00:54:05.000Z</time>
</trkpt>
<trkpt lat="59.5444371" lon="31.1615364">
<ele>48.900002</ele>
<time>2026-09-01T00:54:35.000Z</time>
</trkpt>
<trkpt lat="59.5444165" lon="31.1615517">
<ele>49.020000</ele>
<time>2026-09-01T00:55:07.000Z</time>
</trkpt>
<trkpt lat="59.5444381" lon="31.1615574">
<ele>49.070000</ele>
<time>2026-09-01T00:55:39.000Z</time>
</trkpt>
<trkpt lat="59.5444041" lon="31.1615321">
<ele>49.889999</ele>
<time>2026-09-01T00:56:10.000Z</time>
</trkpt>
<trkpt lat="59.5444309" lon="31.1614354">
<ele>48.900002</ele>
<time>2026-09-01T00:56:37.000Z</time>
</trkpt>
<trkpt lat="59.5444325" lon="31.1613465">
<ele>48.700001</ele>
<time>2026-09-01T00:57:01.000Z</time>
</trkpt>
<trkpt lat="59.5444127" lon="31.1612671">
<ele>48.070000</ele>
<time>2026-09-01T00:57:28.000Z</time>
</trkpt>
<trkpt lat="59.5443367" lon="31.1612609">
<ele>48.080002</ele>
<time>2026-09-01T00:57:55.000Z</time>
</trkpt>
<trkpt lat="59.5443074" lon="31.1612788">
<ele>48.360001</ele>
<time>2026-09-01T00:58:23.000Z</time>
</trkpt>
<trkpt lat="59.5442429" lon="31.1612569">
<ele>48.570000</ele>
<time>2026-09-01T00:58:40.000Z</time>
</trkpt>
<trkpt lat="59.5442034" lon="31.1613976">
<ele>48.779999</ele>
<time>2026-09-01T00:58:58.000Z</time>
</trkpt>
<trkpt lat="59.5441749" lon="31.1613739">
<ele>48.549999</ele>
<time>2026-09-01T00:59:15.000Z</time>
</trkpt>
<trkpt lat="59.5440823" lon="31.1614428">
<ele>47.610001</ele>
<time>2026-09-01T00:59:32.000Z</time>
</trkpt>
<trkpt lat="59.5440004" lon="31.1615048">
<ele>47.259998</ele>
<time>2026-09-01T00:59:48.000Z</time>
</trkpt>
<trkpt lat="59.5439335" lon="31.1614917">
<ele>46.310001</ele>
<time>2026-09-01T01:00:06.000Z</time>
</trkpt>
<trkpt lat="59.5438919" lon="31.1614862">
<ele>46.140003</ele>
<time>2026-09-01T01:00:28.000Z</time>
</trkpt>
<trkpt lat="59.5438729" lon="31.1615096">
<ele>48.770000</ele>
<time>2026-09-01T01:00:51.000Z</time>
</trkpt>
<trkpt lat="59.5438170" lon="31.1614848">
<ele>50.770000</ele>
<time>2026-09-01T01:01:13.000Z</time>
</trkpt>
<trkpt lat="59.5437443" lon="31.1614818">
<ele>51.089996</ele>
<time>2026-09-01T01:01:33.000Z</time>
</trkpt>
<trkpt lat="59.5436273" lon="31.1615990">
<ele>50.980000</ele>
<time>2026-09-01T01:01:53.000Z</time>
</trkpt>
<trkpt lat="59.5435347" lon="31.1617333">
<ele>50.340000</ele>
<time>2026-09-01T01:02:12.000Z</time>
</trkpt>
<trkpt lat="59.5435368" lon="31.1618616">
<ele>50.480000</ele>
<time>2026-09-01T01:02:30.000Z</time>
</trkpt>
<trkpt lat="59.5434632" lon="31.1620743">
<ele>50.270000</ele>
<time>2026-09-01T01:02:51.000Z</time>
</trkpt>
<trkpt lat="59.5434228" lon="31.1622902">
<ele>49.900002</ele>
<time>2026-09-01T01:03:08.000Z</time>
</trkpt>
<trkpt lat="59.5434871" lon="31.1625136">
<ele>49.120003</ele>
<time>2026-09-01T01:03:27.000Z</time>
</trkpt>
<trkpt lat="59.5434874" lon="31.1626993">
<ele>48.180000</ele>
<time>2026-09-01T01:03:43.000Z</time>
</trkpt>
<trkpt lat="59.5434503" lon="31.1629186">
<ele>48.310001</ele>
<time>2026-09-01T01:04:03.000Z</time>
</trkpt>
<trkpt lat="59.5434233" lon="31.1630156">
<ele>48.660004</ele>
<time>2026-09-01T01:04:22.000Z</time>
</trkpt>
<trkpt lat="59.5434158" lon="31.1630480">
<ele>49.160000</ele>
<time>2026-09-01T01:04:46.000Z</time>
</trkpt>
<trkpt lat="59.5434086" lon="31.1630957">
<ele>48.919998</ele>
<time>2026-09-01T01:05:15.000Z</time>
</trkpt>
<trkpt lat="59.5434217" lon="31.1631266">
<ele>48.910000</ele>
<time>2026-09-01T01:05:55.000Z</time>
</trkpt>
<trkpt lat="59.5434129" lon="31.1631474">
<ele>50.000000</ele>
<time>2026-09-01T01:06:28.000Z</time>
</trkpt>
<trkpt lat="59.5433799" lon="31.1630967">
<ele>52.090000</ele>
<time>2026-09-01T01:06:59.000Z</time>
</trkpt>
<trkpt lat="59.5433960" lon="31.1630667">
<ele>52.980000</ele>
<time>2026-09-01T01:07:27.000Z</time>
</trkpt>
<trkpt lat="59.5434131" lon="31.1629239">
<ele>52.340000</ele>
<time>2026-09-01T01:07:47.000Z</time>
</trkpt>
<trkpt lat="59.5433409" lon="31.1627291">
<ele>50.439999</ele>
<time>2026-09-01T01:08:05.000Z</time>
</trkpt>
<trkpt lat="59.5432824" lon="31.1625711">
<ele>48.459999</ele>
<time>2026-09-01T01:08:21.000Z</time>
</trkpt>
<trkpt lat="59.5432348" lon="31.1624290">
<ele>47.630001</ele>
<time>2026-09-01T01:08:42.000Z</time>
</trkpt>
<trkpt lat="59.5431613" lon="31.1623337">
<ele>47.670002</ele>
<time>2026-09-01T01:09:02.000Z</time>
</trkpt>
<trkpt lat="59.5431087" lon="31.1622638">
<ele>47.450001</ele>
<time>2026-09-01T01:09:13.000Z</time>
</trkpt>
<trkpt lat="59.5430320" lon="31.1621180">
<ele>48.419998</ele>
<time>2026-09-01T01:09:36.000Z</time>
</trkpt>
<trkpt lat="59.5429587" lon="31.1619899">
<ele>48.540001</ele>
<time>2026-09-01T01:09:55.000Z</time>
</trkpt>
<trkpt lat="59.5428974" lon="31.1618329">
<ele>48.099998</ele>
<time>2026-09-01T01:10:14.000Z</time>
</trkpt>
<trkpt lat="59.5428037" lon="31.1617285">
<ele>46.739998</ele>
<time>2026-09-01T01:10:34.000Z</time>
</trkpt>
<trkpt lat="59.5427686" lon="31.1617083">
<ele>47.489998</ele>
<time>2026-09-01T01:10:56.000Z</time>
</trkpt>
<trkpt lat="59.5427658" lon="31.1617019">
<ele>47.559998</ele>
<time>2026-09-01T01:10:57.000Z</time>
</trkpt>
<trkpt lat="59.5427352" lon="31.1615388">
<ele>48.689999</ele>
<time>2026-09-01T01:11:22.000Z</time>
</trkpt>
<trkpt lat="59.5426533" lon="31.1614210">
<ele>49.000000</ele>
<time>2026-09-01T01:11:40.000Z</time>
</trkpt>
<trkpt lat="59.5426012" lon="31.1613397">
<ele>48.629997</ele>
<time>2026-09-01T01:11:58.000Z</time>
</trkpt>
<trkpt lat="59.5425557" lon="31.1612276">
<ele>48.939999</ele>
<time>2026-09-01T01:12:19.000Z</time>
</trkpt>
<trkpt lat="59.5424830" lon="31.1611468">
<ele>50.320000</ele>
<time>2026-09-01T01:12:38.000Z</time>
</trkpt>
<trkpt lat="59.5424204" lon="31.1611278">
<ele>50.599998</ele>
<time>2026-09-01T01:13:05.000Z</time>
</trkpt>
<trkpt lat="59.5424020" lon="31.1610708">
<ele>51.299999</ele>
<time>2026-09-01T01:13:31.000Z</time>
</trkpt>
<trkpt lat="59.5424324" lon="31.1611019">
<ele>50.800003</ele>
<time>2026-09-01T01:14:02.000Z</time>
</trkpt>
<trkpt lat="59.5424659" lon="31.1611891">
<ele>47.889999</ele>
<time>2026-09-01T01:14:32.000Z</time>
</trkpt>
<trkpt lat="59.5424370" lon="31.1610848">
<ele>45.160000</ele>
<time>2026-09-01T01:15:03.000Z</time>
</trkpt>
<trkpt lat="59.5423792" lon="31.1610599">
<ele>45.939999</ele>
<time>2026-09-01T01:15:24.000Z</time>
</trkpt>
<trkpt lat="59.5422959" lon="31.1608707">
<ele>46.320000</ele>
<time>2026-09-01T01:15:45.000Z</time>
</trkpt>
<trkpt lat="59.5422429" lon="31.1607214">
<ele>45.889999</ele>
<time>2026-09-01T01:16:03.000Z</time>
</trkpt>
<trkpt lat="59.5421730" lon="31.1605403">
<ele>44.700001</ele>
<time>2026-09-01T01:16:23.000Z</time>
</trkpt>
<trkpt lat="59.5421189" lon="31.1603738">
<ele>43.360001</ele>
<time>2026-09-01T01:16:41.000Z</time>
</trkpt>
<trkpt lat="59.5420159" lon="31.1602141">
<ele>42.549999</ele>
<time>2026-09-01T01:17:04.000Z</time>
</trkpt>
<trkpt lat="59.5419590" lon="31.1600409">
<ele>41.689999</ele>
<time>2026-09-01T01:17:23.000Z</time>
</trkpt>
<trkpt lat="59.5418926" lon="31.1599283">
<ele>42.040001</ele>
<time>2026-09-01T01:17:46.000Z</time>
</trkpt>
<trkpt lat="59.5418646" lon="31.1599065">
<ele>42.139999</ele>
<time>2026-09-01T01:17:53.000Z</time>
</trkpt>
<trkpt lat="59.5417642" lon="31.1597053">
<ele>43.369999</ele>
<time>2026-09-01T01:18:17.000Z</time>
</trkpt>
<trkpt lat="59.5416807" lon="31.1594980">
<ele>45.470001</ele>
<time>2026-09-01T01:18:38.000Z</time>
</trkpt>
<trkpt lat="59.5415993" lon="31.1593234">
<ele>46.380001</ele>
<time>2026-09-01T01:18:57.000Z</time>
</trkpt>
<trkpt lat="59.5415670" lon="31.1593232">
<ele>49.020000</ele>
<time>2026-09-01T01:19:24.000Z</time>
</trkpt>
<trkpt lat="59.5415883" lon="31.1593067">
<ele>51.469997</ele>
<time>2026-09-01T01:19:56.000Z</time>
</trkpt>
<trkpt lat="59.5415273" lon="31.1592469">
<ele>55.680000</ele>
<time>2026-09-01T01:20:27.000Z</time>
</trkpt>
<trkpt lat="59.5415300" lon="31.1592639">
<ele>56.639999</ele>
<time>2026-09-01T01:20:58.000Z</time>
</trkpt>
<trkpt lat="59.5415649" lon="31.1593767">
<ele>56.239998</ele>
<time>2026-09-01T01:21:40.000Z</time>
</trkpt>
<trkpt lat="59.5414942" lon="31.1591962">
<ele>54.990002</ele>
<time>2026-09-01T01:22:42.000Z</time>
</trkpt>
<trkpt lat="59.5415076" lon="31.1591738">
<ele>52.379997</ele>
<time>2026-09-01T01:23:06.000Z</time>
</trkpt>
<trkpt lat="59.5415051" lon="31.1592107">
<ele>51.769997</ele>
<time>2026-09-01T01:23:31.000Z</time>
</trkpt>
<trkpt lat="59.5414540" lon="31.1593514">
<ele>51.799999</ele>
<time>2026-09-01T01:23:51.000Z</time>
</trkpt>
<trkpt lat="59.5413913" lon="31.1594439">
<ele>52.590000</ele>
<time>2026-09-01T01:24:13.000Z</time>
</trkpt>
<trkpt lat="59.5413489" lon="31.1594378">
<ele>53.439999</ele>
<time>2026-09-01T01:24:36.000Z</time>
</trkpt>
<trkpt lat="59.5413041" lon="31.1596545">
<ele>51.669998</ele>
<time>2026-09-01T01:24:55.000Z</time>
</trkpt>
<trkpt lat="59.5412559" lon="31.1597799">
<ele>51.350002</ele>
<time>2026-09-01T01:25:15.000Z</time>
</trkpt>
<trkpt lat="59.5412627" lon="31.1598057">
<ele>51.590000</ele>
<time>2026-09-01T01:25:32.000Z</time>
</trkpt>
<trkpt lat="59.5412456" lon="31.1598024">
<ele>52.770000</ele>
<time>2026-09-01T01:25:52.000Z</time>
</trkpt>
<trkpt lat="59.5411995" lon="31.1598689">
<ele>52.620003</ele>
<time>2026-09-01T01:26:06.000Z</time>
</trkpt>
<trkpt lat="59.5412378" lon="31.1598153">
<ele>50.960003</ele>
<time>2026-09-01T01:26:20.000Z</time>
</trkpt>
<trkpt lat="59.5412719" lon="31.1597980">
<ele>52.130001</ele>
<time>2026-09-01T01:26:49.000Z</time>
</trkpt>
<trkpt lat="59.5412677" lon="31.1597902">
<ele>51.529999</ele>
<time>2026-09-01T01:26:56.000Z</time>
</trkpt>
<trkpt lat="59.5411795" lon="31.1597122">
<ele>51.020000</ele>
<time>2026-09-01T01:27:10.000Z</time>
</trkpt>
<trkpt lat="59.5411444" lon="31.1596830">
<ele>51.490002</ele>
<time>2026-09-01T01:27:24.000Z</time>
</trkpt>
<trkpt lat="59.5410824" lon="31.1596804">
<ele>52.430000</ele>
<time>2026-09-01T01:27:43.000Z</time>
</trkpt>
<trkpt lat="59.5410404" lon="31.1597134">
<ele>51.750000</ele>
<time>2026-09-01T01:27:56.000Z</time>
</trkpt>
<trkpt lat="59.5409496" lon="31.1597808">
<ele>53.000004</ele>
<time>2026-09-01T01:28:14.000Z</time>
</trkpt>
<trkpt lat="59.5408987" lon="31.1598402">
<ele>53.760002</ele>
<time>2026-09-01T01:28:27.000Z</time>
</trkpt>
<trkpt lat="59.5408870" lon="31.1598609">
<ele>53.770000</ele>
<time>2026-09-01T01:28:51.000Z</time>
</trkpt>
<trkpt lat="59.5408236" lon="31.1598474">
<ele>52.980000</ele>
<time>2026-09-01T01:29:24.000Z</time>
</trkpt>
<trkpt lat="59.5407426" lon="31.1598972">
<ele>52.420002</ele>
<time>2026-09-01T01:29:41.000Z</time>
</trkpt>
<trkpt lat="59.5406782" lon="31.1598958">
<ele>52.759998</ele>
<time>2026-09-01T01:29:58.000Z</time>
</trkpt>
<trkpt lat="59.5406085" lon="31.1599012">
<ele>53.150002</ele>
<time>2026-09-01T01:30:15.000Z</time>
</trkpt>
<trkpt lat="59.5405795" lon="31.1598702">
<ele>53.200001</ele>
<time>2026-09-01T01:30:28.000Z</time>
</trkpt>
<trkpt lat="59.5404620" lon="31.1599417">
<ele>52.720001</ele>
<time>2026-09-01T01:30:46.000Z</time>
</trkpt>
<trkpt lat="59.5404129" lon="31.1599995">
<ele>53.170002</ele>
<time>2026-09-01T01:31:00.000Z</time>
</trkpt>
<trkpt lat="59.5403645" lon="31.1600988">
<ele>53.250000</ele>
<time>2026-09-01T01:31:22.000Z</time>
</trkpt>
<trkpt lat="59.5403168" lon="31.1601550">
<ele>53.620003</ele>
<time>2026-09-01T01:31:42.000Z</time>
</trkpt>
<trkpt lat="59.5403054" lon="31.1601713">
<ele>54.340000</ele>
<time>2026-09-01T01:32:05.000Z</time>
</trkpt>
<trkpt lat="59.5403134" lon="31.1600244">
<ele>53.770000</ele>
<time>2026-09-01T01:32:21.000Z</time>
</trkpt>
<trkpt lat="59.5402749" lon="31.1599550">
<ele>53.449997</ele>
<time>2026-09-01T01:32:33.000Z</time>
</trkpt>
<trkpt lat="59.5402623" lon="31.1599837">
<ele>53.760002</ele>
<time>2026-09-01T01:32:47.000Z</time>
</trkpt>
<trkpt lat="59.5402060" lon="31.1596901">
<ele>52.349998</ele>
<time>2026-09-01T01:33:05.000Z</time>
</trkpt>
<trkpt lat="59.5401557" lon="31.1595714">
<ele>53.340000</ele>
<time>2026-09-01T01:33:20.000Z</time>
</trkpt>
<trkpt lat="59.5401423" lon="31.1595602">
<ele>54.669998</ele>
<time>2026-09-01T01:33:37.000Z</time>
</trkpt>
<trkpt lat="59.5400966" lon="31.1593243">
<ele>53.529999</ele>
<time>2026-09-01T01:33:55.000Z</time>
</trkpt>
<trkpt lat="59.5400931" lon="31.1592675">
<ele>53.750000</ele>
<time>2026-09-01T01:34:00.000Z</time>
</trkpt>
<trkpt lat="59.5400853" lon="31.1591276">
<ele>52.599998</ele>
<time>2026-09-01T01:34:16.000Z</time>
</trkpt>
<trkpt lat="59.5400822" lon="31.1589355">
<ele>51.369999</ele>
<time>2026-09-01T01:34:30.000Z</time>
</trkpt>
<trkpt lat="59.5400999" lon="31.1587702">
<ele>50.459999</ele>
<time>2026-09-01T01:34:46.000Z</time>
</trkpt>
<trkpt lat="59.5401076" lon="31.1587448">
<ele>50.230000</ele>
<time>2026-09-01T01:34:48.000Z</time>
</trkpt>
<trkpt lat="59.5401790" lon="31.1584784">
<ele>49.369999</ele>
<time>2026-09-01T01:35:03.000Z</time>
</trkpt>
<trkpt lat="59.5402465" lon="31.1583119">
<ele>46.830002</ele>
<time>2026-09-01T01:35:15.000Z</time>
</trkpt>
<trkpt lat="59.5403259" lon="31.1581705">
<ele>45.049999</ele>
<time>2026-09-01T01:35:29.000Z</time>
</trkpt>
<trkpt lat="59.5403942" lon="31.1578550">
<ele>48.290001</ele>
<time>2026-09-01T01:35:46.000Z</time>
</trkpt>
<trkpt lat="59.5403975" lon="31.1578008">
<ele>50.230000</ele>
<time>2026-09-01T01:35:55.000Z</time>
</trkpt>
<trkpt lat="59.5403862" lon="31.1576663">
<ele>51.560001</ele>
<time>2026-09-01T01:36:05.000Z</time>
</trkpt>
<trkpt lat="59.5403590" lon="31.1576174">
<ele>51.669998</ele>
<time>2026-09-01T01:36:09.000Z</time>
</trkpt>
<trkpt lat="59.5403264" lon="31.1575186">
<ele>53.889999</ele>
<time>2026-09-01T01:36:23.000Z</time>
</trkpt>
<trkpt lat="59.5402783" lon="31.1573327">
<ele>53.880001</ele>
<time>2026-09-01T01:36:39.000Z</time>
</trkpt>
<trkpt lat="59.5402412" lon="31.1571073">
<ele>50.750000</ele>
<time>2026-09-01T01:36:55.000Z</time>
</trkpt>
<trkpt lat="59.5402104" lon="31.1570031">
<ele>51.999996</ele>
<time>2026-09-01T01:37:13.000Z</time>
</trkpt>
<trkpt lat="59.5402746" lon="31.1569149">
<ele>53.200001</ele>
<time>2026-09-01T01:37:28.000Z</time>
</trkpt>
<trkpt lat="59.5402831" lon="31.1565817">
<ele>53.709999</ele>
<time>2026-09-01T01:37:46.000Z</time>
</trkpt>
<trkpt lat="59.5402681" lon="31.1563103">
<ele>50.689999</ele>
<time>2026-09-01T01:38:01.000Z</time>
</trkpt>
<trkpt lat="59.5403014" lon="31.1561063">
<ele>50.849998</ele>
<time>2026-09-01T01:38:17.000Z</time>
</trkpt>
<trkpt lat="59.5402864" lon="31.1558993">
<ele>53.020000</ele>
<time>2026-09-01T01:38:34.000Z</time>
</trkpt>
<trkpt lat="59.5402443" lon="31.1556483">
<ele>52.630001</ele>
<time>2026-09-01T01:38:52.000Z</time>
</trkpt>
<trkpt lat="59.5402316" lon="31.1555094">
<ele>51.609997</ele>
<time>2026-09-01T01:39:00.000Z</time>
</trkpt>
<trkpt lat="59.5402053" lon="31.1552178">
<ele>47.730000</ele>
<time>2026-09-01T01:39:14.000Z</time>
</trkpt>
<trkpt lat="59.5401775" lon="31.1549893">
<ele>47.130001</ele>
<time>2026-09-01T01:39:29.000Z</time>
</trkpt>
<trkpt lat="59.5401776" lon="31.1548153">
<ele>48.789997</ele>
<time>2026-09-01T01:39:44.000Z</time>
</trkpt>
<trkpt lat="59.5401961" lon="31.1546316">
<ele>50.640003</ele>
<time>2026-09-01T01:39:56.000Z</time>
</trkpt>
<trkpt lat="59.5402178" lon="31.1544807">
<ele>51.060001</ele>
<time>2026-09-01T01:40:13.000Z</time>
</trkpt>
<trkpt lat="59.5402231" lon="31.1544680">
<ele>51.089996</ele>
<time>2026-09-01T01:40:14.000Z</time>
</trkpt>
<trkpt lat="59.5403123" lon="31.1542590">
<ele>49.239998</ele>
<time>2026-09-01T01:40:29.000Z</time>
</trkpt>
<trkpt lat="59.5404522" lon="31.1539995">
<ele>43.790001</ele>
<time>2026-09-01T01:40:46.000Z</time>
</trkpt>
<trkpt lat="59.5405079" lon="31.1537862">
<ele>39.740002</ele>
<time>2026-09-01T01:40:57.000Z</time>
</trkpt>
<trkpt lat="59.5406380" lon="31.1535790">
<ele>37.410000</ele>
<time>2026-09-01T01:41:13.000Z</time>
</trkpt>
<trkpt lat="59.5406551" lon="31.1535520">
<ele>43.040001</ele>
<time>2026-09-01T01:41:31.000Z</time>
</trkpt>
<trkpt lat="59.5406590" lon="31.1534991">
<ele>56.299999</ele>
<time>2026-09-01T01:42:02.000Z</time>
</trkpt>
<trkpt lat="59.5406250" lon="31.1534604">
<ele>60.360001</ele>
<time>2026-09-01T01:42:41.000Z</time>
</trkpt>
<trkpt lat="59.5406390" lon="31.1534498">
<ele>60.209999</ele>
<time>2026-09-01T01:43:09.000Z</time>
</trkpt>
<trkpt lat="59.5407954" lon="31.1535417">
<ele>60.459999</ele>
<time>2026-09-01T01:43:27.000Z</time>
</trkpt>
<trkpt lat="59.5409593" lon="31.1535913">
<ele>58.670002</ele>
<time>2026-09-01T01:43:45.000Z</time>
</trkpt>
<trkpt lat="59.5409962" lon="31.1535704">
<ele>57.990002</ele>
<time>2026-09-01T01:44:01.000Z</time>
</trkpt>
<trkpt lat="59.5410360" lon="31.1534967">
<ele>57.020000</ele>
<time>2026-09-01T01:44:14.000Z</time>
</trkpt>
<trkpt lat="59.5411374" lon="31.1535531">
<ele>54.930000</ele>
<time>2026-09-01T01:44:32.000Z</time>
</trkpt>
<trkpt lat="59.5411574" lon="31.1535555">
<ele>54.370003</ele>
<time>2026-09-01T01:44:35.000Z</time>
</trkpt>
<trkpt lat="59.5412398" lon="31.1535793">
<ele>53.799999</ele>
<time>2026-09-01T01:44:50.000Z</time>
</trkpt>
<trkpt lat="59.5412383" lon="31.1535879">
<ele>53.519997</ele>
<time>2026-09-01T01:45:05.000Z</time>
</trkpt>
<trkpt lat="59.5413371" lon="31.1536239">
<ele>52.880001</ele>
<time>2026-09-01T01:45:20.000Z</time>
</trkpt>
<trkpt lat="59.5413916" lon="31.1536521">
<ele>53.349998</ele>
<time>2026-09-01T01:45:33.000Z</time>
</trkpt>
<trkpt lat="59.5414132" lon="31.1535875">
<ele>53.240002</ele>
<time>2026-09-01T01:45:49.000Z</time>
</trkpt>
<trkpt lat="59.5414242" lon="31.1536686">
<ele>53.119999</ele>
<time>2026-09-01T01:46:05.000Z</time>
</trkpt>
<trkpt lat="59.5414456" lon="31.1537803">
<ele>52.759998</ele>
<time>2026-09-01T01:46:23.000Z</time>
</trkpt>
<trkpt lat="59.5414958" lon="31.1538031">
<ele>53.240002</ele>
<time>2026-09-01T01:46:30.000Z</time>
</trkpt>
<trkpt lat="59.5415698" lon="31.1537191">
<ele>54.330002</ele>
<time>2026-09-01T01:46:38.000Z</time>
</trkpt>
<trkpt lat="59.5416638" lon="31.1534235">
<ele>53.480000</ele>
<time>2026-09-01T01:46:54.000Z</time>
</trkpt>
<trkpt lat="59.5417454" lon="31.1530747">
<ele>51.170002</ele>
<time>2026-09-01T01:47:13.000Z</time>
</trkpt>
<trkpt lat="59.5418196" lon="31.1530010">
<ele>50.380001</ele>
<time>2026-09-01T01:47:27.000Z</time>
</trkpt>
<trkpt lat="59.5418816" lon="31.1528769">
<ele>50.120003</ele>
<time>2026-09-01T01:47:39.000Z</time>
</trkpt>
<trkpt lat="59.5419729" lon="31.1526646">
<ele>44.250000</ele>
<time>2026-09-01T01:47:54.000Z</time>
</trkpt>
<trkpt lat="59.5421159" lon="31.1524773">
<ele>39.090000</ele>
<time>2026-09-01T01:48:10.000Z</time>
</trkpt>
<trkpt lat="59.5423049" lon="31.1523623">
<ele>39.429996</ele>
<time>2026-09-01T01:48:27.000Z</time>
</trkpt>
<trkpt lat="59.5424357" lon="31.1522957">
<ele>36.509998</ele>
<time>2026-09-01T01:48:41.000Z</time>
</trkpt>
<trkpt lat="59.5426269" lon="31.1522523">
<ele>36.560001</ele>
<time>2026-09-01T01:48:59.000Z</time>
</trkpt>
<trkpt lat="59.5427188" lon="31.1521517">
<ele>38.259998</ele>
<time>2026-09-01T01:49:20.000Z</time>
</trkpt>
<trkpt lat="59.5428157" lon="31.1519910">
<ele>39.939999</ele>
<time>2026-09-01T01:49:42.000Z</time>
</trkpt>
<trkpt lat="59.5429632" lon="31.1517376">
<ele>44.930000</ele>
<time>2026-09-01T01:50:03.000Z</time>
</trkpt>
<trkpt lat="59.5429898" lon="31.1516659">
<ele>45.500000</ele>
<time>2026-09-01T01:50:07.000Z</time>
</trkpt>
<trkpt lat="59.5430819" lon="31.1513089">
<ele>46.259998</ele>
<time>2026-09-01T01:50:23.000Z</time>
</trkpt>
<trkpt lat="59.5431731" lon="31.1510339">
<ele>46.519997</ele>
<time>2026-09-01T01:50:37.000Z</time>
</trkpt>
<trkpt lat="59.5433184" lon="31.1508129">
<ele>47.370003</ele>
<time>2026-09-01T01:50:52.000Z</time>
</trkpt>
<trkpt lat="59.5434243" lon="31.1506162">
<ele>45.340000</ele>
<time>2026-09-01T01:51:04.000Z</time>
</trkpt>
<trkpt lat="59.5434882" lon="31.1502345">
<ele>41.469997</ele>
<time>2026-09-01T01:51:24.000Z</time>
</trkpt>
<trkpt lat="59.5434584" lon="31.1499822">
<ele>39.959999</ele>
<time>2026-09-01T01:51:44.000Z</time>
</trkpt>
<trkpt lat="59.5434871" lon="31.1498860">
<ele>41.660000</ele>
<time>2026-09-01T01:52:01.000Z</time>
</trkpt>
<trkpt lat="59.5435517" lon="31.1496862">
<ele>41.570004</ele>
<time>2026-09-01T01:52:22.000Z</time>
</trkpt>
<trkpt lat="59.5435771" lon="31.1494883">
<ele>42.099998</ele>
<time>2026-09-01T01:52:34.000Z</time>
</trkpt>
<trkpt lat="59.5436493" lon="31.1490301">
<ele>42.389999</ele>
<time>2026-09-01T01:52:53.000Z</time>
</trkpt>
<trkpt lat="59.5437095" lon="31.1488139">
<ele>40.120003</ele>
<time>2026-09-01T01:53:06.000Z</time>
</trkpt>
<trkpt lat="59.5438315" lon="31.1484231">
<ele>37.500000</ele>
<time>2026-09-01T01:53:28.000Z</time>
</trkpt>
<trkpt lat="59.5439507" lon="31.1479542">
<ele>34.480000</ele>
<time>2026-09-01T01:53:52.000Z</time>
</trkpt>
<trkpt lat="59.5441301" lon="31.1474438">
<ele>31.400000</ele>
<time>2026-09-01T01:54:15.000Z</time>
</trkpt>
<trkpt lat="59.5442081" lon="31.1471378">
<ele>29.000000</ele>
<time>2026-09-01T01:54:30.000Z</time>
</trkpt>
<trkpt lat="59.5443087" lon="31.1468558">
<ele>24.340000</ele>
<time>2026-09-01T01:54:45.000Z</time>
</trkpt>
<trkpt lat="59.5443958" lon="31.1466234">
<ele>21.049999</ele>
<time>2026-09-01T01:54:57.000Z</time>
</trkpt>
<trkpt lat="59.5445660" lon="31.1463428">
<ele>22.160002</ele>
<time>2026-09-01T01:55:20.000Z</time>
</trkpt>
<trkpt lat="59.5446947" lon="31.1459174">
<ele>24.180000</ele>
<time>2026-09-01T01:55:40.000Z</time>
</trkpt>
<trkpt lat="59.5448460" lon="31.1454336">
<ele>22.930000</ele>
<time>2026-09-01T01:56:06.000Z</time>
</trkpt>
<trkpt lat="59.5450173" lon="31.1450126">
<ele>22.719999</ele>
<time>2026-09-01T01:56:29.000Z</time>
</trkpt>
<trkpt lat="59.5451724" lon="31.1445507">
<ele>21.959999</ele>
<time>2026-09-01T01:56:54.000Z</time>
</trkpt>
<trkpt lat="59.5453195" lon="31.1441664">
<ele>22.860001</ele>
<time>2026-09-01T01:57:16.000Z</time>
</trkpt>
<trkpt lat="59.5454061" lon="31.1439231">
<ele>21.199999</ele>
<time>2026-09-01T01:57:35.000Z</time>
</trkpt>
<trkpt lat="59.5455531" lon="31.1434681">
<ele>22.500002</ele>
<time>2026-09-01T01:57:59.000Z</time>
</trkpt>
<trkpt lat="59.5456646" lon="31.1431160">
<ele>30.010000</ele>
<time>2026-09-01T01:58:21.000Z</time>
</trkpt>
<trkpt lat="59.5457288" lon="31.1428808">
<ele>45.000004</ele>
<time>2026-09-01T01:58:49.000Z</time>
</trkpt>
<trkpt lat="59.5458674" lon="31.1425730">
<ele>45.090000</ele>
<time>2026-09-01T01:59:08.000Z</time>
</trkpt>
<trkpt lat="59.5460253" lon="31.1422883">
<ele>43.420002</ele>
<time>2026-09-01T01:59:26.000Z</time>
</trkpt>
<trkpt lat="59.5461540" lon="31.1420637">
<ele>41.480000</ele>
<time>2026-09-01T01:59:44.000Z</time>
</trkpt>
<trkpt lat="59.5462921" lon="31.1417543">
<ele>42.430000</ele>
<time>2026-09-01T02:00:05.000Z</time>
</trkpt>
<trkpt lat="59.5464360" lon="31.1413744">
<ele>41.810001</ele>
<time>2026-09-01T02:00:28.000Z</time>
</trkpt>
<trkpt lat="59.5465269" lon="31.1411279">
<ele>40.680000</ele>
<time>2026-09-01T02:00:44.000Z</time>
</trkpt>
<trkpt lat="59.5465925" lon="31.1408192">
<ele>41.480000</ele>
<time>2026-09-01T02:01:04.000Z</time>
</trkpt>
<trkpt lat="59.5466167" lon="31.1405399">
<ele>40.939999</ele>
<time>2026-09-01T02:01:24.000Z</time>
</trkpt>
<trkpt lat="59.5466422" lon="31.1402141">
<ele>42.350002</ele>
<time>2026-09-01T02:01:46.000Z</time>
</trkpt>
<trkpt lat="59.5466412" lon="31.1401142">
<ele>41.720001</ele>
<time>2026-09-01T02:01:53.000Z</time>
</trkpt>
<trkpt lat="59.5466825" lon="31.1398883">
<ele>42.900002</ele>
<time>2026-09-01T02:02:11.000Z</time>
</trkpt>
<trkpt lat="59.5466669" lon="31.1395433">
<ele>45.419998</ele>
<time>2026-09-01T02:02:32.000Z</time>
</trkpt>
<trkpt lat="59.5467088" lon="31.1392949">
<ele>45.299999</ele>
<time>2026-09-01T02:02:51.000Z</time>
</trkpt>
<trkpt lat="59.5467326" lon="31.1392595">
<ele>45.410000</ele>
<time>2026-09-01T02:02:55.000Z</time>
</trkpt>
<trkpt lat="59.5467376" lon="31.1391106">
<ele>45.480000</ele>
<time>2026-09-01T02:03:05.000Z</time>
</trkpt>
<trkpt lat="59.5467827" lon="31.1389637">
<ele>47.329998</ele>
<time>2026-09-01T02:03:26.000Z</time>
</trkpt>
<trkpt lat="59.5468460" lon="31.1387565">
<ele>50.870003</ele>
<time>2026-09-01T02:03:48.000Z</time>
</trkpt>
<trkpt lat="59.5468557" lon="31.1386318">
<ele>52.320004</ele>
<time>2026-09-01T02:04:11.000Z</time>
</trkpt>
<trkpt lat="59.5468925" lon="31.1386394">
<ele>52.480000</ele>
<time>2026-09-01T02:04:38.000Z</time>
</trkpt>
<trkpt lat="59.5469247" lon="31.1386859">
<ele>53.299999</ele>
<time>2026-09-01T02:04:56.000Z</time>
</trkpt>
<trkpt lat="59.5469746" lon="31.1386031">
<ele>52.490002</ele>
<time>2026-09-01T02:05:14.000Z</time>
</trkpt>
<trkpt lat="59.5470546" lon="31.1385135">
<ele>51.599998</ele>
<time>2026-09-01T02:05:30.000Z</time>
</trkpt>
<trkpt lat="59.5470399" lon="31.1383058">
<ele>50.910000</ele>
<time>2026-09-01T02:05:48.000Z</time>
</trkpt>
<trkpt lat="59.5469730" lon="31.1380478">
<ele>50.040001</ele>
<time>2026-09-01T02:06:10.000Z</time>
</trkpt>
<trkpt lat="59.5469651" lon="31.1380296">
<ele>50.149998</ele>
<time>2026-09-01T02:06:14.000Z</time>
</trkpt>
<trkpt lat="59.5469423" lon="31.1379783">
<ele>52.320004</ele>
<time>2026-09-01T02:06:39.000Z</time>
</trkpt>
<trkpt lat="59.5469676" lon="31.1382270">
<ele>50.699997</ele>
<time>2026-09-01T02:06:55.000Z</time>
</trkpt>
<trkpt lat="59.5470790" lon="31.1381654">
<ele>49.009998</ele>
<time>2026-09-01T02:07:11.000Z</time>
</trkpt>
<trkpt lat="59.5470628" lon="31.1380249">
<ele>48.360001</ele>
<time>2026-09-01T02:07:28.000Z</time>
</trkpt>
<trkpt lat="59.5470522" lon="31.1378494">
<ele>48.629997</ele>
<time>2026-09-01T02:07:43.000Z</time>
</trkpt>
<trkpt lat="59.5469414" lon="31.1376821">
<ele>48.840000</ele>
<time>2026-09-01T02:08:04.000Z</time>
</trkpt>
<trkpt lat="59.5469059" lon="31.1374991">
<ele>49.290001</ele>
<time>2026-09-01T02:08:22.000Z</time>
</trkpt>
<trkpt lat="59.5468594" lon="31.1373599">
<ele>50.369999</ele>
<time>2026-09-01T02:08:43.000Z</time>
</trkpt>
<trkpt lat="59.5468148" lon="31.1372507">
<ele>50.239998</ele>
<time>2026-09-01T02:08:55.000Z</time>
</trkpt>
<trkpt lat="59.5467733" lon="31.1371341">
<ele>50.110001</ele>
<time>2026-09-01T02:09:12.000Z</time>
</trkpt>
<trkpt lat="59.5467491" lon="31.1370512">
<ele>49.759998</ele>
<time>2026-09-01T02:09:20.000Z</time>
</trkpt>
<trkpt lat="59.5466511" lon="31.1367554">
<ele>49.040001</ele>
<time>2026-09-01T02:09:44.000Z</time>
</trkpt>
<trkpt lat="59.5465561" lon="31.1365463">
<ele>47.779999</ele>
<time>2026-09-01T02:10:09.000Z</time>
</trkpt>
<trkpt lat="59.5465179" lon="31.1363227">
<ele>48.009998</ele>
<time>2026-09-01T02:10:28.000Z</time>
</trkpt>
<trkpt lat="59.5464071" lon="31.1360606">
<ele>47.080002</ele>
<time>2026-09-01T02:10:51.000Z</time>
</trkpt>
<trkpt lat="59.5463636" lon="31.1358712">
<ele>47.590004</ele>
<time>2026-09-01T02:11:12.000Z</time>
</trkpt>
<trkpt lat="59.5463143" lon="31.1356686">
<ele>47.070000</ele>
<time>2026-09-01T02:11:36.000Z</time>
</trkpt>
<trkpt lat="59.5462592" lon="31.1356083">
<ele>47.419998</ele>
<time>2026-09-01T02:11:55.000Z</time>
</trkpt>
<trkpt lat="59.5461861" lon="31.1355287">
<ele>48.590000</ele>
<time>2026-09-01T02:12:19.000Z</time>
</trkpt>
<trkpt lat="59.5461631" lon="31.1354055">
<ele>48.930000</ele>
<time>2026-09-01T02:12:42.000Z</time>
</trkpt>
<trkpt lat="59.5461456" lon="31.1352830">
<ele>49.090000</ele>
<time>2026-09-01T02:12:57.000Z</time>
</trkpt>
<trkpt lat="59.5461107" lon="31.1351874">
<ele>48.990002</ele>
<time>2026-09-01T02:13:19.000Z</time>
</trkpt>
<trkpt lat="59.5460268" lon="31.1350817">
<ele>48.009998</ele>
<time>2026-09-01T02:13:40.000Z</time>
</trkpt>
<trkpt lat="59.5460258" lon="31.1349572">
<ele>46.820000</ele>
<time>2026-09-01T02:13:53.000Z</time>
</trkpt>
<trkpt lat="59.5460339" lon="31.1346534">
<ele>44.189999</ele>
<time>2026-09-01T02:14:14.000Z</time>
</trkpt>
<trkpt lat="59.5460672" lon="31.1344772">
<ele>44.790001</ele>
<time>2026-09-01T02:14:31.000Z</time>
</trkpt>
<trkpt lat="59.5460727" lon="31.1343487">
<ele>45.799999</ele>
<time>2026-09-01T02:14:59.000Z</time>
</trkpt>
<trkpt lat="59.5460968" lon="31.1341512">
<ele>46.010002</ele>
<time>2026-09-01T02:15:09.000Z</time>
</trkpt>
<trkpt lat="59.5461499" lon="31.1339864">
<ele>46.220001</ele>
<time>2026-09-01T02:15:23.000Z</time>
</trkpt>
<trkpt lat="59.5462467" lon="31.1338029">
<ele>46.070004</ele>
<time>2026-09-01T02:15:43.000Z</time>
</trkpt>
<trkpt lat="59.5463607" lon="31.1335725">
<ele>45.259998</ele>
<time>2026-09-01T02:16:00.000Z</time>
</trkpt>
<trkpt lat="59.5464320" lon="31.1331689">
<ele>43.309998</ele>
<time>2026-09-01T02:16:21.000Z</time>
</trkpt>
<trkpt lat="59.5464978" lon="31.1330290">
<ele>42.660000</ele>
<time>2026-09-01T02:16:40.000Z</time>
</trkpt>
<trkpt lat="59.5465863" lon="31.1327871">
<ele>41.329998</ele>
<time>2026-09-01T02:16:58.000Z</time>
</trkpt>
<trkpt lat="59.5466190" lon="31.1326012">
<ele>40.360001</ele>
<time>2026-09-01T02:17:10.000Z</time>
</trkpt>
<trkpt lat="59.5466761" lon="31.1323034">
<ele>39.240002</ele>
<time>2026-09-01T02:17:29.000Z</time>
</trkpt>
<trkpt lat="59.5467386" lon="31.1319472">
<ele>37.060001</ele>
<time>2026-09-01T02:17:47.000Z</time>
</trkpt>
<trkpt lat="59.5467737" lon="31.1316245">
<ele>35.299999</ele>
<time>2026-09-01T02:18:03.000Z</time>
</trkpt>
<trkpt lat="59.5468070" lon="31.1313890">
<ele>34.489998</ele>
<time>2026-09-01T02:18:15.000Z</time>
</trkpt>
<trkpt lat="59.5469294" lon="31.1308397">
<ele>32.180000</ele>
<time>2026-09-01T02:18:40.000Z</time>
</trkpt>
<trkpt lat="59.5469971" lon="31.1305678">
<ele>32.139999</ele>
<time>2026-09-01T02:18:54.000Z</time>
</trkpt>
<trkpt lat="59.5470716" lon="31.1304502">
<ele>30.529999</ele>
<time>2026-09-01T02:19:07.000Z</time>
</trkpt>
<trkpt lat="59.5471146" lon="31.1303000">
<ele>30.799999</ele>
<time>2026-09-01T02:19:18.000Z</time>
</trkpt>
<trkpt lat="59.5471711" lon="31.1301319">
<ele>31.629999</ele>
<time>2026-09-01T02:19:36.000Z</time>
</trkpt>
<trkpt lat="59.5472050" lon="31.1298573">
<ele>30.260000</ele>
<time>2026-09-01T02:19:48.000Z</time>
</trkpt>
<trkpt lat="59.5472162" lon="31.1296418">
<ele>30.990000</ele>
<time>2026-09-01T02:19:56.000Z</time>
</trkpt>
<trkpt lat="59.5472212" lon="31.1292918">
<ele>32.820000</ele>
<time>2026-09-01T02:20:14.000Z</time>
</trkpt>
<trkpt lat="59.5472564" lon="31.1289918">
<ele>33.700001</ele>
<time>2026-09-01T02:20:27.000Z</time>
</trkpt>
<trkpt lat="59.5473383" lon="31.1285392">
<ele>30.799999</ele>
<time>2026-09-01T02:20:44.000Z</time>
</trkpt>
<trkpt lat="59.5473172" lon="31.1283272">
<ele>30.250000</ele>
<time>2026-09-01T02:21:02.000Z</time>
</trkpt>
<trkpt lat="59.5473796" lon="31.1282591">
<ele>31.049999</ele>
<time>2026-09-01T02:21:54.000Z</time>
</trkpt>
<trkpt lat="59.5474200" lon="31.1282597">
<ele>34.459999</ele>
<time>2026-09-01T02:22:15.000Z</time>
</trkpt>
<trkpt lat="59.5474850" lon="31.1279817">
<ele>35.420002</ele>
<time>2026-09-01T02:22:37.000Z</time>
</trkpt>
<trkpt lat="59.5475346" lon="31.1275699">
<ele>35.459999</ele>
<time>2026-09-01T02:22:57.000Z</time>
</trkpt>
<trkpt lat="59.5476201" lon="31.1270541">
<ele>35.799999</ele>
<time>2026-09-01T02:23:22.000Z</time>
</trkpt>
<trkpt lat="59.5477163" lon="31.1267357">
<ele>33.989998</ele>
<time>2026-09-01T02:23:42.000Z</time>
</trkpt>
<trkpt lat="59.5478397" lon="31.1263708">
<ele>31.700001</ele>
<time>2026-09-01T02:24:01.000Z</time>
</trkpt>
<trkpt lat="59.5478497" lon="31.1263536">
<ele>31.480000</ele>
<time>2026-09-01T02:24:02.000Z</time>
</trkpt>
<trkpt lat="59.5479864" lon="31.1260239">
<ele>31.190001</ele>
<time>2026-09-01T02:24:23.000Z</time>
</trkpt>
<trkpt lat="59.5480930" lon="31.1259265">
<ele>29.719999</ele>
<time>2026-09-01T02:24:34.000Z</time>
</trkpt>
<trkpt lat="59.5482880" lon="31.1255353">
<ele>28.260000</ele>
<time>2026-09-01T02:24:56.000Z</time>
</trkpt>
<trkpt lat="59.5484755" lon="31.1250407">
<ele>25.009998</ele>
<time>2026-09-01T02:25:21.000Z</time>
</trkpt>
<trkpt lat="59.5486477" lon="31.1246739">
<ele>27.310001</ele>
<time>2026-09-01T02:25:44.000Z</time>
</trkpt>
<trkpt lat="59.5487660" lon="31.1245019">
<ele>26.160002</ele>
<time>2026-09-01T02:25:56.000Z</time>
</trkpt>
<trkpt lat="59.5489252" lon="31.1242265">
<ele>26.050001</ele>
<time>2026-09-01T02:26:12.000Z</time>
</trkpt>
<trkpt lat="59.5491475" lon="31.1239760">
<ele>28.699999</ele>
<time>2026-09-01T02:26:30.000Z</time>
</trkpt>
<trkpt lat="59.5493918" lon="31.1237014">
<ele>27.460001</ele>
<time>2026-09-01T02:26:56.000Z</time>
</trkpt>
<trkpt lat="59.5496179" lon="31.1232816">
<ele>27.059999</ele>
<time>2026-09-01T02:27:21.000Z</time>
</trkpt>
<trkpt lat="59.5496208" lon="31.1228437">
<ele>33.020000</ele>
<time>2026-09-01T02:27:32.000Z</time>
</trkpt>
<trkpt lat="59.5496240" lon="31.1227565">
<ele>34.489998</ele>
<time>2026-09-01T02:27:36.000Z</time>
</trkpt>
<trkpt lat="59.5495401" lon="31.1224979">
<ele>33.590000</ele>
<time>2026-09-01T02:27:50.000Z</time>
</trkpt>
<trkpt lat="59.5494680" lon="31.1223007">
<ele>28.469999</ele>
<time>2026-09-01T02:28:04.000Z</time>
</trkpt>
<trkpt lat="59.5494996" lon="31.1221233">
<ele>23.629999</ele>
<time>2026-09-01T02:28:20.000Z</time>
</trkpt>
<trkpt lat="59.5495940" lon="31.1219130">
<ele>18.080000</ele>
<time>2026-09-01T02:28:36.000Z</time>
</trkpt>
<trkpt lat="59.5496513" lon="31.1215975">
<ele>14.219999</ele>
<time>2026-09-01T02:28:56.000Z</time>
</trkpt>
<trkpt lat="59.5497552" lon="31.1211388">
<ele>14.230000</ele>
<time>2026-09-01T02:29:20.000Z</time>
</trkpt>
<trkpt lat="59.5498328" lon="31.1205908">
<ele>12.099999</ele>
<time>2026-09-01T02:29:44.000Z</time>
</trkpt>
<trkpt lat="59.5498987" lon="31.1199327">
<ele>15.010000</ele>
<time>2026-09-01T02:30:08.000Z</time>
</trkpt>
<trkpt lat="59.5499814" lon="31.1195347">
<ele>15.240000</ele>
<time>2026-09-01T02:30:33.000Z</time>
</trkpt>
<trkpt lat="59.5500902" lon="31.1191334">
<ele>14.070001</ele>
<time>2026-09-01T02:30:55.000Z</time>
</trkpt>
<trkpt lat="59.5501442" lon="31.1187348">
<ele>13.400000</ele>
<time>2026-09-01T02:31:14.000Z</time>
</trkpt>
<trkpt lat="59.5502704" lon="31.1181878">
<ele>14.920000</ele>
<time>2026-09-01T02:31:36.000Z</time>
</trkpt>
<trkpt lat="59.5503647" lon="31.1177737">
<ele>16.260000</ele>
<time>2026-09-01T02:32:04.000Z</time>
</trkpt>
<trkpt lat="59.5504415" lon="31.1172295">
<ele>15.929999</ele>
<time>2026-09-01T02:32:28.000Z</time>
</trkpt>
<trkpt lat="59.5505242" lon="31.1170042">
<ele>14.770000</ele>
<time>2026-09-01T02:32:42.000Z</time>
</trkpt>
<trkpt lat="59.5506000" lon="31.1166866">
<ele>16.619999</ele>
<time>2026-09-01T02:32:55.000Z</time>
</trkpt>
<trkpt lat="59.5507133" lon="31.1162019">
<ele>18.260000</ele>
<time>2026-09-01T02:33:17.000Z</time>
</trkpt>
<trkpt lat="59.5507827" lon="31.1159421">
<ele>18.820000</ele>
<time>2026-09-01T02:33:31.000Z</time>
</trkpt>
<trkpt lat="59.5509254" lon="31.1154306">
<ele>16.870001</ele>
<time>2026-09-01T02:33:55.000Z</time>
</trkpt>
<trkpt lat="59.5510649" lon="31.1149623">
<ele>15.270000</ele>
<time>2026-09-01T02:34:17.000Z</time>
</trkpt>
<trkpt lat="59.5512458" lon="31.1145333">
<ele>16.470001</ele>
<time>2026-09-01T02:34:41.000Z</time>
</trkpt>
<trkpt lat="59.5514377" lon="31.1141555">
<ele>19.950001</ele>
<time>2026-09-01T02:35:03.000Z</time>
</trkpt>
<trkpt lat="59.5515455" lon="31.1139493">
<ele>21.309999</ele>
<time>2026-09-01T02:35:18.000Z</time>
</trkpt>
<trkpt lat="59.5515576" lon="31.1134628">
<ele>24.290001</ele>
<time>2026-09-01T02:35:41.000Z</time>
</trkpt>
<trkpt lat="59.5515286" lon="31.1134580">
<ele>29.469999</ele>
<time>2026-09-01T02:36:04.000Z</time>
</trkpt>
<trkpt lat="59.5515214" lon="31.1133538">
<ele>31.880001</ele>
<time>2026-09-01T02:36:31.000Z</time>
</trkpt>
<trkpt lat="59.5515146" lon="31.1133849">
<ele>32.430000</ele>
<time>2026-09-01T02:36:54.000Z</time>
</trkpt>
<trkpt lat="59.5515283" lon="31.1133931">
<ele>32.490002</ele>
<time>2026-09-01T02:37:10.000Z</time>
</trkpt>
<trkpt lat="59.5515314" lon="31.1133890">
<ele>33.790001</ele>
<time>2026-09-01T02:37:37.000Z</time>
</trkpt>
<trkpt lat="59.5515115" lon="31.1133572">
<ele>35.549999</ele>
<time>2026-09-01T02:38:08.000Z</time>
</trkpt>
<trkpt lat="59.5515157" lon="31.1132928">
<ele>35.740002</ele>
<time>2026-09-01T02:38:42.000Z</time>
</trkpt>
<trkpt lat="59.5520933" lon="31.1125931">
<ele>36.509998</ele>
<time>2026-09-01T02:40:32.000Z</time>
</trkpt>
<trkpt lat="59.5522881" lon="31.1118489">
<ele>36.310001</ele>
<time>2026-09-01T02:40:50.000Z</time>
</trkpt>
<trkpt lat="59.5523854" lon="31.1109449">
<ele>35.849998</ele>
<time>2026-09-01T02:41:07.000Z</time>
</trkpt>
<trkpt lat="59.5524901" lon="31.1102343">
<ele>35.980000</ele>
<time>2026-09-01T02:41:24.000Z</time>
</trkpt>
<trkpt lat="59.5526024" lon="31.1097908">
<ele>36.189999</ele>
<time>2026-09-01T02:41:37.000Z</time>
</trkpt>
<trkpt lat="59.5528524" lon="31.1091703">
<ele>37.610001</ele>
<time>2026-09-01T02:41:52.000Z</time>
</trkpt>
<trkpt lat="59.5530934" lon="31.1088068">
<ele>38.510002</ele>
<time>2026-09-01T02:42:06.000Z</time>
</trkpt>
<trkpt lat="59.5533189" lon="31.1082560">
<ele>39.570000</ele>
<time>2026-09-01T02:42:17.000Z</time>
</trkpt>
<trkpt lat="59.5536881" lon="31.1072905">
<ele>47.440002</ele>
<time>2026-09-01T02:42:33.000Z</time>
</trkpt>
<trkpt lat="59.5539379" lon="31.1068071">
<ele>49.570004</ele>
<time>2026-09-01T02:42:46.000Z</time>
</trkpt>
<trkpt lat="59.5541061" lon="31.1065493">
<ele>51.160000</ele>
<time>2026-09-01T02:42:58.000Z</time>
</trkpt>
<trkpt lat="59.5542118" lon="31.1063948">
<ele>51.450001</ele>
<time>2026-09-01T02:43:07.000Z</time>
</trkpt>
<trkpt lat="59.5542978" lon="31.1061786">
<ele>51.500000</ele>
<time>2026-09-01T02:43:16.000Z</time>
</trkpt>
<trkpt lat="59.5545298" lon="31.1058815">
<ele>52.550003</ele>
<time>2026-09-01T02:43:37.000Z</time>
</trkpt>
<trkpt lat="59.5546652" lon="31.1056714">
<ele>51.689999</ele>
<time>2026-09-01T02:43:51.000Z</time>
</trkpt>
<trkpt lat="59.5547597" lon="31.1054450">
<ele>51.480003</ele>
<time>2026-09-01T02:43:59.000Z</time>
</trkpt>
<trkpt lat="59.5548649" lon="31.1051838">
<ele>51.239998</ele>
<time>2026-09-01T02:44:08.000Z</time>
</trkpt>
<trkpt lat="59.5550517" lon="31.1049167">
<ele>50.500000</ele>
<time>2026-09-01T02:44:21.000Z</time>
</trkpt>
<trkpt lat="59.5551724" lon="31.1048116">
<ele>50.340000</ele>
<time>2026-09-01T02:44:26.000Z</time>
</trkpt>
<trkpt lat="59.5554761" lon="31.1044835">
<ele>48.629997</ele>
<time>2026-09-01T02:44:42.000Z</time>
</trkpt>
<trkpt lat="59.5558901" lon="31.1041694">
<ele>47.540001</ele>
<time>2026-09-01T02:44:57.000Z</time>
</trkpt>
<trkpt lat="59.5563160" lon="31.1039083">
<ele>46.000000</ele>
<time>2026-09-01T02:45:13.000Z</time>
</trkpt>
<trkpt lat="59.5567118" lon="31.1036605">
<ele>46.000000</ele>
<time>2026-09-01T02:45:27.000Z</time>
</trkpt>
<trkpt lat="59.5569738" lon="31.1034946">
<ele>45.860001</ele>
<time>2026-09-01T02:45:40.000Z</time>
</trkpt>
<trkpt lat="59.5570061" lon="31.1034870">
<ele>47.869999</ele>
<time>2026-09-01T02:46:03.000Z</time>
</trkpt>
<trkpt lat="59.5571131" lon="31.1034092">
<ele>48.570000</ele>
<time>2026-09-01T02:46:20.000Z</time>
</trkpt>
<trkpt lat="59.5572982" lon="31.1032857">
<ele>49.109997</ele>
<time>2026-09-01T02:46:38.000Z</time>
</trkpt>
<trkpt lat="59.5573619" lon="31.1031992">
<ele>50.040001</ele>
<time>2026-09-01T02:46:53.000Z</time>
</trkpt>
<trkpt lat="59.5573795" lon="31.1031662">
<ele>50.160000</ele>
<time>2026-09-01T02:46:56.000Z</time>
</trkpt>
<trkpt lat="59.5575272" lon="31.1028827">
<ele>49.789997</ele>
<time>2026-09-01T02:47:13.000Z</time>
</trkpt>
<trkpt lat="59.5577191" lon="31.1025544">
<ele>49.040001</ele>
<time>2026-09-01T02:47:28.000Z</time>
</trkpt>
<trkpt lat="59.5578638" lon="31.1022393">
<ele>48.200001</ele>
<time>2026-09-01T02:47:43.000Z</time>
</trkpt>
<trkpt lat="59.5579763" lon="31.1019939">
<ele>47.320000</ele>
<time>2026-09-01T02:47:57.000Z</time>
</trkpt>
</trkseg>
<trkseg>
<trkpt lat="59.4805676" lon="31.0219869">
<ele>52.260002</ele>
<time>2026-08-31T20:39:55.000Z</time>
</trkpt>
<trkpt lat="59.4805869" lon="31.0220009">
<ele>52.149998</ele>
<time>2026-08-31T20:40:21.000Z</time>
</trkpt>
<trkpt lat="59.4805607" lon="31.0220090">
<ele>51.389999</ele>
<time>2026-08-31T20:40:52.000Z</time>
</trkpt>
<trkpt lat="59.4805884" lon="31.0219936">
<ele>52.160004</ele>
<time>2026-08-31T20:41:17.000Z</time>
</trkpt>
<trkpt lat="59.4805882" lon="31.0219896">
<ele>52.599998</ele>
<time>2026-08-31T20:41:36.000Z</time>
</trkpt>
<trkpt lat="59.4805552" lon="31.0220134">
<ele>53.110001</ele>
<time>2026-08-31T20:41:55.000Z</time>
</trkpt>
<trkpt lat="59.4805898" lon="31.0219835">
<ele>52.710003</ele>
<time>2026-08-31T20:42:18.000Z</time>
</trkpt>
<trkpt lat="59.4805929" lon="31.0219095">
<ele>51.910000</ele>
<time>2026-08-31T20:42:47.000Z</time>
</trkpt>
<trkpt lat="59.4805818" lon="31.0219383">
<ele>49.910000</ele>
<time>2026-08-31T20:43:17.000Z</time>
</trkpt>
<trkpt lat="59.4805853" lon="31.0218875">
<ele>51.689999</ele>
<time>2026-08-31T20:43:50.000Z</time>
</trkpt>
<trkpt lat="59.4805806" lon="31.0219027">
<ele>52.090000</ele>
<time>2026-08-31T20:44:15.000Z</time>
</trkpt>
<trkpt lat="59.4805675" lon="31.0219612">
<ele>51.650002</ele>
<time>2026-08-31T20:44:41.000Z</time>
</trkpt>
<trkpt lat="59.4806037" lon="31.0219235">
<ele>50.970001</ele>
<time>2026-08-31T20:45:03.000Z</time>
</trkpt>
<trkpt lat="59.4805859" lon="31.0219726">
<ele>50.529999</ele>
<time>2026-08-31T20:45:32.000Z</time>
</trkpt>
<trkpt lat="59.4806032" lon="31.0219631">
<ele>50.290001</ele>
<time>2026-08-31T20:45:58.000Z</time>
</trkpt>
<trkpt lat="59.4805901" lon="31.0220052">
<ele>50.160000</ele>
<time>2026-08-31T20:46:11.000Z</time>
</trkpt>
<trkpt lat="59.4805577" lon="31.0220850">
<ele>50.049999</ele>
<time>2026-08-31T20:46:15.000Z</time>
</trkpt>
<trkpt lat="59.4804649" lon="31.0223518">
<ele>49.970001</ele>
<time>2026-08-31T20:46:21.000Z</time>
</trkpt>
<trkpt lat="59.4800262" lon="31.0231372">
<ele>47.799999</ele>
<time>2026-08-31T20:46:36.000Z</time>
</trkpt>
<trkpt lat="59.4798039" lon="31.0234260">
<ele>48.559998</ele>
<time>2026-08-31T20:46:47.000Z</time>
</trkpt>
<trkpt lat="59.4798065" lon="31.0234610">
<ele>50.880001</ele>
<time>2026-08-31T20:47:07.000Z</time>
</trkpt>
<trkpt lat="59.4797319" lon="31.0234874">
<ele>48.919998</ele>
<time>2026-08-31T20:47:35.000Z</time>
</trkpt>
<trkpt lat="59.4797192" lon="31.0235456">
<ele>49.230000</ele>
<time>2026-08-31T20:47:51.000Z</time>
</trkpt>
<trkpt lat="59.4796133" lon="31.0238289">
<ele>49.190002</ele>
<time>2026-08-31T20:47:57.000Z</time>
</trkpt>
<trkpt lat="59.4793971" lon="31.0241760">
<ele>49.090000</ele>
<time>2026-08-31T20:48:04.000Z</time>
</trkpt>
<trkpt lat="59.4790583" lon="31.0242628">
<ele>48.840000</ele>
<time>2026-08-31T20:48:14.000Z</time>
</trkpt>
<trkpt lat="59.4787451" lon="31.0237489">
<ele>46.220001</ele>
<time>2026-08-31T20:48:27.000Z</time>
</trkpt>
<trkpt lat="59.4782857" lon="31.0228865">
<ele>41.750000</ele>
<time>2026-08-31T20:48:45.000Z</time>
</trkpt>
<trkpt lat="59.4782306" lon="31.0227620">
<ele>42.290001</ele>
<time>2026-08-31T20:48:47.000Z</time>
</trkpt>
<trkpt lat="59.4777070" lon="31.0216960">
<ele>50.099998</ele>
<time>2026-08-31T20:49:02.000Z</time>
</trkpt>
<trkpt lat="59.4772672" lon="31.0208645">
<ele>49.990002</ele>
<time>2026-08-31T20:49:14.000Z</time>
</trkpt>
<trkpt lat="59.4768849" lon="31.0199517">
<ele>53.330002</ele>
<time>2026-08-31T20:49:30.000Z</time>
</trkpt>
<trkpt lat="59.4767777" lon="31.0197376">
<ele>49.830002</ele>
<time>2026-08-31T20:49:35.000Z</time>
</trkpt>
<trkpt lat="59.4762552" lon="31.0187408">
<ele>49.500000</ele>
<time>2026-08-31T20:49:50.000Z</time>
</trkpt>
<trkpt lat="59.4756320" lon="31.0174556">
<ele>47.310001</ele>
<time>2026-08-31T20:50:04.000Z</time>
</trkpt>
<trkpt lat="59.4749189" lon="31.0161041">
<ele>52.369999</ele>
<time>2026-08-31T20:50:18.000Z</time>
</trkpt>
<trkpt lat="59.4743222" lon="31.0147311">
<ele>56.480000</ele>
<time>2026-08-31T20:50:29.000Z</time>
</trkpt>
<trkpt lat="59.4733406" lon="31.0128334">
<ele>52.759998</ele>
<time>2026-08-31T20:50:44.000Z</time>
</trkpt>
<trkpt lat="59.4726205" lon="31.0122541">
<ele>48.709999</ele>
<time>2026-08-31T20:50:54.000Z</time>
</trkpt>
<trkpt lat="59.4723308" lon="31.0121583">
<ele>47.329998</ele>
<time>2026-08-31T20:50:58.000Z</time>
</trkpt>
<trkpt lat="59.4714448" lon="31.0125908">
<ele>41.160000</ele>
<time>2026-08-31T20:51:10.000Z</time>
</trkpt>
<trkpt lat="59.4703291" lon="31.0132823">
<ele>40.680000</ele>
<time>2026-08-31T20:51:25.000Z</time>
</trkpt>
<trkpt lat="59.4693555" lon="31.0138820">
<ele>44.420002</ele>
<time>2026-08-31T20:51:39.000Z</time>
</trkpt>
<trkpt lat="59.4686474" lon="31.0143189">
<ele>46.460003</ele>
<time>2026-08-31T20:51:52.000Z</time>
</trkpt>
<trkpt lat="59.4682984" lon="31.0145665">
<ele>48.299999</ele>
<time>2026-08-31T20:52:01.000Z</time>
</trkpt>
<trkpt lat="59.4681617" lon="31.0146449">
<ele>48.919998</ele>
<time>2026-08-31T20:52:04.000Z</time>
</trkpt>
<trkpt lat="59.4678780" lon="31.0143923">
<ele>50.770000</ele>
<time>2026-08-31T20:52:11.000Z</time>
</trkpt>
<trkpt lat="59.4672395" lon="31.0131475">
<ele>50.989998</ele>
<time>2026-08-31T20:52:24.000Z</time>
</trkpt>
<trkpt lat="59.4670039" lon="31.0127626">
<ele>48.970001</ele>
<time>2026-08-31T20:52:33.000Z</time>
</trkpt>
<trkpt lat="59.4666012" lon="31.0134597">
<ele>48.210003</ele>
<time>2026-08-31T20:52:41.000Z</time>
</trkpt>
<trkpt lat="59.4657553" lon="31.0150520">
<ele>46.310001</ele>
<time>2026-08-31T20:52:51.000Z</time>
</trkpt>
<trkpt lat="59.4642336" lon="31.0178050">
<ele>47.500000</ele>
<time>2026-08-31T20:53:04.000Z</time>
</trkpt>
<trkpt lat="59.4624237" lon="31.0211264">
<ele>46.980003</ele>
<time>2026-08-31T20:53:17.000Z</time>
</trkpt>
<trkpt lat="59.4605065" lon="31.0246267">
<ele>50.090000</ele>
<time>2026-08-31T20:53:31.000Z</time>
</trkpt>
<trkpt lat="59.4583255" lon="31.0286467">
<ele>47.480000</ele>
<time>2026-08-31T20:53:47.000Z</time>
</trkpt>
<trkpt lat="59.4566515" lon="31.0316983">
<ele>48.430000</ele>
<time>2026-08-31T20:53:59.000Z</time>
</trkpt>
<trkpt lat="59.4548639" lon="31.0349591">
<ele>52.010002</ele>
<time>2026-08-31T20:54:12.000Z</time>
</trkpt>
<trkpt lat="59.4526051" lon="31.0390722">
<ele>54.889999</ele>
<time>2026-08-31T20:54:28.000Z</time>
</trkpt>
<trkpt lat="59.4505394" lon="31.0429004">
<ele>55.220001</ele>
<time>2026-08-31T20:54:43.000Z</time>
</trkpt>
<trkpt lat="59.4484752" lon="31.0467532">
<ele>53.739998</ele>
<time>2026-08-31T20:54:58.000Z</time>
</trkpt>
<trkpt lat="59.4465143" lon="31.0503969">
<ele>59.400002</ele>
<time>2026-08-31T20:55:11.000Z</time>
</trkpt>
<trkpt lat="59.4450476" lon="31.0531394">
<ele>62.119999</ele>
<time>2026-08-31T20:55:21.000Z</time>
</trkpt>
<trkpt lat="59.4433651" lon="31.0563039">
<ele>62.540001</ele>
<time>2026-08-31T20:55:33.000Z</time>
</trkpt>
<trkpt lat="59.4412397" lon="31.0602847">
<ele>60.620003</ele>
<time>2026-08-31T20:55:49.000Z</time>
</trkpt>
<trkpt lat="59.4391303" lon="31.0641838">
<ele>56.340000</ele>
<time>2026-08-31T20:56:05.000Z</time>
</trkpt>
<trkpt lat="59.4371294" lon="31.0679012">
<ele>58.640003</ele>
<time>2026-08-31T20:56:20.000Z</time>
</trkpt>
<trkpt lat="59.4349254" lon="31.0720267">
<ele>60.360001</ele>
<time>2026-08-31T20:56:36.000Z</time>
</trkpt>
<trkpt lat="59.4329588" lon="31.0757115">
<ele>64.740005</ele>
<time>2026-08-31T20:56:50.000Z</time>
</trkpt>
<trkpt lat="59.4307941" lon="31.0797009">
<ele>64.230003</ele>
<time>2026-08-31T20:57:05.000Z</time>
</trkpt>
<trkpt lat="59.4286408" lon="31.0837621">
<ele>59.190002</ele>
<time>2026-08-31T20:57:19.000Z</time>
</trkpt>
<trkpt lat="59.4262034" lon="31.0882833">
<ele>63.639999</ele>
<time>2026-08-31T20:57:34.000Z</time>
</trkpt>
<trkpt lat="59.4238402" lon="31.0926979">
<ele>61.980000</ele>
<time>2026-08-31T20:57:48.000Z</time>
</trkpt>
<trkpt lat="59.4215032" lon="31.0970691">
<ele>56.130001</ele>
<time>2026-08-31T20:58:02.000Z</time>
</trkpt>
<trkpt lat="59.4185826" lon="31.1024454">
<ele>51.899998</ele>
<time>2026-08-31T20:58:19.000Z</time>
</trkpt>
<trkpt lat="59.4162221" lon="31.1068060">
<ele>56.559998</ele>
<time>2026-08-31T20:58:33.000Z</time>
</trkpt>
<trkpt lat="59.4137504" lon="31.1114207">
<ele>55.559998</ele>
<time>2026-08-31T20:58:48.000Z</time>
</trkpt>
<trkpt lat="59.4125502" lon="31.1136620">
<ele>56.879997</ele>
<time>2026-08-31T20:58:57.000Z</time>
</trkpt>
<trkpt lat="59.4109723" lon="31.1166348">
<ele>58.360001</ele>
<time>2026-08-31T20:59:10.000Z</time>
</trkpt>
<trkpt lat="59.4094633" lon="31.1194485">
<ele>57.540001</ele>
<time>2026-08-31T20:59:24.000Z</time>
</trkpt>
<trkpt lat="59.4086032" lon="31.1211533">
<ele>56.700001</ele>
<time>2026-08-31T20:59:35.000Z</time>
</trkpt>
<trkpt lat="59.4081016" lon="31.1220808">
<ele>54.010002</ele>
<time>2026-08-31T20:59:45.000Z</time>
</trkpt>
<trkpt lat="59.4081220" lon="31.1225834">
<ele>50.689999</ele>
<time>2026-08-31T20:59:52.000Z</time>
</trkpt>
<trkpt lat="59.4086869" lon="31.1237325">
<ele>45.110001</ele>
<time>2026-08-31T21:00:07.000Z</time>
</trkpt>
<trkpt lat="59.4094170" lon="31.1252406">
<ele>42.270000</ele>
<time>2026-08-31T21:00:23.000Z</time>
</trkpt>
<trkpt lat="59.4101233" lon="31.1267682">
<ele>49.079998</ele>
<time>2026-08-31T21:00:37.000Z</time>
</trkpt>
<trkpt lat="59.4109894" lon="31.1287750">
<ele>50.870003</ele>
<time>2026-08-31T21:00:54.000Z</time>
</trkpt>
<trkpt lat="59.4117473" lon="31.1307202">
<ele>49.389999</ele>
<time>2026-08-31T21:01:08.000Z</time>
</trkpt>
<trkpt lat="59.4124035" lon="31.1325120">
<ele>47.659996</ele>
<time>2026-08-31T21:01:21.000Z</time>
</trkpt>
<trkpt lat="59.4131728" lon="31.1345171">
<ele>46.439999</ele>
<time>2026-08-31T21:01:36.000Z</time>
</trkpt>
<trkpt lat="59.4134202" lon="31.1351852">
<ele>44.520000</ele>
<time>2026-08-31T21:01:41.000Z</time>
</trkpt>
<trkpt lat="59.4135526" lon="31.1365373">
<ele>46.040001</ele>
<time>2026-08-31T21:01:51.000Z</time>
</trkpt>
<trkpt lat="59.4131422" lon="31.1369434">
<ele>45.579998</ele>
<time>2026-08-31T21:01:57.000Z</time>
</trkpt>
<trkpt lat="59.4127014" lon="31.1365761">
<ele>47.310001</ele>
<time>2026-08-31T21:02:03.000Z</time>
</trkpt>
<trkpt lat="59.4125469" lon="31.1355584">
<ele>49.369999</ele>
<time>2026-08-31T21:02:09.000Z</time>
</trkpt>
<trkpt lat="59.4126887" lon="31.1348545">
<ele>48.719997</ele>
<time>2026-08-31T21:02:14.000Z</time>
</trkpt>
<trkpt lat="59.4134182" lon="31.1337164">
<ele>50.480000</ele>
<time>2026-08-31T21:02:25.000Z</time>
</trkpt>
<trkpt lat="59.4139803" lon="31.1338025">
<ele>50.160000</ele>
<time>2026-08-31T21:02:32.000Z</time>
</trkpt>
<trkpt lat="59.4149029" lon="31.1350586">
<ele>40.779999</ele>
<time>2026-08-31T21:02:46.000Z</time>
</trkpt>
<trkpt lat="59.4151757" lon="31.1352395">
<ele>39.889999</ele>
<time>2026-08-31T21:02:50.000Z</time>
</trkpt>
<trkpt lat="59.4153920" lon="31.1353136">
<ele>37.930000</ele>
<time>2026-08-31T21:02:54.000Z</time>
</trkpt>
<trkpt lat="59.4157599" lon="31.1353554">
<ele>40.689999</ele>
<time>2026-08-31T21:03:07.000Z</time>
</trkpt>
<trkpt lat="59.4157550" lon="31.1353509">
<ele>41.900002</ele>
<time>2026-08-31T21:03:27.000Z</time>
</trkpt>
<trkpt lat="59.4157575" lon="31.1353692">
<ele>40.009998</ele>
<time>2026-08-31T21:03:55.000Z</time>
</trkpt>
<trkpt lat="59.4157505" lon="31.1353537">
<ele>41.919998</ele>
<time>2026-08-31T21:04:27.000Z</time>
</trkpt>
<trkpt lat="59.4157764" lon="31.1353587">
<ele>42.859997</ele>
<time>2026-08-31T21:04:58.000Z</time>
</trkpt>
<trkpt lat="59.4157727" lon="31.1353668">
<ele>43.030003</ele>
<time>2026-08-31T21:05:29.000Z</time>
</trkpt>
<trkpt lat="59.4160025" lon="31.1353569">
<ele>42.929996</ele>
<time>2026-08-31T21:05:44.000Z</time>
</trkpt>
<trkpt lat="59.4167428" lon="31.1353688">
<ele>45.049999</ele>
<time>2026-08-31T21:05:58.000Z</time>
</trkpt>
<trkpt lat="59.4177345" lon="31.1355722">
<ele>44.540001</ele>
<time>2026-08-31T21:06:09.000Z</time>
</trkpt>
<trkpt lat="59.4188009" lon="31.1363681">
<ele>38.149998</ele>
<time>2026-08-31T21:06:21.000Z</time>
</trkpt>
<trkpt lat="59.4196373" lon="31.1378249">
<ele>36.270000</ele>
<time>2026-08-31T21:06:33.000Z</time>
</trkpt>
<trkpt lat="59.4202817" lon="31.1398678">
<ele>32.380001</ele>
<time>2026-08-31T21:06:46.000Z</time>
</trkpt>
<trkpt lat="59.4210214" lon="31.1425892">
<ele>27.980000</ele>
<time>2026-08-31T21:07:00.000Z</time>
</trkpt>
<trkpt lat="59.4218264" lon="31.1454288">
<ele>23.420000</ele>
<time>2026-08-31T21:07:14.000Z</time>
</trkpt>
<trkpt lat="59.4224776" lon="31.1477476">
<ele>15.969999</ele>
<time>2026-08-31T21:07:26.000Z</time>
</trkpt>
<trkpt lat="59.4231451" lon="31.1501585">
<ele>8.889999</ele>
<time>2026-08-31T21:07:38.000Z</time>
</trkpt>
<trkpt lat="59.4235670" lon="31.1516667">
<ele>8.820000</ele>
<time>2026-08-31T21:07:47.000Z</time>
</trkpt>
<trkpt lat="59.4243083" lon="31.1542055">
<ele>10.340000</ele>
<time>2026-08-31T21:08:00.000Z</time>
</trkpt>
<trkpt lat="59.4247018" lon="31.1550733">
<ele>23.549999</ele>
<time>2026-08-31T21:08:05.000Z</time>
</trkpt>
<trkpt lat="59.4259570" lon="31.1563958">
<ele>22.740000</ele>
<time>2026-08-31T21:08:18.000Z</time>
</trkpt>
<trkpt lat="59.4273795" lon="31.1578820">
<ele>19.939999</ele>
<time>2026-08-31T21:08:32.000Z</time>
</trkpt>
<trkpt lat="59.4287843" lon="31.1593710">
<ele>6.320000</ele>
<time>2026-08-31T21:08:46.000Z</time>
</trkpt>
<trkpt lat="59.4297500" lon="31.1603982">
<ele>11.240000</ele>
<time>2026-08-31T21:08:57.000Z</time>
</trkpt>
<trkpt lat="59.4301474" lon="31.1608610">
<ele>21.999998</ele>
<time>2026-08-31T21:09:05.000Z</time>
</trkpt>
<trkpt lat="59.4301594" lon="31.1611740">
<ele>27.369999</ele>
<time>2026-08-31T21:09:09.000Z</time>
</trkpt>
<trkpt lat="59.4297659" lon="31.1627416">
<ele>31.570002</ele>
<time>2026-08-31T21:09:22.000Z</time>
</trkpt>
<trkpt lat="59.4293875" lon="31.1641138">
<ele>30.930000</ele>
<time>2026-08-31T21:09:32.000Z</time>
</trkpt>
<trkpt lat="59.4288366" lon="31.1660193">
<ele>30.440001</ele>
<time>2026-08-31T21:09:45.000Z</time>
</trkpt>
<trkpt lat="59.4287448" lon="31.1664379">
<ele>31.010000</ele>
<time>2026-08-31T21:09:50.000Z</time>
</trkpt>
<trkpt lat="59.4291140" lon="31.1668183">
<ele>30.570000</ele>
<time>2026-08-31T21:09:59.000Z</time>
</trkpt>
<trkpt lat="59.4301145" lon="31.1678412">
<ele>21.760000</ele>
<time>2026-08-31T21:10:17.000Z</time>
</trkpt>
<trkpt lat="59.4307118" lon="31.1684780">
<ele>19.859999</ele>
<time>2026-08-31T21:10:30.000Z</time>
</trkpt>
<trkpt lat="59.4312011" lon="31.1690166">
<ele>19.209999</ele>
<time>2026-08-31T21:10:43.000Z</time>
</trkpt>
<trkpt lat="59.4316045" lon="31.1694148">
<ele>13.280000</ele>
<time>2026-08-31T21:10:57.000Z</time>
</trkpt>
<trkpt lat="59.4319819" lon="31.1697869">
<ele>8.870000</ele>
<time>2026-08-31T21:11:11.000Z</time>
</trkpt>
<trkpt lat="59.4323819" lon="31.1702468">
<ele>10.809999</ele>
<time>2026-08-31T21:11:24.000Z</time>
</trkpt>
<trkpt lat="59.4326471" lon="31.1708483">
<ele>17.170000</ele>
<time>2026-08-31T21:11:38.000Z</time>
</trkpt>
<trkpt lat="59.4325709" lon="31.1716718">
<ele>21.879999</ele>
<time>2026-08-31T21:11:53.000Z</time>
</trkpt>
<trkpt lat="59.4325293" lon="31.1719580">
<ele>23.660000</ele>
<time>2026-08-31T21:12:01.000Z</time>
</trkpt>
<trkpt lat="59.4325540" lon="31.1721445">
<ele>24.870001</ele>
<time>2026-08-31T21:12:07.000Z</time>
</trkpt>
<trkpt lat="59.4327157" lon="31.1728024">
<ele>22.900000</ele>
<time>2026-08-31T21:12:22.000Z</time>
</trkpt>
<trkpt lat="59.4327749" lon="31.1731385">
<ele>20.879999</ele>
<time>2026-08-31T21:12:34.000Z</time>
</trkpt>
<trkpt lat="59.4327935" lon="31.1731218">
<ele>23.610001</ele>
<time>2026-08-31T21:12:49.000Z</time>
</trkpt>
<trkpt lat="59.4327725" lon="31.1730920">
<ele>24.680000</ele>
<time>2026-08-31T21:13:19.000Z</time>
</trkpt>
<trkpt lat="59.4327622" lon="31.1730955">
<ele>19.420000</ele>
<time>2026-08-31T21:14:17.000Z</time>
</trkpt>
<trkpt lat="59.4327822" lon="31.1731005">
<ele>22.740000</ele>
<time>2026-08-31T21:15:11.000Z</time>
</trkpt>
<trkpt lat="59.4327371" lon="31.1730358">
<ele>23.500000</ele>
<time>2026-08-31T21:15:55.000Z</time>
</trkpt>
<trkpt lat="59.4327530" lon="31.1730088">
<ele>23.740000</ele>
<time>2026-08-31T21:15:58.000Z</time>
</trkpt>
<trkpt lat="59.4327378" lon="31.1728597">
<ele>23.900000</ele>
<time>2026-08-31T21:16:03.000Z</time>
</trkpt>
<trkpt lat="59.4325895" lon="31.1722163">
<ele>24.249998</ele>
<time>2026-08-31T21:16:19.000Z</time>
</trkpt>
<trkpt lat="59.4325594" lon="31.1716355">
<ele>25.670000</ele>
<time>2026-08-31T21:16:32.000Z</time>
</trkpt>
<trkpt lat="59.4326396" lon="31.1709097">
<ele>24.439999</ele>
<time>2026-08-31T21:16:46.000Z</time>
</trkpt>
<trkpt lat="59.4326965" lon="31.1708071">
<ele>25.609999</ele>
<time>2026-08-31T21:16:57.000Z</time>
</trkpt>
<trkpt lat="59.4327336" lon="31.1708094">
<ele>26.070000</ele>
<time>2026-08-31T21:17:03.000Z</time>
</trkpt>
<trkpt lat="59.4327478" lon="31.1708030">
<ele>26.810001</ele>
<time>2026-08-31T21:17:24.000Z</time>
</trkpt>
<trkpt lat="59.4327521" lon="31.1707696">
<ele>25.070000</ele>
<time>2026-08-31T21:17:46.000Z</time>
</trkpt>
<trkpt lat="59.4328225" lon="31.1707615">
<ele>25.290001</ele>
<time>2026-08-31T21:17:50.000Z</time>
</trkpt>
<trkpt lat="59.4329912" lon="31.1710162">
<ele>25.389999</ele>
<time>2026-08-31T21:17:59.000Z</time>
</trkpt>
<trkpt lat="59.4332059" lon="31.1715327">
<ele>27.350000</ele>
<time>2026-08-31T21:18:12.000Z</time>
</trkpt>
<trkpt lat="59.4333590" lon="31.1721650">
<ele>28.969999</ele>
<time>2026-08-31T21:18:24.000Z</time>
</trkpt>
<trkpt lat="59.4334658" lon="31.1727486">
<ele>29.020000</ele>
<time>2026-08-31T21:18:37.000Z</time>
</trkpt>
<trkpt lat="59.4335057" lon="31.1729368">
<ele>28.000000</ele>
<time>2026-08-31T21:18:49.000Z</time>
</trkpt>
<trkpt lat="59.4335306" lon="31.1729425">
<ele>30.080002</ele>
<time>2026-08-31T21:19:16.000Z</time>
</trkpt>
<trkpt lat="59.4335269" lon="31.1729226">
<ele>31.219999</ele>
<time>2026-08-31T21:19:42.000Z</time>
</trkpt>
<trkpt lat="59.4334893" lon="31.1729746">
<ele>30.170000</ele>
<time>2026-08-31T21:20:13.000Z</time>
</trkpt>
<trkpt lat="59.4334682" lon="31.1729157">
<ele>29.500000</ele>
<time>2026-08-31T21:20:39.000Z</time>
</trkpt>
<trkpt lat="59.4334670" lon="31.1728830">
<ele>29.639999</ele>
<time>2026-08-31T21:21:05.000Z</time>
</trkpt>
<trkpt lat="59.4334853" lon="31.1728048">
<ele>28.699999</ele>
<time>2026-08-31T21:21:24.000Z</time>
</trkpt>
<trkpt lat="59.4334892" lon="31.1727938">
<ele>28.610001</ele>
<time>2026-08-31T21:21:47.000Z</time>
</trkpt>
<trkpt lat="59.4334928" lon="31.1727780">
<ele>28.750000</ele>
<time>2026-08-31T21:22:15.000Z</time>
</trkpt>
<trkpt lat="59.4335006" lon="31.1728394">
<ele>27.840000</ele>
<time>2026-08-31T21:22:50.000Z</time>
</trkpt>
<trkpt lat="59.4334928" lon="31.1728446">
<ele>28.879999</ele>
<time>2026-08-31T21:23:15.000Z</time>
</trkpt>
<trkpt lat="59.4334877" lon="31.1728597">
<ele>28.680000</ele>
<time>2026-08-31T21:23:33.000Z</time>
</trkpt>
<trkpt lat="59.4334946" lon="31.1727884">
<ele>28.779999</ele>
<time>2026-08-31T21:23:57.000Z</time>
</trkpt>
<trkpt lat="59.4335067" lon="31.1727756">
<ele>30.130001</ele>
<time>2026-08-31T21:24:25.000Z</time>
</trkpt>
<trkpt lat="59.4335250" lon="31.1727393">
<ele>30.830000</ele>
<time>2026-08-31T21:25:00.000Z</time>
</trkpt>
<trkpt lat="59.4335154" lon="31.1728375">
<ele>31.629999</ele>
<time>2026-08-31T21:25:27.000Z</time>
</trkpt>
<trkpt lat="59.4335195" lon="31.1728991">
<ele>32.950001</ele>
<time>2026-08-31T21:25:45.000Z</time>
</trkpt>
<trkpt lat="59.4335207" lon="31.1729088">
<ele>32.980000</ele>
<time>2026-08-31T21:26:09.000Z</time>
</trkpt>
<trkpt lat="59.4335225" lon="31.1729365">
<ele>33.689999</ele>
<time>2026-08-31T21:26:39.000Z</time>
</trkpt>
<trkpt lat="59.4334935" lon="31.1729457">
<ele>34.910000</ele>
<time>2026-08-31T21:27:23.000Z</time>
</trkpt>
<trkpt lat="59.4335077" lon="31.1729800">
<ele>35.959999</ele>
<time>2026-08-31T21:27:52.000Z</time>
</trkpt>
<trkpt lat="59.4335385" lon="31.1729864">
<ele>36.270000</ele>
<time>2026-08-31T21:28:22.000Z</time>
</trkpt>
<trkpt lat="59.4335478" lon="31.1729564">
<ele>35.880001</ele>
<time>2026-08-31T21:28:42.000Z</time>
</trkpt>
<trkpt lat="59.4335425" lon="31.1728622">
<ele>35.760002</ele>
<time>2026-08-31T21:29:08.000Z</time>
</trkpt>
<trkpt lat="59.4335285" lon="31.1728443">
<ele>35.820000</ele>
<time>2026-08-31T21:29:37.000Z</time>
</trkpt>
<trkpt lat="59.4335058" lon="31.1728305">
<ele>35.270000</ele>
<time>2026-08-31T21:30:06.000Z</time>
</trkpt>
<trkpt lat="59.4335096" lon="31.1728780">
<ele>35.119999</ele>
<time>2026-08-31T21:30:31.000Z</time>
</trkpt>
<trkpt lat="59.4335180" lon="31.1728985">
<ele>35.299999</ele>
<time>2026-08-31T21:30:57.000Z</time>
</trkpt>
<trkpt lat="59.4334867" lon="31.1728835">
<ele>35.920002</ele>
<time>2026-08-31T21:31:25.000Z</time>
</trkpt>
<trkpt lat="59.4334884" lon="31.1728585">
<ele>36.230000</ele>
<time>2026-08-31T21:31:51.000Z</time>
</trkpt>
<trkpt lat="59.4335006" lon="31.1728641">
<ele>36.650002</ele>
<time>2026-08-31T21:32:20.000Z</time>
</trkpt>
<trkpt lat="59.4335716" lon="31.1730959">
<ele>36.579998</ele>
<time>2026-08-31T21:32:41.000Z</time>
</trkpt>
<trkpt lat="59.4336479" lon="31.1733469">
<ele>36.760002</ele>
<time>2026-08-31T21:32:56.000Z</time>
</trkpt>
<trkpt lat="59.4337087" lon="31.1733870">
<ele>36.669998</ele>
<time>2026-08-31T21:33:02.000Z</time>
</trkpt>
<trkpt lat="59.4337480" lon="31.1734262">
<ele>36.770000</ele>
<time>2026-08-31T21:33:06.000Z</time>
</trkpt>
<trkpt lat="59.4337724" lon="31.1734414">
<ele>36.950001</ele>
<time>2026-08-31T21:33:08.000Z</time>
</trkpt>
<trkpt lat="59.4338886" lon="31.1735664">
<ele>37.349998</ele>
<time>2026-08-31T21:33:23.000Z</time>
</trkpt>
<trkpt lat="59.4340336" lon="31.1737532">
<ele>36.629997</ele>
<time>2026-08-31T21:33:39.000Z</time>
</trkpt>
<trkpt lat="59.4341529" lon="31.1739067">
<ele>36.509998</ele>
<time>2026-08-31T21:33:53.000Z</time>
</trkpt>
<trkpt lat="59.4341926" lon="31.1739964">
<ele>36.450001</ele>
<time>2026-08-31T21:34:00.000Z</time>
</trkpt>
<trkpt lat="59.4343531" lon="31.1741624">
<ele>35.829998</ele>
<time>2026-08-31T21:34:19.000Z</time>
</trkpt>
<trkpt lat="59.4344550" lon="31.1742987">
<ele>35.619999</ele>
<time>2026-08-31T21:34:29.000Z</time>
</trkpt>
<trkpt lat="59.4344782" lon="31.1743443">
<ele>36.030003</ele>
<time>2026-08-31T21:34:32.000Z</time>
</trkpt>
<trkpt lat="59.4344820" lon="31.1745618">
<ele>37.110001</ele>
<time>2026-08-31T21:34:44.000Z</time>
</trkpt>
<trkpt lat="59.4343735" lon="31.1748779">
<ele>36.689999</ele>
<time>2026-08-31T21:35:02.000Z</time>
</trkpt>
<trkpt lat="59.4342760" lon="31.1751017">
<ele>34.279999</ele>
<time>2026-08-31T21:35:19.000Z</time>
</trkpt>
<trkpt lat="59.4341745" lon="31.1753433">
<ele>32.490002</ele>
<time>2026-08-31T21:35:35.000Z</time>
</trkpt>
<trkpt lat="59.4340745" lon="31.1755317">
<ele>31.740000</ele>
<time>2026-08-31T21:35:52.000Z</time>
</trkpt>
<trkpt lat="59.4339812" lon="31.1755168">
<ele>32.720001</ele>
<time>2026-08-31T21:36:04.000Z</time>
</trkpt>
<trkpt lat="59.4338426" lon="31.1755914">
<ele>34.310001</ele>
<time>2026-08-31T21:36:19.000Z</time>
</trkpt>
<trkpt lat="59.4338291" lon="31.1756260">
<ele>34.400002</ele>
<time>2026-08-31T21:36:21.000Z</time>
</trkpt>
<trkpt lat="59.4338134" lon="31.1758473">
<ele>34.910000</ele>
<time>2026-08-31T21:36:41.000Z</time>
</trkpt>
<trkpt lat="59.4338637" lon="31.1759051">
<ele>35.130001</ele>
<time>2026-08-31T21:36:48.000Z</time>
</trkpt>
<trkpt lat="59.4340212" lon="31.1760735">
<ele>35.680000</ele>
<time>2026-08-31T21:37:06.000Z</time>
</trkpt>
<trkpt lat="59.4341383" lon="31.1762436">
<ele>37.330002</ele>
<time>2026-08-31T21:37:22.000Z</time>
</trkpt>
<trkpt lat="59.4342122" lon="31.1763824">
<ele>38.250000</ele>
<time>2026-08-31T21:37:41.000Z</time>
</trkpt>
<trkpt lat="59.4342360" lon="31.1764097">
<ele>39.150002</ele>
<time>2026-08-31T21:38:05.000Z</time>
</trkpt>
<trkpt lat="59.4342759" lon="31.1765031">
<ele>38.360001</ele>
<time>2026-08-31T21:38:39.000Z</time>
</trkpt>
<trkpt lat="59.4343675" lon="31.1766981">
<ele>37.340000</ele>
<time>2026-08-31T21:38:56.000Z</time>
</trkpt>
<trkpt lat="59.4344406" lon="31.1768888">
<ele>37.239998</ele>
<time>2026-08-31T21:39:09.000Z</time>
</trkpt>
<trkpt lat="59.4344673" lon="31.1769919">
<ele>35.779999</ele>
<time>2026-08-31T21:39:16.000Z</time>
</trkpt>
<trkpt lat="59.4345615" lon="31.1773178">
<ele>34.020000</ele>
<time>2026-08-31T21:39:37.000Z</time>
</trkpt>
<trkpt lat="59.4346105" lon="31.1775938">
<ele>36.009998</ele>
<time>2026-08-31T21:39:53.000Z</time>
</trkpt>
<trkpt lat="59.4346383" lon="31.1778194">
<ele>34.970001</ele>
<time>2026-08-31T21:40:09.000Z</time>
</trkpt>
<trkpt lat="59.4346429" lon="31.1779973">
<ele>35.750000</ele>
<time>2026-08-31T21:40:27.000Z</time>
</trkpt>
<trkpt lat="59.4346449" lon="31.1779973">
<ele>36.080002</ele>
<time>2026-08-31T21:40:50.000Z</time>
</trkpt>
<trkpt lat="59.4346707" lon="31.1779750">
<ele>37.540001</ele>
<time>2026-08-31T21:41:13.000Z</time>
</trkpt>
<trkpt lat="59.4346371" lon="31.1779916">
<ele>35.639999</ele>
<time>2026-08-31T21:41:44.000Z</time>
</trkpt>
<trkpt lat="59.4346318" lon="31.1780429">
<ele>35.470001</ele>
<time>2026-08-31T21:42:18.000Z</time>
</trkpt>
<trkpt lat="59.4346254" lon="31.1780889">
<ele>37.119999</ele>
<time>2026-08-31T21:42:53.000Z</time>
</trkpt>
<trkpt lat="59.4346215" lon="31.1780900">
<ele>37.299999</ele>
<time>2026-08-31T21:43:02.000Z</time>
</trkpt>
<trkpt lat="59.4346324" lon="31.1781567">
<ele>37.630001</ele>
<time>2026-08-31T21:43:26.000Z</time>
</trkpt>
<trkpt lat="59.4346505" lon="31.1781382">
<ele>37.520000</ele>
<time>2026-08-31T21:43:47.000Z</time>
</trkpt>
<trkpt lat="59.4346649" lon="31.1781273">
<ele>37.950001</ele>
<time>2026-08-31T21:44:15.000Z</time>
</trkpt>
<trkpt lat="59.4346654" lon="31.1781193">
<ele>38.709999</ele>
<time>2026-08-31T21:44:41.000Z</time>
</trkpt>
<trkpt lat="59.4346721" lon="31.1781817">
<ele>38.709999</ele>
<time>2026-08-31T21:45:04.000Z</time>
</trkpt>
<trkpt lat="59.4347018" lon="31.1782805">
<ele>38.360001</ele>
<time>2026-08-31T21:45:31.000Z</time>
</trkpt>
<trkpt lat="59.4347021" lon="31.1783113">
<ele>37.849998</ele>
<time>2026-08-31T21:45:51.000Z</time>
</trkpt>
<trkpt lat="59.4347082" lon="31.1783252">
<ele>37.290001</ele>
<time>2026-08-31T21:46:08.000Z</time>
</trkpt>
<trkpt lat="59.4346643" lon="31.1784821">
<ele>36.279999</ele>
<time>2026-08-31T21:46:34.000Z</time>
</trkpt>
<trkpt lat="59.4346811" lon="31.1785077">
<ele>37.900002</ele>
<time>2026-08-31T21:46:56.000Z</time>
</trkpt>
<trkpt lat="59.4346746" lon="31.1785829">
<ele>38.639999</ele>
<time>2026-08-31T21:47:19.000Z</time>
</trkpt>
<trkpt lat="59.4346667" lon="31.1787237">
<ele>38.910000</ele>
<time>2026-08-31T21:47:35.000Z</time>
</trkpt>
<trkpt lat="59.4346623" lon="31.1789623">
<ele>37.869999</ele>
<time>2026-08-31T21:47:54.000Z</time>
</trkpt>
<trkpt lat="59.4346587" lon="31.1789644">
<ele>37.540001</ele>
<time>2026-08-31T21:47:59.000Z</time>
</trkpt>
<trkpt lat="59.4367757" lon="31.1765187">
<ele>1.760000</ele>
<time>2026-08-31T21:48:26.000Z</time>
</trkpt>
<trkpt lat="59.4346618" lon="31.1790268">
<ele>35.400002</ele>
<time>2026-08-31T21:49:16.000Z</time>
</trkpt>
<trkpt lat="59.4346633" lon="31.1791997">
<ele>35.750000</ele>
<time>2026-08-31T21:49:31.000Z</time>
</trkpt>
<trkpt lat="59.4346654" lon="31.1793902">
<ele>34.090000</ele>
<time>2026-08-31T21:49:50.000Z</time>
</trkpt>
<trkpt lat="59.4346392" lon="31.1796409">
<ele>29.949999</ele>
<time>2026-08-31T21:50:13.000Z</time>
</trkpt>
<trkpt lat="59.4346211" lon="31.1799574">
<ele>23.950001</ele>
<time>2026-08-31T21:50:34.000Z</time>
</trkpt>
<trkpt lat="59.4345929" lon="31.1801466">
<ele>23.570002</ele>
<time>2026-08-31T21:50:54.000Z</time>
</trkpt>
<trkpt lat="59.4346008" lon="31.1802783">
<ele>24.090000</ele>
<time>2026-08-31T21:51:19.000Z</time>
</trkpt>
<trkpt lat="59.4346169" lon="31.1804040">
<ele>25.700001</ele>
<time>2026-08-31T21:51:39.000Z</time>
</trkpt>
<trkpt lat="59.4345854" lon="31.1807745">
<ele>21.719999</ele>
<time>2026-08-31T21:51:59.000Z</time>
</trkpt>
<trkpt lat="59.4345702" lon="31.1811414">
<ele>18.430000</ele>
<time>2026-08-31T21:52:19.000Z</time>
</trkpt>
<trkpt lat="59.4345386" lon="31.1813409">
<ele>21.389999</ele>
<time>2026-08-31T21:52:38.000Z</time>
</trkpt>
<trkpt lat="59.4345559" lon="31.1815684">
<ele>21.360001</ele>
<time>2026-08-31T21:53:00.000Z</time>
</trkpt>
<trkpt lat="59.4345330" lon="31.1817627">
<ele>22.440001</ele>
<time>2026-08-31T21:53:20.000Z</time>
</trkpt>
<trkpt lat="59.4345065" lon="31.1818275">
<ele>27.559999</ele>
<time>2026-08-31T21:53:49.000Z</time>
</trkpt>
<trkpt lat="59.4345554" lon="31.1818952">
<ele>29.680000</ele>
<time>2026-08-31T21:54:19.000Z</time>
</trkpt>
<trkpt lat="59.4345273" lon="31.1818712">
<ele>30.750000</ele>
<time>2026-08-31T21:54:47.000Z</time>
</trkpt>
<trkpt lat="59.4345187" lon="31.1818953">
<ele>32.299999</ele>
<time>2026-08-31T21:55:38.000Z</time>
</trkpt>
<trkpt lat="59.4345146" lon="31.1820721">
<ele>33.389999</ele>
<time>2026-08-31T21:55:56.000Z</time>
</trkpt>
<trkpt lat="59.4345125" lon="31.1824556">
<ele>31.859999</ele>
<time>2026-08-31T21:56:19.000Z</time>
</trkpt>
<trkpt lat="59.4345195" lon="31.1828306">
<ele>25.459999</ele>
<time>2026-08-31T21:56:40.000Z</time>
</trkpt>
<trkpt lat="59.4345129" lon="31.1833011">
<ele>19.070000</ele>
<time>2026-08-31T21:57:03.000Z</time>
</trkpt>
<trkpt lat="59.4344838" lon="31.1837827">
<ele>16.440001</ele>
<time>2026-08-31T21:57:24.000Z</time>
</trkpt>
<trkpt lat="59.4344506" lon="31.1839963">
<ele>17.420000</ele>
<time>2026-08-31T21:57:33.000Z</time>
</trkpt>
<trkpt lat="59.4344509" lon="31.1838115">
<ele>18.860001</ele>
<time>2026-08-31T21:57:53.000Z</time>
</trkpt>
<trkpt lat="59.4344563" lon="31.1839189">
<ele>18.470001</ele>
<time>2026-08-31T21:58:10.000Z</time>
</trkpt>
<trkpt lat="59.4344376" lon="31.1839388">
<ele>18.389999</ele>
<time>2026-08-31T21:58:15.000Z</time>
</trkpt>
<trkpt lat="59.4343877" lon="31.1839769">
<ele>20.080000</ele>
<time>2026-08-31T21:58:34.000Z</time>
</trkpt>
<trkpt lat="59.4343848" lon="31.1840352">
<ele>25.840000</ele>
<time>2026-08-31T21:58:59.000Z</time>
</trkpt>
<trkpt lat="59.4343709" lon="31.1840373">
<ele>28.480001</ele>
<time>2026-08-31T21:59:29.000Z</time>
</trkpt>
<trkpt lat="59.4343938" lon="31.1840693">
<ele>32.869999</ele>
<time>2026-08-31T22:00:11.000Z</time>
</trkpt>
<trkpt lat="59.4344004" lon="31.1840819">
<ele>33.840000</ele>
<time>2026-08-31T22:00:51.000Z</time>
</trkpt>
<trkpt lat="59.4344075" lon="31.1841195">
<ele>35.930000</ele>
<time>2026-08-31T22:01:28.000Z</time>
</trkpt>
<trkpt lat="59.4344130" lon="31.1841559">
<ele>36.020000</ele>
<time>2026-08-31T22:02:04.000Z</time>
</trkpt>
<trkpt lat="59.4344331" lon="31.1844460">
<ele>36.880001</ele>
<time>2026-08-31T22:02:25.000Z</time>
</trkpt>
<trkpt lat="59.4344064" lon="31.1846817">
<ele>33.239998</ele>
<time>2026-08-31T22:02:43.000Z</time>
</trkpt>
<trkpt lat="59.4343974" lon="31.1850153">
<ele>26.920000</ele>
<time>2026-08-31T22:03:04.000Z</time>
</trkpt>
<trkpt lat="59.4344144" lon="31.1853793">
<ele>17.889999</ele>
<time>2026-08-31T22:03:27.000Z</time>
</trkpt>
<trkpt lat="59.4344454" lon="31.1857508">
<ele>10.090000</ele>
<time>2026-08-31T22:03:49.000Z</time>
</trkpt>
<trkpt lat="59.4344200" lon="31.1861136">
<ele>12.290000</ele>
<time>2026-08-31T22:04:08.000Z</time>
</trkpt>
<trkpt lat="59.4343996" lon="31.1861910">
<ele>15.350000</ele>
<time>2026-08-31T22:04:14.000Z</time>
</trkpt>
<trkpt lat="59.4343505" lon="31.1863119">
<ele>30.529999</ele>
<time>2026-08-31T22:04:37.000Z</time>
</trkpt>
<trkpt lat="59.4343658" lon="31.1863142">
<ele>32.410000</ele>
<time>2026-08-31T22:04:55.000Z</time>
</trkpt>
<trkpt lat="59.4343639" lon="31.1863308">
<ele>34.930000</ele>
<time>2026-08-31T22:05:19.000Z</time>
</trkpt>
<trkpt lat="59.4343672" lon="31.1863437">
<ele>38.510002</ele>
<time>2026-08-31T22:05:42.000Z</time>
</trkpt>
<trkpt lat="59.4343798" lon="31.1863612">
<ele>40.020000</ele>
<time>2026-08-31T22:06:11.000Z</time>
</trkpt>
<trkpt lat="59.4343925" lon="31.1863803">
<ele>40.109997</ele>
<time>2026-08-31T22:06:43.000Z</time>
</trkpt>
<trkpt lat="59.4343972" lon="31.1863772">
<ele>40.480000</ele>
<time>2026-08-31T22:06:50.000Z</time>
</trkpt>
<trkpt lat="59.4344621" lon="31.1863349">
<ele>43.299999</ele>
<time>2026-08-31T22:07:23.000Z</time>
</trkpt>
<trkpt lat="59.4344285" lon="31.1862889">
<ele>44.020000</ele>
<time>2026-08-31T22:07:51.000Z</time>
</trkpt>
<trkpt lat="59.4344094" lon="31.1863872">
<ele>44.240002</ele>
<time>2026-08-31T22:08:22.000Z</time>
</trkpt>
<trkpt lat="59.4343978" lon="31.1864132">
<ele>45.610001</ele>
<time>2026-08-31T22:09:01.000Z</time>
</trkpt>
<trkpt lat="59.4343517" lon="31.1863859">
<ele>44.820000</ele>
<time>2026-08-31T22:09:34.000Z</time>
</trkpt>
<trkpt lat="59.4344150" lon="31.1864452">
<ele>45.639999</ele>
<time>2026-08-31T22:10:12.000Z</time>
</trkpt>
<trkpt lat="59.4344273" lon="31.1864182">
<ele>45.390003</ele>
<time>2026-08-31T22:10:35.000Z</time>
</trkpt>
<trkpt lat="59.4344972" lon="31.1867118">
<ele>44.079998</ele>
<time>2026-08-31T22:10:59.000Z</time>
</trkpt>
<trkpt lat="59.4344964" lon="31.1868513">
<ele>42.040001</ele>
<time>2026-08-31T22:11:06.000Z</time>
</trkpt>
<trkpt lat="59.4345674" lon="31.1872765">
<ele>39.419998</ele>
<time>2026-08-31T22:11:27.000Z</time>
</trkpt>
<trkpt lat="59.4346806" lon="31.1876617">
<ele>36.169998</ele>
<time>2026-08-31T22:11:49.000Z</time>
</trkpt>
<trkpt lat="59.4348143" lon="31.1879435">
<ele>36.289997</ele>
<time>2026-08-31T22:12:06.000Z</time>
</trkpt>
<trkpt lat="59.4349525" lon="31.1881537">
<ele>39.799999</ele>
<time>2026-08-31T22:12:25.000Z</time>
</trkpt>
<trkpt lat="59.4348864" lon="31.1880494">
<ele>39.140003</ele>
<time>2026-08-31T22:12:38.000Z</time>
</trkpt>
<trkpt lat="59.4348271" lon="31.1879471">
<ele>34.970001</ele>
<time>2026-08-31T22:12:57.000Z</time>
</trkpt>
<trkpt lat="59.4348188" lon="31.1879146">
<ele>37.889999</ele>
<time>2026-08-31T22:13:31.000Z</time>
</trkpt>
<trkpt lat="59.4348246" lon="31.1879157">
<ele>38.520000</ele>
<time>2026-08-31T22:13:56.000Z</time>
</trkpt>
<trkpt lat="59.4348515" lon="31.1879317">
<ele>39.920002</ele>
<time>2026-08-31T22:14:59.000Z</time>
</trkpt>
<trkpt lat="59.4349708" lon="31.1881811">
<ele>40.009998</ele>
<time>2026-08-31T22:15:21.000Z</time>
</trkpt>
<trkpt lat="59.4350895" lon="31.1883144">
<ele>39.990002</ele>
<time>2026-08-31T22:15:39.000Z</time>
</trkpt>
<trkpt lat="59.4352083" lon="31.1883945">
<ele>40.189999</ele>
<time>2026-08-31T22:15:57.000Z</time>
</trkpt>
<trkpt lat="59.4352608" lon="31.1884735">
<ele>39.049999</ele>
<time>2026-08-31T22:16:08.000Z</time>
</trkpt>
<trkpt lat="59.4352604" lon="31.1884418">
<ele>38.910000</ele>
<time>2026-08-31T22:16:31.000Z</time>
</trkpt>
<trkpt lat="59.4353107" lon="31.1885578">
<ele>38.720001</ele>
<time>2026-08-31T22:17:15.000Z</time>
</trkpt>
<trkpt lat="59.4353058" lon="31.1885688">
<ele>39.980003</ele>
<time>2026-08-31T22:17:49.000Z</time>
</trkpt>
<trkpt lat="59.4352924" lon="31.1885269">
<ele>40.810001</ele>
<time>2026-08-31T22:18:17.000Z</time>
</trkpt>
<trkpt lat="59.4353601" lon="31.1885103">
<ele>40.789997</ele>
<time>2026-08-31T22:18:39.000Z</time>
</trkpt>
<trkpt lat="59.4353687" lon="31.1884985">
<ele>41.150002</ele>
<time>2026-08-31T22:18:51.000Z</time>
</trkpt>
<trkpt lat="59.4354124" lon="31.1885284">
<ele>40.789997</ele>
<time>2026-08-31T22:18:58.000Z</time>
</trkpt>
<trkpt lat="59.4355716" lon="31.1885907">
<ele>42.079998</ele>
<time>2026-08-31T22:19:18.000Z</time>
</trkpt>
<trkpt lat="59.4357240" lon="31.1886230">
<ele>42.730000</ele>
<time>2026-08-31T22:19:36.000Z</time>
</trkpt>
<trkpt lat="59.4358842" lon="31.1886606">
<ele>40.840000</ele>
<time>2026-08-31T22:19:54.000Z</time>
</trkpt>
<trkpt lat="59.4360522" lon="31.1887324">
<ele>34.840000</ele>
<time>2026-08-31T22:20:15.000Z</time>
</trkpt>
<trkpt lat="59.4362098" lon="31.1887099">
<ele>32.600002</ele>
<time>2026-08-31T22:20:37.000Z</time>
</trkpt>
<trkpt lat="59.4361927" lon="31.1887190">
<ele>34.920002</ele>
<time>2026-08-31T22:20:58.000Z</time>
</trkpt>
<trkpt lat="59.4362923" lon="31.1887458">
<ele>34.840000</ele>
<time>2026-08-31T22:21:17.000Z</time>
</trkpt>
<trkpt lat="59.4365273" lon="31.1888154">
<ele>36.600002</ele>
<time>2026-08-31T22:21:41.000Z</time>
</trkpt>
<trkpt lat="59.4367074" lon="31.1888588">
<ele>38.200001</ele>
<time>2026-08-31T22:22:02.000Z</time>
</trkpt>
<trkpt lat="59.4368699" lon="31.1888783">
<ele>36.529999</ele>
<time>2026-08-31T22:22:20.000Z</time>
</trkpt>
<trkpt lat="59.4369616" lon="31.1888921">
<ele>36.990002</ele>
<time>2026-08-31T22:22:40.000Z</time>
</trkpt>
<trkpt lat="59.4370919" lon="31.1889035">
<ele>35.250000</ele>
<time>2026-08-31T22:22:57.000Z</time>
</trkpt>
<trkpt lat="59.4370808" lon="31.1889107">
<ele>34.910000</ele>
<time>2026-08-31T22:23:23.000Z</time>
</trkpt>
<trkpt lat="59.4371050" lon="31.1889134">
<ele>37.239998</ele>
<time>2026-08-31T22:23:58.000Z</time>
</trkpt>
<trkpt lat="59.4371112" lon="31.1889498">
<ele>39.240002</ele>
<time>2026-08-31T22:23:50.000Z</time>
</trkpt>
<trkpt lat="59.4371255" lon="31.1889455">
<ele>40.849998</ele>
<time>2026-08-31T22:24:24.000Z</time>
</trkpt>
<trkpt lat="59.4371310" lon="31.1889261">
<ele>43.599998</ele>
<time>2026-08-31T22:24:57.000Z</time>
</trkpt>
<trkpt lat="59.4371411" lon="31.1888566">
<ele>45.410000</ele>
<time>2026-08-31T22:25:30.000Z</time>
</trkpt>
<trkpt lat="59.4372374" lon="31.1889005">
<ele>46.500000</ele>
<time>2026-08-31T22:25:45.000Z</time>
</trkpt>
<trkpt lat="59.4373566" lon="31.1889655">
<ele>43.640003</ele>
<time>2026-08-31T22:26:07.000Z</time>
</trkpt>
<trkpt lat="59.4373931" lon="31.1889734">
<ele>43.750000</ele>
<time>2026-08-31T22:26:30.000Z</time>
</trkpt>
<trkpt lat="59.4374241" lon="31.1889982">
<ele>44.829998</ele>
<time>2026-08-31T22:26:45.000Z</time>
</trkpt>
<trkpt lat="59.4374576" lon="31.1890101">
<ele>44.260002</ele>
<time>2026-08-31T22:27:04.000Z</time>
</trkpt>
<trkpt lat="59.4375162" lon="31.1890170">
<ele>42.629997</ele>
<time>2026-08-31T22:27:31.000Z</time>
</trkpt>
<trkpt lat="59.4376778" lon="31.1890404">
<ele>38.939999</ele>
<time>2026-08-31T22:27:52.000Z</time>
</trkpt>
<trkpt lat="59.4378176" lon="31.1890651">
<ele>32.959999</ele>
<time>2026-08-31T22:28:09.000Z</time>
</trkpt>
<trkpt lat="59.4379694" lon="31.1891105">
<ele>25.730000</ele>
<time>2026-08-31T22:28:28.000Z</time>
</trkpt>
<trkpt lat="59.4381315" lon="31.1891271">
<ele>24.640001</ele>
<time>2026-08-31T22:28:47.000Z</time>
</trkpt>
<trkpt lat="59.4382678" lon="31.1891601">
<ele>20.160000</ele>
<time>2026-08-31T22:29:11.000Z</time>
</trkpt>
<trkpt lat="59.4384157" lon="31.1891967">
<ele>11.540000</ele>
<time>2026-08-31T22:29:35.000Z</time>
</trkpt>
<trkpt lat="59.4386453" lon="31.1892170">
<ele>10.930000</ele>
<time>2026-08-31T22:29:59.000Z</time>
</trkpt>
<trkpt lat="59.4388508" lon="31.1892578">
<ele>20.080000</ele>
<time>2026-08-31T22:30:20.000Z</time>
</trkpt>
<trkpt lat="59.4388559" lon="31.1892018">
<ele>25.959999</ele>
<time>2026-08-31T22:30:41.000Z</time>
</trkpt>
<trkpt lat="59.4388487" lon="31.1891961">
<ele>29.559999</ele>
<time>2026-08-31T22:31:17.000Z</time>
</trkpt>
<trkpt lat="59.4388571" lon="31.1891965">
<ele>31.259998</ele>
<time>2026-08-31T22:31:55.000Z</time>
</trkpt>
<trkpt lat="59.4388713" lon="31.1892059">
<ele>33.680000</ele>
<time>2026-08-31T22:32:32.000Z</time>
</trkpt>
<trkpt lat="59.4389818" lon="31.1892427">
<ele>33.549999</ele>
<time>2026-08-31T22:32:49.000Z</time>
</trkpt>
<trkpt lat="59.4391593" lon="31.1893132">
<ele>27.920000</ele>
<time>2026-08-31T22:33:09.000Z</time>
</trkpt>
<trkpt lat="59.4393652" lon="31.1893416">
<ele>29.790001</ele>
<time>2026-08-31T22:33:28.000Z</time>
</trkpt>
<trkpt lat="59.4395294" lon="31.1893768">
<ele>32.639999</ele>
<time>2026-08-31T22:33:47.000Z</time>
</trkpt>
<trkpt lat="59.4396260" lon="31.1893735">
<ele>34.939999</ele>
<time>2026-08-31T22:34:13.000Z</time>
</trkpt>
<trkpt lat="59.4398085" lon="31.1894424">
<ele>30.799999</ele>
<time>2026-08-31T22:34:36.000Z</time>
</trkpt>
<trkpt lat="59.4400429" lon="31.1894706">
<ele>29.299999</ele>
<time>2026-08-31T22:34:59.000Z</time>
</trkpt>
<trkpt lat="59.4403150" lon="31.1895323">
<ele>37.610001</ele>
<time>2026-08-31T22:35:21.000Z</time>
</trkpt>
<trkpt lat="59.4403999" lon="31.1895613">
<ele>39.779999</ele>
<time>2026-08-31T22:35:40.000Z</time>
</trkpt>
<trkpt lat="59.4404248" lon="31.1895956">
<ele>43.860001</ele>
<time>2026-08-31T22:36:13.000Z</time>
</trkpt>
<trkpt lat="59.4404425" lon="31.1895895">
<ele>46.259998</ele>
<time>2026-08-31T22:36:52.000Z</time>
</trkpt>
<trkpt lat="59.4404547" lon="31.1895609">
<ele>45.690002</ele>
<time>2026-08-31T22:37:31.000Z</time>
</trkpt>
<trkpt lat="59.4405758" lon="31.1895869">
<ele>45.110001</ele>
<time>2026-08-31T22:37:52.000Z</time>
</trkpt>
<trkpt lat="59.4407594" lon="31.1895862">
<ele>39.990002</ele>
<time>2026-08-31T22:38:15.000Z</time>
</trkpt>
<trkpt lat="59.4410074" lon="31.1896256">
<ele>29.780001</ele>
<time>2026-08-31T22:38:40.000Z</time>
</trkpt>
<trkpt lat="59.4413254" lon="31.1896748">
<ele>31.010000</ele>
<time>2026-08-31T22:39:08.000Z</time>
</trkpt>
<trkpt lat="59.4415075" lon="31.1897438">
<ele>28.460001</ele>
<time>2026-08-31T22:39:30.000Z</time>
</trkpt>
<trkpt lat="59.4415836" lon="31.1897660">
<ele>33.680000</ele>
<time>2026-08-31T22:39:50.000Z</time>
</trkpt>
<trkpt lat="59.4416298" lon="31.1897741">
<ele>34.950001</ele>
<time>2026-08-31T22:40:02.000Z</time>
</trkpt>
<trkpt lat="59.4417664" lon="31.1898032">
<ele>35.060001</ele>
<time>2026-08-31T22:40:23.000Z</time>
</trkpt>
<trkpt lat="59.4418531" lon="31.1897991">
<ele>35.200001</ele>
<time>2026-08-31T22:40:42.000Z</time>
</trkpt>
<trkpt lat="59.4419995" lon="31.1898282">
<ele>37.320000</ele>
<time>2026-08-31T22:41:04.000Z</time>
</trkpt>
<trkpt lat="59.4420098" lon="31.1898655">
<ele>38.939999</ele>
<time>2026-08-31T22:41:30.000Z</time>
</trkpt>
<trkpt lat="59.4420070" lon="31.1898672">
<ele>39.530003</ele>
<time>2026-08-31T22:41:53.000Z</time>
</trkpt>
<trkpt lat="59.4420066" lon="31.1898628">
<ele>39.610001</ele>
<time>2026-08-31T22:42:22.000Z</time>
</trkpt>
<trkpt lat="59.4420242" lon="31.1898821">
<ele>40.709999</ele>
<time>2026-08-31T22:43:00.000Z</time>
</trkpt>
<trkpt lat="59.4421190" lon="31.1898941">
<ele>41.660000</ele>
<time>2026-08-31T22:43:24.000Z</time>
</trkpt>
<trkpt lat="59.4423109" lon="31.1898990">
<ele>41.869999</ele>
<time>2026-08-31T22:43:46.000Z</time>
</trkpt>
<trkpt lat="59.4424751" lon="31.1899246">
<ele>34.410000</ele>
<time>2026-08-31T22:44:07.000Z</time>
</trkpt>
<trkpt lat="59.4426658" lon="31.1899603">
<ele>33.630001</ele>
<time>2026-08-31T22:44:24.000Z</time>
</trkpt>
<trkpt lat="59.4428138" lon="31.1899623">
<ele>30.949999</ele>
<time>2026-08-31T22:44:39.000Z</time>
</trkpt>
<trkpt lat="59.4430507" lon="31.1900208">
<ele>30.379999</ele>
<time>2026-08-31T22:45:01.000Z</time>
</trkpt>
<trkpt lat="59.4432502" lon="31.1900338">
<ele>33.540001</ele>
<time>2026-08-31T22:45:20.000Z</time>
</trkpt>
<trkpt lat="59.4433758" lon="31.1901135">
<ele>33.790001</ele>
<time>2026-08-31T22:45:34.000Z</time>
</trkpt>
<trkpt lat="59.4434626" lon="31.1900976">
<ele>31.090000</ele>
<time>2026-08-31T22:45:47.000Z</time>
</trkpt>
<trkpt lat="59.4435873" lon="31.1901414">
<ele>37.349998</ele>
<time>2026-08-31T22:46:06.000Z</time>
</trkpt>
<trkpt lat="59.4436330" lon="31.1901927">
<ele>40.689999</ele>
<time>2026-08-31T22:46:29.000Z</time>
</trkpt>
<trkpt lat="59.4436694" lon="31.1901887">
<ele>39.990002</ele>
<time>2026-08-31T22:46:36.000Z</time>
</trkpt>
<trkpt lat="59.4436947" lon="31.1901180">
<ele>40.869999</ele>
<time>2026-08-31T22:46:58.000Z</time>
</trkpt>
<trkpt lat="59.4436999" lon="31.1900732">
<ele>43.799999</ele>
<time>2026-08-31T22:47:28.000Z</time>
</trkpt>
<trkpt lat="59.4437023" lon="31.1900827">
<ele>45.270000</ele>
<time>2026-08-31T22:48:05.000Z</time>
</trkpt>
<trkpt lat="59.4437212" lon="31.1901052">
<ele>45.530003</ele>
<time>2026-08-31T22:48:40.000Z</time>
</trkpt>
<trkpt lat="59.4438779" lon="31.1901974">
<ele>42.040001</ele>
<time>2026-08-31T22:49:04.000Z</time>
</trkpt>
<trkpt lat="59.4439561" lon="31.1902209">
<ele>39.830002</ele>
<time>2026-08-31T22:49:13.000Z</time>
</trkpt>
<trkpt lat="59.4440571" lon="31.1902555">
<ele>38.299999</ele>
<time>2026-08-31T22:49:32.000Z</time>
</trkpt>
<trkpt lat="59.4441368" lon="31.1902513">
<ele>40.070000</ele>
<time>2026-08-31T22:49:53.000Z</time>
</trkpt>
<trkpt lat="59.4442678" lon="31.1902627">
<ele>39.470001</ele>
<time>2026-08-31T22:50:14.000Z</time>
</trkpt>
<trkpt lat="59.4444283" lon="31.1903112">
<ele>35.849998</ele>
<time>2026-08-31T22:50:30.000Z</time>
</trkpt>
<trkpt lat="59.4445709" lon="31.1903308">
<ele>33.360001</ele>
<time>2026-08-31T22:50:48.000Z</time>
</trkpt>
<trkpt lat="59.4447476" lon="31.1903726">
<ele>31.679998</ele>
<time>2026-08-31T22:51:09.000Z</time>
</trkpt>
<trkpt lat="59.4449791" lon="31.1904231">
<ele>28.680000</ele>
<time>2026-08-31T22:51:34.000Z</time>
</trkpt>
<trkpt lat="59.4451791" lon="31.1904678">
<ele>29.469999</ele>
<time>2026-08-31T22:51:53.000Z</time>
</trkpt>
<trkpt lat="59.4452754" lon="31.1904350">
<ele>36.059998</ele>
<time>2026-08-31T22:52:15.000Z</time>
</trkpt>
<trkpt lat="59.4452650" lon="31.1904228">
<ele>40.150002</ele>
<time>2026-08-31T22:52:46.000Z</time>
</trkpt>
<trkpt lat="59.4452830" lon="31.1904524">
<ele>42.500000</ele>
<time>2026-08-31T22:53:23.000Z</time>
</trkpt>
<trkpt lat="59.4452837" lon="31.1904586">
<ele>43.940002</ele>
<time>2026-08-31T22:54:04.000Z</time>
</trkpt>
<trkpt lat="59.4452917" lon="31.1904660">
<ele>43.599998</ele>
<time>2026-08-31T22:54:41.000Z</time>
</trkpt>
<trkpt lat="59.4453018" lon="31.1904141">
<ele>41.090000</ele>
<time>2026-08-31T22:55:29.000Z</time>
</trkpt>
<trkpt lat="59.4453076" lon="31.1903795">
<ele>40.109997</ele>
<time>2026-08-31T22:56:09.000Z</time>
</trkpt>
<trkpt lat="59.4452982" lon="31.1903979">
<ele>39.279999</ele>
<time>2026-08-31T22:56:39.000Z</time>
</trkpt>
<trkpt lat="59.4452826" lon="31.1904607">
<ele>40.719997</ele>
<time>2026-08-31T22:57:17.000Z</time>
</trkpt>
<trkpt lat="59.4452806" lon="31.1904598">
<ele>41.320000</ele>
<time>2026-08-31T22:57:58.000Z</time>
</trkpt>
<trkpt lat="59.4452798" lon="31.1904599">
<ele>41.179996</ele>
<time>2026-08-31T22:58:29.000Z</time>
</trkpt>
<trkpt lat="59.4454239" lon="31.1904882">
<ele>39.549999</ele>
<time>2026-08-31T22:58:50.000Z</time>
</trkpt>
<trkpt lat="59.4456192" lon="31.1905414">
<ele>36.650002</ele>
<time>2026-08-31T22:59:11.000Z</time>
</trkpt>
<trkpt lat="59.4458048" lon="31.1905685">
<ele>28.469999</ele>
<time>2026-08-31T22:59:32.000Z</time>
</trkpt>
<trkpt lat="59.4460008" lon="31.1906048">
<ele>29.959999</ele>
<time>2026-08-31T22:59:52.000Z</time>
</trkpt>
<trkpt lat="59.4461756" lon="31.1906359">
<ele>30.709999</ele>
<time>2026-08-31T23:00:08.000Z</time>
</trkpt>
<trkpt lat="59.4463851" lon="31.1906580">
<ele>32.910000</ele>
<time>2026-08-31T23:00:28.000Z</time>
</trkpt>
<trkpt lat="59.4465709" lon="31.1907193">
<ele>35.110001</ele>
<time>2026-08-31T23:00:46.000Z</time>
</trkpt>
<trkpt lat="59.4467088" lon="31.1907221">
<ele>35.990002</ele>
<time>2026-08-31T23:01:06.000Z</time>
</trkpt>
<trkpt lat="59.4467273" lon="31.1907320">
<ele>35.750000</ele>
<time>2026-08-31T23:01:34.000Z</time>
</trkpt>
<trkpt lat="59.4467254" lon="31.1907275">
<ele>37.070000</ele>
<time>2026-08-31T23:02:14.000Z</time>
</trkpt>
<trkpt lat="59.4467364" lon="31.1907275">
<ele>38.180000</ele>
<time>2026-08-31T23:02:53.000Z</time>
</trkpt>
<trkpt lat="59.4468266" lon="31.1907383">
<ele>38.170002</ele>
<time>2026-08-31T23:03:16.000Z</time>
</trkpt>
<trkpt lat="59.4469906" lon="31.1907727">
<ele>34.340000</ele>
<time>2026-08-31T23:03:35.000Z</time>
</trkpt>
<trkpt lat="59.4472007" lon="31.1908231">
<ele>33.670002</ele>
<time>2026-08-31T23:03:56.000Z</time>
</trkpt>
<trkpt lat="59.4474141" lon="31.1908678">
<ele>32.209999</ele>
<time>2026-08-31T23:04:16.000Z</time>
</trkpt>
<trkpt lat="59.4476151" lon="31.1909107">
<ele>34.619999</ele>
<time>2026-08-31T23:04:34.000Z</time>
</trkpt>
<trkpt lat="59.4477002" lon="31.1909359">
<ele>35.270000</ele>
<time>2026-08-31T23:04:51.000Z</time>
</trkpt>
<trkpt lat="59.4477137" lon="31.1909258">
<ele>37.770000</ele>
<time>2026-08-31T23:05:14.000Z</time>
</trkpt>
<trkpt lat="59.4477217" lon="31.1909098">
<ele>40.120003</ele>
<time>2026-08-31T23:05:33.000Z</time>
</trkpt>
<trkpt lat="59.4477283" lon="31.1909372">
<ele>41.800003</ele>
<time>2026-08-31T23:06:09.000Z</time>
</trkpt>
<trkpt lat="59.4477281" lon="31.1909734">
<ele>44.030003</ele>
<time>2026-08-31T23:06:43.000Z</time>
</trkpt>
<trkpt lat="59.4477438" lon="31.1909781">
<ele>43.260002</ele>
<time>2026-08-31T23:07:26.000Z</time>
</trkpt>
<trkpt lat="59.4478930" lon="31.1909886">
<ele>41.789997</ele>
<time>2026-08-31T23:07:45.000Z</time>
</trkpt>
<trkpt lat="59.4481038" lon="31.1910062">
<ele>35.869999</ele>
<time>2026-08-31T23:08:11.000Z</time>
</trkpt>
<trkpt lat="59.4482923" lon="31.1910459">
<ele>28.929998</ele>
<time>2026-08-31T23:08:34.000Z</time>
</trkpt>
<trkpt lat="59.4484747" lon="31.1911110">
<ele>21.060001</ele>
<time>2026-08-31T23:08:56.000Z</time>
</trkpt>
<trkpt lat="59.4487876" lon="31.1911604">
<ele>27.779999</ele>
<time>2026-08-31T23:09:19.000Z</time>
</trkpt>
<trkpt lat="59.4489653" lon="31.1911573">
<ele>30.690001</ele>
<time>2026-08-31T23:09:38.000Z</time>
</trkpt>
<trkpt lat="59.4491236" lon="31.1912003">
<ele>31.730000</ele>
<time>2026-08-31T23:09:59.000Z</time>
</trkpt>
<trkpt lat="59.4491562" lon="31.1912154">
<ele>34.039997</ele>
<time>2026-08-31T23:10:26.000Z</time>
</trkpt>
<trkpt lat="59.4491880" lon="31.1912086">
<ele>37.809998</ele>
<time>2026-08-31T23:10:59.000Z</time>
</trkpt>
<trkpt lat="59.4491905" lon="31.1912111">
<ele>39.799999</ele>
<time>2026-08-31T23:11:35.000Z</time>
</trkpt>
<trkpt lat="59.4491949" lon="31.1911891">
<ele>40.700001</ele>
<time>2026-08-31T23:12:06.000Z</time>
</trkpt>
<trkpt lat="59.4492856" lon="31.1912195">
<ele>39.549999</ele>
<time>2026-08-31T23:12:26.000Z</time>
</trkpt>
<trkpt lat="59.4494558" lon="31.1912536">
<ele>33.340000</ele>
<time>2026-08-31T23:12:51.000Z</time>
</trkpt>
<trkpt lat="59.4497056" lon="31.1912885">
<ele>30.150000</ele>
<time>2026-08-31T23:13:18.000Z</time>
</trkpt>
<trkpt lat="59.4499180" lon="31.1913611">
<ele>24.340000</ele>
<time>2026-08-31T23:13:41.000Z</time>
</trkpt>
<trkpt lat="59.4500956" lon="31.1914019">
<ele>22.400000</ele>
<time>2026-08-31T23:14:02.000Z</time>
</trkpt>
<trkpt lat="59.4503280" lon="31.1914624">
<ele>22.930000</ele>
<time>2026-08-31T23:14:22.000Z</time>
</trkpt>
<trkpt lat="59.4505063" lon="31.1914932">
<ele>16.660000</ele>
<time>2026-08-31T23:14:43.000Z</time>
</trkpt>
<trkpt lat="59.4506167" lon="31.1915349">
<ele>15.560000</ele>
<time>2026-08-31T23:14:56.000Z</time>
</trkpt>
<trkpt lat="59.4507615" lon="31.1915513">
<ele>30.379999</ele>
<time>2026-08-31T23:15:20.000Z</time>
</trkpt>
<trkpt lat="59.4507865" lon="31.1915379">
<ele>32.930000</ele>
<time>2026-08-31T23:15:47.000Z</time>
</trkpt>
<trkpt lat="59.4507953" lon="31.1914743">
<ele>36.919998</ele>
<time>2026-08-31T23:16:17.000Z</time>
</trkpt>
<trkpt lat="59.4508207" lon="31.1914638">
<ele>41.700001</ele>
<time>2026-08-31T23:17:03.000Z</time>
</trkpt>
<trkpt lat="59.4508021" lon="31.1914789">
<ele>41.970001</ele>
<time>2026-08-31T23:17:33.000Z</time>
</trkpt>
<trkpt lat="59.4507845" lon="31.1914750">
<ele>41.599998</ele>
<time>2026-08-31T23:18:15.000Z</time>
</trkpt>
<trkpt lat="59.4509098" lon="31.1914972">
<ele>40.419998</ele>
<time>2026-08-31T23:18:33.000Z</time>
</trkpt>
<trkpt lat="59.4510654" lon="31.1915378">
<ele>34.149998</ele>
<time>2026-08-31T23:18:54.000Z</time>
</trkpt>
<trkpt lat="59.4512495" lon="31.1916303">
<ele>22.590000</ele>
<time>2026-08-31T23:19:17.000Z</time>
</trkpt>
<trkpt lat="59.4514587" lon="31.1916536">
<ele>16.590000</ele>
<time>2026-08-31T23:19:41.000Z</time>
</trkpt>
<trkpt lat="59.4516334" lon="31.1916990">
<ele>11.070000</ele>
<time>2026-08-31T23:20:01.000Z</time>
</trkpt>
<trkpt lat="59.4519013" lon="31.1918068">
<ele>10.599999</ele>
<time>2026-08-31T23:20:26.000Z</time>
</trkpt>
<trkpt lat="59.4521401" lon="31.1917644">
<ele>17.360001</ele>
<time>2026-08-31T23:20:42.000Z</time>
</trkpt>
<trkpt lat="59.4522930" lon="31.1917910">
<ele>26.789999</ele>
<time>2026-08-31T23:20:59.000Z</time>
</trkpt>
<trkpt lat="59.4523287" lon="31.1917535">
<ele>32.860001</ele>
<time>2026-08-31T23:21:24.000Z</time>
</trkpt>
<trkpt lat="59.4523235" lon="31.1917499">
<ele>35.849998</ele>
<time>2026-08-31T23:21:56.000Z</time>
</trkpt>
<trkpt lat="59.4523225" lon="31.1917750">
<ele>35.029999</ele>
<time>2026-08-31T23:22:26.000Z</time>
</trkpt>
<trkpt lat="59.4523273" lon="31.1917705">
<ele>35.559998</ele>
<time>2026-08-31T23:22:57.000Z</time>
</trkpt>
<trkpt lat="59.4523405" lon="31.1917767">
<ele>38.430000</ele>
<time>2026-08-31T23:23:26.000Z</time>
</trkpt>
<trkpt lat="59.4524305" lon="31.1917525">
<ele>38.489998</ele>
<time>2026-08-31T23:23:54.000Z</time>
</trkpt>
<trkpt lat="59.4526323" lon="31.1918573">
<ele>37.060001</ele>
<time>2026-08-31T23:24:16.000Z</time>
</trkpt>
<trkpt lat="59.4528135" lon="31.1918837">
<ele>34.779999</ele>
<time>2026-08-31T23:24:37.000Z</time>
</trkpt>
<trkpt lat="59.4529304" lon="31.1919084">
<ele>28.959999</ele>
<time>2026-08-31T23:24:51.000Z</time>
</trkpt>
<trkpt lat="59.4530258" lon="31.1919402">
<ele>27.549999</ele>
<time>2026-08-31T23:25:06.000Z</time>
</trkpt>
<trkpt lat="59.4531543" lon="31.1919515">
<ele>28.070000</ele>
<time>2026-08-31T23:25:26.000Z</time>
</trkpt>
<trkpt lat="59.4533058" lon="31.1919707">
<ele>26.639999</ele>
<time>2026-08-31T23:25:45.000Z</time>
</trkpt>
<trkpt lat="59.4534818" lon="31.1920028">
<ele>25.830000</ele>
<time>2026-08-31T23:26:04.000Z</time>
</trkpt>
<trkpt lat="59.4535356" lon="31.1920226">
<ele>26.970001</ele>
<time>2026-08-31T23:26:08.000Z</time>
</trkpt>
<trkpt lat="59.4536722" lon="31.1920402">
<ele>28.830000</ele>
<time>2026-08-31T23:26:30.000Z</time>
</trkpt>
<trkpt lat="59.4537841" lon="31.1920253">
<ele>31.760000</ele>
<time>2026-08-31T23:26:53.000Z</time>
</trkpt>
<trkpt lat="59.4537529" lon="31.1920985">
<ele>33.440002</ele>
<time>2026-08-31T23:27:22.000Z</time>
</trkpt>
<trkpt lat="59.4537629" lon="31.1921291">
<ele>33.670002</ele>
<time>2026-08-31T23:27:25.000Z</time>
</trkpt>
<trkpt lat="59.4538172" lon="31.1921871">
<ele>40.980000</ele>
<time>2026-08-31T23:27:53.000Z</time>
</trkpt>
<trkpt lat="59.4538047" lon="31.1921797">
<ele>41.759998</ele>
<time>2026-08-31T23:28:13.000Z</time>
</trkpt>
<trkpt lat="59.4537816" lon="31.1921978">
<ele>41.980000</ele>
<time>2026-08-31T23:28:42.000Z</time>
</trkpt>
<trkpt lat="59.4538143" lon="31.1920682">
<ele>42.610001</ele>
<time>2026-08-31T23:29:10.000Z</time>
</trkpt>
<trkpt lat="59.4538012" lon="31.1920522">
<ele>42.290001</ele>
<time>2026-08-31T23:29:40.000Z</time>
</trkpt>
<trkpt lat="59.4537914" lon="31.1921016">
<ele>42.450001</ele>
<time>2026-08-31T23:30:08.000Z</time>
</trkpt>
<trkpt lat="59.4538570" lon="31.1920985">
<ele>45.180000</ele>
<time>2026-08-31T23:30:35.000Z</time>
</trkpt>
<trkpt lat="59.4539304" lon="31.1920882">
<ele>44.969997</ele>
<time>2026-08-31T23:31:03.000Z</time>
</trkpt>
<trkpt lat="59.4541628" lon="31.1921423">
<ele>37.320000</ele>
<time>2026-08-31T23:31:29.000Z</time>
</trkpt>
<trkpt lat="59.4542950" lon="31.1921783">
<ele>38.850002</ele>
<time>2026-08-31T23:31:48.000Z</time>
</trkpt>
<trkpt lat="59.4544512" lon="31.1921954">
<ele>36.660000</ele>
<time>2026-08-31T23:32:11.000Z</time>
</trkpt>
<trkpt lat="59.4546057" lon="31.1922243">
<ele>31.059999</ele>
<time>2026-08-31T23:32:32.000Z</time>
</trkpt>
<trkpt lat="59.4548390" lon="31.1922989">
<ele>20.119999</ele>
<time>2026-08-31T23:32:57.000Z</time>
</trkpt>
<trkpt lat="59.4550457" lon="31.1923493">
<ele>15.030000</ele>
<time>2026-08-31T23:33:18.000Z</time>
</trkpt>
<trkpt lat="59.4551597" lon="31.1924019">
<ele>24.660000</ele>
<time>2026-08-31T23:33:36.000Z</time>
</trkpt>
<trkpt lat="59.4552673" lon="31.1923801">
<ele>25.219999</ele>
<time>2026-08-31T23:33:54.000Z</time>
</trkpt>
<trkpt lat="59.4553745" lon="31.1923616">
<ele>26.750000</ele>
<time>2026-08-31T23:34:13.000Z</time>
</trkpt>
<trkpt lat="59.4555466" lon="31.1924126">
<ele>23.859999</ele>
<time>2026-08-31T23:34:34.000Z</time>
</trkpt>
<trkpt lat="59.4557054" lon="31.1924939">
<ele>23.160000</ele>
<time>2026-08-31T23:34:47.000Z</time>
</trkpt>
<trkpt lat="59.4558480" lon="31.1924688">
<ele>30.150000</ele>
<time>2026-08-31T23:35:05.000Z</time>
</trkpt>
<trkpt lat="59.4559112" lon="31.1924612">
<ele>35.770000</ele>
<time>2026-08-31T23:35:31.000Z</time>
</trkpt>
<trkpt lat="59.4559305" lon="31.1923848">
<ele>40.619999</ele>
<time>2026-08-31T23:36:02.000Z</time>
</trkpt>
<trkpt lat="59.4558992" lon="31.1923722">
<ele>38.430000</ele>
<time>2026-08-31T23:36:42.000Z</time>
</trkpt>
<trkpt lat="59.4559390" lon="31.1924409">
<ele>38.770000</ele>
<time>2026-08-31T23:37:16.000Z</time>
</trkpt>
<trkpt lat="59.4560750" lon="31.1925041">
<ele>34.700001</ele>
<time>2026-08-31T23:37:36.000Z</time>
</trkpt>
<trkpt lat="59.4562671" lon="31.1925655">
<ele>21.680000</ele>
<time>2026-08-31T23:37:57.000Z</time>
</trkpt>
<trkpt lat="59.4564567" lon="31.1926062">
<ele>15.799999</ele>
<time>2026-08-31T23:38:18.000Z</time>
</trkpt>
<trkpt lat="59.4567174" lon="31.1926553">
<ele>12.890000</ele>
<time>2026-08-31T23:38:43.000Z</time>
</trkpt>
<trkpt lat="59.4569597" lon="31.1926656">
<ele>12.070001</ele>
<time>2026-08-31T23:39:04.000Z</time>
</trkpt>
<trkpt lat="59.4571725" lon="31.1927231">
<ele>10.290000</ele>
<time>2026-08-31T23:39:24.000Z</time>
</trkpt>
<trkpt lat="59.4573840" lon="31.1927651">
<ele>21.959999</ele>
<time>2026-08-31T23:39:42.000Z</time>
</trkpt>
<trkpt lat="59.4574772" lon="31.1927997">
<ele>27.789999</ele>
<time>2026-08-31T23:40:03.000Z</time>
</trkpt>
<trkpt lat="59.4575031" lon="31.1927161">
<ele>27.369999</ele>
<time>2026-08-31T23:40:33.000Z</time>
</trkpt>
<trkpt lat="59.4575195" lon="31.1926622">
<ele>28.430000</ele>
<time>2026-08-31T23:40:58.000Z</time>
</trkpt>
<trkpt lat="59.4574879" lon="31.1926411">
<ele>28.870001</ele>
<time>2026-08-31T23:41:29.000Z</time>
</trkpt>
<trkpt lat="59.4575242" lon="31.1927583">
<ele>27.939999</ele>
<time>2026-08-31T23:42:04.000Z</time>
</trkpt>
<trkpt lat="59.4576942" lon="31.1927976">
<ele>24.980001</ele>
<time>2026-08-31T23:42:25.000Z</time>
</trkpt>
<trkpt lat="59.4579141" lon="31.1928612">
<ele>21.240000</ele>
<time>2026-08-31T23:42:47.000Z</time>
</trkpt>
<trkpt lat="59.4581845" lon="31.1929144">
<ele>19.309999</ele>
<time>2026-08-31T23:43:13.000Z</time>
</trkpt>
<trkpt lat="59.4584134" lon="31.1929451">
<ele>22.350000</ele>
<time>2026-08-31T23:43:35.000Z</time>
</trkpt>
<trkpt lat="59.4586142" lon="31.1929918">
<ele>19.770000</ele>
<time>2026-08-31T23:43:57.000Z</time>
</trkpt>
<trkpt lat="59.4588124" lon="31.1930348">
<ele>21.820002</ele>
<time>2026-08-31T23:44:18.000Z</time>
</trkpt>
<trkpt lat="59.4590250" lon="31.1930802">
<ele>18.119999</ele>
<time>2026-08-31T23:44:39.000Z</time>
</trkpt>
<trkpt lat="59.4592396" lon="31.1930993">
<ele>11.820000</ele>
<time>2026-08-31T23:45:04.000Z</time>
</trkpt>
<trkpt lat="59.4594736" lon="31.1931701">
<ele>8.500000</ele>
<time>2026-08-31T23:45:29.000Z</time>
</trkpt>
<trkpt lat="59.4595976" lon="31.1932165">
<ele>21.320002</ele>
<time>2026-08-31T23:45:49.000Z</time>
</trkpt>
<trkpt lat="59.4597029" lon="31.1930734">
<ele>32.299999</ele>
<time>2026-08-31T23:46:18.000Z</time>
</trkpt>
<trkpt lat="59.4597067" lon="31.1931262">
<ele>36.020000</ele>
<time>2026-08-31T23:46:50.000Z</time>
</trkpt>
<trkpt lat="59.4596803" lon="31.1931159">
<ele>38.320000</ele>
<time>2026-08-31T23:47:15.000Z</time>
</trkpt>
<trkpt lat="59.4596869" lon="31.1931457">
<ele>39.489998</ele>
<time>2026-08-31T23:47:46.000Z</time>
</trkpt>
<trkpt lat="59.4598100" lon="31.1932038">
<ele>38.779999</ele>
<time>2026-08-31T23:48:07.000Z</time>
</trkpt>
<trkpt lat="59.4599741" lon="31.1932325">
<ele>34.170002</ele>
<time>2026-08-31T23:48:27.000Z</time>
</trkpt>
<trkpt lat="59.4601803" lon="31.1932921">
<ele>26.080002</ele>
<time>2026-08-31T23:48:49.000Z</time>
</trkpt>
<trkpt lat="59.4603711" lon="31.1933348">
<ele>16.090000</ele>
<time>2026-08-31T23:49:14.000Z</time>
</trkpt>
<trkpt lat="59.4606644" lon="31.1934075">
<ele>22.920000</ele>
<time>2026-08-31T23:49:38.000Z</time>
</trkpt>
<trkpt lat="59.4608429" lon="31.1934337">
<ele>27.910002</ele>
<time>2026-08-31T23:49:53.000Z</time>
</trkpt>
<trkpt lat="59.4610447" lon="31.1934631">
<ele>26.949999</ele>
<time>2026-08-31T23:50:14.000Z</time>
</trkpt>
<trkpt lat="59.4611461" lon="31.1934441">
<ele>31.460001</ele>
<time>2026-08-31T23:50:30.000Z</time>
</trkpt>
<trkpt lat="59.4612086" lon="31.1934587">
<ele>34.439999</ele>
<time>2026-08-31T23:50:58.000Z</time>
</trkpt>
<trkpt lat="59.4612799" lon="31.1934724">
<ele>45.570000</ele>
<time>2026-08-31T23:51:29.000Z</time>
</trkpt>
<trkpt lat="59.4612460" lon="31.1934481">
<ele>45.100002</ele>
<time>2026-08-31T23:51:53.000Z</time>
</trkpt>
<trkpt lat="59.4612801" lon="31.1934735">
<ele>44.590000</ele>
<time>2026-08-31T23:52:24.000Z</time>
</trkpt>
<trkpt lat="59.4613791" lon="31.1934723">
<ele>42.940002</ele>
<time>2026-08-31T23:52:43.000Z</time>
</trkpt>
<trkpt lat="59.4614981" lon="31.1934973">
<ele>33.959999</ele>
<time>2026-08-31T23:53:02.000Z</time>
</trkpt>
<trkpt lat="59.4616668" lon="31.1935179">
<ele>38.149998</ele>
<time>2026-08-31T23:53:25.000Z</time>
</trkpt>
<trkpt lat="59.4617181" lon="31.1935318">
<ele>36.830002</ele>
<time>2026-08-31T23:53:43.000Z</time>
</trkpt>
<trkpt lat="59.4617260" lon="31.1935122">
<ele>35.169998</ele>
<time>2026-08-31T23:54:07.000Z</time>
</trkpt>
<trkpt lat="59.4617378" lon="31.1935314">
<ele>36.080002</ele>
<time>2026-08-31T23:54:33.000Z</time>
</trkpt>
<trkpt lat="59.4617207" lon="31.1935216">
<ele>37.270000</ele>
<time>2026-08-31T23:54:59.000Z</time>
</trkpt>
<trkpt lat="59.4617314" lon="31.1935194">
<ele>37.649998</ele>
<time>2026-08-31T23:55:26.000Z</time>
</trkpt>
<trkpt lat="59.4617354" lon="31.1935278">
<ele>37.330002</ele>
<time>2026-08-31T23:55:49.000Z</time>
</trkpt>
<trkpt lat="59.4616892" lon="31.1935396">
<ele>35.930000</ele>
<time>2026-08-31T23:56:12.000Z</time>
</trkpt>
<trkpt lat="59.4616473" lon="31.1935389">
<ele>35.459999</ele>
<time>2026-08-31T23:56:46.000Z</time>
</trkpt>
<trkpt lat="59.4617037" lon="31.1935383">
<ele>35.760002</ele>
<time>2026-08-31T23:57:18.000Z</time>
</trkpt>
<trkpt lat="59.4617084" lon="31.1935669">
<ele>35.250000</ele>
<time>2026-08-31T23:57:46.000Z</time>
</trkpt>
<trkpt lat="59.4616461" lon="31.1936076">
<ele>32.080002</ele>
<time>2026-08-31T23:58:13.000Z</time>
</trkpt>
<trkpt lat="59.4616801" lon="31.1935687">
<ele>32.439999</ele>
<time>2026-08-31T23:59:00.000Z</time>
</trkpt>
<trkpt lat="59.4617079" lon="31.1935949">
<ele>31.690001</ele>
<time>2026-08-31T23:59:29.000Z</time>
</trkpt>
<trkpt lat="59.4617171" lon="31.1936037">
<ele>31.439999</ele>
<time>2026-08-31T23:59:38.000Z</time>
</trkpt>
<trkpt lat="59.4616824" lon="31.1935567">
<ele>32.459999</ele>
<time>2026-09-01T00:00:06.000Z</time>
</trkpt>
<trkpt lat="59.4617088" lon="31.1934889">
<ele>32.860001</ele>
<time>2026-09-01T00:00:29.000Z</time>
</trkpt>
<trkpt lat="59.4617041" lon="31.1935153">
<ele>31.990002</ele>
<time>2026-09-01T00:00:50.000Z</time>
</trkpt>
<trkpt lat="59.4617193" lon="31.1936076">
<ele>32.000000</ele>
<time>2026-09-01T00:01:16.000Z</time>
</trkpt>
<trkpt lat="59.4617103" lon="31.1937695">
<ele>31.490002</ele>
<time>2026-09-01T00:01:35.000Z</time>
</trkpt>
<trkpt lat="59.4616850" lon="31.1937733">
<ele>32.610001</ele>
<time>2026-09-01T00:02:03.000Z</time>
</trkpt>
<trkpt lat="59.4617377" lon="31.1937683">
<ele>32.549999</ele>
<time>2026-09-01T00:02:31.000Z</time>
</trkpt>
<trkpt lat="59.4617288" lon="31.1937303">
<ele>33.279999</ele>
<time>2026-09-01T00:02:59.000Z</time>
</trkpt>
<trkpt lat="59.4617659" lon="31.1937528">
<ele>34.099998</ele>
<time>2026-09-01T00:03:26.000Z</time>
</trkpt>
<trkpt lat="59.4617839" lon="31.1937437">
<ele>33.100002</ele>
<time>2026-09-01T00:03:55.000Z</time>
</trkpt>
<trkpt lat="59.4617715" lon="31.1937997">
<ele>33.980000</ele>
<time>2026-09-01T00:04:07.000Z</time>
</trkpt>
<trkpt lat="59.4617658" lon="31.1937536">
<ele>34.220001</ele>
<time>2026-09-01T00:04:24.000Z</time>
</trkpt>
<trkpt lat="59.4617452" lon="31.1936847">
<ele>33.820000</ele>
<time>2026-09-01T00:04:52.000Z</time>
</trkpt>
<trkpt lat="59.4617434" lon="31.1937180">
<ele>34.520000</ele>
<time>2026-09-01T00:05:18.000Z</time>
</trkpt>
<trkpt lat="59.4617498" lon="31.1937596">
<ele>35.219997</ele>
<time>2026-09-01T00:05:44.000Z</time>
</trkpt>
<trkpt lat="59.4617596" lon="31.1937745">
<ele>36.180000</ele>
<time>2026-09-01T00:06:10.000Z</time>
</trkpt>
<trkpt lat="59.4617565" lon="31.1937486">
<ele>38.230000</ele>
<time>2026-09-01T00:06:38.000Z</time>
</trkpt>
<trkpt lat="59.4617849" lon="31.1937966">
<ele>38.820000</ele>
<time>2026-09-01T00:07:08.000Z</time>
</trkpt>
<trkpt lat="59.4617938" lon="31.1938033">
<ele>39.610001</ele>
<time>2026-09-01T00:07:34.000Z</time>
</trkpt>
<trkpt lat="59.4617926" lon="31.1937654">
<ele>37.500000</ele>
<time>2026-09-01T00:08:02.000Z</time>
</trkpt>
<trkpt lat="59.4617680" lon="31.1937530">
<ele>36.720001</ele>
<time>2026-09-01T00:08:28.000Z</time>
</trkpt>
<trkpt lat="59.4617294" lon="31.1937657">
<ele>36.410000</ele>
<time>2026-09-01T00:08:52.000Z</time>
</trkpt>
<trkpt lat="59.4617460" lon="31.1937442">
<ele>36.779999</ele>
<time>2026-09-01T00:09:18.000Z</time>
</trkpt>
<trkpt lat="59.4617426" lon="31.1937395">
<ele>36.420002</ele>
<time>2026-09-01T00:09:38.000Z</time>
</trkpt>
<trkpt lat="59.4617327" lon="31.1937066">
<ele>36.549999</ele>
<time>2026-09-01T00:10:06.000Z</time>
</trkpt>
<trkpt lat="59.4617477" lon="31.1937260">
<ele>36.230000</ele>
<time>2026-09-01T00:10:32.000Z</time>
</trkpt>
<trkpt lat="59.4617900" lon="31.1937738">
<ele>34.910000</ele>
<time>2026-09-01T00:10:58.000Z</time>
</trkpt>
<trkpt lat="59.4617578" lon="31.1938039">
<ele>37.680000</ele>
<time>2026-09-01T00:11:31.000Z</time>
</trkpt>
<trkpt lat="59.4617324" lon="31.1937795">
<ele>39.649998</ele>
<time>2026-09-01T00:12:02.000Z</time>
</trkpt>
<trkpt lat="59.4617818" lon="31.1937931">
<ele>42.320000</ele>
<time>2026-09-01T00:12:29.000Z</time>
</trkpt>
<trkpt lat="59.4617813" lon="31.1938013">
<ele>41.299999</ele>
<time>2026-09-01T00:12:50.000Z</time>
</trkpt>
<trkpt lat="59.4617420" lon="31.1937837">
<ele>41.989998</ele>
<time>2026-09-01T00:13:17.000Z</time>
</trkpt>
<trkpt lat="59.4617563" lon="31.1938227">
<ele>41.830002</ele>
<time>2026-09-01T00:13:43.000Z</time>
</trkpt>
<trkpt lat="59.4617551" lon="31.1938727">
<ele>41.590000</ele>
<time>2026-09-01T00:14:12.000Z</time>
</trkpt>
<trkpt lat="59.4617649" lon="31.1938712">
<ele>42.420002</ele>
<time>2026-09-01T00:14:39.000Z</time>
</trkpt>
<trkpt lat="59.4617724" lon="31.1938375">
<ele>42.619999</ele>
<time>2026-09-01T00:15:05.000Z</time>
</trkpt>
<trkpt lat="59.4617743" lon="31.1936378">
<ele>41.040001</ele>
<time>2026-09-01T00:15:28.000Z</time>
</trkpt>
<trkpt lat="59.4617793" lon="31.1935817">
<ele>40.419998</ele>
<time>2026-09-01T00:15:39.000Z</time>
</trkpt>
<trkpt lat="59.4617584" lon="31.1935184">
<ele>40.719997</ele>
<time>2026-09-01T00:16:00.000Z</time>
</trkpt>
<trkpt lat="59.4617870" lon="31.1935371">
<ele>41.329998</ele>
<time>2026-09-01T00:16:32.000Z</time>
</trkpt>
<trkpt lat="59.4617772" lon="31.1935405">
<ele>42.889999</ele>
<time>2026-09-01T00:16:59.000Z</time>
</trkpt>
<trkpt lat="59.4617841" lon="31.1935515">
<ele>44.299999</ele>
<time>2026-09-01T00:17:22.000Z</time>
</trkpt>
<trkpt lat="59.4617782" lon="31.1935792">
<ele>45.709999</ele>
<time>2026-09-01T00:17:52.000Z</time>
</trkpt>
<trkpt lat="59.4617825" lon="31.1935380">
<ele>44.959999</ele>
<time>2026-09-01T00:18:20.000Z</time>
</trkpt>
<trkpt lat="59.4617734" lon="31.1935864">
<ele>44.139999</ele>
<time>2026-09-01T00:18:48.000Z</time>
</trkpt>
<trkpt lat="59.4617542" lon="31.1936102">
<ele>43.580002</ele>
<time>2026-09-01T00:19:20.000Z</time>
</trkpt>
<trkpt lat="59.4617936" lon="31.1935945">
<ele>42.629997</ele>
<time>2026-09-01T00:19:42.000Z</time>
</trkpt>
<trkpt lat="59.4619911" lon="31.1935988">
<ele>39.740002</ele>
<time>2026-09-01T00:20:05.000Z</time>
</trkpt>
<trkpt lat="59.4621603" lon="31.1936023">
<ele>36.090000</ele>
<time>2026-09-01T00:20:23.000Z</time>
</trkpt>
<trkpt lat="59.4623580" lon="31.1936438">
<ele>35.799999</ele>
<time>2026-09-01T00:20:41.000Z</time>
</trkpt>
<trkpt lat="59.4625594" lon="31.1936792">
<ele>36.689999</ele>
<time>2026-09-01T00:21:01.000Z</time>
</trkpt>
<trkpt lat="59.4627920" lon="31.1937114">
<ele>35.029999</ele>
<time>2026-09-01T00:21:25.000Z</time>
</trkpt>
<trkpt lat="59.4630208" lon="31.1937654">
<ele>31.639999</ele>
<time>2026-09-01T00:21:47.000Z</time>
</trkpt>
<trkpt lat="59.4631618" lon="31.1938015">
<ele>34.279999</ele>
<time>2026-09-01T00:22:07.000Z</time>
</trkpt>
<trkpt lat="59.4631767" lon="31.1938050">
<ele>34.310001</ele>
<time>2026-09-01T00:22:36.000Z</time>
</trkpt>
<trkpt lat="59.4631748" lon="31.1938170">
<ele>32.720001</ele>
<time>2026-09-01T00:23:07.000Z</time>
</trkpt>
<trkpt lat="59.4631552" lon="31.1938015">
<ele>33.100002</ele>
<time>2026-09-01T00:23:35.000Z</time>
</trkpt>
<trkpt lat="59.4632065" lon="31.1937571">
<ele>33.959999</ele>
<time>2026-09-01T00:24:03.000Z</time>
</trkpt>
<trkpt lat="59.4633286" lon="31.1938052">
<ele>33.830002</ele>
<time>2026-09-01T00:24:21.000Z</time>
</trkpt>
<trkpt lat="59.4634688" lon="31.1938298">
<ele>27.700001</ele>
<time>2026-09-01T00:24:41.000Z</time>
</trkpt>
<trkpt lat="59.4634761" lon="31.1938322">
<ele>27.300001</ele>
<time>2026-09-01T00:24:42.000Z</time>
</trkpt>
<trkpt lat="59.4636387" lon="31.1938747">
<ele>21.070000</ele>
<time>2026-09-01T00:24:59.000Z</time>
</trkpt>
<trkpt lat="59.4638699" lon="31.1939159">
<ele>24.799999</ele>
<time>2026-09-01T00:25:20.000Z</time>
</trkpt>
<trkpt lat="59.4640689" lon="31.1939830">
<ele>33.649998</ele>
<time>2026-09-01T00:25:39.000Z</time>
</trkpt>
<trkpt lat="59.4642642" lon="31.1939968">
<ele>34.520000</ele>
<time>2026-09-01T00:25:58.000Z</time>
</trkpt>
<trkpt lat="59.4644385" lon="31.1940172">
<ele>36.279999</ele>
<time>2026-09-01T00:26:15.000Z</time>
</trkpt>
<trkpt lat="59.4644847" lon="31.1940240">
<ele>36.619999</ele>
<time>2026-09-01T00:26:19.000Z</time>
</trkpt>
<trkpt lat="59.4645814" lon="31.1940540">
<ele>39.119999</ele>
<time>2026-09-01T00:26:36.000Z</time>
</trkpt>
<trkpt lat="59.4645911" lon="31.1940717">
<ele>39.680000</ele>
<time>2026-09-01T00:27:04.000Z</time>
</trkpt>
<trkpt lat="59.4646376" lon="31.1940441">
<ele>43.980000</ele>
<time>2026-09-01T00:27:38.000Z</time>
</trkpt>
<trkpt lat="59.4646311" lon="31.1940473">
<ele>45.170002</ele>
<time>2026-09-01T00:28:07.000Z</time>
</trkpt>
<trkpt lat="59.4646230" lon="31.1940483">
<ele>45.480000</ele>
<time>2026-09-01T00:28:41.000Z</time>
</trkpt>
<trkpt lat="59.4646438" lon="31.1940449">
<ele>45.000004</ele>
<time>2026-09-01T00:29:08.000Z</time>
</trkpt>
<trkpt lat="59.4646966" lon="31.1940685">
<ele>44.070000</ele>
<time>2026-09-01T00:29:40.000Z</time>
</trkpt>
<trkpt lat="59.4648189" lon="31.1941104">
<ele>42.580002</ele>
<time>2026-09-01T00:29:56.000Z</time>
</trkpt>
<trkpt lat="59.4649366" lon="31.1941376">
<ele>39.830002</ele>
<time>2026-09-01T00:30:10.000Z</time>
</trkpt>
<trkpt lat="59.4650624" lon="31.1941565">
<ele>38.970001</ele>
<time>2026-09-01T00:30:23.000Z</time>
</trkpt>
<trkpt lat="59.4650884" lon="31.1941802">
<ele>40.320000</ele>
<time>2026-09-01T00:30:35.000Z</time>
</trkpt>
<trkpt lat="59.4651112" lon="31.1941613">
<ele>40.370003</ele>
<time>2026-09-01T00:30:43.000Z</time>
</trkpt>
<trkpt lat="59.4652624" lon="31.1941357">
<ele>38.790001</ele>
<time>2026-09-01T00:31:03.000Z</time>
</trkpt>
<trkpt lat="59.4653778" lon="31.1940999">
<ele>39.070000</ele>
<time>2026-09-01T00:31:17.000Z</time>
</trkpt>
<trkpt lat="59.4655224" lon="31.1940819">
<ele>38.320000</ele>
<time>2026-09-01T00:31:33.000Z</time>
</trkpt>
<trkpt lat="59.4655399" lon="31.1941483">
<ele>38.850002</ele>
<time>2026-09-01T00:32:01.000Z</time>
</trkpt>
<trkpt lat="59.4655454" lon="31.1941143">
<ele>39.410000</ele>
<time>2026-09-01T00:32:30.000Z</time>
</trkpt>
<trkpt lat="59.4655578" lon="31.1940577">
<ele>38.740002</ele>
<time>2026-09-01T00:32:59.000Z</time>
</trkpt>
<trkpt lat="59.4655461" lon="31.1940826">
<ele>38.120003</ele>
<time>2026-09-01T00:33:33.000Z</time>
</trkpt>
<trkpt lat="59.4655534" lon="31.1940472">
<ele>40.760002</ele>
<time>2026-09-01T00:33:59.000Z</time>
</trkpt>
<trkpt lat="59.4655975" lon="31.1940219">
<ele>40.919998</ele>
<time>2026-09-01T00:34:35.000Z</time>
</trkpt>
<trkpt lat="59.4657032" lon="31.1939447">
<ele>40.280003</ele>
<time>2026-09-01T00:34:52.000Z</time>
</trkpt>
<trkpt lat="59.4657306" lon="31.1938913">
<ele>40.090000</ele>
<time>2026-09-01T00:35:16.000Z</time>
</trkpt>
<trkpt lat="59.4657377" lon="31.1938987">
<ele>42.190002</ele>
<time>2026-09-01T00:35:43.000Z</time>
</trkpt>
<trkpt lat="59.4657277" lon="31.1938318">
<ele>42.139999</ele>
<time>2026-09-01T00:36:10.000Z</time>
</trkpt>
<trkpt lat="59.4657362" lon="31.1938748">
<ele>43.590000</ele>
<time>2026-09-01T00:36:40.000Z</time>
</trkpt>
<trkpt lat="59.4658157" lon="31.1938447">
<ele>47.709999</ele>
<time>2026-09-01T00:37:12.000Z</time>
</trkpt>
<trkpt lat="59.4658017" lon="31.1938710">
<ele>47.639999</ele>
<time>2026-09-01T00:37:41.000Z</time>
</trkpt>
<trkpt lat="59.4657637" lon="31.1939132">
<ele>47.429996</ele>
<time>2026-09-01T00:38:07.000Z</time>
</trkpt>
<trkpt lat="59.4657510" lon="31.1939492">
<ele>46.660000</ele>
<time>2026-09-01T00:38:33.000Z</time>
</trkpt>
<trkpt lat="59.4657362" lon="31.1939935">
<ele>45.610001</ele>
<time>2026-09-01T00:38:55.000Z</time>
</trkpt>
<trkpt lat="59.4657243" lon="31.1940058">
<ele>44.959999</ele>
<time>2026-09-01T00:39:21.000Z</time>
</trkpt>
<trkpt lat="59.4657033" lon="31.1941337">
<ele>43.669998</ele>
<time>2026-09-01T00:39:39.000Z</time>
</trkpt>
<trkpt lat="59.4656721" lon="31.1944305">
<ele>42.619999</ele>
<time>2026-09-01T00:40:01.000Z</time>
</trkpt>
<trkpt lat="59.4656889" lon="31.1947060">
<ele>41.590000</ele>
<time>2026-09-01T00:40:19.000Z</time>
</trkpt>
<trkpt lat="59.4657819" lon="31.1947601">
<ele>41.410000</ele>
<time>2026-09-01T00:40:37.000Z</time>
</trkpt>
<trkpt lat="59.4659352" lon="31.1946839">
<ele>41.220001</ele>
<time>2026-09-01T00:40:54.000Z</time>
</trkpt>
<trkpt lat="59.4659868" lon="31.1946560">
<ele>40.949997</ele>
<time>2026-09-01T00:41:09.000Z</time>
</trkpt>
<trkpt lat="59.4659796" lon="31.1946537">
<ele>41.320000</ele>
<time>2026-09-01T00:41:31.000Z</time>
</trkpt>
<trkpt lat="59.4659826" lon="31.1946608">
<ele>43.079998</ele>
<time>2026-09-01T00:42:18.000Z</time>
</trkpt>
<trkpt lat="59.4660224" lon="31.1946675">
<ele>45.700001</ele>
<time>2026-09-01T00:42:53.000Z</time>
</trkpt>
<trkpt lat="59.4661045" lon="31.1945840">
<ele>46.480000</ele>
<time>2026-09-01T00:43:18.000Z</time>
</trkpt>
<trkpt lat="59.4662355" lon="31.1944265">
<ele>45.560001</ele>
<time>2026-09-01T00:43:36.000Z</time>
</trkpt>
<trkpt lat="59.4663827" lon="31.1943768">
<ele>43.469997</ele>
<time>2026-09-01T00:43:57.000Z</time>
</trkpt>
<trkpt lat="59.4665987" lon="31.1943861">
<ele>38.820000</ele>
<time>2026-09-01T00:44:22.000Z</time>
</trkpt>
<trkpt lat="59.4666487" lon="31.1944332">
<ele>41.779999</ele>
<time>2026-09-01T00:44:47.000Z</time>
</trkpt>
<trkpt lat="59.4666627" lon="31.1944721">
<ele>40.290001</ele>
<time>2026-09-01T00:45:14.000Z</time>
</trkpt>
<trkpt lat="59.4666822" lon="31.1945026">
<ele>40.740002</ele>
<time>2026-09-01T00:45:41.000Z</time>
</trkpt>
<trkpt lat="59.4666760" lon="31.1944730">
<ele>41.889999</ele>
<time>2026-09-01T00:46:08.000Z</time>
</trkpt>
<trkpt lat="59.4666805" lon="31.1944949">
<ele>42.590000</ele>
<time>2026-09-01T00:46:31.000Z</time>
</trkpt>
<trkpt lat="59.4668016" lon="31.1944932">
<ele>42.740002</ele>
<time>2026-09-01T00:46:50.000Z</time>
</trkpt>
<trkpt lat="59.4669909" lon="31.1945035">
<ele>39.530003</ele>
<time>2026-09-01T00:47:15.000Z</time>
</trkpt>
<trkpt lat="59.4671671" lon="31.1945057">
<ele>35.160000</ele>
<time>2026-09-01T00:47:36.000Z</time>
</trkpt>
<trkpt lat="59.4674344" lon="31.1945991">
<ele>36.380001</ele>
<time>2026-09-01T00:47:59.000Z</time>
</trkpt>
<trkpt lat="59.4676644" lon="31.1946185">
<ele>35.010002</ele>
<time>2026-09-01T00:48:21.000Z</time>
</trkpt>
<trkpt lat="59.4678319" lon="31.1946202">
<ele>31.850000</ele>
<time>2026-09-01T00:48:39.000Z</time>
</trkpt>
<trkpt lat="59.4680171" lon="31.1946554">
<ele>33.259998</ele>
<time>2026-09-01T00:48:59.000Z</time>
</trkpt>
<trkpt lat="59.4681075" lon="31.1947041">
<ele>38.029999</ele>
<time>2026-09-01T00:49:20.000Z</time>
</trkpt>
<trkpt lat="59.4681322" lon="31.1947315">
<ele>39.389999</ele>
<time>2026-09-01T00:49:50.000Z</time>
</trkpt>
<trkpt lat="59.4681558" lon="31.1947091">
<ele>39.470001</ele>
<time>2026-09-01T00:50:23.000Z</time>
</trkpt>
<trkpt lat="59.4681875" lon="31.1946277">
<ele>42.420002</ele>
<time>2026-09-01T00:50:53.000Z</time>
</trkpt>
<trkpt lat="59.4681561" lon="31.1946854">
<ele>43.379997</ele>
<time>2026-09-01T00:51:21.000Z</time>
</trkpt>
<trkpt lat="59.4680721" lon="31.1946706">
<ele>42.740002</ele>
<time>2026-09-01T00:51:43.000Z</time>
</trkpt>
<trkpt lat="59.4680378" lon="31.1946321">
<ele>42.340000</ele>
<time>2026-09-01T00:52:13.000Z</time>
</trkpt>
<trkpt lat="59.4680279" lon="31.1946259">
<ele>42.120003</ele>
<time>2026-09-01T00:52:55.000Z</time>
</trkpt>
<trkpt lat="59.4680492" lon="31.1946606">
<ele>43.520000</ele>
<time>2026-09-01T00:53:24.000Z</time>
</trkpt>
<trkpt lat="59.4682219" lon="31.1947539">
<ele>42.060001</ele>
<time>2026-09-01T00:53:48.000Z</time>
</trkpt>
<trkpt lat="59.4683466" lon="31.1947717">
<ele>41.529999</ele>
<time>2026-09-01T00:54:08.000Z</time>
</trkpt>
<trkpt lat="59.4684638" lon="31.1947648">
<ele>40.770000</ele>
<time>2026-09-01T00:54:20.000Z</time>
</trkpt>
<trkpt lat="59.4687081" lon="31.1948264">
<ele>40.680000</ele>
<time>2026-09-01T00:54:43.000Z</time>
</trkpt>
<trkpt lat="59.4689644" lon="31.1948630">
<ele>37.330002</ele>
<time>2026-09-01T00:55:09.000Z</time>
</trkpt>
<trkpt lat="59.4692560" lon="31.1949199">
<ele>41.110001</ele>
<time>2026-09-01T00:55:35.000Z</time>
</trkpt>
<trkpt lat="59.4694658" lon="31.1949792">
<ele>39.939999</ele>
<time>2026-09-01T00:55:51.000Z</time>
</trkpt>
<trkpt lat="59.4695478" lon="31.1949879">
<ele>42.009998</ele>
<time>2026-09-01T00:56:11.000Z</time>
</trkpt>
<trkpt lat="59.4695931" lon="31.1949511">
<ele>46.110001</ele>
<time>2026-09-01T00:56:36.000Z</time>
</trkpt>
<trkpt lat="59.4696018" lon="31.1949973">
<ele>49.220001</ele>
<time>2026-09-01T00:57:08.000Z</time>
</trkpt>
<trkpt lat="59.4696304" lon="31.1950219">
<ele>50.539997</ele>
<time>2026-09-01T00:57:43.000Z</time>
</trkpt>
<trkpt lat="59.4696236" lon="31.1950229">
<ele>50.200001</ele>
<time>2026-09-01T00:58:11.000Z</time>
</trkpt>
<trkpt lat="59.4696959" lon="31.1950462">
<ele>49.430000</ele>
<time>2026-09-01T00:58:34.000Z</time>
</trkpt>
<trkpt lat="59.4698219" lon="31.1950563">
<ele>48.480000</ele>
<time>2026-09-01T00:58:52.000Z</time>
</trkpt>
<trkpt lat="59.4699608" lon="31.1950614">
<ele>46.370003</ele>
<time>2026-09-01T00:59:09.000Z</time>
</trkpt>
<trkpt lat="59.4700920" lon="31.1950979">
<ele>43.149998</ele>
<time>2026-09-01T00:59:24.000Z</time>
</trkpt>
<trkpt lat="59.4702047" lon="31.1950994">
<ele>39.269997</ele>
<time>2026-09-01T00:59:39.000Z</time>
</trkpt>
<trkpt lat="59.4703369" lon="31.1951087">
<ele>40.120003</ele>
<time>2026-09-01T00:59:51.000Z</time>
</trkpt>
<trkpt lat="59.4705457" lon="31.1952071">
<ele>38.369999</ele>
<time>2026-09-01T01:00:10.000Z</time>
</trkpt>
<trkpt lat="59.4707481" lon="31.1952417">
<ele>38.970001</ele>
<time>2026-09-01T01:00:33.000Z</time>
</trkpt>
<trkpt lat="59.4707826" lon="31.1952296">
<ele>41.900002</ele>
<time>2026-09-01T01:00:53.000Z</time>
</trkpt>
<trkpt lat="59.4707681" lon="31.1952795">
<ele>43.360001</ele>
<time>2026-09-01T01:01:25.000Z</time>
</trkpt>
<trkpt lat="59.4707830" lon="31.1952869">
<ele>44.470001</ele>
<time>2026-09-01T01:01:57.000Z</time>
</trkpt>
<trkpt lat="59.4707853" lon="31.1953068">
<ele>44.160004</ele>
<time>2026-09-01T01:02:27.000Z</time>
</trkpt>
<trkpt lat="59.4708167" lon="31.1952978">
<ele>44.230000</ele>
<time>2026-09-01T01:02:50.000Z</time>
</trkpt>
<trkpt lat="59.4708429" lon="31.1953001">
<ele>44.390003</ele>
<time>2026-09-01T01:03:17.000Z</time>
</trkpt>
<trkpt lat="59.4710108" lon="31.1952853">
<ele>44.920002</ele>
<time>2026-09-01T01:03:37.000Z</time>
</trkpt>
<trkpt lat="59.4711399" lon="31.1952558">
<ele>43.980000</ele>
<time>2026-09-01T01:03:51.000Z</time>
</trkpt>
<trkpt lat="59.4713039" lon="31.1952299">
<ele>42.510002</ele>
<time>2026-09-01T01:04:09.000Z</time>
</trkpt>
<trkpt lat="59.4714715" lon="31.1952826">
<ele>40.520000</ele>
<time>2026-09-01T01:04:27.000Z</time>
</trkpt>
<trkpt lat="59.4716515" lon="31.1953240">
<ele>35.889999</ele>
<time>2026-09-01T01:04:46.000Z</time>
</trkpt>
<trkpt lat="59.4718302" lon="31.1953751">
<ele>33.560001</ele>
<time>2026-09-01T01:05:07.000Z</time>
</trkpt>
<trkpt lat="59.4720387" lon="31.1953954">
<ele>31.789999</ele>
<time>2026-09-01T01:05:28.000Z</time>
</trkpt>
<trkpt lat="59.4720432" lon="31.1954072">
<ele>31.740000</ele>
<time>2026-09-01T01:05:29.000Z</time>
</trkpt>
<trkpt lat="59.4721523" lon="31.1954355">
<ele>34.480000</ele>
<time>2026-09-01T01:05:54.000Z</time>
</trkpt>
<trkpt lat="59.4721547" lon="31.1953885">
<ele>33.060001</ele>
<time>2026-09-01T01:06:26.000Z</time>
</trkpt>
<trkpt lat="59.4722310" lon="31.1954061">
<ele>33.469997</ele>
<time>2026-09-01T01:06:54.000Z</time>
</trkpt>
<trkpt lat="59.4722539" lon="31.1954416">
<ele>36.059998</ele>
<time>2026-09-01T01:07:23.000Z</time>
</trkpt>
<trkpt lat="59.4722625" lon="31.1955099">
<ele>39.090000</ele>
<time>2026-09-01T01:07:50.000Z</time>
</trkpt>
<trkpt lat="59.4723469" lon="31.1955007">
<ele>40.200001</ele>
<time>2026-09-01T01:08:09.000Z</time>
</trkpt>
<trkpt lat="59.4724694" lon="31.1954927">
<ele>39.579998</ele>
<time>2026-09-01T01:08:25.000Z</time>
</trkpt>
<trkpt lat="59.4726300" lon="31.1954836">
<ele>37.750000</ele>
<time>2026-09-01T01:08:46.000Z</time>
</trkpt>
<trkpt lat="59.4728073" lon="31.1955297">
<ele>33.029999</ele>
<time>2026-09-01T01:09:04.000Z</time>
</trkpt>
<trkpt lat="59.4729460" lon="31.1956261">
<ele>29.900000</ele>
<time>2026-09-01T01:09:17.000Z</time>
</trkpt>
<trkpt lat="59.4731001" lon="31.1956336">
<ele>31.670000</ele>
<time>2026-09-01T01:09:37.000Z</time>
</trkpt>
<trkpt lat="59.4733324" lon="31.1956055">
<ele>31.809999</ele>
<time>2026-09-01T01:10:01.000Z</time>
</trkpt>
<trkpt lat="59.4735500" lon="31.1955801">
<ele>30.109999</ele>
<time>2026-09-01T01:10:23.000Z</time>
</trkpt>
<trkpt lat="59.4736137" lon="31.1956485">
<ele>28.840000</ele>
<time>2026-09-01T01:10:45.000Z</time>
</trkpt>
<trkpt lat="59.4736716" lon="31.1957205">
<ele>31.549999</ele>
<time>2026-09-01T01:11:10.000Z</time>
</trkpt>
<trkpt lat="59.4736638" lon="31.1957297">
<ele>33.009998</ele>
<time>2026-09-01T01:11:32.000Z</time>
</trkpt>
<trkpt lat="59.4736820" lon="31.1957916">
<ele>36.189999</ele>
<time>2026-09-01T01:12:02.000Z</time>
</trkpt>
<trkpt lat="59.4736864" lon="31.1957610">
<ele>37.950001</ele>
<time>2026-09-01T01:12:35.000Z</time>
</trkpt>
<trkpt lat="59.4736983" lon="31.1957574">
<ele>37.809998</ele>
<time>2026-09-01T01:13:03.000Z</time>
</trkpt>
<trkpt lat="59.4737313" lon="31.1957383">
<ele>39.690002</ele>
<time>2026-09-01T01:13:32.000Z</time>
</trkpt>
<trkpt lat="59.4738491" lon="31.1957266">
<ele>40.470001</ele>
<time>2026-09-01T01:13:52.000Z</time>
</trkpt>
<trkpt lat="59.4739970" lon="31.1958396">
<ele>37.790001</ele>
<time>2026-09-01T01:14:11.000Z</time>
</trkpt>
<trkpt lat="59.4740317" lon="31.1961700">
<ele>33.160000</ele>
<time>2026-09-01T01:14:32.000Z</time>
</trkpt>
<trkpt lat="59.4740850" lon="31.1965590">
<ele>28.600000</ele>
<time>2026-09-01T01:14:54.000Z</time>
</trkpt>
<trkpt lat="59.4740608" lon="31.1969544">
<ele>27.340000</ele>
<time>2026-09-01T01:15:13.000Z</time>
</trkpt>
<trkpt lat="59.4741780" lon="31.1970730">
<ele>28.380001</ele>
<time>2026-09-01T01:15:29.000Z</time>
</trkpt>
<trkpt lat="59.4744239" lon="31.1970155">
<ele>26.320000</ele>
<time>2026-09-01T01:15:55.000Z</time>
</trkpt>
<trkpt lat="59.4746664" lon="31.1969782">
<ele>26.650000</ele>
<time>2026-09-01T01:16:19.000Z</time>
</trkpt>
<trkpt lat="59.4749137" lon="31.1969706">
<ele>31.700001</ele>
<time>2026-09-01T01:16:42.000Z</time>
</trkpt>
<trkpt lat="59.4749875" lon="31.1969905">
<ele>33.930000</ele>
<time>2026-09-01T01:16:49.000Z</time>
</trkpt>
<trkpt lat="59.4751156" lon="31.1970659">
<ele>37.389999</ele>
<time>2026-09-01T01:17:08.000Z</time>
</trkpt>
<trkpt lat="59.4751343" lon="31.1971047">
<ele>38.149998</ele>
<time>2026-09-01T01:17:43.000Z</time>
</trkpt>
<trkpt lat="59.4751341" lon="31.1970948">
<ele>39.590004</ele>
<time>2026-09-01T01:18:20.000Z</time>
</trkpt>
<trkpt lat="59.4751629" lon="31.1971159">
<ele>40.070000</ele>
<time>2026-09-01T01:18:50.000Z</time>
</trkpt>
<trkpt lat="59.4752566" lon="31.1970975">
<ele>40.779999</ele>
<time>2026-09-01T01:19:17.000Z</time>
</trkpt>
<trkpt lat="59.4753716" lon="31.1970962">
<ele>38.200001</ele>
<time>2026-09-01T01:19:36.000Z</time>
</trkpt>
<trkpt lat="59.4754692" lon="31.1970403">
<ele>34.350002</ele>
<time>2026-09-01T01:19:49.000Z</time>
</trkpt>
<trkpt lat="59.4756694" lon="31.1969037">
<ele>29.080000</ele>
<time>2026-09-01T01:20:12.000Z</time>
</trkpt>
<trkpt lat="59.4758273" lon="31.1968203">
<ele>26.180000</ele>
<time>2026-09-01T01:20:27.000Z</time>
</trkpt>
<trkpt lat="59.4759929" lon="31.1967861">
<ele>24.070000</ele>
<time>2026-09-01T01:20:46.000Z</time>
</trkpt>
<trkpt lat="59.4762250" lon="31.1967362">
<ele>20.110001</ele>
<time>2026-09-01T01:21:10.000Z</time>
</trkpt>
<trkpt lat="59.4764794" lon="31.1967958">
<ele>14.580000</ele>
<time>2026-09-01T01:21:35.000Z</time>
</trkpt>
<trkpt lat="59.4766724" lon="31.1968393">
<ele>15.400000</ele>
<time>2026-09-01T01:21:53.000Z</time>
</trkpt>
<trkpt lat="59.4768741" lon="31.1968069">
<ele>32.270000</ele>
<time>2026-09-01T01:22:18.000Z</time>
</trkpt>
<trkpt lat="59.4768951" lon="31.1968216">
<ele>40.299999</ele>
<time>2026-09-01T01:22:46.000Z</time>
</trkpt>
<trkpt lat="59.4768915" lon="31.1968340">
<ele>45.390003</ele>
<time>2026-09-01T01:23:11.000Z</time>
</trkpt>
<trkpt lat="59.4768874" lon="31.1969109">
<ele>45.909996</ele>
<time>2026-09-01T01:23:40.000Z</time>
</trkpt>
<trkpt lat="59.4768587" lon="31.1969725">
<ele>47.779999</ele>
<time>2026-09-01T01:24:09.000Z</time>
</trkpt>
<trkpt lat="59.4768569" lon="31.1970507">
<ele>48.259998</ele>
<time>2026-09-01T01:24:40.000Z</time>
</trkpt>
<trkpt lat="59.4769270" lon="31.1969743">
<ele>49.399998</ele>
<time>2026-09-01T01:25:12.000Z</time>
</trkpt>
<trkpt lat="59.4769103" lon="31.1968763">
<ele>52.010002</ele>
<time>2026-09-01T01:25:46.000Z</time>
</trkpt>
<trkpt lat="59.4769026" lon="31.1968268">
<ele>51.699997</ele>
<time>2026-09-01T01:26:15.000Z</time>
</trkpt>
<trkpt lat="59.4769183" lon="31.1968715">
<ele>49.599998</ele>
<time>2026-09-01T01:26:45.000Z</time>
</trkpt>
<trkpt lat="59.4771107" lon="31.1968700">
<ele>46.380001</ele>
<time>2026-09-01T01:27:11.000Z</time>
</trkpt>
<trkpt lat="59.4772501" lon="31.1968848">
<ele>40.080002</ele>
<time>2026-09-01T01:27:26.000Z</time>
</trkpt>
<trkpt lat="59.4774151" lon="31.1970180">
<ele>27.789999</ele>
<time>2026-09-01T01:27:47.000Z</time>
</trkpt>
<trkpt lat="59.4776829" lon="31.1970575">
<ele>17.620001</ele>
<time>2026-09-01T01:28:13.000Z</time>
</trkpt>
<trkpt lat="59.4776989" lon="31.1970557">
<ele>17.650000</ele>
<time>2026-09-01T01:28:14.000Z</time>
</trkpt>
<trkpt lat="59.4779153" lon="31.1971232">
<ele>13.830000</ele>
<time>2026-09-01T01:28:36.000Z</time>
</trkpt>
<trkpt lat="59.4781800" lon="31.1971104">
<ele>5.400000</ele>
<time>2026-09-01T01:28:58.000Z</time>
</trkpt>
<trkpt lat="59.4784369" lon="31.1971662">
<ele>12.309999</ele>
<time>2026-09-01T01:29:21.000Z</time>
</trkpt>
<trkpt lat="59.4785079" lon="31.1971388">
<ele>23.320000</ele>
<time>2026-09-01T01:29:46.000Z</time>
</trkpt>
<trkpt lat="59.4785578" lon="31.1971453">
<ele>29.740002</ele>
<time>2026-09-01T01:30:16.000Z</time>
</trkpt>
<trkpt lat="59.4785548" lon="31.1971528">
<ele>34.130001</ele>
<time>2026-09-01T01:30:49.000Z</time>
</trkpt>
<trkpt lat="59.4785492" lon="31.1971470">
<ele>36.119999</ele>
<time>2026-09-01T01:31:22.000Z</time>
</trkpt>
<trkpt lat="59.4785151" lon="31.1970645">
<ele>36.289997</ele>
<time>2026-09-01T01:31:50.000Z</time>
</trkpt>
<trkpt lat="59.4786498" lon="31.1970893">
<ele>36.820000</ele>
<time>2026-09-01T01:32:11.000Z</time>
</trkpt>
<trkpt lat="59.4787963" lon="31.1970950">
<ele>32.169998</ele>
<time>2026-09-01T01:32:29.000Z</time>
</trkpt>
<trkpt lat="59.4790909" lon="31.1970891">
<ele>22.869999</ele>
<time>2026-09-01T01:32:55.000Z</time>
</trkpt>
<trkpt lat="59.4791758" lon="31.1970785">
<ele>18.470001</ele>
<time>2026-09-01T01:33:10.000Z</time>
</trkpt>
<trkpt lat="59.4792574" lon="31.1970784">
<ele>26.770000</ele>
<time>2026-09-01T01:33:38.000Z</time>
</trkpt>
<trkpt lat="59.4792905" lon="31.1970752">
<ele>32.889999</ele>
<time>2026-09-01T01:34:05.000Z</time>
</trkpt>
<trkpt lat="59.4793091" lon="31.1970744">
<ele>37.970001</ele>
<time>2026-09-01T01:34:44.000Z</time>
</trkpt>
<trkpt lat="59.4793328" lon="31.1971283">
<ele>38.770000</ele>
<time>2026-09-01T01:35:08.000Z</time>
</trkpt>
<trkpt lat="59.4794797" lon="31.1972486">
<ele>37.939999</ele>
<time>2026-09-01T01:35:29.000Z</time>
</trkpt>
<trkpt lat="59.4795179" lon="31.1973032">
<ele>38.860001</ele>
<time>2026-09-01T01:35:47.000Z</time>
</trkpt>
<trkpt lat="59.4795056" lon="31.1972383">
<ele>40.830002</ele>
<time>2026-09-01T01:36:11.000Z</time>
</trkpt>
<trkpt lat="59.4794372" lon="31.1971862">
<ele>41.110001</ele>
<time>2026-09-01T01:36:36.000Z</time>
</trkpt>
<trkpt lat="59.4793186" lon="31.1971455">
<ele>41.160000</ele>
<time>2026-09-01T01:37:02.000Z</time>
</trkpt>
<trkpt lat="59.4792986" lon="31.1970647">
<ele>40.810001</ele>
<time>2026-09-01T01:37:30.000Z</time>
</trkpt>
<trkpt lat="59.4793165" lon="31.1970398">
<ele>40.350002</ele>
<time>2026-09-01T01:37:56.000Z</time>
</trkpt>
<trkpt lat="59.4793199" lon="31.1970595">
<ele>40.510002</ele>
<time>2026-09-01T01:38:26.000Z</time>
</trkpt>
<trkpt lat="59.4792004" lon="31.1970980">
<ele>40.290001</ele>
<time>2026-09-01T01:38:51.000Z</time>
</trkpt>
<trkpt lat="59.4791694" lon="31.1969981">
<ele>41.399998</ele>
<time>2026-09-01T01:39:21.000Z</time>
</trkpt>
<trkpt lat="59.4791490" lon="31.1969875">
<ele>40.090000</ele>
<time>2026-09-01T01:39:54.000Z</time>
</trkpt>
<trkpt lat="59.4792307" lon="31.1970931">
<ele>38.310001</ele>
<time>2026-09-01T01:40:15.000Z</time>
</trkpt>
<trkpt lat="59.4792744" lon="31.1970891">
<ele>38.139999</ele>
<time>2026-09-01T01:40:40.000Z</time>
</trkpt>
<trkpt lat="59.4792754" lon="31.1970565">
<ele>39.670002</ele>
<time>2026-09-01T01:41:11.000Z</time>
</trkpt>
<trkpt lat="59.4792828" lon="31.1970414">
<ele>40.070000</ele>
<time>2026-09-01T01:41:23.000Z</time>
</trkpt>
<trkpt lat="59.4793353" lon="31.1970652">
<ele>40.939999</ele>
<time>2026-09-01T01:41:50.000Z</time>
</trkpt>
<trkpt lat="59.4793129" lon="31.1970239">
<ele>40.180000</ele>
<time>2026-09-01T01:42:20.000Z</time>
</trkpt>
<trkpt lat="59.4792973" lon="31.1970890">
<ele>43.180000</ele>
<time>2026-09-01T01:42:48.000Z</time>
</trkpt>
<trkpt lat="59.4793189" lon="31.1970692">
<ele>44.439999</ele>
<time>2026-09-01T01:43:17.000Z</time>
</trkpt>
<trkpt lat="59.4793077" lon="31.1970538">
<ele>42.149998</ele>
<time>2026-09-01T01:43:48.000Z</time>
</trkpt>
<trkpt lat="59.4792941" lon="31.1970424">
<ele>44.500000</ele>
<time>2026-09-01T01:44:20.000Z</time>
</trkpt>
<trkpt lat="59.4792672" lon="31.1969649">
<ele>46.049999</ele>
<time>2026-09-01T01:44:52.000Z</time>
</trkpt>
<trkpt lat="59.4792897" lon="31.1970066">
<ele>46.470001</ele>
<time>2026-09-01T01:45:24.000Z</time>
</trkpt>
<trkpt lat="59.4792957" lon="31.1970303">
<ele>45.460003</ele>
<time>2026-09-01T01:45:56.000Z</time>
</trkpt>
<trkpt lat="59.4793146" lon="31.1969793">
<ele>46.110001</ele>
<time>2026-09-01T01:46:28.000Z</time>
</trkpt>
<trkpt lat="59.4792924" lon="31.1969682">
<ele>46.990002</ele>
<time>2026-09-01T01:46:58.000Z</time>
</trkpt>
<trkpt lat="59.4793155" lon="31.1970005">
<ele>46.419998</ele>
<time>2026-09-01T01:47:22.000Z</time>
</trkpt>
<trkpt lat="59.4792985" lon="31.1970609">
<ele>46.289997</ele>
<time>2026-09-01T01:47:41.000Z</time>
</trkpt>
<trkpt lat="59.4792664" lon="31.1971767">
<ele>45.000004</ele>
<time>2026-09-01T01:48:09.000Z</time>
</trkpt>
<trkpt lat="59.4792349" lon="31.1972167">
<ele>45.560001</ele>
<time>2026-09-01T01:48:33.000Z</time>
</trkpt>
<trkpt lat="59.4792090" lon="31.1973001">
<ele>45.360001</ele>
<time>2026-09-01T01:49:04.000Z</time>
</trkpt>
<trkpt lat="59.4792711" lon="31.1971333">
<ele>48.430000</ele>
<time>2026-09-01T01:49:35.000Z</time>
</trkpt>
<trkpt lat="59.4792384" lon="31.1971642">
<ele>44.560001</ele>
<time>2026-09-01T01:50:05.000Z</time>
</trkpt>
<trkpt lat="59.4792636" lon="31.1970743">
<ele>42.829998</ele>
<time>2026-09-01T01:50:24.000Z</time>
</trkpt>
<trkpt lat="59.4792743" lon="31.1970574">
<ele>42.279999</ele>
<time>2026-09-01T01:50:47.000Z</time>
</trkpt>
<trkpt lat="59.4792706" lon="31.1972100">
<ele>41.360001</ele>
<time>2026-09-01T01:51:13.000Z</time>
</trkpt>
<trkpt lat="59.4792813" lon="31.1973512">
<ele>38.060001</ele>
<time>2026-09-01T01:51:46.000Z</time>
</trkpt>
<trkpt lat="59.4792797" lon="31.1972451">
<ele>38.810001</ele>
<time>2026-09-01T01:52:13.000Z</time>
</trkpt>
<trkpt lat="59.4792951" lon="31.1970851">
<ele>39.110001</ele>
<time>2026-09-01T01:52:35.000Z</time>
</trkpt>
<trkpt lat="59.4792616" lon="31.1970980">
<ele>39.549999</ele>
<time>2026-09-01T01:53:08.000Z</time>
</trkpt>
<trkpt lat="59.4792481" lon="31.1970578">
<ele>39.240002</ele>
<time>2026-09-01T01:53:33.000Z</time>
</trkpt>
<trkpt lat="59.4792576" lon="31.1971143">
<ele>40.830002</ele>
<time>2026-09-01T01:53:58.000Z</time>
</trkpt>
<trkpt lat="59.4792713" lon="31.1971714">
<ele>40.789997</ele>
<time>2026-09-01T01:54:29.000Z</time>
</trkpt>
<trkpt lat="59.4792961" lon="31.1972798">
<ele>41.939999</ele>
<time>2026-09-01T01:54:57.000Z</time>
</trkpt>
<trkpt lat="59.4793020" lon="31.1971031">
<ele>42.220001</ele>
<time>2026-09-01T01:55:19.000Z</time>
</trkpt>
<trkpt lat="59.4792916" lon="31.1970372">
<ele>42.350002</ele>
<time>2026-09-01T01:55:49.000Z</time>
</trkpt>
<trkpt lat="59.4792866" lon="31.1970840">
<ele>43.590000</ele>
<time>2026-09-01T01:56:21.000Z</time>
</trkpt>
<trkpt lat="59.4792797" lon="31.1970518">
<ele>42.989998</ele>
<time>2026-09-01T01:56:50.000Z</time>
</trkpt>
<trkpt lat="59.4792662" lon="31.1970624">
<ele>42.060001</ele>
<time>2026-09-01T01:57:11.000Z</time>
</trkpt>
<trkpt lat="59.4793147" lon="31.1970478">
<ele>39.160000</ele>
<time>2026-09-01T01:57:39.000Z</time>
</trkpt>
<trkpt lat="59.4793221" lon="31.1970997">
<ele>38.520000</ele>
<time>2026-09-01T01:58:06.000Z</time>
</trkpt>
<trkpt lat="59.4793298" lon="31.1970597">
<ele>39.380001</ele>
<time>2026-09-01T01:58:36.000Z</time>
</trkpt>
<trkpt lat="59.4792819" lon="31.1970075">
<ele>40.120003</ele>
<time>2026-09-01T01:59:08.000Z</time>
</trkpt>
<trkpt lat="59.4792712" lon="31.1969804">
<ele>40.370003</ele>
<time>2026-09-01T01:59:36.000Z</time>
</trkpt>
<trkpt lat="59.4792764" lon="31.1970424">
<ele>39.930000</ele>
<time>2026-09-01T02:00:01.000Z</time>
</trkpt>
<trkpt lat="59.4792828" lon="31.1970180">
<ele>39.889999</ele>
<time>2026-09-01T02:00:29.000Z</time>
</trkpt>
<trkpt lat="59.4793026" lon="31.1969859">
<ele>40.039997</ele>
<time>2026-09-01T02:00:57.000Z</time>
</trkpt>
<trkpt lat="59.4793410" lon="31.1970638">
<ele>39.400002</ele>
<time>2026-09-01T02:01:28.000Z</time>
</trkpt>
<trkpt lat="59.4793394" lon="31.1970864">
<ele>39.939999</ele>
<time>2026-09-01T02:01:56.000Z</time>
</trkpt>
<trkpt lat="59.4793216" lon="31.1970627">
<ele>38.950001</ele>
<time>2026-09-01T02:02:24.000Z</time>
</trkpt>
<trkpt lat="59.4793286" lon="31.1970522">
<ele>39.310001</ele>
<time>2026-09-01T02:02:51.000Z</time>
</trkpt>
<trkpt lat="59.4793253" lon="31.1970742">
<ele>40.169998</ele>
<time>2026-09-01T02:03:19.000Z</time>
</trkpt>
<trkpt lat="59.4793358" lon="31.1971124">
<ele>40.799999</ele>
<time>2026-09-01T02:03:49.000Z</time>
</trkpt>
<trkpt lat="59.4793123" lon="31.1971942">
<ele>39.799999</ele>
<time>2026-09-01T02:03:58.000Z</time>
</trkpt>
<trkpt lat="59.4793066" lon="31.1972316">
<ele>39.680000</ele>
<time>2026-09-01T02:04:26.000Z</time>
</trkpt>
<trkpt lat="59.4793133" lon="31.1972101">
<ele>39.590004</ele>
<time>2026-09-01T02:05:02.000Z</time>
</trkpt>
<trkpt lat="59.4793098" lon="31.1972397">
<ele>40.169998</ele>
<time>2026-09-01T02:05:46.000Z</time>
</trkpt>
<trkpt lat="59.4792536" lon="31.1972240">
<ele>39.320000</ele>
<time>2026-09-01T02:06:12.000Z</time>
</trkpt>
<trkpt lat="59.4791164" lon="31.1972289">
<ele>37.160000</ele>
<time>2026-09-01T02:06:34.000Z</time>
</trkpt>
<trkpt lat="59.4789294" lon="31.1972222">
<ele>33.750000</ele>
<time>2026-09-01T02:06:56.000Z</time>
</trkpt>
<trkpt lat="59.4787005" lon="31.1971874">
<ele>31.369999</ele>
<time>2026-09-01T02:07:20.000Z</time>
</trkpt>
<trkpt lat="59.4786358" lon="31.1971620">
<ele>31.920000</ele>
<time>2026-09-01T02:07:26.000Z</time>
</trkpt>
<trkpt lat="59.4784676" lon="31.1971217">
<ele>34.250000</ele>
<time>2026-09-01T02:07:45.000Z</time>
</trkpt>
<trkpt lat="59.4782596" lon="31.1971223">
<ele>29.199999</ele>
<time>2026-09-01T02:08:07.000Z</time>
</trkpt>
<trkpt lat="59.4780435" lon="31.1970790">
<ele>26.310001</ele>
<time>2026-09-01T02:08:31.000Z</time>
</trkpt>
<trkpt lat="59.4777986" lon="31.1970054">
<ele>27.800001</ele>
<time>2026-09-01T02:08:53.000Z</time>
</trkpt>
<trkpt lat="59.4776112" lon="31.1969886">
<ele>26.340000</ele>
<time>2026-09-01T02:09:12.000Z</time>
</trkpt>
<trkpt lat="59.4774125" lon="31.1969667">
<ele>23.099998</ele>
<time>2026-09-01T02:09:31.000Z</time>
</trkpt>
<trkpt lat="59.4772006" lon="31.1969396">
<ele>21.000000</ele>
<time>2026-09-01T02:09:52.000Z</time>
</trkpt>
<trkpt lat="59.4769598" lon="31.1968460">
<ele>20.030001</ele>
<time>2026-09-01T02:10:12.000Z</time>
</trkpt>
<trkpt lat="59.4766975" lon="31.1968219">
<ele>20.720001</ele>
<time>2026-09-01T02:10:34.000Z</time>
</trkpt>
<trkpt lat="59.4764740" lon="31.1968437">
<ele>23.629999</ele>
<time>2026-09-01T02:10:51.000Z</time>
</trkpt>
<trkpt lat="59.4763403" lon="31.1968487">
<ele>25.060001</ele>
<time>2026-09-01T02:11:05.000Z</time>
</trkpt>
<trkpt lat="59.4761195" lon="31.1968334">
<ele>22.470001</ele>
<time>2026-09-01T02:11:24.000Z</time>
</trkpt>
<trkpt lat="59.4759487" lon="31.1969083">
<ele>21.210001</ele>
<time>2026-09-01T02:11:39.000Z</time>
</trkpt>
<trkpt lat="59.4757806" lon="31.1969994">
<ele>22.230000</ele>
<time>2026-09-01T02:11:53.000Z</time>
</trkpt>
<trkpt lat="59.4757608" lon="31.1970181">
<ele>22.770000</ele>
<time>2026-09-01T02:11:55.000Z</time>
</trkpt>
<trkpt lat="59.4756775" lon="31.1970003">
<ele>22.520000</ele>
<time>2026-09-01T02:12:04.000Z</time>
</trkpt>
<trkpt lat="59.4755278" lon="31.1971127">
<ele>19.880001</ele>
<time>2026-09-01T02:12:20.000Z</time>
</trkpt>
<trkpt lat="59.4753263" lon="31.1971586">
<ele>17.460001</ele>
<time>2026-09-01T02:12:36.000Z</time>
</trkpt>
<trkpt lat="59.4751037" lon="31.1971025">
<ele>21.280001</ele>
<time>2026-09-01T02:12:54.000Z</time>
</trkpt>
<trkpt lat="59.4749920" lon="31.1970255">
<ele>22.780001</ele>
<time>2026-09-01T02:13:04.000Z</time>
</trkpt>
<trkpt lat="59.4748350" lon="31.1970121">
<ele>22.629999</ele>
<time>2026-09-01T02:13:18.000Z</time>
</trkpt>
<trkpt lat="59.4746586" lon="31.1970295">
<ele>25.490000</ele>
<time>2026-09-01T02:13:33.000Z</time>
</trkpt>
<trkpt lat="59.4744934" lon="31.1970660">
<ele>26.639999</ele>
<time>2026-09-01T02:13:48.000Z</time>
</trkpt>
<trkpt lat="59.4742535" lon="31.1970930">
<ele>28.460001</ele>
<time>2026-09-01T02:14:09.000Z</time>
</trkpt>
<trkpt lat="59.4739867" lon="31.1971363">
<ele>25.920000</ele>
<time>2026-09-01T02:14:33.000Z</time>
</trkpt>
<trkpt lat="59.4738337" lon="31.1970568">
<ele>27.120001</ele>
<time>2026-09-01T02:14:48.000Z</time>
</trkpt>
<trkpt lat="59.4736568" lon="31.1969010">
<ele>29.719999</ele>
<time>2026-09-01T02:15:04.000Z</time>
</trkpt>
<trkpt lat="59.4734483" lon="31.1967034">
<ele>33.330002</ele>
<time>2026-09-01T02:15:22.000Z</time>
</trkpt>
<trkpt lat="59.4733428" lon="31.1966619">
<ele>34.860001</ele>
<time>2026-09-01T02:15:31.000Z</time>
</trkpt>
<trkpt lat="59.4732040" lon="31.1966139">
<ele>35.779999</ele>
<time>2026-09-01T02:15:44.000Z</time>
</trkpt>
<trkpt lat="59.4731018" lon="31.1965550">
<ele>35.580002</ele>
<time>2026-09-01T02:15:55.000Z</time>
</trkpt>
<trkpt lat="59.4729172" lon="31.1964112">
<ele>35.540001</ele>
<time>2026-09-01T02:16:11.000Z</time>
</trkpt>
<trkpt lat="59.4726768" lon="31.1963112">
<ele>36.030003</ele>
<time>2026-09-01T02:16:31.000Z</time>
</trkpt>
<trkpt lat="59.4726415" lon="31.1963030">
<ele>36.169998</ele>
<time>2026-09-01T02:16:34.000Z</time>
</trkpt>
<trkpt lat="59.4724634" lon="31.1963700">
<ele>34.770000</ele>
<time>2026-09-01T02:16:51.000Z</time>
</trkpt>
<trkpt lat="59.4723800" lon="31.1964476">
<ele>32.810001</ele>
<time>2026-09-01T02:16:59.000Z</time>
</trkpt>
<trkpt lat="59.4722316" lon="31.1965088">
<ele>28.190001</ele>
<time>2026-09-01T02:17:14.000Z</time>
</trkpt>
<trkpt lat="59.4720994" lon="31.1965823">
<ele>23.280001</ele>
<time>2026-09-01T02:17:29.000Z</time>
</trkpt>
<trkpt lat="59.4718712" lon="31.1966199">
<ele>17.460001</ele>
<time>2026-09-01T02:17:48.000Z</time>
</trkpt>
<trkpt lat="59.4716670" lon="31.1965721">
<ele>21.199999</ele>
<time>2026-09-01T02:18:09.000Z</time>
</trkpt>
<trkpt lat="59.4715701" lon="31.1965342">
<ele>22.990000</ele>
<time>2026-09-01T02:18:16.000Z</time>
</trkpt>
<trkpt lat="59.4714333" lon="31.1965171">
<ele>24.670002</ele>
<time>2026-09-01T02:18:26.000Z</time>
</trkpt>
<trkpt lat="59.4712603" lon="31.1964048">
<ele>28.610001</ele>
<time>2026-09-01T02:18:41.000Z</time>
</trkpt>
<trkpt lat="59.4712537" lon="31.1963488">
<ele>33.110001</ele>
<time>2026-09-01T02:18:58.000Z</time>
</trkpt>
<trkpt lat="59.4712360" lon="31.1963371">
<ele>37.709999</ele>
<time>2026-09-01T02:19:33.000Z</time>
</trkpt>
<trkpt lat="59.4712209" lon="31.1962928">
<ele>41.849998</ele>
<time>2026-09-01T02:20:15.000Z</time>
</trkpt>
<trkpt lat="59.4712045" lon="31.1962723">
<ele>43.720001</ele>
<time>2026-09-01T02:20:42.000Z</time>
</trkpt>
<trkpt lat="59.4710154" lon="31.1961213">
<ele>43.079998</ele>
<time>2026-09-01T02:21:05.000Z</time>
</trkpt>
<trkpt lat="59.4708643" lon="31.1960494">
<ele>40.740002</ele>
<time>2026-09-01T02:21:21.000Z</time>
</trkpt>
<trkpt lat="59.4706960" lon="31.1959478">
<ele>35.930000</ele>
<time>2026-09-01T02:21:42.000Z</time>
</trkpt>
<trkpt lat="59.4704818" lon="31.1958111">
<ele>28.720001</ele>
<time>2026-09-01T02:22:03.000Z</time>
</trkpt>
<trkpt lat="59.4701942" lon="31.1957903">
<ele>23.369999</ele>
<time>2026-09-01T02:22:24.000Z</time>
</trkpt>
<trkpt lat="59.4701397" lon="31.1957562">
<ele>24.910000</ele>
<time>2026-09-01T02:22:43.000Z</time>
</trkpt>
<trkpt lat="59.4701172" lon="31.1958267">
<ele>24.959999</ele>
<time>2026-09-01T02:23:14.000Z</time>
</trkpt>
<trkpt lat="59.4701035" lon="31.1957997">
<ele>25.619999</ele>
<time>2026-09-01T02:23:46.000Z</time>
</trkpt>
<trkpt lat="59.4700519" lon="31.1957579">
<ele>27.280001</ele>
<time>2026-09-01T02:24:07.000Z</time>
</trkpt>
<trkpt lat="59.4698850" lon="31.1957438">
<ele>27.170000</ele>
<time>2026-09-01T02:24:28.000Z</time>
</trkpt>
<trkpt lat="59.4697477" lon="31.1957384">
<ele>26.400000</ele>
<time>2026-09-01T02:24:40.000Z</time>
</trkpt>
<trkpt lat="59.4695389" lon="31.1956830">
<ele>24.530001</ele>
<time>2026-09-01T02:24:59.000Z</time>
</trkpt>
<trkpt lat="59.4693199" lon="31.1956013">
<ele>23.090000</ele>
<time>2026-09-01T02:25:15.000Z</time>
</trkpt>
<trkpt lat="59.4691740" lon="31.1956324">
<ele>22.639999</ele>
<time>2026-09-01T02:25:29.000Z</time>
</trkpt>
<trkpt lat="59.4691437" lon="31.1956484">
<ele>22.410000</ele>
<time>2026-09-01T02:25:32.000Z</time>
</trkpt>
<trkpt lat="59.4690752" lon="31.1956052">
<ele>21.910000</ele>
<time>2026-09-01T02:25:38.000Z</time>
</trkpt>
<trkpt lat="59.4690410" lon="31.1956064">
<ele>21.680000</ele>
<time>2026-09-01T02:25:41.000Z</time>
</trkpt>
<trkpt lat="59.4688413" lon="31.1956201">
<ele>20.530001</ele>
<time>2026-09-01T02:25:57.000Z</time>
</trkpt>
<trkpt lat="59.4686643" lon="31.1956039">
<ele>20.129999</ele>
<time>2026-09-01T02:26:12.000Z</time>
</trkpt>
<trkpt lat="59.4684674" lon="31.1956096">
<ele>20.260000</ele>
<time>2026-09-01T02:26:28.000Z</time>
</trkpt>
<trkpt lat="59.4683900" lon="31.1955941">
<ele>19.770000</ele>
<time>2026-09-01T02:26:36.000Z</time>
</trkpt>
<trkpt lat="59.4682571" lon="31.1955728">
<ele>19.010000</ele>
<time>2026-09-01T02:26:50.000Z</time>
</trkpt>
<trkpt lat="59.4681253" lon="31.1954274">
<ele>17.320000</ele>
<time>2026-09-01T02:27:05.000Z</time>
</trkpt>
<trkpt lat="59.4677876" lon="31.1952371">
<ele>15.730000</ele>
<time>2026-09-01T02:27:33.000Z</time>
</trkpt>
<trkpt lat="59.4675026" lon="31.1952056">
<ele>15.530000</ele>
<time>2026-09-01T02:28:00.000Z</time>
</trkpt>
<trkpt lat="59.4671624" lon="31.1951764">
<ele>18.170000</ele>
<time>2026-09-01T02:28:24.000Z</time>
</trkpt>
<trkpt lat="59.4670225" lon="31.1951719">
<ele>17.860001</ele>
<time>2026-09-01T02:28:35.000Z</time>
</trkpt>
<trkpt lat="59.4669591" lon="31.1951146">
<ele>17.219999</ele>
<time>2026-09-01T02:28:45.000Z</time>
</trkpt>
<trkpt lat="59.4668435" lon="31.1949579">
<ele>16.210001</ele>
<time>2026-09-01T02:29:03.000Z</time>
</trkpt>
<trkpt lat="59.4668489" lon="31.1949378">
<ele>16.100000</ele>
<time>2026-09-01T02:29:06.000Z</time>
</trkpt>
<trkpt lat="59.4667796" lon="31.1948610">
<ele>16.090000</ele>
<time>2026-09-01T02:29:16.000Z</time>
</trkpt>
<trkpt lat="59.4666214" lon="31.1945148">
<ele>20.060001</ele>
<time>2026-09-01T02:29:31.000Z</time>
</trkpt>
<trkpt lat="59.4664378" lon="31.1944363">
<ele>15.589999</ele>
<time>2026-09-01T02:29:51.000Z</time>
</trkpt>
<trkpt lat="59.4662651" lon="31.1944265">
<ele>20.580000</ele>
<time>2026-09-01T02:30:06.000Z</time>
</trkpt>
<trkpt lat="59.4661255" lon="31.1944454">
<ele>19.420000</ele>
<time>2026-09-01T02:30:20.000Z</time>
</trkpt>
<trkpt lat="59.4659700" lon="31.1944519">
<ele>16.910000</ele>
<time>2026-09-01T02:30:32.000Z</time>
</trkpt>
<trkpt lat="59.4658367" lon="31.1944572">
<ele>14.630000</ele>
<time>2026-09-01T02:30:44.000Z</time>
</trkpt>
<trkpt lat="59.4657928" lon="31.1944500">
<ele>14.389999</ele>
<time>2026-09-01T02:30:48.000Z</time>
</trkpt>
<trkpt lat="59.4656514" lon="31.1943461">
<ele>16.950001</ele>
<time>2026-09-01T02:31:04.000Z</time>
</trkpt>
<trkpt lat="59.4655928" lon="31.1941335">
<ele>20.450001</ele>
<time>2026-09-01T02:31:23.000Z</time>
</trkpt>
<trkpt lat="59.4654348" lon="31.1941708">
<ele>21.269999</ele>
<time>2026-09-01T02:31:38.000Z</time>
</trkpt>
<trkpt lat="59.4652877" lon="31.1941825">
<ele>20.860001</ele>
<time>2026-09-01T02:31:53.000Z</time>
</trkpt>
<trkpt lat="59.4651223" lon="31.1941711">
<ele>18.980000</ele>
<time>2026-09-01T02:32:07.000Z</time>
</trkpt>
<trkpt lat="59.4649256" lon="31.1941801">
<ele>18.260000</ele>
<time>2026-09-01T02:32:27.000Z</time>
</trkpt>
<trkpt lat="59.4646746" lon="31.1942466">
<ele>8.800000</ele>
<time>2026-09-01T02:32:50.000Z</time>
</trkpt>
<trkpt lat="59.4644731" lon="31.1941643">
<ele>9.000000</ele>
<time>2026-09-01T02:33:08.000Z</time>
</trkpt>
<trkpt lat="59.4643729" lon="31.1941120">
<ele>10.910001</ele>
<time>2026-09-01T02:33:21.000Z</time>
</trkpt>
<trkpt lat="59.4641271" lon="31.1941014">
<ele>10.230000</ele>
<time>2026-09-01T02:33:42.000Z</time>
</trkpt>
<trkpt lat="59.4638772" lon="31.1940390">
<ele>8.920000</ele>
<time>2026-09-01T02:34:05.000Z</time>
</trkpt>
<trkpt lat="59.4636270" lon="31.1940738">
<ele>5.320000</ele>
<time>2026-09-01T02:34:30.000Z</time>
</trkpt>
<trkpt lat="59.4633856" lon="31.1940827">
<ele>2.590000</ele>
<time>2026-09-01T02:34:52.000Z</time>
</trkpt>
<trkpt lat="59.4631292" lon="31.1939561">
<ele>2.230000</ele>
<time>2026-09-01T02:35:13.000Z</time>
</trkpt>
<trkpt lat="59.4628320" lon="31.1938577">
<ele>7.800000</ele>
<time>2026-09-01T02:35:36.000Z</time>
</trkpt>
<trkpt lat="59.4626074" lon="31.1937358">
<ele>18.300001</ele>
<time>2026-09-01T02:35:54.000Z</time>
</trkpt>
<trkpt lat="59.4624578" lon="31.1937769">
<ele>18.500000</ele>
<time>2026-09-01T02:36:10.000Z</time>
</trkpt>
<trkpt lat="59.4623878" lon="31.1937762">
<ele>17.990000</ele>
<time>2026-09-01T02:36:17.000Z</time>
</trkpt>
<trkpt lat="59.4622413" lon="31.1937977">
<ele>16.550001</ele>
<time>2026-09-01T02:36:30.000Z</time>
</trkpt>
<trkpt lat="59.4619932" lon="31.1937603">
<ele>10.690000</ele>
<time>2026-09-01T02:36:52.000Z</time>
</trkpt>
<trkpt lat="59.4617891" lon="31.1936815">
<ele>9.470000</ele>
<time>2026-09-01T02:37:10.000Z</time>
</trkpt>
<trkpt lat="59.4617529" lon="31.1935655">
<ele>12.150001</ele>
<time>2026-09-01T02:37:27.000Z</time>
</trkpt>
<trkpt lat="59.4617018" lon="31.1934163">
<ele>13.209999</ele>
<time>2026-09-01T02:37:36.000Z</time>
</trkpt>
<trkpt lat="59.4616088" lon="31.1932881">
<ele>16.770000</ele>
<time>2026-09-01T02:37:53.000Z</time>
</trkpt>
<trkpt lat="59.4613249" lon="31.1932572">
<ele>15.549999</ele>
<time>2026-09-01T02:38:17.000Z</time>
</trkpt>
<trkpt lat="59.4610396" lon="31.1931048">
<ele>17.830000</ele>
<time>2026-09-01T02:38:38.000Z</time>
</trkpt>
<trkpt lat="59.4608764" lon="31.1930999">
<ele>18.289999</ele>
<time>2026-09-01T02:38:54.000Z</time>
</trkpt>
<trkpt lat="59.4606955" lon="31.1930810">
<ele>13.900001</ele>
<time>2026-09-01T02:39:12.000Z</time>
</trkpt>
<trkpt lat="59.4602022" lon="31.1929075">
<ele>6.540000</ele>
<time>2026-09-01T02:39:58.000Z</time>
</trkpt>
<trkpt lat="59.4599030" lon="31.1929656">
<ele>11.320000</ele>
<time>2026-09-01T02:40:13.000Z</time>
</trkpt>
<trkpt lat="59.4597135" lon="31.1929505">
<ele>11.400000</ele>
<time>2026-09-01T02:40:33.000Z</time>
</trkpt>
<trkpt lat="59.4595345" lon="31.1928331">
<ele>10.820000</ele>
<time>2026-09-01T02:40:49.000Z</time>
</trkpt>
<trkpt lat="59.4593489" lon="31.1928346">
<ele>9.710000</ele>
<time>2026-09-01T02:41:08.000Z</time>
</trkpt>
<trkpt lat="59.4591351" lon="31.1928251">
<ele>10.200000</ele>
<time>2026-09-01T02:41:29.000Z</time>
</trkpt>
<trkpt lat="59.4589142" lon="31.1928478">
<ele>8.170000</ele>
<time>2026-09-01T02:41:52.000Z</time>
</trkpt>
<trkpt lat="59.4586532" lon="31.1927026">
<ele>8.660000</ele>
<time>2026-09-01T02:42:09.000Z</time>
</trkpt>
<trkpt lat="59.4585081" lon="31.1926484">
<ele>13.220000</ele>
<time>2026-09-01T02:42:23.000Z</time>
</trkpt>
<trkpt lat="59.4583735" lon="31.1926518">
<ele>12.890000</ele>
<time>2026-09-01T02:42:37.000Z</time>
</trkpt>
<trkpt lat="59.4583029" lon="31.1926268">
<ele>12.360001</ele>
<time>2026-09-01T02:42:45.000Z</time>
</trkpt>
<trkpt lat="59.4581620" lon="31.1926207">
<ele>11.200000</ele>
<time>2026-09-01T02:42:59.000Z</time>
</trkpt>
<trkpt lat="59.4580309" lon="31.1925709">
<ele>10.270000</ele>
<time>2026-09-01T02:43:10.000Z</time>
</trkpt>
<trkpt lat="59.4578703" lon="31.1924767">
<ele>8.620000</ele>
<time>2026-09-01T02:43:28.000Z</time>
</trkpt>
<trkpt lat="59.4577876" lon="31.1924867">
<ele>6.840000</ele>
<time>2026-09-01T02:43:35.000Z</time>
</trkpt>
<trkpt lat="59.4575575" lon="31.1924477">
<ele>6.000000</ele>
<time>2026-09-01T02:43:53.000Z</time>
</trkpt>
<trkpt lat="59.4575195" lon="31.1924624">
<ele>5.950000</ele>
<time>2026-09-01T02:43:57.000Z</time>
</trkpt>
<trkpt lat="59.4573570" lon="31.1923223">
<ele>6.930000</ele>
<time>2026-09-01T02:44:10.000Z</time>
</trkpt>
<trkpt lat="59.4571226" lon="31.1922917">
<ele>18.840000</ele>
<time>2026-09-01T02:44:27.000Z</time>
</trkpt>
<trkpt lat="59.4569462" lon="31.1923716">
<ele>20.389999</ele>
<time>2026-09-01T02:44:42.000Z</time>
</trkpt>
<trkpt lat="59.4568380" lon="31.1924058">
<ele>17.960001</ele>
<time>2026-09-01T02:44:56.000Z</time>
</trkpt>
<trkpt lat="59.4566327" lon="31.1924619">
<ele>14.400001</ele>
<time>2026-09-01T02:45:13.000Z</time>
</trkpt>
<trkpt lat="59.4564980" lon="31.1924006">
<ele>11.860001</ele>
<time>2026-09-01T02:45:26.000Z</time>
</trkpt>
<trkpt lat="59.4557541" lon="31.1921721">
<ele>7.660000</ele>
<time>2026-09-01T02:46:26.000Z</time>
</trkpt>
<trkpt lat="59.4556689" lon="31.1921467">
<ele>17.710001</ele>
<time>2026-09-01T02:46:53.000Z</time>
</trkpt>
<trkpt lat="59.4555939" lon="31.1921643">
<ele>25.410000</ele>
<time>2026-09-01T02:47:22.000Z</time>
</trkpt>
<trkpt lat="59.4555348" lon="31.1922086">
<ele>26.920000</ele>
<time>2026-09-01T02:47:45.000Z</time>
</trkpt>
<trkpt lat="59.4554086" lon="31.1921868">
<ele>27.250000</ele>
<time>2026-09-01T02:48:01.000Z</time>
</trkpt>
<trkpt lat="59.4552268" lon="31.1921750">
<ele>25.090000</ele>
<time>2026-09-01T02:48:19.000Z</time>
</trkpt>
<trkpt lat="59.4550804" lon="31.1920604">
<ele>22.419998</ele>
<time>2026-09-01T02:48:35.000Z</time>
</trkpt>
<trkpt lat="59.4548741" lon="31.1920173">
<ele>21.349998</ele>
<time>2026-09-01T02:48:54.000Z</time>
</trkpt>
<trkpt lat="59.4546029" lon="31.1920674">
<ele>20.290001</ele>
<time>2026-09-01T02:49:15.000Z</time>
</trkpt>
<trkpt lat="59.4544044" lon="31.1920194">
<ele>19.129999</ele>
<time>2026-09-01T02:49:31.000Z</time>
</trkpt>
<trkpt lat="59.4541556" lon="31.1919515">
<ele>18.500000</ele>
<time>2026-09-01T02:49:51.000Z</time>
</trkpt>
<trkpt lat="59.4538882" lon="31.1918939">
<ele>16.210001</ele>
<time>2026-09-01T02:50:14.000Z</time>
</trkpt>
<trkpt lat="59.4536235" lon="31.1918888">
<ele>16.190001</ele>
<time>2026-09-01T02:50:34.000Z</time>
</trkpt>
<trkpt lat="59.4534518" lon="31.1918486">
<ele>17.670000</ele>
<time>2026-09-01T02:50:48.000Z</time>
</trkpt>
<trkpt lat="59.4534093" lon="31.1918323">
<ele>18.119999</ele>
<time>2026-09-01T02:50:51.000Z</time>
</trkpt>
<trkpt lat="59.4532630" lon="31.1917484">
<ele>18.480000</ele>
<time>2026-09-01T02:51:06.000Z</time>
</trkpt>
<trkpt lat="59.4530962" lon="31.1915897">
<ele>15.250001</ele>
<time>2026-09-01T02:51:27.000Z</time>
</trkpt>
<trkpt lat="59.4529507" lon="31.1916047">
<ele>14.429999</ele>
<time>2026-09-01T02:51:41.000Z</time>
</trkpt>
<trkpt lat="59.4528153" lon="31.1916123">
<ele>14.460000</ele>
<time>2026-09-01T02:51:53.000Z</time>
</trkpt>
<trkpt lat="59.4526661" lon="31.1915928">
<ele>16.270000</ele>
<time>2026-09-01T02:52:02.000Z</time>
</trkpt>
<trkpt lat="59.4525692" lon="31.1915944">
<ele>18.059999</ele>
<time>2026-09-01T02:52:14.000Z</time>
</trkpt>
<trkpt lat="59.4524487" lon="31.1916709">
<ele>17.019999</ele>
<time>2026-09-01T02:52:26.000Z</time>
</trkpt>
<trkpt lat="59.4522877" lon="31.1916871">
<ele>14.640000</ele>
<time>2026-09-01T02:52:42.000Z</time>
</trkpt>
<trkpt lat="59.4521671" lon="31.1915676">
<ele>14.850000</ele>
<time>2026-09-01T02:52:56.000Z</time>
</trkpt>
<trkpt lat="59.4521432" lon="31.1915016">
<ele>18.670000</ele>
<time>2026-09-01T02:53:15.000Z</time>
</trkpt>
<trkpt lat="59.4522963" lon="31.1914552">
<ele>17.850000</ele>
<time>2026-09-01T02:53:36.000Z</time>
</trkpt>
<trkpt lat="59.4524894" lon="31.1914581">
<ele>15.790000</ele>
<time>2026-09-01T02:53:56.000Z</time>
</trkpt>
<trkpt lat="59.4526429" lon="31.1913977">
<ele>16.020000</ele>
<time>2026-09-01T02:54:10.000Z</time>
</trkpt>
<trkpt lat="59.4528123" lon="31.1913541">
<ele>16.830000</ele>
<time>2026-09-01T02:54:26.000Z</time>
</trkpt>
<trkpt lat="59.4529791" lon="31.1914121">
<ele>15.990000</ele>
<time>2026-09-01T02:54:46.000Z</time>
</trkpt>
<trkpt lat="59.4530741" lon="31.1915064">
<ele>17.060001</ele>
<time>2026-09-01T02:55:00.000Z</time>
</trkpt>
<trkpt lat="59.4531762" lon="31.1918735">
<ele>20.260000</ele>
<time>2026-09-01T02:55:29.000Z</time>
</trkpt>
<trkpt lat="59.4531928" lon="31.1918897">
<ele>22.299999</ele>
<time>2026-09-01T02:55:33.000Z</time>
</trkpt>
<trkpt lat="59.4532471" lon="31.1918955">
<ele>28.710001</ele>
<time>2026-09-01T02:56:01.000Z</time>
</trkpt>
<trkpt lat="59.4532087" lon="31.1919210">
<ele>29.600000</ele>
<time>2026-09-01T02:56:27.000Z</time>
</trkpt>
<trkpt lat="59.4532060" lon="31.1919599">
<ele>30.860001</ele>
<time>2026-09-01T02:56:48.000Z</time>
</trkpt>
<trkpt lat="59.4532076" lon="31.1920129">
<ele>34.599998</ele>
<time>2026-09-01T02:57:19.000Z</time>
</trkpt>
<trkpt lat="59.4532342" lon="31.1919954">
<ele>36.560001</ele>
<time>2026-09-01T02:57:45.000Z</time>
</trkpt>
<trkpt lat="59.4532399" lon="31.1920124">
<ele>40.590000</ele>
<time>2026-09-01T02:58:15.000Z</time>
</trkpt>
<trkpt lat="59.4532564" lon="31.1919901">
<ele>41.520000</ele>
<time>2026-09-01T02:58:44.000Z</time>
</trkpt>
<trkpt lat="59.4532777" lon="31.1920451">
<ele>41.489998</ele>
<time>2026-09-01T02:59:10.000Z</time>
</trkpt>
<trkpt lat="59.4531501" lon="31.1919993">
<ele>39.370003</ele>
<time>2026-09-01T02:59:31.000Z</time>
</trkpt>
<trkpt lat="59.4531394" lon="31.1919868">
<ele>39.039997</ele>
<time>2026-09-01T02:59:33.000Z</time>
</trkpt>
<trkpt lat="59.4528565" lon="31.1919516">
<ele>34.889999</ele>
<time>2026-09-01T02:59:55.000Z</time>
</trkpt>
<trkpt lat="59.4526192" lon="31.1919728">
<ele>31.939999</ele>
<time>2026-09-01T03:00:16.000Z</time>
</trkpt>
<trkpt lat="59.4523960" lon="31.1918965">
<ele>27.410000</ele>
<time>2026-09-01T03:00:35.000Z</time>
</trkpt>
<trkpt lat="59.4522394" lon="31.1919182">
<ele>25.879999</ele>
<time>2026-09-01T03:00:47.000Z</time>
</trkpt>
<trkpt lat="59.4518083" lon="31.1917488">
<ele>19.340000</ele>
<time>2026-09-01T03:01:28.000Z</time>
</trkpt>
<trkpt lat="59.4513640" lon="31.1917494">
<ele>14.559999</ele>
<time>2026-09-01T03:02:05.000Z</time>
</trkpt>
<trkpt lat="59.4508770" lon="31.1918022">
<ele>11.580000</ele>
<time>2026-09-01T03:02:40.000Z</time>
</trkpt>
<trkpt lat="59.4507717" lon="31.1917302">
<ele>11.650001</ele>
<time>2026-09-01T03:02:48.000Z</time>
</trkpt>
<trkpt lat="59.4505557" lon="31.1915645">
<ele>12.219999</ele>
<time>2026-09-01T03:03:05.000Z</time>
</trkpt>
<trkpt lat="59.4503920" lon="31.1915601">
<ele>12.520000</ele>
<time>2026-09-01T03:03:17.000Z</time>
</trkpt>
<trkpt lat="59.4500272" lon="31.1915085">
<ele>11.090000</ele>
<time>2026-09-01T03:03:46.000Z</time>
</trkpt>
<trkpt lat="59.4498804" lon="31.1914781">
<ele>11.460000</ele>
<time>2026-09-01T03:04:00.000Z</time>
</trkpt>
<trkpt lat="59.4495709" lon="31.1913900">
<ele>11.270000</ele>
<time>2026-09-01T03:04:30.000Z</time>
</trkpt>
<trkpt lat="59.4492608" lon="31.1913090">
<ele>10.179999</ele>
<time>2026-09-01T03:04:55.000Z</time>
</trkpt>
<trkpt lat="59.4490766" lon="31.1912458">
<ele>8.470000</ele>
<time>2026-09-01T03:05:10.000Z</time>
</trkpt>
<trkpt lat="59.4489509" lon="31.1913487">
<ele>6.420000</ele>
<time>2026-09-01T03:05:29.000Z</time>
</trkpt>
<trkpt lat="59.4488513" lon="31.1912998">
<ele>6.390000</ele>
<time>2026-09-01T03:05:42.000Z</time>
</trkpt>
<trkpt lat="59.4485845" lon="31.1913065">
<ele>9.020000</ele>
<time>2026-09-01T03:05:56.000Z</time>
</trkpt>
<trkpt lat="59.4485675" lon="31.1913065">
<ele>9.929999</ele>
<time>2026-09-01T03:05:57.000Z</time>
</trkpt>
<trkpt lat="59.4483333" lon="31.1912635">
<ele>12.160000</ele>
<time>2026-09-01T03:06:14.000Z</time>
</trkpt>
<trkpt lat="59.4477704" lon="31.1910241">
<ele>19.549999</ele>
<time>2026-09-01T03:06:55.000Z</time>
</trkpt>
<trkpt lat="59.4475449" lon="31.1909792">
<ele>23.540001</ele>
<time>2026-09-01T03:07:14.000Z</time>
</trkpt>
<trkpt lat="59.4473480" lon="31.1910377">
<ele>21.870001</ele>
<time>2026-09-01T03:07:30.000Z</time>
</trkpt>
<trkpt lat="59.4472956" lon="31.1910212">
<ele>20.879999</ele>
<time>2026-09-01T03:07:35.000Z</time>
</trkpt>
<trkpt lat="59.4471393" lon="31.1910174">
<ele>17.590000</ele>
<time>2026-09-01T03:07:51.000Z</time>
</trkpt>
<trkpt lat="59.4469912" lon="31.1909559">
<ele>16.610001</ele>
<time>2026-09-01T03:08:03.000Z</time>
</trkpt>
<trkpt lat="59.4467189" lon="31.1909218">
<ele>14.090000</ele>
<time>2026-09-01T03:08:25.000Z</time>
</trkpt>
<trkpt lat="59.4464285" lon="31.1908350">
<ele>13.640000</ele>
<time>2026-09-01T03:08:48.000Z</time>
</trkpt>
<trkpt lat="59.4461658" lon="31.1907427">
<ele>14.260000</ele>
<time>2026-09-01T03:09:09.000Z</time>
</trkpt>
<trkpt lat="59.4458701" lon="31.1907327">
<ele>14.380000</ele>
<time>2026-09-01T03:09:32.000Z</time>
</trkpt>
<trkpt lat="59.4455889" lon="31.1906234">
<ele>14.950000</ele>
<time>2026-09-01T03:09:55.000Z</time>
</trkpt>
<trkpt lat="59.4452682" lon="31.1905446">
<ele>16.520000</ele>
<time>2026-09-01T03:10:19.000Z</time>
</trkpt>
<trkpt lat="59.4449626" lon="31.1904999">
<ele>17.949999</ele>
<time>2026-09-01T03:10:46.000Z</time>
</trkpt>
<trkpt lat="59.4446357" lon="31.1904482">
<ele>17.760000</ele>
<time>2026-09-01T03:11:11.000Z</time>
</trkpt>
<trkpt lat="59.4444378" lon="31.1904015">
<ele>19.939999</ele>
<time>2026-09-01T03:11:26.000Z</time>
</trkpt>
<trkpt lat="59.4442697" lon="31.1903258">
<ele>22.210001</ele>
<time>2026-09-01T03:11:39.000Z</time>
</trkpt>
<trkpt lat="59.4441125" lon="31.1903322">
<ele>23.160000</ele>
<time>2026-09-01T03:11:57.000Z</time>
</trkpt>
<trkpt lat="59.4439614" lon="31.1902626">
<ele>22.789999</ele>
<time>2026-09-01T03:12:10.000Z</time>
</trkpt>
<trkpt lat="59.4437854" lon="31.1902846">
<ele>21.940001</ele>
<time>2026-09-01T03:12:26.000Z</time>
</trkpt>
<trkpt lat="59.4436617" lon="31.1902772">
<ele>20.240000</ele>
<time>2026-09-01T03:12:37.000Z</time>
</trkpt>
<trkpt lat="59.4434899" lon="31.1902350">
<ele>20.010000</ele>
<time>2026-09-01T03:12:51.000Z</time>
</trkpt>
<trkpt lat="59.4433386" lon="31.1901779">
<ele>20.030001</ele>
<time>2026-09-01T03:13:03.000Z</time>
</trkpt>
<trkpt lat="59.4431366" lon="31.1900723">
<ele>20.380001</ele>
<time>2026-09-01T03:13:18.000Z</time>
</trkpt>
<trkpt lat="59.4428373" lon="31.1900887">
<ele>20.150000</ele>
<time>2026-09-01T03:13:40.000Z</time>
</trkpt>
<trkpt lat="59.4426356" lon="31.1900118">
<ele>20.129999</ele>
<time>2026-09-01T03:13:55.000Z</time>
</trkpt>
<trkpt lat="59.4423635" lon="31.1899628">
<ele>21.429998</ele>
<time>2026-09-01T03:14:16.000Z</time>
</trkpt>
<trkpt lat="59.4422225" lon="31.1899719">
<ele>21.920000</ele>
<time>2026-09-01T03:14:30.000Z</time>
</trkpt>
<trkpt lat="59.4419314" lon="31.1899505">
<ele>21.210001</ele>
<time>2026-09-01T03:14:51.000Z</time>
</trkpt>
<trkpt lat="59.4417362" lon="31.1899306">
<ele>19.350000</ele>
<time>2026-09-01T03:15:08.000Z</time>
</trkpt>
<trkpt lat="59.4416386" lon="31.1897808">
<ele>22.260000</ele>
<time>2026-09-01T03:15:23.000Z</time>
</trkpt>
<trkpt lat="59.4414696" lon="31.1897886">
<ele>25.340000</ele>
<time>2026-09-01T03:15:46.000Z</time>
</trkpt>
<trkpt lat="59.4411746" lon="31.1897296">
<ele>25.719999</ele>
<time>2026-09-01T03:16:11.000Z</time>
</trkpt>
<trkpt lat="59.4409820" lon="31.1897111">
<ele>25.910000</ele>
<time>2026-09-01T03:16:27.000Z</time>
</trkpt>
<trkpt lat="59.4408791" lon="31.1897276">
<ele>25.450001</ele>
<time>2026-09-01T03:16:35.000Z</time>
</trkpt>
<trkpt lat="59.4406678" lon="31.1896696">
<ele>23.910002</ele>
<time>2026-09-01T03:16:52.000Z</time>
</trkpt>
<trkpt lat="59.4403957" lon="31.1896087">
<ele>23.120001</ele>
<time>2026-09-01T03:17:15.000Z</time>
</trkpt>
<trkpt lat="59.4401572" lon="31.1894968">
<ele>22.189999</ele>
<time>2026-09-01T03:17:35.000Z</time>
</trkpt>
<trkpt lat="59.4399231" lon="31.1894508">
<ele>22.390001</ele>
<time>2026-09-01T03:17:51.000Z</time>
</trkpt>
<trkpt lat="59.4397214" lon="31.1894439">
<ele>20.840000</ele>
<time>2026-09-01T03:18:08.000Z</time>
</trkpt>
<trkpt lat="59.4394895" lon="31.1894368">
<ele>20.070000</ele>
<time>2026-09-01T03:18:28.000Z</time>
</trkpt>
<trkpt lat="59.4393200" lon="31.1893838">
<ele>19.410000</ele>
<time>2026-09-01T03:18:43.000Z</time>
</trkpt>
<trkpt lat="59.4391388" lon="31.1893041">
<ele>18.450001</ele>
<time>2026-09-01T03:19:00.000Z</time>
</trkpt>
<trkpt lat="59.4389514" lon="31.1892942">
<ele>18.770000</ele>
<time>2026-09-01T03:19:11.000Z</time>
</trkpt>
<trkpt lat="59.4387889" lon="31.1892811">
<ele>19.080000</ele>
<time>2026-09-01T03:19:23.000Z</time>
</trkpt>
<trkpt lat="59.4386144" lon="31.1892040">
<ele>22.280001</ele>
<time>2026-09-01T03:19:35.000Z</time>
</trkpt>
<trkpt lat="59.4384649" lon="31.1892579">
<ele>19.910002</ele>
<time>2026-09-01T03:19:51.000Z</time>
</trkpt>
<trkpt lat="59.4381705" lon="31.1891810">
<ele>17.049999</ele>
<time>2026-09-01T03:20:14.000Z</time>
</trkpt>
<trkpt lat="59.4380657" lon="31.1891382">
<ele>17.219999</ele>
<time>2026-09-01T03:20:21.000Z</time>
</trkpt>
<trkpt lat="59.4378741" lon="31.1890703">
<ele>19.340000</ele>
<time>2026-09-01T03:20:36.000Z</time>
</trkpt>
<trkpt lat="59.4376864" lon="31.1891200">
<ele>19.110001</ele>
<time>2026-09-01T03:20:51.000Z</time>
</trkpt>
<trkpt lat="59.4374294" lon="31.1890014">
<ele>21.219999</ele>
<time>2026-09-01T03:21:14.000Z</time>
</trkpt>
<trkpt lat="59.4372814" lon="31.1889808">
<ele>22.289999</ele>
<time>2026-09-01T03:21:32.000Z</time>
</trkpt>
<trkpt lat="59.4371521" lon="31.1889671">
<ele>22.860001</ele>
<time>2026-09-01T03:21:44.000Z</time>
</trkpt>
<trkpt lat="59.4369633" lon="31.1889957">
<ele>23.110001</ele>
<time>2026-09-01T03:22:01.000Z</time>
</trkpt>
<trkpt lat="59.4369224" lon="31.1889935">
<ele>22.759998</ele>
<time>2026-09-01T03:22:04.000Z</time>
</trkpt>
<trkpt lat="59.4368560" lon="31.1889719">
<ele>21.750000</ele>
<time>2026-09-01T03:22:15.000Z</time>
</trkpt>
<trkpt lat="59.4367084" lon="31.1889466">
<ele>20.969999</ele>
<time>2026-09-01T03:22:30.000Z</time>
</trkpt>
<trkpt lat="59.4366509" lon="31.1889462">
<ele>21.150000</ele>
<time>2026-09-01T03:22:34.000Z</time>
</trkpt>
<trkpt lat="59.4363782" lon="31.1888949">
<ele>23.070002</ele>
<time>2026-09-01T03:22:56.000Z</time>
</trkpt>
<trkpt lat="59.4362872" lon="31.1888579">
<ele>22.660000</ele>
<time>2026-09-01T03:23:04.000Z</time>
</trkpt>
<trkpt lat="59.4361434" lon="31.1888498">
<ele>22.559999</ele>
<time>2026-09-01T03:23:17.000Z</time>
</trkpt>
<trkpt lat="59.4359782" lon="31.1888346">
<ele>21.730000</ele>
<time>2026-09-01T03:23:30.000Z</time>
</trkpt>
<trkpt lat="59.4358266" lon="31.1887480">
<ele>22.810001</ele>
<time>2026-09-01T03:23:43.000Z</time>
</trkpt>
<trkpt lat="59.4355467" lon="31.1887672">
<ele>22.670000</ele>
<time>2026-09-01T03:24:05.000Z</time>
</trkpt>
<trkpt lat="59.4353943" lon="31.1886870">
<ele>23.980000</ele>
<time>2026-09-01T03:24:18.000Z</time>
</trkpt>
<trkpt lat="59.4352783" lon="31.1886798">
<ele>23.080000</ele>
<time>2026-09-01T03:24:28.000Z</time>
</trkpt>
<trkpt lat="59.4352336" lon="31.1886359">
<ele>22.480000</ele>
<time>2026-09-01T03:24:32.000Z</time>
</trkpt>
<trkpt lat="59.4351190" lon="31.1884420">
<ele>20.770000</ele>
<time>2026-09-01T03:24:44.000Z</time>
</trkpt>
<trkpt lat="59.4350628" lon="31.1883576">
<ele>20.870001</ele>
<time>2026-09-01T03:24:48.000Z</time>
</trkpt>
<trkpt lat="59.4349836" lon="31.1882489">
<ele>20.320000</ele>
<time>2026-09-01T03:24:54.000Z</time>
</trkpt>
<trkpt lat="59.4348752" lon="31.1880351">
<ele>19.820000</ele>
<time>2026-09-01T03:25:04.000Z</time>
</trkpt>
<trkpt lat="59.4347653" lon="31.1878804">
<ele>19.209999</ele>
<time>2026-09-01T03:25:16.000Z</time>
</trkpt>
<trkpt lat="59.4346874" lon="31.1876979">
<ele>16.690001</ele>
<time>2026-09-01T03:25:29.000Z</time>
</trkpt>
<trkpt lat="59.4345037" lon="31.1872914">
<ele>12.200000</ele>
<time>2026-09-01T03:25:47.000Z</time>
</trkpt>
<trkpt lat="59.4344256" lon="31.1870220">
<ele>9.900001</ele>
<time>2026-09-01T03:25:58.000Z</time>
</trkpt>
<trkpt lat="59.4343915" lon="31.1867061">
<ele>5.930000</ele>
<time>2026-09-01T03:26:12.000Z</time>
</trkpt>
<trkpt lat="59.4343169" lon="31.1860991">
<ele>2.180000</ele>
<time>2026-09-01T03:26:33.000Z</time>
</trkpt>
<trkpt lat="59.4342998" lon="31.1858249">
<ele>1.050000</ele>
<time>2026-09-01T03:26:46.000Z</time>
</trkpt>
<trkpt lat="59.4342863" lon="31.1854350">
<ele>-0.100000</ele>
<time>2026-09-01T03:27:00.000Z</time>
</trkpt>
<trkpt lat="59.4342732" lon="31.1849382">
<ele>-0.820000</ele>
<time>2026-09-01T03:27:21.000Z</time>
</trkpt>
<trkpt lat="59.4342802" lon="31.1844835">
<ele>-2.290000</ele>
<time>2026-09-01T03:27:41.000Z</time>
</trkpt>
<trkpt lat="59.4343347" lon="31.1841803">
<ele>-3.450000</ele>
<time>2026-09-01T03:27:57.000Z</time>
</trkpt>
<trkpt lat="59.4343758" lon="31.1836858">
<ele>2.390000</ele>
<time>2026-09-01T03:28:16.000Z</time>
</trkpt>
<trkpt lat="59.4343796" lon="31.1836586">
<ele>2.600000</ele>
<time>2026-09-01T03:28:17.000Z</time>
</trkpt>
<trkpt lat="59.4344019" lon="31.1833918">
<ele>2.870000</ele>
<time>2026-09-01T03:28:32.000Z</time>
</trkpt>
<trkpt lat="59.4344119" lon="31.1830098">
<ele>2.480000</ele>
<time>2026-09-01T03:28:47.000Z</time>
</trkpt>
<trkpt lat="59.4344130" lon="31.1826016">
<ele>2.120000</ele>
<time>2026-09-01T03:29:03.000Z</time>
</trkpt>
<trkpt lat="59.4344871" lon="31.1822564">
<ele>3.750000</ele>
<time>2026-09-01T03:29:23.000Z</time>
</trkpt>
<trkpt lat="59.4344491" lon="31.1817232">
<ele>2.870000</ele>
<time>2026-09-01T03:29:42.000Z</time>
</trkpt>
<trkpt lat="59.4344589" lon="31.1813120">
<ele>3.070000</ele>
<time>2026-09-01T03:29:59.000Z</time>
</trkpt>
<trkpt lat="59.4344648" lon="31.1808778">
<ele>3.650000</ele>
<time>2026-09-01T03:30:18.000Z</time>
</trkpt>
<trkpt lat="59.4344647" lon="31.1808478">
<ele>3.530000</ele>
<time>2026-09-01T03:30:19.000Z</time>
</trkpt>
<trkpt lat="59.4344744" lon="31.1804370">
<ele>3.210000</ele>
<time>2026-09-01T03:30:36.000Z</time>
</trkpt>
<trkpt lat="59.4344817" lon="31.1803888">
<ele>3.250000</ele>
<time>2026-09-01T03:30:38.000Z</time>
</trkpt>
<trkpt lat="59.4345292" lon="31.1798810">
<ele>1.550000</ele>
<time>2026-09-01T03:30:58.000Z</time>
</trkpt>
<trkpt lat="59.4345147" lon="31.1793834">
<ele>-0.510000</ele>
<time>2026-09-01T03:31:17.000Z</time>
</trkpt>
<trkpt lat="59.4345316" lon="31.1789732">
<ele>0.470000</ele>
<time>2026-09-01T03:31:35.000Z</time>
</trkpt>
<trkpt lat="59.4345624" lon="31.1788404">
<ele>0.660000</ele>
<time>2026-09-01T03:31:42.000Z</time>
</trkpt>
<trkpt lat="59.4345931" lon="31.1785455">
<ele>8.450000</ele>
<time>2026-09-01T03:32:01.000Z</time>
</trkpt>
<trkpt lat="59.4346304" lon="31.1784978">
<ele>12.999999</ele>
<time>2026-09-01T03:32:32.000Z</time>
</trkpt>
<trkpt lat="59.4346158" lon="31.1784151">
<ele>15.990000</ele>
<time>2026-09-01T03:32:59.000Z</time>
</trkpt>
<trkpt lat="59.4346423" lon="31.1783359">
<ele>16.780001</ele>
<time>2026-09-01T03:33:13.000Z</time>
</trkpt>
<trkpt lat="59.4347112" lon="31.1782898">
<ele>17.120001</ele>
<time>2026-09-01T03:33:20.000Z</time>
</trkpt>
<trkpt lat="59.4348272" lon="31.1782836">
<ele>16.809999</ele>
<time>2026-09-01T03:33:34.000Z</time>
</trkpt>
<trkpt lat="59.4350248" lon="31.1782145">
<ele>21.139999</ele>
<time>2026-09-01T03:33:49.000Z</time>
</trkpt>
<trkpt lat="59.4351963" lon="31.1781577">
<ele>21.110001</ele>
<time>2026-09-01T03:34:05.000Z</time>
</trkpt>
<trkpt lat="59.4353240" lon="31.1780762">
<ele>20.929998</ele>
<time>2026-09-01T03:34:17.000Z</time>
</trkpt>
<trkpt lat="59.4354882" lon="31.1779968">
<ele>21.429998</ele>
<time>2026-09-01T03:34:30.000Z</time>
</trkpt>
<trkpt lat="59.4355186" lon="31.1779290">
<ele>21.609999</ele>
<time>2026-09-01T03:34:34.000Z</time>
</trkpt>
<trkpt lat="59.4355103" lon="31.1776292">
<ele>23.900000</ele>
<time>2026-09-01T03:34:52.000Z</time>
</trkpt>
<trkpt lat="59.4354947" lon="31.1775602">
<ele>24.040001</ele>
<time>2026-09-01T03:34:56.000Z</time>
</trkpt>
<trkpt lat="59.4354447" lon="31.1773051">
<ele>25.070000</ele>
<time>2026-09-01T03:35:11.000Z</time>
</trkpt>
<trkpt lat="59.4354361" lon="31.1772604">
<ele>25.609999</ele>
<time>2026-09-01T03:35:13.000Z</time>
</trkpt>
<trkpt lat="59.4353441" lon="31.1770392">
<ele>26.650000</ele>
<time>2026-09-01T03:35:26.000Z</time>
</trkpt>
<trkpt lat="59.4353137" lon="31.1768090">
<ele>28.170000</ele>
<time>2026-09-01T03:35:45.000Z</time>
</trkpt>
<trkpt lat="59.4352650" lon="31.1766455">
<ele>27.670000</ele>
<time>2026-09-01T03:35:59.000Z</time>
</trkpt>
<trkpt lat="59.4351245" lon="31.1763008">
<ele>24.929998</ele>
<time>2026-09-01T03:36:19.000Z</time>
</trkpt>
<trkpt lat="59.4350018" lon="31.1758554">
<ele>22.150000</ele>
<time>2026-09-01T03:36:38.000Z</time>
</trkpt>
<trkpt lat="59.4349427" lon="31.1756303">
<ele>22.940001</ele>
<time>2026-09-01T03:36:46.000Z</time>
</trkpt>
<trkpt lat="59.4349263" lon="31.1752441">
<ele>24.330002</ele>
<time>2026-09-01T03:37:01.000Z</time>
</trkpt>
<trkpt lat="59.4349060" lon="31.1750798">
<ele>27.209999</ele>
<time>2026-09-01T03:37:09.000Z</time>
</trkpt>
<trkpt lat="59.4348388" lon="31.1748394">
<ele>29.559999</ele>
<time>2026-09-01T03:37:22.000Z</time>
</trkpt>
<trkpt lat="59.4347329" lon="31.1746486">
<ele>30.449999</ele>
<time>2026-09-01T03:37:34.000Z</time>
</trkpt>
<trkpt lat="59.4346174" lon="31.1745509">
<ele>31.340000</ele>
<time>2026-09-01T03:37:45.000Z</time>
</trkpt>
<trkpt lat="59.4345327" lon="31.1744380">
<ele>31.439999</ele>
<time>2026-09-01T03:37:57.000Z</time>
</trkpt>
<trkpt lat="59.4342770" lon="31.1740357">
<ele>31.369999</ele>
<time>2026-09-01T03:38:20.000Z</time>
</trkpt>
<trkpt lat="59.4341040" lon="31.1738494">
<ele>32.040001</ele>
<time>2026-09-01T03:38:39.000Z</time>
</trkpt>
<trkpt lat="59.4339478" lon="31.1735980">
<ele>33.250000</ele>
<time>2026-09-01T03:38:58.000Z</time>
</trkpt>
<trkpt lat="59.4337338" lon="31.1733614">
<ele>30.139999</ele>
<time>2026-09-01T03:39:19.000Z</time>
</trkpt>
<trkpt lat="59.4336558" lon="31.1732027">
<ele>29.110001</ele>
<time>2026-09-01T03:39:27.000Z</time>
</trkpt>
<trkpt lat="59.4336148" lon="31.1729668">
<ele>26.350000</ele>
<time>2026-09-01T03:39:43.000Z</time>
</trkpt>
<trkpt lat="59.4335691" lon="31.1728250">
<ele>29.070000</ele>
<time>2026-09-01T03:40:06.000Z</time>
</trkpt>
<trkpt lat="59.4335327" lon="31.1728545">
<ele>30.000000</ele>
<time>2026-09-01T03:40:34.000Z</time>
</trkpt>
<trkpt lat="59.4335508" lon="31.1728593">
<ele>31.990002</ele>
<time>2026-09-01T03:40:58.000Z</time>
</trkpt>
<trkpt lat="59.4335663" lon="31.1728893">
<ele>32.169998</ele>
<time>2026-09-01T03:41:17.000Z</time>
</trkpt>
<trkpt lat="59.4336006" lon="31.1729261">
<ele>32.030003</ele>
<time>2026-09-01T03:41:45.000Z</time>
</trkpt>
<trkpt lat="59.4335666" lon="31.1729389">
<ele>33.189999</ele>
<time>2026-09-01T03:42:17.000Z</time>
</trkpt>
<trkpt lat="59.4335575" lon="31.1729692">
<ele>34.000000</ele>
<time>2026-09-01T03:42:48.000Z</time>
</trkpt>
<trkpt lat="59.4335651" lon="31.1729378">
<ele>34.329998</ele>
<time>2026-09-01T03:43:21.000Z</time>
</trkpt>
<trkpt lat="59.4335734" lon="31.1730415">
<ele>34.389999</ele>
<time>2026-09-01T03:43:48.000Z</time>
</trkpt>
<trkpt lat="59.4335614" lon="31.1730387">
<ele>34.649998</ele>
<time>2026-09-01T03:43:53.000Z</time>
</trkpt>
<trkpt lat="59.4335516" lon="31.1729471">
<ele>35.430000</ele>
<time>2026-09-01T03:44:09.000Z</time>
</trkpt>
<trkpt lat="59.4335481" lon="31.1728990">
<ele>35.489998</ele>
<time>2026-09-01T03:44:11.000Z</time>
</trkpt>
<trkpt lat="59.4335007" lon="31.1726248">
<ele>35.360001</ele>
<time>2026-09-01T03:44:21.000Z</time>
</trkpt>
<trkpt lat="59.4334106" lon="31.1721044">
<ele>35.160000</ele>
<time>2026-09-01T03:44:32.000Z</time>
</trkpt>
<trkpt lat="59.4332716" lon="31.1713377">
<ele>34.590000</ele>
<time>2026-09-01T03:44:45.000Z</time>
</trkpt>
<trkpt lat="59.4329782" lon="31.1708051">
<ele>35.889999</ele>
<time>2026-09-01T03:44:57.000Z</time>
</trkpt>
<trkpt lat="59.4327629" lon="31.1706962">
<ele>36.500000</ele>
<time>2026-09-01T03:45:05.000Z</time>
</trkpt>
<trkpt lat="59.4323926" lon="31.1700611">
<ele>39.320000</ele>
<time>2026-09-01T03:45:19.000Z</time>
</trkpt>
<trkpt lat="59.4320131" lon="31.1696704">
<ele>37.200001</ele>
<time>2026-09-01T03:45:31.000Z</time>
</trkpt>
<trkpt lat="59.4316264" lon="31.1693189">
<ele>37.250000</ele>
<time>2026-09-01T03:45:45.000Z</time>
</trkpt>
<trkpt lat="59.4311348" lon="31.1688000">
<ele>37.549999</ele>
<time>2026-09-01T03:45:57.000Z</time>
</trkpt>
<trkpt lat="59.4304522" lon="31.1680802">
<ele>41.220001</ele>
<time>2026-09-01T03:46:09.000Z</time>
</trkpt>
<trkpt lat="59.4296881" lon="31.1672911">
<ele>39.949997</ele>
<time>2026-09-01T03:46:22.000Z</time>
</trkpt>
<trkpt lat="59.4288406" lon="31.1664115">
<ele>41.309998</ele>
<time>2026-09-01T03:46:36.000Z</time>
</trkpt>
<trkpt lat="59.4287810" lon="31.1662275">
<ele>41.150002</ele>
<time>2026-09-01T03:46:39.000Z</time>
</trkpt>
<trkpt lat="59.4290218" lon="31.1653287">
<ele>39.380001</ele>
<time>2026-09-01T03:46:47.000Z</time>
</trkpt>
<trkpt lat="59.4296393" lon="31.1632231">
<ele>40.459999</ele>
<time>2026-09-01T03:47:01.000Z</time>
</trkpt>
<trkpt lat="59.4301654" lon="31.1613361">
<ele>40.910000</ele>
<time>2026-09-01T03:47:15.000Z</time>
</trkpt>
<trkpt lat="59.4302508" lon="31.1610345">
<ele>40.329998</ele>
<time>2026-09-01T03:47:18.000Z</time>
</trkpt>
<trkpt lat="59.4301570" lon="31.1605734">
<ele>41.549999</ele>
<time>2026-09-01T03:47:26.000Z</time>
</trkpt>
<trkpt lat="59.4293287" lon="31.1596925">
<ele>42.730000</ele>
<time>2026-09-01T03:47:38.000Z</time>
</trkpt>
<trkpt lat="59.4283622" lon="31.1587408">
<ele>40.039997</ele>
<time>2026-09-01T03:47:47.000Z</time>
</trkpt>
<trkpt lat="59.4268198" lon="31.1570585">
<ele>40.750000</ele>
<time>2026-09-01T03:47:59.000Z</time>
</trkpt>
<trkpt lat="59.4249223" lon="31.1550834">
<ele>42.180000</ele>
<time>2026-09-01T03:48:13.000Z</time>
</trkpt>
<trkpt lat="59.4244108" lon="31.1540992">
<ele>42.340000</ele>
<time>2026-09-01T03:48:18.000Z</time>
</trkpt>
<trkpt lat="59.4233968" lon="31.1505245">
<ele>44.260002</ele>
<time>2026-09-01T03:48:30.000Z</time>
</trkpt>
<trkpt lat="59.4223580" lon="31.1468095">
<ele>46.059998</ele>
<time>2026-09-01T03:48:40.000Z</time>
</trkpt>
<trkpt lat="59.4212308" lon="31.1427911">
<ele>51.049999</ele>
<time>2026-09-01T03:48:51.000Z</time>
</trkpt>
<trkpt lat="59.4203264" lon="31.1394879">
<ele>54.330002</ele>
<time>2026-09-01T03:49:02.000Z</time>
</trkpt>
<trkpt lat="59.4192284" lon="31.1366634">
<ele>53.639999</ele>
<time>2026-09-01T03:49:13.000Z</time>
</trkpt>
<trkpt lat="59.4182516" lon="31.1356163">
<ele>52.480000</ele>
<time>2026-09-01T03:49:20.000Z</time>
</trkpt>
<trkpt lat="59.4170614" lon="31.1352040">
<ele>52.609997</ele>
<time>2026-09-01T03:49:29.000Z</time>
</trkpt>
<trkpt lat="59.4163619" lon="31.1352297">
<ele>50.369999</ele>
<time>2026-09-01T03:49:37.000Z</time>
</trkpt>
<trkpt lat="59.4160431" lon="31.1352519">
<ele>48.879997</ele>
<time>2026-09-01T03:49:45.000Z</time>
</trkpt>
<trkpt lat="59.4157673" lon="31.1352643">
<ele>48.250000</ele>
<time>2026-09-01T03:49:56.000Z</time>
</trkpt>
<trkpt lat="59.4152946" lon="31.1352037">
<ele>47.910000</ele>
<time>2026-09-01T03:50:02.000Z</time>
</trkpt>
<trkpt lat="59.4147781" lon="31.1348315">
<ele>47.210003</ele>
<time>2026-09-01T03:50:07.000Z</time>
</trkpt>
<trkpt lat="59.4138245" lon="31.1335649">
<ele>47.910000</ele>
<time>2026-09-01T03:50:16.000Z</time>
</trkpt>
<trkpt lat="59.4133528" lon="31.1337146">
<ele>49.570004</ele>
<time>2026-09-01T03:50:22.000Z</time>
</trkpt>
<trkpt lat="59.4132732" lon="31.1338234">
<ele>49.580002</ele>
<time>2026-09-01T03:50:23.000Z</time>
</trkpt>
<trkpt lat="59.4126730" lon="31.1348517">
<ele>47.799999</ele>
<time>2026-09-01T03:50:30.000Z</time>
</trkpt>
<trkpt lat="59.4125059" lon="31.1360654">
<ele>47.210003</ele>
<time>2026-09-01T03:50:37.000Z</time>
</trkpt>
<trkpt lat="59.4128897" lon="31.1368743">
<ele>51.560001</ele>
<time>2026-09-01T03:50:44.000Z</time>
</trkpt>
<trkpt lat="59.4134199" lon="31.1366112">
<ele>51.720001</ele>
<time>2026-09-01T03:50:50.000Z</time>
</trkpt>
<trkpt lat="59.4136105" lon="31.1355573">
<ele>52.630001</ele>
<time>2026-09-01T03:50:56.000Z</time>
</trkpt>
<trkpt lat="59.4135392" lon="31.1352085">
<ele>53.129997</ele>
<time>2026-09-01T03:50:58.000Z</time>
</trkpt>
<trkpt lat="59.4127319" lon="31.1329563">
<ele>56.760002</ele>
<time>2026-09-01T03:51:10.000Z</time>
</trkpt>
<trkpt lat="59.4116965" lon="31.1302549">
<ele>48.619999</ele>
<time>2026-09-01T03:51:23.000Z</time>
</trkpt>
<trkpt lat="59.4105865" lon="31.1274960">
<ele>47.639999</ele>
<time>2026-09-01T03:51:36.000Z</time>
</trkpt>
<trkpt lat="59.4093908" lon="31.1248274">
<ele>46.920002</ele>
<time>2026-09-01T03:51:49.000Z</time>
</trkpt>
<trkpt lat="59.4083778" lon="31.1227691">
<ele>50.549999</ele>
<time>2026-09-01T03:52:02.000Z</time>
</trkpt>
<trkpt lat="59.4081937" lon="31.1223996">
<ele>51.899998</ele>
<time>2026-09-01T03:52:09.000Z</time>
</trkpt>
<trkpt lat="59.4081886" lon="31.1223975">
<ele>52.739998</ele>
<time>2026-09-01T03:52:10.000Z</time>
</trkpt>
<trkpt lat="59.4081628" lon="31.1222821">
<ele>53.590000</ele>
<time>2026-09-01T03:52:13.000Z</time>
</trkpt>
<trkpt lat="59.4083660" lon="31.1215855">
<ele>54.370003</ele>
<time>2026-09-01T03:52:20.000Z</time>
</trkpt>
<trkpt lat="59.4091816" lon="31.1201568">
<ele>54.230003</ele>
<time>2026-09-01T03:52:28.000Z</time>
</trkpt>
<trkpt lat="59.4105447" lon="31.1176086">
<ele>53.059998</ele>
<time>2026-09-01T03:52:39.000Z</time>
</trkpt>
<trkpt lat="59.4120540" lon="31.1147809">
<ele>53.940002</ele>
<time>2026-09-01T03:52:50.000Z</time>
</trkpt>
<trkpt lat="59.4134993" lon="31.1121152">
<ele>51.509998</ele>
<time>2026-09-01T03:53:02.000Z</time>
</trkpt>
<trkpt lat="59.4149282" lon="31.1094343">
<ele>50.420002</ele>
<time>2026-09-01T03:53:14.000Z</time>
</trkpt>
<trkpt lat="59.4163763" lon="31.1067245">
<ele>51.439999</ele>
<time>2026-09-01T03:53:24.000Z</time>
</trkpt>
<trkpt lat="59.4186894" lon="31.1023616">
<ele>50.919998</ele>
<time>2026-09-01T03:53:38.000Z</time>
</trkpt>
<trkpt lat="59.4213109" lon="31.0975458">
<ele>50.599998</ele>
<time>2026-09-01T03:53:52.000Z</time>
</trkpt>
<trkpt lat="59.4240156" lon="31.0925207">
<ele>50.699997</ele>
<time>2026-09-01T03:54:06.000Z</time>
</trkpt>
<trkpt lat="59.4263410" lon="31.0882471">
<ele>50.329998</ele>
<time>2026-09-01T03:54:18.000Z</time>
</trkpt>
<trkpt lat="59.4285682" lon="31.0839902">
<ele>52.180000</ele>
<time>2026-09-01T03:54:30.000Z</time>
</trkpt>
<trkpt lat="59.4311485" lon="31.0791694">
<ele>52.070000</ele>
<time>2026-09-01T03:54:44.000Z</time>
</trkpt>
<trkpt lat="59.4333397" lon="31.0751381">
<ele>55.559998</ele>
<time>2026-09-01T03:54:56.000Z</time>
</trkpt>
<trkpt lat="59.4358607" lon="31.0703807">
<ele>61.139999</ele>
<time>2026-09-01T03:55:10.000Z</time>
</trkpt>
<trkpt lat="59.4371625" lon="31.0679596">
<ele>63.140003</ele>
<time>2026-09-01T03:55:19.000Z</time>
</trkpt>
<trkpt lat="59.4389683" lon="31.0645997">
<ele>62.509998</ele>
<time>2026-09-01T03:55:32.000Z</time>
</trkpt>
<trkpt lat="59.4408268" lon="31.0611705">
<ele>60.669998</ele>
<time>2026-09-01T03:55:45.000Z</time>
</trkpt>
<trkpt lat="59.4428210" lon="31.0575020">
<ele>56.559998</ele>
<time>2026-09-01T03:56:00.000Z</time>
</trkpt>
<trkpt lat="59.4445870" lon="31.0541885">
<ele>54.370003</ele>
<time>2026-09-01T03:56:13.000Z</time>
</trkpt>
<trkpt lat="59.4464637" lon="31.0506860">
<ele>52.560001</ele>
<time>2026-09-01T03:56:25.000Z</time>
</trkpt>
<trkpt lat="59.4487276" lon="31.0464324">
<ele>54.110001</ele>
<time>2026-09-01T03:56:38.000Z</time>
</trkpt>
<trkpt lat="59.4508779" lon="31.0424285">
<ele>54.680000</ele>
<time>2026-09-01T03:56:51.000Z</time>
</trkpt>
<trkpt lat="59.4526824" lon="31.0391009">
<ele>54.760002</ele>
<time>2026-09-01T03:57:02.000Z</time>
</trkpt>
<trkpt lat="59.4544098" lon="31.0359837">
<ele>51.689999</ele>
<time>2026-09-01T03:57:14.000Z</time>
</trkpt>
<trkpt lat="59.4561321" lon="31.0328198">
<ele>49.179996</ele>
<time>2026-09-01T03:57:27.000Z</time>
</trkpt>
<trkpt lat="59.4579020" lon="31.0295491">
<ele>47.649998</ele>
<time>2026-09-01T03:57:41.000Z</time>
</trkpt>
<trkpt lat="59.4597088" lon="31.0262126">
<ele>47.760002</ele>
<time>2026-09-01T03:57:56.000Z</time>
</trkpt>
<trkpt lat="59.4615852" lon="31.0227698">
<ele>45.090000</ele>
<time>2026-09-01T03:58:11.000Z</time>
</trkpt>
<trkpt lat="59.4632761" lon="31.0196243">
<ele>45.630001</ele>
<time>2026-09-01T03:58:25.000Z</time>
</trkpt>
<trkpt lat="59.4651305" lon="31.0163209">
<ele>41.369999</ele>
<time>2026-09-01T03:58:41.000Z</time>
</trkpt>
<trkpt lat="59.4666411" lon="31.0135943">
<ele>37.840000</ele>
<time>2026-09-01T03:58:55.000Z</time>
</trkpt>
<trkpt lat="59.4671149" lon="31.0127519">
<ele>37.000000</ele>
<time>2026-09-01T03:59:00.000Z</time>
</trkpt>
<trkpt lat="59.4672730" lon="31.0129829">
<ele>37.139999</ele>
<time>2026-09-01T03:59:05.000Z</time>
</trkpt>
<trkpt lat="59.4679450" lon="31.0143599">
<ele>43.539997</ele>
<time>2026-09-01T03:59:19.000Z</time>
</trkpt>
<trkpt lat="59.4682855" lon="31.0145853">
<ele>44.630001</ele>
<time>2026-09-01T03:59:26.000Z</time>
</trkpt>
<trkpt lat="59.4687289" lon="31.0142771">
<ele>45.299999</ele>
<time>2026-09-01T03:59:36.000Z</time>
</trkpt>
<trkpt lat="59.4695388" lon="31.0137367">
<ele>45.349998</ele>
<time>2026-09-01T03:59:49.000Z</time>
</trkpt>
<trkpt lat="59.4705131" lon="31.0132123">
<ele>47.639999</ele>
<time>2026-09-01T04:00:03.000Z</time>
</trkpt>
<trkpt lat="59.4712861" lon="31.0127519">
<ele>49.380001</ele>
<time>2026-09-01T04:00:13.000Z</time>
</trkpt>
<trkpt lat="59.4723348" lon="31.0121738">
<ele>48.389999</ele>
<time>2026-09-01T04:00:25.000Z</time>
</trkpt>
<trkpt lat="59.4728359" lon="31.0122994">
<ele>47.419998</ele>
<time>2026-09-01T04:00:30.000Z</time>
</trkpt>
<trkpt lat="59.4738242" lon="31.0134456">
<ele>53.110001</ele>
<time>2026-09-01T04:00:41.000Z</time>
</trkpt>
<trkpt lat="59.4750226" lon="31.0159409">
<ele>61.790001</ele>
<time>2026-09-01T04:00:56.000Z</time>
</trkpt>
<trkpt lat="59.4765580" lon="31.0191474">
<ele>58.190002</ele>
<time>2026-09-01T04:01:13.000Z</time>
</trkpt>
<trkpt lat="59.4769275" lon="31.0199255">
<ele>57.079998</ele>
<time>2026-09-01T04:01:18.000Z</time>
</trkpt>
<trkpt lat="59.4777203" lon="31.0215609">
<ele>54.279999</ele>
<time>2026-09-01T04:01:30.000Z</time>
</trkpt>
<trkpt lat="59.4786198" lon="31.0233503">
<ele>51.230000</ele>
<time>2026-09-01T04:01:42.000Z</time>
</trkpt>
<trkpt lat="59.4790814" lon="31.0243124">
<ele>48.050003</ele>
<time>2026-09-01T04:01:50.000Z</time>
</trkpt>
<trkpt lat="59.4794633" lon="31.0242052">
<ele>45.959999</ele>
<time>2026-09-01T04:01:57.000Z</time>
</trkpt>
<trkpt lat="59.4795186" lon="31.0240837">
<ele>45.390003</ele>
<time>2026-09-01T04:01:58.000Z</time>
</trkpt>
<trkpt lat="59.4804197" lon="31.0222732">
<ele>41.110001</ele>
<time>2026-09-01T04:02:12.000Z</time>
</trkpt>
<trkpt lat="59.4806496" lon="31.0218129">
<ele>39.150002</ele>
<time>2026-09-01T04:02:21.000Z</time>
</trkpt>
<trkpt lat="59.4807399" lon="31.0217740">
<ele>37.780003</ele>
<time>2026-09-01T04:02:36.000Z</time>
</trkpt>
<trkpt lat="59.4806617" lon="31.0217706">
<ele>53.869999</ele>
<time>2026-09-01T04:02:50.000Z</time>
</trkpt>
<trkpt lat="59.4806641" lon="31.0218302">
<ele>56.830002</ele>
<time>2026-09-01T04:03:06.000Z</time>
</trkpt>
<trkpt lat="59.4806671" lon="31.0218074">
<ele>55.259998</ele>
<time>2026-09-01T04:03:36.000Z</time>
</trkpt>
</trkseg>
</trk>
</gpx>
